<?xml version='1.0' encoding='UTF-8'?><gpx version="1.1" creator="JPX - https://github.com/jenetics/jpx" xmlns="http://www.topografix.com/GPX/1/1"><trk><trkseg><trkpt lat="43.462419" lon="11.0457718"><ele>271.0</ele><time>2026-04-19T07:22:53.659Z</time></trkpt><trkpt lat="43.4623751" lon="11.045697"><ele>271.0</ele><time>2026-04-19T07:22:55.658Z</time></trkpt><trkpt lat="43.4623918" lon="11.0455761"><ele>271.0</ele><time>2026-04-19T07:22:58.656Z</time></trkpt><trkpt lat="43.462428" lon="11.0454946"><ele>271.0</ele><time>2026-04-19T07:23:00.68Z</time></trkpt><trkpt lat="43.4624507" lon="11.0453408"><ele>271.0</ele><time>2026-04-19T07:23:02.646Z</time></trkpt><trkpt lat="43.4624938" lon="11.0451284"><ele>273.25</ele><time>2026-04-19T07:23:04.642Z</time></trkpt><trkpt lat="43.462539" lon="11.0449533"><ele>275.5</ele><time>2026-04-19T07:23:05.65Z</time></trkpt><trkpt lat="43.4625976" lon="11.0447339"><ele>277.75</ele><time>2026-04-19T07:23:07.635Z</time></trkpt><trkpt lat="43.4626513" lon="11.0446471"><ele>280.0</ele><time>2026-04-19T07:23:09.626Z</time></trkpt><trkpt lat="43.4626843" lon="11.0444409"><ele>280.0</ele><time>2026-04-19T07:23:10.642Z</time></trkpt><trkpt lat="43.4627133" lon="11.0442339"><ele>280.0</ele><time>2026-04-19T07:23:11.641Z</time></trkpt><trkpt lat="43.4627563" lon="11.044006"><ele>280.0</ele><time>2026-04-19T07:23:13.643Z</time></trkpt><trkpt lat="43.4627862" lon="11.043864"><ele>280.0</ele><time>2026-04-19T07:23:14.637Z</time></trkpt><trkpt lat="43.4628292" lon="11.0436704"><ele>282.5</ele><time>2026-04-19T07:23:16.64Z</time></trkpt><trkpt lat="43.4628484" lon="11.0435822"><ele>285.0</ele><time>2026-04-19T07:23:18.64Z</time></trkpt><trkpt lat="43.4628901" lon="11.0434036"><ele>287.5</ele><time>2026-04-19T07:23:19.632Z</time></trkpt><trkpt lat="43.4629536" lon="11.0431511"><ele>290.0</ele><time>2026-04-19T07:23:21.649Z</time></trkpt><trkpt lat="43.4629879" lon="11.0430593"><ele>290.8571428571429</ele><time>2026-04-19T07:23:22.636Z</time></trkpt><trkpt lat="43.4630268" lon="11.042976"><ele>291.7142857142857</ele><time>2026-04-19T07:23:23.656Z</time></trkpt><trkpt lat="43.4630735" lon="11.0428942"><ele>292.57142857142856</ele><time>2026-04-19T07:23:24.638Z</time></trkpt><trkpt lat="43.4631221" lon="11.042815"><ele>293.42857142857144</ele><time>2026-04-19T07:23:25.658Z</time></trkpt><trkpt lat="43.4631732" lon="11.0427421"><ele>294.2857142857143</ele><time>2026-04-19T07:23:26.64Z</time></trkpt><trkpt lat="43.4632282" lon="11.0426647"><ele>295.14285714285717</ele><time>2026-04-19T07:23:27.647Z</time></trkpt><trkpt lat="43.4632861" lon="11.0426035"><ele>296.0</ele><time>2026-04-19T07:23:28.655Z</time></trkpt><trkpt lat="43.4633969" lon="11.0425887"><ele>296.0</ele><time>2026-04-19T07:23:30.637Z</time></trkpt><trkpt lat="43.4634878" lon="11.0425745"><ele>296.0</ele><time>2026-04-19T07:23:32.641Z</time></trkpt><trkpt lat="43.4635381" lon="11.0424827"><ele>296.0</ele><time>2026-04-19T07:23:34.639Z</time></trkpt><trkpt lat="43.4635216" lon="11.042347"><ele>296.0</ele><time>2026-04-19T07:23:36.642Z</time></trkpt><trkpt lat="43.4634834" lon="11.0422171"><ele>296.0</ele><time>2026-04-19T07:23:38.648Z</time></trkpt><trkpt lat="43.4634933" lon="11.0421236"><ele>296.0</ele><time>2026-04-19T07:23:41.654Z</time></trkpt><trkpt lat="43.4635559" lon="11.042154"><ele>296.0</ele><time>2026-04-19T07:23:45.658Z</time></trkpt><trkpt lat="43.4635881" lon="11.0422539"><ele>296.0</ele><time>2026-04-19T07:23:47.66Z</time></trkpt><trkpt lat="43.4636324" lon="11.0423591"><ele>296.0</ele><time>2026-04-19T07:23:49.664Z</time></trkpt><trkpt lat="43.4636884" lon="11.0424355"><ele>296.0</ele><time>2026-04-19T07:23:51.657Z</time></trkpt><trkpt lat="43.4637663" lon="11.0425084"><ele>296.0</ele><time>2026-04-19T07:23:53.643Z</time></trkpt><trkpt lat="43.4638547" lon="11.0425433"><ele>296.0</ele><time>2026-04-19T07:23:55.655Z</time></trkpt><trkpt lat="43.4639295" lon="11.0425591"><ele>297.33333333333337</ele><time>2026-04-19T07:23:57.668Z</time></trkpt><trkpt lat="43.4640052" lon="11.0425504"><ele>298.6666666666667</ele><time>2026-04-19T07:23:59.652Z</time></trkpt><trkpt lat="43.4640809" lon="11.0425552"><ele>300.0</ele><time>2026-04-19T07:24:01.635Z</time></trkpt><trkpt lat="43.4641542" lon="11.0425684"><ele>301.3333333333333</ele><time>2026-04-19T07:24:03.656Z</time></trkpt><trkpt lat="43.4642267" lon="11.0425717"><ele>302.66666666666663</ele><time>2026-04-19T07:24:05.638Z</time></trkpt><trkpt lat="43.4643002" lon="11.0425764"><ele>304.0</ele><time>2026-04-19T07:24:07.642Z</time></trkpt><trkpt lat="43.4643771" lon="11.042599"><ele>304.0</ele><time>2026-04-19T07:24:09.633Z</time></trkpt><trkpt lat="43.464444" lon="11.0426078"><ele>304.0</ele><time>2026-04-19T07:24:11.649Z</time></trkpt><trkpt lat="43.4645071" lon="11.0425683"><ele>304.0</ele><time>2026-04-19T07:24:13.656Z</time></trkpt><trkpt lat="43.4645291" lon="11.0424796"><ele>304.0</ele><time>2026-04-19T07:24:14.657Z</time></trkpt><trkpt lat="43.4645542" lon="11.0423342"><ele>304.0</ele><time>2026-04-19T07:24:16.657Z</time></trkpt><trkpt lat="43.4645636" lon="11.0422307"><ele>304.0</ele><time>2026-04-19T07:24:18.663Z</time></trkpt><trkpt lat="43.4645836" lon="11.0421122"><ele>304.3333333333333</ele><time>2026-04-19T07:24:20.648Z</time></trkpt><trkpt lat="43.4646084" lon="11.0419813"><ele>304.66666666666663</ele><time>2026-04-19T07:24:22.657Z</time></trkpt><trkpt lat="43.4646211" lon="11.0418887"><ele>305.0</ele><time>2026-04-19T07:24:24.657Z</time></trkpt><trkpt lat="43.464656" lon="11.0418088"><ele>305.3333333333333</ele><time>2026-04-19T07:24:26.658Z</time></trkpt><trkpt lat="43.4647526" lon="11.0417538"><ele>305.6666666666667</ele><time>2026-04-19T07:24:28.656Z</time></trkpt><trkpt lat="43.4648157" lon="11.0417332"><ele>306.0</ele><time>2026-04-19T07:24:29.65Z</time></trkpt><trkpt lat="43.4648881" lon="11.0417161"><ele>306.3333333333333</ele><time>2026-04-19T07:24:30.658Z</time></trkpt><trkpt lat="43.4649669" lon="11.0417009"><ele>306.6666666666667</ele><time>2026-04-19T07:24:31.635Z</time></trkpt><trkpt lat="43.4650561" lon="11.0416952"><ele>307.0</ele><time>2026-04-19T07:24:32.653Z</time></trkpt><trkpt lat="43.4651433" lon="11.0417064"><ele>307.33333333333337</ele><time>2026-04-19T07:24:33.643Z</time></trkpt><trkpt lat="43.4652309" lon="11.0417222"><ele>307.6666666666667</ele><time>2026-04-19T07:24:34.639Z</time></trkpt><trkpt lat="43.4653205" lon="11.0417372"><ele>308.0</ele><time>2026-04-19T07:24:35.634Z</time></trkpt><trkpt lat="43.4654205" lon="11.0417494"><ele>307.6</ele><time>2026-04-19T07:24:36.63Z</time></trkpt><trkpt lat="43.4655176" lon="11.0417659"><ele>307.20000000000005</ele><time>2026-04-19T07:24:37.672Z</time></trkpt><trkpt lat="43.4656171" lon="11.0417846"><ele>306.8</ele><time>2026-04-19T07:24:38.637Z</time></trkpt><trkpt lat="43.4657245" lon="11.0417974"><ele>306.40000000000003</ele><time>2026-04-19T07:24:39.632Z</time></trkpt><trkpt lat="43.4658263" lon="11.0417935"><ele>306.0</ele><time>2026-04-19T07:24:40.652Z</time></trkpt><trkpt lat="43.4659285" lon="11.0417832"><ele>306.0</ele><time>2026-04-19T07:24:41.651Z</time></trkpt><trkpt lat="43.4660299" lon="11.0417679"><ele>306.0</ele><time>2026-04-19T07:24:42.646Z</time></trkpt><trkpt lat="43.4661193" lon="11.0417437"><ele>306.0</ele><time>2026-04-19T07:24:43.633Z</time></trkpt><trkpt lat="43.4662064" lon="11.0417009"><ele>306.0</ele><time>2026-04-19T07:24:44.655Z</time></trkpt><trkpt lat="43.4662901" lon="11.0416265"><ele>306.0</ele><time>2026-04-19T07:24:45.656Z</time></trkpt><trkpt lat="43.4663665" lon="11.0415334"><ele>306.6666666666667</ele><time>2026-04-19T07:24:46.638Z</time></trkpt><trkpt lat="43.4664312" lon="11.0414451"><ele>307.3333333333333</ele><time>2026-04-19T07:24:47.656Z</time></trkpt><trkpt lat="43.4664896" lon="11.041366"><ele>308.0</ele><time>2026-04-19T07:24:48.649Z</time></trkpt><trkpt lat="43.4665452" lon="11.0412832"><ele>308.66666666666663</ele><time>2026-04-19T07:24:49.641Z</time></trkpt><trkpt lat="43.4665871" lon="11.0412004"><ele>309.3333333333333</ele><time>2026-04-19T07:24:50.657Z</time></trkpt><trkpt lat="43.4666624" lon="11.0410749"><ele>310.0</ele><time>2026-04-19T07:24:52.648Z</time></trkpt><trkpt lat="43.4667034" lon="11.0410056"><ele>310.0</ele><time>2026-04-19T07:24:53.642Z</time></trkpt><trkpt lat="43.4667449" lon="11.0409389"><ele>310.0</ele><time>2026-04-19T07:24:54.653Z</time></trkpt><trkpt lat="43.4668301" lon="11.040803"><ele>310.0</ele><time>2026-04-19T07:24:56.65Z</time></trkpt><trkpt lat="43.4668797" lon="11.0407299"><ele>310.0</ele><time>2026-04-19T07:24:57.646Z</time></trkpt><trkpt lat="43.4669329" lon="11.0406455"><ele>310.0</ele><time>2026-04-19T07:24:58.671Z</time></trkpt><trkpt lat="43.4669939" lon="11.0405715"><ele>310.0</ele><time>2026-04-19T07:24:59.65Z</time></trkpt><trkpt lat="43.4670594" lon="11.0405023"><ele>310.8333333333333</ele><time>2026-04-19T07:25:00.65Z</time></trkpt><trkpt lat="43.4671276" lon="11.0404351"><ele>311.66666666666663</ele><time>2026-04-19T07:25:01.654Z</time></trkpt><trkpt lat="43.4672008" lon="11.0403729"><ele>312.5</ele><time>2026-04-19T07:25:02.658Z</time></trkpt><trkpt lat="43.4672761" lon="11.0403091"><ele>313.3333333333333</ele><time>2026-04-19T07:25:03.657Z</time></trkpt><trkpt lat="43.4673486" lon="11.0402482"><ele>314.1666666666667</ele><time>2026-04-19T07:25:04.635Z</time></trkpt><trkpt lat="43.4674283" lon="11.0401941"><ele>315.0</ele><time>2026-04-19T07:25:05.65Z</time></trkpt><trkpt lat="43.4675106" lon="11.0401489"><ele>315.0</ele><time>2026-04-19T07:25:06.65Z</time></trkpt><trkpt lat="43.4675969" lon="11.040113"><ele>315.0</ele><time>2026-04-19T07:25:07.657Z</time></trkpt><trkpt lat="43.4676897" lon="11.0400869"><ele>315.0</ele><time>2026-04-19T07:25:08.638Z</time></trkpt><trkpt lat="43.4677847" lon="11.0400551"><ele>315.0</ele><time>2026-04-19T07:25:09.63Z</time></trkpt><trkpt lat="43.467878" lon="11.0400307"><ele>315.0</ele><time>2026-04-19T07:25:10.658Z</time></trkpt><trkpt lat="43.4679717" lon="11.0400154"><ele>315.8333333333333</ele><time>2026-04-19T07:25:11.649Z</time></trkpt><trkpt lat="43.4680649" lon="11.040012"><ele>316.6666666666667</ele><time>2026-04-19T07:25:12.661Z</time></trkpt><trkpt lat="43.4681523" lon="11.0400202"><ele>317.5</ele><time>2026-04-19T07:25:13.649Z</time></trkpt><trkpt lat="43.4682326" lon="11.0400396"><ele>318.33333333333337</ele><time>2026-04-19T07:25:14.638Z</time></trkpt><trkpt lat="43.4683138" lon="11.0400619"><ele>319.1666666666667</ele><time>2026-04-19T07:25:15.659Z</time></trkpt><trkpt lat="43.4683934" lon="11.0400924"><ele>320.0</ele><time>2026-04-19T07:25:16.652Z</time></trkpt><trkpt lat="43.4684624" lon="11.0401268"><ele>320.0</ele><time>2026-04-19T07:25:17.658Z</time></trkpt><trkpt lat="43.4685207" lon="11.0401622"><ele>320.0</ele><time>2026-04-19T07:25:18.655Z</time></trkpt><trkpt lat="43.4686226" lon="11.0402369"><ele>320.0</ele><time>2026-04-19T07:25:20.657Z</time></trkpt><trkpt lat="43.468733" lon="11.0403125"><ele>320.0</ele><time>2026-04-19T07:25:22.65Z</time></trkpt><trkpt lat="43.4687961" lon="11.0403683"><ele>320.0</ele><time>2026-04-19T07:25:23.645Z</time></trkpt><trkpt lat="43.4688667" lon="11.0404359"><ele>317.4</ele><time>2026-04-19T07:25:24.66Z</time></trkpt><trkpt lat="43.4689514" lon="11.0405109"><ele>314.8</ele><time>2026-04-19T07:25:25.662Z</time></trkpt><trkpt lat="43.4690416" lon="11.0405882"><ele>312.2</ele><time>2026-04-19T07:25:26.649Z</time></trkpt><trkpt lat="43.4691349" lon="11.0406564"><ele>309.6</ele><time>2026-04-19T07:25:27.657Z</time></trkpt><trkpt lat="43.4692256" lon="11.0407088"><ele>307.0</ele><time>2026-04-19T07:25:28.643Z</time></trkpt><trkpt lat="43.469318" lon="11.0407463"><ele>307.0</ele><time>2026-04-19T07:25:29.631Z</time></trkpt><trkpt lat="43.4694145" lon="11.0407788"><ele>307.0</ele><time>2026-04-19T07:25:30.646Z</time></trkpt><trkpt lat="43.4695216" lon="11.0408125"><ele>307.0</ele><time>2026-04-19T07:25:31.644Z</time></trkpt><trkpt lat="43.4696278" lon="11.0408451"><ele>307.0</ele><time>2026-04-19T07:25:32.643Z</time></trkpt><trkpt lat="43.4697304" lon="11.0408704"><ele>307.0</ele><time>2026-04-19T07:25:33.626Z</time></trkpt><trkpt lat="43.4698231" lon="11.0408869"><ele>306.8333333333333</ele><time>2026-04-19T07:25:34.647Z</time></trkpt><trkpt lat="43.4699024" lon="11.0408956"><ele>306.66666666666663</ele><time>2026-04-19T07:25:35.645Z</time></trkpt><trkpt lat="43.4699637" lon="11.0409236"><ele>306.5</ele><time>2026-04-19T07:25:36.642Z</time></trkpt><trkpt lat="43.4700396" lon="11.040967"><ele>306.3333333333333</ele><time>2026-04-19T07:25:39.648Z</time></trkpt><trkpt lat="43.4701076" lon="11.0410313"><ele>306.1666666666667</ele><time>2026-04-19T07:25:43.653Z</time></trkpt><trkpt lat="43.4701979" lon="11.0410683"><ele>306.0</ele><time>2026-04-19T07:25:46.646Z</time></trkpt><trkpt lat="43.470265" lon="11.0410765"><ele>306.0</ele><time>2026-04-19T07:25:48.652Z</time></trkpt><trkpt lat="43.470346" lon="11.0410765"><ele>306.0</ele><time>2026-04-19T07:25:51.648Z</time></trkpt><trkpt lat="43.4704336" lon="11.0410697"><ele>306.0</ele><time>2026-04-19T07:28:21.654Z</time></trkpt><trkpt lat="43.4705184" lon="11.0410537"><ele>306.0</ele><time>2026-04-19T07:28:23.63Z</time></trkpt><trkpt lat="43.4706221" lon="11.0410195"><ele>306.0</ele><time>2026-04-19T07:28:25.649Z</time></trkpt><trkpt lat="43.4706916" lon="11.0410104"><ele>306.0</ele><time>2026-04-19T07:28:26.657Z</time></trkpt><trkpt lat="43.4707673" lon="11.0409998"><ele>305.8333333333333</ele><time>2026-04-19T07:28:27.645Z</time></trkpt><trkpt lat="43.4708522" lon="11.0409746"><ele>305.6666666666667</ele><time>2026-04-19T07:28:28.66Z</time></trkpt><trkpt lat="43.4709431" lon="11.0409459"><ele>305.5</ele><time>2026-04-19T07:28:29.636Z</time></trkpt><trkpt lat="43.4710181" lon="11.0409162"><ele>305.33333333333337</ele><time>2026-04-19T07:28:30.641Z</time></trkpt><trkpt lat="43.4710963" lon="11.0408828"><ele>305.1666666666667</ele><time>2026-04-19T07:28:31.649Z</time></trkpt><trkpt lat="43.4711789" lon="11.0408481"><ele>305.0</ele><time>2026-04-19T07:28:32.66Z</time></trkpt><trkpt lat="43.4712618" lon="11.0408285"><ele>303.6</ele><time>2026-04-19T07:28:33.661Z</time></trkpt><trkpt lat="43.4713536" lon="11.040865"><ele>302.2</ele><time>2026-04-19T07:28:34.632Z</time></trkpt><trkpt lat="43.4714447" lon="11.0409399"><ele>300.8</ele><time>2026-04-19T07:28:35.633Z</time></trkpt><trkpt lat="43.4715285" lon="11.0410308"><ele>299.4</ele><time>2026-04-19T07:28:36.643Z</time></trkpt><trkpt lat="43.4716003" lon="11.0411671"><ele>298.0</ele><time>2026-04-19T07:28:37.631Z</time></trkpt><trkpt lat="43.4716636" lon="11.0413027"><ele>298.0</ele><time>2026-04-19T07:28:38.632Z</time></trkpt><trkpt lat="43.4717238" lon="11.0414241"><ele>298.0</ele><time>2026-04-19T07:28:39.635Z</time></trkpt><trkpt lat="43.4717757" lon="11.0415299"><ele>298.0</ele><time>2026-04-19T07:28:40.635Z</time></trkpt><trkpt lat="43.4718201" lon="11.0416328"><ele>298.0</ele><time>2026-04-19T07:28:41.637Z</time></trkpt><trkpt lat="43.4718811" lon="11.041677"><ele>298.0</ele><time>2026-04-19T07:28:42.643Z</time></trkpt><trkpt lat="43.4720074" lon="11.0415604"><ele>298.0</ele><time>2026-04-19T07:28:44.633Z</time></trkpt><trkpt lat="43.4720569" lon="11.0414498"><ele>298.0</ele><time>2026-04-19T07:28:45.673Z</time></trkpt><trkpt lat="43.4720739" lon="11.041323"><ele>298.0</ele><time>2026-04-19T07:28:46.654Z</time></trkpt><trkpt lat="43.47207" lon="11.0411922"><ele>298.0</ele><time>2026-04-19T07:28:47.644Z</time></trkpt><trkpt lat="43.4720556" lon="11.0410778"><ele>298.0</ele><time>2026-04-19T07:28:48.66Z</time></trkpt><trkpt lat="43.4720311" lon="11.0409685"><ele>298.0</ele><time>2026-04-19T07:28:49.647Z</time></trkpt><trkpt lat="43.4719991" lon="11.0408746"><ele>298.0</ele><time>2026-04-19T07:28:50.662Z</time></trkpt><trkpt lat="43.4719582" lon="11.0407294"><ele>298.0</ele><time>2026-04-19T07:28:52.657Z</time></trkpt><trkpt lat="43.4719155" lon="11.0405821"><ele>298.0</ele><time>2026-04-19T07:28:54.646Z</time></trkpt><trkpt lat="43.4718591" lon="11.0404234"><ele>298.0</ele><time>2026-04-19T07:28:56.644Z</time></trkpt><trkpt lat="43.4718223" lon="11.0403013"><ele>295.8</ele><time>2026-04-19T07:28:58.655Z</time></trkpt><trkpt lat="43.471873" lon="11.0402383"><ele>293.6</ele><time>2026-04-19T07:29:00.65Z</time></trkpt><trkpt lat="43.4719387" lon="11.0402554"><ele>291.4</ele><time>2026-04-19T07:29:01.64Z</time></trkpt><trkpt lat="43.4720256" lon="11.0402745"><ele>289.2</ele><time>2026-04-19T07:29:02.638Z</time></trkpt><trkpt lat="43.4721396" lon="11.0403296"><ele>287.0</ele><time>2026-04-19T07:29:03.632Z</time></trkpt><trkpt lat="43.4722724" lon="11.0403908"><ele>283.0</ele><time>2026-04-19T07:29:04.64Z</time></trkpt><trkpt lat="43.4724089" lon="11.0404497"><ele>279.0</ele><time>2026-04-19T07:29:05.635Z</time></trkpt><trkpt lat="43.4725482" lon="11.0405166"><ele>275.0</ele><time>2026-04-19T07:29:06.66Z</time></trkpt><trkpt lat="43.4726859" lon="11.0405977"><ele>271.0</ele><time>2026-04-19T07:29:07.662Z</time></trkpt><trkpt lat="43.4728199" lon="11.0406698"><ele>270.66666666666663</ele><time>2026-04-19T07:29:08.636Z</time></trkpt><trkpt lat="43.4729556" lon="11.0407497"><ele>270.3333333333333</ele><time>2026-04-19T07:29:09.639Z</time></trkpt><trkpt lat="43.4731026" lon="11.0408408"><ele>270.0</ele><time>2026-04-19T07:29:10.642Z</time></trkpt><trkpt lat="43.4732537" lon="11.0409377"><ele>270.0</ele><time>2026-04-19T07:29:11.629Z</time></trkpt><trkpt lat="43.4734013" lon="11.0410381"><ele>270.0</ele><time>2026-04-19T07:29:12.644Z</time></trkpt><trkpt lat="43.4735409" lon="11.0411523"><ele>270.0</ele><time>2026-04-19T07:29:13.655Z</time></trkpt><trkpt lat="43.4736893" lon="11.0412694"><ele>266.3333333333333</ele><time>2026-04-19T07:29:14.636Z</time></trkpt><trkpt lat="43.4738522" lon="11.0413771"><ele>262.66666666666663</ele><time>2026-04-19T07:29:15.641Z</time></trkpt><trkpt lat="43.4740253" lon="11.0414798"><ele>259.0</ele><time>2026-04-19T07:29:16.631Z</time></trkpt><trkpt lat="43.4742057" lon="11.0415683"><ele>257.66666666666663</ele><time>2026-04-19T07:29:17.634Z</time></trkpt><trkpt lat="43.4744008" lon="11.0416447"><ele>256.3333333333333</ele><time>2026-04-19T07:29:18.631Z</time></trkpt><trkpt lat="43.4745915" lon="11.0417185"><ele>255.0</ele><time>2026-04-19T07:29:19.638Z</time></trkpt><trkpt lat="43.4747803" lon="11.0418053"><ele>255.0</ele><time>2026-04-19T07:29:20.648Z</time></trkpt><trkpt lat="43.4749713" lon="11.0418851"><ele>255.0</ele><time>2026-04-19T07:29:21.644Z</time></trkpt><trkpt lat="43.4751589" lon="11.0419597"><ele>255.0</ele><time>2026-04-19T07:29:22.649Z</time></trkpt><trkpt lat="43.4753405" lon="11.0420359"><ele>255.66666666666669</ele><time>2026-04-19T07:29:23.63Z</time></trkpt><trkpt lat="43.4755237" lon="11.0421401"><ele>256.33333333333337</ele><time>2026-04-19T07:29:24.635Z</time></trkpt><trkpt lat="43.475697" lon="11.0422379"><ele>257.0</ele><time>2026-04-19T07:29:25.63Z</time></trkpt><trkpt lat="43.4758555" lon="11.0423321"><ele>257.0</ele><time>2026-04-19T07:29:26.639Z</time></trkpt><trkpt lat="43.4760107" lon="11.042418"><ele>257.0</ele><time>2026-04-19T07:29:27.641Z</time></trkpt><trkpt lat="43.4761555" lon="11.0424972"><ele>257.0</ele><time>2026-04-19T07:29:28.645Z</time></trkpt><trkpt lat="43.4763064" lon="11.0425939"><ele>254.33333333333334</ele><time>2026-04-19T07:29:29.64Z</time></trkpt><trkpt lat="43.4764641" lon="11.0427121"><ele>251.66666666666669</ele><time>2026-04-19T07:29:30.629Z</time></trkpt><trkpt lat="43.4766223" lon="11.042847"><ele>249.0</ele><time>2026-04-19T07:29:31.633Z</time></trkpt><trkpt lat="43.4767861" lon="11.0429782"><ele>249.0</ele><time>2026-04-19T07:29:32.634Z</time></trkpt><trkpt lat="43.4769398" lon="11.0431154"><ele>249.0</ele><time>2026-04-19T07:29:33.647Z</time></trkpt><trkpt lat="43.4770799" lon="11.0432457"><ele>249.0</ele><time>2026-04-19T07:29:34.643Z</time></trkpt><trkpt lat="43.4771959" lon="11.043386"><ele>244.66666666666669</ele><time>2026-04-19T07:29:35.632Z</time></trkpt><trkpt lat="43.4772929" lon="11.0435434"><ele>240.33333333333334</ele><time>2026-04-19T07:29:36.645Z</time></trkpt><trkpt lat="43.4773897" lon="11.0437097"><ele>236.0</ele><time>2026-04-19T07:29:37.634Z</time></trkpt><trkpt lat="43.4774822" lon="11.043867"><ele>236.0</ele><time>2026-04-19T07:29:38.637Z</time></trkpt><trkpt lat="43.4775757" lon="11.0440113"><ele>236.0</ele><time>2026-04-19T07:29:39.642Z</time></trkpt><trkpt lat="43.477676" lon="11.044168"><ele>236.0</ele><time>2026-04-19T07:29:40.632Z</time></trkpt><trkpt lat="43.4777869" lon="11.044341"><ele>234.66666666666669</ele><time>2026-04-19T07:29:41.65Z</time></trkpt><trkpt lat="43.4779133" lon="11.0445165"><ele>233.33333333333331</ele><time>2026-04-19T07:29:42.641Z</time></trkpt><trkpt lat="43.4780601" lon="11.0446806"><ele>232.0</ele><time>2026-04-19T07:29:43.651Z</time></trkpt><trkpt lat="43.4781902" lon="11.0448208"><ele>232.0</ele><time>2026-04-19T07:29:44.652Z</time></trkpt><trkpt lat="43.4783102" lon="11.0449518"><ele>232.0</ele><time>2026-04-19T07:29:45.637Z</time></trkpt><trkpt lat="43.4784208" lon="11.045068"><ele>232.0</ele><time>2026-04-19T07:29:46.66Z</time></trkpt><trkpt lat="43.4785206" lon="11.0451585"><ele>232.0</ele><time>2026-04-19T07:29:47.634Z</time></trkpt><trkpt lat="43.478615" lon="11.0452228"><ele>234.6</ele><time>2026-04-19T07:29:48.66Z</time></trkpt><trkpt lat="43.4786932" lon="11.0452765"><ele>237.2</ele><time>2026-04-19T07:29:49.669Z</time></trkpt><trkpt lat="43.4787598" lon="11.0453283"><ele>239.8</ele><time>2026-04-19T07:29:50.647Z</time></trkpt><trkpt lat="43.4788098" lon="11.0453895"><ele>242.4</ele><time>2026-04-19T07:29:51.634Z</time></trkpt><trkpt lat="43.4788752" lon="11.0455153"><ele>245.0</ele><time>2026-04-19T07:29:53.638Z</time></trkpt><trkpt lat="43.478954" lon="11.0456329"><ele>245.50000000000003</ele><time>2026-04-19T07:29:55.651Z</time></trkpt><trkpt lat="43.479007" lon="11.0456984"><ele>246.0</ele><time>2026-04-19T07:29:56.65Z</time></trkpt><trkpt lat="43.4790669" lon="11.045769"><ele>246.5</ele><time>2026-04-19T07:29:57.655Z</time></trkpt><trkpt lat="43.4791425" lon="11.0458427"><ele>247.0</ele><time>2026-04-19T07:29:58.641Z</time></trkpt><trkpt lat="43.4792261" lon="11.0459238"><ele>247.50000000000003</ele><time>2026-04-19T07:29:59.634Z</time></trkpt><trkpt lat="43.4793064" lon="11.0460103"><ele>248.0</ele><time>2026-04-19T07:30:00.647Z</time></trkpt><trkpt lat="43.4793848" lon="11.0460901"><ele>247.60000000000002</ele><time>2026-04-19T07:30:01.664Z</time></trkpt><trkpt lat="43.4794573" lon="11.0461687"><ele>247.20000000000002</ele><time>2026-04-19T07:30:02.661Z</time></trkpt><trkpt lat="43.479527" lon="11.0462514"><ele>246.8</ele><time>2026-04-19T07:30:03.653Z</time></trkpt><trkpt lat="43.4795873" lon="11.0463453"><ele>246.4</ele><time>2026-04-19T07:30:04.659Z</time></trkpt><trkpt lat="43.4796482" lon="11.0464413"><ele>246.0</ele><time>2026-04-19T07:30:05.652Z</time></trkpt><trkpt lat="43.4797093" lon="11.0465392"><ele>245.20000000000002</ele><time>2026-04-19T07:30:06.654Z</time></trkpt><trkpt lat="43.4797783" lon="11.0466318"><ele>244.40000000000003</ele><time>2026-04-19T07:30:07.648Z</time></trkpt><trkpt lat="43.4798482" lon="11.0467144"><ele>243.6</ele><time>2026-04-19T07:30:08.657Z</time></trkpt><trkpt lat="43.4799196" lon="11.0468169"><ele>242.8</ele><time>2026-04-19T07:30:09.64Z</time></trkpt><trkpt lat="43.4799903" lon="11.0469398"><ele>242.0</ele><time>2026-04-19T07:30:10.65Z</time></trkpt><trkpt lat="43.4800539" lon="11.0470938"><ele>242.0</ele><time>2026-04-19T07:30:11.651Z</time></trkpt><trkpt lat="43.4801134" lon="11.047269"><ele>242.0</ele><time>2026-04-19T07:30:12.658Z</time></trkpt><trkpt lat="43.4801719" lon="11.0474395"><ele>242.0</ele><time>2026-04-19T07:30:13.657Z</time></trkpt><trkpt lat="43.4802256" lon="11.0475995"><ele>242.0</ele><time>2026-04-19T07:30:14.655Z</time></trkpt><trkpt lat="43.4802701" lon="11.047751"><ele>241.0</ele><time>2026-04-19T07:30:15.632Z</time></trkpt><trkpt lat="43.4803183" lon="11.0479027"><ele>240.0</ele><time>2026-04-19T07:30:16.651Z</time></trkpt><trkpt lat="43.4803637" lon="11.0480506"><ele>239.0</ele><time>2026-04-19T07:30:17.653Z</time></trkpt><trkpt lat="43.480413" lon="11.0481864"><ele>238.0</ele><time>2026-04-19T07:30:18.653Z</time></trkpt><trkpt lat="43.4804742" lon="11.0483213"><ele>234.16666666666666</ele><time>2026-04-19T07:30:19.643Z</time></trkpt><trkpt lat="43.4805421" lon="11.048439"><ele>230.33333333333331</ele><time>2026-04-19T07:30:20.651Z</time></trkpt><trkpt lat="43.4806003" lon="11.048528"><ele>226.5</ele><time>2026-04-19T07:30:21.66Z</time></trkpt><trkpt lat="43.4806519" lon="11.0486138"><ele>222.66666666666669</ele><time>2026-04-19T07:30:22.654Z</time></trkpt><trkpt lat="43.4806941" lon="11.0486929"><ele>218.83333333333334</ele><time>2026-04-19T07:30:23.641Z</time></trkpt><trkpt lat="43.4807391" lon="11.0487642"><ele>215.0</ele><time>2026-04-19T07:30:24.643Z</time></trkpt><trkpt lat="43.4807816" lon="11.0488292"><ele>215.0</ele><time>2026-04-19T07:30:25.633Z</time></trkpt><trkpt lat="43.4808779" lon="11.0489543"><ele>215.0</ele><time>2026-04-19T07:30:27.654Z</time></trkpt><trkpt lat="43.4809363" lon="11.0490338"><ele>215.0</ele><time>2026-04-19T07:30:28.652Z</time></trkpt><trkpt lat="43.4809969" lon="11.049131"><ele>215.0</ele><time>2026-04-19T07:30:29.63Z</time></trkpt><trkpt lat="43.4810534" lon="11.0492434"><ele>215.0</ele><time>2026-04-19T07:30:30.653Z</time></trkpt><trkpt lat="43.4811164" lon="11.0493662"><ele>214.8</ele><time>2026-04-19T07:30:31.657Z</time></trkpt><trkpt lat="43.4811761" lon="11.0494818"><ele>214.6</ele><time>2026-04-19T07:30:32.65Z</time></trkpt><trkpt lat="43.4812327" lon="11.0495965"><ele>214.39999999999998</ele><time>2026-04-19T07:30:33.667Z</time></trkpt><trkpt lat="43.4812854" lon="11.0497089"><ele>214.2</ele><time>2026-04-19T07:30:34.662Z</time></trkpt><trkpt lat="43.4813449" lon="11.0498166"><ele>214.0</ele><time>2026-04-19T07:30:35.658Z</time></trkpt><trkpt lat="43.4814026" lon="11.0499255"><ele>212.0</ele><time>2026-04-19T07:30:36.647Z</time></trkpt><trkpt lat="43.4814477" lon="11.0500542"><ele>210.0</ele><time>2026-04-19T07:30:37.649Z</time></trkpt><trkpt lat="43.4814939" lon="11.0502105"><ele>208.0</ele><time>2026-04-19T07:30:38.654Z</time></trkpt><trkpt lat="43.4815465" lon="11.050362"><ele>206.0</ele><time>2026-04-19T07:30:39.65Z</time></trkpt><trkpt lat="43.4815976" lon="11.0505056"><ele>206.0</ele><time>2026-04-19T07:30:40.653Z</time></trkpt><trkpt lat="43.4816535" lon="11.0506321"><ele>206.0</ele><time>2026-04-19T07:30:41.659Z</time></trkpt><trkpt lat="43.4817133" lon="11.0507452"><ele>206.0</ele><time>2026-04-19T07:30:42.664Z</time></trkpt><trkpt lat="43.4817777" lon="11.0508605"><ele>206.0</ele><time>2026-04-19T07:30:43.652Z</time></trkpt><trkpt lat="43.4818379" lon="11.0509794"><ele>206.0</ele><time>2026-04-19T07:30:44.645Z</time></trkpt><trkpt lat="43.4818976" lon="11.0510935"><ele>203.60000000000002</ele><time>2026-04-19T07:30:45.65Z</time></trkpt><trkpt lat="43.4819541" lon="11.0512042"><ele>201.2</ele><time>2026-04-19T07:30:46.658Z</time></trkpt><trkpt lat="43.4820072" lon="11.0513128"><ele>198.8</ele><time>2026-04-19T07:30:47.65Z</time></trkpt><trkpt lat="43.4820591" lon="11.0514267"><ele>196.39999999999998</ele><time>2026-04-19T07:30:48.649Z</time></trkpt><trkpt lat="43.4821033" lon="11.0515441"><ele>194.0</ele><time>2026-04-19T07:30:49.642Z</time></trkpt><trkpt lat="43.4821457" lon="11.0516866"><ele>190.79999999999998</ele><time>2026-04-19T07:30:50.633Z</time></trkpt><trkpt lat="43.4821864" lon="11.0518264"><ele>187.6</ele><time>2026-04-19T07:30:51.658Z</time></trkpt><trkpt lat="43.4822214" lon="11.0519697"><ele>184.4</ele><time>2026-04-19T07:30:52.651Z</time></trkpt><trkpt lat="43.482255" lon="11.0521225"><ele>181.2</ele><time>2026-04-19T07:30:53.658Z</time></trkpt><trkpt lat="43.482286" lon="11.052273"><ele>178.0</ele><time>2026-04-19T07:30:54.651Z</time></trkpt><trkpt lat="43.4823153" lon="11.0524238"><ele>175.5</ele><time>2026-04-19T07:30:55.643Z</time></trkpt><trkpt lat="43.4823472" lon="11.0525769"><ele>173.0</ele><time>2026-04-19T07:30:56.643Z</time></trkpt><trkpt lat="43.4823803" lon="11.0527362"><ele>170.5</ele><time>2026-04-19T07:30:57.654Z</time></trkpt><trkpt lat="43.4824117" lon="11.0529021"><ele>168.0</ele><time>2026-04-19T07:30:58.656Z</time></trkpt><trkpt lat="43.4824449" lon="11.0530629"><ele>168.0</ele><time>2026-04-19T07:30:59.654Z</time></trkpt><trkpt lat="43.4824815" lon="11.0532212"><ele>168.0</ele><time>2026-04-19T07:31:00.653Z</time></trkpt><trkpt lat="43.4825176" lon="11.0533846"><ele>168.0</ele><time>2026-04-19T07:31:01.652Z</time></trkpt><trkpt lat="43.4825555" lon="11.0535445"><ele>168.0</ele><time>2026-04-19T07:31:02.649Z</time></trkpt><trkpt lat="43.4825939" lon="11.0536993"><ele>166.8</ele><time>2026-04-19T07:31:03.652Z</time></trkpt><trkpt lat="43.4826382" lon="11.0538405"><ele>165.60000000000002</ele><time>2026-04-19T07:31:04.653Z</time></trkpt><trkpt lat="43.4826906" lon="11.0539708"><ele>164.39999999999998</ele><time>2026-04-19T07:31:05.658Z</time></trkpt><trkpt lat="43.4827398" lon="11.0541028"><ele>163.2</ele><time>2026-04-19T07:31:06.655Z</time></trkpt><trkpt lat="43.4827999" lon="11.0542255"><ele>162.0</ele><time>2026-04-19T07:31:07.638Z</time></trkpt><trkpt lat="43.4828724" lon="11.0543487"><ele>158.75</ele><time>2026-04-19T07:31:08.653Z</time></trkpt><trkpt lat="43.4829657" lon="11.0544678"><ele>155.5</ele><time>2026-04-19T07:31:09.651Z</time></trkpt><trkpt lat="43.4830726" lon="11.054577"><ele>152.25</ele><time>2026-04-19T07:31:10.65Z</time></trkpt><trkpt lat="43.4831752" lon="11.0546773"><ele>149.0</ele><time>2026-04-19T07:31:11.644Z</time></trkpt><trkpt lat="43.4832856" lon="11.0547763"><ele>149.0</ele><time>2026-04-19T07:31:12.662Z</time></trkpt><trkpt lat="43.483395" lon="11.0548783"><ele>149.0</ele><time>2026-04-19T07:31:13.639Z</time></trkpt><trkpt lat="43.4835081" lon="11.0549777"><ele>149.0</ele><time>2026-04-19T07:31:14.638Z</time></trkpt><trkpt lat="43.4836128" lon="11.0550792"><ele>149.0</ele><time>2026-04-19T07:31:15.652Z</time></trkpt><trkpt lat="43.4837108" lon="11.055171"><ele>145.8</ele><time>2026-04-19T07:31:16.655Z</time></trkpt><trkpt lat="43.4838049" lon="11.0552577"><ele>142.60000000000002</ele><time>2026-04-19T07:31:17.645Z</time></trkpt><trkpt lat="43.4838938" lon="11.0553328"><ele>139.4</ele><time>2026-04-19T07:31:18.651Z</time></trkpt><trkpt lat="43.4839723" lon="11.0553967"><ele>136.20000000000002</ele><time>2026-04-19T07:31:19.653Z</time></trkpt><trkpt lat="43.4840412" lon="11.0554524"><ele>133.0</ele><time>2026-04-19T07:31:20.674Z</time></trkpt><trkpt lat="43.4840914" lon="11.0555228"><ele>133.0</ele><time>2026-04-19T07:31:21.656Z</time></trkpt><trkpt lat="43.4841023" lon="11.0556794"><ele>133.0</ele><time>2026-04-19T07:31:23.655Z</time></trkpt><trkpt lat="43.4840657" lon="11.0557714"><ele>133.0</ele><time>2026-04-19T07:31:24.65Z</time></trkpt><trkpt lat="43.4840226" lon="11.0558692"><ele>133.0</ele><time>2026-04-19T07:31:25.636Z</time></trkpt><trkpt lat="43.4839891" lon="11.0559547"><ele>133.0</ele><time>2026-04-19T07:31:26.663Z</time></trkpt><trkpt lat="43.4839626" lon="11.0560353"><ele>133.0</ele><time>2026-04-19T07:31:27.65Z</time></trkpt><trkpt lat="43.4839759" lon="11.05619"><ele>132.0</ele><time>2026-04-19T07:31:29.651Z</time></trkpt><trkpt lat="43.4840647" lon="11.0562953"><ele>131.0</ele><time>2026-04-19T07:31:31.649Z</time></trkpt><trkpt lat="43.4841715" lon="11.0562923"><ele>130.0</ele><time>2026-04-19T07:31:33.657Z</time></trkpt><trkpt lat="43.4842309" lon="11.0562573"><ele>129.0</ele><time>2026-04-19T07:31:34.657Z</time></trkpt><trkpt lat="43.4843318" lon="11.0561594"><ele>128.0</ele><time>2026-04-19T07:31:36.665Z</time></trkpt><trkpt lat="43.4843821" lon="11.0560993"><ele>128.0</ele><time>2026-04-19T07:31:37.657Z</time></trkpt><trkpt lat="43.4844356" lon="11.0560496"><ele>127.99999999999999</ele><time>2026-04-19T07:31:38.662Z</time></trkpt><trkpt lat="43.484499" lon="11.0560322"><ele>128.0</ele><time>2026-04-19T07:31:39.635Z</time></trkpt><trkpt lat="43.4845734" lon="11.056032"><ele>128.0</ele><time>2026-04-19T07:31:40.642Z</time></trkpt><trkpt lat="43.4846512" lon="11.0560547"><ele>127.99999999999999</ele><time>2026-04-19T07:31:41.634Z</time></trkpt><trkpt lat="43.4847214" lon="11.0561064"><ele>128.0</ele><time>2026-04-19T07:31:42.66Z</time></trkpt><trkpt lat="43.4847825" lon="11.0561877"><ele>128.0</ele><time>2026-04-19T07:31:43.642Z</time></trkpt><trkpt lat="43.4848424" lon="11.0562881"><ele>128.14285714285714</ele><time>2026-04-19T07:31:44.657Z</time></trkpt><trkpt lat="43.4848871" lon="11.0563868"><ele>128.28571428571428</ele><time>2026-04-19T07:31:45.633Z</time></trkpt><trkpt lat="43.4849248" lon="11.0564732"><ele>128.42857142857142</ele><time>2026-04-19T07:31:46.652Z</time></trkpt><trkpt lat="43.4849747" lon="11.0565426"><ele>128.57142857142856</ele><time>2026-04-19T07:31:47.658Z</time></trkpt><trkpt lat="43.4850308" lon="11.0565886"><ele>128.71428571428572</ele><time>2026-04-19T07:31:48.664Z</time></trkpt><trkpt lat="43.4850957" lon="11.0566134"><ele>128.85714285714283</ele><time>2026-04-19T07:31:49.652Z</time></trkpt><trkpt lat="43.4851724" lon="11.0566067"><ele>129.0</ele><time>2026-04-19T07:31:50.661Z</time></trkpt><trkpt lat="43.4852354" lon="11.056556"><ele>129.0</ele><time>2026-04-19T07:31:51.657Z</time></trkpt><trkpt lat="43.48534" lon="11.0565086"><ele>129.0</ele><time>2026-04-19T07:31:53.654Z</time></trkpt><trkpt lat="43.4854803" lon="11.0566062"><ele>129.0</ele><time>2026-04-19T07:31:55.648Z</time></trkpt><trkpt lat="43.4855726" lon="11.0567038"><ele>129.0</ele><time>2026-04-19T07:31:56.652Z</time></trkpt><trkpt lat="43.4856747" lon="11.0568107"><ele>130.75</ele><time>2026-04-19T07:31:57.647Z</time></trkpt><trkpt lat="43.4857808" lon="11.0569208"><ele>132.5</ele><time>2026-04-19T07:31:58.655Z</time></trkpt><trkpt lat="43.4858822" lon="11.0570529"><ele>134.25</ele><time>2026-04-19T07:31:59.653Z</time></trkpt><trkpt lat="43.4859735" lon="11.0571943"><ele>136.0</ele><time>2026-04-19T07:32:00.649Z</time></trkpt><trkpt lat="43.486045" lon="11.0573469"><ele>137.0</ele><time>2026-04-19T07:32:01.654Z</time></trkpt><trkpt lat="43.4861158" lon="11.0574798"><ele>138.0</ele><time>2026-04-19T07:32:02.646Z</time></trkpt><trkpt lat="43.4861799" lon="11.0576108"><ele>139.0</ele><time>2026-04-19T07:32:03.643Z</time></trkpt><trkpt lat="43.4862458" lon="11.057737"><ele>140.0</ele><time>2026-04-19T07:32:04.652Z</time></trkpt><trkpt lat="43.4863078" lon="11.0578799"><ele>140.0</ele><time>2026-04-19T07:32:05.655Z</time></trkpt><trkpt lat="43.4863675" lon="11.0580168"><ele>140.0</ele><time>2026-04-19T07:32:06.65Z</time></trkpt><trkpt lat="43.4864266" lon="11.0581418"><ele>140.0</ele><time>2026-04-19T07:32:07.657Z</time></trkpt><trkpt lat="43.4864996" lon="11.0582519"><ele>140.0</ele><time>2026-04-19T07:32:08.663Z</time></trkpt><trkpt lat="43.4865677" lon="11.0583469"><ele>140.0</ele><time>2026-04-19T07:32:09.654Z</time></trkpt><trkpt lat="43.4866472" lon="11.0584278"><ele>140.5</ele><time>2026-04-19T07:32:10.657Z</time></trkpt><trkpt lat="43.4867341" lon="11.0584947"><ele>141.0</ele><time>2026-04-19T07:32:11.644Z</time></trkpt><trkpt lat="43.486843" lon="11.0585378"><ele>141.5</ele><time>2026-04-19T07:32:12.632Z</time></trkpt><trkpt lat="43.4869682" lon="11.0585635"><ele>142.0</ele><time>2026-04-19T07:32:13.658Z</time></trkpt><trkpt lat="43.4871037" lon="11.0585842"><ele>143.25</ele><time>2026-04-19T07:32:14.657Z</time></trkpt><trkpt lat="43.4872399" lon="11.0585878"><ele>144.5</ele><time>2026-04-19T07:32:15.639Z</time></trkpt><trkpt lat="43.48738" lon="11.0585766"><ele>145.75</ele><time>2026-04-19T07:32:16.655Z</time></trkpt><trkpt lat="43.4875169" lon="11.058553"><ele>147.0</ele><time>2026-04-19T07:32:17.653Z</time></trkpt><trkpt lat="43.4876521" lon="11.0585165"><ele>147.0</ele><time>2026-04-19T07:32:18.66Z</time></trkpt><trkpt lat="43.4877874" lon="11.058462"><ele>147.0</ele><time>2026-04-19T07:32:19.661Z</time></trkpt><trkpt lat="43.4879245" lon="11.0584097"><ele>147.0</ele><time>2026-04-19T07:32:20.649Z</time></trkpt><trkpt lat="43.4880525" lon="11.0583635"><ele>147.0</ele><time>2026-04-19T07:32:21.655Z</time></trkpt><trkpt lat="43.4881586" lon="11.0583165"><ele>148.83333333333334</ele><time>2026-04-19T07:32:22.654Z</time></trkpt><trkpt lat="43.4882365" lon="11.0582951"><ele>150.66666666666666</ele><time>2026-04-19T07:32:23.665Z</time></trkpt><trkpt lat="43.4883105" lon="11.0583179"><ele>152.5</ele><time>2026-04-19T07:32:24.647Z</time></trkpt><trkpt lat="43.488376" lon="11.0583816"><ele>154.33333333333331</ele><time>2026-04-19T07:32:25.651Z</time></trkpt><trkpt lat="43.4884275" lon="11.0584712"><ele>156.16666666666666</ele><time>2026-04-19T07:32:26.652Z</time></trkpt><trkpt lat="43.4884765" lon="11.058589"><ele>158.0</ele><time>2026-04-19T07:32:27.667Z</time></trkpt><trkpt lat="43.488531" lon="11.0587266"><ele>158.0</ele><time>2026-04-19T07:32:28.656Z</time></trkpt><trkpt lat="43.488588" lon="11.0588722"><ele>158.0</ele><time>2026-04-19T07:32:29.664Z</time></trkpt><trkpt lat="43.488638" lon="11.059035"><ele>158.0</ele><time>2026-04-19T07:32:30.637Z</time></trkpt><trkpt lat="43.4886899" lon="11.0592286"><ele>158.0</ele><time>2026-04-19T07:32:31.648Z</time></trkpt><trkpt lat="43.4887436" lon="11.0594411"><ele>162.33333333333331</ele><time>2026-04-19T07:32:32.648Z</time></trkpt><trkpt lat="43.4887937" lon="11.0596509"><ele>166.66666666666666</ele><time>2026-04-19T07:32:33.628Z</time></trkpt><trkpt lat="43.4888411" lon="11.0598593"><ele>171.0</ele><time>2026-04-19T07:32:34.653Z</time></trkpt><trkpt lat="43.4888895" lon="11.0600678"><ele>172.0</ele><time>2026-04-19T07:32:35.656Z</time></trkpt><trkpt lat="43.488939" lon="11.060275"><ele>173.0</ele><time>2026-04-19T07:32:36.659Z</time></trkpt><trkpt lat="43.4889876" lon="11.0604609"><ele>174.0</ele><time>2026-04-19T07:32:37.659Z</time></trkpt><trkpt lat="43.4890296" lon="11.0606277"><ele>175.0</ele><time>2026-04-19T07:32:38.65Z</time></trkpt><trkpt lat="43.4890757" lon="11.0607841"><ele>175.0</ele><time>2026-04-19T07:32:39.65Z</time></trkpt><trkpt lat="43.4891151" lon="11.0609438"><ele>175.0</ele><time>2026-04-19T07:32:40.645Z</time></trkpt><trkpt lat="43.4891376" lon="11.0610845"><ele>175.0</ele><time>2026-04-19T07:32:41.653Z</time></trkpt><trkpt lat="43.4891603" lon="11.061187"><ele>175.0</ele><time>2026-04-19T07:32:42.646Z</time></trkpt><trkpt lat="43.4891771" lon="11.0612711"><ele>175.0</ele><time>2026-04-19T07:32:43.655Z</time></trkpt><trkpt lat="43.489205" lon="11.0613891"><ele>175.0</ele><time>2026-04-19T07:32:45.633Z</time></trkpt><trkpt lat="43.4892298" lon="11.061541"><ele>175.0</ele><time>2026-04-19T07:32:47.65Z</time></trkpt><trkpt lat="43.4892451" lon="11.0616597"><ele>175.0</ele><time>2026-04-19T07:32:48.663Z</time></trkpt><trkpt lat="43.4892522" lon="11.0618125"><ele>175.0</ele><time>2026-04-19T07:32:49.652Z</time></trkpt><trkpt lat="43.4892673" lon="11.0620022"><ele>175.0</ele><time>2026-04-19T07:32:50.647Z</time></trkpt><trkpt lat="43.4892969" lon="11.0621956"><ele>175.0</ele><time>2026-04-19T07:32:51.65Z</time></trkpt><trkpt lat="43.4893319" lon="11.0623901"><ele>175.0</ele><time>2026-04-19T07:32:52.647Z</time></trkpt><trkpt lat="43.4893556" lon="11.0625899"><ele>175.0</ele><time>2026-04-19T07:32:53.654Z</time></trkpt><trkpt lat="43.4893733" lon="11.0627936"><ele>175.5</ele><time>2026-04-19T07:32:54.641Z</time></trkpt><trkpt lat="43.4893873" lon="11.0629934"><ele>176.0</ele><time>2026-04-19T07:32:55.652Z</time></trkpt><trkpt lat="43.4893999" lon="11.0631731"><ele>176.5</ele><time>2026-04-19T07:32:56.653Z</time></trkpt><trkpt lat="43.4894176" lon="11.0633352"><ele>177.0</ele><time>2026-04-19T07:32:57.659Z</time></trkpt><trkpt lat="43.4894378" lon="11.0635015"><ele>177.5</ele><time>2026-04-19T07:32:58.647Z</time></trkpt><trkpt lat="43.4894572" lon="11.0636824"><ele>178.0</ele><time>2026-04-19T07:32:59.656Z</time></trkpt><trkpt lat="43.4894806" lon="11.0638618"><ele>178.5</ele><time>2026-04-19T07:33:00.64Z</time></trkpt><trkpt lat="43.489503" lon="11.0640402"><ele>179.0</ele><time>2026-04-19T07:33:01.648Z</time></trkpt><trkpt lat="43.4895185" lon="11.0642318"><ele>179.0</ele><time>2026-04-19T07:33:02.651Z</time></trkpt><trkpt lat="43.4895356" lon="11.0644253"><ele>179.0</ele><time>2026-04-19T07:33:03.669Z</time></trkpt><trkpt lat="43.4895433" lon="11.0645754"><ele>179.0</ele><time>2026-04-19T07:33:04.653Z</time></trkpt><trkpt lat="43.4895494" lon="11.0646873"><ele>179.0</ele><time>2026-04-19T07:33:05.653Z</time></trkpt><trkpt lat="43.4895307" lon="11.0648365"><ele>179.0</ele><time>2026-04-19T07:33:07.639Z</time></trkpt><trkpt lat="43.4894862" lon="11.0649111"><ele>180.39999999999998</ele><time>2026-04-19T07:33:08.652Z</time></trkpt><trkpt lat="43.4894252" lon="11.0649906"><ele>181.8</ele><time>2026-04-19T07:33:09.646Z</time></trkpt><trkpt lat="43.4893478" lon="11.065073"><ele>183.2</ele><time>2026-04-19T07:33:10.628Z</time></trkpt><trkpt lat="43.4892596" lon="11.0651543"><ele>184.60000000000002</ele><time>2026-04-19T07:33:11.655Z</time></trkpt><trkpt lat="43.489165" lon="11.0652235"><ele>186.0</ele><time>2026-04-19T07:33:12.65Z</time></trkpt><trkpt lat="43.4890725" lon="11.0652727"><ele>186.0</ele><time>2026-04-19T07:33:13.633Z</time></trkpt><trkpt lat="43.4889779" lon="11.0653069"><ele>186.0</ele><time>2026-04-19T07:33:14.672Z</time></trkpt><trkpt lat="43.4888644" lon="11.0653111"><ele>186.0</ele><time>2026-04-19T07:33:15.668Z</time></trkpt><trkpt lat="43.4887254" lon="11.0653062"><ele>186.0</ele><time>2026-04-19T07:33:16.662Z</time></trkpt><trkpt lat="43.4885984" lon="11.0652861"><ele>185.75</ele><time>2026-04-19T07:33:17.655Z</time></trkpt><trkpt lat="43.488474" lon="11.0652567"><ele>185.5</ele><time>2026-04-19T07:33:18.655Z</time></trkpt><trkpt lat="43.4883546" lon="11.0652263"><ele>185.25</ele><time>2026-04-19T07:33:19.633Z</time></trkpt><trkpt lat="43.4882534" lon="11.0651904"><ele>185.0</ele><time>2026-04-19T07:33:20.65Z</time></trkpt><trkpt lat="43.4881559" lon="11.0651595"><ele>185.0</ele><time>2026-04-19T07:33:21.648Z</time></trkpt><trkpt lat="43.4880525" lon="11.0651422"><ele>185.0</ele><time>2026-04-19T07:33:22.656Z</time></trkpt><trkpt lat="43.4879477" lon="11.0651381"><ele>185.0</ele><time>2026-04-19T07:33:23.638Z</time></trkpt><trkpt lat="43.4878475" lon="11.0651483"><ele>185.0</ele><time>2026-04-19T07:33:24.656Z</time></trkpt><trkpt lat="43.4877571" lon="11.0651649"><ele>185.0</ele><time>2026-04-19T07:33:25.639Z</time></trkpt><trkpt lat="43.4876843" lon="11.065189"><ele>186.33333333333331</ele><time>2026-04-19T07:33:26.657Z</time></trkpt><trkpt lat="43.487624" lon="11.0652257"><ele>187.66666666666666</ele><time>2026-04-19T07:33:27.649Z</time></trkpt><trkpt lat="43.4875655" lon="11.0652816"><ele>189.0</ele><time>2026-04-19T07:33:28.648Z</time></trkpt><trkpt lat="43.4875068" lon="11.0653635"><ele>190.33333333333331</ele><time>2026-04-19T07:33:29.66Z</time></trkpt><trkpt lat="43.4874513" lon="11.0654741"><ele>191.66666666666666</ele><time>2026-04-19T07:33:30.646Z</time></trkpt><trkpt lat="43.4874008" lon="11.0656032"><ele>193.0</ele><time>2026-04-19T07:33:31.654Z</time></trkpt><trkpt lat="43.4873583" lon="11.065733"><ele>193.0</ele><time>2026-04-19T07:33:32.647Z</time></trkpt><trkpt lat="43.4873155" lon="11.0658691"><ele>193.0</ele><time>2026-04-19T07:33:33.631Z</time></trkpt><trkpt lat="43.4872783" lon="11.0659984"><ele>193.0</ele><time>2026-04-19T07:33:34.648Z</time></trkpt><trkpt lat="43.4872534" lon="11.0661273"><ele>193.0</ele><time>2026-04-19T07:33:35.645Z</time></trkpt><trkpt lat="43.4872362" lon="11.0662613"><ele>193.0</ele><time>2026-04-19T07:33:36.647Z</time></trkpt><trkpt lat="43.4872295" lon="11.0664173"><ele>193.0</ele><time>2026-04-19T07:33:37.643Z</time></trkpt><trkpt lat="43.4872299" lon="11.0665859"><ele>193.0</ele><time>2026-04-19T07:33:38.641Z</time></trkpt><trkpt lat="43.4872356" lon="11.0667508"><ele>193.0</ele><time>2026-04-19T07:33:39.659Z</time></trkpt><trkpt lat="43.4872448" lon="11.0669101"><ele>193.0</ele><time>2026-04-19T07:33:40.659Z</time></trkpt><trkpt lat="43.4872619" lon="11.0670712"><ele>191.60000000000002</ele><time>2026-04-19T07:33:41.655Z</time></trkpt><trkpt lat="43.4872821" lon="11.0672142"><ele>190.20000000000002</ele><time>2026-04-19T07:33:42.641Z</time></trkpt><trkpt lat="43.487311" lon="11.0673512"><ele>188.8</ele><time>2026-04-19T07:33:43.656Z</time></trkpt><trkpt lat="43.4873456" lon="11.0674975"><ele>187.4</ele><time>2026-04-19T07:33:44.643Z</time></trkpt><trkpt lat="43.4873773" lon="11.0676473"><ele>186.0</ele><time>2026-04-19T07:33:45.652Z</time></trkpt><trkpt lat="43.4874026" lon="11.0678096"><ele>184.8</ele><time>2026-04-19T07:33:46.633Z</time></trkpt><trkpt lat="43.4874229" lon="11.0679669"><ele>183.60000000000002</ele><time>2026-04-19T07:33:47.654Z</time></trkpt><trkpt lat="43.4874341" lon="11.0681079"><ele>182.4</ele><time>2026-04-19T07:33:48.648Z</time></trkpt><trkpt lat="43.4874437" lon="11.0682394"><ele>181.2</ele><time>2026-04-19T07:33:49.653Z</time></trkpt><trkpt lat="43.4874526" lon="11.0683744"><ele>180.0</ele><time>2026-04-19T07:33:50.665Z</time></trkpt><trkpt lat="43.4874806" lon="11.0685061"><ele>179.83333333333334</ele><time>2026-04-19T07:33:51.656Z</time></trkpt><trkpt lat="43.4875064" lon="11.0686346"><ele>179.66666666666666</ele><time>2026-04-19T07:33:52.654Z</time></trkpt><trkpt lat="43.4875238" lon="11.0687477"><ele>179.5</ele><time>2026-04-19T07:33:53.647Z</time></trkpt><trkpt lat="43.4875357" lon="11.0688523"><ele>179.33333333333331</ele><time>2026-04-19T07:33:54.66Z</time></trkpt><trkpt lat="43.487535" lon="11.0689545"><ele>179.16666666666666</ele><time>2026-04-19T07:33:55.656Z</time></trkpt><trkpt lat="43.4875312" lon="11.069053"><ele>179.0</ele><time>2026-04-19T07:33:56.659Z</time></trkpt><trkpt lat="43.4875074" lon="11.0691458"><ele>178.0</ele><time>2026-04-19T07:33:57.657Z</time></trkpt><trkpt lat="43.4874717" lon="11.0692294"><ele>177.0</ele><time>2026-04-19T07:33:58.649Z</time></trkpt><trkpt lat="43.4874235" lon="11.0693055"><ele>176.0</ele><time>2026-04-19T07:33:59.65Z</time></trkpt><trkpt lat="43.4873557" lon="11.0693426"><ele>175.0</ele><time>2026-04-19T07:34:00.655Z</time></trkpt><trkpt lat="43.4872649" lon="11.069359"><ele>174.0</ele><time>2026-04-19T07:34:01.642Z</time></trkpt><trkpt lat="43.4871535" lon="11.0693438"><ele>173.0</ele><time>2026-04-19T07:34:02.649Z</time></trkpt><trkpt lat="43.4870451" lon="11.0693106"><ele>171.8</ele><time>2026-04-19T07:34:03.646Z</time></trkpt><trkpt lat="43.4869556" lon="11.0692934"><ele>170.60000000000002</ele><time>2026-04-19T07:34:04.638Z</time></trkpt><trkpt lat="43.4868683" lon="11.0692999"><ele>169.39999999999998</ele><time>2026-04-19T07:34:05.651Z</time></trkpt><trkpt lat="43.4867757" lon="11.0693186"><ele>168.2</ele><time>2026-04-19T07:34:06.652Z</time></trkpt><trkpt lat="43.4866871" lon="11.0693641"><ele>167.0</ele><time>2026-04-19T07:34:07.654Z</time></trkpt><trkpt lat="43.4865974" lon="11.0694537"><ele>167.0</ele><time>2026-04-19T07:34:08.642Z</time></trkpt><trkpt lat="43.4865056" lon="11.0695563"><ele>167.0</ele><time>2026-04-19T07:34:09.657Z</time></trkpt><trkpt lat="43.486417" lon="11.0697032"><ele>167.0</ele><time>2026-04-19T07:34:10.632Z</time></trkpt><trkpt lat="43.4863295" lon="11.069855"><ele>167.0</ele><time>2026-04-19T07:34:11.646Z</time></trkpt><trkpt lat="43.4862366" lon="11.070005"><ele>165.25</ele><time>2026-04-19T07:34:12.651Z</time></trkpt><trkpt lat="43.4861451" lon="11.0701608"><ele>163.5</ele><time>2026-04-19T07:34:13.664Z</time></trkpt><trkpt lat="43.4860542" lon="11.0703137"><ele>161.75</ele><time>2026-04-19T07:34:14.655Z</time></trkpt><trkpt lat="43.4859705" lon="11.0704539"><ele>160.0</ele><time>2026-04-19T07:34:15.664Z</time></trkpt><trkpt lat="43.485901" lon="11.0705853"><ele>160.0</ele><time>2026-04-19T07:34:16.641Z</time></trkpt><trkpt lat="43.4858511" lon="11.0707186"><ele>160.0</ele><time>2026-04-19T07:34:17.652Z</time></trkpt><trkpt lat="43.4858076" lon="11.0708609"><ele>160.0</ele><time>2026-04-19T07:34:18.637Z</time></trkpt><trkpt lat="43.4857847" lon="11.0710076"><ele>160.0</ele><time>2026-04-19T07:34:19.653Z</time></trkpt><trkpt lat="43.4857879" lon="11.0711506"><ele>160.0</ele><time>2026-04-19T07:34:20.652Z</time></trkpt><trkpt lat="43.4858109" lon="11.0713131"><ele>161.4</ele><time>2026-04-19T07:34:21.648Z</time></trkpt><trkpt lat="43.4858281" lon="11.0714617"><ele>162.8</ele><time>2026-04-19T07:34:22.658Z</time></trkpt><trkpt lat="43.4858344" lon="11.0715976"><ele>164.2</ele><time>2026-04-19T07:34:23.657Z</time></trkpt><trkpt lat="43.4858312" lon="11.0717235"><ele>165.6</ele><time>2026-04-19T07:34:24.656Z</time></trkpt><trkpt lat="43.4858054" lon="11.0718314"><ele>167.0</ele><time>2026-04-19T07:34:25.639Z</time></trkpt><trkpt lat="43.485762" lon="11.0719234"><ele>168.0</ele><time>2026-04-19T07:34:26.657Z</time></trkpt><trkpt lat="43.4857026" lon="11.0720029"><ele>169.0</ele><time>2026-04-19T07:34:27.659Z</time></trkpt><trkpt lat="43.4856162" lon="11.0720824"><ele>170.0</ele><time>2026-04-19T07:34:28.652Z</time></trkpt><trkpt lat="43.4855016" lon="11.0721656"><ele>171.0</ele><time>2026-04-19T07:34:29.653Z</time></trkpt><trkpt lat="43.4853826" lon="11.0722607"><ele>169.75</ele><time>2026-04-19T07:34:30.655Z</time></trkpt><trkpt lat="43.4852562" lon="11.072359"><ele>168.5</ele><time>2026-04-19T07:34:31.653Z</time></trkpt><trkpt lat="43.4851321" lon="11.0724581"><ele>167.25</ele><time>2026-04-19T07:34:32.65Z</time></trkpt><trkpt lat="43.4850134" lon="11.0725476"><ele>166.0</ele><time>2026-04-19T07:34:33.653Z</time></trkpt><trkpt lat="43.4848979" lon="11.0726325"><ele>166.0</ele><time>2026-04-19T07:34:34.663Z</time></trkpt><trkpt lat="43.4847843" lon="11.0727131"><ele>166.0</ele><time>2026-04-19T07:34:35.644Z</time></trkpt><trkpt lat="43.4846794" lon="11.0727905"><ele>166.0</ele><time>2026-04-19T07:34:36.647Z</time></trkpt><trkpt lat="43.4845767" lon="11.0728652"><ele>166.0</ele><time>2026-04-19T07:34:37.652Z</time></trkpt><trkpt lat="43.4844757" lon="11.0729325"><ele>164.0</ele><time>2026-04-19T07:34:38.65Z</time></trkpt><trkpt lat="43.4843744" lon="11.0730002"><ele>162.0</ele><time>2026-04-19T07:34:39.651Z</time></trkpt><trkpt lat="43.4842727" lon="11.0730605"><ele>160.0</ele><time>2026-04-19T07:34:40.652Z</time></trkpt><trkpt lat="43.4841716" lon="11.0731136"><ele>158.0</ele><time>2026-04-19T07:34:41.648Z</time></trkpt><trkpt lat="43.4840651" lon="11.0731471"><ele>156.0</ele><time>2026-04-19T07:34:42.653Z</time></trkpt><trkpt lat="43.4839503" lon="11.0731728"><ele>156.0</ele><time>2026-04-19T07:34:43.649Z</time></trkpt><trkpt lat="43.4838286" lon="11.0731843"><ele>156.0</ele><time>2026-04-19T07:34:44.654Z</time></trkpt><trkpt lat="43.4837165" lon="11.0732042"><ele>156.0</ele><time>2026-04-19T07:34:45.648Z</time></trkpt><trkpt lat="43.4836082" lon="11.0732599"><ele>156.0</ele><time>2026-04-19T07:34:46.658Z</time></trkpt><trkpt lat="43.4835052" lon="11.0733504"><ele>157.75</ele><time>2026-04-19T07:34:47.64Z</time></trkpt><trkpt lat="43.483405" lon="11.0734672"><ele>159.5</ele><time>2026-04-19T07:34:48.655Z</time></trkpt><trkpt lat="43.4833133" lon="11.0735951"><ele>161.25</ele><time>2026-04-19T07:34:49.653Z</time></trkpt><trkpt lat="43.4832489" lon="11.0737204"><ele>163.0</ele><time>2026-04-19T07:34:50.647Z</time></trkpt><trkpt lat="43.4832098" lon="11.0738565"><ele>163.0</ele><time>2026-04-19T07:34:51.641Z</time></trkpt><trkpt lat="43.4831984" lon="11.0739916"><ele>163.0</ele><time>2026-04-19T07:34:52.66Z</time></trkpt><trkpt lat="43.4832129" lon="11.0741342"><ele>163.0</ele><time>2026-04-19T07:34:53.653Z</time></trkpt><trkpt lat="43.4832313" lon="11.0742807"><ele>163.0</ele><time>2026-04-19T07:34:54.657Z</time></trkpt><trkpt lat="43.483247" lon="11.0744238"><ele>163.0</ele><time>2026-04-19T07:34:55.65Z</time></trkpt><trkpt lat="43.4832466" lon="11.0745625"><ele>163.60000000000002</ele><time>2026-04-19T07:34:56.648Z</time></trkpt><trkpt lat="43.4832264" lon="11.0747006"><ele>164.20000000000002</ele><time>2026-04-19T07:34:57.649Z</time></trkpt><trkpt lat="43.4831914" lon="11.0748388"><ele>164.8</ele><time>2026-04-19T07:34:58.649Z</time></trkpt><trkpt lat="43.4831508" lon="11.074969"><ele>165.4</ele><time>2026-04-19T07:34:59.652Z</time></trkpt><trkpt lat="43.4831034" lon="11.0750936"><ele>166.0</ele><time>2026-04-19T07:35:00.654Z</time></trkpt><trkpt lat="43.4830448" lon="11.075212"><ele>166.0</ele><time>2026-04-19T07:35:01.641Z</time></trkpt><trkpt lat="43.4829791" lon="11.0753219"><ele>166.0</ele><time>2026-04-19T07:35:02.648Z</time></trkpt><trkpt lat="43.4829065" lon="11.0754287"><ele>166.0</ele><time>2026-04-19T07:35:03.641Z</time></trkpt><trkpt lat="43.4828309" lon="11.075546"><ele>166.0</ele><time>2026-04-19T07:35:04.635Z</time></trkpt><trkpt lat="43.4827542" lon="11.0756876"><ele>167.0</ele><time>2026-04-19T07:35:05.656Z</time></trkpt><trkpt lat="43.482677" lon="11.0758489"><ele>168.0</ele><time>2026-04-19T07:35:06.648Z</time></trkpt><trkpt lat="43.4825946" lon="11.0760243"><ele>169.0</ele><time>2026-04-19T07:35:07.645Z</time></trkpt><trkpt lat="43.4824874" lon="11.0761978"><ele>169.0</ele><time>2026-04-19T07:35:08.65Z</time></trkpt><trkpt lat="43.4823805" lon="11.076382"><ele>169.0</ele><time>2026-04-19T07:35:09.641Z</time></trkpt><trkpt lat="43.4822858" lon="11.076576"><ele>169.0</ele><time>2026-04-19T07:35:10.652Z</time></trkpt><trkpt lat="43.4822024" lon="11.076753"><ele>167.75</ele><time>2026-04-19T07:35:11.651Z</time></trkpt><trkpt lat="43.4821304" lon="11.0769254"><ele>166.5</ele><time>2026-04-19T07:35:12.649Z</time></trkpt><trkpt lat="43.4820541" lon="11.0770958"><ele>165.25</ele><time>2026-04-19T07:35:13.656Z</time></trkpt><trkpt lat="43.4819728" lon="11.0772699"><ele>164.0</ele><time>2026-04-19T07:35:14.636Z</time></trkpt><trkpt lat="43.4818982" lon="11.0774346"><ele>165.0</ele><time>2026-04-19T07:35:15.647Z</time></trkpt><trkpt lat="43.4818284" lon="11.077605"><ele>166.0</ele><time>2026-04-19T07:35:16.652Z</time></trkpt><trkpt lat="43.4817518" lon="11.0777624"><ele>167.0</ele><time>2026-04-19T07:35:17.659Z</time></trkpt><trkpt lat="43.4816681" lon="11.0779085"><ele>168.0</ele><time>2026-04-19T07:35:18.634Z</time></trkpt><trkpt lat="43.4815834" lon="11.0780384"><ele>168.0</ele><time>2026-04-19T07:35:19.642Z</time></trkpt><trkpt lat="43.4814902" lon="11.0781501"><ele>168.0</ele><time>2026-04-19T07:35:20.632Z</time></trkpt><trkpt lat="43.4813897" lon="11.0782572"><ele>168.0</ele><time>2026-04-19T07:35:21.633Z</time></trkpt><trkpt lat="43.4812808" lon="11.0783706"><ele>168.0</ele><time>2026-04-19T07:35:22.654Z</time></trkpt><trkpt lat="43.4811678" lon="11.0784908"><ele>167.0</ele><time>2026-04-19T07:35:23.636Z</time></trkpt><trkpt lat="43.4810574" lon="11.078617"><ele>166.0</ele><time>2026-04-19T07:35:24.657Z</time></trkpt><trkpt lat="43.4809466" lon="11.0787224"><ele>165.0</ele><time>2026-04-19T07:35:25.65Z</time></trkpt><trkpt lat="43.4808341" lon="11.0788172"><ele>164.0</ele><time>2026-04-19T07:35:26.631Z</time></trkpt><trkpt lat="43.4807226" lon="11.0789258"><ele>164.0</ele><time>2026-04-19T07:35:27.648Z</time></trkpt><trkpt lat="43.480613" lon="11.079044"><ele>164.0</ele><time>2026-04-19T07:35:28.652Z</time></trkpt><trkpt lat="43.4805052" lon="11.0791483"><ele>164.0</ele><time>2026-04-19T07:35:29.646Z</time></trkpt><trkpt lat="43.4803987" lon="11.0792607"><ele>164.0</ele><time>2026-04-19T07:35:30.668Z</time></trkpt><trkpt lat="43.4802975" lon="11.0793797"><ele>162.5</ele><time>2026-04-19T07:35:31.646Z</time></trkpt><trkpt lat="43.4802103" lon="11.0794903"><ele>161.0</ele><time>2026-04-19T07:35:32.657Z</time></trkpt><trkpt lat="43.4801373" lon="11.0796047"><ele>159.5</ele><time>2026-04-19T07:35:33.647Z</time></trkpt><trkpt lat="43.480073" lon="11.0797267"><ele>158.0</ele><time>2026-04-19T07:35:34.657Z</time></trkpt><trkpt lat="43.4800221" lon="11.0798685"><ele>159.4</ele><time>2026-04-19T07:35:35.653Z</time></trkpt><trkpt lat="43.4799778" lon="11.0800172"><ele>160.8</ele><time>2026-04-19T07:35:36.659Z</time></trkpt><trkpt lat="43.4799495" lon="11.0801645"><ele>162.2</ele><time>2026-04-19T07:35:37.651Z</time></trkpt><trkpt lat="43.4799218" lon="11.0803059"><ele>163.6</ele><time>2026-04-19T07:35:38.65Z</time></trkpt><trkpt lat="43.4798808" lon="11.0804187"><ele>165.0</ele><time>2026-04-19T07:35:39.662Z</time></trkpt><trkpt lat="43.4798241" lon="11.0805144"><ele>165.0</ele><time>2026-04-19T07:35:40.658Z</time></trkpt><trkpt lat="43.4797567" lon="11.0805767"><ele>165.0</ele><time>2026-04-19T07:35:41.629Z</time></trkpt><trkpt lat="43.4796747" lon="11.080611"><ele>165.0</ele><time>2026-04-19T07:35:42.645Z</time></trkpt><trkpt lat="43.4795786" lon="11.0806229"><ele>165.0</ele><time>2026-04-19T07:35:43.664Z</time></trkpt><trkpt lat="43.4794757" lon="11.0806147"><ele>165.0</ele><time>2026-04-19T07:35:44.632Z</time></trkpt><trkpt lat="43.4793606" lon="11.0805609"><ele>166.0</ele><time>2026-04-19T07:35:45.649Z</time></trkpt><trkpt lat="43.4792385" lon="11.0804901"><ele>167.0</ele><time>2026-04-19T07:35:46.643Z</time></trkpt><trkpt lat="43.4791212" lon="11.0804131"><ele>168.0</ele><time>2026-04-19T07:35:47.655Z</time></trkpt><trkpt lat="43.4790269" lon="11.0803406"><ele>169.0</ele><time>2026-04-19T07:35:48.665Z</time></trkpt><trkpt lat="43.4789571" lon="11.0802857"><ele>169.0</ele><time>2026-04-19T07:35:49.636Z</time></trkpt><trkpt lat="43.4788864" lon="11.0802375"><ele>169.0</ele><time>2026-04-19T07:35:50.654Z</time></trkpt><trkpt lat="43.4788225" lon="11.0801971"><ele>169.0</ele><time>2026-04-19T07:35:51.657Z</time></trkpt><trkpt lat="43.4787589" lon="11.080156"><ele>169.0</ele><time>2026-04-19T07:35:52.649Z</time></trkpt><trkpt lat="43.4787" lon="11.080119"><ele>169.0</ele><time>2026-04-19T07:35:53.652Z</time></trkpt><trkpt lat="43.478603" lon="11.080051"><ele>169.0</ele><time>2026-04-19T07:35:55.645Z</time></trkpt><trkpt lat="43.47852" lon="11.0799601"><ele>172.0</ele><time>2026-04-19T07:35:57.655Z</time></trkpt><trkpt lat="43.478432" lon="11.0798739"><ele>175.0</ele><time>2026-04-19T07:35:59.633Z</time></trkpt><trkpt lat="43.4783231" lon="11.079827"><ele>178.0</ele><time>2026-04-19T07:36:01.652Z</time></trkpt><trkpt lat="43.4782221" lon="11.0798222"><ele>181.0</ele><time>2026-04-19T07:36:03.663Z</time></trkpt><trkpt lat="43.4780947" lon="11.0798286"><ele>181.0</ele><time>2026-04-19T07:36:05.653Z</time></trkpt><trkpt lat="43.4780216" lon="11.0798397"><ele>181.0</ele><time>2026-04-19T07:36:06.641Z</time></trkpt><trkpt lat="43.4779364" lon="11.0798543"><ele>181.0</ele><time>2026-04-19T07:36:07.656Z</time></trkpt><trkpt lat="43.4778442" lon="11.0798822"><ele>181.0</ele><time>2026-04-19T07:36:08.655Z</time></trkpt><trkpt lat="43.4777434" lon="11.0799189"><ele>181.0</ele><time>2026-04-19T07:36:09.646Z</time></trkpt><trkpt lat="43.4776535" lon="11.079958"><ele>181.75</ele><time>2026-04-19T07:36:10.656Z</time></trkpt><trkpt lat="43.4775565" lon="11.0800015"><ele>182.5</ele><time>2026-04-19T07:36:11.649Z</time></trkpt><trkpt lat="43.477457" lon="11.0800678"><ele>183.25</ele><time>2026-04-19T07:36:12.653Z</time></trkpt><trkpt lat="43.4773625" lon="11.0801656"><ele>184.0</ele><time>2026-04-19T07:36:13.647Z</time></trkpt><trkpt lat="43.4772817" lon="11.0802999"><ele>184.0</ele><time>2026-04-19T07:36:14.635Z</time></trkpt><trkpt lat="43.4772029" lon="11.0804375"><ele>184.0</ele><time>2026-04-19T07:36:15.652Z</time></trkpt><trkpt lat="43.4771184" lon="11.0805739"><ele>184.0</ele><time>2026-04-19T07:36:16.647Z</time></trkpt><trkpt lat="43.4770235" lon="11.0807042"><ele>184.0</ele><time>2026-04-19T07:36:17.663Z</time></trkpt><trkpt lat="43.4769229" lon="11.0808328"><ele>186.0</ele><time>2026-04-19T07:36:18.649Z</time></trkpt><trkpt lat="43.4768149" lon="11.0809389"><ele>188.0</ele><time>2026-04-19T07:36:19.639Z</time></trkpt><trkpt lat="43.4767173" lon="11.0810439"><ele>190.0</ele><time>2026-04-19T07:36:20.644Z</time></trkpt><trkpt lat="43.4766365" lon="11.0811402"><ele>192.0</ele><time>2026-04-19T07:36:21.649Z</time></trkpt><trkpt lat="43.4765631" lon="11.0812417"><ele>192.0</ele><time>2026-04-19T07:36:22.65Z</time></trkpt><trkpt lat="43.4765039" lon="11.0813412"><ele>192.0</ele><time>2026-04-19T07:36:23.658Z</time></trkpt><trkpt lat="43.4764563" lon="11.0814406"><ele>192.0</ele><time>2026-04-19T07:36:24.65Z</time></trkpt><trkpt lat="43.476413" lon="11.0815636"><ele>192.0</ele><time>2026-04-19T07:36:25.658Z</time></trkpt><trkpt lat="43.476387" lon="11.0817018"><ele>192.0</ele><time>2026-04-19T07:36:26.634Z</time></trkpt><trkpt lat="43.4763791" lon="11.0818718"><ele>191.75</ele><time>2026-04-19T07:36:27.656Z</time></trkpt><trkpt lat="43.4763805" lon="11.0820635"><ele>191.5</ele><time>2026-04-19T07:36:28.66Z</time></trkpt><trkpt lat="43.476383" lon="11.0822568"><ele>191.25</ele><time>2026-04-19T07:36:29.644Z</time></trkpt><trkpt lat="43.4763842" lon="11.0824315"><ele>191.0</ele><time>2026-04-19T07:36:30.65Z</time></trkpt><trkpt lat="43.4763843" lon="11.0825921"><ele>191.0</ele><time>2026-04-19T07:36:31.64Z</time></trkpt><trkpt lat="43.4763729" lon="11.0827675"><ele>191.0</ele><time>2026-04-19T07:36:32.658Z</time></trkpt><trkpt lat="43.4763538" lon="11.0829599"><ele>191.0</ele><time>2026-04-19T07:36:33.661Z</time></trkpt><trkpt lat="43.4763327" lon="11.0831521"><ele>191.0</ele><time>2026-04-19T07:36:34.65Z</time></trkpt><trkpt lat="43.4763084" lon="11.0833335"><ele>192.0</ele><time>2026-04-19T07:36:35.646Z</time></trkpt><trkpt lat="43.4762816" lon="11.0835139"><ele>193.0</ele><time>2026-04-19T07:36:36.661Z</time></trkpt><trkpt lat="43.4762594" lon="11.083686"><ele>194.0</ele><time>2026-04-19T07:36:37.647Z</time></trkpt><trkpt lat="43.4762387" lon="11.0838516"><ele>195.0</ele><time>2026-04-19T07:36:38.652Z</time></trkpt><trkpt lat="43.4762219" lon="11.0840155"><ele>189.0</ele><time>2026-04-19T07:36:39.659Z</time></trkpt><trkpt lat="43.4762176" lon="11.0841961"><ele>183.0</ele><time>2026-04-19T07:36:40.66Z</time></trkpt><trkpt lat="43.4762275" lon="11.0843899"><ele>177.0</ele><time>2026-04-19T07:36:41.657Z</time></trkpt><trkpt lat="43.4762292" lon="11.0845744"><ele>171.0</ele><time>2026-04-19T07:36:42.649Z</time></trkpt><trkpt lat="43.4762204" lon="11.0847385"><ele>171.0</ele><time>2026-04-19T07:36:43.65Z</time></trkpt><trkpt lat="43.4761981" lon="11.0848842"><ele>171.0</ele><time>2026-04-19T07:36:44.645Z</time></trkpt><trkpt lat="43.4761641" lon="11.0850213"><ele>171.0</ele><time>2026-04-19T07:36:45.648Z</time></trkpt><trkpt lat="43.47612" lon="11.085141"><ele>171.0</ele><time>2026-04-19T07:36:46.632Z</time></trkpt><trkpt lat="43.4760677" lon="11.085242"><ele>171.0</ele><time>2026-04-19T07:36:47.643Z</time></trkpt><trkpt lat="43.4759918" lon="11.085342"><ele>170.75</ele><time>2026-04-19T07:36:48.654Z</time></trkpt><trkpt lat="43.4759026" lon="11.0854386"><ele>170.5</ele><time>2026-04-19T07:36:49.65Z</time></trkpt><trkpt lat="43.475815" lon="11.085536"><ele>170.25</ele><time>2026-04-19T07:36:50.638Z</time></trkpt><trkpt lat="43.4757291" lon="11.0856567"><ele>170.0</ele><time>2026-04-19T07:36:51.655Z</time></trkpt><trkpt lat="43.4756579" lon="11.0857828"><ele>169.8</ele><time>2026-04-19T07:36:52.653Z</time></trkpt><trkpt lat="43.4756025" lon="11.0859002"><ele>169.6</ele><time>2026-04-19T07:36:53.642Z</time></trkpt><trkpt lat="43.4755614" lon="11.086004"><ele>169.39999999999998</ele><time>2026-04-19T07:36:54.65Z</time></trkpt><trkpt lat="43.4755224" lon="11.0860819"><ele>169.2</ele><time>2026-04-19T07:36:55.647Z</time></trkpt><trkpt lat="43.475438" lon="11.0862019"><ele>169.0</ele><time>2026-04-19T07:36:57.662Z</time></trkpt><trkpt lat="43.4753241" lon="11.08625"><ele>167.39999999999998</ele><time>2026-04-19T07:36:59.654Z</time></trkpt><trkpt lat="43.4752266" lon="11.0861649"><ele>165.8</ele><time>2026-04-19T07:37:01.662Z</time></trkpt><trkpt lat="43.4751642" lon="11.0861001"><ele>164.2</ele><time>2026-04-19T07:37:02.658Z</time></trkpt><trkpt lat="43.4750913" lon="11.0860439"><ele>162.60000000000002</ele><time>2026-04-19T07:37:03.656Z</time></trkpt><trkpt lat="43.4749954" lon="11.0860295"><ele>161.0</ele><time>2026-04-19T07:37:04.647Z</time></trkpt><trkpt lat="43.4748755" lon="11.0860547"><ele>161.0</ele><time>2026-04-19T07:37:05.644Z</time></trkpt><trkpt lat="43.4747493" lon="11.0861049"><ele>161.0</ele><time>2026-04-19T07:37:06.644Z</time></trkpt><trkpt lat="43.4746206" lon="11.0861678"><ele>161.0</ele><time>2026-04-19T07:37:07.646Z</time></trkpt><trkpt lat="43.474499" lon="11.0862423"><ele>161.0</ele><time>2026-04-19T07:37:08.646Z</time></trkpt><trkpt lat="43.4743826" lon="11.0863119"><ele>159.5</ele><time>2026-04-19T07:37:09.647Z</time></trkpt><trkpt lat="43.4742716" lon="11.086358"><ele>158.0</ele><time>2026-04-19T07:37:10.656Z</time></trkpt><trkpt lat="43.4741588" lon="11.0863734"><ele>156.5</ele><time>2026-04-19T07:37:11.634Z</time></trkpt><trkpt lat="43.4740452" lon="11.0863623"><ele>155.0</ele><time>2026-04-19T07:37:12.653Z</time></trkpt><trkpt lat="43.47392" lon="11.0863262"><ele>155.0</ele><time>2026-04-19T07:37:13.646Z</time></trkpt><trkpt lat="43.4737859" lon="11.0862738"><ele>155.0</ele><time>2026-04-19T07:37:14.653Z</time></trkpt><trkpt lat="43.4736569" lon="11.0862042"><ele>155.0</ele><time>2026-04-19T07:37:15.648Z</time></trkpt><trkpt lat="43.4735347" lon="11.0861153"><ele>155.0</ele><time>2026-04-19T07:37:16.654Z</time></trkpt><trkpt lat="43.4734258" lon="11.0860017"><ele>155.75</ele><time>2026-04-19T07:37:17.649Z</time></trkpt><trkpt lat="43.4733211" lon="11.0858662"><ele>156.5</ele><time>2026-04-19T07:37:18.653Z</time></trkpt><trkpt lat="43.4732095" lon="11.0857162"><ele>157.25</ele><time>2026-04-19T07:37:19.648Z</time></trkpt><trkpt lat="43.4730978" lon="11.0855933"><ele>158.0</ele><time>2026-04-19T07:37:20.635Z</time></trkpt><trkpt lat="43.4730007" lon="11.0854801"><ele>161.2</ele><time>2026-04-19T07:37:21.647Z</time></trkpt><trkpt lat="43.4729149" lon="11.0853948"><ele>164.4</ele><time>2026-04-19T07:37:22.651Z</time></trkpt><trkpt lat="43.4728283" lon="11.0853292"><ele>167.6</ele><time>2026-04-19T07:37:23.655Z</time></trkpt><trkpt lat="43.4727383" lon="11.0852746"><ele>170.79999999999998</ele><time>2026-04-19T07:37:24.651Z</time></trkpt><trkpt lat="43.4726331" lon="11.0852499"><ele>174.0</ele><time>2026-04-19T07:37:25.662Z</time></trkpt><trkpt lat="43.4725248" lon="11.0852607"><ele>174.0</ele><time>2026-04-19T07:37:26.656Z</time></trkpt><trkpt lat="43.4724251" lon="11.0853"><ele>174.0</ele><time>2026-04-19T07:37:27.635Z</time></trkpt><trkpt lat="43.4723483" lon="11.0853588"><ele>174.0</ele><time>2026-04-19T07:37:28.66Z</time></trkpt><trkpt lat="43.4723002" lon="11.0854276"><ele>174.0</ele><time>2026-04-19T07:37:29.657Z</time></trkpt><trkpt lat="43.4722717" lon="11.0855663"><ele>174.0</ele><time>2026-04-19T07:37:31.646Z</time></trkpt><trkpt lat="43.4723224" lon="11.0856724"><ele>177.0</ele><time>2026-04-19T07:37:33.644Z</time></trkpt><trkpt lat="43.4723361" lon="11.0857939"><ele>180.0</ele><time>2026-04-19T07:37:35.649Z</time></trkpt><trkpt lat="43.4722847" lon="11.0858972"><ele>183.0</ele><time>2026-04-19T07:37:37.647Z</time></trkpt><trkpt lat="43.4721695" lon="11.0859862"><ele>186.0</ele><time>2026-04-19T07:37:39.648Z</time></trkpt><trkpt lat="43.4720779" lon="11.0860295"><ele>189.0</ele><time>2026-04-19T07:37:40.645Z</time></trkpt><trkpt lat="43.4719873" lon="11.0860739"><ele>189.0</ele><time>2026-04-19T07:37:41.652Z</time></trkpt><trkpt lat="43.4719129" lon="11.0861089"><ele>189.0</ele><time>2026-04-19T07:37:42.653Z</time></trkpt><trkpt lat="43.471821" lon="11.0862131"><ele>189.0</ele><time>2026-04-19T07:37:44.654Z</time></trkpt><trkpt lat="43.4718275" lon="11.0863371"><ele>189.0</ele><time>2026-04-19T07:37:46.653Z</time></trkpt><trkpt lat="43.4719129" lon="11.0863935"><ele>189.0</ele><time>2026-04-19T07:37:48.654Z</time></trkpt><trkpt lat="43.4720021" lon="11.0864214"><ele>189.0</ele><time>2026-04-19T07:37:50.649Z</time></trkpt><trkpt lat="43.4721086" lon="11.0864402"><ele>189.0</ele><time>2026-04-19T07:37:52.657Z</time></trkpt><trkpt lat="43.4722008" lon="11.0864398"><ele>189.0</ele><time>2026-04-19T07:37:54.651Z</time></trkpt><trkpt lat="43.4722691" lon="11.0865148"><ele>189.0</ele><time>2026-04-19T07:37:57.63Z</time></trkpt><trkpt lat="43.4722495" lon="11.0866427"><ele>189.0</ele><time>2026-04-19T07:38:00.649Z</time></trkpt><trkpt lat="43.4721723" lon="11.0867359"><ele>190.0</ele><time>2026-04-19T07:38:02.647Z</time></trkpt><trkpt lat="43.4721198" lon="11.0867903"><ele>191.0</ele><time>2026-04-19T07:38:03.657Z</time></trkpt><trkpt lat="43.4720661" lon="11.0868396"><ele>192.0</ele><time>2026-04-19T07:38:04.66Z</time></trkpt><trkpt lat="43.4720029" lon="11.0868814"><ele>193.0</ele><time>2026-04-19T07:38:05.65Z</time></trkpt><trkpt lat="43.4719354" lon="11.0869144"><ele>194.0</ele><time>2026-04-19T07:38:06.656Z</time></trkpt><trkpt lat="43.4718611" lon="11.0869243"><ele>195.0</ele><time>2026-04-19T07:38:07.652Z</time></trkpt><trkpt lat="43.4717789" lon="11.0869188"><ele>196.0</ele><time>2026-04-19T07:38:08.658Z</time></trkpt><trkpt lat="43.4716868" lon="11.0869161"><ele>197.33333333333331</ele><time>2026-04-19T07:38:09.667Z</time></trkpt><trkpt lat="43.471597" lon="11.086932"><ele>198.66666666666666</ele><time>2026-04-19T07:38:10.653Z</time></trkpt><trkpt lat="43.4715081" lon="11.0869545"><ele>200.0</ele><time>2026-04-19T07:38:11.65Z</time></trkpt><trkpt lat="43.4714246" lon="11.086987"><ele>201.33333333333331</ele><time>2026-04-19T07:38:12.648Z</time></trkpt><trkpt lat="43.4713497" lon="11.0870377"><ele>202.66666666666666</ele><time>2026-04-19T07:38:13.65Z</time></trkpt><trkpt lat="43.4712892" lon="11.0871203"><ele>204.0</ele><time>2026-04-19T07:38:14.663Z</time></trkpt><trkpt lat="43.4712388" lon="11.087217"><ele>204.0</ele><time>2026-04-19T07:38:15.656Z</time></trkpt><trkpt lat="43.4711948" lon="11.0873313"><ele>204.0</ele><time>2026-04-19T07:38:16.655Z</time></trkpt><trkpt lat="43.4711565" lon="11.0874512"><ele>204.0</ele><time>2026-04-19T07:38:17.647Z</time></trkpt><trkpt lat="43.4711243" lon="11.0875715"><ele>204.0</ele><time>2026-04-19T07:38:18.646Z</time></trkpt><trkpt lat="43.4710938" lon="11.0876997"><ele>204.0</ele><time>2026-04-19T07:38:19.631Z</time></trkpt><trkpt lat="43.4710705" lon="11.0878234"><ele>206.6</ele><time>2026-04-19T07:38:20.638Z</time></trkpt><trkpt lat="43.4710472" lon="11.087924"><ele>209.2</ele><time>2026-04-19T07:38:21.668Z</time></trkpt><trkpt lat="43.4710286" lon="11.0880961"><ele>211.79999999999998</ele><time>2026-04-19T07:38:23.649Z</time></trkpt><trkpt lat="43.4710351" lon="11.0882137"><ele>214.39999999999998</ele><time>2026-04-19T07:38:24.647Z</time></trkpt><trkpt lat="43.4710456" lon="11.088344"><ele>217.0</ele><time>2026-04-19T07:38:25.662Z</time></trkpt><trkpt lat="43.4710636" lon="11.0884848"><ele>217.6</ele><time>2026-04-19T07:38:26.646Z</time></trkpt><trkpt lat="43.4710894" lon="11.0886241"><ele>218.2</ele><time>2026-04-19T07:38:27.667Z</time></trkpt><trkpt lat="43.4711187" lon="11.0887663"><ele>218.8</ele><time>2026-04-19T07:38:28.646Z</time></trkpt><trkpt lat="43.4711575" lon="11.0888983"><ele>219.4</ele><time>2026-04-19T07:38:29.652Z</time></trkpt><trkpt lat="43.471214" lon="11.0890223"><ele>220.0</ele><time>2026-04-19T07:38:30.635Z</time></trkpt><trkpt lat="43.4712859" lon="11.0891368"><ele>218.0</ele><time>2026-04-19T07:38:31.651Z</time></trkpt><trkpt lat="43.471355" lon="11.0892478"><ele>216.0</ele><time>2026-04-19T07:38:32.65Z</time></trkpt><trkpt lat="43.4714093" lon="11.0893584"><ele>214.0</ele><time>2026-04-19T07:38:33.65Z</time></trkpt><trkpt lat="43.4714521" lon="11.0894804"><ele>212.0</ele><time>2026-04-19T07:38:34.649Z</time></trkpt><trkpt lat="43.4714954" lon="11.089619"><ele>210.0</ele><time>2026-04-19T07:38:35.645Z</time></trkpt><trkpt lat="43.4715354" lon="11.0897662"><ele>210.0</ele><time>2026-04-19T07:38:36.655Z</time></trkpt><trkpt lat="43.4715685" lon="11.0899132"><ele>210.0</ele><time>2026-04-19T07:38:37.659Z</time></trkpt><trkpt lat="43.471599" lon="11.0900538"><ele>210.0</ele><time>2026-04-19T07:38:38.648Z</time></trkpt><trkpt lat="43.4716176" lon="11.090194"><ele>210.0</ele><time>2026-04-19T07:38:39.633Z</time></trkpt><trkpt lat="43.4716252" lon="11.0903289"><ele>210.0</ele><time>2026-04-19T07:38:40.634Z</time></trkpt><trkpt lat="43.4716235" lon="11.0904641"><ele>211.2</ele><time>2026-04-19T07:38:41.647Z</time></trkpt><trkpt lat="43.4716155" lon="11.0905867"><ele>212.4</ele><time>2026-04-19T07:38:42.634Z</time></trkpt><trkpt lat="43.4716188" lon="11.090707"><ele>213.60000000000002</ele><time>2026-04-19T07:38:43.645Z</time></trkpt><trkpt lat="43.4716348" lon="11.0908237"><ele>214.8</ele><time>2026-04-19T07:38:44.629Z</time></trkpt><trkpt lat="43.4716771" lon="11.0909466"><ele>216.0</ele><time>2026-04-19T07:38:45.653Z</time></trkpt><trkpt lat="43.471731" lon="11.0910692"><ele>216.8</ele><time>2026-04-19T07:38:46.66Z</time></trkpt><trkpt lat="43.4717812" lon="11.0911814"><ele>217.60000000000002</ele><time>2026-04-19T07:38:47.654Z</time></trkpt><trkpt lat="43.4718223" lon="11.0913013"><ele>218.4</ele><time>2026-04-19T07:38:48.65Z</time></trkpt><trkpt lat="43.4718417" lon="11.0914269"><ele>219.2</ele><time>2026-04-19T07:38:49.651Z</time></trkpt><trkpt lat="43.4718621" lon="11.0915563"><ele>220.0</ele><time>2026-04-19T07:38:50.643Z</time></trkpt><trkpt lat="43.4718721" lon="11.0916921"><ele>221.0</ele><time>2026-04-19T07:38:51.635Z</time></trkpt><trkpt lat="43.471871" lon="11.0918334"><ele>222.0</ele><time>2026-04-19T07:38:52.651Z</time></trkpt><trkpt lat="43.4718841" lon="11.0919774"><ele>223.0</ele><time>2026-04-19T07:38:53.647Z</time></trkpt><trkpt lat="43.4719066" lon="11.0920964"><ele>224.0</ele><time>2026-04-19T07:38:54.642Z</time></trkpt><trkpt lat="43.4719356" lon="11.0922"><ele>225.0</ele><time>2026-04-19T07:38:55.633Z</time></trkpt><trkpt lat="43.4719776" lon="11.0922874"><ele>225.0</ele><time>2026-04-19T07:38:56.64Z</time></trkpt><trkpt lat="43.4720358" lon="11.0923385"><ele>225.0</ele><time>2026-04-19T07:38:57.644Z</time></trkpt><trkpt lat="43.4721026" lon="11.0923689"><ele>225.0</ele><time>2026-04-19T07:38:58.652Z</time></trkpt><trkpt lat="43.4721793" lon="11.0923773"><ele>225.0</ele><time>2026-04-19T07:38:59.657Z</time></trkpt><trkpt lat="43.4722673" lon="11.092395"><ele>225.0</ele><time>2026-04-19T07:39:00.651Z</time></trkpt><trkpt lat="43.4723579" lon="11.0924289"><ele>225.0</ele><time>2026-04-19T07:39:01.654Z</time></trkpt><trkpt lat="43.4724534" lon="11.0924613"><ele>224.8</ele><time>2026-04-19T07:39:02.647Z</time></trkpt><trkpt lat="43.4725548" lon="11.0924871"><ele>224.6</ele><time>2026-04-19T07:39:03.651Z</time></trkpt><trkpt lat="43.4726593" lon="11.0925138"><ele>224.39999999999998</ele><time>2026-04-19T07:39:04.65Z</time></trkpt><trkpt lat="43.4727621" lon="11.0925413"><ele>224.2</ele><time>2026-04-19T07:39:05.653Z</time></trkpt><trkpt lat="43.4728484" lon="11.0925646"><ele>224.0</ele><time>2026-04-19T07:39:06.652Z</time></trkpt><trkpt lat="43.4729278" lon="11.0925921"><ele>221.79999999999998</ele><time>2026-04-19T07:39:07.637Z</time></trkpt><trkpt lat="43.4730113" lon="11.0926096"><ele>219.59999999999997</ele><time>2026-04-19T07:39:08.632Z</time></trkpt><trkpt lat="43.4731053" lon="11.0926272"><ele>217.4</ele><time>2026-04-19T07:39:09.634Z</time></trkpt><trkpt lat="43.4732033" lon="11.0926585"><ele>215.2</ele><time>2026-04-19T07:39:10.636Z</time></trkpt><trkpt lat="43.4732991" lon="11.0926895"><ele>213.0</ele><time>2026-04-19T07:39:11.634Z</time></trkpt><trkpt lat="43.4733987" lon="11.0927336"><ele>213.0</ele><time>2026-04-19T07:39:12.634Z</time></trkpt><trkpt lat="43.4734942" lon="11.0927919"><ele>213.0</ele><time>2026-04-19T07:39:13.647Z</time></trkpt><trkpt lat="43.4735877" lon="11.0928653"><ele>213.0</ele><time>2026-04-19T07:39:14.653Z</time></trkpt><trkpt lat="43.4736794" lon="11.0929459"><ele>213.0</ele><time>2026-04-19T07:39:15.632Z</time></trkpt><trkpt lat="43.4737587" lon="11.0930355"><ele>213.0</ele><time>2026-04-19T07:39:16.643Z</time></trkpt><trkpt lat="43.4738439" lon="11.0931401"><ele>212.8</ele><time>2026-04-19T07:39:17.639Z</time></trkpt><trkpt lat="43.4739408" lon="11.093257"><ele>212.60000000000002</ele><time>2026-04-19T07:39:18.64Z</time></trkpt><trkpt lat="43.4740251" lon="11.0933631"><ele>212.39999999999998</ele><time>2026-04-19T07:39:19.629Z</time></trkpt><trkpt lat="43.4741036" lon="11.0934583"><ele>212.2</ele><time>2026-04-19T07:39:20.646Z</time></trkpt><trkpt lat="43.4741732" lon="11.093541"><ele>212.0</ele><time>2026-04-19T07:39:21.655Z</time></trkpt><trkpt lat="43.4742394" lon="11.0936229"><ele>212.00000000000003</ele><time>2026-04-19T07:39:22.652Z</time></trkpt><trkpt lat="43.47431" lon="11.0937011"><ele>212.0</ele><time>2026-04-19T07:39:23.646Z</time></trkpt><trkpt lat="43.4743808" lon="11.0937705"><ele>212.0</ele><time>2026-04-19T07:39:24.646Z</time></trkpt><trkpt lat="43.4744414" lon="11.0938332"><ele>212.0</ele><time>2026-04-19T07:39:25.648Z</time></trkpt><trkpt lat="43.4744926" lon="11.0938937"><ele>212.00000000000003</ele><time>2026-04-19T07:39:26.654Z</time></trkpt><trkpt lat="43.4745705" lon="11.0939997"><ele>212.0</ele><time>2026-04-19T07:39:28.633Z</time></trkpt><trkpt lat="43.4746559" lon="11.0940894"><ele>212.16666666666669</ele><time>2026-04-19T07:39:30.655Z</time></trkpt><trkpt lat="43.4747161" lon="11.0941396"><ele>212.33333333333334</ele><time>2026-04-19T07:39:31.654Z</time></trkpt><trkpt lat="43.4747866" lon="11.0941973"><ele>212.5</ele><time>2026-04-19T07:39:32.643Z</time></trkpt><trkpt lat="43.4748589" lon="11.0942725"><ele>212.66666666666669</ele><time>2026-04-19T07:39:33.627Z</time></trkpt><trkpt lat="43.4749308" lon="11.0943571"><ele>212.83333333333334</ele><time>2026-04-19T07:39:34.644Z</time></trkpt><trkpt lat="43.4749993" lon="11.0944438"><ele>213.0</ele><time>2026-04-19T07:39:35.644Z</time></trkpt><trkpt lat="43.4750683" lon="11.094524"><ele>213.0</ele><time>2026-04-19T07:39:36.631Z</time></trkpt><trkpt lat="43.4751387" lon="11.0946104"><ele>213.0</ele><time>2026-04-19T07:39:37.643Z</time></trkpt><trkpt lat="43.4752101" lon="11.0947092"><ele>213.0</ele><time>2026-04-19T07:39:38.639Z</time></trkpt><trkpt lat="43.4752787" lon="11.094814"><ele>213.0</ele><time>2026-04-19T07:39:39.645Z</time></trkpt><trkpt lat="43.4753389" lon="11.0949158"><ele>213.0</ele><time>2026-04-19T07:39:40.64Z</time></trkpt><trkpt lat="43.4753972" lon="11.0950091"><ele>212.33333333333334</ele><time>2026-04-19T07:39:41.649Z</time></trkpt><trkpt lat="43.4754554" lon="11.0951001"><ele>211.66666666666669</ele><time>2026-04-19T07:39:42.643Z</time></trkpt><trkpt lat="43.4755049" lon="11.0951857"><ele>211.0</ele><time>2026-04-19T07:39:43.632Z</time></trkpt><trkpt lat="43.4755425" lon="11.095276"><ele>210.33333333333334</ele><time>2026-04-19T07:39:44.629Z</time></trkpt><trkpt lat="43.4755724" lon="11.0953591"><ele>209.66666666666669</ele><time>2026-04-19T07:39:45.631Z</time></trkpt><trkpt lat="43.4755971" lon="11.0955304"><ele>209.0</ele><time>2026-04-19T07:39:47.627Z</time></trkpt><trkpt lat="43.4755787" lon="11.0956581"><ele>208.66666666666669</ele><time>2026-04-19T07:39:48.633Z</time></trkpt><trkpt lat="43.4755527" lon="11.0957915"><ele>208.33333333333334</ele><time>2026-04-19T07:39:49.629Z</time></trkpt><trkpt lat="43.4755299" lon="11.0959124"><ele>208.0</ele><time>2026-04-19T07:39:50.646Z</time></trkpt><trkpt lat="43.4755074" lon="11.0960251"><ele>207.66666666666669</ele><time>2026-04-19T07:39:51.652Z</time></trkpt><trkpt lat="43.4754739" lon="11.096127"><ele>207.33333333333334</ele><time>2026-04-19T07:39:52.655Z</time></trkpt><trkpt lat="43.4754262" lon="11.0962257"><ele>207.0</ele><time>2026-04-19T07:39:53.661Z</time></trkpt><trkpt lat="43.4753519" lon="11.0963223"><ele>206.25</ele><time>2026-04-19T07:39:54.652Z</time></trkpt><trkpt lat="43.4752567" lon="11.0964202"><ele>205.5</ele><time>2026-04-19T07:39:55.653Z</time></trkpt><trkpt lat="43.4751506" lon="11.0965052"><ele>204.75</ele><time>2026-04-19T07:39:56.661Z</time></trkpt><trkpt lat="43.475043" lon="11.0965857"><ele>204.0</ele><time>2026-04-19T07:39:57.655Z</time></trkpt><trkpt lat="43.4749282" lon="11.0966548"><ele>204.0</ele><time>2026-04-19T07:39:58.662Z</time></trkpt><trkpt lat="43.4748106" lon="11.0967201"><ele>204.0</ele><time>2026-04-19T07:39:59.648Z</time></trkpt><trkpt lat="43.4746971" lon="11.0967714"><ele>204.0</ele><time>2026-04-19T07:40:00.66Z</time></trkpt><trkpt lat="43.4745859" lon="11.0968325"><ele>204.0</ele><time>2026-04-19T07:40:01.65Z</time></trkpt><trkpt lat="43.4744879" lon="11.0969098"><ele>203.5</ele><time>2026-04-19T07:40:02.653Z</time></trkpt><trkpt lat="43.4743976" lon="11.0970041"><ele>203.0</ele><time>2026-04-19T07:40:03.662Z</time></trkpt><trkpt lat="43.4743119" lon="11.0971153"><ele>202.5</ele><time>2026-04-19T07:40:04.658Z</time></trkpt><trkpt lat="43.4742394" lon="11.0972541"><ele>202.0</ele><time>2026-04-19T07:40:05.655Z</time></trkpt><trkpt lat="43.4741754" lon="11.0974121"><ele>200.66666666666666</ele><time>2026-04-19T07:40:06.662Z</time></trkpt><trkpt lat="43.4741138" lon="11.0975897"><ele>199.33333333333331</ele><time>2026-04-19T07:40:07.652Z</time></trkpt><trkpt lat="43.4740543" lon="11.0978084"><ele>198.0</ele><time>2026-04-19T07:40:08.662Z</time></trkpt><trkpt lat="43.4740006" lon="11.0980236"><ele>198.0</ele><time>2026-04-19T07:40:09.654Z</time></trkpt><trkpt lat="43.4739524" lon="11.0982241"><ele>198.0</ele><time>2026-04-19T07:40:10.643Z</time></trkpt><trkpt lat="43.4739118" lon="11.0984117"><ele>198.0</ele><time>2026-04-19T07:40:11.651Z</time></trkpt><trkpt lat="43.4738672" lon="11.0985793"><ele>198.0</ele><time>2026-04-19T07:40:12.644Z</time></trkpt><trkpt lat="43.4738234" lon="11.0987351"><ele>198.0</ele><time>2026-04-19T07:40:13.646Z</time></trkpt><trkpt lat="43.4737821" lon="11.0988982"><ele>198.0</ele><time>2026-04-19T07:40:14.647Z</time></trkpt><trkpt lat="43.4737475" lon="11.0990532"><ele>198.0</ele><time>2026-04-19T07:40:15.647Z</time></trkpt><trkpt lat="43.4737195" lon="11.0992035"><ele>198.0</ele><time>2026-04-19T07:40:16.66Z</time></trkpt><trkpt lat="43.4736929" lon="11.0993574"><ele>196.25</ele><time>2026-04-19T07:40:17.65Z</time></trkpt><trkpt lat="43.4736726" lon="11.0995157"><ele>194.5</ele><time>2026-04-19T07:40:18.648Z</time></trkpt><trkpt lat="43.4736631" lon="11.0996797"><ele>192.75</ele><time>2026-04-19T07:40:19.652Z</time></trkpt><trkpt lat="43.4736628" lon="11.0998524"><ele>191.0</ele><time>2026-04-19T07:40:20.648Z</time></trkpt><trkpt lat="43.4736681" lon="11.100039"><ele>191.0</ele><time>2026-04-19T07:40:21.648Z</time></trkpt><trkpt lat="43.4736728" lon="11.1002206"><ele>191.0</ele><time>2026-04-19T07:40:22.659Z</time></trkpt><trkpt lat="43.4736818" lon="11.1003965"><ele>191.0</ele><time>2026-04-19T07:40:23.644Z</time></trkpt><trkpt lat="43.473689" lon="11.1005694"><ele>191.0</ele><time>2026-04-19T07:40:24.653Z</time></trkpt><trkpt lat="43.4736995" lon="11.1007347"><ele>191.20000000000002</ele><time>2026-04-19T07:40:25.653Z</time></trkpt><trkpt lat="43.4737093" lon="11.1008807"><ele>191.4</ele><time>2026-04-19T07:40:26.654Z</time></trkpt><trkpt lat="43.473707" lon="11.1010167"><ele>191.6</ele><time>2026-04-19T07:40:27.652Z</time></trkpt><trkpt lat="43.4736978" lon="11.1011578"><ele>191.8</ele><time>2026-04-19T07:40:28.648Z</time></trkpt><trkpt lat="43.4736722" lon="11.1013081"><ele>192.0</ele><time>2026-04-19T07:40:29.656Z</time></trkpt><trkpt lat="43.4736284" lon="11.1014512"><ele>192.25</ele><time>2026-04-19T07:40:30.644Z</time></trkpt><trkpt lat="43.4735644" lon="11.1015973"><ele>192.5</ele><time>2026-04-19T07:40:31.646Z</time></trkpt><trkpt lat="43.4734885" lon="11.1017333"><ele>192.75</ele><time>2026-04-19T07:40:32.648Z</time></trkpt><trkpt lat="43.4734141" lon="11.1018681"><ele>193.0</ele><time>2026-04-19T07:40:33.65Z</time></trkpt><trkpt lat="43.4733514" lon="11.1019953"><ele>193.0</ele><time>2026-04-19T07:40:34.659Z</time></trkpt><trkpt lat="43.4733013" lon="11.1021206"><ele>193.0</ele><time>2026-04-19T07:40:35.634Z</time></trkpt><trkpt lat="43.4732603" lon="11.1022654"><ele>193.0</ele><time>2026-04-19T07:40:36.651Z</time></trkpt><trkpt lat="43.4732332" lon="11.1024279"><ele>193.0</ele><time>2026-04-19T07:40:37.652Z</time></trkpt><trkpt lat="43.4732219" lon="11.1025993"><ele>193.5</ele><time>2026-04-19T07:40:38.651Z</time></trkpt><trkpt lat="43.4732099" lon="11.1027754"><ele>194.0</ele><time>2026-04-19T07:40:39.632Z</time></trkpt><trkpt lat="43.4731933" lon="11.1029616"><ele>194.5</ele><time>2026-04-19T07:40:40.655Z</time></trkpt><trkpt lat="43.473177" lon="11.1031526"><ele>195.0</ele><time>2026-04-19T07:40:41.645Z</time></trkpt><trkpt lat="43.4731601" lon="11.1033412"><ele>195.25</ele><time>2026-04-19T07:40:42.647Z</time></trkpt><trkpt lat="43.4731344" lon="11.1035335"><ele>195.5</ele><time>2026-04-19T07:40:43.654Z</time></trkpt><trkpt lat="43.473101" lon="11.1037266"><ele>195.75</ele><time>2026-04-19T07:40:44.66Z</time></trkpt><trkpt lat="43.4730726" lon="11.103924"><ele>196.0</ele><time>2026-04-19T07:40:45.655Z</time></trkpt><trkpt lat="43.4730743" lon="11.1041302"><ele>196.0</ele><time>2026-04-19T07:40:46.664Z</time></trkpt><trkpt lat="43.4730929" lon="11.1043381"><ele>196.0</ele><time>2026-04-19T07:40:47.649Z</time></trkpt><trkpt lat="43.4731065" lon="11.1045259"><ele>196.0</ele><time>2026-04-19T07:40:48.654Z</time></trkpt><trkpt lat="43.4731256" lon="11.1046995"><ele>196.0</ele><time>2026-04-19T07:40:49.645Z</time></trkpt><trkpt lat="43.4731475" lon="11.104838"><ele>196.60000000000002</ele><time>2026-04-19T07:40:50.657Z</time></trkpt><trkpt lat="43.4731687" lon="11.1049475"><ele>197.2</ele><time>2026-04-19T07:40:51.661Z</time></trkpt><trkpt lat="43.473196" lon="11.1050829"><ele>197.8</ele><time>2026-04-19T07:40:53.663Z</time></trkpt><trkpt lat="43.4731591" lon="11.1052007"><ele>198.39999999999998</ele><time>2026-04-19T07:40:55.654Z</time></trkpt><trkpt lat="43.4730428" lon="11.1052859"><ele>199.0</ele><time>2026-04-19T07:40:57.626Z</time></trkpt><trkpt lat="43.4729612" lon="11.1053278"><ele>200.75</ele><time>2026-04-19T07:40:58.656Z</time></trkpt><trkpt lat="43.47287" lon="11.1053843"><ele>202.5</ele><time>2026-04-19T07:40:59.642Z</time></trkpt><trkpt lat="43.4727649" lon="11.1054446"><ele>204.25</ele><time>2026-04-19T07:41:00.648Z</time></trkpt><trkpt lat="43.4726594" lon="11.1055148"><ele>206.0</ele><time>2026-04-19T07:41:01.654Z</time></trkpt><trkpt lat="43.4725538" lon="11.1055894"><ele>206.0</ele><time>2026-04-19T07:41:02.635Z</time></trkpt><trkpt lat="43.4724531" lon="11.1056541"><ele>206.0</ele><time>2026-04-19T07:41:03.646Z</time></trkpt><trkpt lat="43.4723457" lon="11.1057188"><ele>206.0</ele><time>2026-04-19T07:41:04.657Z</time></trkpt><trkpt lat="43.4722404" lon="11.1057879"><ele>206.0</ele><time>2026-04-19T07:41:05.662Z</time></trkpt><trkpt lat="43.4721488" lon="11.1058536"><ele>206.0</ele><time>2026-04-19T07:41:06.647Z</time></trkpt><trkpt lat="43.4720642" lon="11.1059147"><ele>204.60000000000002</ele><time>2026-04-19T07:41:07.642Z</time></trkpt><trkpt lat="43.4719857" lon="11.1059805"><ele>203.2</ele><time>2026-04-19T07:41:08.635Z</time></trkpt><trkpt lat="43.4719143" lon="11.1060478"><ele>201.8</ele><time>2026-04-19T07:41:09.649Z</time></trkpt><trkpt lat="43.4718468" lon="11.1061188"><ele>200.39999999999998</ele><time>2026-04-19T07:41:10.647Z</time></trkpt><trkpt lat="43.4717803" lon="11.1062149"><ele>199.0</ele><time>2026-04-19T07:41:11.648Z</time></trkpt><trkpt lat="43.4717102" lon="11.1063255"><ele>199.0</ele><time>2026-04-19T07:41:12.644Z</time></trkpt><trkpt lat="43.4716395" lon="11.1064418"><ele>199.0</ele><time>2026-04-19T07:41:13.645Z</time></trkpt><trkpt lat="43.471573" lon="11.1065523"><ele>199.0</ele><time>2026-04-19T07:41:14.654Z</time></trkpt><trkpt lat="43.4715016" lon="11.1066685"><ele>199.0</ele><time>2026-04-19T07:41:15.648Z</time></trkpt><trkpt lat="43.4714142" lon="11.1067977"><ele>198.0</ele><time>2026-04-19T07:41:16.652Z</time></trkpt><trkpt lat="43.4713307" lon="11.1069205"><ele>197.0</ele><time>2026-04-19T07:41:17.655Z</time></trkpt><trkpt lat="43.471248" lon="11.1070337"><ele>196.0</ele><time>2026-04-19T07:41:18.647Z</time></trkpt><trkpt lat="43.4711607" lon="11.1071414"><ele>195.0</ele><time>2026-04-19T07:41:19.647Z</time></trkpt><trkpt lat="43.471078" lon="11.1072631"><ele>194.2</ele><time>2026-04-19T07:41:20.646Z</time></trkpt><trkpt lat="43.4710026" lon="11.1073815"><ele>193.4</ele><time>2026-04-19T07:41:21.652Z</time></trkpt><trkpt lat="43.4709327" lon="11.1074878"><ele>192.60000000000002</ele><time>2026-04-19T07:41:22.633Z</time></trkpt><trkpt lat="43.470864" lon="11.1076042"><ele>191.8</ele><time>2026-04-19T07:41:23.65Z</time></trkpt><trkpt lat="43.4707959" lon="11.1077267"><ele>191.0</ele><time>2026-04-19T07:41:24.63Z</time></trkpt><trkpt lat="43.4707429" lon="11.1078484"><ele>191.0</ele><time>2026-04-19T07:41:25.654Z</time></trkpt><trkpt lat="43.470703" lon="11.1079576"><ele>191.0</ele><time>2026-04-19T07:41:26.638Z</time></trkpt><trkpt lat="43.4706686" lon="11.108058"><ele>191.0</ele><time>2026-04-19T07:41:27.64Z</time></trkpt><trkpt lat="43.470635" lon="11.1081471"><ele>191.0</ele><time>2026-04-19T07:41:28.645Z</time></trkpt><trkpt lat="43.4706039" lon="11.1082332"><ele>191.0</ele><time>2026-04-19T07:41:29.641Z</time></trkpt><trkpt lat="43.4705804" lon="11.1083282"><ele>191.0</ele><time>2026-04-19T07:41:30.65Z</time></trkpt><trkpt lat="43.4705671" lon="11.1084289"><ele>190.33333333333331</ele><time>2026-04-19T07:41:31.637Z</time></trkpt><trkpt lat="43.4705696" lon="11.1085268"><ele>189.66666666666666</ele><time>2026-04-19T07:41:32.633Z</time></trkpt><trkpt lat="43.4705785" lon="11.1086328"><ele>189.0</ele><time>2026-04-19T07:41:33.663Z</time></trkpt><trkpt lat="43.4705813" lon="11.1087396"><ele>188.33333333333334</ele><time>2026-04-19T07:41:34.635Z</time></trkpt><trkpt lat="43.4705818" lon="11.1088709"><ele>187.66666666666669</ele><time>2026-04-19T07:41:35.656Z</time></trkpt><trkpt lat="43.4705776" lon="11.1090008"><ele>187.0</ele><time>2026-04-19T07:41:36.65Z</time></trkpt><trkpt lat="43.470567" lon="11.1091362"><ele>186.0</ele><time>2026-04-19T07:41:37.655Z</time></trkpt><trkpt lat="43.4705558" lon="11.1092946"><ele>185.0</ele><time>2026-04-19T07:41:38.639Z</time></trkpt><trkpt lat="43.4705402" lon="11.1094512"><ele>184.0</ele><time>2026-04-19T07:41:39.66Z</time></trkpt><trkpt lat="43.4705248" lon="11.109601"><ele>183.0</ele><time>2026-04-19T07:41:40.626Z</time></trkpt><trkpt lat="43.4704899" lon="11.109723"><ele>182.0</ele><time>2026-04-19T07:41:41.646Z</time></trkpt><trkpt lat="43.4704543" lon="11.1098365"><ele>182.6</ele><time>2026-04-19T07:41:42.646Z</time></trkpt><trkpt lat="43.4704143" lon="11.1099459"><ele>183.2</ele><time>2026-04-19T07:41:43.647Z</time></trkpt><trkpt lat="43.4703616" lon="11.1100616"><ele>183.8</ele><time>2026-04-19T07:41:44.628Z</time></trkpt><trkpt lat="43.4702944" lon="11.1101754"><ele>184.4</ele><time>2026-04-19T07:41:45.653Z</time></trkpt><trkpt lat="43.4702141" lon="11.1102988"><ele>185.0</ele><time>2026-04-19T07:41:46.657Z</time></trkpt><trkpt lat="43.4701337" lon="11.1104345"><ele>185.0</ele><time>2026-04-19T07:41:47.645Z</time></trkpt><trkpt lat="43.470064" lon="11.1105666"><ele>185.0</ele><time>2026-04-19T07:41:48.653Z</time></trkpt><trkpt lat="43.470005" lon="11.1106895"><ele>185.0</ele><time>2026-04-19T07:41:49.655Z</time></trkpt><trkpt lat="43.4699462" lon="11.1107962"><ele>185.0</ele><time>2026-04-19T07:41:50.655Z</time></trkpt><trkpt lat="43.4699045" lon="11.1109025"><ele>185.0</ele><time>2026-04-19T07:41:51.644Z</time></trkpt><trkpt lat="43.469856" lon="11.1110167"><ele>183.8</ele><time>2026-04-19T07:41:52.652Z</time></trkpt><trkpt lat="43.4698089" lon="11.1111269"><ele>182.6</ele><time>2026-04-19T07:41:53.646Z</time></trkpt><trkpt lat="43.4697827" lon="11.1112526"><ele>181.39999999999998</ele><time>2026-04-19T07:41:54.631Z</time></trkpt><trkpt lat="43.469752" lon="11.1113699"><ele>180.2</ele><time>2026-04-19T07:41:55.657Z</time></trkpt><trkpt lat="43.4697215" lon="11.1114853"><ele>179.0</ele><time>2026-04-19T07:41:56.632Z</time></trkpt><trkpt lat="43.4697016" lon="11.1115992"><ele>178.79999999999998</ele><time>2026-04-19T07:41:57.635Z</time></trkpt><trkpt lat="43.4696948" lon="11.1117229"><ele>178.6</ele><time>2026-04-19T07:41:58.636Z</time></trkpt><trkpt lat="43.4696977" lon="11.1118551"><ele>178.4</ele><time>2026-04-19T07:41:59.632Z</time></trkpt><trkpt lat="43.4697032" lon="11.1120001"><ele>178.2</ele><time>2026-04-19T07:42:00.637Z</time></trkpt><trkpt lat="43.4697138" lon="11.1121451"><ele>178.0</ele><time>2026-04-19T07:42:01.645Z</time></trkpt><trkpt lat="43.4697268" lon="11.1123012"><ele>177.0</ele><time>2026-04-19T07:42:02.632Z</time></trkpt><trkpt lat="43.4697376" lon="11.1124572"><ele>176.0</ele><time>2026-04-19T07:42:03.646Z</time></trkpt><trkpt lat="43.4697455" lon="11.1126013"><ele>175.0</ele><time>2026-04-19T07:42:04.657Z</time></trkpt><trkpt lat="43.4697462" lon="11.1127421"><ele>174.0</ele><time>2026-04-19T07:42:05.647Z</time></trkpt><trkpt lat="43.4697263" lon="11.1128688"><ele>173.0</ele><time>2026-04-19T07:42:06.653Z</time></trkpt><trkpt lat="43.469694" lon="11.1129994"><ele>173.0</ele><time>2026-04-19T07:42:07.633Z</time></trkpt><trkpt lat="43.4696548" lon="11.1131354"><ele>173.0</ele><time>2026-04-19T07:42:08.646Z</time></trkpt><trkpt lat="43.4696154" lon="11.113273"><ele>173.0</ele><time>2026-04-19T07:42:09.645Z</time></trkpt><trkpt lat="43.4695721" lon="11.1134002"><ele>173.0</ele><time>2026-04-19T07:42:10.651Z</time></trkpt><trkpt lat="43.4695338" lon="11.1135176"><ele>173.0</ele><time>2026-04-19T07:42:11.655Z</time></trkpt><trkpt lat="43.4694993" lon="11.1136222"><ele>173.60000000000002</ele><time>2026-04-19T07:42:12.644Z</time></trkpt><trkpt lat="43.4694802" lon="11.1137173"><ele>174.20000000000002</ele><time>2026-04-19T07:42:13.646Z</time></trkpt><trkpt lat="43.4694797" lon="11.1138723"><ele>174.8</ele><time>2026-04-19T07:42:15.651Z</time></trkpt><trkpt lat="43.4694618" lon="11.1139957"><ele>175.4</ele><time>2026-04-19T07:42:17.658Z</time></trkpt><trkpt lat="43.4693759" lon="11.1141107"><ele>176.0</ele><time>2026-04-19T07:42:19.649Z</time></trkpt><trkpt lat="43.4693134" lon="11.1141767"><ele>176.20000000000002</ele><time>2026-04-19T07:42:20.648Z</time></trkpt><trkpt lat="43.4692451" lon="11.114251"><ele>176.4</ele><time>2026-04-19T07:42:21.636Z</time></trkpt><trkpt lat="43.4691765" lon="11.1143258"><ele>176.6</ele><time>2026-04-19T07:42:22.645Z</time></trkpt><trkpt lat="43.469118" lon="11.1144071"><ele>176.8</ele><time>2026-04-19T07:42:23.654Z</time></trkpt><trkpt lat="43.4690535" lon="11.1144964"><ele>177.0</ele><time>2026-04-19T07:42:24.651Z</time></trkpt><trkpt lat="43.4689752" lon="11.114593"><ele>177.0</ele><time>2026-04-19T07:42:25.636Z</time></trkpt><trkpt lat="43.4689043" lon="11.1146969"><ele>177.0</ele><time>2026-04-19T07:42:26.647Z</time></trkpt><trkpt lat="43.4688302" lon="11.1148049"><ele>177.0</ele><time>2026-04-19T07:42:27.649Z</time></trkpt><trkpt lat="43.4687604" lon="11.1148967"><ele>177.0</ele><time>2026-04-19T07:42:28.667Z</time></trkpt><trkpt lat="43.4686898" lon="11.1149882"><ele>177.0</ele><time>2026-04-19T07:42:29.659Z</time></trkpt><trkpt lat="43.468619" lon="11.1150782"><ele>176.66666666666666</ele><time>2026-04-19T07:42:30.652Z</time></trkpt><trkpt lat="43.4685558" lon="11.1151681"><ele>176.33333333333334</ele><time>2026-04-19T07:42:31.658Z</time></trkpt><trkpt lat="43.4684959" lon="11.1152541"><ele>176.0</ele><time>2026-04-19T07:42:32.652Z</time></trkpt><trkpt lat="43.4684408" lon="11.1153367"><ele>175.66666666666669</ele><time>2026-04-19T07:42:33.65Z</time></trkpt><trkpt lat="43.4683859" lon="11.1154204"><ele>175.33333333333334</ele><time>2026-04-19T07:42:34.651Z</time></trkpt><trkpt lat="43.4683479" lon="11.1155181"><ele>175.0</ele><time>2026-04-19T07:42:35.665Z</time></trkpt><trkpt lat="43.4683146" lon="11.1156125"><ele>175.0</ele><time>2026-04-19T07:42:36.649Z</time></trkpt><trkpt lat="43.4682779" lon="11.1157082"><ele>175.0</ele><time>2026-04-19T07:42:37.652Z</time></trkpt><trkpt lat="43.4682469" lon="11.1158247"><ele>175.0</ele><time>2026-04-19T07:42:38.663Z</time></trkpt><trkpt lat="43.4682176" lon="11.1159778"><ele>175.0</ele><time>2026-04-19T07:42:39.652Z</time></trkpt><trkpt lat="43.4681872" lon="11.1161343"><ele>175.0</ele><time>2026-04-19T07:42:40.664Z</time></trkpt><trkpt lat="43.4681651" lon="11.1162942"><ele>171.4</ele><time>2026-04-19T07:42:41.655Z</time></trkpt><trkpt lat="43.4681384" lon="11.1164397"><ele>167.8</ele><time>2026-04-19T07:42:42.646Z</time></trkpt><trkpt lat="43.4681186" lon="11.1165763"><ele>164.2</ele><time>2026-04-19T07:42:43.624Z</time></trkpt><trkpt lat="43.4680973" lon="11.116711"><ele>160.6</ele><time>2026-04-19T07:42:44.646Z</time></trkpt><trkpt lat="43.4680764" lon="11.116846"><ele>157.0</ele><time>2026-04-19T07:42:45.633Z</time></trkpt><trkpt lat="43.4680585" lon="11.1169627"><ele>154.6</ele><time>2026-04-19T07:42:46.651Z</time></trkpt><trkpt lat="43.4680468" lon="11.1170753"><ele>152.2</ele><time>2026-04-19T07:42:47.65Z</time></trkpt><trkpt lat="43.4680399" lon="11.1171793"><ele>149.8</ele><time>2026-04-19T07:42:48.651Z</time></trkpt><trkpt lat="43.4680367" lon="11.1173454"><ele>147.4</ele><time>2026-04-19T07:42:50.658Z</time></trkpt><trkpt lat="43.4680588" lon="11.1174881"><ele>145.0</ele><time>2026-04-19T07:42:52.655Z</time></trkpt><trkpt lat="43.4681273" lon="11.117565"><ele>145.0</ele><time>2026-04-19T07:42:54.654Z</time></trkpt><trkpt lat="43.4681961" lon="11.117543"><ele>145.0</ele><time>2026-04-19T07:42:55.658Z</time></trkpt><trkpt lat="43.4682714" lon="11.1174684"><ele>145.0</ele><time>2026-04-19T07:42:56.653Z</time></trkpt><trkpt lat="43.4683545" lon="11.1173924"><ele>145.0</ele><time>2026-04-19T07:42:57.652Z</time></trkpt><trkpt lat="43.4684417" lon="11.1173201"><ele>145.0</ele><time>2026-04-19T07:42:58.638Z</time></trkpt><trkpt lat="43.4685363" lon="11.1172601"><ele>145.0</ele><time>2026-04-19T07:42:59.647Z</time></trkpt><trkpt lat="43.4686233" lon="11.1172146"><ele>145.0</ele><time>2026-04-19T07:43:00.65Z</time></trkpt><trkpt lat="43.4687083" lon="11.1171975"><ele>145.0</ele><time>2026-04-19T07:43:01.655Z</time></trkpt><trkpt lat="43.4687967" lon="11.1171916"><ele>145.0</ele><time>2026-04-19T07:43:02.647Z</time></trkpt><trkpt lat="43.4688856" lon="11.1171786"><ele>145.0</ele><time>2026-04-19T07:43:03.63Z</time></trkpt><trkpt lat="43.4689765" lon="11.1171692"><ele>145.0</ele><time>2026-04-19T07:43:04.652Z</time></trkpt><trkpt lat="43.4690647" lon="11.1171424"><ele>143.5</ele><time>2026-04-19T07:43:05.664Z</time></trkpt><trkpt lat="43.4691388" lon="11.1171115"><ele>142.0</ele><time>2026-04-19T07:43:06.636Z</time></trkpt><trkpt lat="43.469208" lon="11.11705"><ele>140.5</ele><time>2026-04-19T07:43:07.653Z</time></trkpt><trkpt lat="43.4692773" lon="11.1169563"><ele>139.0</ele><time>2026-04-19T07:43:08.658Z</time></trkpt><trkpt lat="43.4693381" lon="11.1168693"><ele>137.5</ele><time>2026-04-19T07:43:09.661Z</time></trkpt><trkpt lat="43.4694011" lon="11.1167929"><ele>136.0</ele><time>2026-04-19T07:43:10.651Z</time></trkpt><trkpt lat="43.4694602" lon="11.116751"><ele>135.99999999999997</ele><time>2026-04-19T07:43:11.627Z</time></trkpt><trkpt lat="43.4695244" lon="11.1167585"><ele>136.0</ele><time>2026-04-19T07:43:12.651Z</time></trkpt><trkpt lat="43.4695846" lon="11.1167901"><ele>136.0</ele><time>2026-04-19T07:43:13.647Z</time></trkpt><trkpt lat="43.469638" lon="11.1168437"><ele>136.0</ele><time>2026-04-19T07:43:14.644Z</time></trkpt><trkpt lat="43.4696832" lon="11.1169069"><ele>136.0</ele><time>2026-04-19T07:43:15.641Z</time></trkpt><trkpt lat="43.4697128" lon="11.1169895"><ele>135.99999999999997</ele><time>2026-04-19T07:43:16.643Z</time></trkpt><trkpt lat="43.46974" lon="11.1170957"><ele>136.0</ele><time>2026-04-19T07:43:17.652Z</time></trkpt><trkpt lat="43.4697758" lon="11.1172229"><ele>136.8</ele><time>2026-04-19T07:43:18.642Z</time></trkpt><trkpt lat="43.4698324" lon="11.1173369"><ele>137.6</ele><time>2026-04-19T07:43:19.626Z</time></trkpt><trkpt lat="43.4698894" lon="11.1174378"><ele>138.4</ele><time>2026-04-19T07:43:20.628Z</time></trkpt><trkpt lat="43.4699289" lon="11.1175228"><ele>139.2</ele><time>2026-04-19T07:43:21.65Z</time></trkpt><trkpt lat="43.4699731" lon="11.1176857"><ele>140.0</ele><time>2026-04-19T07:43:23.649Z</time></trkpt><trkpt lat="43.4699657" lon="11.1177894"><ele>140.0</ele><time>2026-04-19T07:43:24.649Z</time></trkpt><trkpt lat="43.4699473" lon="11.117901"><ele>140.0</ele><time>2026-04-19T07:43:25.644Z</time></trkpt><trkpt lat="43.4699487" lon="11.1180253"><ele>140.0</ele><time>2026-04-19T07:43:26.628Z</time></trkpt><trkpt lat="43.4699816" lon="11.1181396"><ele>140.0</ele><time>2026-04-19T07:43:27.651Z</time></trkpt><trkpt lat="43.470037" lon="11.1182123"><ele>140.0</ele><time>2026-04-19T07:43:28.653Z</time></trkpt><trkpt lat="43.4700983" lon="11.1182787"><ele>140.0</ele><time>2026-04-19T07:43:29.645Z</time></trkpt><trkpt lat="43.4701663" lon="11.118304"><ele>138.0</ele><time>2026-04-19T07:43:30.655Z</time></trkpt><trkpt lat="43.4702407" lon="11.1183008"><ele>136.0</ele><time>2026-04-19T07:43:31.643Z</time></trkpt><trkpt lat="43.4703283" lon="11.1182782"><ele>134.0</ele><time>2026-04-19T07:43:32.645Z</time></trkpt><trkpt lat="43.4704219" lon="11.1182512"><ele>132.0</ele><time>2026-04-19T07:43:33.647Z</time></trkpt><trkpt lat="43.4705155" lon="11.1182335"><ele>130.0</ele><time>2026-04-19T07:43:34.667Z</time></trkpt><trkpt lat="43.4706109" lon="11.1182258"><ele>128.0</ele><time>2026-04-19T07:43:35.65Z</time></trkpt><trkpt lat="43.4707107" lon="11.118222"><ele>127.60000000000001</ele><time>2026-04-19T07:43:36.646Z</time></trkpt><trkpt lat="43.4708148" lon="11.1182298"><ele>127.20000000000002</ele><time>2026-04-19T07:43:37.656Z</time></trkpt><trkpt lat="43.4709246" lon="11.1182351"><ele>126.8</ele><time>2026-04-19T07:43:38.665Z</time></trkpt><trkpt lat="43.4710385" lon="11.1182478"><ele>126.4</ele><time>2026-04-19T07:43:39.658Z</time></trkpt><trkpt lat="43.4711572" lon="11.1182659"><ele>126.0</ele><time>2026-04-19T07:43:40.632Z</time></trkpt><trkpt lat="43.4712779" lon="11.1182899"><ele>125.6</ele><time>2026-04-19T07:43:41.634Z</time></trkpt><trkpt lat="43.4713891" lon="11.1183105"><ele>125.19999999999999</ele><time>2026-04-19T07:43:42.66Z</time></trkpt><trkpt lat="43.4714947" lon="11.1183283"><ele>124.80000000000001</ele><time>2026-04-19T07:43:43.647Z</time></trkpt><trkpt lat="43.471589" lon="11.1183559"><ele>124.4</ele><time>2026-04-19T07:43:44.651Z</time></trkpt><trkpt lat="43.4716812" lon="11.1183822"><ele>124.0</ele><time>2026-04-19T07:43:45.633Z</time></trkpt><trkpt lat="43.4717737" lon="11.1184087"><ele>124.0</ele><time>2026-04-19T07:43:46.659Z</time></trkpt><trkpt lat="43.471869" lon="11.1184433"><ele>124.0</ele><time>2026-04-19T07:43:47.645Z</time></trkpt><trkpt lat="43.4719643" lon="11.1184856"><ele>124.0</ele><time>2026-04-19T07:43:48.641Z</time></trkpt><trkpt lat="43.4720524" lon="11.1185476"><ele>124.0</ele><time>2026-04-19T07:43:49.649Z</time></trkpt><trkpt lat="43.4721375" lon="11.118608"><ele>124.0</ele><time>2026-04-19T07:43:50.65Z</time></trkpt><trkpt lat="43.4722153" lon="11.1186717"><ele>121.66666666666667</ele><time>2026-04-19T07:43:51.657Z</time></trkpt><trkpt lat="43.4722792" lon="11.1187505"><ele>119.33333333333334</ele><time>2026-04-19T07:43:52.649Z</time></trkpt><trkpt lat="43.4723292" lon="11.1188329"><ele>117.0</ele><time>2026-04-19T07:43:53.647Z</time></trkpt><trkpt lat="43.4723631" lon="11.1189316"><ele>114.66666666666666</ele><time>2026-04-19T07:43:54.652Z</time></trkpt><trkpt lat="43.4723935" lon="11.119045"><ele>112.33333333333333</ele><time>2026-04-19T07:43:55.656Z</time></trkpt><trkpt lat="43.4724155" lon="11.1191696"><ele>110.0</ele><time>2026-04-19T07:43:56.657Z</time></trkpt><trkpt lat="43.4724387" lon="11.1192908"><ele>110.0</ele><time>2026-04-19T07:43:57.644Z</time></trkpt><trkpt lat="43.4724676" lon="11.1194187"><ele>110.0</ele><time>2026-04-19T07:43:58.637Z</time></trkpt><trkpt lat="43.4724989" lon="11.1195302"><ele>110.0</ele><time>2026-04-19T07:43:59.647Z</time></trkpt><trkpt lat="43.4725385" lon="11.1196436"><ele>110.0</ele><time>2026-04-19T07:44:00.647Z</time></trkpt><trkpt lat="43.4725752" lon="11.1197536"><ele>110.0</ele><time>2026-04-19T07:44:01.644Z</time></trkpt><trkpt lat="43.4726223" lon="11.1198581"><ele>107.66666666666666</ele><time>2026-04-19T07:44:02.641Z</time></trkpt><trkpt lat="43.4726673" lon="11.1199603"><ele>105.33333333333333</ele><time>2026-04-19T07:44:03.661Z</time></trkpt><trkpt lat="43.4727022" lon="11.1200413"><ele>103.0</ele><time>2026-04-19T07:44:04.647Z</time></trkpt><trkpt lat="43.4727361" lon="11.1201168"><ele>100.66666666666666</ele><time>2026-04-19T07:44:05.646Z</time></trkpt><trkpt lat="43.4727957" lon="11.1202606"><ele>98.33333333333333</ele><time>2026-04-19T07:44:07.649Z</time></trkpt><trkpt lat="43.4728131" lon="11.1203517"><ele>96.0</ele><time>2026-04-19T07:44:08.648Z</time></trkpt><trkpt lat="43.4728131" lon="11.1204665"><ele>96.0</ele><time>2026-04-19T07:44:09.656Z</time></trkpt><trkpt lat="43.4728064" lon="11.1205983"><ele>96.0</ele><time>2026-04-19T07:44:10.667Z</time></trkpt><trkpt lat="43.472809" lon="11.1207481"><ele>96.0</ele><time>2026-04-19T07:44:11.63Z</time></trkpt><trkpt lat="43.4728101" lon="11.1209091"><ele>96.0</ele><time>2026-04-19T07:44:12.655Z</time></trkpt><trkpt lat="43.472809" lon="11.1210802"><ele>96.0</ele><time>2026-04-19T07:44:13.645Z</time></trkpt><trkpt lat="43.4727982" lon="11.1212584"><ele>94.75</ele><time>2026-04-19T07:44:14.649Z</time></trkpt><trkpt lat="43.4727783" lon="11.121432"><ele>93.5</ele><time>2026-04-19T07:44:15.643Z</time></trkpt><trkpt lat="43.4727477" lon="11.1215985"><ele>92.25</ele><time>2026-04-19T07:44:16.634Z</time></trkpt><trkpt lat="43.4726992" lon="11.121755"><ele>91.0</ele><time>2026-04-19T07:44:17.648Z</time></trkpt><trkpt lat="43.4726438" lon="11.121894"><ele>91.0</ele><time>2026-04-19T07:44:18.648Z</time></trkpt><trkpt lat="43.4725815" lon="11.1220145"><ele>91.0</ele><time>2026-04-19T07:44:19.65Z</time></trkpt><trkpt lat="43.472517" lon="11.122142"><ele>91.0</ele><time>2026-04-19T07:44:20.647Z</time></trkpt><trkpt lat="43.4724443" lon="11.1222643"><ele>91.0</ele><time>2026-04-19T07:44:21.642Z</time></trkpt><trkpt lat="43.4723654" lon="11.122392"><ele>90.75</ele><time>2026-04-19T07:44:22.648Z</time></trkpt><trkpt lat="43.4722711" lon="11.1225056"><ele>90.5</ele><time>2026-04-19T07:44:23.648Z</time></trkpt><trkpt lat="43.4721599" lon="11.1225936"><ele>90.25</ele><time>2026-04-19T07:44:24.651Z</time></trkpt><trkpt lat="43.4720431" lon="11.1226579"><ele>90.0</ele><time>2026-04-19T07:44:25.643Z</time></trkpt><trkpt lat="43.4719243" lon="11.12272"><ele>90.0</ele><time>2026-04-19T07:44:26.658Z</time></trkpt><trkpt lat="43.4718051" lon="11.1227845"><ele>90.0</ele><time>2026-04-19T07:44:27.626Z</time></trkpt><trkpt lat="43.4716885" lon="11.1228651"><ele>90.0</ele><time>2026-04-19T07:44:28.639Z</time></trkpt><trkpt lat="43.4715714" lon="11.1229517"><ele>90.0</ele><time>2026-04-19T07:44:29.649Z</time></trkpt><trkpt lat="43.4714642" lon="11.1230672"><ele>90.0</ele><time>2026-04-19T07:44:30.647Z</time></trkpt><trkpt lat="43.471376" lon="11.1232015"><ele>90.0</ele><time>2026-04-19T07:44:31.64Z</time></trkpt><trkpt lat="43.4712895" lon="11.1233475"><ele>90.0</ele><time>2026-04-19T07:44:32.644Z</time></trkpt><trkpt lat="43.4712021" lon="11.1235032"><ele>90.0</ele><time>2026-04-19T07:44:33.648Z</time></trkpt><trkpt lat="43.4711171" lon="11.1236596"><ele>90.25</ele><time>2026-04-19T07:44:34.639Z</time></trkpt><trkpt lat="43.4710348" lon="11.1238229"><ele>90.5</ele><time>2026-04-19T07:44:35.648Z</time></trkpt><trkpt lat="43.4709554" lon="11.1239835"><ele>90.75</ele><time>2026-04-19T07:44:36.648Z</time></trkpt><trkpt lat="43.4708701" lon="11.1241528"><ele>91.0</ele><time>2026-04-19T07:44:37.659Z</time></trkpt><trkpt lat="43.4707845" lon="11.1243296"><ele>91.0</ele><time>2026-04-19T07:44:38.644Z</time></trkpt><trkpt lat="43.4707071" lon="11.1245208"><ele>91.0</ele><time>2026-04-19T07:44:39.64Z</time></trkpt><trkpt lat="43.4706349" lon="11.1247216"><ele>91.0</ele><time>2026-04-19T07:44:40.655Z</time></trkpt><trkpt lat="43.4705639" lon="11.1249115"><ele>91.0</ele><time>2026-04-19T07:44:41.655Z</time></trkpt><trkpt lat="43.4704996" lon="11.1251036"><ele>91.0</ele><time>2026-04-19T07:44:42.632Z</time></trkpt><trkpt lat="43.4704364" lon="11.1252976"><ele>91.0</ele><time>2026-04-19T07:44:43.648Z</time></trkpt><trkpt lat="43.4703724" lon="11.1254872"><ele>91.33333333333333</ele><time>2026-04-19T07:44:44.659Z</time></trkpt><trkpt lat="43.4703061" lon="11.1256805"><ele>91.66666666666667</ele><time>2026-04-19T07:44:45.65Z</time></trkpt><trkpt lat="43.4702395" lon="11.1258737"><ele>92.0</ele><time>2026-04-19T07:44:46.66Z</time></trkpt><trkpt lat="43.4701748" lon="11.1260699"><ele>92.25</ele><time>2026-04-19T07:44:47.644Z</time></trkpt><trkpt lat="43.4701137" lon="11.1262673"><ele>92.5</ele><time>2026-04-19T07:44:48.648Z</time></trkpt><trkpt lat="43.4700603" lon="11.1264589"><ele>92.75</ele><time>2026-04-19T07:44:49.642Z</time></trkpt><trkpt lat="43.4700197" lon="11.1266232"><ele>93.0</ele><time>2026-04-19T07:44:50.646Z</time></trkpt><trkpt lat="43.4699787" lon="11.1267593"><ele>93.4</ele><time>2026-04-19T07:44:51.633Z</time></trkpt><trkpt lat="43.46994" lon="11.1268689"><ele>93.80000000000001</ele><time>2026-04-19T07:44:52.649Z</time></trkpt><trkpt lat="43.4698936" lon="11.1269305"><ele>94.2</ele><time>2026-04-19T07:44:53.648Z</time></trkpt><trkpt lat="43.4697636" lon="11.1269439"><ele>94.6</ele><time>2026-04-19T07:44:55.646Z</time></trkpt><trkpt lat="43.4696851" lon="11.1269241"><ele>95.0</ele><time>2026-04-19T07:44:56.644Z</time></trkpt><trkpt lat="43.4695993" lon="11.1269542"><ele>95.0</ele><time>2026-04-19T07:44:58.647Z</time></trkpt><trkpt lat="43.4695729" lon="11.1270746"><ele>95.0</ele><time>2026-04-19T07:45:01.65Z</time></trkpt><trkpt lat="43.4696034" lon="11.1271982"><ele>95.0</ele><time>2026-04-19T07:45:03.643Z</time></trkpt><trkpt lat="43.4696483" lon="11.1272889"><ele>95.0</ele><time>2026-04-19T07:45:04.643Z</time></trkpt><trkpt lat="43.4697182" lon="11.1273862"><ele>95.0</ele><time>2026-04-19T07:45:05.656Z</time></trkpt><trkpt lat="43.4697922" lon="11.1275129"><ele>95.0</ele><time>2026-04-19T07:45:06.657Z</time></trkpt><trkpt lat="43.4698803" lon="11.1276261"><ele>95.0</ele><time>2026-04-19T07:45:07.642Z</time></trkpt><trkpt lat="43.4699526" lon="11.1277339"><ele>95.0</ele><time>2026-04-19T07:45:08.657Z</time></trkpt><trkpt lat="43.4700164" lon="11.1278383"><ele>95.0</ele><time>2026-04-19T07:45:09.647Z</time></trkpt><trkpt lat="43.4700762" lon="11.1279351"><ele>95.0</ele><time>2026-04-19T07:45:10.658Z</time></trkpt><trkpt lat="43.4701297" lon="11.128011"><ele>95.0</ele><time>2026-04-19T07:45:11.652Z</time></trkpt><trkpt lat="43.470198" lon="11.1281328"><ele>95.0</ele><time>2026-04-19T07:45:13.661Z</time></trkpt><trkpt lat="43.47022" lon="11.1282434"><ele>95.0</ele><time>2026-04-19T07:45:15.657Z</time></trkpt><trkpt lat="43.4702463" lon="11.1283918"><ele>95.0</ele><time>2026-04-19T07:45:17.649Z</time></trkpt><trkpt lat="43.4702848" lon="11.1284609"><ele>95.0</ele><time>2026-04-19T07:45:18.657Z</time></trkpt><trkpt lat="43.4703427" lon="11.1285057"><ele>95.0</ele><time>2026-04-19T07:45:19.659Z</time></trkpt><trkpt lat="43.4704155" lon="11.1285398"><ele>94.6</ele><time>2026-04-19T07:45:20.657Z</time></trkpt><trkpt lat="43.4704963" lon="11.1285287"><ele>94.2</ele><time>2026-04-19T07:45:21.628Z</time></trkpt><trkpt lat="43.47058" lon="11.1285152"><ele>93.80000000000001</ele><time>2026-04-19T07:45:22.627Z</time></trkpt><trkpt lat="43.4706695" lon="11.1285117"><ele>93.4</ele><time>2026-04-19T07:45:23.649Z</time></trkpt><trkpt lat="43.4707638" lon="11.1285168"><ele>93.0</ele><time>2026-04-19T07:45:24.657Z</time></trkpt><trkpt lat="43.4708639" lon="11.128553"><ele>93.0</ele><time>2026-04-19T07:45:25.648Z</time></trkpt><trkpt lat="43.4709666" lon="11.1286178"><ele>93.0</ele><time>2026-04-19T07:45:26.64Z</time></trkpt><trkpt lat="43.47107" lon="11.1286795"><ele>93.0</ele><time>2026-04-19T07:45:27.65Z</time></trkpt><trkpt lat="43.4711883" lon="11.1287555"><ele>93.0</ele><time>2026-04-19T07:45:28.655Z</time></trkpt><trkpt lat="43.4713153" lon="11.1288253"><ele>92.0</ele><time>2026-04-19T07:45:29.651Z</time></trkpt><trkpt lat="43.4714412" lon="11.12889"><ele>91.0</ele><time>2026-04-19T07:45:30.66Z</time></trkpt><trkpt lat="43.4715584" lon="11.1289573"><ele>90.0</ele><time>2026-04-19T07:45:31.648Z</time></trkpt><trkpt lat="43.47168" lon="11.12902"><ele>89.0</ele><time>2026-04-19T07:45:32.648Z</time></trkpt><trkpt lat="43.4717979" lon="11.1290839"><ele>88.5</ele><time>2026-04-19T07:45:33.653Z</time></trkpt><trkpt lat="43.4719237" lon="11.1291478"><ele>88.0</ele><time>2026-04-19T07:45:34.652Z</time></trkpt><trkpt lat="43.4720514" lon="11.1292076"><ele>87.5</ele><time>2026-04-19T07:45:35.659Z</time></trkpt><trkpt lat="43.4721868" lon="11.1292529"><ele>87.0</ele><time>2026-04-19T07:45:36.652Z</time></trkpt><trkpt lat="43.472337" lon="11.1292875"><ele>87.0</ele><time>2026-04-19T07:45:37.655Z</time></trkpt><trkpt lat="43.4724899" lon="11.1293165"><ele>87.0</ele><time>2026-04-19T07:45:38.661Z</time></trkpt><trkpt lat="43.4726483" lon="11.1293529"><ele>87.0</ele><time>2026-04-19T07:45:39.65Z</time></trkpt><trkpt lat="43.4728055" lon="11.129391"><ele>87.0</ele><time>2026-04-19T07:45:40.666Z</time></trkpt><trkpt lat="43.4729632" lon="11.1294276"><ele>87.0</ele><time>2026-04-19T07:45:41.648Z</time></trkpt><trkpt lat="43.4731205" lon="11.1294515"><ele>87.0</ele><time>2026-04-19T07:45:42.648Z</time></trkpt><trkpt lat="43.4732778" lon="11.129479"><ele>87.0</ele><time>2026-04-19T07:45:43.65Z</time></trkpt><trkpt lat="43.4734353" lon="11.1295015"><ele>87.0</ele><time>2026-04-19T07:45:44.664Z</time></trkpt><trkpt lat="43.473592" lon="11.1295328"><ele>87.0</ele><time>2026-04-19T07:45:45.656Z</time></trkpt><trkpt lat="43.4737501" lon="11.129558"><ele>87.0</ele><time>2026-04-19T07:45:46.634Z</time></trkpt><trkpt lat="43.4738993" lon="11.1295813"><ele>87.0</ele><time>2026-04-19T07:45:47.652Z</time></trkpt><trkpt lat="43.4740454" lon="11.1296113"><ele>87.0</ele><time>2026-04-19T07:45:48.652Z</time></trkpt><trkpt lat="43.4741938" lon="11.1296344"><ele>87.0</ele><time>2026-04-19T07:45:49.653Z</time></trkpt><trkpt lat="43.4743407" lon="11.129657"><ele>87.0</ele><time>2026-04-19T07:45:50.634Z</time></trkpt><trkpt lat="43.4744915" lon="11.1296844"><ele>87.0</ele><time>2026-04-19T07:45:51.633Z</time></trkpt><trkpt lat="43.4746464" lon="11.1297085"><ele>87.0</ele><time>2026-04-19T07:45:52.643Z</time></trkpt><trkpt lat="43.4747992" lon="11.1297321"><ele>87.33333333333333</ele><time>2026-04-19T07:45:53.654Z</time></trkpt><trkpt lat="43.4749501" lon="11.1297593"><ele>87.66666666666666</ele><time>2026-04-19T07:45:54.664Z</time></trkpt><trkpt lat="43.4751029" lon="11.1297858"><ele>88.0</ele><time>2026-04-19T07:45:55.637Z</time></trkpt><trkpt lat="43.47525" lon="11.1298143"><ele>88.0</ele><time>2026-04-19T07:45:56.65Z</time></trkpt><trkpt lat="43.4753918" lon="11.1298417"><ele>88.0</ele><time>2026-04-19T07:45:57.658Z</time></trkpt><trkpt lat="43.4755313" lon="11.1298664"><ele>88.0</ele><time>2026-04-19T07:45:58.653Z</time></trkpt><trkpt lat="43.475654" lon="11.1298923"><ele>88.0</ele><time>2026-04-19T07:45:59.65Z</time></trkpt><trkpt lat="43.475767" lon="11.1299173"><ele>88.0</ele><time>2026-04-19T07:46:00.654Z</time></trkpt><trkpt lat="43.4758762" lon="11.1299393"><ele>88.0</ele><time>2026-04-19T07:46:01.649Z</time></trkpt><trkpt lat="43.4759793" lon="11.1299659"><ele>88.0</ele><time>2026-04-19T07:46:02.647Z</time></trkpt><trkpt lat="43.4760763" lon="11.1299908"><ele>88.0</ele><time>2026-04-19T07:46:03.649Z</time></trkpt><trkpt lat="43.476169" lon="11.1300224"><ele>88.0</ele><time>2026-04-19T07:46:04.647Z</time></trkpt><trkpt lat="43.4762492" lon="11.1300544"><ele>88.2</ele><time>2026-04-19T07:46:05.643Z</time></trkpt><trkpt lat="43.4763353" lon="11.1300851"><ele>88.4</ele><time>2026-04-19T07:46:06.648Z</time></trkpt><trkpt lat="43.476428" lon="11.1301197"><ele>88.60000000000001</ele><time>2026-04-19T07:46:07.646Z</time></trkpt><trkpt lat="43.4765217" lon="11.1301517"><ele>88.80000000000001</ele><time>2026-04-19T07:46:08.65Z</time></trkpt><trkpt lat="43.4766109" lon="11.1301808"><ele>89.0</ele><time>2026-04-19T07:46:09.649Z</time></trkpt><trkpt lat="43.4766958" lon="11.1301975"><ele>89.0</ele><time>2026-04-19T07:46:10.652Z</time></trkpt><trkpt lat="43.476773" lon="11.1302022"><ele>89.0</ele><time>2026-04-19T07:46:11.636Z</time></trkpt><trkpt lat="43.4768445" lon="11.1302064"><ele>89.0</ele><time>2026-04-19T07:46:12.667Z</time></trkpt><trkpt lat="43.4769162" lon="11.1302059"><ele>89.0</ele><time>2026-04-19T07:46:13.655Z</time></trkpt><trkpt lat="43.4770007" lon="11.1302034"><ele>89.0</ele><time>2026-04-19T07:46:14.63Z</time></trkpt><trkpt lat="43.4770869" lon="11.1302052"><ele>89.0</ele><time>2026-04-19T07:46:15.651Z</time></trkpt><trkpt lat="43.4771801" lon="11.1302057"><ele>88.66666666666667</ele><time>2026-04-19T07:46:16.656Z</time></trkpt><trkpt lat="43.4772775" lon="11.1302133"><ele>88.33333333333334</ele><time>2026-04-19T07:46:17.655Z</time></trkpt><trkpt lat="43.4773695" lon="11.1302204"><ele>88.0</ele><time>2026-04-19T07:46:18.65Z</time></trkpt><trkpt lat="43.4774507" lon="11.1302322"><ele>87.66666666666667</ele><time>2026-04-19T07:46:19.656Z</time></trkpt><trkpt lat="43.4775319" lon="11.1302455"><ele>87.33333333333333</ele><time>2026-04-19T07:46:20.651Z</time></trkpt><trkpt lat="43.4776158" lon="11.1302622"><ele>87.0</ele><time>2026-04-19T07:46:21.66Z</time></trkpt><trkpt lat="43.4777007" lon="11.1302812"><ele>87.0</ele><time>2026-04-19T07:46:22.649Z</time></trkpt><trkpt lat="43.4777821" lon="11.1303096"><ele>87.0</ele><time>2026-04-19T07:46:23.639Z</time></trkpt><trkpt lat="43.4778541" lon="11.1303471"><ele>87.0</ele><time>2026-04-19T07:46:24.642Z</time></trkpt><trkpt lat="43.4779201" lon="11.1303932"><ele>87.0</ele><time>2026-04-19T07:46:25.654Z</time></trkpt><trkpt lat="43.4780082" lon="11.1305036"><ele>87.0</ele><time>2026-04-19T07:46:27.673Z</time></trkpt><trkpt lat="43.4780568" lon="11.1305725"><ele>87.0</ele><time>2026-04-19T07:46:28.645Z</time></trkpt><trkpt lat="43.4781218" lon="11.1306515"><ele>87.16666666666667</ele><time>2026-04-19T07:46:29.656Z</time></trkpt><trkpt lat="43.4781978" lon="11.1307101"><ele>87.33333333333333</ele><time>2026-04-19T07:46:30.661Z</time></trkpt><trkpt lat="43.4782861" lon="11.1307513"><ele>87.5</ele><time>2026-04-19T07:46:31.642Z</time></trkpt><trkpt lat="43.4783763" lon="11.1307702"><ele>87.66666666666666</ele><time>2026-04-19T07:46:32.669Z</time></trkpt><trkpt lat="43.4784529" lon="11.130725"><ele>87.83333333333333</ele><time>2026-04-19T07:46:33.63Z</time></trkpt><trkpt lat="43.4785128" lon="11.1306522"><ele>88.0</ele><time>2026-04-19T07:46:34.65Z</time></trkpt><trkpt lat="43.4785484" lon="11.1305772"><ele>88.0</ele><time>2026-04-19T07:46:35.647Z</time></trkpt><trkpt lat="43.4785713" lon="11.1304871"><ele>88.0</ele><time>2026-04-19T07:46:36.657Z</time></trkpt><trkpt lat="43.4785777" lon="11.1303822"><ele>88.0</ele><time>2026-04-19T07:46:37.633Z</time></trkpt><trkpt lat="43.47857" lon="11.1302802"><ele>88.0</ele><time>2026-04-19T07:46:38.634Z</time></trkpt><trkpt lat="43.4785554" lon="11.1301879"><ele>88.0</ele><time>2026-04-19T07:46:39.646Z</time></trkpt><trkpt lat="43.4785429" lon="11.1300785"><ele>88.0</ele><time>2026-04-19T07:46:40.656Z</time></trkpt><trkpt lat="43.4785474" lon="11.1299473"><ele>88.25</ele><time>2026-04-19T07:46:41.655Z</time></trkpt><trkpt lat="43.4785747" lon="11.129825"><ele>88.5</ele><time>2026-04-19T07:46:42.657Z</time></trkpt><trkpt lat="43.4786338" lon="11.1296891"><ele>88.75</ele><time>2026-04-19T07:46:43.634Z</time></trkpt><trkpt lat="43.4787259" lon="11.1295414"><ele>89.0</ele><time>2026-04-19T07:46:44.652Z</time></trkpt><trkpt lat="43.4788176" lon="11.1293974"><ele>89.0</ele><time>2026-04-19T07:46:45.633Z</time></trkpt><trkpt lat="43.4789039" lon="11.1292538"><ele>89.0</ele><time>2026-04-19T07:46:46.67Z</time></trkpt><trkpt lat="43.4789879" lon="11.1291081"><ele>89.0</ele><time>2026-04-19T07:46:47.643Z</time></trkpt><trkpt lat="43.4790679" lon="11.1289544"><ele>89.0</ele><time>2026-04-19T07:46:48.649Z</time></trkpt><trkpt lat="43.4791501" lon="11.1287947"><ele>89.0</ele><time>2026-04-19T07:46:49.662Z</time></trkpt><trkpt lat="43.479241" lon="11.1286268"><ele>89.0</ele><time>2026-04-19T07:46:50.652Z</time></trkpt><trkpt lat="43.4793332" lon="11.1284513"><ele>89.0</ele><time>2026-04-19T07:46:51.647Z</time></trkpt><trkpt lat="43.4794209" lon="11.1282769"><ele>89.0</ele><time>2026-04-19T07:46:52.65Z</time></trkpt><trkpt lat="43.4795113" lon="11.1280972"><ele>89.0</ele><time>2026-04-19T07:46:53.656Z</time></trkpt><trkpt lat="43.4796068" lon="11.1279151"><ele>89.0</ele><time>2026-04-19T07:46:54.652Z</time></trkpt><trkpt lat="43.4797035" lon="11.1277284"><ele>89.0</ele><time>2026-04-19T07:46:55.645Z</time></trkpt><trkpt lat="43.4798085" lon="11.1275397"><ele>89.0</ele><time>2026-04-19T07:46:56.655Z</time></trkpt><trkpt lat="43.4799223" lon="11.1273667"><ele>89.0</ele><time>2026-04-19T07:46:57.646Z</time></trkpt><trkpt lat="43.4800453" lon="11.1272039"><ele>88.33333333333334</ele><time>2026-04-19T07:46:58.662Z</time></trkpt><trkpt lat="43.4801792" lon="11.1270677"><ele>87.66666666666667</ele><time>2026-04-19T07:46:59.647Z</time></trkpt><trkpt lat="43.4803185" lon="11.126951"><ele>87.0</ele><time>2026-04-19T07:47:00.664Z</time></trkpt><trkpt lat="43.4804616" lon="11.1268537"><ele>87.0</ele><time>2026-04-19T07:47:01.649Z</time></trkpt><trkpt lat="43.4805994" lon="11.1267918"><ele>87.0</ele><time>2026-04-19T07:47:02.648Z</time></trkpt><trkpt lat="43.4807324" lon="11.1267417"><ele>87.0</ele><time>2026-04-19T07:47:03.652Z</time></trkpt><trkpt lat="43.4808652" lon="11.1267004"><ele>87.0</ele><time>2026-04-19T07:47:04.664Z</time></trkpt><trkpt lat="43.4810026" lon="11.1266641"><ele>87.0</ele><time>2026-04-19T07:47:05.657Z</time></trkpt><trkpt lat="43.4811383" lon="11.1266367"><ele>87.0</ele><time>2026-04-19T07:47:06.656Z</time></trkpt><trkpt lat="43.4812714" lon="11.1266278"><ele>87.0</ele><time>2026-04-19T07:47:07.658Z</time></trkpt><trkpt lat="43.4813961" lon="11.1266263"><ele>87.0</ele><time>2026-04-19T07:47:08.644Z</time></trkpt><trkpt lat="43.4815081" lon="11.1266373"><ele>87.19999999999999</ele><time>2026-04-19T07:47:09.653Z</time></trkpt><trkpt lat="43.4816151" lon="11.126645"><ele>87.4</ele><time>2026-04-19T07:47:10.664Z</time></trkpt><trkpt lat="43.4817139" lon="11.1266502"><ele>87.6</ele><time>2026-04-19T07:47:11.649Z</time></trkpt><trkpt lat="43.4818036" lon="11.1266651"><ele>87.80000000000001</ele><time>2026-04-19T07:47:12.636Z</time></trkpt><trkpt lat="43.4818855" lon="11.1267051"><ele>88.0</ele><time>2026-04-19T07:47:13.634Z</time></trkpt><trkpt lat="43.4819593" lon="11.12678"><ele>88.0</ele><time>2026-04-19T07:47:14.655Z</time></trkpt><trkpt lat="43.4820287" lon="11.1268703"><ele>88.0</ele><time>2026-04-19T07:47:15.63Z</time></trkpt><trkpt lat="43.4820937" lon="11.1269828"><ele>88.0</ele><time>2026-04-19T07:47:16.651Z</time></trkpt><trkpt lat="43.4821446" lon="11.127114"><ele>88.0</ele><time>2026-04-19T07:47:17.659Z</time></trkpt><trkpt lat="43.4821849" lon="11.1272652"><ele>88.0</ele><time>2026-04-19T07:47:18.632Z</time></trkpt><trkpt lat="43.4822071" lon="11.1274388"><ele>87.25</ele><time>2026-04-19T07:47:19.634Z</time></trkpt><trkpt lat="43.4822144" lon="11.1276232"><ele>86.5</ele><time>2026-04-19T07:47:20.648Z</time></trkpt><trkpt lat="43.4822178" lon="11.1278233"><ele>85.75</ele><time>2026-04-19T07:47:21.653Z</time></trkpt><trkpt lat="43.4822235" lon="11.1280201"><ele>85.0</ele><time>2026-04-19T07:47:22.663Z</time></trkpt><trkpt lat="43.4822359" lon="11.1282352"><ele>84.66666666666666</ele><time>2026-04-19T07:47:23.655Z</time></trkpt><trkpt lat="43.4822593" lon="11.1284482"><ele>84.33333333333333</ele><time>2026-04-19T07:47:24.663Z</time></trkpt><trkpt lat="43.4822735" lon="11.1286611"><ele>84.0</ele><time>2026-04-19T07:47:25.671Z</time></trkpt><trkpt lat="43.4822845" lon="11.1288701"><ele>85.0</ele><time>2026-04-19T07:47:26.659Z</time></trkpt><trkpt lat="43.4822978" lon="11.1290842"><ele>86.0</ele><time>2026-04-19T07:47:27.647Z</time></trkpt><trkpt lat="43.482311" lon="11.129293"><ele>87.0</ele><time>2026-04-19T07:47:28.664Z</time></trkpt><trkpt lat="43.4823204" lon="11.1295043"><ele>87.0</ele><time>2026-04-19T07:47:29.653Z</time></trkpt><trkpt lat="43.4823349" lon="11.1297178"><ele>87.0</ele><time>2026-04-19T07:47:30.646Z</time></trkpt><trkpt lat="43.4823525" lon="11.1299338"><ele>87.0</ele><time>2026-04-19T07:47:31.653Z</time></trkpt><trkpt lat="43.4823698" lon="11.1301524"><ele>88.0</ele><time>2026-04-19T07:47:32.655Z</time></trkpt><trkpt lat="43.4823827" lon="11.1303799"><ele>89.0</ele><time>2026-04-19T07:47:33.655Z</time></trkpt><trkpt lat="43.4823935" lon="11.1306123"><ele>90.0</ele><time>2026-04-19T07:47:34.652Z</time></trkpt><trkpt lat="43.4824058" lon="11.1308462"><ele>92.0</ele><time>2026-04-19T07:47:35.648Z</time></trkpt><trkpt lat="43.482416" lon="11.131088"><ele>94.0</ele><time>2026-04-19T07:47:36.638Z</time></trkpt><trkpt lat="43.4824272" lon="11.1313352"><ele>96.0</ele><time>2026-04-19T07:47:37.637Z</time></trkpt><trkpt lat="43.4824413" lon="11.1315839"><ele>96.66666666666666</ele><time>2026-04-19T07:47:38.657Z</time></trkpt><trkpt lat="43.4824574" lon="11.1318386"><ele>97.33333333333333</ele><time>2026-04-19T07:47:39.646Z</time></trkpt><trkpt lat="43.4824807" lon="11.1320981"><ele>98.0</ele><time>2026-04-19T07:47:40.648Z</time></trkpt><trkpt lat="43.4825027" lon="11.1323654"><ele>98.66666666666666</ele><time>2026-04-19T07:47:41.665Z</time></trkpt><trkpt lat="43.4825172" lon="11.1326357"><ele>99.33333333333334</ele><time>2026-04-19T07:47:42.646Z</time></trkpt><trkpt lat="43.4825314" lon="11.1329126"><ele>100.0</ele><time>2026-04-19T07:47:43.666Z</time></trkpt><trkpt lat="43.4825437" lon="11.133188"><ele>100.66666666666667</ele><time>2026-04-19T07:47:44.655Z</time></trkpt><trkpt lat="43.4825622" lon="11.1334689"><ele>101.33333333333334</ele><time>2026-04-19T07:47:45.634Z</time></trkpt><trkpt lat="43.4825793" lon="11.1337556"><ele>102.0</ele><time>2026-04-19T07:47:46.643Z</time></trkpt><trkpt lat="43.4825977" lon="11.1340406"><ele>102.66666666666666</ele><time>2026-04-19T07:47:47.655Z</time></trkpt><trkpt lat="43.4826128" lon="11.1343271"><ele>103.33333333333333</ele><time>2026-04-19T07:47:48.655Z</time></trkpt><trkpt lat="43.4826321" lon="11.1346138"><ele>104.0</ele><time>2026-04-19T07:47:49.635Z</time></trkpt><trkpt lat="43.4826498" lon="11.1348969"><ele>104.0</ele><time>2026-04-19T07:47:50.646Z</time></trkpt><trkpt lat="43.4826655" lon="11.1351759"><ele>104.0</ele><time>2026-04-19T07:47:51.653Z</time></trkpt><trkpt lat="43.4826852" lon="11.1354483"><ele>104.0</ele><time>2026-04-19T07:47:52.648Z</time></trkpt><trkpt lat="43.4827016" lon="11.1357272"><ele>104.0</ele><time>2026-04-19T07:47:53.659Z</time></trkpt><trkpt lat="43.4827241" lon="11.1360047"><ele>104.0</ele><time>2026-04-19T07:47:54.639Z</time></trkpt><trkpt lat="43.4827411" lon="11.1362838"><ele>104.0</ele><time>2026-04-19T07:47:55.653Z</time></trkpt><trkpt lat="43.4827586" lon="11.1365655"><ele>104.0</ele><time>2026-04-19T07:47:56.649Z</time></trkpt><trkpt lat="43.4827765" lon="11.1368507"><ele>104.0</ele><time>2026-04-19T07:47:57.642Z</time></trkpt><trkpt lat="43.4827899" lon="11.1371419"><ele>104.0</ele><time>2026-04-19T07:47:58.645Z</time></trkpt><trkpt lat="43.4828053" lon="11.1374398"><ele>103.66666666666666</ele><time>2026-04-19T07:47:59.661Z</time></trkpt><trkpt lat="43.4828176" lon="11.1377403"><ele>103.33333333333334</ele><time>2026-04-19T07:48:00.64Z</time></trkpt><trkpt lat="43.4828376" lon="11.1380415"><ele>103.0</ele><time>2026-04-19T07:48:01.647Z</time></trkpt><trkpt lat="43.4828599" lon="11.1383389"><ele>102.66666666666667</ele><time>2026-04-19T07:48:02.649Z</time></trkpt><trkpt lat="43.4828778" lon="11.1386317"><ele>102.33333333333334</ele><time>2026-04-19T07:48:03.646Z</time></trkpt><trkpt lat="43.4828953" lon="11.1389115"><ele>102.0</ele><time>2026-04-19T07:48:04.651Z</time></trkpt><trkpt lat="43.4829191" lon="11.1391995"><ele>103.0</ele><time>2026-04-19T07:48:05.654Z</time></trkpt><trkpt lat="43.4829505" lon="11.1394842"><ele>104.0</ele><time>2026-04-19T07:48:06.655Z</time></trkpt><trkpt lat="43.4829827" lon="11.1397527"><ele>105.0</ele><time>2026-04-19T07:48:07.643Z</time></trkpt><trkpt lat="43.4830278" lon="11.1400043"><ele>105.0</ele><time>2026-04-19T07:48:08.64Z</time></trkpt><trkpt lat="43.483079" lon="11.1402429"><ele>105.0</ele><time>2026-04-19T07:48:09.632Z</time></trkpt><trkpt lat="43.4831281" lon="11.1404699"><ele>105.0</ele><time>2026-04-19T07:48:10.654Z</time></trkpt><trkpt lat="43.4831847" lon="11.1406861"><ele>104.33333333333334</ele><time>2026-04-19T07:48:11.651Z</time></trkpt><trkpt lat="43.483238" lon="11.1408976"><ele>103.66666666666667</ele><time>2026-04-19T07:48:12.64Z</time></trkpt><trkpt lat="43.4832979" lon="11.1411066"><ele>103.0</ele><time>2026-04-19T07:48:13.652Z</time></trkpt><trkpt lat="43.4833654" lon="11.1413192"><ele>103.0</ele><time>2026-04-19T07:48:14.633Z</time></trkpt><trkpt lat="43.4834387" lon="11.1415243"><ele>103.0</ele><time>2026-04-19T07:48:15.642Z</time></trkpt><trkpt lat="43.4835135" lon="11.1417253"><ele>103.0</ele><time>2026-04-19T07:48:16.658Z</time></trkpt><trkpt lat="43.4835835" lon="11.1419186"><ele>102.66666666666667</ele><time>2026-04-19T07:48:17.65Z</time></trkpt><trkpt lat="43.4836579" lon="11.1421027"><ele>102.33333333333334</ele><time>2026-04-19T07:48:18.648Z</time></trkpt><trkpt lat="43.4837369" lon="11.1422842"><ele>102.0</ele><time>2026-04-19T07:48:19.629Z</time></trkpt><trkpt lat="43.4838214" lon="11.1424719"><ele>102.66666666666666</ele><time>2026-04-19T07:48:20.641Z</time></trkpt><trkpt lat="43.4839177" lon="11.1426583"><ele>103.33333333333333</ele><time>2026-04-19T07:48:21.644Z</time></trkpt><trkpt lat="43.4840172" lon="11.1428533"><ele>104.0</ele><time>2026-04-19T07:48:22.655Z</time></trkpt><trkpt lat="43.4841181" lon="11.1430426"><ele>103.33333333333333</ele><time>2026-04-19T07:48:23.649Z</time></trkpt><trkpt lat="43.4842183" lon="11.1432315"><ele>102.66666666666666</ele><time>2026-04-19T07:48:24.641Z</time></trkpt><trkpt lat="43.4843253" lon="11.1434147"><ele>102.0</ele><time>2026-04-19T07:48:25.646Z</time></trkpt><trkpt lat="43.4844315" lon="11.1436016"><ele>102.0</ele><time>2026-04-19T07:48:26.65Z</time></trkpt><trkpt lat="43.484536" lon="11.1437936"><ele>102.0</ele><time>2026-04-19T07:48:27.636Z</time></trkpt><trkpt lat="43.4846423" lon="11.1439855"><ele>102.0</ele><time>2026-04-19T07:48:28.66Z</time></trkpt><trkpt lat="43.484745" lon="11.1441792"><ele>102.66666666666666</ele><time>2026-04-19T07:48:29.629Z</time></trkpt><trkpt lat="43.4848476" lon="11.1443661"><ele>103.33333333333333</ele><time>2026-04-19T07:48:30.643Z</time></trkpt><trkpt lat="43.4849464" lon="11.1445521"><ele>104.0</ele><time>2026-04-19T07:48:31.657Z</time></trkpt><trkpt lat="43.4850441" lon="11.1447342"><ele>103.66666666666666</ele><time>2026-04-19T07:48:32.643Z</time></trkpt><trkpt lat="43.4851399" lon="11.1449152"><ele>103.33333333333334</ele><time>2026-04-19T07:48:33.654Z</time></trkpt><trkpt lat="43.4852359" lon="11.1450881"><ele>103.0</ele><time>2026-04-19T07:48:34.642Z</time></trkpt><trkpt lat="43.4853309" lon="11.1452639"><ele>103.0</ele><time>2026-04-19T07:48:35.647Z</time></trkpt><trkpt lat="43.4854245" lon="11.1454389"><ele>103.0</ele><time>2026-04-19T07:48:36.648Z</time></trkpt><trkpt lat="43.4855193" lon="11.145614"><ele>103.0</ele><time>2026-04-19T07:48:37.652Z</time></trkpt><trkpt lat="43.48561" lon="11.1457852"><ele>103.75</ele><time>2026-04-19T07:48:38.658Z</time></trkpt><trkpt lat="43.4856978" lon="11.1459489"><ele>104.5</ele><time>2026-04-19T07:48:39.625Z</time></trkpt><trkpt lat="43.4857848" lon="11.1461065"><ele>105.25</ele><time>2026-04-19T07:48:40.647Z</time></trkpt><trkpt lat="43.4858651" lon="11.1462648"><ele>106.0</ele><time>2026-04-19T07:48:41.646Z</time></trkpt><trkpt lat="43.485945" lon="11.1464242"><ele>106.0</ele><time>2026-04-19T07:48:42.647Z</time></trkpt><trkpt lat="43.486019" lon="11.1465944"><ele>106.0</ele><time>2026-04-19T07:48:43.642Z</time></trkpt><trkpt lat="43.4860814" lon="11.1467586"><ele>106.0</ele><time>2026-04-19T07:48:44.659Z</time></trkpt><trkpt lat="43.4861409" lon="11.1469152"><ele>106.0</ele><time>2026-04-19T07:48:45.652Z</time></trkpt><trkpt lat="43.4861938" lon="11.1470644"><ele>106.0</ele><time>2026-04-19T07:48:46.652Z</time></trkpt><trkpt lat="43.486243" lon="11.1472183"><ele>106.0</ele><time>2026-04-19T07:48:47.647Z</time></trkpt><trkpt lat="43.4862875" lon="11.1473699"><ele>106.0</ele><time>2026-04-19T07:48:48.651Z</time></trkpt><trkpt lat="43.4863294" lon="11.1475146"><ele>106.0</ele><time>2026-04-19T07:48:49.648Z</time></trkpt><trkpt lat="43.4863661" lon="11.1476563"><ele>106.0</ele><time>2026-04-19T07:48:50.644Z</time></trkpt><trkpt lat="43.4863914" lon="11.1477806"><ele>106.0</ele><time>2026-04-19T07:48:51.628Z</time></trkpt><trkpt lat="43.4864156" lon="11.1479026"><ele>106.0</ele><time>2026-04-19T07:48:52.654Z</time></trkpt><trkpt lat="43.4864386" lon="11.148029"><ele>106.0</ele><time>2026-04-19T07:48:53.631Z</time></trkpt><trkpt lat="43.4864545" lon="11.1481545"><ele>106.0</ele><time>2026-04-19T07:48:54.66Z</time></trkpt><trkpt lat="43.486474" lon="11.1482859"><ele>106.0</ele><time>2026-04-19T07:48:55.63Z</time></trkpt><trkpt lat="43.4864913" lon="11.1484144"><ele>106.0</ele><time>2026-04-19T07:48:56.648Z</time></trkpt><trkpt lat="43.4864982" lon="11.1485334"><ele>106.0</ele><time>2026-04-19T07:48:57.658Z</time></trkpt><trkpt lat="43.4864961" lon="11.1486412"><ele>106.0</ele><time>2026-04-19T07:48:58.649Z</time></trkpt><trkpt lat="43.4864969" lon="11.1487345"><ele>106.0</ele><time>2026-04-19T07:48:59.66Z</time></trkpt><trkpt lat="43.4865038" lon="11.1489084"><ele>106.0</ele><time>2026-04-19T07:49:01.644Z</time></trkpt><trkpt lat="43.4865061" lon="11.1489958"><ele>106.0</ele><time>2026-04-19T07:49:02.66Z</time></trkpt><trkpt lat="43.486502" lon="11.1491589"><ele>106.0</ele><time>2026-04-19T07:49:04.664Z</time></trkpt><trkpt lat="43.4864937" lon="11.1493007"><ele>106.0</ele><time>2026-04-19T07:49:06.646Z</time></trkpt><trkpt lat="43.4864839" lon="11.1494441"><ele>106.0</ele><time>2026-04-19T07:49:08.657Z</time></trkpt><trkpt lat="43.4864642" lon="11.1495899"><ele>106.16666666666667</ele><time>2026-04-19T07:49:10.647Z</time></trkpt><trkpt lat="43.4864484" lon="11.1496761"><ele>106.33333333333334</ele><time>2026-04-19T07:49:11.632Z</time></trkpt><trkpt lat="43.4864231" lon="11.1497734"><ele>106.5</ele><time>2026-04-19T07:49:12.639Z</time></trkpt><trkpt lat="43.4863934" lon="11.1498662"><ele>106.66666666666666</ele><time>2026-04-19T07:49:13.638Z</time></trkpt><trkpt lat="43.4863463" lon="11.1499626"><ele>106.83333333333333</ele><time>2026-04-19T07:49:14.65Z</time></trkpt><trkpt lat="43.486273" lon="11.1500571"><ele>107.0</ele><time>2026-04-19T07:49:15.627Z</time></trkpt><trkpt lat="43.4862007" lon="11.1501476"><ele>107.0</ele><time>2026-04-19T07:49:16.651Z</time></trkpt><trkpt lat="43.4861449" lon="11.1502477"><ele>106.99999999999999</ele><time>2026-04-19T07:49:17.642Z</time></trkpt><trkpt lat="43.4861075" lon="11.1503664"><ele>106.99999999999999</ele><time>2026-04-19T07:49:18.644Z</time></trkpt><trkpt lat="43.4861041" lon="11.1505029"><ele>107.0</ele><time>2026-04-19T07:49:19.635Z</time></trkpt><trkpt lat="43.4861161" lon="11.1506294"><ele>107.0</ele><time>2026-04-19T07:49:20.649Z</time></trkpt><trkpt lat="43.4861456" lon="11.1507511"><ele>107.0</ele><time>2026-04-19T07:49:21.653Z</time></trkpt><trkpt lat="43.4861892" lon="11.150864"><ele>106.99999999999999</ele><time>2026-04-19T07:49:22.646Z</time></trkpt><trkpt lat="43.4862495" lon="11.1509646"><ele>106.99999999999999</ele><time>2026-04-19T07:49:23.652Z</time></trkpt><trkpt lat="43.4863363" lon="11.1510096"><ele>107.0</ele><time>2026-04-19T07:49:24.653Z</time></trkpt><trkpt lat="43.4864445" lon="11.1510049"><ele>107.0</ele><time>2026-04-19T07:49:25.658Z</time></trkpt><trkpt lat="43.4865489" lon="11.1509698"><ele>107.0</ele><time>2026-04-19T07:49:26.631Z</time></trkpt><trkpt lat="43.4866398" lon="11.1509016"><ele>107.0</ele><time>2026-04-19T07:49:27.646Z</time></trkpt><trkpt lat="43.4867228" lon="11.1508098"><ele>107.0</ele><time>2026-04-19T07:49:28.65Z</time></trkpt><trkpt lat="43.4868262" lon="11.1507224"><ele>107.0</ele><time>2026-04-19T07:49:29.648Z</time></trkpt><trkpt lat="43.4869458" lon="11.1506474"><ele>107.0</ele><time>2026-04-19T07:49:30.655Z</time></trkpt><trkpt lat="43.4870745" lon="11.1505954"><ele>107.0</ele><time>2026-04-19T07:49:31.638Z</time></trkpt><trkpt lat="43.4872059" lon="11.1505817"><ele>107.0</ele><time>2026-04-19T07:49:32.645Z</time></trkpt><trkpt lat="43.4873327" lon="11.1505712"><ele>107.0</ele><time>2026-04-19T07:49:33.641Z</time></trkpt><trkpt lat="43.4874539" lon="11.1505564"><ele>107.16666666666666</ele><time>2026-04-19T07:49:34.644Z</time></trkpt><trkpt lat="43.4875598" lon="11.1505486"><ele>107.33333333333333</ele><time>2026-04-19T07:49:35.656Z</time></trkpt><trkpt lat="43.4876542" lon="11.1505342"><ele>107.5</ele><time>2026-04-19T07:49:36.634Z</time></trkpt><trkpt lat="43.487729" lon="11.1505334"><ele>107.66666666666666</ele><time>2026-04-19T07:49:37.651Z</time></trkpt><trkpt lat="43.4877943" lon="11.1505354"><ele>107.83333333333333</ele><time>2026-04-19T07:49:38.633Z</time></trkpt><trkpt lat="43.4878437" lon="11.1506299"><ele>108.0</ele><time>2026-04-19T07:49:40.638Z</time></trkpt><trkpt lat="43.4877571" lon="11.1507491"><ele>108.0</ele><time>2026-04-19T07:49:42.646Z</time></trkpt><trkpt lat="43.48769" lon="11.1507733"><ele>108.00000000000001</ele><time>2026-04-19T07:49:43.65Z</time></trkpt><trkpt lat="43.4875864" lon="11.1507878"><ele>108.00000000000001</ele><time>2026-04-19T07:49:44.635Z</time></trkpt><trkpt lat="43.4874626" lon="11.1507887"><ele>108.0</ele><time>2026-04-19T07:49:45.647Z</time></trkpt><trkpt lat="43.4873412" lon="11.1507993"><ele>108.0</ele><time>2026-04-19T07:49:46.636Z</time></trkpt><trkpt lat="43.4872249" lon="11.1508169"><ele>108.0</ele><time>2026-04-19T07:49:47.634Z</time></trkpt><trkpt lat="43.4871076" lon="11.1508522"><ele>108.0</ele><time>2026-04-19T07:49:48.645Z</time></trkpt><trkpt lat="43.4869949" lon="11.1508999"><ele>108.0</ele><time>2026-04-19T07:49:49.65Z</time></trkpt><trkpt lat="43.4868688" lon="11.1509896"><ele>108.0</ele><time>2026-04-19T07:49:50.645Z</time></trkpt><trkpt lat="43.4867403" lon="11.1511188"><ele>107.66666666666666</ele><time>2026-04-19T07:49:51.644Z</time></trkpt><trkpt lat="43.4866315" lon="11.1512781"><ele>107.33333333333333</ele><time>2026-04-19T07:49:52.646Z</time></trkpt><trkpt lat="43.4865319" lon="11.151466"><ele>107.0</ele><time>2026-04-19T07:49:53.644Z</time></trkpt><trkpt lat="43.4864311" lon="11.1516571"><ele>107.0</ele><time>2026-04-19T07:49:54.642Z</time></trkpt><trkpt lat="43.4863305" lon="11.1518454"><ele>107.0</ele><time>2026-04-19T07:49:55.643Z</time></trkpt><trkpt lat="43.4862512" lon="11.1520243"><ele>107.0</ele><time>2026-04-19T07:49:56.645Z</time></trkpt><trkpt lat="43.4861878" lon="11.1522062"><ele>107.5</ele><time>2026-04-19T07:49:57.654Z</time></trkpt><trkpt lat="43.4861446" lon="11.1523937"><ele>108.0</ele><time>2026-04-19T07:49:58.661Z</time></trkpt><trkpt lat="43.4861395" lon="11.1526035"><ele>108.5</ele><time>2026-04-19T07:49:59.647Z</time></trkpt><trkpt lat="43.4861743" lon="11.1528041"><ele>109.0</ele><time>2026-04-19T07:50:00.647Z</time></trkpt><trkpt lat="43.4862355" lon="11.1529918"><ele>109.0</ele><time>2026-04-19T07:50:01.658Z</time></trkpt><trkpt lat="43.4863212" lon="11.1531799"><ele>109.0</ele><time>2026-04-19T07:50:02.652Z</time></trkpt><trkpt lat="43.4864258" lon="11.1533588"><ele>109.0</ele><time>2026-04-19T07:50:03.627Z</time></trkpt><trkpt lat="43.4865297" lon="11.1535178"><ele>110.0</ele><time>2026-04-19T07:50:04.652Z</time></trkpt><trkpt lat="43.4866273" lon="11.1536684"><ele>111.0</ele><time>2026-04-19T07:50:05.645Z</time></trkpt><trkpt lat="43.4867244" lon="11.1538169"><ele>112.0</ele><time>2026-04-19T07:50:06.65Z</time></trkpt><trkpt lat="43.4868207" lon="11.153966"><ele>113.0</ele><time>2026-04-19T07:50:07.645Z</time></trkpt><trkpt lat="43.486908" lon="11.1541168"><ele>113.66666666666666</ele><time>2026-04-19T07:50:08.648Z</time></trkpt><trkpt lat="43.4869838" lon="11.1542895"><ele>114.33333333333334</ele><time>2026-04-19T07:50:09.629Z</time></trkpt><trkpt lat="43.4870371" lon="11.1544796"><ele>115.0</ele><time>2026-04-19T07:50:10.655Z</time></trkpt><trkpt lat="43.4871014" lon="11.1546843"><ele>116.33333333333334</ele><time>2026-04-19T07:50:11.65Z</time></trkpt><trkpt lat="43.4871536" lon="11.1548871"><ele>117.66666666666666</ele><time>2026-04-19T07:50:12.66Z</time></trkpt><trkpt lat="43.4872023" lon="11.1550882"><ele>119.0</ele><time>2026-04-19T07:50:13.645Z</time></trkpt><trkpt lat="43.487263" lon="11.1552806"><ele>119.0</ele><time>2026-04-19T07:50:14.648Z</time></trkpt><trkpt lat="43.487345" lon="11.1554664"><ele>119.0</ele><time>2026-04-19T07:50:15.641Z</time></trkpt><trkpt lat="43.487444" lon="11.1556593"><ele>119.0</ele><time>2026-04-19T07:50:16.629Z</time></trkpt><trkpt lat="43.4875511" lon="11.1558555"><ele>120.66666666666666</ele><time>2026-04-19T07:50:17.654Z</time></trkpt><trkpt lat="43.4876543" lon="11.1560589"><ele>122.33333333333334</ele><time>2026-04-19T07:50:18.651Z</time></trkpt><trkpt lat="43.4877577" lon="11.1562648"><ele>124.0</ele><time>2026-04-19T07:50:19.645Z</time></trkpt><trkpt lat="43.4878484" lon="11.1564723"><ele>125.0</ele><time>2026-04-19T07:50:20.646Z</time></trkpt><trkpt lat="43.4879429" lon="11.1566786"><ele>126.0</ele><time>2026-04-19T07:50:21.649Z</time></trkpt><trkpt lat="43.4880356" lon="11.1568837"><ele>127.0</ele><time>2026-04-19T07:50:22.65Z</time></trkpt><trkpt lat="43.488124" lon="11.1570887"><ele>127.0</ele><time>2026-04-19T07:50:23.653Z</time></trkpt><trkpt lat="43.4882065" lon="11.1572841"><ele>127.0</ele><time>2026-04-19T07:50:24.641Z</time></trkpt><trkpt lat="43.4882757" lon="11.1574556"><ele>127.0</ele><time>2026-04-19T07:50:25.64Z</time></trkpt><trkpt lat="43.4883413" lon="11.1576124"><ele>127.0</ele><time>2026-04-19T07:50:26.642Z</time></trkpt><trkpt lat="43.4884351" lon="11.1577755"><ele>129.66666666666669</ele><time>2026-04-19T07:50:27.667Z</time></trkpt><trkpt lat="43.4885399" lon="11.1579262"><ele>132.33333333333334</ele><time>2026-04-19T07:50:28.648Z</time></trkpt><trkpt lat="43.4886499" lon="11.1580845"><ele>135.0</ele><time>2026-04-19T07:50:29.665Z</time></trkpt><trkpt lat="43.4887694" lon="11.1582461"><ele>136.0</ele><time>2026-04-19T07:50:30.644Z</time></trkpt><trkpt lat="43.4888804" lon="11.158393"><ele>137.0</ele><time>2026-04-19T07:50:31.661Z</time></trkpt><trkpt lat="43.4889855" lon="11.1585301"><ele>138.0</ele><time>2026-04-19T07:50:32.648Z</time></trkpt><trkpt lat="43.4890936" lon="11.1586598"><ele>139.0</ele><time>2026-04-19T07:50:33.635Z</time></trkpt><trkpt lat="43.4892019" lon="11.1587927"><ele>139.0</ele><time>2026-04-19T07:50:34.648Z</time></trkpt><trkpt lat="43.4893026" lon="11.1589199"><ele>139.0</ele><time>2026-04-19T07:50:35.647Z</time></trkpt><trkpt lat="43.4893945" lon="11.1590404"><ele>139.0</ele><time>2026-04-19T07:50:36.632Z</time></trkpt><trkpt lat="43.4894622" lon="11.1591361"><ele>139.0</ele><time>2026-04-19T07:50:37.628Z</time></trkpt><trkpt lat="43.4895127" lon="11.1592098"><ele>139.0</ele><time>2026-04-19T07:50:38.64Z</time></trkpt><trkpt lat="43.4895982" lon="11.1593283"><ele>139.66666666666669</ele><time>2026-04-19T07:50:40.631Z</time></trkpt><trkpt lat="43.4896572" lon="11.1594076"><ele>140.33333333333334</ele><time>2026-04-19T07:50:42.629Z</time></trkpt><trkpt lat="43.4897039" lon="11.1594764"><ele>141.0</ele><time>2026-04-19T07:50:45.631Z</time></trkpt><trkpt lat="43.489762" lon="11.1595461"><ele>141.66666666666666</ele><time>2026-04-19T07:50:48.644Z</time></trkpt><trkpt lat="43.4898342" lon="11.1596362"><ele>142.33333333333331</ele><time>2026-04-19T07:50:50.651Z</time></trkpt><trkpt lat="43.4898879" lon="11.1597122"><ele>143.0</ele><time>2026-04-19T07:50:51.648Z</time></trkpt><trkpt lat="43.4899478" lon="11.159826"><ele>144.5</ele><time>2026-04-19T07:50:52.64Z</time></trkpt><trkpt lat="43.4900117" lon="11.1599625"><ele>146.0</ele><time>2026-04-19T07:50:53.643Z</time></trkpt><trkpt lat="43.4900758" lon="11.1601152"><ele>147.5</ele><time>2026-04-19T07:50:54.63Z</time></trkpt><trkpt lat="43.4901382" lon="11.160264"><ele>149.0</ele><time>2026-04-19T07:50:55.646Z</time></trkpt><trkpt lat="43.4901763" lon="11.160369"><ele>149.0</ele><time>2026-04-19T07:50:56.666Z</time></trkpt><trkpt lat="43.4901973" lon="11.1605032"><ele>149.0</ele><time>2026-04-19T07:50:58.63Z</time></trkpt><trkpt lat="43.4902253" lon="11.1605868"><ele>149.0</ele><time>2026-04-19T07:51:03.648Z</time></trkpt><trkpt lat="43.4902112" lon="11.1604964"><ele>149.0</ele><time>2026-04-19T07:51:05.648Z</time></trkpt><trkpt lat="43.4901665" lon="11.1603666"><ele>149.0</ele><time>2026-04-19T07:51:06.645Z</time></trkpt><trkpt lat="43.4901079" lon="11.1601958"><ele>149.0</ele><time>2026-04-19T07:51:07.632Z</time></trkpt><trkpt lat="43.4900384" lon="11.1600214"><ele>149.0</ele><time>2026-04-19T07:51:08.656Z</time></trkpt><trkpt lat="43.4899678" lon="11.1598477"><ele>149.0</ele><time>2026-04-19T07:51:09.638Z</time></trkpt><trkpt lat="43.489888" lon="11.1596833"><ele>149.0</ele><time>2026-04-19T07:51:10.656Z</time></trkpt><trkpt lat="43.4897888" lon="11.1595274"><ele>147.33333333333331</ele><time>2026-04-19T07:51:11.636Z</time></trkpt><trkpt lat="43.4896753" lon="11.1593627"><ele>145.66666666666666</ele><time>2026-04-19T07:51:12.654Z</time></trkpt><trkpt lat="43.4895492" lon="11.1591991"><ele>144.0</ele><time>2026-04-19T07:51:13.644Z</time></trkpt><trkpt lat="43.4894111" lon="11.1590289"><ele>142.33333333333334</ele><time>2026-04-19T07:51:14.652Z</time></trkpt><trkpt lat="43.4892687" lon="11.1588419"><ele>140.66666666666669</ele><time>2026-04-19T07:51:15.652Z</time></trkpt><trkpt lat="43.4891282" lon="11.1586705"><ele>139.0</ele><time>2026-04-19T07:51:16.631Z</time></trkpt><trkpt lat="43.4890066" lon="11.1585118"><ele>139.0</ele><time>2026-04-19T07:51:17.636Z</time></trkpt><trkpt lat="43.4888936" lon="11.1583596"><ele>139.0</ele><time>2026-04-19T07:51:18.638Z</time></trkpt><trkpt lat="43.4887796" lon="11.1582182"><ele>139.0</ele><time>2026-04-19T07:51:19.638Z</time></trkpt><trkpt lat="43.4886802" lon="11.1580753"><ele>138.33333333333334</ele><time>2026-04-19T07:51:20.654Z</time></trkpt><trkpt lat="43.4885991" lon="11.1579457"><ele>137.66666666666669</ele><time>2026-04-19T07:51:21.643Z</time></trkpt><trkpt lat="43.4885361" lon="11.1578472"><ele>137.0</ele><time>2026-04-19T07:51:22.631Z</time></trkpt><trkpt lat="43.4884832" lon="11.157764"><ele>136.33333333333334</ele><time>2026-04-19T07:51:23.638Z</time></trkpt><trkpt lat="43.4884398" lon="11.1576944"><ele>135.66666666666666</ele><time>2026-04-19T07:51:24.647Z</time></trkpt><trkpt lat="43.4883882" lon="11.1576101"><ele>135.0</ele><time>2026-04-19T07:51:26.642Z</time></trkpt><trkpt lat="43.4883255" lon="11.1575956"><ele>135.0</ele><time>2026-04-19T07:51:28.645Z</time></trkpt><trkpt lat="43.4882706" lon="11.1577291"><ele>135.0</ele><time>2026-04-19T07:51:30.643Z</time></trkpt><trkpt lat="43.4882285" lon="11.1579017"><ele>135.0</ele><time>2026-04-19T07:51:32.648Z</time></trkpt><trkpt lat="43.4881824" lon="11.1580065"><ele>135.0</ele><time>2026-04-19T07:51:33.643Z</time></trkpt><trkpt lat="43.4881486" lon="11.158121"><ele>135.0</ele><time>2026-04-19T07:51:34.649Z</time></trkpt><trkpt lat="43.4881067" lon="11.1582608"><ele>135.25</ele><time>2026-04-19T07:51:35.637Z</time></trkpt><trkpt lat="43.4880633" lon="11.1584179"><ele>135.5</ele><time>2026-04-19T07:51:36.653Z</time></trkpt><trkpt lat="43.4880055" lon="11.1585877"><ele>135.75</ele><time>2026-04-19T07:51:37.647Z</time></trkpt><trkpt lat="43.4879497" lon="11.1587653"><ele>136.0</ele><time>2026-04-19T07:51:38.657Z</time></trkpt><trkpt lat="43.48791" lon="11.1589462"><ele>133.5</ele><time>2026-04-19T07:51:39.637Z</time></trkpt><trkpt lat="43.4878771" lon="11.1591373"><ele>131.0</ele><time>2026-04-19T07:51:40.658Z</time></trkpt><trkpt lat="43.487845" lon="11.1593341"><ele>128.5</ele><time>2026-04-19T07:51:41.643Z</time></trkpt><trkpt lat="43.4878188" lon="11.159529"><ele>126.0</ele><time>2026-04-19T07:51:42.663Z</time></trkpt><trkpt lat="43.4878014" lon="11.1597278"><ele>126.0</ele><time>2026-04-19T07:51:43.648Z</time></trkpt><trkpt lat="43.4877873" lon="11.1599261"><ele>126.0</ele><time>2026-04-19T07:51:44.649Z</time></trkpt><trkpt lat="43.4877585" lon="11.1601214"><ele>126.0</ele><time>2026-04-19T07:51:45.647Z</time></trkpt><trkpt lat="43.4877257" lon="11.1603021"><ele>126.0</ele><time>2026-04-19T07:51:46.644Z</time></trkpt><trkpt lat="43.4877102" lon="11.1604867"><ele>126.0</ele><time>2026-04-19T07:51:47.655Z</time></trkpt><trkpt lat="43.4877149" lon="11.1606519"><ele>126.0</ele><time>2026-04-19T07:51:48.646Z</time></trkpt><trkpt lat="43.4877325" lon="11.1608171"><ele>126.0</ele><time>2026-04-19T07:51:49.654Z</time></trkpt><trkpt lat="43.4877574" lon="11.1609961"><ele>126.0</ele><time>2026-04-19T07:51:50.651Z</time></trkpt><trkpt lat="43.4877834" lon="11.1611844"><ele>126.33333333333334</ele><time>2026-04-19T07:51:51.658Z</time></trkpt><trkpt lat="43.4878123" lon="11.161382"><ele>126.66666666666667</ele><time>2026-04-19T07:51:52.647Z</time></trkpt><trkpt lat="43.4878406" lon="11.1615889"><ele>127.0</ele><time>2026-04-19T07:51:53.647Z</time></trkpt><trkpt lat="43.4878598" lon="11.1618032"><ele>126.33333333333334</ele><time>2026-04-19T07:51:54.663Z</time></trkpt><trkpt lat="43.4878909" lon="11.1620152"><ele>125.66666666666666</ele><time>2026-04-19T07:51:55.66Z</time></trkpt><trkpt lat="43.487923" lon="11.1622362"><ele>125.0</ele><time>2026-04-19T07:51:56.64Z</time></trkpt><trkpt lat="43.4879561" lon="11.1624523"><ele>126.75</ele><time>2026-04-19T07:51:57.648Z</time></trkpt><trkpt lat="43.487984" lon="11.1626545"><ele>128.5</ele><time>2026-04-19T07:51:58.653Z</time></trkpt><trkpt lat="43.4880125" lon="11.1628462"><ele>130.25</ele><time>2026-04-19T07:51:59.629Z</time></trkpt><trkpt lat="43.4880493" lon="11.1630352"><ele>132.0</ele><time>2026-04-19T07:52:00.654Z</time></trkpt><trkpt lat="43.4880954" lon="11.1632317"><ele>132.33333333333334</ele><time>2026-04-19T07:52:01.65Z</time></trkpt><trkpt lat="43.4881418" lon="11.1634259"><ele>132.66666666666669</ele><time>2026-04-19T07:52:02.648Z</time></trkpt><trkpt lat="43.4881806" lon="11.163629"><ele>133.0</ele><time>2026-04-19T07:52:03.652Z</time></trkpt><trkpt lat="43.4882184" lon="11.1638329"><ele>133.0</ele><time>2026-04-19T07:52:04.656Z</time></trkpt><trkpt lat="43.4882556" lon="11.1640211"><ele>133.0</ele><time>2026-04-19T07:52:05.65Z</time></trkpt><trkpt lat="43.4883013" lon="11.1641948"><ele>133.0</ele><time>2026-04-19T07:52:06.649Z</time></trkpt><trkpt lat="43.4883654" lon="11.1643524"><ele>133.0</ele><time>2026-04-19T07:52:07.646Z</time></trkpt><trkpt lat="43.4884503" lon="11.1645003"><ele>132.75</ele><time>2026-04-19T07:52:08.639Z</time></trkpt><trkpt lat="43.4885437" lon="11.1646242"><ele>132.5</ele><time>2026-04-19T07:52:09.646Z</time></trkpt><trkpt lat="43.4886258" lon="11.1647528"><ele>132.25</ele><time>2026-04-19T07:52:10.649Z</time></trkpt><trkpt lat="43.4886789" lon="11.1649056"><ele>132.0</ele><time>2026-04-19T07:52:11.661Z</time></trkpt><trkpt lat="43.4887183" lon="11.1650796"><ele>131.0</ele><time>2026-04-19T07:52:12.643Z</time></trkpt><trkpt lat="43.4887296" lon="11.1652804"><ele>130.0</ele><time>2026-04-19T07:52:13.656Z</time></trkpt><trkpt lat="43.4887149" lon="11.1655071"><ele>129.0</ele><time>2026-04-19T07:52:14.642Z</time></trkpt><trkpt lat="43.4887025" lon="11.1657493"><ele>128.66666666666666</ele><time>2026-04-19T07:52:15.647Z</time></trkpt><trkpt lat="43.4887157" lon="11.1659671"><ele>128.33333333333331</ele><time>2026-04-19T07:52:16.653Z</time></trkpt><trkpt lat="43.4887515" lon="11.1661604"><ele>128.0</ele><time>2026-04-19T07:52:17.654Z</time></trkpt><trkpt lat="43.4888123" lon="11.1663448"><ele>130.75</ele><time>2026-04-19T07:52:18.651Z</time></trkpt><trkpt lat="43.4888876" lon="11.1665329"><ele>133.5</ele><time>2026-04-19T07:52:19.653Z</time></trkpt><trkpt lat="43.4889647" lon="11.1667104"><ele>136.25</ele><time>2026-04-19T07:52:20.655Z</time></trkpt><trkpt lat="43.489032" lon="11.1668623"><ele>139.0</ele><time>2026-04-19T07:52:21.652Z</time></trkpt><trkpt lat="43.4890822" lon="11.1669836"><ele>139.0</ele><time>2026-04-19T07:52:22.627Z</time></trkpt><trkpt lat="43.4891222" lon="11.167064"><ele>139.0</ele><time>2026-04-19T07:52:23.642Z</time></trkpt><trkpt lat="43.4891933" lon="11.1671794"><ele>139.0</ele><time>2026-04-19T07:52:25.65Z</time></trkpt><trkpt lat="43.489292" lon="11.1672855"><ele>139.0</ele><time>2026-04-19T07:52:27.639Z</time></trkpt><trkpt lat="43.4893586" lon="11.1673325"><ele>139.0</ele><time>2026-04-19T07:52:28.646Z</time></trkpt><trkpt lat="43.489436" lon="11.1673606"><ele>139.14285714285714</ele><time>2026-04-19T07:52:29.644Z</time></trkpt><trkpt lat="43.4895082" lon="11.1673716"><ele>139.28571428571428</ele><time>2026-04-19T07:52:30.667Z</time></trkpt><trkpt lat="43.4895816" lon="11.1673717"><ele>139.42857142857144</ele><time>2026-04-19T07:52:31.642Z</time></trkpt><trkpt lat="43.4896505" lon="11.1673622"><ele>139.57142857142856</ele><time>2026-04-19T07:52:32.653Z</time></trkpt><trkpt lat="43.4897165" lon="11.1673623"><ele>139.71428571428572</ele><time>2026-04-19T07:52:33.654Z</time></trkpt><trkpt lat="43.4897848" lon="11.1673811"><ele>139.85714285714286</ele><time>2026-04-19T07:52:34.65Z</time></trkpt><trkpt lat="43.4898579" lon="11.1674113"><ele>140.0</ele><time>2026-04-19T07:52:35.652Z</time></trkpt><trkpt lat="43.4899346" lon="11.1674652"><ele>142.0</ele><time>2026-04-19T07:52:36.641Z</time></trkpt><trkpt lat="43.4900048" lon="11.1675278"><ele>144.0</ele><time>2026-04-19T07:52:37.646Z</time></trkpt><trkpt lat="43.49007" lon="11.1675942"><ele>146.0</ele><time>2026-04-19T07:52:38.66Z</time></trkpt><trkpt lat="43.4901342" lon="11.1676669"><ele>148.0</ele><time>2026-04-19T07:52:39.654Z</time></trkpt><trkpt lat="43.490217" lon="11.1677526"><ele>150.0</ele><time>2026-04-19T07:52:40.65Z</time></trkpt><trkpt lat="43.490308" lon="11.1678551"><ele>150.0</ele><time>2026-04-19T07:52:41.637Z</time></trkpt><trkpt lat="43.4904153" lon="11.1679694"><ele>150.0</ele><time>2026-04-19T07:52:42.662Z</time></trkpt><trkpt lat="43.4905326" lon="11.1680828"><ele>150.0</ele><time>2026-04-19T07:52:43.658Z</time></trkpt><trkpt lat="43.490654" lon="11.1682083"><ele>150.0</ele><time>2026-04-19T07:52:44.653Z</time></trkpt><trkpt lat="43.4907828" lon="11.1683428"><ele>154.33333333333334</ele><time>2026-04-19T07:52:45.651Z</time></trkpt><trkpt lat="43.4909167" lon="11.1684818"><ele>158.66666666666669</ele><time>2026-04-19T07:52:46.655Z</time></trkpt><trkpt lat="43.4910443" lon="11.1686121"><ele>163.0</ele><time>2026-04-19T07:52:47.637Z</time></trkpt><trkpt lat="43.4911526" lon="11.1687343"><ele>163.0</ele><time>2026-04-19T07:52:48.643Z</time></trkpt><trkpt lat="43.4912545" lon="11.1688412"><ele>163.0</ele><time>2026-04-19T07:52:49.655Z</time></trkpt><trkpt lat="43.4913489" lon="11.1689398"><ele>163.0</ele><time>2026-04-19T07:52:50.662Z</time></trkpt><trkpt lat="43.4914523" lon="11.1690226"><ele>163.0</ele><time>2026-04-19T07:52:51.631Z</time></trkpt><trkpt lat="43.4915595" lon="11.1690778"><ele>165.5</ele><time>2026-04-19T07:52:52.655Z</time></trkpt><trkpt lat="43.4916787" lon="11.1691238"><ele>168.0</ele><time>2026-04-19T07:52:53.655Z</time></trkpt><trkpt lat="43.4918" lon="11.1691733"><ele>170.5</ele><time>2026-04-19T07:52:54.654Z</time></trkpt><trkpt lat="43.4919306" lon="11.1692217"><ele>173.0</ele><time>2026-04-19T07:52:55.65Z</time></trkpt><trkpt lat="43.4920675" lon="11.1692697"><ele>174.5</ele><time>2026-04-19T07:52:56.653Z</time></trkpt><trkpt lat="43.4922041" lon="11.1693128"><ele>176.0</ele><time>2026-04-19T07:52:57.636Z</time></trkpt><trkpt lat="43.4923404" lon="11.1693508"><ele>177.5</ele><time>2026-04-19T07:52:58.657Z</time></trkpt><trkpt lat="43.4924754" lon="11.1693913"><ele>179.0</ele><time>2026-04-19T07:52:59.637Z</time></trkpt><trkpt lat="43.492601" lon="11.169433"><ele>179.0</ele><time>2026-04-19T07:53:00.651Z</time></trkpt><trkpt lat="43.4927099" lon="11.1694654"><ele>179.0</ele><time>2026-04-19T07:53:01.649Z</time></trkpt><trkpt lat="43.4928027" lon="11.1694896"><ele>179.0</ele><time>2026-04-19T07:53:02.66Z</time></trkpt><trkpt lat="43.4928779" lon="11.1695046"><ele>179.0</ele><time>2026-04-19T07:53:03.661Z</time></trkpt><trkpt lat="43.4929984" lon="11.1695294"><ele>179.0</ele><time>2026-04-19T07:53:05.644Z</time></trkpt><trkpt lat="43.4930644" lon="11.1695403"><ele>180.0</ele><time>2026-04-19T07:53:06.668Z</time></trkpt><trkpt lat="43.4931755" lon="11.1695669"><ele>181.0</ele><time>2026-04-19T07:53:08.658Z</time></trkpt><trkpt lat="43.4932852" lon="11.169602"><ele>182.0</ele><time>2026-04-19T07:53:10.648Z</time></trkpt><trkpt lat="43.493393" lon="11.169659"><ele>183.0</ele><time>2026-04-19T07:53:12.657Z</time></trkpt><trkpt lat="43.4934771" lon="11.1697142"><ele>184.0</ele><time>2026-04-19T07:53:14.651Z</time></trkpt><trkpt lat="43.4935314" lon="11.1697637"><ele>184.0</ele><time>2026-04-19T07:53:16.668Z</time></trkpt><trkpt lat="43.4935876" lon="11.1698208"><ele>184.0</ele><time>2026-04-19T07:53:20.635Z</time></trkpt><trkpt lat="43.4936466" lon="11.1698681"><ele>184.0</ele><time>2026-04-19T07:53:44.664Z</time></trkpt><trkpt lat="43.4937253" lon="11.1699203"><ele>184.0</ele><time>2026-04-19T07:53:46.661Z</time></trkpt><trkpt lat="43.49379" lon="11.1699838"><ele>184.0</ele><time>2026-04-19T07:53:48.635Z</time></trkpt><trkpt lat="43.4938517" lon="11.1700572"><ele>184.0</ele><time>2026-04-19T07:53:51.643Z</time></trkpt><trkpt lat="43.4939189" lon="11.1701374"><ele>185.79999999999998</ele><time>2026-04-19T07:53:54.654Z</time></trkpt><trkpt lat="43.4939665" lon="11.1702191"><ele>187.6</ele><time>2026-04-19T07:54:29.651Z</time></trkpt><trkpt lat="43.4940847" lon="11.170315"><ele>189.4</ele><time>2026-04-19T07:54:31.641Z</time></trkpt><trkpt lat="43.4941639" lon="11.1703812"><ele>191.2</ele><time>2026-04-19T07:54:32.625Z</time></trkpt><trkpt lat="43.4942505" lon="11.1704598"><ele>193.0</ele><time>2026-04-19T07:54:33.634Z</time></trkpt><trkpt lat="43.4943175" lon="11.1705361"><ele>193.00000000000003</ele><time>2026-04-19T07:54:34.637Z</time></trkpt><trkpt lat="43.4943653" lon="11.1706001"><ele>193.0</ele><time>2026-04-19T07:54:35.631Z</time></trkpt><trkpt lat="43.4944071" lon="11.1706813"><ele>193.0</ele><time>2026-04-19T07:54:37.631Z</time></trkpt><trkpt lat="43.4944645" lon="11.1707687"><ele>193.0</ele><time>2026-04-19T07:55:33.644Z</time></trkpt><trkpt lat="43.4945022" lon="11.1708475"><ele>193.0</ele><time>2026-04-19T07:56:18.493Z</time></trkpt><trkpt lat="43.4945546" lon="11.1709206"><ele>193.00000000000003</ele><time>2026-04-19T07:57:25.296Z</time></trkpt><trkpt lat="43.4946072" lon="11.1709734"><ele>193.0</ele><time>2026-04-19T07:57:30.293Z</time></trkpt><trkpt lat="43.4946665" lon="11.1710196"><ele>194.57142857142858</ele><time>2026-04-19T07:57:37.285Z</time></trkpt><trkpt lat="43.4947319" lon="11.171049"><ele>196.14285714285714</ele><time>2026-04-19T07:57:46.28Z</time></trkpt><trkpt lat="43.4948005" lon="11.1710779"><ele>197.71428571428572</ele><time>2026-04-19T07:57:54.337Z</time></trkpt><trkpt lat="43.4948603" lon="11.1711187"><ele>199.28571428571428</ele><time>2026-04-19T07:58:03.301Z</time></trkpt><trkpt lat="43.4949184" lon="11.1711677"><ele>200.85714285714286</ele><time>2026-04-19T07:58:10.304Z</time></trkpt><trkpt lat="43.4949806" lon="11.1711908"><ele>202.42857142857144</ele><time>2026-04-19T07:58:21.287Z</time></trkpt><trkpt lat="43.4949224" lon="11.1711571"><ele>204.0</ele><time>2026-04-19T07:58:33.297Z</time></trkpt><trkpt lat="43.4948564" lon="11.1711115"><ele>204.0</ele><time>2026-04-19T07:58:40.289Z</time></trkpt><trkpt lat="43.4949181" lon="11.1711407"><ele>204.0</ele><time>2026-04-19T07:59:10.298Z</time></trkpt><trkpt lat="43.4950405" lon="11.1711986"><ele>204.0</ele><time>2026-04-19T07:59:13.288Z</time></trkpt><trkpt lat="43.4951568" lon="11.1712733"><ele>204.0</ele><time>2026-04-19T07:59:16.286Z</time></trkpt><trkpt lat="43.4952794" lon="11.1713571"><ele>204.0</ele><time>2026-04-19T07:59:19.284Z</time></trkpt><trkpt lat="43.4953436" lon="11.1713961"><ele>204.0</ele><time>2026-04-19T07:59:21.285Z</time></trkpt><trkpt lat="43.4954659" lon="11.1714637"><ele>204.0</ele><time>2026-04-19T07:59:23.284Z</time></trkpt><trkpt lat="43.4955444" lon="11.1715138"><ele>204.0</ele><time>2026-04-19T07:59:25.301Z</time></trkpt><trkpt lat="43.4956363" lon="11.1715645"><ele>204.0</ele><time>2026-04-19T07:59:27.287Z</time></trkpt><trkpt lat="43.4957264" lon="11.1716123"><ele>208.5</ele><time>2026-04-19T07:59:29.308Z</time></trkpt><trkpt lat="43.4958187" lon="11.1716884"><ele>213.0</ele><time>2026-04-19T07:59:31.299Z</time></trkpt><trkpt lat="43.495907" lon="11.1718032"><ele>217.5</ele><time>2026-04-19T07:59:33.298Z</time></trkpt><trkpt lat="43.4959898" lon="11.1719312"><ele>222.0</ele><time>2026-04-19T07:59:35.301Z</time></trkpt><trkpt lat="43.4960737" lon="11.1720476"><ele>222.0</ele><time>2026-04-19T07:59:37.306Z</time></trkpt><trkpt lat="43.4961489" lon="11.1721568"><ele>222.0</ele><time>2026-04-19T07:59:39.306Z</time></trkpt><trkpt lat="43.4961989" lon="11.1722254"><ele>222.0</ele><time>2026-04-19T07:59:41.311Z</time></trkpt><trkpt lat="43.4962721" lon="11.1722462"><ele>222.0</ele><time>2026-04-19T08:00:03.297Z</time></trkpt><trkpt lat="43.4963223" lon="11.1721783"><ele>222.0</ele><time>2026-04-19T08:00:05.299Z</time></trkpt><trkpt lat="43.49634" lon="11.1720626"><ele>222.0</ele><time>2026-04-19T08:00:07.286Z</time></trkpt><trkpt lat="43.4963281" lon="11.1719308"><ele>224.2</ele><time>2026-04-19T08:00:09.303Z</time></trkpt><trkpt lat="43.4963302" lon="11.1717984"><ele>226.39999999999998</ele><time>2026-04-19T08:00:11.304Z</time></trkpt><trkpt lat="43.4963714" lon="11.1717063"><ele>228.60000000000002</ele><time>2026-04-19T08:00:14.276Z</time></trkpt><trkpt lat="43.4964609" lon="11.1717176"><ele>230.8</ele><time>2026-04-19T08:00:16.277Z</time></trkpt><trkpt lat="43.4965742" lon="11.1717305"><ele>233.0</ele><time>2026-04-19T08:00:18.289Z</time></trkpt><trkpt lat="43.4966562" lon="11.1717089"><ele>233.00000000000003</ele><time>2026-04-19T08:00:20.293Z</time></trkpt><trkpt lat="43.4967144" lon="11.1716649"><ele>233.0</ele><time>2026-04-19T08:00:22.299Z</time></trkpt><trkpt lat="43.4967955" lon="11.1715954"><ele>233.0</ele><time>2026-04-19T08:00:24.304Z</time></trkpt><trkpt lat="43.4968505" lon="11.1715456"><ele>233.0</ele><time>2026-04-19T08:00:25.305Z</time></trkpt><trkpt lat="43.4968989" lon="11.1714777"><ele>233.00000000000003</ele><time>2026-04-19T08:00:26.303Z</time></trkpt><trkpt lat="43.4969767" lon="11.171372"><ele>233.0</ele><time>2026-04-19T08:00:28.306Z</time></trkpt><trkpt lat="43.4970751" lon="11.1713205"><ele>233.28571428571428</ele><time>2026-04-19T08:00:30.303Z</time></trkpt><trkpt lat="43.497139" lon="11.1713176"><ele>233.57142857142856</ele><time>2026-04-19T08:00:31.288Z</time></trkpt><trkpt lat="43.4972028" lon="11.1713172"><ele>233.85714285714283</ele><time>2026-04-19T08:00:32.301Z</time></trkpt><trkpt lat="43.4972675" lon="11.171326"><ele>234.14285714285714</ele><time>2026-04-19T08:00:33.304Z</time></trkpt><trkpt lat="43.4973313" lon="11.1713398"><ele>234.4285714285714</ele><time>2026-04-19T08:00:34.298Z</time></trkpt><trkpt lat="43.4974029" lon="11.1713532"><ele>234.7142857142857</ele><time>2026-04-19T08:00:35.301Z</time></trkpt><trkpt lat="43.497482" lon="11.1713631"><ele>235.0</ele><time>2026-04-19T08:00:36.298Z</time></trkpt><trkpt lat="43.4975577" lon="11.1713754"><ele>234.99999999999997</ele><time>2026-04-19T08:00:37.301Z</time></trkpt><trkpt lat="43.4976286" lon="11.1713974"><ele>235.0</ele><time>2026-04-19T08:00:38.303Z</time></trkpt><trkpt lat="43.4977071" lon="11.1714177"><ele>235.0</ele><time>2026-04-19T08:00:39.287Z</time></trkpt><trkpt lat="43.4977858" lon="11.1714414"><ele>235.0</ele><time>2026-04-19T08:00:40.291Z</time></trkpt><trkpt lat="43.4978707" lon="11.1714584"><ele>234.99999999999997</ele><time>2026-04-19T08:00:41.299Z</time></trkpt><trkpt lat="43.4979554" lon="11.1714646"><ele>235.0</ele><time>2026-04-19T08:00:42.292Z</time></trkpt><trkpt lat="43.4980357" lon="11.1714583"><ele>234.8</ele><time>2026-04-19T08:00:43.306Z</time></trkpt><trkpt lat="43.4981058" lon="11.1714445"><ele>234.6</ele><time>2026-04-19T08:00:44.284Z</time></trkpt><trkpt lat="43.4981719" lon="11.1714312"><ele>234.39999999999998</ele><time>2026-04-19T08:00:45.304Z</time></trkpt><trkpt lat="43.49829" lon="11.1714073"><ele>234.2</ele><time>2026-04-19T08:00:47.306Z</time></trkpt><trkpt lat="43.4984212" lon="11.1714435"><ele>234.0</ele><time>2026-04-19T08:00:49.301Z</time></trkpt><trkpt lat="43.4985133" lon="11.1715005"><ele>234.0</ele><time>2026-04-19T08:00:50.296Z</time></trkpt><trkpt lat="43.4986017" lon="11.1715499"><ele>234.0</ele><time>2026-04-19T08:00:51.296Z</time></trkpt><trkpt lat="43.4986866" lon="11.1715999"><ele>234.0</ele><time>2026-04-19T08:00:52.305Z</time></trkpt><trkpt lat="43.4987628" lon="11.171644"><ele>234.0</ele><time>2026-04-19T08:00:53.306Z</time></trkpt><trkpt lat="43.4988368" lon="11.1716806"><ele>234.0</ele><time>2026-04-19T08:00:54.297Z</time></trkpt><trkpt lat="43.4989034" lon="11.1717217"><ele>234.0</ele><time>2026-04-19T08:00:55.304Z</time></trkpt><trkpt lat="43.498968" lon="11.1717553"><ele>233.2</ele><time>2026-04-19T08:00:56.317Z</time></trkpt><trkpt lat="43.4990356" lon="11.1717969"><ele>232.39999999999998</ele><time>2026-04-19T08:00:57.304Z</time></trkpt><trkpt lat="43.4991089" lon="11.1718424"><ele>231.6</ele><time>2026-04-19T08:00:58.305Z</time></trkpt><trkpt lat="43.4991935" lon="11.1718923"><ele>230.8</ele><time>2026-04-19T08:00:59.291Z</time></trkpt><trkpt lat="43.4992894" lon="11.1719418"><ele>230.0</ele><time>2026-04-19T08:01:00.298Z</time></trkpt><trkpt lat="43.4993947" lon="11.1720017"><ele>230.0</ele><time>2026-04-19T08:01:01.3Z</time></trkpt><trkpt lat="43.4995059" lon="11.1720593"><ele>230.0</ele><time>2026-04-19T08:01:02.288Z</time></trkpt><trkpt lat="43.4996157" lon="11.1721189"><ele>230.0</ele><time>2026-04-19T08:01:03.298Z</time></trkpt><trkpt lat="43.4997342" lon="11.172183"><ele>230.0</ele><time>2026-04-19T08:01:04.312Z</time></trkpt><trkpt lat="43.4998512" lon="11.1722432"><ele>227.5</ele><time>2026-04-19T08:01:05.305Z</time></trkpt><trkpt lat="43.4999658" lon="11.1723019"><ele>225.0</ele><time>2026-04-19T08:01:06.296Z</time></trkpt><trkpt lat="43.5000888" lon="11.1723534"><ele>222.5</ele><time>2026-04-19T08:01:07.295Z</time></trkpt><trkpt lat="43.5002162" lon="11.1724024"><ele>220.0</ele><time>2026-04-19T08:01:08.3Z</time></trkpt><trkpt lat="43.5003388" lon="11.172444"><ele>219.0</ele><time>2026-04-19T08:01:09.301Z</time></trkpt><trkpt lat="43.5004555" lon="11.1724862"><ele>218.0</ele><time>2026-04-19T08:01:10.301Z</time></trkpt><trkpt lat="43.5005699" lon="11.1725217"><ele>217.0</ele><time>2026-04-19T08:01:11.311Z</time></trkpt><trkpt lat="43.5006764" lon="11.1725675"><ele>216.0</ele><time>2026-04-19T08:01:12.288Z</time></trkpt><trkpt lat="43.50078" lon="11.1726237"><ele>216.0</ele><time>2026-04-19T08:01:13.288Z</time></trkpt><trkpt lat="43.5008783" lon="11.1726862"><ele>216.0</ele><time>2026-04-19T08:01:14.299Z</time></trkpt><trkpt lat="43.500966" lon="11.1727775"><ele>216.0</ele><time>2026-04-19T08:01:15.312Z</time></trkpt><trkpt lat="43.5010453" lon="11.1728892"><ele>216.0</ele><time>2026-04-19T08:01:16.309Z</time></trkpt><trkpt lat="43.5011109" lon="11.1730252"><ele>216.5</ele><time>2026-04-19T08:01:17.287Z</time></trkpt><trkpt lat="43.5011506" lon="11.1731924"><ele>217.0</ele><time>2026-04-19T08:01:18.298Z</time></trkpt><trkpt lat="43.5011842" lon="11.1733613"><ele>217.5</ele><time>2026-04-19T08:01:19.299Z</time></trkpt><trkpt lat="43.501236" lon="11.1734937"><ele>218.0</ele><time>2026-04-19T08:01:20.302Z</time></trkpt><trkpt lat="43.5013012" lon="11.1736218"><ele>218.8</ele><time>2026-04-19T08:01:21.294Z</time></trkpt><trkpt lat="43.5013747" lon="11.1737421"><ele>219.60000000000002</ele><time>2026-04-19T08:01:22.296Z</time></trkpt><trkpt lat="43.5014481" lon="11.1738646"><ele>220.39999999999998</ele><time>2026-04-19T08:01:23.279Z</time></trkpt><trkpt lat="43.5015226" lon="11.1739811"><ele>221.2</ele><time>2026-04-19T08:01:24.292Z</time></trkpt><trkpt lat="43.5015829" lon="11.1740876"><ele>222.0</ele><time>2026-04-19T08:01:25.299Z</time></trkpt><trkpt lat="43.5016275" lon="11.1742121"><ele>223.75</ele><time>2026-04-19T08:01:26.297Z</time></trkpt><trkpt lat="43.5016682" lon="11.1743512"><ele>225.5</ele><time>2026-04-19T08:01:27.3Z</time></trkpt><trkpt lat="43.5017211" lon="11.1744966"><ele>227.25</ele><time>2026-04-19T08:01:28.301Z</time></trkpt><trkpt lat="43.5017996" lon="11.1746378"><ele>229.0</ele><time>2026-04-19T08:01:29.301Z</time></trkpt><trkpt lat="43.5019067" lon="11.1747696"><ele>230.33333333333331</ele><time>2026-04-19T08:01:30.297Z</time></trkpt><trkpt lat="43.5020311" lon="11.174893"><ele>231.66666666666669</ele><time>2026-04-19T08:01:31.295Z</time></trkpt><trkpt lat="43.5021584" lon="11.1750121"><ele>233.0</ele><time>2026-04-19T08:01:32.3Z</time></trkpt><trkpt lat="43.502278" lon="11.1751263"><ele>235.75</ele><time>2026-04-19T08:01:33.299Z</time></trkpt><trkpt lat="43.5023782" lon="11.1752278"><ele>238.5</ele><time>2026-04-19T08:01:34.302Z</time></trkpt><trkpt lat="43.5024655" lon="11.1753305"><ele>241.25</ele><time>2026-04-19T08:01:35.297Z</time></trkpt><trkpt lat="43.5025438" lon="11.1754172"><ele>244.0</ele><time>2026-04-19T08:01:36.304Z</time></trkpt><trkpt lat="43.5026293" lon="11.1755157"><ele>244.0</ele><time>2026-04-19T08:01:38.301Z</time></trkpt><trkpt lat="43.5027346" lon="11.1755412"><ele>243.99999999999997</ele><time>2026-04-19T08:01:40.302Z</time></trkpt><trkpt lat="43.5028526" lon="11.1755182"><ele>243.99999999999997</ele><time>2026-04-19T08:01:42.3Z</time></trkpt><trkpt lat="43.5029329" lon="11.175469"><ele>244.0</ele><time>2026-04-19T08:01:43.29Z</time></trkpt><trkpt lat="43.5030197" lon="11.1753714"><ele>244.0</ele><time>2026-04-19T08:01:44.299Z</time></trkpt><trkpt lat="43.5030983" lon="11.1752789"><ele>245.0</ele><time>2026-04-19T08:01:45.3Z</time></trkpt><trkpt lat="43.5031593" lon="11.1752094"><ele>245.99999999999997</ele><time>2026-04-19T08:01:46.305Z</time></trkpt><trkpt lat="43.5032153" lon="11.175157"><ele>246.99999999999997</ele><time>2026-04-19T08:01:47.307Z</time></trkpt><trkpt lat="43.5033517" lon="11.1751319"><ele>248.0</ele><time>2026-04-19T08:01:49.305Z</time></trkpt><trkpt lat="43.5034399" lon="11.1751512"><ele>249.0</ele><time>2026-04-19T08:01:50.301Z</time></trkpt><trkpt lat="43.5035496" lon="11.1751942"><ele>249.0</ele><time>2026-04-19T08:01:51.299Z</time></trkpt><trkpt lat="43.5036726" lon="11.1752573"><ele>249.0</ele><time>2026-04-19T08:01:52.301Z</time></trkpt><trkpt lat="43.5038032" lon="11.1753254"><ele>249.0</ele><time>2026-04-19T08:01:53.302Z</time></trkpt><trkpt lat="43.5039316" lon="11.1753933"><ele>249.0</ele><time>2026-04-19T08:01:54.283Z</time></trkpt><trkpt lat="43.5040589" lon="11.1754651"><ele>250.2</ele><time>2026-04-19T08:01:55.306Z</time></trkpt><trkpt lat="43.5041739" lon="11.1755292"><ele>251.39999999999998</ele><time>2026-04-19T08:01:56.305Z</time></trkpt><trkpt lat="43.5042798" lon="11.1755827"><ele>252.6</ele><time>2026-04-19T08:01:57.305Z</time></trkpt><trkpt lat="43.5043822" lon="11.175632"><ele>253.8</ele><time>2026-04-19T08:01:58.323Z</time></trkpt><trkpt lat="43.5044772" lon="11.1756717"><ele>255.0</ele><time>2026-04-19T08:01:59.295Z</time></trkpt><trkpt lat="43.5045631" lon="11.1757055"><ele>257.6666666666667</ele><time>2026-04-19T08:02:00.309Z</time></trkpt><trkpt lat="43.5046293" lon="11.1757383"><ele>260.3333333333333</ele><time>2026-04-19T08:02:01.299Z</time></trkpt><trkpt lat="43.5047457" lon="11.1757407"><ele>263.0</ele><time>2026-04-19T08:02:03.296Z</time></trkpt><trkpt lat="43.504814" lon="11.1757244"><ele>265.66666666666663</ele><time>2026-04-19T08:02:04.302Z</time></trkpt><trkpt lat="43.5048777" lon="11.1757016"><ele>268.3333333333333</ele><time>2026-04-19T08:02:05.306Z</time></trkpt><trkpt lat="43.5049377" lon="11.1756545"><ele>271.0</ele><time>2026-04-19T08:02:06.299Z</time></trkpt><trkpt lat="43.5049769" lon="11.1755612"><ele>271.0</ele><time>2026-04-19T08:02:07.299Z</time></trkpt><trkpt lat="43.5050059" lon="11.1754312"><ele>271.0</ele><time>2026-04-19T08:02:08.308Z</time></trkpt><trkpt lat="43.5050163" lon="11.1753062"><ele>271.0</ele><time>2026-04-19T08:02:09.301Z</time></trkpt><trkpt lat="43.5050381" lon="11.1751825"><ele>271.0</ele><time>2026-04-19T08:02:10.303Z</time></trkpt><trkpt lat="43.5050798" lon="11.1750814"><ele>271.0</ele><time>2026-04-19T08:02:11.297Z</time></trkpt><trkpt lat="43.5051377" lon="11.1749989"><ele>271.0</ele><time>2026-04-19T08:02:12.282Z</time></trkpt><trkpt lat="43.505205" lon="11.1749324"><ele>271.0</ele><time>2026-04-19T08:02:13.292Z</time></trkpt><trkpt lat="43.5052765" lon="11.1748764"><ele>271.0</ele><time>2026-04-19T08:02:14.28Z</time></trkpt><trkpt lat="43.5053394" lon="11.1748325"><ele>271.0</ele><time>2026-04-19T08:02:15.305Z</time></trkpt><trkpt lat="43.5054018" lon="11.1747853"><ele>271.0</ele><time>2026-04-19T08:02:16.299Z</time></trkpt><trkpt lat="43.5054993" lon="11.1747255"><ele>271.0</ele><time>2026-04-19T08:02:18.29Z</time></trkpt><trkpt lat="43.5055991" lon="11.1746661"><ele>270.40000000000003</ele><time>2026-04-19T08:02:20.308Z</time></trkpt><trkpt lat="43.5056842" lon="11.1746054"><ele>269.8</ele><time>2026-04-19T08:02:22.299Z</time></trkpt><trkpt lat="43.505772" lon="11.1745582"><ele>269.20000000000005</ele><time>2026-04-19T08:02:24.299Z</time></trkpt><trkpt lat="43.5058656" lon="11.1745299"><ele>268.6</ele><time>2026-04-19T08:02:26.286Z</time></trkpt><trkpt lat="43.5059504" lon="11.174517"><ele>268.0</ele><time>2026-04-19T08:02:28.301Z</time></trkpt><trkpt lat="43.506028" lon="11.1745325"><ele>268.0</ele><time>2026-04-19T08:02:30.303Z</time></trkpt><trkpt lat="43.5061164" lon="11.1745642"><ele>268.0</ele><time>2026-04-19T08:02:32.299Z</time></trkpt><trkpt lat="43.5061939" lon="11.174636"><ele>268.0</ele><time>2026-04-19T08:02:34.295Z</time></trkpt><trkpt lat="43.5062576" lon="11.1747427"><ele>268.0</ele><time>2026-04-19T08:02:36.304Z</time></trkpt><trkpt lat="43.5063115" lon="11.1748881"><ele>268.0</ele><time>2026-04-19T08:02:38.301Z</time></trkpt><trkpt lat="43.506334" lon="11.1749716"><ele>269.3333333333333</ele><time>2026-04-19T08:02:39.298Z</time></trkpt><trkpt lat="43.506349" lon="11.1750606"><ele>270.66666666666663</ele><time>2026-04-19T08:02:40.303Z</time></trkpt><trkpt lat="43.5063515" lon="11.1751582"><ele>272.0</ele><time>2026-04-19T08:02:41.305Z</time></trkpt><trkpt lat="43.5063469" lon="11.17526"><ele>273.3333333333333</ele><time>2026-04-19T08:02:42.293Z</time></trkpt><trkpt lat="43.5063333" lon="11.1753617"><ele>274.6666666666667</ele><time>2026-04-19T08:02:43.307Z</time></trkpt><trkpt lat="43.5063145" lon="11.1754829"><ele>276.0</ele><time>2026-04-19T08:02:44.282Z</time></trkpt><trkpt lat="43.5062894" lon="11.1756182"><ele>277.8</ele><time>2026-04-19T08:02:45.295Z</time></trkpt><trkpt lat="43.5062643" lon="11.1757494"><ele>279.6</ele><time>2026-04-19T08:02:46.304Z</time></trkpt><trkpt lat="43.5062416" lon="11.1758806"><ele>281.4</ele><time>2026-04-19T08:02:47.308Z</time></trkpt><trkpt lat="43.5062142" lon="11.1760024"><ele>283.2</ele><time>2026-04-19T08:02:48.302Z</time></trkpt><trkpt lat="43.5061945" lon="11.1761237"><ele>285.0</ele><time>2026-04-19T08:02:49.296Z</time></trkpt><trkpt lat="43.5061889" lon="11.1762424"><ele>285.57142857142856</ele><time>2026-04-19T08:02:50.303Z</time></trkpt><trkpt lat="43.5061932" lon="11.1763587"><ele>286.14285714285717</ele><time>2026-04-19T08:02:51.313Z</time></trkpt><trkpt lat="43.5062032" lon="11.1764634"><ele>286.7142857142857</ele><time>2026-04-19T08:02:52.31Z</time></trkpt><trkpt lat="43.5062152" lon="11.1765611"><ele>287.2857142857143</ele><time>2026-04-19T08:02:53.3Z</time></trkpt><trkpt lat="43.5062277" lon="11.1766533"><ele>287.85714285714283</ele><time>2026-04-19T08:02:54.305Z</time></trkpt><trkpt lat="43.5062386" lon="11.1767507"><ele>288.42857142857144</ele><time>2026-04-19T08:02:55.299Z</time></trkpt><trkpt lat="43.506259" lon="11.1768371"><ele>289.0</ele><time>2026-04-19T08:02:56.307Z</time></trkpt><trkpt lat="43.5063141" lon="11.1769839"><ele>290.59999999999997</ele><time>2026-04-19T08:02:58.306Z</time></trkpt><trkpt lat="43.5064045" lon="11.1770924"><ele>292.2</ele><time>2026-04-19T08:03:00.306Z</time></trkpt><trkpt lat="43.506493" lon="11.1771661"><ele>293.79999999999995</ele><time>2026-04-19T08:03:02.308Z</time></trkpt><trkpt lat="43.5065821" lon="11.1772331"><ele>295.4</ele><time>2026-04-19T08:03:04.293Z</time></trkpt><trkpt lat="43.5066753" lon="11.1772563"><ele>297.0</ele><time>2026-04-19T08:03:06.287Z</time></trkpt><trkpt lat="43.5067704" lon="11.1772513"><ele>297.0</ele><time>2026-04-19T08:03:08.302Z</time></trkpt><trkpt lat="43.506889" lon="11.1772193"><ele>297.0</ele><time>2026-04-19T08:03:10.305Z</time></trkpt><trkpt lat="43.5069528" lon="11.1772029"><ele>297.0</ele><time>2026-04-19T08:03:11.298Z</time></trkpt><trkpt lat="43.5070191" lon="11.1771866"><ele>297.0</ele><time>2026-04-19T08:03:12.292Z</time></trkpt><trkpt lat="43.5070921" lon="11.1771798"><ele>297.0</ele><time>2026-04-19T08:03:13.302Z</time></trkpt><trkpt lat="43.5071658" lon="11.1771807"><ele>297.0</ele><time>2026-04-19T08:03:14.309Z</time></trkpt><trkpt lat="43.5072429" lon="11.1771847"><ele>298.4</ele><time>2026-04-19T08:03:15.297Z</time></trkpt><trkpt lat="43.5073206" lon="11.177183"><ele>299.79999999999995</ele><time>2026-04-19T08:03:16.293Z</time></trkpt><trkpt lat="43.5073936" lon="11.1771717"><ele>301.2</ele><time>2026-04-19T08:03:17.296Z</time></trkpt><trkpt lat="43.5075117" lon="11.1771532"><ele>302.59999999999997</ele><time>2026-04-19T08:03:19.305Z</time></trkpt><trkpt lat="43.5076439" lon="11.1771833"><ele>304.0</ele><time>2026-04-19T08:03:21.304Z</time></trkpt><trkpt lat="43.5077307" lon="11.1772142"><ele>304.0</ele><time>2026-04-19T08:03:22.296Z</time></trkpt><trkpt lat="43.5078227" lon="11.1772468"><ele>304.0</ele><time>2026-04-19T08:03:23.297Z</time></trkpt><trkpt lat="43.5079201" lon="11.177295"><ele>304.0</ele><time>2026-04-19T08:03:24.308Z</time></trkpt><trkpt lat="43.508024" lon="11.1773325"><ele>304.0</ele><time>2026-04-19T08:03:25.298Z</time></trkpt><trkpt lat="43.5081269" lon="11.1773572"><ele>304.0</ele><time>2026-04-19T08:03:26.282Z</time></trkpt><trkpt lat="43.5082372" lon="11.1773955"><ele>308.2</ele><time>2026-04-19T08:03:27.308Z</time></trkpt><trkpt lat="43.5083514" lon="11.1774426"><ele>312.4</ele><time>2026-04-19T08:03:28.295Z</time></trkpt><trkpt lat="43.5084578" lon="11.1774778"><ele>316.6</ele><time>2026-04-19T08:03:29.3Z</time></trkpt><trkpt lat="43.5085636" lon="11.1774968"><ele>320.8</ele><time>2026-04-19T08:03:30.284Z</time></trkpt><trkpt lat="43.5086697" lon="11.1774981"><ele>325.0</ele><time>2026-04-19T08:03:31.304Z</time></trkpt><trkpt lat="43.5087777" lon="11.1775014"><ele>326.8</ele><time>2026-04-19T08:03:32.303Z</time></trkpt><trkpt lat="43.5088846" lon="11.1775058"><ele>328.6</ele><time>2026-04-19T08:03:33.296Z</time></trkpt><trkpt lat="43.508995" lon="11.1775194"><ele>330.4</ele><time>2026-04-19T08:03:34.307Z</time></trkpt><trkpt lat="43.5091002" lon="11.1775355"><ele>332.2</ele><time>2026-04-19T08:03:35.301Z</time></trkpt><trkpt lat="43.5091916" lon="11.177554"><ele>334.0</ele><time>2026-04-19T08:03:36.301Z</time></trkpt><trkpt lat="43.5092648" lon="11.1775682"><ele>334.0</ele><time>2026-04-19T08:03:37.304Z</time></trkpt><trkpt lat="43.5093358" lon="11.1775898"><ele>334.0</ele><time>2026-04-19T08:03:38.309Z</time></trkpt><trkpt lat="43.5094056" lon="11.1776207"><ele>334.0</ele><time>2026-04-19T08:03:39.293Z</time></trkpt><trkpt lat="43.5094737" lon="11.1776679"><ele>334.0</ele><time>2026-04-19T08:03:40.286Z</time></trkpt><trkpt lat="43.5095495" lon="11.1777258"><ele>334.0</ele><time>2026-04-19T08:03:41.306Z</time></trkpt><trkpt lat="43.5096163" lon="11.1777885"><ele>334.0</ele><time>2026-04-19T08:03:42.291Z</time></trkpt><trkpt lat="43.5096737" lon="11.177842"><ele>333.5</ele><time>2026-04-19T08:03:43.29Z</time></trkpt><trkpt lat="43.5097277" lon="11.177895"><ele>333.0</ele><time>2026-04-19T08:03:44.307Z</time></trkpt><trkpt lat="43.5097795" lon="11.1779499"><ele>332.5</ele><time>2026-04-19T08:03:45.288Z</time></trkpt><trkpt lat="43.5098363" lon="11.1780184"><ele>332.0</ele><time>2026-04-19T08:03:46.304Z</time></trkpt><trkpt lat="43.5098895" lon="11.1780943"><ele>331.5</ele><time>2026-04-19T08:03:47.304Z</time></trkpt><trkpt lat="43.5099483" lon="11.1781849"><ele>331.0</ele><time>2026-04-19T08:03:48.3Z</time></trkpt><trkpt lat="43.5100075" lon="11.1783086"><ele>333.8333333333333</ele><time>2026-04-19T08:03:49.299Z</time></trkpt><trkpt lat="43.5100492" lon="11.1784086"><ele>336.66666666666663</ele><time>2026-04-19T08:03:50.299Z</time></trkpt><trkpt lat="43.5100861" lon="11.1784934"><ele>339.5</ele><time>2026-04-19T08:03:51.303Z</time></trkpt><trkpt lat="43.510133" lon="11.178561"><ele>342.3333333333333</ele><time>2026-04-19T08:03:52.312Z</time></trkpt><trkpt lat="43.5102049" lon="11.1786298"><ele>345.1666666666667</ele><time>2026-04-19T08:03:53.307Z</time></trkpt><trkpt lat="43.5102898" lon="11.1786841"><ele>348.0</ele><time>2026-04-19T08:03:54.302Z</time></trkpt><trkpt lat="43.5103712" lon="11.1787159"><ele>345.5</ele><time>2026-04-19T08:03:55.296Z</time></trkpt><trkpt lat="43.5104636" lon="11.1787521"><ele>343.0</ele><time>2026-04-19T08:03:56.287Z</time></trkpt><trkpt lat="43.5105792" lon="11.1787638"><ele>340.5</ele><time>2026-04-19T08:03:57.307Z</time></trkpt><trkpt lat="43.5107135" lon="11.1787569"><ele>338.0</ele><time>2026-04-19T08:03:58.298Z</time></trkpt><trkpt lat="43.5108473" lon="11.1787455"><ele>338.0</ele><time>2026-04-19T08:03:59.305Z</time></trkpt><trkpt lat="43.5109663" lon="11.1787467"><ele>338.0</ele><time>2026-04-19T08:04:00.3Z</time></trkpt><trkpt lat="43.5110846" lon="11.1787565"><ele>338.0</ele><time>2026-04-19T08:04:01.301Z</time></trkpt><trkpt lat="43.5112021" lon="11.1787646"><ele>338.0</ele><time>2026-04-19T08:04:02.314Z</time></trkpt><trkpt lat="43.5113188" lon="11.1787801"><ele>337.5</ele><time>2026-04-19T08:04:03.297Z</time></trkpt><trkpt lat="43.5114383" lon="11.1788137"><ele>337.0</ele><time>2026-04-19T08:04:04.297Z</time></trkpt><trkpt lat="43.5115566" lon="11.1788587"><ele>336.5</ele><time>2026-04-19T08:04:05.31Z</time></trkpt><trkpt lat="43.5116763" lon="11.1788933"><ele>336.0</ele><time>2026-04-19T08:04:06.3Z</time></trkpt><trkpt lat="43.511788" lon="11.1789319"><ele>336.0</ele><time>2026-04-19T08:04:07.304Z</time></trkpt><trkpt lat="43.511885" lon="11.1789733"><ele>336.0</ele><time>2026-04-19T08:04:08.302Z</time></trkpt><trkpt lat="43.5119804" lon="11.1790209"><ele>336.0</ele><time>2026-04-19T08:04:09.281Z</time></trkpt><trkpt lat="43.51206" lon="11.1790717"><ele>336.0</ele><time>2026-04-19T08:04:10.3Z</time></trkpt><trkpt lat="43.5121238" lon="11.1791251"><ele>336.0</ele><time>2026-04-19T08:04:11.284Z</time></trkpt><trkpt lat="43.5121801" lon="11.179203"><ele>336.0</ele><time>2026-04-19T08:04:12.292Z</time></trkpt><trkpt lat="43.5122205" lon="11.179301"><ele>336.4</ele><time>2026-04-19T08:04:13.303Z</time></trkpt><trkpt lat="43.5122632" lon="11.1794085"><ele>336.8</ele><time>2026-04-19T08:04:14.298Z</time></trkpt><trkpt lat="43.5123103" lon="11.1795302"><ele>337.2</ele><time>2026-04-19T08:04:15.296Z</time></trkpt><trkpt lat="43.5123505" lon="11.1796568"><ele>337.59999999999997</ele><time>2026-04-19T08:04:16.301Z</time></trkpt><trkpt lat="43.5123984" lon="11.1797907"><ele>338.0</ele><time>2026-04-19T08:04:17.293Z</time></trkpt><trkpt lat="43.512468" lon="11.17992"><ele>339.0</ele><time>2026-04-19T08:04:18.299Z</time></trkpt><trkpt lat="43.5125543" lon="11.1800419"><ele>340.0</ele><time>2026-04-19T08:04:19.298Z</time></trkpt><trkpt lat="43.5126523" lon="11.1801576"><ele>341.0</ele><time>2026-04-19T08:04:20.295Z</time></trkpt><trkpt lat="43.5127424" lon="11.1802744"><ele>342.0</ele><time>2026-04-19T08:04:21.305Z</time></trkpt><trkpt lat="43.5128341" lon="11.1803778"><ele>336.75</ele><time>2026-04-19T08:04:22.303Z</time></trkpt><trkpt lat="43.5129249" lon="11.1804662"><ele>331.5</ele><time>2026-04-19T08:04:23.28Z</time></trkpt><trkpt lat="43.5130215" lon="11.1805506"><ele>326.25</ele><time>2026-04-19T08:04:24.313Z</time></trkpt><trkpt lat="43.513119" lon="11.1806351"><ele>321.0</ele><time>2026-04-19T08:04:25.285Z</time></trkpt><trkpt lat="43.5132194" lon="11.1807156"><ele>321.0</ele><time>2026-04-19T08:04:26.288Z</time></trkpt><trkpt lat="43.5133173" lon="11.1808032"><ele>321.0</ele><time>2026-04-19T08:04:27.311Z</time></trkpt><trkpt lat="43.5134046" lon="11.1809006"><ele>321.0</ele><time>2026-04-19T08:04:28.298Z</time></trkpt><trkpt lat="43.513487" lon="11.1809954"><ele>321.0</ele><time>2026-04-19T08:04:29.301Z</time></trkpt><trkpt lat="43.5135713" lon="11.1810961"><ele>321.0</ele><time>2026-04-19T08:04:30.302Z</time></trkpt><trkpt lat="43.5136496" lon="11.1811891"><ele>321.0</ele><time>2026-04-19T08:04:31.291Z</time></trkpt><trkpt lat="43.5137189" lon="11.1812634"><ele>321.0</ele><time>2026-04-19T08:04:32.315Z</time></trkpt><trkpt lat="43.5137843" lon="11.181334"><ele>321.0</ele><time>2026-04-19T08:04:33.296Z</time></trkpt><trkpt lat="43.5138493" lon="11.1814029"><ele>321.0</ele><time>2026-04-19T08:04:34.301Z</time></trkpt><trkpt lat="43.5139121" lon="11.1815026"><ele>321.0</ele><time>2026-04-19T08:04:35.301Z</time></trkpt><trkpt lat="43.5139791" lon="11.1816155"><ele>318.0</ele><time>2026-04-19T08:04:36.297Z</time></trkpt><trkpt lat="43.5140376" lon="11.1817373"><ele>315.0</ele><time>2026-04-19T08:04:37.279Z</time></trkpt><trkpt lat="43.5140964" lon="11.1818692"><ele>312.0</ele><time>2026-04-19T08:04:38.294Z</time></trkpt><trkpt lat="43.5141552" lon="11.1819961"><ele>309.0</ele><time>2026-04-19T08:04:39.3Z</time></trkpt><trkpt lat="43.5142205" lon="11.1821154"><ele>306.0</ele><time>2026-04-19T08:04:40.308Z</time></trkpt><trkpt lat="43.5142897" lon="11.1822372"><ele>305.5</ele><time>2026-04-19T08:04:41.299Z</time></trkpt><trkpt lat="43.5143635" lon="11.1823632"><ele>305.0</ele><time>2026-04-19T08:04:42.307Z</time></trkpt><trkpt lat="43.5144354" lon="11.1824904"><ele>304.5</ele><time>2026-04-19T08:04:43.304Z</time></trkpt><trkpt lat="43.5145087" lon="11.1826181"><ele>304.0</ele><time>2026-04-19T08:04:44.282Z</time></trkpt><trkpt lat="43.5145791" lon="11.1827367"><ele>303.2</ele><time>2026-04-19T08:04:45.3Z</time></trkpt><trkpt lat="43.5146475" lon="11.1828525"><ele>302.4</ele><time>2026-04-19T08:04:46.305Z</time></trkpt><trkpt lat="43.5147174" lon="11.1829586"><ele>301.6</ele><time>2026-04-19T08:04:47.295Z</time></trkpt><trkpt lat="43.5147985" lon="11.1830589"><ele>300.8</ele><time>2026-04-19T08:04:48.308Z</time></trkpt><trkpt lat="43.514883" lon="11.1831443"><ele>300.0</ele><time>2026-04-19T08:04:49.31Z</time></trkpt><trkpt lat="43.5149703" lon="11.183221"><ele>299.2</ele><time>2026-04-19T08:04:50.311Z</time></trkpt><trkpt lat="43.5150632" lon="11.1832935"><ele>298.4</ele><time>2026-04-19T08:04:51.308Z</time></trkpt><trkpt lat="43.5151573" lon="11.1833578"><ele>297.6</ele><time>2026-04-19T08:04:52.305Z</time></trkpt><trkpt lat="43.5152338" lon="11.1834225"><ele>296.8</ele><time>2026-04-19T08:04:53.302Z</time></trkpt><trkpt lat="43.5153101" lon="11.1835035"><ele>296.0</ele><time>2026-04-19T08:04:54.298Z</time></trkpt><trkpt lat="43.515392" lon="11.183602"><ele>295.6</ele><time>2026-04-19T08:04:55.304Z</time></trkpt><trkpt lat="43.5154663" lon="11.1836992"><ele>295.20000000000005</ele><time>2026-04-19T08:04:56.308Z</time></trkpt><trkpt lat="43.5155319" lon="11.18379"><ele>294.79999999999995</ele><time>2026-04-19T08:04:57.303Z</time></trkpt><trkpt lat="43.5155912" lon="11.1838898"><ele>294.4</ele><time>2026-04-19T08:04:58.281Z</time></trkpt><trkpt lat="43.5156377" lon="11.1839962"><ele>294.0</ele><time>2026-04-19T08:04:59.301Z</time></trkpt><trkpt lat="43.5156635" lon="11.1841145"><ele>294.0</ele><time>2026-04-19T08:05:00.29Z</time></trkpt><trkpt lat="43.515668" lon="11.1842523"><ele>294.0</ele><time>2026-04-19T08:05:01.307Z</time></trkpt><trkpt lat="43.5156533" lon="11.1843817"><ele>294.0</ele><time>2026-04-19T08:05:02.304Z</time></trkpt><trkpt lat="43.5156434" lon="11.1845015"><ele>294.0</ele><time>2026-04-19T08:05:03.3Z</time></trkpt><trkpt lat="43.5156367" lon="11.1846161"><ele>294.0</ele><time>2026-04-19T08:05:04.282Z</time></trkpt><trkpt lat="43.5156314" lon="11.184725"><ele>294.0</ele><time>2026-04-19T08:05:05.299Z</time></trkpt><trkpt lat="43.5156306" lon="11.1848332"><ele>292.3333333333333</ele><time>2026-04-19T08:05:06.308Z</time></trkpt><trkpt lat="43.515635" lon="11.184931"><ele>290.6666666666667</ele><time>2026-04-19T08:05:07.297Z</time></trkpt><trkpt lat="43.5156274" lon="11.1851024"><ele>289.0</ele><time>2026-04-19T08:05:09.302Z</time></trkpt><trkpt lat="43.5156178" lon="11.185191"><ele>287.33333333333337</ele><time>2026-04-19T08:05:10.285Z</time></trkpt><trkpt lat="43.5156094" lon="11.1852937"><ele>285.6666666666667</ele><time>2026-04-19T08:05:11.293Z</time></trkpt><trkpt lat="43.5155914" lon="11.1854141"><ele>284.0</ele><time>2026-04-19T08:05:12.316Z</time></trkpt><trkpt lat="43.5155648" lon="11.1855538"><ele>281.75</ele><time>2026-04-19T08:05:13.303Z</time></trkpt><trkpt lat="43.5155321" lon="11.1857279"><ele>279.5</ele><time>2026-04-19T08:05:14.305Z</time></trkpt><trkpt lat="43.5154962" lon="11.185909"><ele>277.25</ele><time>2026-04-19T08:05:15.28Z</time></trkpt><trkpt lat="43.5154609" lon="11.1861039"><ele>275.0</ele><time>2026-04-19T08:05:16.31Z</time></trkpt><trkpt lat="43.5154263" lon="11.1863203"><ele>273.5</ele><time>2026-04-19T08:05:17.298Z</time></trkpt><trkpt lat="43.5153909" lon="11.1865311"><ele>272.0</ele><time>2026-04-19T08:05:18.305Z</time></trkpt><trkpt lat="43.5153548" lon="11.18673"><ele>270.5</ele><time>2026-04-19T08:05:19.301Z</time></trkpt><trkpt lat="43.5153194" lon="11.1869096"><ele>269.0</ele><time>2026-04-19T08:05:20.296Z</time></trkpt><trkpt lat="43.5152903" lon="11.1870745"><ele>269.0</ele><time>2026-04-19T08:05:21.301Z</time></trkpt><trkpt lat="43.5152688" lon="11.1872307"><ele>269.0</ele><time>2026-04-19T08:05:22.295Z</time></trkpt><trkpt lat="43.5152556" lon="11.1873784"><ele>269.0</ele><time>2026-04-19T08:05:23.28Z</time></trkpt><trkpt lat="43.5152483" lon="11.1875262"><ele>269.0</ele><time>2026-04-19T08:05:24.298Z</time></trkpt><trkpt lat="43.5152601" lon="11.1876843"><ele>269.0</ele><time>2026-04-19T08:05:25.28Z</time></trkpt><trkpt lat="43.515294" lon="11.1878529"><ele>269.0</ele><time>2026-04-19T08:05:26.287Z</time></trkpt><trkpt lat="43.5153409" lon="11.1880246"><ele>269.0</ele><time>2026-04-19T08:05:27.302Z</time></trkpt><trkpt lat="43.5154012" lon="11.1882041"><ele>269.0</ele><time>2026-04-19T08:05:28.304Z</time></trkpt><trkpt lat="43.5154689" lon="11.1883768"><ele>269.0</ele><time>2026-04-19T08:05:29.311Z</time></trkpt><trkpt lat="43.5155479" lon="11.1885357"><ele>269.0</ele><time>2026-04-19T08:05:30.302Z</time></trkpt><trkpt lat="43.5156427" lon="11.1886895"><ele>269.0</ele><time>2026-04-19T08:05:31.296Z</time></trkpt><trkpt lat="43.5157505" lon="11.1888314"><ele>269.0</ele><time>2026-04-19T08:05:32.298Z</time></trkpt><trkpt lat="43.5158491" lon="11.188946"><ele>269.0</ele><time>2026-04-19T08:05:33.307Z</time></trkpt><trkpt lat="43.5159395" lon="11.1890487"><ele>269.5</ele><time>2026-04-19T08:05:34.309Z</time></trkpt><trkpt lat="43.5160232" lon="11.1891467"><ele>270.0</ele><time>2026-04-19T08:05:35.298Z</time></trkpt><trkpt lat="43.5160853" lon="11.1892359"><ele>270.5</ele><time>2026-04-19T08:05:36.302Z</time></trkpt><trkpt lat="43.5161334" lon="11.1893304"><ele>271.0</ele><time>2026-04-19T08:05:37.293Z</time></trkpt><trkpt lat="43.5161623" lon="11.1894203"><ele>271.5</ele><time>2026-04-19T08:05:38.296Z</time></trkpt><trkpt lat="43.5161708" lon="11.1895224"><ele>272.0</ele><time>2026-04-19T08:05:39.297Z</time></trkpt><trkpt lat="43.5161734" lon="11.1896532"><ele>272.0</ele><time>2026-04-19T08:05:40.312Z</time></trkpt><trkpt lat="43.5162012" lon="11.1898111"><ele>272.0</ele><time>2026-04-19T08:05:41.288Z</time></trkpt><trkpt lat="43.5162445" lon="11.1899829"><ele>272.0</ele><time>2026-04-19T08:05:42.303Z</time></trkpt><trkpt lat="43.5162899" lon="11.1901393"><ele>272.0</ele><time>2026-04-19T08:05:43.292Z</time></trkpt><trkpt lat="43.5163308" lon="11.1902921"><ele>270.5</ele><time>2026-04-19T08:05:44.31Z</time></trkpt><trkpt lat="43.5163824" lon="11.1904478"><ele>269.0</ele><time>2026-04-19T08:05:45.299Z</time></trkpt><trkpt lat="43.5164558" lon="11.1905918"><ele>267.5</ele><time>2026-04-19T08:05:46.281Z</time></trkpt><trkpt lat="43.5165373" lon="11.1907344"><ele>266.0</ele><time>2026-04-19T08:05:47.297Z</time></trkpt><trkpt lat="43.5166295" lon="11.1908855"><ele>266.0</ele><time>2026-04-19T08:05:48.306Z</time></trkpt><trkpt lat="43.5167204" lon="11.1910491"><ele>266.0</ele><time>2026-04-19T08:05:49.296Z</time></trkpt><trkpt lat="43.5168098" lon="11.1912102"><ele>266.0</ele><time>2026-04-19T08:05:50.306Z</time></trkpt><trkpt lat="43.5169041" lon="11.1913727"><ele>266.0</ele><time>2026-04-19T08:05:51.296Z</time></trkpt><trkpt lat="43.5169968" lon="11.1915319"><ele>267.25</ele><time>2026-04-19T08:05:52.29Z</time></trkpt><trkpt lat="43.5170897" lon="11.191689"><ele>268.5</ele><time>2026-04-19T08:05:53.293Z</time></trkpt><trkpt lat="43.5171796" lon="11.1918365"><ele>269.75</ele><time>2026-04-19T08:05:54.308Z</time></trkpt><trkpt lat="43.5172633" lon="11.1919862"><ele>271.0</ele><time>2026-04-19T08:05:55.311Z</time></trkpt><trkpt lat="43.5173414" lon="11.1921365"><ele>271.0</ele><time>2026-04-19T08:05:56.29Z</time></trkpt><trkpt lat="43.5174192" lon="11.1922787"><ele>271.0</ele><time>2026-04-19T08:05:57.298Z</time></trkpt><trkpt lat="43.5175015" lon="11.1924063"><ele>271.0</ele><time>2026-04-19T08:05:58.296Z</time></trkpt><trkpt lat="43.5175732" lon="11.1925337"><ele>271.0</ele><time>2026-04-19T08:05:59.296Z</time></trkpt><trkpt lat="43.5176406" lon="11.1926588"><ele>272.0</ele><time>2026-04-19T08:06:00.311Z</time></trkpt><trkpt lat="43.517703" lon="11.1927736"><ele>273.0</ele><time>2026-04-19T08:06:01.292Z</time></trkpt><trkpt lat="43.5177589" lon="11.1928708"><ele>274.0</ele><time>2026-04-19T08:06:02.3Z</time></trkpt><trkpt lat="43.5178101" lon="11.192946"><ele>275.0</ele><time>2026-04-19T08:06:03.307Z</time></trkpt><trkpt lat="43.5178625" lon="11.1930095"><ele>276.0</ele><time>2026-04-19T08:06:04.297Z</time></trkpt><trkpt lat="43.5179633" lon="11.1931239"><ele>278.5</ele><time>2026-04-19T08:06:06.297Z</time></trkpt><trkpt lat="43.5180207" lon="11.1931803"><ele>281.0</ele><time>2026-04-19T08:06:07.307Z</time></trkpt><trkpt lat="43.5180853" lon="11.1932392"><ele>283.5</ele><time>2026-04-19T08:06:08.283Z</time></trkpt><trkpt lat="43.5181472" lon="11.1933037"><ele>286.0</ele><time>2026-04-19T08:06:09.3Z</time></trkpt><trkpt lat="43.518207" lon="11.1933728"><ele>288.5</ele><time>2026-04-19T08:06:10.308Z</time></trkpt><trkpt lat="43.5182605" lon="11.1934447"><ele>291.0</ele><time>2026-04-19T08:06:11.294Z</time></trkpt><trkpt lat="43.5183332" lon="11.1935648"><ele>291.0</ele><time>2026-04-19T08:06:13.302Z</time></trkpt><trkpt lat="43.5184141" lon="11.1936714"><ele>291.0</ele><time>2026-04-19T08:06:15.299Z</time></trkpt><trkpt lat="43.5185069" lon="11.1937404"><ele>291.0</ele><time>2026-04-19T08:06:17.295Z</time></trkpt><trkpt lat="43.5185973" lon="11.1938102"><ele>291.0</ele><time>2026-04-19T08:06:19.3Z</time></trkpt><trkpt lat="43.5186705" lon="11.1938984"><ele>291.0</ele><time>2026-04-19T08:06:21.299Z</time></trkpt><trkpt lat="43.5187124" lon="11.1940428"><ele>289.75</ele><time>2026-04-19T08:06:23.294Z</time></trkpt><trkpt lat="43.518736" lon="11.1941961"><ele>288.5</ele><time>2026-04-19T08:06:25.311Z</time></trkpt><trkpt lat="43.5188081" lon="11.194303"><ele>287.25</ele><time>2026-04-19T08:06:27.306Z</time></trkpt><trkpt lat="43.518894" lon="11.194413"><ele>286.0</ele><time>2026-04-19T08:06:29.295Z</time></trkpt><trkpt lat="43.5189819" lon="11.1945281"><ele>286.0</ele><time>2026-04-19T08:06:31.321Z</time></trkpt><trkpt lat="43.5190719" lon="11.1946224"><ele>286.0</ele><time>2026-04-19T08:06:33.305Z</time></trkpt><trkpt lat="43.5191853" lon="11.194653"><ele>286.0</ele><time>2026-04-19T08:06:35.297Z</time></trkpt><trkpt lat="43.5192651" lon="11.1946728"><ele>286.0</ele><time>2026-04-19T08:06:36.289Z</time></trkpt><trkpt lat="43.5193513" lon="11.1946874"><ele>286.0</ele><time>2026-04-19T08:06:37.319Z</time></trkpt><trkpt lat="43.5194363" lon="11.1947068"><ele>286.0</ele><time>2026-04-19T08:06:38.319Z</time></trkpt><trkpt lat="43.5195208" lon="11.194724"><ele>286.0</ele><time>2026-04-19T08:06:39.306Z</time></trkpt><trkpt lat="43.5196077" lon="11.1947239"><ele>286.0</ele><time>2026-04-19T08:06:40.288Z</time></trkpt><trkpt lat="43.5196924" lon="11.1947103"><ele>286.0</ele><time>2026-04-19T08:06:41.294Z</time></trkpt><trkpt lat="43.5197802" lon="11.1946985"><ele>286.0</ele><time>2026-04-19T08:06:42.298Z</time></trkpt><trkpt lat="43.5198622" lon="11.1946963"><ele>286.0</ele><time>2026-04-19T08:06:43.304Z</time></trkpt><trkpt lat="43.5199418" lon="11.1946992"><ele>283.5</ele><time>2026-04-19T08:06:44.302Z</time></trkpt><trkpt lat="43.520016" lon="11.1947187"><ele>281.0</ele><time>2026-04-19T08:06:45.28Z</time></trkpt><trkpt lat="43.5200925" lon="11.1947255"><ele>278.5</ele><time>2026-04-19T08:06:46.314Z</time></trkpt><trkpt lat="43.5201724" lon="11.1947246"><ele>276.0</ele><time>2026-04-19T08:06:47.305Z</time></trkpt><trkpt lat="43.5202702" lon="11.1947381"><ele>273.5</ele><time>2026-04-19T08:06:48.314Z</time></trkpt><trkpt lat="43.5203773" lon="11.194772"><ele>271.0</ele><time>2026-04-19T08:06:49.298Z</time></trkpt><trkpt lat="43.520496" lon="11.1948164"><ele>270.75</ele><time>2026-04-19T08:06:50.301Z</time></trkpt><trkpt lat="43.5206249" lon="11.1948619"><ele>270.5</ele><time>2026-04-19T08:06:51.31Z</time></trkpt><trkpt lat="43.520756" lon="11.1949159"><ele>270.25</ele><time>2026-04-19T08:06:52.295Z</time></trkpt><trkpt lat="43.5208906" lon="11.1949624"><ele>270.0</ele><time>2026-04-19T08:06:53.3Z</time></trkpt><trkpt lat="43.5210267" lon="11.1950153"><ele>270.0</ele><time>2026-04-19T08:06:54.301Z</time></trkpt><trkpt lat="43.5211703" lon="11.1950731"><ele>270.0</ele><time>2026-04-19T08:06:55.302Z</time></trkpt><trkpt lat="43.5213161" lon="11.1951261"><ele>270.0</ele><time>2026-04-19T08:06:56.28Z</time></trkpt><trkpt lat="43.5214518" lon="11.195171"><ele>270.0</ele><time>2026-04-19T08:06:57.307Z</time></trkpt><trkpt lat="43.5215793" lon="11.1952103"><ele>270.25</ele><time>2026-04-19T08:06:58.3Z</time></trkpt><trkpt lat="43.5217102" lon="11.1952564"><ele>270.5</ele><time>2026-04-19T08:06:59.303Z</time></trkpt><trkpt lat="43.5218467" lon="11.1953086"><ele>270.75</ele><time>2026-04-19T08:07:00.292Z</time></trkpt><trkpt lat="43.5219792" lon="11.1953567"><ele>271.0</ele><time>2026-04-19T08:07:01.298Z</time></trkpt><trkpt lat="43.5220967" lon="11.1953986"><ele>272.5</ele><time>2026-04-19T08:07:02.304Z</time></trkpt><trkpt lat="43.5222046" lon="11.1954425"><ele>274.0</ele><time>2026-04-19T08:07:03.304Z</time></trkpt><trkpt lat="43.5223131" lon="11.1954808"><ele>275.5</ele><time>2026-04-19T08:07:04.301Z</time></trkpt><trkpt lat="43.5224269" lon="11.1955288"><ele>277.0</ele><time>2026-04-19T08:07:05.31Z</time></trkpt><trkpt lat="43.5225392" lon="11.195591"><ele>277.0</ele><time>2026-04-19T08:07:06.297Z</time></trkpt><trkpt lat="43.5226525" lon="11.1956599"><ele>277.0</ele><time>2026-04-19T08:07:07.297Z</time></trkpt><trkpt lat="43.5227692" lon="11.1957304"><ele>277.0</ele><time>2026-04-19T08:07:08.292Z</time></trkpt><trkpt lat="43.5228737" lon="11.1958047"><ele>277.0</ele><time>2026-04-19T08:07:09.299Z</time></trkpt><trkpt lat="43.5229714" lon="11.1958787"><ele>277.8</ele><time>2026-04-19T08:07:10.305Z</time></trkpt><trkpt lat="43.5230595" lon="11.1959562"><ele>278.6</ele><time>2026-04-19T08:07:11.3Z</time></trkpt><trkpt lat="43.5231363" lon="11.1960314"><ele>279.40000000000003</ele><time>2026-04-19T08:07:12.301Z</time></trkpt><trkpt lat="43.5232056" lon="11.1961066"><ele>280.2</ele><time>2026-04-19T08:07:13.289Z</time></trkpt><trkpt lat="43.5232792" lon="11.196186"><ele>281.0</ele><time>2026-04-19T08:07:14.298Z</time></trkpt><trkpt lat="43.523348" lon="11.1962672"><ele>281.0</ele><time>2026-04-19T08:07:15.309Z</time></trkpt><trkpt lat="43.523418" lon="11.1963483"><ele>281.0</ele><time>2026-04-19T08:07:16.278Z</time></trkpt><trkpt lat="43.5234982" lon="11.196432"><ele>281.0</ele><time>2026-04-19T08:07:17.308Z</time></trkpt><trkpt lat="43.5235849" lon="11.1965179"><ele>281.0</ele><time>2026-04-19T08:07:18.292Z</time></trkpt><trkpt lat="43.5236777" lon="11.1966047"><ele>281.0</ele><time>2026-04-19T08:07:19.312Z</time></trkpt><trkpt lat="43.5237649" lon="11.1966829"><ele>281.83333333333337</ele><time>2026-04-19T08:07:20.305Z</time></trkpt><trkpt lat="43.5238443" lon="11.1967508"><ele>282.6666666666667</ele><time>2026-04-19T08:07:21.31Z</time></trkpt><trkpt lat="43.523915" lon="11.1968131"><ele>283.5</ele><time>2026-04-19T08:07:22.307Z</time></trkpt><trkpt lat="43.523977" lon="11.1968806"><ele>284.3333333333333</ele><time>2026-04-19T08:07:23.306Z</time></trkpt><trkpt lat="43.5240331" lon="11.1969581"><ele>285.16666666666663</ele><time>2026-04-19T08:07:24.302Z</time></trkpt><trkpt lat="43.524093" lon="11.1970482"><ele>286.0</ele><time>2026-04-19T08:07:25.296Z</time></trkpt><trkpt lat="43.5241476" lon="11.1971502"><ele>286.0</ele><time>2026-04-19T08:07:26.303Z</time></trkpt><trkpt lat="43.5242009" lon="11.1972527"><ele>286.0</ele><time>2026-04-19T08:07:27.279Z</time></trkpt><trkpt lat="43.5242545" lon="11.1973631"><ele>286.0</ele><time>2026-04-19T08:07:28.304Z</time></trkpt><trkpt lat="43.5243086" lon="11.1974659"><ele>286.0</ele><time>2026-04-19T08:07:29.309Z</time></trkpt><trkpt lat="43.524358" lon="11.19756"><ele>286.0</ele><time>2026-04-19T08:07:30.305Z</time></trkpt><trkpt lat="43.5244058" lon="11.1976566"><ele>286.0</ele><time>2026-04-19T08:07:31.306Z</time></trkpt><trkpt lat="43.5244613" lon="11.197751"><ele>285.8</ele><time>2026-04-19T08:07:32.299Z</time></trkpt><trkpt lat="43.5245259" lon="11.1978324"><ele>285.6</ele><time>2026-04-19T08:07:33.302Z</time></trkpt><trkpt lat="43.5245915" lon="11.1979155"><ele>285.4</ele><time>2026-04-19T08:07:34.3Z</time></trkpt><trkpt lat="43.5246626" lon="11.198005"><ele>285.2</ele><time>2026-04-19T08:07:35.299Z</time></trkpt><trkpt lat="43.5247364" lon="11.1980919"><ele>285.0</ele><time>2026-04-19T08:07:36.294Z</time></trkpt><trkpt lat="43.5248048" lon="11.198183"><ele>285.5</ele><time>2026-04-19T08:07:37.3Z</time></trkpt><trkpt lat="43.5248644" lon="11.1982702"><ele>286.0</ele><time>2026-04-19T08:07:38.293Z</time></trkpt><trkpt lat="43.5249192" lon="11.1983638"><ele>286.5</ele><time>2026-04-19T08:07:39.309Z</time></trkpt><trkpt lat="43.5249711" lon="11.1984671"><ele>287.0</ele><time>2026-04-19T08:07:40.289Z</time></trkpt><trkpt lat="43.5250214" lon="11.1985619"><ele>287.5</ele><time>2026-04-19T08:07:41.284Z</time></trkpt><trkpt lat="43.5250696" lon="11.1986557"><ele>288.0</ele><time>2026-04-19T08:07:42.3Z</time></trkpt><trkpt lat="43.525117" lon="11.1987374"><ele>288.00000000000006</ele><time>2026-04-19T08:07:43.293Z</time></trkpt><trkpt lat="43.5251639" lon="11.198805"><ele>288.0</ele><time>2026-04-19T08:07:44.3Z</time></trkpt><trkpt lat="43.5252166" lon="11.1988587"><ele>288.0</ele><time>2026-04-19T08:07:45.299Z</time></trkpt><trkpt lat="43.5252782" lon="11.1989038"><ele>288.0</ele><time>2026-04-19T08:07:46.301Z</time></trkpt><trkpt lat="43.5253475" lon="11.198936"><ele>288.0</ele><time>2026-04-19T08:07:47.287Z</time></trkpt><trkpt lat="43.5254238" lon="11.1989774"><ele>288.00000000000006</ele><time>2026-04-19T08:07:48.301Z</time></trkpt><trkpt lat="43.5254896" lon="11.1990327"><ele>288.0</ele><time>2026-04-19T08:07:49.294Z</time></trkpt><trkpt lat="43.5255491" lon="11.199095"><ele>289.6</ele><time>2026-04-19T08:07:50.302Z</time></trkpt><trkpt lat="43.5256129" lon="11.1991617"><ele>291.20000000000005</ele><time>2026-04-19T08:07:51.298Z</time></trkpt><trkpt lat="43.525684" lon="11.1992564"><ele>292.8</ele><time>2026-04-19T08:07:52.304Z</time></trkpt><trkpt lat="43.5257589" lon="11.1993656"><ele>294.40000000000003</ele><time>2026-04-19T08:07:53.297Z</time></trkpt><trkpt lat="43.5258432" lon="11.199487"><ele>296.0</ele><time>2026-04-19T08:07:54.316Z</time></trkpt><trkpt lat="43.5259294" lon="11.1996139"><ele>296.0</ele><time>2026-04-19T08:07:55.296Z</time></trkpt><trkpt lat="43.526008" lon="11.1997182"><ele>296.0</ele><time>2026-04-19T08:07:56.298Z</time></trkpt><trkpt lat="43.5260824" lon="11.1997962"><ele>296.0</ele><time>2026-04-19T08:07:57.304Z</time></trkpt><trkpt lat="43.5261507" lon="11.1998325"><ele>296.0</ele><time>2026-04-19T08:07:58.298Z</time></trkpt><trkpt lat="43.5262252" lon="11.1998574"><ele>296.0</ele><time>2026-04-19T08:07:59.316Z</time></trkpt><trkpt lat="43.5262939" lon="11.1998888"><ele>296.0</ele><time>2026-04-19T08:08:00.297Z</time></trkpt><trkpt lat="43.5263483" lon="11.1999368"><ele>296.8</ele><time>2026-04-19T08:08:01.303Z</time></trkpt><trkpt lat="43.5263844" lon="11.2000085"><ele>297.6</ele><time>2026-04-19T08:08:02.314Z</time></trkpt><trkpt lat="43.5264272" lon="11.2001643"><ele>298.4</ele><time>2026-04-19T08:08:04.297Z</time></trkpt><trkpt lat="43.5264437" lon="11.2003257"><ele>299.2</ele><time>2026-04-19T08:08:05.295Z</time></trkpt><trkpt lat="43.5264774" lon="11.2004931"><ele>300.0</ele><time>2026-04-19T08:08:06.303Z</time></trkpt><trkpt lat="43.5265144" lon="11.2006603"><ele>300.25</ele><time>2026-04-19T08:08:07.274Z</time></trkpt><trkpt lat="43.526553" lon="11.2008148"><ele>300.5</ele><time>2026-04-19T08:08:08.282Z</time></trkpt><trkpt lat="43.526592" lon="11.200977"><ele>300.75</ele><time>2026-04-19T08:08:09.302Z</time></trkpt><trkpt lat="43.5266331" lon="11.201131"><ele>301.0</ele><time>2026-04-19T08:08:10.306Z</time></trkpt><trkpt lat="43.5266693" lon="11.2012662"><ele>301.0</ele><time>2026-04-19T08:08:11.296Z</time></trkpt><trkpt lat="43.5266782" lon="11.2014057"><ele>301.0</ele><time>2026-04-19T08:08:12.304Z</time></trkpt><trkpt lat="43.5266631" lon="11.2015611"><ele>301.0</ele><time>2026-04-19T08:08:13.281Z</time></trkpt><trkpt lat="43.5266574" lon="11.2017235"><ele>301.0</ele><time>2026-04-19T08:08:14.302Z</time></trkpt><trkpt lat="43.5266516" lon="11.2018938"><ele>301.0</ele><time>2026-04-19T08:08:15.301Z</time></trkpt><trkpt lat="43.5266544" lon="11.2020374"><ele>301.0</ele><time>2026-04-19T08:08:16.304Z</time></trkpt><trkpt lat="43.5266632" lon="11.2021948"><ele>301.0</ele><time>2026-04-19T08:08:17.3Z</time></trkpt><trkpt lat="43.5266693" lon="11.2023425"><ele>301.0</ele><time>2026-04-19T08:08:18.309Z</time></trkpt><trkpt lat="43.5266741" lon="11.2024811"><ele>301.0</ele><time>2026-04-19T08:08:19.298Z</time></trkpt><trkpt lat="43.5266781" lon="11.2025935"><ele>300.0</ele><time>2026-04-19T08:08:20.308Z</time></trkpt><trkpt lat="43.526681" lon="11.2026956"><ele>299.0</ele><time>2026-04-19T08:08:21.3Z</time></trkpt><trkpt lat="43.5266918" lon="11.2028374"><ele>298.0</ele><time>2026-04-19T08:08:23.307Z</time></trkpt><trkpt lat="43.5267101" lon="11.2029655"><ele>297.0</ele><time>2026-04-19T08:08:25.301Z</time></trkpt><trkpt lat="43.5267302" lon="11.2030767"><ele>296.0</ele><time>2026-04-19T08:08:27.303Z</time></trkpt><trkpt lat="43.5267471" lon="11.2031722"><ele>295.0</ele><time>2026-04-19T08:08:29.288Z</time></trkpt><trkpt lat="43.526783" lon="11.2032602"><ele>295.0</ele><time>2026-04-19T08:08:32.307Z</time></trkpt><trkpt lat="43.5268613" lon="11.2032683"><ele>295.0</ele><time>2026-04-19T08:08:35.309Z</time></trkpt><trkpt lat="43.5269111" lon="11.203203"><ele>295.0</ele><time>2026-04-19T08:08:38.301Z</time></trkpt><trkpt lat="43.5269855" lon="11.2030717"><ele>295.0</ele><time>2026-04-19T08:08:40.304Z</time></trkpt><trkpt lat="43.5270216" lon="11.2029758"><ele>295.0</ele><time>2026-04-19T08:08:41.292Z</time></trkpt><trkpt lat="43.5270698" lon="11.2028325"><ele>291.5</ele><time>2026-04-19T08:08:42.301Z</time></trkpt><trkpt lat="43.527118" lon="11.2026903"><ele>288.0</ele><time>2026-04-19T08:08:43.299Z</time></trkpt><trkpt lat="43.5271751" lon="11.2025459"><ele>284.5</ele><time>2026-04-19T08:08:44.298Z</time></trkpt><trkpt lat="43.5272544" lon="11.2024163"><ele>281.0</ele><time>2026-04-19T08:08:45.316Z</time></trkpt><trkpt lat="43.5273327" lon="11.2022732"><ele>281.0</ele><time>2026-04-19T08:08:46.304Z</time></trkpt><trkpt lat="43.527398" lon="11.20213"><ele>281.0</ele><time>2026-04-19T08:08:47.297Z</time></trkpt><trkpt lat="43.5274514" lon="11.2020004"><ele>281.0</ele><time>2026-04-19T08:08:48.305Z</time></trkpt><trkpt lat="43.5274812" lon="11.201863"><ele>281.0</ele><time>2026-04-19T08:08:49.298Z</time></trkpt><trkpt lat="43.5274945" lon="11.2017087"><ele>281.0</ele><time>2026-04-19T08:08:50.29Z</time></trkpt><trkpt lat="43.5275025" lon="11.2015299"><ele>281.0</ele><time>2026-04-19T08:08:51.299Z</time></trkpt><trkpt lat="43.5275103" lon="11.2013415"><ele>281.0</ele><time>2026-04-19T08:08:52.302Z</time></trkpt><trkpt lat="43.5275164" lon="11.2011589"><ele>281.0</ele><time>2026-04-19T08:08:53.297Z</time></trkpt><trkpt lat="43.5275302" lon="11.2009866"><ele>281.0</ele><time>2026-04-19T08:08:54.293Z</time></trkpt><trkpt lat="43.5275567" lon="11.2008209"><ele>281.0</ele><time>2026-04-19T08:08:55.281Z</time></trkpt><trkpt lat="43.5275942" lon="11.200684"><ele>281.0</ele><time>2026-04-19T08:08:56.298Z</time></trkpt><trkpt lat="43.5276367" lon="11.200574"><ele>281.0</ele><time>2026-04-19T08:08:57.297Z</time></trkpt><trkpt lat="43.5276709" lon="11.2004851"><ele>281.0</ele><time>2026-04-19T08:08:58.312Z</time></trkpt><trkpt lat="43.5277185" lon="11.2004219"><ele>281.0</ele><time>2026-04-19T08:08:59.294Z</time></trkpt><trkpt lat="43.5277861" lon="11.2003923"><ele>281.0</ele><time>2026-04-19T08:09:00.299Z</time></trkpt><trkpt lat="43.5278707" lon="11.2003906"><ele>276.8</ele><time>2026-04-19T08:09:01.299Z</time></trkpt><trkpt lat="43.5279639" lon="11.2004103"><ele>272.6</ele><time>2026-04-19T08:09:02.302Z</time></trkpt><trkpt lat="43.528053" lon="11.2004329"><ele>268.4</ele><time>2026-04-19T08:09:03.295Z</time></trkpt><trkpt lat="43.5281466" lon="11.200443"><ele>264.2</ele><time>2026-04-19T08:09:04.302Z</time></trkpt><trkpt lat="43.5282316" lon="11.2004244"><ele>260.0</ele><time>2026-04-19T08:09:05.28Z</time></trkpt><trkpt lat="43.5283164" lon="11.2003742"><ele>260.0</ele><time>2026-04-19T08:09:06.304Z</time></trkpt><trkpt lat="43.5283992" lon="11.2002872"><ele>260.0</ele><time>2026-04-19T08:09:07.293Z</time></trkpt><trkpt lat="43.528477" lon="11.2001696"><ele>260.0</ele><time>2026-04-19T08:09:08.279Z</time></trkpt><trkpt lat="43.5285578" lon="11.2000289"><ele>260.0</ele><time>2026-04-19T08:09:09.293Z</time></trkpt><trkpt lat="43.5286437" lon="11.199883"><ele>256.75</ele><time>2026-04-19T08:09:10.295Z</time></trkpt><trkpt lat="43.5287265" lon="11.1997423"><ele>253.5</ele><time>2026-04-19T08:09:11.295Z</time></trkpt><trkpt lat="43.5288057" lon="11.1996047"><ele>250.25</ele><time>2026-04-19T08:09:12.291Z</time></trkpt><trkpt lat="43.5288826" lon="11.1994808"><ele>247.0</ele><time>2026-04-19T08:09:13.299Z</time></trkpt><trkpt lat="43.5289438" lon="11.1993631"><ele>247.0</ele><time>2026-04-19T08:09:14.298Z</time></trkpt><trkpt lat="43.5289994" lon="11.1992656"><ele>247.0</ele><time>2026-04-19T08:09:15.296Z</time></trkpt><trkpt lat="43.5290618" lon="11.1991774"><ele>247.0</ele><time>2026-04-19T08:09:16.295Z</time></trkpt><trkpt lat="43.52914" lon="11.1991052"><ele>247.0</ele><time>2026-04-19T08:09:17.304Z</time></trkpt><trkpt lat="43.5292381" lon="11.1990376"><ele>247.0</ele><time>2026-04-19T08:09:18.285Z</time></trkpt><trkpt lat="43.5293375" lon="11.1989707"><ele>246.2</ele><time>2026-04-19T08:09:19.3Z</time></trkpt><trkpt lat="43.5294285" lon="11.1989074"><ele>245.39999999999998</ele><time>2026-04-19T08:09:20.302Z</time></trkpt><trkpt lat="43.5295098" lon="11.1988509"><ele>244.60000000000002</ele><time>2026-04-19T08:09:21.303Z</time></trkpt><trkpt lat="43.5295997" lon="11.1988312"><ele>243.8</ele><time>2026-04-19T08:09:22.309Z</time></trkpt><trkpt lat="43.5296877" lon="11.1988489"><ele>243.0</ele><time>2026-04-19T08:09:23.303Z</time></trkpt><trkpt lat="43.5297537" lon="11.1989169"><ele>240.5</ele><time>2026-04-19T08:09:24.298Z</time></trkpt><trkpt lat="43.5298" lon="11.1990105"><ele>238.0</ele><time>2026-04-19T08:09:25.297Z</time></trkpt><trkpt lat="43.5298379" lon="11.1991065"><ele>235.5</ele><time>2026-04-19T08:09:26.3Z</time></trkpt><trkpt lat="43.5298848" lon="11.1991975"><ele>233.0</ele><time>2026-04-19T08:09:27.302Z</time></trkpt><trkpt lat="43.5299597" lon="11.1992497"><ele>230.5</ele><time>2026-04-19T08:09:28.302Z</time></trkpt><trkpt lat="43.5300542" lon="11.1992808"><ele>228.0</ele><time>2026-04-19T08:09:29.281Z</time></trkpt><trkpt lat="43.5301539" lon="11.1992931"><ele>228.0</ele><time>2026-04-19T08:09:30.295Z</time></trkpt><trkpt lat="43.5302695" lon="11.1992742"><ele>228.0</ele><time>2026-04-19T08:09:31.301Z</time></trkpt><trkpt lat="43.5303893" lon="11.1992296"><ele>228.0</ele><time>2026-04-19T08:09:32.301Z</time></trkpt><trkpt lat="43.5304913" lon="11.1991941"><ele>228.0</ele><time>2026-04-19T08:09:33.302Z</time></trkpt><trkpt lat="43.5305667" lon="11.1991488"><ele>228.0</ele><time>2026-04-19T08:09:34.297Z</time></trkpt><trkpt lat="43.5306223" lon="11.1990998"><ele>227.14285714285714</ele><time>2026-04-19T08:09:35.302Z</time></trkpt><trkpt lat="43.5306807" lon="11.199041"><ele>226.28571428571428</ele><time>2026-04-19T08:09:37.301Z</time></trkpt><trkpt lat="43.5307559" lon="11.1990075"><ele>225.42857142857142</ele><time>2026-04-19T08:09:40.299Z</time></trkpt><trkpt lat="43.5308033" lon="11.1990679"><ele>224.57142857142856</ele><time>2026-04-19T08:09:42.28Z</time></trkpt><trkpt lat="43.5308369" lon="11.1991415"><ele>223.71428571428572</ele><time>2026-04-19T08:09:43.3Z</time></trkpt><trkpt lat="43.5308658" lon="11.1992275"><ele>222.85714285714283</ele><time>2026-04-19T08:09:44.302Z</time></trkpt><trkpt lat="43.5308788" lon="11.1993308"><ele>222.0</ele><time>2026-04-19T08:09:45.292Z</time></trkpt><trkpt lat="43.5308897" lon="11.1994428"><ele>222.0</ele><time>2026-04-19T08:09:46.299Z</time></trkpt><trkpt lat="43.5308897" lon="11.1995565"><ele>222.0</ele><time>2026-04-19T08:09:47.298Z</time></trkpt><trkpt lat="43.5308933" lon="11.1996681"><ele>222.0</ele><time>2026-04-19T08:09:48.303Z</time></trkpt><trkpt lat="43.5308929" lon="11.1997734"><ele>222.0</ele><time>2026-04-19T08:09:49.3Z</time></trkpt><trkpt lat="43.5308911" lon="11.1998632"><ele>222.0</ele><time>2026-04-19T08:09:50.284Z</time></trkpt><trkpt lat="43.5309025" lon="11.2000068"><ele>222.0</ele><time>2026-04-19T08:09:52.304Z</time></trkpt><trkpt lat="43.5309348" lon="11.2001633"><ele>222.5</ele><time>2026-04-19T08:09:54.305Z</time></trkpt><trkpt lat="43.5310131" lon="11.2002563"><ele>223.0</ele><time>2026-04-19T08:09:56.299Z</time></trkpt><trkpt lat="43.5310844" lon="11.2002683"><ele>223.5</ele><time>2026-04-19T08:09:57.3Z</time></trkpt><trkpt lat="43.5311723" lon="11.2002458"><ele>224.0</ele><time>2026-04-19T08:09:58.296Z</time></trkpt><trkpt lat="43.531261" lon="11.2002087"><ele>224.5</ele><time>2026-04-19T08:09:59.293Z</time></trkpt><trkpt lat="43.5313447" lon="11.2001677"><ele>225.0</ele><time>2026-04-19T08:10:00.3Z</time></trkpt><trkpt lat="43.5314293" lon="11.2001302"><ele>226.66666666666666</ele><time>2026-04-19T08:10:01.29Z</time></trkpt><trkpt lat="43.5315166" lon="11.2000865"><ele>228.33333333333331</ele><time>2026-04-19T08:10:02.3Z</time></trkpt><trkpt lat="43.5315985" lon="11.2000489"><ele>230.0</ele><time>2026-04-19T08:10:03.282Z</time></trkpt><trkpt lat="43.5316699" lon="11.2000199"><ele>231.66666666666666</ele><time>2026-04-19T08:10:04.3Z</time></trkpt><trkpt lat="43.5317376" lon="11.1999904"><ele>233.33333333333331</ele><time>2026-04-19T08:10:05.308Z</time></trkpt><trkpt lat="43.5318282" lon="11.199979"><ele>235.0</ele><time>2026-04-19T08:10:07.303Z</time></trkpt><trkpt lat="43.5319202" lon="11.2000632"><ele>234.99999999999997</ele><time>2026-04-19T08:10:09.295Z</time></trkpt><trkpt lat="43.5319726" lon="11.200124"><ele>235.0</ele><time>2026-04-19T08:10:10.3Z</time></trkpt><trkpt lat="43.5320327" lon="11.200155"><ele>235.0</ele><time>2026-04-19T08:10:11.302Z</time></trkpt><trkpt lat="43.5321377" lon="11.200161"><ele>235.0</ele><time>2026-04-19T08:10:13.302Z</time></trkpt><trkpt lat="43.5322019" lon="11.2001421"><ele>234.99999999999997</ele><time>2026-04-19T08:10:14.298Z</time></trkpt><trkpt lat="43.5322705" lon="11.2001079"><ele>235.0</ele><time>2026-04-19T08:10:15.307Z</time></trkpt><trkpt lat="43.5323451" lon="11.2000726"><ele>236.99999999999997</ele><time>2026-04-19T08:10:16.304Z</time></trkpt><trkpt lat="43.5324228" lon="11.2000371"><ele>239.0</ele><time>2026-04-19T08:10:17.3Z</time></trkpt><trkpt lat="43.5325026" lon="11.2000044"><ele>241.0</ele><time>2026-04-19T08:10:18.295Z</time></trkpt><trkpt lat="43.5325869" lon="11.199975"><ele>243.0</ele><time>2026-04-19T08:10:19.282Z</time></trkpt><trkpt lat="43.5326644" lon="11.1999411"><ele>244.99999999999997</ele><time>2026-04-19T08:10:20.303Z</time></trkpt><trkpt lat="43.5327256" lon="11.1999097"><ele>247.0</ele><time>2026-04-19T08:10:21.302Z</time></trkpt><trkpt lat="43.5328141" lon="11.1998571"><ele>248.39999999999998</ele><time>2026-04-19T08:10:23.299Z</time></trkpt><trkpt lat="43.5328972" lon="11.1998641"><ele>249.79999999999998</ele><time>2026-04-19T08:10:25.298Z</time></trkpt><trkpt lat="43.5329853" lon="11.1999316"><ele>251.2</ele><time>2026-04-19T08:10:27.303Z</time></trkpt><trkpt lat="43.5330655" lon="11.2000574"><ele>252.6</ele><time>2026-04-19T08:10:29.307Z</time></trkpt><trkpt lat="43.5331126" lon="11.2001296"><ele>254.0</ele><time>2026-04-19T08:10:30.296Z</time></trkpt><trkpt lat="43.5331628" lon="11.2002048"><ele>254.0</ele><time>2026-04-19T08:10:31.31Z</time></trkpt><trkpt lat="43.5332076" lon="11.200275"><ele>253.99999999999997</ele><time>2026-04-19T08:10:32.278Z</time></trkpt><trkpt lat="43.5332832" lon="11.2003972"><ele>253.99999999999997</ele><time>2026-04-19T08:10:34.285Z</time></trkpt><trkpt lat="43.5333633" lon="11.2005044"><ele>254.0</ele><time>2026-04-19T08:10:36.29Z</time></trkpt><trkpt lat="43.5334274" lon="11.2006031"><ele>254.0</ele><time>2026-04-19T08:10:38.278Z</time></trkpt><trkpt lat="43.5334906" lon="11.2006931"><ele>255.33333333333334</ele><time>2026-04-19T08:10:40.287Z</time></trkpt><trkpt lat="43.533565" lon="11.2007867"><ele>256.6666666666667</ele><time>2026-04-19T08:10:42.311Z</time></trkpt><trkpt lat="43.5336094" lon="11.2008487"><ele>258.0</ele><time>2026-04-19T08:10:43.302Z</time></trkpt><trkpt lat="43.5336598" lon="11.2009177"><ele>259.3333333333333</ele><time>2026-04-19T08:10:44.313Z</time></trkpt><trkpt lat="43.5337103" lon="11.2009909"><ele>260.66666666666663</ele><time>2026-04-19T08:10:45.301Z</time></trkpt><trkpt lat="43.5337598" lon="11.2010738"><ele>262.0</ele><time>2026-04-19T08:10:46.307Z</time></trkpt><trkpt lat="43.5338105" lon="11.2011502"><ele>263.0</ele><time>2026-04-19T08:10:47.293Z</time></trkpt><trkpt lat="43.5338578" lon="11.2012291"><ele>264.0</ele><time>2026-04-19T08:10:49.282Z</time></trkpt><trkpt lat="43.5339078" lon="11.2013085"><ele>265.0</ele><time>2026-04-19T08:10:52.312Z</time></trkpt><trkpt lat="43.5339746" lon="11.2013955"><ele>266.0</ele><time>2026-04-19T08:10:55.301Z</time></trkpt><trkpt lat="43.5340216" lon="11.2014551"><ele>267.0</ele><time>2026-04-19T08:11:57.303Z</time></trkpt><trkpt lat="43.5341151" lon="11.2015778"><ele>268.0</ele><time>2026-04-19T08:11:59.3Z</time></trkpt><trkpt lat="43.5341701" lon="11.2016596"><ele>270.4</ele><time>2026-04-19T08:12:00.298Z</time></trkpt><trkpt lat="43.534226" lon="11.2017321"><ele>272.8</ele><time>2026-04-19T08:12:01.288Z</time></trkpt><trkpt lat="43.5342857" lon="11.2018158"><ele>275.2</ele><time>2026-04-19T08:12:02.298Z</time></trkpt><trkpt lat="43.5343578" lon="11.2019098"><ele>277.6</ele><time>2026-04-19T08:12:03.305Z</time></trkpt><trkpt lat="43.534431" lon="11.2019993"><ele>280.0</ele><time>2026-04-19T08:12:04.304Z</time></trkpt><trkpt lat="43.5345148" lon="11.2020909"><ele>279.8333333333333</ele><time>2026-04-19T08:12:05.306Z</time></trkpt><trkpt lat="43.5345977" lon="11.2021953"><ele>279.66666666666663</ele><time>2026-04-19T08:12:06.28Z</time></trkpt><trkpt lat="43.5346738" lon="11.2022833"><ele>279.5</ele><time>2026-04-19T08:12:07.295Z</time></trkpt><trkpt lat="43.5347349" lon="11.2023591"><ele>279.3333333333333</ele><time>2026-04-19T08:12:08.294Z</time></trkpt><trkpt lat="43.5347975" lon="11.2024302"><ele>279.1666666666667</ele><time>2026-04-19T08:12:09.296Z</time></trkpt><trkpt lat="43.5348501" lon="11.2024917"><ele>279.0</ele><time>2026-04-19T08:12:10.304Z</time></trkpt><trkpt lat="43.5349012" lon="11.2025457"><ele>281.4</ele><time>2026-04-19T08:12:11.29Z</time></trkpt><trkpt lat="43.5349752" lon="11.2026689"><ele>283.79999999999995</ele><time>2026-04-19T08:12:13.298Z</time></trkpt><trkpt lat="43.5349866" lon="11.2028453"><ele>286.20000000000005</ele><time>2026-04-19T08:12:15.295Z</time></trkpt><trkpt lat="43.5349781" lon="11.2029416"><ele>288.6</ele><time>2026-04-19T08:12:16.302Z</time></trkpt><trkpt lat="43.534973" lon="11.2030433"><ele>291.0</ele><time>2026-04-19T08:12:17.303Z</time></trkpt><trkpt lat="43.534973" lon="11.20314"><ele>292.85714285714283</ele><time>2026-04-19T08:12:18.278Z</time></trkpt><trkpt lat="43.5349738" lon="11.2032411"><ele>294.71428571428567</ele><time>2026-04-19T08:12:19.295Z</time></trkpt><trkpt lat="43.5349774" lon="11.2033384"><ele>296.57142857142856</ele><time>2026-04-19T08:12:20.295Z</time></trkpt><trkpt lat="43.5349847" lon="11.2034332"><ele>298.42857142857144</ele><time>2026-04-19T08:12:21.295Z</time></trkpt><trkpt lat="43.534994" lon="11.2035384"><ele>300.28571428571433</ele><time>2026-04-19T08:12:22.284Z</time></trkpt><trkpt lat="43.5350086" lon="11.2036329"><ele>302.1428571428571</ele><time>2026-04-19T08:12:23.296Z</time></trkpt><trkpt lat="43.5350298" lon="11.2037262"><ele>304.0</ele><time>2026-04-19T08:12:24.293Z</time></trkpt><trkpt lat="43.5350565" lon="11.203815"><ele>304.0</ele><time>2026-04-19T08:12:25.302Z</time></trkpt><trkpt lat="43.5351067" lon="11.2039616"><ele>304.0</ele><time>2026-04-19T08:12:27.298Z</time></trkpt><trkpt lat="43.5351031" lon="11.2041204"><ele>304.0</ele><time>2026-04-19T08:12:29.307Z</time></trkpt><trkpt lat="43.5350667" lon="11.2042964"><ele>304.0</ele><time>2026-04-19T08:12:31.285Z</time></trkpt><trkpt lat="43.5350372" lon="11.2044083"><ele>305.3333333333333</ele><time>2026-04-19T08:12:32.293Z</time></trkpt><trkpt lat="43.5350061" lon="11.204528"><ele>306.66666666666663</ele><time>2026-04-19T08:12:33.3Z</time></trkpt><trkpt lat="43.5349763" lon="11.2046267"><ele>308.0</ele><time>2026-04-19T08:12:34.296Z</time></trkpt><trkpt lat="43.534952" lon="11.2047093"><ele>309.3333333333333</ele><time>2026-04-19T08:12:35.293Z</time></trkpt><trkpt lat="43.5349145" lon="11.2048478"><ele>310.6666666666667</ele><time>2026-04-19T08:12:37.298Z</time></trkpt><trkpt lat="43.5348966" lon="11.2049599"><ele>312.0</ele><time>2026-04-19T08:12:39.291Z</time></trkpt><trkpt lat="43.5349203" lon="11.2050453"><ele>313.6</ele><time>2026-04-19T08:12:41.304Z</time></trkpt><trkpt lat="43.5349675" lon="11.2051054"><ele>315.2</ele><time>2026-04-19T08:12:43.303Z</time></trkpt><trkpt lat="43.535053" lon="11.2051251"><ele>316.8</ele><time>2026-04-19T08:12:46.3Z</time></trkpt><trkpt lat="43.5351667" lon="11.2051411"><ele>318.4</ele><time>2026-04-19T08:12:48.296Z</time></trkpt><trkpt lat="43.5352598" lon="11.2051228"><ele>320.0</ele><time>2026-04-19T08:12:49.302Z</time></trkpt><trkpt lat="43.5353503" lon="11.2050993"><ele>321.5</ele><time>2026-04-19T08:12:50.304Z</time></trkpt><trkpt lat="43.535434" lon="11.2050723"><ele>323.0</ele><time>2026-04-19T08:12:51.306Z</time></trkpt><trkpt lat="43.5355031" lon="11.2050489"><ele>324.5</ele><time>2026-04-19T08:12:52.3Z</time></trkpt><trkpt lat="43.5355654" lon="11.2050209"><ele>326.0</ele><time>2026-04-19T08:12:53.295Z</time></trkpt><trkpt lat="43.5356617" lon="11.2049979"><ele>327.5</ele><time>2026-04-19T08:12:55.299Z</time></trkpt><trkpt lat="43.5357327" lon="11.2050523"><ele>329.0</ele><time>2026-04-19T08:12:57.3Z</time></trkpt><trkpt lat="43.5357948" lon="11.205141"><ele>329.0</ele><time>2026-04-19T08:12:59.301Z</time></trkpt><trkpt lat="43.5358707" lon="11.2052587"><ele>329.0</ele><time>2026-04-19T08:13:01.291Z</time></trkpt><trkpt lat="43.5359204" lon="11.2053166"><ele>329.0</ele><time>2026-04-19T08:13:02.297Z</time></trkpt><trkpt lat="43.5359646" lon="11.2053833"><ele>329.0</ele><time>2026-04-19T08:13:03.3Z</time></trkpt><trkpt lat="43.5360281" lon="11.2054396"><ele>329.0</ele><time>2026-04-19T08:13:04.303Z</time></trkpt><trkpt lat="43.5360921" lon="11.2055063"><ele>329.0</ele><time>2026-04-19T08:13:05.297Z</time></trkpt><trkpt lat="43.5361517" lon="11.2055821"><ele>330.4</ele><time>2026-04-19T08:13:06.282Z</time></trkpt><trkpt lat="43.5362241" lon="11.2056804"><ele>331.79999999999995</ele><time>2026-04-19T08:13:07.283Z</time></trkpt><trkpt lat="43.5363024" lon="11.2057957"><ele>333.20000000000005</ele><time>2026-04-19T08:13:08.298Z</time></trkpt><trkpt lat="43.5363812" lon="11.2059037"><ele>334.6</ele><time>2026-04-19T08:13:09.278Z</time></trkpt><trkpt lat="43.5364587" lon="11.2060064"><ele>336.0</ele><time>2026-04-19T08:13:10.292Z</time></trkpt><trkpt lat="43.5365319" lon="11.206111"><ele>336.0</ele><time>2026-04-19T08:13:11.281Z</time></trkpt><trkpt lat="43.5365965" lon="11.2062263"><ele>336.0</ele><time>2026-04-19T08:13:12.291Z</time></trkpt><trkpt lat="43.5366502" lon="11.2063382"><ele>336.0</ele><time>2026-04-19T08:13:13.295Z</time></trkpt><trkpt lat="43.5366977" lon="11.2064495"><ele>336.0</ele><time>2026-04-19T08:13:14.293Z</time></trkpt><trkpt lat="43.5367456" lon="11.2065693"><ele>336.0</ele><time>2026-04-19T08:13:15.305Z</time></trkpt><trkpt lat="43.5367794" lon="11.206684"><ele>336.1666666666667</ele><time>2026-04-19T08:13:16.298Z</time></trkpt><trkpt lat="43.5368015" lon="11.2067958"><ele>336.3333333333333</ele><time>2026-04-19T08:13:17.306Z</time></trkpt><trkpt lat="43.5368256" lon="11.2068884"><ele>336.5</ele><time>2026-04-19T08:13:18.287Z</time></trkpt><trkpt lat="43.5368533" lon="11.2069999"><ele>336.66666666666663</ele><time>2026-04-19T08:13:19.277Z</time></trkpt><trkpt lat="43.5368816" lon="11.2071075"><ele>336.8333333333333</ele><time>2026-04-19T08:13:20.304Z</time></trkpt><trkpt lat="43.536917" lon="11.2072107"><ele>337.0</ele><time>2026-04-19T08:13:21.3Z</time></trkpt><trkpt lat="43.5369507" lon="11.2073153"><ele>336.8333333333333</ele><time>2026-04-19T08:13:22.299Z</time></trkpt><trkpt lat="43.5369677" lon="11.207409"><ele>336.66666666666663</ele><time>2026-04-19T08:13:23.3Z</time></trkpt><trkpt lat="43.5369674" lon="11.2075068"><ele>336.5</ele><time>2026-04-19T08:13:24.303Z</time></trkpt><trkpt lat="43.5369645" lon="11.2076151"><ele>336.3333333333333</ele><time>2026-04-19T08:13:25.288Z</time></trkpt><trkpt lat="43.5369733" lon="11.2077164"><ele>336.1666666666667</ele><time>2026-04-19T08:13:26.285Z</time></trkpt><trkpt lat="43.5370113" lon="11.2078784"><ele>336.0</ele><time>2026-04-19T08:13:28.299Z</time></trkpt><trkpt lat="43.5370368" lon="11.2079719"><ele>336.6</ele><time>2026-04-19T08:13:29.304Z</time></trkpt><trkpt lat="43.5370737" lon="11.2080603"><ele>337.20000000000005</ele><time>2026-04-19T08:13:30.305Z</time></trkpt><trkpt lat="43.537121" lon="11.2081449"><ele>337.79999999999995</ele><time>2026-04-19T08:13:31.295Z</time></trkpt><trkpt lat="43.5371703" lon="11.2082285"><ele>338.4</ele><time>2026-04-19T08:13:32.303Z</time></trkpt><trkpt lat="43.53723" lon="11.2083479"><ele>339.0</ele><time>2026-04-19T08:13:33.299Z</time></trkpt><trkpt lat="43.5372854" lon="11.2084879"><ele>339.79999999999995</ele><time>2026-04-19T08:13:34.296Z</time></trkpt><trkpt lat="43.5373434" lon="11.2086363"><ele>340.59999999999997</ele><time>2026-04-19T08:13:35.299Z</time></trkpt><trkpt lat="43.537396" lon="11.2087834"><ele>341.4</ele><time>2026-04-19T08:13:36.304Z</time></trkpt><trkpt lat="43.5374399" lon="11.2089148"><ele>342.2</ele><time>2026-04-19T08:13:37.301Z</time></trkpt><trkpt lat="43.5374749" lon="11.2090289"><ele>343.0</ele><time>2026-04-19T08:13:38.303Z</time></trkpt><trkpt lat="43.5374941" lon="11.2091332"><ele>343.0</ele><time>2026-04-19T08:13:39.303Z</time></trkpt><trkpt lat="43.5374968" lon="11.2092326"><ele>343.0</ele><time>2026-04-19T08:13:40.3Z</time></trkpt><trkpt lat="43.5374976" lon="11.2093314"><ele>343.0</ele><time>2026-04-19T08:13:41.299Z</time></trkpt><trkpt lat="43.537492" lon="11.209433"><ele>343.0</ele><time>2026-04-19T08:13:42.294Z</time></trkpt><trkpt lat="43.5374793" lon="11.2095199"><ele>343.0</ele><time>2026-04-19T08:13:43.292Z</time></trkpt><trkpt lat="43.5374707" lon="11.2096182"><ele>343.0</ele><time>2026-04-19T08:13:44.293Z</time></trkpt><trkpt lat="43.5374791" lon="11.2097271"><ele>343.0</ele><time>2026-04-19T08:13:45.28Z</time></trkpt><trkpt lat="43.5374954" lon="11.2098321"><ele>343.3333333333333</ele><time>2026-04-19T08:13:46.295Z</time></trkpt><trkpt lat="43.5375245" lon="11.2099265"><ele>343.66666666666663</ele><time>2026-04-19T08:13:47.316Z</time></trkpt><trkpt lat="43.537559" lon="11.2100081"><ele>344.0</ele><time>2026-04-19T08:13:48.298Z</time></trkpt><trkpt lat="43.5376013" lon="11.2101171"><ele>344.3333333333333</ele><time>2026-04-19T08:13:50.303Z</time></trkpt><trkpt lat="43.5376195" lon="11.2102052"><ele>344.6666666666667</ele><time>2026-04-19T08:13:52.297Z</time></trkpt><trkpt lat="43.5375954" lon="11.2103853"><ele>345.0</ele><time>2026-04-19T08:13:54.293Z</time></trkpt><trkpt lat="43.5375753" lon="11.210514"><ele>345.0</ele><time>2026-04-19T08:13:55.296Z</time></trkpt><trkpt lat="43.5375581" lon="11.2106402"><ele>345.0</ele><time>2026-04-19T08:13:56.311Z</time></trkpt><trkpt lat="43.537546" lon="11.2107735"><ele>345.0</ele><time>2026-04-19T08:13:57.291Z</time></trkpt><trkpt lat="43.5375373" lon="11.2109143"><ele>345.0</ele><time>2026-04-19T08:13:58.294Z</time></trkpt><trkpt lat="43.5375218" lon="11.211065"><ele>345.0</ele><time>2026-04-19T08:13:59.295Z</time></trkpt><trkpt lat="43.5374957" lon="11.2112059"><ele>344.0</ele><time>2026-04-19T08:14:00.309Z</time></trkpt><trkpt lat="43.537453" lon="11.211353"><ele>343.0</ele><time>2026-04-19T08:14:01.276Z</time></trkpt><trkpt lat="43.5374063" lon="11.2115037"><ele>342.0</ele><time>2026-04-19T08:14:02.283Z</time></trkpt><trkpt lat="43.5373668" lon="11.2116717"><ele>341.0</ele><time>2026-04-19T08:14:03.288Z</time></trkpt><trkpt lat="43.5373356" lon="11.2118255"><ele>339.0</ele><time>2026-04-19T08:14:04.291Z</time></trkpt><trkpt lat="43.5372959" lon="11.2119726"><ele>337.0</ele><time>2026-04-19T08:14:05.308Z</time></trkpt><trkpt lat="43.537248" lon="11.2121176"><ele>335.0</ele><time>2026-04-19T08:14:06.291Z</time></trkpt><trkpt lat="43.5371894" lon="11.2122601"><ele>333.0</ele><time>2026-04-19T08:14:07.294Z</time></trkpt><trkpt lat="43.5371174" lon="11.2123999"><ele>331.25</ele><time>2026-04-19T08:14:08.275Z</time></trkpt><trkpt lat="43.537044" lon="11.2125407"><ele>329.5</ele><time>2026-04-19T08:14:09.298Z</time></trkpt><trkpt lat="43.5369657" lon="11.2126722"><ele>327.75</ele><time>2026-04-19T08:14:10.301Z</time></trkpt><trkpt lat="43.5368875" lon="11.2127918"><ele>326.0</ele><time>2026-04-19T08:14:11.297Z</time></trkpt><trkpt lat="43.536807" lon="11.2128971"><ele>326.0</ele><time>2026-04-19T08:14:12.305Z</time></trkpt><trkpt lat="43.5367244" lon="11.2130114"><ele>326.0</ele><time>2026-04-19T08:14:13.297Z</time></trkpt><trkpt lat="43.5366422" lon="11.2131357"><ele>326.0</ele><time>2026-04-19T08:14:14.291Z</time></trkpt><trkpt lat="43.5365646" lon="11.2132708"><ele>326.0</ele><time>2026-04-19T08:14:15.302Z</time></trkpt><trkpt lat="43.5364955" lon="11.2134153"><ele>326.5</ele><time>2026-04-19T08:14:16.295Z</time></trkpt><trkpt lat="43.5364361" lon="11.213566"><ele>327.0</ele><time>2026-04-19T08:14:17.305Z</time></trkpt><trkpt lat="43.5363917" lon="11.2137137"><ele>327.5</ele><time>2026-04-19T08:14:18.305Z</time></trkpt><trkpt lat="43.5363556" lon="11.2138656"><ele>328.0</ele><time>2026-04-19T08:14:19.301Z</time></trkpt><trkpt lat="43.536325" lon="11.2140149"><ele>328.75</ele><time>2026-04-19T08:14:20.293Z</time></trkpt><trkpt lat="43.5363078" lon="11.2141692"><ele>329.5</ele><time>2026-04-19T08:14:21.309Z</time></trkpt><trkpt lat="43.5363016" lon="11.2143441"><ele>330.25</ele><time>2026-04-19T08:14:22.278Z</time></trkpt><trkpt lat="43.5362902" lon="11.2145203"><ele>331.0</ele><time>2026-04-19T08:14:23.298Z</time></trkpt><trkpt lat="43.536281" lon="11.2147107"><ele>331.75</ele><time>2026-04-19T08:14:24.294Z</time></trkpt><trkpt lat="43.5362705" lon="11.214887"><ele>332.5</ele><time>2026-04-19T08:14:25.298Z</time></trkpt><trkpt lat="43.5362628" lon="11.2150641"><ele>333.25</ele><time>2026-04-19T08:14:26.288Z</time></trkpt><trkpt lat="43.536258" lon="11.2152225"><ele>334.0</ele><time>2026-04-19T08:14:27.299Z</time></trkpt><trkpt lat="43.5362619" lon="11.2153673"><ele>334.0</ele><time>2026-04-19T08:14:28.302Z</time></trkpt><trkpt lat="43.536288" lon="11.215507"><ele>334.0</ele><time>2026-04-19T08:14:29.302Z</time></trkpt><trkpt lat="43.536339" lon="11.2156531"><ele>334.0</ele><time>2026-04-19T08:14:30.302Z</time></trkpt><trkpt lat="43.5364001" lon="11.2158059"><ele>334.0</ele><time>2026-04-19T08:14:31.304Z</time></trkpt><trkpt lat="43.5364539" lon="11.2159486"><ele>334.2</ele><time>2026-04-19T08:14:32.286Z</time></trkpt><trkpt lat="43.5365091" lon="11.2160763"><ele>334.4</ele><time>2026-04-19T08:14:33.298Z</time></trkpt><trkpt lat="43.5365453" lon="11.2161882"><ele>334.6</ele><time>2026-04-19T08:14:34.304Z</time></trkpt><trkpt lat="43.536558" lon="11.216299"><ele>334.8</ele><time>2026-04-19T08:14:35.307Z</time></trkpt><trkpt lat="43.536546" lon="11.2164199"><ele>335.0</ele><time>2026-04-19T08:14:36.303Z</time></trkpt><trkpt lat="43.5365288" lon="11.2165506"><ele>336.0</ele><time>2026-04-19T08:14:37.3Z</time></trkpt><trkpt lat="43.5365173" lon="11.2167075"><ele>337.0</ele><time>2026-04-19T08:14:38.309Z</time></trkpt><trkpt lat="43.5365234" lon="11.2168687"><ele>338.0</ele><time>2026-04-19T08:14:39.3Z</time></trkpt><trkpt lat="43.5365275" lon="11.2170305"><ele>339.0</ele><time>2026-04-19T08:14:40.304Z</time></trkpt><trkpt lat="43.5365279" lon="11.2171846"><ele>339.0</ele><time>2026-04-19T08:14:41.305Z</time></trkpt><trkpt lat="43.5365283" lon="11.2173123"><ele>339.0</ele><time>2026-04-19T08:14:42.301Z</time></trkpt><trkpt lat="43.5365213" lon="11.2174138"><ele>339.0</ele><time>2026-04-19T08:14:43.297Z</time></trkpt><trkpt lat="43.5365158" lon="11.217582"><ele>339.0</ele><time>2026-04-19T08:14:45.311Z</time></trkpt><trkpt lat="43.5365383" lon="11.2177091"><ele>339.0</ele><time>2026-04-19T08:14:46.309Z</time></trkpt><trkpt lat="43.5365695" lon="11.2178981"><ele>338.6666666666667</ele><time>2026-04-19T08:14:47.283Z</time></trkpt><trkpt lat="43.5365794" lon="11.2180898"><ele>338.33333333333337</ele><time>2026-04-19T08:14:48.302Z</time></trkpt><trkpt lat="43.5365691" lon="11.2183014"><ele>338.0</ele><time>2026-04-19T08:14:49.298Z</time></trkpt><trkpt lat="43.5365602" lon="11.2185213"><ele>335.6666666666667</ele><time>2026-04-19T08:14:50.306Z</time></trkpt><trkpt lat="43.5365635" lon="11.2187504"><ele>333.3333333333333</ele><time>2026-04-19T08:14:51.301Z</time></trkpt><trkpt lat="43.5365544" lon="11.2189699"><ele>331.0</ele><time>2026-04-19T08:14:52.299Z</time></trkpt><trkpt lat="43.5365549" lon="11.2191669"><ele>330.8</ele><time>2026-04-19T08:14:53.299Z</time></trkpt><trkpt lat="43.5365659" lon="11.2193351"><ele>330.6</ele><time>2026-04-19T08:14:54.302Z</time></trkpt><trkpt lat="43.5365939" lon="11.2194857"><ele>330.4</ele><time>2026-04-19T08:14:55.314Z</time></trkpt><trkpt lat="43.536621" lon="11.2196202"><ele>330.2</ele><time>2026-04-19T08:14:56.299Z</time></trkpt><trkpt lat="43.5366617" lon="11.2197404"><ele>330.0</ele><time>2026-04-19T08:14:57.315Z</time></trkpt><trkpt lat="43.5367275" lon="11.2198366"><ele>328.0</ele><time>2026-04-19T08:14:58.296Z</time></trkpt><trkpt lat="43.5368228" lon="11.2198925"><ele>326.0</ele><time>2026-04-19T08:14:59.3Z</time></trkpt><trkpt lat="43.536935" lon="11.219907"><ele>324.0</ele><time>2026-04-19T08:15:00.281Z</time></trkpt><trkpt lat="43.5370662" lon="11.2198987"><ele>322.0</ele><time>2026-04-19T08:15:01.282Z</time></trkpt><trkpt lat="43.5372177" lon="11.2198579"><ele>321.0</ele><time>2026-04-19T08:15:02.298Z</time></trkpt><trkpt lat="43.5373736" lon="11.219813"><ele>320.0</ele><time>2026-04-19T08:15:03.295Z</time></trkpt><trkpt lat="43.5375132" lon="11.2197721"><ele>319.0</ele><time>2026-04-19T08:15:04.289Z</time></trkpt><trkpt lat="43.537626" lon="11.2197361"><ele>318.0</ele><time>2026-04-19T08:15:05.292Z</time></trkpt><trkpt lat="43.5377268" lon="11.2197454"><ele>318.0</ele><time>2026-04-19T08:15:06.296Z</time></trkpt><trkpt lat="43.5378226" lon="11.2197981"><ele>318.0</ele><time>2026-04-19T08:15:07.312Z</time></trkpt><trkpt lat="43.537911" lon="11.2198945"><ele>318.0</ele><time>2026-04-19T08:15:08.285Z</time></trkpt><trkpt lat="43.5379823" lon="11.2200042"><ele>318.0</ele><time>2026-04-19T08:15:09.294Z</time></trkpt><trkpt lat="43.5380427" lon="11.2201133"><ele>318.0</ele><time>2026-04-19T08:15:10.292Z</time></trkpt><trkpt lat="43.5380835" lon="11.2202361"><ele>316.5</ele><time>2026-04-19T08:15:11.302Z</time></trkpt><trkpt lat="43.5380827" lon="11.220379"><ele>315.0</ele><time>2026-04-19T08:15:12.28Z</time></trkpt><trkpt lat="43.5380739" lon="11.2205422"><ele>313.5</ele><time>2026-04-19T08:15:13.301Z</time></trkpt><trkpt lat="43.5380688" lon="11.2207073"><ele>312.0</ele><time>2026-04-19T08:15:14.292Z</time></trkpt><trkpt lat="43.5380638" lon="11.2208797"><ele>312.0</ele><time>2026-04-19T08:15:15.299Z</time></trkpt><trkpt lat="43.5380506" lon="11.2210523"><ele>312.0</ele><time>2026-04-19T08:15:16.298Z</time></trkpt><trkpt lat="43.5380075" lon="11.2212271"><ele>312.0</ele><time>2026-04-19T08:15:17.308Z</time></trkpt><trkpt lat="43.5379318" lon="11.2214173"><ele>312.0</ele><time>2026-04-19T08:15:18.298Z</time></trkpt><trkpt lat="43.5378348" lon="11.2216213"><ele>317.6666666666667</ele><time>2026-04-19T08:15:19.298Z</time></trkpt><trkpt lat="43.5377318" lon="11.2218425"><ele>323.33333333333337</ele><time>2026-04-19T08:15:20.302Z</time></trkpt><trkpt lat="43.5376333" lon="11.2220614"><ele>329.0</ele><time>2026-04-19T08:15:21.286Z</time></trkpt><trkpt lat="43.537524" lon="11.2222748"><ele>329.33333333333337</ele><time>2026-04-19T08:15:22.296Z</time></trkpt><trkpt lat="43.5374013" lon="11.2224779"><ele>329.6666666666667</ele><time>2026-04-19T08:15:23.309Z</time></trkpt><trkpt lat="43.537272" lon="11.2226556"><ele>330.0</ele><time>2026-04-19T08:15:24.313Z</time></trkpt><trkpt lat="43.5371551" lon="11.2228026"><ele>330.0</ele><time>2026-04-19T08:15:25.291Z</time></trkpt><trkpt lat="43.5370635" lon="11.2229227"><ele>330.0</ele><time>2026-04-19T08:15:26.296Z</time></trkpt><trkpt lat="43.5369935" lon="11.2230369"><ele>330.0</ele><time>2026-04-19T08:15:27.306Z</time></trkpt><trkpt lat="43.536933" lon="11.2231602"><ele>330.0</ele><time>2026-04-19T08:15:28.299Z</time></trkpt><trkpt lat="43.5368865" lon="11.2233101"><ele>332.25</ele><time>2026-04-19T08:15:29.308Z</time></trkpt><trkpt lat="43.5368524" lon="11.22348"><ele>334.5</ele><time>2026-04-19T08:15:30.3Z</time></trkpt><trkpt lat="43.5368234" lon="11.2236667"><ele>336.75</ele><time>2026-04-19T08:15:31.305Z</time></trkpt><trkpt lat="43.5367952" lon="11.2238633"><ele>339.0</ele><time>2026-04-19T08:15:32.295Z</time></trkpt><trkpt lat="43.5367641" lon="11.2240731"><ele>339.3333333333333</ele><time>2026-04-19T08:15:33.281Z</time></trkpt><trkpt lat="43.5367337" lon="11.2242884"><ele>339.66666666666663</ele><time>2026-04-19T08:15:34.302Z</time></trkpt><trkpt lat="43.536704" lon="11.2245046"><ele>340.0</ele><time>2026-04-19T08:15:35.304Z</time></trkpt><trkpt lat="43.5366733" lon="11.2247262"><ele>341.3333333333333</ele><time>2026-04-19T08:15:36.294Z</time></trkpt><trkpt lat="43.5366541" lon="11.2249606"><ele>342.6666666666667</ele><time>2026-04-19T08:15:37.299Z</time></trkpt><trkpt lat="43.5366508" lon="11.2252047"><ele>344.0</ele><time>2026-04-19T08:15:38.276Z</time></trkpt><trkpt lat="43.5366435" lon="11.2254366"><ele>345.0</ele><time>2026-04-19T08:15:39.311Z</time></trkpt><trkpt lat="43.5366268" lon="11.2256537"><ele>346.0</ele><time>2026-04-19T08:15:40.302Z</time></trkpt><trkpt lat="43.5365979" lon="11.2258714"><ele>347.0</ele><time>2026-04-19T08:15:41.303Z</time></trkpt><trkpt lat="43.5365575" lon="11.2260853"><ele>347.0</ele><time>2026-04-19T08:15:42.309Z</time></trkpt><trkpt lat="43.5365168" lon="11.2262698"><ele>347.0</ele><time>2026-04-19T08:15:43.3Z</time></trkpt><trkpt lat="43.5364902" lon="11.2264319"><ele>347.0</ele><time>2026-04-19T08:15:44.299Z</time></trkpt><trkpt lat="43.53649" lon="11.226599"><ele>347.0</ele><time>2026-04-19T08:15:45.305Z</time></trkpt><trkpt lat="43.5365104" lon="11.2267878"><ele>348.33333333333337</ele><time>2026-04-19T08:15:46.301Z</time></trkpt><trkpt lat="43.5365463" lon="11.226989"><ele>349.6666666666667</ele><time>2026-04-19T08:15:47.305Z</time></trkpt><trkpt lat="43.5365734" lon="11.2272009"><ele>351.0</ele><time>2026-04-19T08:15:48.295Z</time></trkpt><trkpt lat="43.5366003" lon="11.2274052"><ele>352.0</ele><time>2026-04-19T08:15:49.299Z</time></trkpt><trkpt lat="43.5366265" lon="11.2275928"><ele>353.0</ele><time>2026-04-19T08:15:50.308Z</time></trkpt><trkpt lat="43.5366654" lon="11.2277725"><ele>354.0</ele><time>2026-04-19T08:15:51.301Z</time></trkpt><trkpt lat="43.5367316" lon="11.2279622"><ele>355.0</ele><time>2026-04-19T08:15:52.306Z</time></trkpt><trkpt lat="43.5368001" lon="11.2281504"><ele>355.0</ele><time>2026-04-19T08:15:53.302Z</time></trkpt><trkpt lat="43.5368558" lon="11.2283136"><ele>355.0</ele><time>2026-04-19T08:15:54.3Z</time></trkpt><trkpt lat="43.5368811" lon="11.228468"><ele>355.0</ele><time>2026-04-19T08:15:55.283Z</time></trkpt><trkpt lat="43.5368722" lon="11.2286229"><ele>355.0</ele><time>2026-04-19T08:15:56.297Z</time></trkpt><trkpt lat="43.5368233" lon="11.2287902"><ele>355.75</ele><time>2026-04-19T08:15:57.297Z</time></trkpt><trkpt lat="43.5367568" lon="11.2289792"><ele>356.5</ele><time>2026-04-19T08:15:58.298Z</time></trkpt><trkpt lat="43.5366984" lon="11.2291662"><ele>357.25</ele><time>2026-04-19T08:15:59.294Z</time></trkpt><trkpt lat="43.5366415" lon="11.2293464"><ele>358.0</ele><time>2026-04-19T08:16:00.274Z</time></trkpt><trkpt lat="43.5365536" lon="11.2295034"><ele>358.0</ele><time>2026-04-19T08:16:01.279Z</time></trkpt><trkpt lat="43.5364374" lon="11.2296461"><ele>358.0</ele><time>2026-04-19T08:16:02.281Z</time></trkpt><trkpt lat="43.5363296" lon="11.2297996"><ele>358.0</ele><time>2026-04-19T08:16:03.291Z</time></trkpt><trkpt lat="43.5362277" lon="11.2299425"><ele>359.79999999999995</ele><time>2026-04-19T08:16:04.304Z</time></trkpt><trkpt lat="43.5361412" lon="11.2300586"><ele>361.6</ele><time>2026-04-19T08:16:05.283Z</time></trkpt><trkpt lat="43.5360678" lon="11.2301724"><ele>363.4</ele><time>2026-04-19T08:16:06.297Z</time></trkpt><trkpt lat="43.5360059" lon="11.2302974"><ele>365.20000000000005</ele><time>2026-04-19T08:16:07.301Z</time></trkpt><trkpt lat="43.5359645" lon="11.2304184"><ele>367.0</ele><time>2026-04-19T08:16:08.301Z</time></trkpt><trkpt lat="43.5359425" lon="11.2305209"><ele>367.0</ele><time>2026-04-19T08:16:09.284Z</time></trkpt><trkpt lat="43.5359337" lon="11.2306079"><ele>367.0</ele><time>2026-04-19T08:16:10.275Z</time></trkpt><trkpt lat="43.5359134" lon="11.2307722"><ele>367.0</ele><time>2026-04-19T08:16:12.297Z</time></trkpt><trkpt lat="43.5359005" lon="11.2308702"><ele>367.0</ele><time>2026-04-19T08:16:13.312Z</time></trkpt><trkpt lat="43.5358879" lon="11.2309678"><ele>367.0</ele><time>2026-04-19T08:16:14.304Z</time></trkpt><trkpt lat="43.5358731" lon="11.2310698"><ele>367.0</ele><time>2026-04-19T08:16:15.293Z</time></trkpt><trkpt lat="43.5358489" lon="11.2311945"><ele>368.16666666666663</ele><time>2026-04-19T08:16:17.304Z</time></trkpt><trkpt lat="43.5358279" lon="11.2312769"><ele>369.3333333333333</ele><time>2026-04-19T08:16:21.282Z</time></trkpt><trkpt lat="43.5358526" lon="11.2313604"><ele>370.5</ele><time>2026-04-19T08:16:23.313Z</time></trkpt><trkpt lat="43.5359175" lon="11.2314003"><ele>371.6666666666667</ele><time>2026-04-19T08:16:24.302Z</time></trkpt><trkpt lat="43.5360053" lon="11.2314332"><ele>372.83333333333337</ele><time>2026-04-19T08:16:25.304Z</time></trkpt><trkpt lat="43.5360993" lon="11.2314694"><ele>374.0</ele><time>2026-04-19T08:16:26.303Z</time></trkpt><trkpt lat="43.5361993" lon="11.2315047"><ele>374.0</ele><time>2026-04-19T08:16:27.305Z</time></trkpt><trkpt lat="43.5362926" lon="11.2315493"><ele>374.0</ele><time>2026-04-19T08:16:28.304Z</time></trkpt><trkpt lat="43.5363891" lon="11.2316005"><ele>374.0</ele><time>2026-04-19T08:16:29.289Z</time></trkpt><trkpt lat="43.5364833" lon="11.2316758"><ele>374.0</ele><time>2026-04-19T08:16:30.291Z</time></trkpt><trkpt lat="43.5365794" lon="11.2317826"><ele>374.0</ele><time>2026-04-19T08:16:31.309Z</time></trkpt><trkpt lat="43.536674" lon="11.2318992"><ele>374.0</ele><time>2026-04-19T08:16:32.296Z</time></trkpt><trkpt lat="43.536767" lon="11.2320207"><ele>374.0</ele><time>2026-04-19T08:16:33.296Z</time></trkpt><trkpt lat="43.5368513" lon="11.2321318"><ele>374.0</ele><time>2026-04-19T08:16:34.296Z</time></trkpt><trkpt lat="43.5369293" lon="11.2322323"><ele>374.0</ele><time>2026-04-19T08:16:35.304Z</time></trkpt><trkpt lat="43.5370124" lon="11.2323194"><ele>374.79999999999995</ele><time>2026-04-19T08:16:36.307Z</time></trkpt><trkpt lat="43.5371086" lon="11.2323951"><ele>375.59999999999997</ele><time>2026-04-19T08:16:37.294Z</time></trkpt><trkpt lat="43.5372175" lon="11.2324673"><ele>376.4</ele><time>2026-04-19T08:16:38.309Z</time></trkpt><trkpt lat="43.537319" lon="11.2325346"><ele>377.2</ele><time>2026-04-19T08:16:39.299Z</time></trkpt><trkpt lat="43.5373952" lon="11.2325841"><ele>378.0</ele><time>2026-04-19T08:16:40.292Z</time></trkpt><trkpt lat="43.5374806" lon="11.2326384"><ele>378.0</ele><time>2026-04-19T08:16:42.31Z</time></trkpt><trkpt lat="43.5375501" lon="11.2326827"><ele>378.0</ele><time>2026-04-19T08:16:45.3Z</time></trkpt><trkpt lat="43.5376323" lon="11.2326867"><ele>378.0</ele><time>2026-04-19T08:16:47.302Z</time></trkpt><trkpt lat="43.537706" lon="11.2326417"><ele>378.0</ele><time>2026-04-19T08:16:48.281Z</time></trkpt><trkpt lat="43.537779" lon="11.2325728"><ele>378.0</ele><time>2026-04-19T08:16:49.294Z</time></trkpt><trkpt lat="43.5378543" lon="11.2324897"><ele>378.0</ele><time>2026-04-19T08:16:50.297Z</time></trkpt><trkpt lat="43.5379319" lon="11.2323959"><ele>378.0</ele><time>2026-04-19T08:16:51.32Z</time></trkpt><trkpt lat="43.5380218" lon="11.2322963"><ele>378.0</ele><time>2026-04-19T08:16:52.299Z</time></trkpt><trkpt lat="43.5381187" lon="11.232204"><ele>378.0</ele><time>2026-04-19T08:16:53.283Z</time></trkpt><trkpt lat="43.5382038" lon="11.2321297"><ele>378.0</ele><time>2026-04-19T08:16:54.293Z</time></trkpt><trkpt lat="43.5382908" lon="11.2320693"><ele>378.0</ele><time>2026-04-19T08:16:55.296Z</time></trkpt><trkpt lat="43.5383766" lon="11.2320209"><ele>378.0</ele><time>2026-04-19T08:16:56.293Z</time></trkpt><trkpt lat="43.5384571" lon="11.2319828"><ele>378.0</ele><time>2026-04-19T08:16:57.302Z</time></trkpt><trkpt lat="43.5385335" lon="11.2319559"><ele>378.0</ele><time>2026-04-19T08:16:58.298Z</time></trkpt><trkpt lat="43.5386153" lon="11.2319185"><ele>378.0</ele><time>2026-04-19T08:16:59.301Z</time></trkpt><trkpt lat="43.5387091" lon="11.2318566"><ele>378.0</ele><time>2026-04-19T08:17:00.29Z</time></trkpt><trkpt lat="43.5388153" lon="11.2317685"><ele>378.25</ele><time>2026-04-19T08:17:01.279Z</time></trkpt><trkpt lat="43.5389365" lon="11.2316679"><ele>378.5</ele><time>2026-04-19T08:17:02.293Z</time></trkpt><trkpt lat="43.539069" lon="11.2315732"><ele>378.75</ele><time>2026-04-19T08:17:03.282Z</time></trkpt><trkpt lat="43.5392149" lon="11.2314873"><ele>379.0</ele><time>2026-04-19T08:17:04.287Z</time></trkpt><trkpt lat="43.5393577" lon="11.2314084"><ele>379.0</ele><time>2026-04-19T08:17:05.28Z</time></trkpt><trkpt lat="43.5395009" lon="11.2313251"><ele>379.0</ele><time>2026-04-19T08:17:06.313Z</time></trkpt><trkpt lat="43.5396487" lon="11.2312463"><ele>379.0</ele><time>2026-04-19T08:17:07.304Z</time></trkpt><trkpt lat="43.5397993" lon="11.2311747"><ele>377.0</ele><time>2026-04-19T08:17:08.313Z</time></trkpt><trkpt lat="43.5399533" lon="11.2310974"><ele>375.0</ele><time>2026-04-19T08:17:09.292Z</time></trkpt><trkpt lat="43.5401084" lon="11.2310157"><ele>373.0</ele><time>2026-04-19T08:17:10.291Z</time></trkpt><trkpt lat="43.5402667" lon="11.2309349"><ele>372.0</ele><time>2026-04-19T08:17:11.295Z</time></trkpt><trkpt lat="43.5404229" lon="11.2308536"><ele>371.0</ele><time>2026-04-19T08:17:12.3Z</time></trkpt><trkpt lat="43.5405788" lon="11.2307743"><ele>370.0</ele><time>2026-04-19T08:17:13.313Z</time></trkpt><trkpt lat="43.5407407" lon="11.2306962"><ele>369.3333333333333</ele><time>2026-04-19T08:17:14.302Z</time></trkpt><trkpt lat="43.5409051" lon="11.2306327"><ele>368.6666666666667</ele><time>2026-04-19T08:17:15.298Z</time></trkpt><trkpt lat="43.541072" lon="11.2305659"><ele>368.0</ele><time>2026-04-19T08:17:16.296Z</time></trkpt><trkpt lat="43.5412398" lon="11.2305008"><ele>367.33333333333337</ele><time>2026-04-19T08:17:17.303Z</time></trkpt><trkpt lat="43.5414105" lon="11.2304345"><ele>366.6666666666667</ele><time>2026-04-19T08:17:18.299Z</time></trkpt><trkpt lat="43.5415786" lon="11.2303671"><ele>366.0</ele><time>2026-04-19T08:17:19.278Z</time></trkpt><trkpt lat="43.5417506" lon="11.2303033"><ele>366.0</ele><time>2026-04-19T08:17:20.286Z</time></trkpt><trkpt lat="43.5419205" lon="11.2302469"><ele>366.0</ele><time>2026-04-19T08:17:21.304Z</time></trkpt><trkpt lat="43.5420827" lon="11.2301861"><ele>366.0</ele><time>2026-04-19T08:17:22.299Z</time></trkpt><trkpt lat="43.5422415" lon="11.2301287"><ele>365.6666666666667</ele><time>2026-04-19T08:17:23.302Z</time></trkpt><trkpt lat="43.5423981" lon="11.230073"><ele>365.33333333333337</ele><time>2026-04-19T08:17:24.287Z</time></trkpt><trkpt lat="43.5425559" lon="11.2300192"><ele>365.0</ele><time>2026-04-19T08:17:25.292Z</time></trkpt><trkpt lat="43.5427142" lon="11.2299647"><ele>365.0</ele><time>2026-04-19T08:17:26.288Z</time></trkpt><trkpt lat="43.542871" lon="11.2299077"><ele>365.0</ele><time>2026-04-19T08:17:27.305Z</time></trkpt><trkpt lat="43.5430259" lon="11.22984"><ele>365.0</ele><time>2026-04-19T08:17:28.305Z</time></trkpt><trkpt lat="43.5431797" lon="11.229765"><ele>365.0</ele><time>2026-04-19T08:17:29.307Z</time></trkpt><trkpt lat="43.5433287" lon="11.2296771"><ele>365.0</ele><time>2026-04-19T08:17:30.299Z</time></trkpt><trkpt lat="43.543477" lon="11.2295681"><ele>365.0</ele><time>2026-04-19T08:17:31.298Z</time></trkpt><trkpt lat="43.5436245" lon="11.2294555"><ele>364.33333333333337</ele><time>2026-04-19T08:17:32.297Z</time></trkpt><trkpt lat="43.5437702" lon="11.2293446"><ele>363.6666666666667</ele><time>2026-04-19T08:17:33.304Z</time></trkpt><trkpt lat="43.5439108" lon="11.2292353"><ele>363.0</ele><time>2026-04-19T08:17:34.29Z</time></trkpt><trkpt lat="43.5440506" lon="11.229126"><ele>363.0</ele><time>2026-04-19T08:17:35.303Z</time></trkpt><trkpt lat="43.5441897" lon="11.2290183"><ele>363.0</ele><time>2026-04-19T08:17:36.304Z</time></trkpt><trkpt lat="43.5443249" lon="11.2289143"><ele>363.0</ele><time>2026-04-19T08:17:37.301Z</time></trkpt><trkpt lat="43.544458" lon="11.2288085"><ele>361.0</ele><time>2026-04-19T08:17:38.3Z</time></trkpt><trkpt lat="43.5445931" lon="11.2286981"><ele>359.0</ele><time>2026-04-19T08:17:39.31Z</time></trkpt><trkpt lat="43.5447339" lon="11.2285902"><ele>357.0</ele><time>2026-04-19T08:17:40.294Z</time></trkpt><trkpt lat="43.5448779" lon="11.2284876"><ele>357.0</ele><time>2026-04-19T08:17:41.29Z</time></trkpt><trkpt lat="43.5450189" lon="11.2283854"><ele>357.0</ele><time>2026-04-19T08:17:42.299Z</time></trkpt><trkpt lat="43.5451598" lon="11.2282762"><ele>357.0</ele><time>2026-04-19T08:17:43.299Z</time></trkpt><trkpt lat="43.5453033" lon="11.2281677"><ele>355.3333333333333</ele><time>2026-04-19T08:17:44.305Z</time></trkpt><trkpt lat="43.5454455" lon="11.228053"><ele>353.66666666666663</ele><time>2026-04-19T08:17:45.301Z</time></trkpt><trkpt lat="43.5455862" lon="11.2279414"><ele>352.0</ele><time>2026-04-19T08:17:46.299Z</time></trkpt><trkpt lat="43.5457322" lon="11.2278337"><ele>352.0</ele><time>2026-04-19T08:17:47.301Z</time></trkpt><trkpt lat="43.5458754" lon="11.2277247"><ele>352.0</ele><time>2026-04-19T08:17:48.299Z</time></trkpt><trkpt lat="43.5460219" lon="11.2276165"><ele>352.0</ele><time>2026-04-19T08:17:49.289Z</time></trkpt><trkpt lat="43.5461668" lon="11.2275055"><ele>351.3333333333333</ele><time>2026-04-19T08:17:50.302Z</time></trkpt><trkpt lat="43.5463124" lon="11.22739"><ele>350.6666666666667</ele><time>2026-04-19T08:17:51.304Z</time></trkpt><trkpt lat="43.5464585" lon="11.2272755"><ele>350.0</ele><time>2026-04-19T08:17:52.295Z</time></trkpt><trkpt lat="43.5465971" lon="11.2271643"><ele>350.0</ele><time>2026-04-19T08:17:53.294Z</time></trkpt><trkpt lat="43.546721" lon="11.2270621"><ele>350.0</ele><time>2026-04-19T08:17:54.303Z</time></trkpt><trkpt lat="43.5468343" lon="11.22695"><ele>350.0</ele><time>2026-04-19T08:17:55.295Z</time></trkpt><trkpt lat="43.5469355" lon="11.2268042"><ele>350.0</ele><time>2026-04-19T08:17:56.303Z</time></trkpt><trkpt lat="43.547033" lon="11.2266404"><ele>350.0</ele><time>2026-04-19T08:17:57.3Z</time></trkpt><trkpt lat="43.5471239" lon="11.2264636"><ele>350.0</ele><time>2026-04-19T08:17:58.303Z</time></trkpt><trkpt lat="43.5472123" lon="11.2262801"><ele>350.0</ele><time>2026-04-19T08:17:59.303Z</time></trkpt><trkpt lat="43.547308" lon="11.2260973"><ele>350.0</ele><time>2026-04-19T08:18:00.305Z</time></trkpt><trkpt lat="43.5474008" lon="11.2259116"><ele>350.0</ele><time>2026-04-19T08:18:01.305Z</time></trkpt><trkpt lat="43.5474837" lon="11.2257368"><ele>350.0</ele><time>2026-04-19T08:18:02.289Z</time></trkpt><trkpt lat="43.5475577" lon="11.2255662"><ele>350.25</ele><time>2026-04-19T08:18:03.31Z</time></trkpt><trkpt lat="43.5476218" lon="11.225391"><ele>350.5</ele><time>2026-04-19T08:18:04.316Z</time></trkpt><trkpt lat="43.5476723" lon="11.2252001"><ele>350.75</ele><time>2026-04-19T08:18:05.306Z</time></trkpt><trkpt lat="43.5477054" lon="11.2249924"><ele>351.0</ele><time>2026-04-19T08:18:06.308Z</time></trkpt><trkpt lat="43.5477301" lon="11.2247716"><ele>350.3333333333333</ele><time>2026-04-19T08:18:07.306Z</time></trkpt><trkpt lat="43.5477404" lon="11.2245359"><ele>349.66666666666663</ele><time>2026-04-19T08:18:08.307Z</time></trkpt><trkpt lat="43.5477387" lon="11.2242599"><ele>349.0</ele><time>2026-04-19T08:18:09.293Z</time></trkpt><trkpt lat="43.5477388" lon="11.2239734"><ele>348.66666666666663</ele><time>2026-04-19T08:18:10.309Z</time></trkpt><trkpt lat="43.5477408" lon="11.2237022"><ele>348.3333333333333</ele><time>2026-04-19T08:18:11.301Z</time></trkpt><trkpt lat="43.547739" lon="11.2234575"><ele>348.0</ele><time>2026-04-19T08:18:12.299Z</time></trkpt><trkpt lat="43.5477333" lon="11.2232048"><ele>348.0</ele><time>2026-04-19T08:18:13.294Z</time></trkpt><trkpt lat="43.5477256" lon="11.2229424"><ele>348.0</ele><time>2026-04-19T08:18:14.288Z</time></trkpt><trkpt lat="43.5477147" lon="11.2226754"><ele>348.0</ele><time>2026-04-19T08:18:15.302Z</time></trkpt><trkpt lat="43.5477139" lon="11.2224055"><ele>347.6666666666667</ele><time>2026-04-19T08:18:16.29Z</time></trkpt><trkpt lat="43.5477135" lon="11.2221288"><ele>347.33333333333337</ele><time>2026-04-19T08:18:17.297Z</time></trkpt><trkpt lat="43.5477119" lon="11.221853"><ele>347.0</ele><time>2026-04-19T08:18:18.305Z</time></trkpt><trkpt lat="43.5477187" lon="11.2215819"><ele>347.0</ele><time>2026-04-19T08:18:19.307Z</time></trkpt><trkpt lat="43.5477211" lon="11.2213152"><ele>347.0</ele><time>2026-04-19T08:18:20.293Z</time></trkpt><trkpt lat="43.5477291" lon="11.2210606"><ele>347.0</ele><time>2026-04-19T08:18:21.308Z</time></trkpt><trkpt lat="43.5477342" lon="11.2208171"><ele>346.33333333333337</ele><time>2026-04-19T08:18:22.308Z</time></trkpt><trkpt lat="43.5477513" lon="11.2205718"><ele>345.6666666666667</ele><time>2026-04-19T08:18:23.305Z</time></trkpt><trkpt lat="43.547781" lon="11.220329"><ele>345.0</ele><time>2026-04-19T08:18:24.298Z</time></trkpt><trkpt lat="43.5478245" lon="11.2200898"><ele>344.6666666666667</ele><time>2026-04-19T08:18:25.292Z</time></trkpt><trkpt lat="43.5478868" lon="11.2198493"><ele>344.33333333333337</ele><time>2026-04-19T08:18:26.287Z</time></trkpt><trkpt lat="43.5479503" lon="11.2195998"><ele>344.0</ele><time>2026-04-19T08:18:27.296Z</time></trkpt><trkpt lat="43.5480226" lon="11.219332"><ele>343.6666666666667</ele><time>2026-04-19T08:18:28.294Z</time></trkpt><trkpt lat="43.5481025" lon="11.2190607"><ele>343.3333333333333</ele><time>2026-04-19T08:18:29.296Z</time></trkpt><trkpt lat="43.5481852" lon="11.2187842"><ele>343.0</ele><time>2026-04-19T08:18:30.294Z</time></trkpt><trkpt lat="43.5482691" lon="11.2185123"><ele>342.66666666666663</ele><time>2026-04-19T08:18:31.293Z</time></trkpt><trkpt lat="43.5483505" lon="11.2182501"><ele>342.3333333333333</ele><time>2026-04-19T08:18:32.309Z</time></trkpt><trkpt lat="43.5484304" lon="11.2180035"><ele>342.0</ele><time>2026-04-19T08:18:33.295Z</time></trkpt><trkpt lat="43.5485176" lon="11.2177643"><ele>341.0</ele><time>2026-04-19T08:18:34.282Z</time></trkpt><trkpt lat="43.5486192" lon="11.2175252"><ele>340.0</ele><time>2026-04-19T08:18:35.301Z</time></trkpt><trkpt lat="43.5487326" lon="11.2172991"><ele>339.0</ele><time>2026-04-19T08:18:36.304Z</time></trkpt><trkpt lat="43.5488742" lon="11.2170883"><ele>336.6666666666667</ele><time>2026-04-19T08:18:37.304Z</time></trkpt><trkpt lat="43.5490173" lon="11.2168828"><ele>334.33333333333337</ele><time>2026-04-19T08:18:38.298Z</time></trkpt><trkpt lat="43.5491737" lon="11.2166824"><ele>332.0</ele><time>2026-04-19T08:18:39.293Z</time></trkpt><trkpt lat="43.5493306" lon="11.2164815"><ele>332.0</ele><time>2026-04-19T08:18:40.303Z</time></trkpt><trkpt lat="43.5494916" lon="11.2162918"><ele>332.0</ele><time>2026-04-19T08:18:41.306Z</time></trkpt><trkpt lat="43.5496455" lon="11.2161068"><ele>332.0</ele><time>2026-04-19T08:18:42.298Z</time></trkpt><trkpt lat="43.5497966" lon="11.2159205"><ele>332.0</ele><time>2026-04-19T08:18:43.278Z</time></trkpt><trkpt lat="43.5499533" lon="11.2157358"><ele>332.0</ele><time>2026-04-19T08:18:44.299Z</time></trkpt><trkpt lat="43.5501089" lon="11.2155397"><ele>332.0</ele><time>2026-04-19T08:18:45.294Z</time></trkpt><trkpt lat="43.5502625" lon="11.2153425"><ele>331.33333333333337</ele><time>2026-04-19T08:18:46.3Z</time></trkpt><trkpt lat="43.5504185" lon="11.215147"><ele>330.6666666666667</ele><time>2026-04-19T08:18:47.312Z</time></trkpt><trkpt lat="43.5505742" lon="11.2149583"><ele>330.0</ele><time>2026-04-19T08:18:48.292Z</time></trkpt><trkpt lat="43.5507303" lon="11.2147671"><ele>329.3333333333333</ele><time>2026-04-19T08:18:49.307Z</time></trkpt><trkpt lat="43.550887" lon="11.2145806"><ele>328.66666666666663</ele><time>2026-04-19T08:18:50.305Z</time></trkpt><trkpt lat="43.5510449" lon="11.2143981"><ele>328.0</ele><time>2026-04-19T08:18:51.299Z</time></trkpt><trkpt lat="43.5512064" lon="11.214212"><ele>327.3333333333333</ele><time>2026-04-19T08:18:52.298Z</time></trkpt><trkpt lat="43.5513677" lon="11.2140245"><ele>326.6666666666667</ele><time>2026-04-19T08:18:53.278Z</time></trkpt><trkpt lat="43.5515262" lon="11.2138557"><ele>326.0</ele><time>2026-04-19T08:18:54.303Z</time></trkpt><trkpt lat="43.5516768" lon="11.2136917"><ele>325.33333333333337</ele><time>2026-04-19T08:18:55.307Z</time></trkpt><trkpt lat="43.5518216" lon="11.2135346"><ele>324.6666666666667</ele><time>2026-04-19T08:18:56.304Z</time></trkpt><trkpt lat="43.5519631" lon="11.2133736"><ele>324.0</ele><time>2026-04-19T08:18:57.284Z</time></trkpt><trkpt lat="43.5520872" lon="11.2132102"><ele>323.3333333333333</ele><time>2026-04-19T08:18:58.3Z</time></trkpt><trkpt lat="43.5521879" lon="11.2130405"><ele>322.66666666666663</ele><time>2026-04-19T08:18:59.283Z</time></trkpt><trkpt lat="43.5522619" lon="11.2128559"><ele>322.0</ele><time>2026-04-19T08:19:00.278Z</time></trkpt><trkpt lat="43.5523002" lon="11.2126484"><ele>322.0</ele><time>2026-04-19T08:19:01.295Z</time></trkpt><trkpt lat="43.5523123" lon="11.2124176"><ele>322.0</ele><time>2026-04-19T08:19:02.302Z</time></trkpt><trkpt lat="43.5523171" lon="11.2121514"><ele>322.0</ele><time>2026-04-19T08:19:03.299Z</time></trkpt><trkpt lat="43.5523132" lon="11.2118941"><ele>320.66666666666663</ele><time>2026-04-19T08:19:04.304Z</time></trkpt><trkpt lat="43.5523059" lon="11.2116492"><ele>319.3333333333333</ele><time>2026-04-19T08:19:05.294Z</time></trkpt><trkpt lat="43.5523036" lon="11.2114193"><ele>318.0</ele><time>2026-04-19T08:19:06.296Z</time></trkpt><trkpt lat="43.5523014" lon="11.2111982"><ele>317.0</ele><time>2026-04-19T08:19:07.309Z</time></trkpt><trkpt lat="43.5522997" lon="11.2109916"><ele>316.0</ele><time>2026-04-19T08:19:08.303Z</time></trkpt><trkpt lat="43.5523041" lon="11.210793"><ele>315.0</ele><time>2026-04-19T08:19:09.296Z</time></trkpt><trkpt lat="43.5523092" lon="11.210604"><ele>314.0</ele><time>2026-04-19T08:19:10.276Z</time></trkpt><trkpt lat="43.5523077" lon="11.2104135"><ele>314.0</ele><time>2026-04-19T08:19:11.3Z</time></trkpt><trkpt lat="43.5523047" lon="11.2102171"><ele>314.0</ele><time>2026-04-19T08:19:12.3Z</time></trkpt><trkpt lat="43.5522994" lon="11.2100248"><ele>314.0</ele><time>2026-04-19T08:19:13.288Z</time></trkpt><trkpt lat="43.5522927" lon="11.2098182"><ele>314.0</ele><time>2026-04-19T08:19:14.306Z</time></trkpt><trkpt lat="43.5522836" lon="11.2096158"><ele>313.5</ele><time>2026-04-19T08:19:15.284Z</time></trkpt><trkpt lat="43.5522701" lon="11.2094061"><ele>313.0</ele><time>2026-04-19T08:19:16.291Z</time></trkpt><trkpt lat="43.552259" lon="11.2092091"><ele>312.5</ele><time>2026-04-19T08:19:17.296Z</time></trkpt><trkpt lat="43.5522615" lon="11.2090275"><ele>312.0</ele><time>2026-04-19T08:19:18.3Z</time></trkpt><trkpt lat="43.5522832" lon="11.2088561"><ele>312.0</ele><time>2026-04-19T08:19:19.294Z</time></trkpt><trkpt lat="43.5523428" lon="11.2087077"><ele>312.0</ele><time>2026-04-19T08:19:20.301Z</time></trkpt><trkpt lat="43.5524255" lon="11.2085779"><ele>312.0</ele><time>2026-04-19T08:19:21.303Z</time></trkpt><trkpt lat="43.5525244" lon="11.2084761"><ele>312.0</ele><time>2026-04-19T08:19:22.295Z</time></trkpt><trkpt lat="43.5526351" lon="11.2084"><ele>312.0</ele><time>2026-04-19T08:19:23.309Z</time></trkpt><trkpt lat="43.5527705" lon="11.208374"><ele>312.0</ele><time>2026-04-19T08:19:24.298Z</time></trkpt><trkpt lat="43.5529099" lon="11.2084121"><ele>312.0</ele><time>2026-04-19T08:19:25.283Z</time></trkpt><trkpt lat="43.5530344" lon="11.2084667"><ele>312.0</ele><time>2026-04-19T08:19:26.275Z</time></trkpt><trkpt lat="43.5531775" lon="11.2085577"><ele>315.6666666666667</ele><time>2026-04-19T08:19:27.303Z</time></trkpt><trkpt lat="43.553321" lon="11.2086639"><ele>319.33333333333337</ele><time>2026-04-19T08:19:28.301Z</time></trkpt><trkpt lat="43.5534669" lon="11.2087916"><ele>323.0</ele><time>2026-04-19T08:19:29.279Z</time></trkpt><trkpt lat="43.5536028" lon="11.2088805"><ele>324.0</ele><time>2026-04-19T08:19:30.296Z</time></trkpt><trkpt lat="43.5537393" lon="11.20896"><ele>325.0</ele><time>2026-04-19T08:19:31.302Z</time></trkpt><trkpt lat="43.5538767" lon="11.2090149"><ele>326.0</ele><time>2026-04-19T08:19:32.292Z</time></trkpt><trkpt lat="43.5540339" lon="11.2090458"><ele>326.0</ele><time>2026-04-19T08:19:33.3Z</time></trkpt><trkpt lat="43.554193" lon="11.2090095"><ele>326.0</ele><time>2026-04-19T08:19:34.281Z</time></trkpt><trkpt lat="43.5543473" lon="11.2089508"><ele>326.0</ele><time>2026-04-19T08:19:35.295Z</time></trkpt><trkpt lat="43.5544988" lon="11.208866"><ele>326.0</ele><time>2026-04-19T08:19:36.287Z</time></trkpt><trkpt lat="43.5546457" lon="11.2087553"><ele>326.0</ele><time>2026-04-19T08:19:37.292Z</time></trkpt><trkpt lat="43.5548007" lon="11.2086372"><ele>326.0</ele><time>2026-04-19T08:19:38.3Z</time></trkpt><trkpt lat="43.5549667" lon="11.2085361"><ele>326.0</ele><time>2026-04-19T08:19:39.298Z</time></trkpt><trkpt lat="43.5551312" lon="11.2084626"><ele>326.0</ele><time>2026-04-19T08:19:40.288Z</time></trkpt><trkpt lat="43.5553072" lon="11.2084199"><ele>326.0</ele><time>2026-04-19T08:19:41.278Z</time></trkpt><trkpt lat="43.5554872" lon="11.2083854"><ele>324.33333333333337</ele><time>2026-04-19T08:19:42.301Z</time></trkpt><trkpt lat="43.5556761" lon="11.2083537"><ele>322.6666666666667</ele><time>2026-04-19T08:19:43.288Z</time></trkpt><trkpt lat="43.5558604" lon="11.2083299"><ele>321.0</ele><time>2026-04-19T08:19:44.294Z</time></trkpt><trkpt lat="43.5560402" lon="11.2083172"><ele>321.0</ele><time>2026-04-19T08:19:45.292Z</time></trkpt><trkpt lat="43.5562152" lon="11.2083"><ele>321.0</ele><time>2026-04-19T08:19:46.298Z</time></trkpt><trkpt lat="43.55639" lon="11.2082834"><ele>321.0</ele><time>2026-04-19T08:19:47.285Z</time></trkpt><trkpt lat="43.5565553" lon="11.2082516"><ele>321.0</ele><time>2026-04-19T08:19:48.294Z</time></trkpt><trkpt lat="43.5567052" lon="11.2082153"><ele>321.0</ele><time>2026-04-19T08:19:49.295Z</time></trkpt><trkpt lat="43.5568428" lon="11.2081606"><ele>321.0</ele><time>2026-04-19T08:19:50.299Z</time></trkpt><trkpt lat="43.5569769" lon="11.2080989"><ele>321.0</ele><time>2026-04-19T08:19:51.281Z</time></trkpt><trkpt lat="43.5571077" lon="11.2080293"><ele>321.0</ele><time>2026-04-19T08:19:52.294Z</time></trkpt><trkpt lat="43.5572396" lon="11.2079524"><ele>321.0</ele><time>2026-04-19T08:19:53.302Z</time></trkpt><trkpt lat="43.5573829" lon="11.207873"><ele>321.0</ele><time>2026-04-19T08:19:54.29Z</time></trkpt><trkpt lat="43.5575346" lon="11.207796"><ele>321.0</ele><time>2026-04-19T08:19:55.281Z</time></trkpt><trkpt lat="43.5576952" lon="11.2077342"><ele>321.0</ele><time>2026-04-19T08:19:56.296Z</time></trkpt><trkpt lat="43.5578662" lon="11.2076932"><ele>321.0</ele><time>2026-04-19T08:19:57.295Z</time></trkpt><trkpt lat="43.5580398" lon="11.207678"><ele>320.0</ele><time>2026-04-19T08:19:58.293Z</time></trkpt><trkpt lat="43.5582175" lon="11.2076742"><ele>319.0</ele><time>2026-04-19T08:19:59.294Z</time></trkpt><trkpt lat="43.5583955" lon="11.2076693"><ele>318.0</ele><time>2026-04-19T08:20:00.294Z</time></trkpt><trkpt lat="43.5585739" lon="11.2076557"><ele>317.6666666666667</ele><time>2026-04-19T08:20:01.286Z</time></trkpt><trkpt lat="43.5587477" lon="11.2076138"><ele>317.33333333333337</ele><time>2026-04-19T08:20:02.301Z</time></trkpt><trkpt lat="43.5589188" lon="11.207557"><ele>317.0</ele><time>2026-04-19T08:20:03.288Z</time></trkpt><trkpt lat="43.5590736" lon="11.207491"><ele>317.0</ele><time>2026-04-19T08:20:04.3Z</time></trkpt><trkpt lat="43.559225" lon="11.2074152"><ele>317.0</ele><time>2026-04-19T08:20:05.288Z</time></trkpt><trkpt lat="43.5593669" lon="11.2073232"><ele>317.0</ele><time>2026-04-19T08:20:06.31Z</time></trkpt><trkpt lat="43.5595147" lon="11.2072017"><ele>316.6666666666667</ele><time>2026-04-19T08:20:07.299Z</time></trkpt><trkpt lat="43.5596599" lon="11.20708"><ele>316.3333333333333</ele><time>2026-04-19T08:20:08.292Z</time></trkpt><trkpt lat="43.5598009" lon="11.2069563"><ele>316.0</ele><time>2026-04-19T08:20:09.294Z</time></trkpt><trkpt lat="43.5599454" lon="11.2068409"><ele>316.0</ele><time>2026-04-19T08:20:10.3Z</time></trkpt><trkpt lat="43.5600936" lon="11.2067252"><ele>316.0</ele><time>2026-04-19T08:20:11.301Z</time></trkpt><trkpt lat="43.5602368" lon="11.2066087"><ele>316.0</ele><time>2026-04-19T08:20:12.293Z</time></trkpt><trkpt lat="43.5603808" lon="11.2064981"><ele>319.0</ele><time>2026-04-19T08:20:13.284Z</time></trkpt><trkpt lat="43.5605239" lon="11.2063848"><ele>322.0</ele><time>2026-04-19T08:20:14.293Z</time></trkpt><trkpt lat="43.5606667" lon="11.206272"><ele>325.0</ele><time>2026-04-19T08:20:15.285Z</time></trkpt><trkpt lat="43.5608058" lon="11.206159"><ele>325.0</ele><time>2026-04-19T08:20:16.296Z</time></trkpt><trkpt lat="43.5609369" lon="11.2060545"><ele>325.0</ele><time>2026-04-19T08:20:17.3Z</time></trkpt><trkpt lat="43.5610553" lon="11.2059573"><ele>325.0</ele><time>2026-04-19T08:20:18.282Z</time></trkpt><trkpt lat="43.5611723" lon="11.2058699"><ele>325.0</ele><time>2026-04-19T08:20:19.291Z</time></trkpt><trkpt lat="43.5612774" lon="11.2057956"><ele>324.8</ele><time>2026-04-19T08:20:20.289Z</time></trkpt><trkpt lat="43.5613698" lon="11.2057316"><ele>324.6</ele><time>2026-04-19T08:20:21.311Z</time></trkpt><trkpt lat="43.5614601" lon="11.205668"><ele>324.4</ele><time>2026-04-19T08:20:22.302Z</time></trkpt><trkpt lat="43.5615549" lon="11.2055877"><ele>324.2</ele><time>2026-04-19T08:20:23.304Z</time></trkpt><trkpt lat="43.5616401" lon="11.2054851"><ele>324.0</ele><time>2026-04-19T08:20:24.298Z</time></trkpt><trkpt lat="43.5617235" lon="11.2053609"><ele>323.75</ele><time>2026-04-19T08:20:25.286Z</time></trkpt><trkpt lat="43.5618113" lon="11.2052253"><ele>323.5</ele><time>2026-04-19T08:20:26.279Z</time></trkpt><trkpt lat="43.5618958" lon="11.2050885"><ele>323.25</ele><time>2026-04-19T08:20:27.296Z</time></trkpt><trkpt lat="43.5619735" lon="11.2049312"><ele>323.0</ele><time>2026-04-19T08:20:28.282Z</time></trkpt><trkpt lat="43.5620396" lon="11.2047692"><ele>323.0</ele><time>2026-04-19T08:20:29.3Z</time></trkpt><trkpt lat="43.5620941" lon="11.204605"><ele>323.0</ele><time>2026-04-19T08:20:30.293Z</time></trkpt><trkpt lat="43.5621378" lon="11.204432"><ele>323.0</ele><time>2026-04-19T08:20:31.302Z</time></trkpt><trkpt lat="43.5621652" lon="11.2042464"><ele>323.0</ele><time>2026-04-19T08:20:32.294Z</time></trkpt><trkpt lat="43.56218" lon="11.204059"><ele>323.5</ele><time>2026-04-19T08:20:33.298Z</time></trkpt><trkpt lat="43.5621847" lon="11.2038602"><ele>324.0</ele><time>2026-04-19T08:20:34.293Z</time></trkpt><trkpt lat="43.562182" lon="11.2036641"><ele>324.5</ele><time>2026-04-19T08:20:35.293Z</time></trkpt><trkpt lat="43.5621779" lon="11.2034631"><ele>325.0</ele><time>2026-04-19T08:20:36.304Z</time></trkpt><trkpt lat="43.562163" lon="11.2032626"><ele>325.5</ele><time>2026-04-19T08:20:37.299Z</time></trkpt><trkpt lat="43.5621439" lon="11.203068"><ele>326.0</ele><time>2026-04-19T08:20:38.297Z</time></trkpt><trkpt lat="43.5621301" lon="11.2028776"><ele>326.5</ele><time>2026-04-19T08:20:39.276Z</time></trkpt><trkpt lat="43.5621356" lon="11.2026925"><ele>327.0</ele><time>2026-04-19T08:20:40.312Z</time></trkpt><trkpt lat="43.5621648" lon="11.2025083"><ele>327.0</ele><time>2026-04-19T08:20:41.292Z</time></trkpt><trkpt lat="43.5622207" lon="11.2023391"><ele>327.0</ele><time>2026-04-19T08:20:42.301Z</time></trkpt><trkpt lat="43.5623023" lon="11.2021779"><ele>327.0</ele><time>2026-04-19T08:20:43.29Z</time></trkpt><trkpt lat="43.562392" lon="11.2020208"><ele>327.0</ele><time>2026-04-19T08:20:44.302Z</time></trkpt><trkpt lat="43.5624918" lon="11.2018715"><ele>326.3333333333333</ele><time>2026-04-19T08:20:45.298Z</time></trkpt><trkpt lat="43.5625866" lon="11.2017131"><ele>325.66666666666663</ele><time>2026-04-19T08:20:46.291Z</time></trkpt><trkpt lat="43.5626941" lon="11.2015543"><ele>325.0</ele><time>2026-04-19T08:20:47.298Z</time></trkpt><trkpt lat="43.5628073" lon="11.2013985"><ele>325.0</ele><time>2026-04-19T08:20:48.303Z</time></trkpt><trkpt lat="43.5629224" lon="11.2012507"><ele>325.0</ele><time>2026-04-19T08:20:49.274Z</time></trkpt><trkpt lat="43.5630527" lon="11.2011129"><ele>325.0</ele><time>2026-04-19T08:20:50.302Z</time></trkpt><trkpt lat="43.5631945" lon="11.2009761"><ele>325.0</ele><time>2026-04-19T08:20:51.299Z</time></trkpt><trkpt lat="43.5633351" lon="11.2008405"><ele>325.0</ele><time>2026-04-19T08:20:52.296Z</time></trkpt><trkpt lat="43.5634807" lon="11.2007002"><ele>325.0</ele><time>2026-04-19T08:20:53.305Z</time></trkpt><trkpt lat="43.5636296" lon="11.2005632"><ele>324.3333333333333</ele><time>2026-04-19T08:20:54.288Z</time></trkpt><trkpt lat="43.5637839" lon="11.2004231"><ele>323.6666666666667</ele><time>2026-04-19T08:20:55.292Z</time></trkpt><trkpt lat="43.5639396" lon="11.2002896"><ele>323.0</ele><time>2026-04-19T08:20:56.303Z</time></trkpt><trkpt lat="43.5640932" lon="11.2001627"><ele>323.0</ele><time>2026-04-19T08:20:57.3Z</time></trkpt><trkpt lat="43.564237" lon="11.200044"><ele>323.0</ele><time>2026-04-19T08:20:58.301Z</time></trkpt><trkpt lat="43.5643655" lon="11.199926"><ele>323.0</ele><time>2026-04-19T08:20:59.298Z</time></trkpt><trkpt lat="43.5644682" lon="11.1997951"><ele>323.5</ele><time>2026-04-19T08:21:00.293Z</time></trkpt><trkpt lat="43.5645459" lon="11.1996482"><ele>324.0</ele><time>2026-04-19T08:21:01.294Z</time></trkpt><trkpt lat="43.5645986" lon="11.1994917"><ele>324.5</ele><time>2026-04-19T08:21:02.3Z</time></trkpt><trkpt lat="43.5646237" lon="11.1993339"><ele>325.0</ele><time>2026-04-19T08:21:03.284Z</time></trkpt><trkpt lat="43.5646385" lon="11.1992143"><ele>325.0</ele><time>2026-04-19T08:21:04.302Z</time></trkpt><trkpt lat="43.5646643" lon="11.1991204"><ele>325.0</ele><time>2026-04-19T08:21:05.282Z</time></trkpt><trkpt lat="43.5647566" lon="11.1990073"><ele>325.0</ele><time>2026-04-19T08:21:07.304Z</time></trkpt><trkpt lat="43.5648162" lon="11.1989695"><ele>325.0</ele><time>2026-04-19T08:21:08.307Z</time></trkpt><trkpt lat="43.564875" lon="11.1989346"><ele>325.0</ele><time>2026-04-19T08:21:09.289Z</time></trkpt><trkpt lat="43.5649742" lon="11.1988624"><ele>325.0</ele><time>2026-04-19T08:21:11.277Z</time></trkpt><trkpt lat="43.5650888" lon="11.1987696"><ele>325.2</ele><time>2026-04-19T08:21:13.322Z</time></trkpt><trkpt lat="43.56515" lon="11.1986976"><ele>325.4</ele><time>2026-04-19T08:21:14.282Z</time></trkpt><trkpt lat="43.5652139" lon="11.1986178"><ele>325.6</ele><time>2026-04-19T08:21:15.307Z</time></trkpt><trkpt lat="43.5652848" lon="11.1985264"><ele>325.8</ele><time>2026-04-19T08:21:16.276Z</time></trkpt><trkpt lat="43.5653529" lon="11.1984268"><ele>326.0</ele><time>2026-04-19T08:21:17.284Z</time></trkpt><trkpt lat="43.565416" lon="11.1983293"><ele>325.5</ele><time>2026-04-19T08:21:18.303Z</time></trkpt><trkpt lat="43.5654783" lon="11.1982446"><ele>325.0</ele><time>2026-04-19T08:21:19.294Z</time></trkpt><trkpt lat="43.5655429" lon="11.1981601"><ele>324.5</ele><time>2026-04-19T08:21:20.302Z</time></trkpt><trkpt lat="43.565617" lon="11.1980992"><ele>324.0</ele><time>2026-04-19T08:21:21.302Z</time></trkpt><trkpt lat="43.5656925" lon="11.1980506"><ele>323.5</ele><time>2026-04-19T08:21:22.301Z</time></trkpt><trkpt lat="43.565774" lon="11.1980139"><ele>323.0</ele><time>2026-04-19T08:21:23.312Z</time></trkpt><trkpt lat="43.5658557" lon="11.1979972"><ele>323.0</ele><time>2026-04-19T08:21:24.298Z</time></trkpt><trkpt lat="43.5659331" lon="11.1979818"><ele>323.0</ele><time>2026-04-19T08:21:25.307Z</time></trkpt><trkpt lat="43.5660006" lon="11.1979695"><ele>323.0</ele><time>2026-04-19T08:21:26.283Z</time></trkpt><trkpt lat="43.5661127" lon="11.1979727"><ele>323.0</ele><time>2026-04-19T08:21:28.296Z</time></trkpt><trkpt lat="43.56621" lon="11.1979805"><ele>323.0</ele><time>2026-04-19T08:21:30.304Z</time></trkpt><trkpt lat="43.566298" lon="11.1979871"><ele>323.0</ele><time>2026-04-19T08:21:32.308Z</time></trkpt><trkpt lat="43.5663809" lon="11.1979964"><ele>323.1666666666667</ele><time>2026-04-19T08:21:34.289Z</time></trkpt><trkpt lat="43.5664514" lon="11.1979983"><ele>323.33333333333337</ele><time>2026-04-19T08:21:36.299Z</time></trkpt><trkpt lat="43.5665322" lon="11.1980008"><ele>323.5</ele><time>2026-04-19T08:21:38.299Z</time></trkpt><trkpt lat="43.5666224" lon="11.1980158"><ele>323.6666666666667</ele><time>2026-04-19T08:21:40.301Z</time></trkpt><trkpt lat="43.5667317" lon="11.1980168"><ele>323.8333333333333</ele><time>2026-04-19T08:21:42.304Z</time></trkpt><trkpt lat="43.5667978" lon="11.1980169"><ele>324.0</ele><time>2026-04-19T08:21:43.284Z</time></trkpt><trkpt lat="43.5668638" lon="11.1980104"><ele>324.0</ele><time>2026-04-19T08:21:44.299Z</time></trkpt><trkpt lat="43.5669295" lon="11.19801"><ele>324.0</ele><time>2026-04-19T08:21:45.3Z</time></trkpt><trkpt lat="43.5669965" lon="11.1980173"><ele>324.0</ele><time>2026-04-19T08:21:46.306Z</time></trkpt><trkpt lat="43.567065" lon="11.1980423"><ele>324.0</ele><time>2026-04-19T08:21:47.308Z</time></trkpt><trkpt lat="43.5671455" lon="11.1980455"><ele>324.0</ele><time>2026-04-19T08:21:48.304Z</time></trkpt><trkpt lat="43.5672341" lon="11.1980386"><ele>324.0</ele><time>2026-04-19T08:21:49.313Z</time></trkpt><trkpt lat="43.5673146" lon="11.1980267"><ele>325.0</ele><time>2026-04-19T08:21:50.301Z</time></trkpt><trkpt lat="43.5674245" lon="11.1979957"><ele>326.0</ele><time>2026-04-19T08:21:51.294Z</time></trkpt><trkpt lat="43.5675505" lon="11.1979461"><ele>327.0</ele><time>2026-04-19T08:21:52.294Z</time></trkpt><trkpt lat="43.5676711" lon="11.1978764"><ele>328.0</ele><time>2026-04-19T08:21:53.292Z</time></trkpt><trkpt lat="43.5677724" lon="11.197817"><ele>328.16666666666663</ele><time>2026-04-19T08:21:54.295Z</time></trkpt><trkpt lat="43.5678627" lon="11.1977726"><ele>328.3333333333333</ele><time>2026-04-19T08:21:55.285Z</time></trkpt><trkpt lat="43.5679459" lon="11.1977378"><ele>328.5</ele><time>2026-04-19T08:21:56.299Z</time></trkpt><trkpt lat="43.5680245" lon="11.1977052"><ele>328.6666666666667</ele><time>2026-04-19T08:21:57.289Z</time></trkpt><trkpt lat="43.5680984" lon="11.1976701"><ele>328.83333333333337</ele><time>2026-04-19T08:21:58.301Z</time></trkpt><trkpt lat="43.5681737" lon="11.1976362"><ele>329.0</ele><time>2026-04-19T08:21:59.285Z</time></trkpt><trkpt lat="43.568246" lon="11.1975858"><ele>329.0</ele><time>2026-04-19T08:22:00.284Z</time></trkpt><trkpt lat="43.5683157" lon="11.1975139"><ele>329.0</ele><time>2026-04-19T08:22:01.304Z</time></trkpt><trkpt lat="43.5683799" lon="11.1974169"><ele>329.0</ele><time>2026-04-19T08:22:02.292Z</time></trkpt><trkpt lat="43.5684424" lon="11.197296"><ele>329.0</ele><time>2026-04-19T08:22:03.303Z</time></trkpt><trkpt lat="43.568517" lon="11.1971682"><ele>329.0</ele><time>2026-04-19T08:22:04.294Z</time></trkpt><trkpt lat="43.5685926" lon="11.1970438"><ele>329.0</ele><time>2026-04-19T08:22:05.299Z</time></trkpt><trkpt lat="43.5686648" lon="11.1969155"><ele>329.0</ele><time>2026-04-19T08:22:06.304Z</time></trkpt><trkpt lat="43.5687332" lon="11.1967851"><ele>329.0</ele><time>2026-04-19T08:22:07.303Z</time></trkpt><trkpt lat="43.568798" lon="11.196657"><ele>329.0</ele><time>2026-04-19T08:22:08.289Z</time></trkpt><trkpt lat="43.5688576" lon="11.1965231"><ele>329.0</ele><time>2026-04-19T08:22:09.289Z</time></trkpt><trkpt lat="43.568912" lon="11.1963866"><ele>329.0</ele><time>2026-04-19T08:22:10.295Z</time></trkpt><trkpt lat="43.5689732" lon="11.1962434"><ele>329.0</ele><time>2026-04-19T08:22:11.293Z</time></trkpt><trkpt lat="43.5690329" lon="11.1961039"><ele>329.0</ele><time>2026-04-19T08:22:12.288Z</time></trkpt><trkpt lat="43.5690914" lon="11.1959766"><ele>329.0</ele><time>2026-04-19T08:22:13.295Z</time></trkpt><trkpt lat="43.5691465" lon="11.1958506"><ele>329.0</ele><time>2026-04-19T08:22:14.281Z</time></trkpt><trkpt lat="43.5691989" lon="11.1957229"><ele>329.0</ele><time>2026-04-19T08:22:15.305Z</time></trkpt><trkpt lat="43.5692497" lon="11.1955995"><ele>329.0</ele><time>2026-04-19T08:22:16.279Z</time></trkpt><trkpt lat="43.569297" lon="11.1954745"><ele>329.0</ele><time>2026-04-19T08:22:17.298Z</time></trkpt><trkpt lat="43.5693549" lon="11.1953498"><ele>328.79999999999995</ele><time>2026-04-19T08:22:18.289Z</time></trkpt><trkpt lat="43.5694123" lon="11.1952257"><ele>328.59999999999997</ele><time>2026-04-19T08:22:19.288Z</time></trkpt><trkpt lat="43.56947" lon="11.1951016"><ele>328.4</ele><time>2026-04-19T08:22:20.286Z</time></trkpt><trkpt lat="43.5695247" lon="11.1949912"><ele>328.2</ele><time>2026-04-19T08:22:21.283Z</time></trkpt><trkpt lat="43.5695728" lon="11.1948849"><ele>328.0</ele><time>2026-04-19T08:22:22.287Z</time></trkpt><trkpt lat="43.5696195" lon="11.1947723"><ele>327.4</ele><time>2026-04-19T08:22:23.28Z</time></trkpt><trkpt lat="43.5696698" lon="11.1946646"><ele>326.79999999999995</ele><time>2026-04-19T08:22:24.278Z</time></trkpt><trkpt lat="43.5697169" lon="11.1945554"><ele>326.2</ele><time>2026-04-19T08:22:25.297Z</time></trkpt><trkpt lat="43.5697674" lon="11.194452"><ele>325.6</ele><time>2026-04-19T08:22:26.278Z</time></trkpt><trkpt lat="43.5698158" lon="11.1943474"><ele>325.0</ele><time>2026-04-19T08:22:27.28Z</time></trkpt><trkpt lat="43.5698793" lon="11.1942621"><ele>325.0</ele><time>2026-04-19T08:22:28.299Z</time></trkpt><trkpt lat="43.56995" lon="11.1942051"><ele>325.0</ele><time>2026-04-19T08:22:29.296Z</time></trkpt><trkpt lat="43.5700333" lon="11.1941695"><ele>325.0</ele><time>2026-04-19T08:22:30.295Z</time></trkpt><trkpt lat="43.5701303" lon="11.1941494"><ele>325.0</ele><time>2026-04-19T08:22:31.302Z</time></trkpt><trkpt lat="43.5702323" lon="11.1941367"><ele>325.0</ele><time>2026-04-19T08:22:32.298Z</time></trkpt><trkpt lat="43.5703367" lon="11.1941174"><ele>323.8</ele><time>2026-04-19T08:22:33.303Z</time></trkpt><trkpt lat="43.5704419" lon="11.1941077"><ele>322.6</ele><time>2026-04-19T08:22:34.289Z</time></trkpt><trkpt lat="43.5705476" lon="11.1941169"><ele>321.4</ele><time>2026-04-19T08:22:35.295Z</time></trkpt><trkpt lat="43.5706429" lon="11.1941371"><ele>320.2</ele><time>2026-04-19T08:22:36.283Z</time></trkpt><trkpt lat="43.5707455" lon="11.1941671"><ele>319.0</ele><time>2026-04-19T08:22:37.3Z</time></trkpt><trkpt lat="43.5708519" lon="11.1942105"><ele>319.0</ele><time>2026-04-19T08:22:38.289Z</time></trkpt><trkpt lat="43.5709633" lon="11.1942415"><ele>319.0</ele><time>2026-04-19T08:22:39.294Z</time></trkpt><trkpt lat="43.5710746" lon="11.1942513"><ele>319.0</ele><time>2026-04-19T08:22:40.296Z</time></trkpt><trkpt lat="43.5711946" lon="11.1942499"><ele>319.0</ele><time>2026-04-19T08:22:41.295Z</time></trkpt><trkpt lat="43.5713097" lon="11.1942401"><ele>319.0</ele><time>2026-04-19T08:22:42.3Z</time></trkpt><trkpt lat="43.571421" lon="11.1942282"><ele>319.0</ele><time>2026-04-19T08:22:43.291Z</time></trkpt><trkpt lat="43.5715193" lon="11.1942206"><ele>319.0</ele><time>2026-04-19T08:22:44.286Z</time></trkpt><trkpt lat="43.5716194" lon="11.1942154"><ele>319.0</ele><time>2026-04-19T08:22:45.302Z</time></trkpt><trkpt lat="43.5717299" lon="11.1942122"><ele>319.0</ele><time>2026-04-19T08:22:46.298Z</time></trkpt><trkpt lat="43.5718462" lon="11.1942011"><ele>319.0</ele><time>2026-04-19T08:22:47.293Z</time></trkpt><trkpt lat="43.5719598" lon="11.1941876"><ele>319.0</ele><time>2026-04-19T08:22:48.283Z</time></trkpt><trkpt lat="43.5720619" lon="11.1941763"><ele>319.0</ele><time>2026-04-19T08:22:49.308Z</time></trkpt><trkpt lat="43.5721653" lon="11.1941684"><ele>319.0</ele><time>2026-04-19T08:22:50.29Z</time></trkpt><trkpt lat="43.572267" lon="11.1941639"><ele>319.0</ele><time>2026-04-19T08:22:51.304Z</time></trkpt><trkpt lat="43.5723681" lon="11.1941558"><ele>318.75</ele><time>2026-04-19T08:22:52.29Z</time></trkpt><trkpt lat="43.5724711" lon="11.1941392"><ele>318.5</ele><time>2026-04-19T08:22:53.306Z</time></trkpt><trkpt lat="43.572583" lon="11.1941081"><ele>318.25</ele><time>2026-04-19T08:22:54.281Z</time></trkpt><trkpt lat="43.5727007" lon="11.1940687"><ele>318.0</ele><time>2026-04-19T08:22:55.289Z</time></trkpt><trkpt lat="43.5728251" lon="11.1940249"><ele>318.75</ele><time>2026-04-19T08:22:56.3Z</time></trkpt><trkpt lat="43.5729474" lon="11.193981"><ele>319.5</ele><time>2026-04-19T08:22:57.288Z</time></trkpt><trkpt lat="43.5730723" lon="11.1939364"><ele>320.25</ele><time>2026-04-19T08:22:58.293Z</time></trkpt><trkpt lat="43.5731931" lon="11.1938873"><ele>321.0</ele><time>2026-04-19T08:22:59.28Z</time></trkpt><trkpt lat="43.5733179" lon="11.1938234"><ele>321.0</ele><time>2026-04-19T08:23:00.291Z</time></trkpt><trkpt lat="43.5734426" lon="11.1937685"><ele>321.0</ele><time>2026-04-19T08:23:01.299Z</time></trkpt><trkpt lat="43.5735609" lon="11.1937145"><ele>321.0</ele><time>2026-04-19T08:23:02.298Z</time></trkpt><trkpt lat="43.5736796" lon="11.1936636"><ele>321.0</ele><time>2026-04-19T08:23:03.296Z</time></trkpt><trkpt lat="43.5737957" lon="11.1936296"><ele>322.25</ele><time>2026-04-19T08:23:04.301Z</time></trkpt><trkpt lat="43.573911" lon="11.1935958"><ele>323.5</ele><time>2026-04-19T08:23:05.308Z</time></trkpt><trkpt lat="43.5740266" lon="11.1935441"><ele>324.75</ele><time>2026-04-19T08:23:06.296Z</time></trkpt><trkpt lat="43.5741334" lon="11.1934786"><ele>326.0</ele><time>2026-04-19T08:23:07.307Z</time></trkpt><trkpt lat="43.5742428" lon="11.193401"><ele>326.0</ele><time>2026-04-19T08:23:08.299Z</time></trkpt><trkpt lat="43.5743512" lon="11.1933286"><ele>326.0</ele><time>2026-04-19T08:23:09.298Z</time></trkpt><trkpt lat="43.5744466" lon="11.1932688"><ele>326.0</ele><time>2026-04-19T08:23:10.298Z</time></trkpt><trkpt lat="43.574528" lon="11.1932169"><ele>326.0</ele><time>2026-04-19T08:23:11.302Z</time></trkpt><trkpt lat="43.5746118" lon="11.193172"><ele>326.0</ele><time>2026-04-19T08:23:12.301Z</time></trkpt><trkpt lat="43.5747025" lon="11.1931327"><ele>325.6</ele><time>2026-04-19T08:23:13.307Z</time></trkpt><trkpt lat="43.5747925" lon="11.1930925"><ele>325.20000000000005</ele><time>2026-04-19T08:23:14.299Z</time></trkpt><trkpt lat="43.5748952" lon="11.1930574"><ele>324.79999999999995</ele><time>2026-04-19T08:23:15.307Z</time></trkpt><trkpt lat="43.5749903" lon="11.1930213"><ele>324.4</ele><time>2026-04-19T08:23:16.301Z</time></trkpt><trkpt lat="43.5750781" lon="11.1929915"><ele>324.0</ele><time>2026-04-19T08:23:17.277Z</time></trkpt><trkpt lat="43.5751662" lon="11.1929646"><ele>324.0</ele><time>2026-04-19T08:23:18.281Z</time></trkpt><trkpt lat="43.5752485" lon="11.192937"><ele>324.0</ele><time>2026-04-19T08:23:19.293Z</time></trkpt><trkpt lat="43.5753233" lon="11.1929077"><ele>324.0</ele><time>2026-04-19T08:23:20.313Z</time></trkpt><trkpt lat="43.5753966" lon="11.1928696"><ele>324.0</ele><time>2026-04-19T08:23:21.295Z</time></trkpt><trkpt lat="43.5754723" lon="11.1928292"><ele>324.0</ele><time>2026-04-19T08:23:22.285Z</time></trkpt><trkpt lat="43.5755505" lon="11.1927932"><ele>324.0</ele><time>2026-04-19T08:23:23.28Z</time></trkpt><trkpt lat="43.575636" lon="11.1927666"><ele>323.79999999999995</ele><time>2026-04-19T08:23:24.288Z</time></trkpt><trkpt lat="43.5757297" lon="11.1927391"><ele>323.59999999999997</ele><time>2026-04-19T08:23:25.303Z</time></trkpt><trkpt lat="43.5758319" lon="11.1927073"><ele>323.4</ele><time>2026-04-19T08:23:26.284Z</time></trkpt><trkpt lat="43.5759255" lon="11.1926834"><ele>323.2</ele><time>2026-04-19T08:23:27.283Z</time></trkpt><trkpt lat="43.576019" lon="11.1926624"><ele>323.0</ele><time>2026-04-19T08:23:28.298Z</time></trkpt><trkpt lat="43.5761166" lon="11.1926415"><ele>322.4</ele><time>2026-04-19T08:23:29.291Z</time></trkpt><trkpt lat="43.5762025" lon="11.1926191"><ele>321.79999999999995</ele><time>2026-04-19T08:23:30.294Z</time></trkpt><trkpt lat="43.5762955" lon="11.192605"><ele>321.2</ele><time>2026-04-19T08:23:31.285Z</time></trkpt><trkpt lat="43.5763921" lon="11.1925944"><ele>320.6</ele><time>2026-04-19T08:23:32.304Z</time></trkpt><trkpt lat="43.5764848" lon="11.1925934"><ele>320.0</ele><time>2026-04-19T08:23:33.299Z</time></trkpt><trkpt lat="43.5765769" lon="11.192585"><ele>320.0</ele><time>2026-04-19T08:23:34.3Z</time></trkpt><trkpt lat="43.5766721" lon="11.1925696"><ele>320.0</ele><time>2026-04-19T08:23:35.299Z</time></trkpt><trkpt lat="43.57677" lon="11.1925449"><ele>320.0</ele><time>2026-04-19T08:23:36.299Z</time></trkpt><trkpt lat="43.5768654" lon="11.1925185"><ele>320.0</ele><time>2026-04-19T08:23:37.29Z</time></trkpt><trkpt lat="43.5769618" lon="11.1924942"><ele>320.0</ele><time>2026-04-19T08:23:38.3Z</time></trkpt><trkpt lat="43.5770601" lon="11.1924616"><ele>318.8</ele><time>2026-04-19T08:23:39.295Z</time></trkpt><trkpt lat="43.577163" lon="11.192427"><ele>317.6</ele><time>2026-04-19T08:23:40.301Z</time></trkpt><trkpt lat="43.5772566" lon="11.1923873"><ele>316.4</ele><time>2026-04-19T08:23:41.304Z</time></trkpt><trkpt lat="43.5773451" lon="11.1923447"><ele>315.2</ele><time>2026-04-19T08:23:42.307Z</time></trkpt><trkpt lat="43.5774293" lon="11.1922945"><ele>314.0</ele><time>2026-04-19T08:23:43.304Z</time></trkpt><trkpt lat="43.5775081" lon="11.1922443"><ele>314.0</ele><time>2026-04-19T08:23:44.301Z</time></trkpt><trkpt lat="43.5775825" lon="11.1921855"><ele>314.0</ele><time>2026-04-19T08:23:45.277Z</time></trkpt><trkpt lat="43.5776566" lon="11.1921178"><ele>314.0</ele><time>2026-04-19T08:23:46.294Z</time></trkpt><trkpt lat="43.5777314" lon="11.1920394"><ele>314.0</ele><time>2026-04-19T08:23:47.284Z</time></trkpt><trkpt lat="43.5778119" lon="11.191938"><ele>314.0</ele><time>2026-04-19T08:23:48.293Z</time></trkpt><trkpt lat="43.5778976" lon="11.1918294"><ele>312.25</ele><time>2026-04-19T08:23:49.297Z</time></trkpt><trkpt lat="43.5779857" lon="11.1917234"><ele>310.5</ele><time>2026-04-19T08:23:50.279Z</time></trkpt><trkpt lat="43.5780755" lon="11.1916213"><ele>308.75</ele><time>2026-04-19T08:23:51.295Z</time></trkpt><trkpt lat="43.5781766" lon="11.1915194"><ele>307.0</ele><time>2026-04-19T08:23:52.278Z</time></trkpt><trkpt lat="43.5782839" lon="11.1914195"><ele>306.5</ele><time>2026-04-19T08:23:53.293Z</time></trkpt><trkpt lat="43.57839" lon="11.1913195"><ele>306.0</ele><time>2026-04-19T08:23:54.3Z</time></trkpt><trkpt lat="43.5784947" lon="11.1912191"><ele>305.5</ele><time>2026-04-19T08:23:55.276Z</time></trkpt><trkpt lat="43.5785889" lon="11.1911227"><ele>305.0</ele><time>2026-04-19T08:23:56.295Z</time></trkpt><trkpt lat="43.5786724" lon="11.1910289"><ele>306.2</ele><time>2026-04-19T08:23:57.297Z</time></trkpt><trkpt lat="43.5787463" lon="11.1909311"><ele>307.4</ele><time>2026-04-19T08:23:58.299Z</time></trkpt><trkpt lat="43.5788189" lon="11.1908218"><ele>308.6</ele><time>2026-04-19T08:23:59.297Z</time></trkpt><trkpt lat="43.57889" lon="11.1907053"><ele>309.8</ele><time>2026-04-19T08:24:00.291Z</time></trkpt><trkpt lat="43.5789604" lon="11.1905845"><ele>311.0</ele><time>2026-04-19T08:24:01.3Z</time></trkpt><trkpt lat="43.579032" lon="11.1904623"><ele>311.0</ele><time>2026-04-19T08:24:02.29Z</time></trkpt><trkpt lat="43.5791051" lon="11.1903508"><ele>311.0</ele><time>2026-04-19T08:24:03.308Z</time></trkpt><trkpt lat="43.5791816" lon="11.1902463"><ele>311.0</ele><time>2026-04-19T08:24:04.302Z</time></trkpt><trkpt lat="43.5792679" lon="11.1901496"><ele>311.0</ele><time>2026-04-19T08:24:05.297Z</time></trkpt><trkpt lat="43.5793567" lon="11.1900746"><ele>311.0</ele><time>2026-04-19T08:24:06.292Z</time></trkpt><trkpt lat="43.5794384" lon="11.1900063"><ele>311.0</ele><time>2026-04-19T08:24:07.291Z</time></trkpt><trkpt lat="43.5795057" lon="11.1899508"><ele>311.0</ele><time>2026-04-19T08:24:08.282Z</time></trkpt><trkpt lat="43.5796081" lon="11.1898679"><ele>311.0</ele><time>2026-04-19T08:24:10.297Z</time></trkpt><trkpt lat="43.5797314" lon="11.1897645"><ele>311.0</ele><time>2026-04-19T08:24:12.29Z</time></trkpt><trkpt lat="43.5798198" lon="11.1896756"><ele>310.75</ele><time>2026-04-19T08:24:13.292Z</time></trkpt><trkpt lat="43.579914" lon="11.189578"><ele>310.5</ele><time>2026-04-19T08:24:14.297Z</time></trkpt><trkpt lat="43.5800129" lon="11.189475"><ele>310.25</ele><time>2026-04-19T08:24:15.288Z</time></trkpt><trkpt lat="43.5801191" lon="11.1893714"><ele>310.0</ele><time>2026-04-19T08:24:16.296Z</time></trkpt><trkpt lat="43.5802323" lon="11.1892667"><ele>310.0</ele><time>2026-04-19T08:24:17.305Z</time></trkpt><trkpt lat="43.5803455" lon="11.1891657"><ele>310.0</ele><time>2026-04-19T08:24:18.288Z</time></trkpt><trkpt lat="43.5804522" lon="11.189073"><ele>310.0</ele><time>2026-04-19T08:24:19.283Z</time></trkpt><trkpt lat="43.580555" lon="11.1889897"><ele>310.0</ele><time>2026-04-19T08:24:20.278Z</time></trkpt><trkpt lat="43.5806525" lon="11.1889236"><ele>309.8333333333333</ele><time>2026-04-19T08:24:21.283Z</time></trkpt><trkpt lat="43.5807388" lon="11.1888722"><ele>309.66666666666663</ele><time>2026-04-19T08:24:22.291Z</time></trkpt><trkpt lat="43.5808183" lon="11.188818"><ele>309.5</ele><time>2026-04-19T08:24:23.28Z</time></trkpt><trkpt lat="43.5808943" lon="11.1887606"><ele>309.3333333333333</ele><time>2026-04-19T08:24:24.291Z</time></trkpt><trkpt lat="43.5809621" lon="11.1886984"><ele>309.1666666666667</ele><time>2026-04-19T08:24:25.291Z</time></trkpt><trkpt lat="43.5810282" lon="11.188648"><ele>309.0</ele><time>2026-04-19T08:24:26.294Z</time></trkpt><trkpt lat="43.5810981" lon="11.1886168"><ele>309.0</ele><time>2026-04-19T08:24:27.301Z</time></trkpt><trkpt lat="43.581179" lon="11.1886213"><ele>309.0</ele><time>2026-04-19T08:24:28.286Z</time></trkpt><trkpt lat="43.5812789" lon="11.188658"><ele>309.0</ele><time>2026-04-19T08:24:29.297Z</time></trkpt><trkpt lat="43.5813843" lon="11.1887021"><ele>309.0</ele><time>2026-04-19T08:24:30.302Z</time></trkpt><trkpt lat="43.5814853" lon="11.1887378"><ele>309.0</ele><time>2026-04-19T08:24:31.281Z</time></trkpt><trkpt lat="43.5815726" lon="11.1887288"><ele>308.2</ele><time>2026-04-19T08:24:32.292Z</time></trkpt><trkpt lat="43.5816526" lon="11.1887035"><ele>307.4</ele><time>2026-04-19T08:24:33.296Z</time></trkpt><trkpt lat="43.5817214" lon="11.1886737"><ele>306.6</ele><time>2026-04-19T08:24:34.305Z</time></trkpt><trkpt lat="43.5818449" lon="11.1886597"><ele>305.8</ele><time>2026-04-19T08:24:36.296Z</time></trkpt><trkpt lat="43.5819329" lon="11.1886841"><ele>305.0</ele><time>2026-04-19T08:24:37.297Z</time></trkpt><trkpt lat="43.5820507" lon="11.1887494"><ele>304.33333333333337</ele><time>2026-04-19T08:24:38.287Z</time></trkpt><trkpt lat="43.5821813" lon="11.1888334"><ele>303.6666666666667</ele><time>2026-04-19T08:24:39.276Z</time></trkpt><trkpt lat="43.5823346" lon="11.1889206"><ele>303.0</ele><time>2026-04-19T08:24:40.296Z</time></trkpt><trkpt lat="43.5824898" lon="11.1890118"><ele>299.0</ele><time>2026-04-19T08:24:41.295Z</time></trkpt><trkpt lat="43.5826456" lon="11.1890977"><ele>295.0</ele><time>2026-04-19T08:24:42.299Z</time></trkpt><trkpt lat="43.582797" lon="11.1891788"><ele>291.0</ele><time>2026-04-19T08:24:43.286Z</time></trkpt><trkpt lat="43.5829478" lon="11.189262"><ele>291.0</ele><time>2026-04-19T08:24:44.293Z</time></trkpt><trkpt lat="43.5831021" lon="11.1893451"><ele>291.0</ele><time>2026-04-19T08:24:45.306Z</time></trkpt><trkpt lat="43.5832596" lon="11.1894256"><ele>291.0</ele><time>2026-04-19T08:24:46.3Z</time></trkpt><trkpt lat="43.5834115" lon="11.1895034"><ele>291.0</ele><time>2026-04-19T08:24:47.301Z</time></trkpt><trkpt lat="43.583562" lon="11.1895858"><ele>291.0</ele><time>2026-04-19T08:24:48.302Z</time></trkpt><trkpt lat="43.5837115" lon="11.1896759"><ele>291.0</ele><time>2026-04-19T08:24:49.292Z</time></trkpt><trkpt lat="43.5838607" lon="11.1897739"><ele>289.0</ele><time>2026-04-19T08:24:50.289Z</time></trkpt><trkpt lat="43.584009" lon="11.189879"><ele>287.0</ele><time>2026-04-19T08:24:51.292Z</time></trkpt><trkpt lat="43.5841431" lon="11.1899891"><ele>285.0</ele><time>2026-04-19T08:24:52.276Z</time></trkpt><trkpt lat="43.5842753" lon="11.1901001"><ele>285.0</ele><time>2026-04-19T08:24:53.293Z</time></trkpt><trkpt lat="43.5844026" lon="11.1902257"><ele>285.0</ele><time>2026-04-19T08:24:54.298Z</time></trkpt><trkpt lat="43.584523" lon="11.1903581"><ele>285.0</ele><time>2026-04-19T08:24:55.295Z</time></trkpt><trkpt lat="43.5846455" lon="11.1904936"><ele>287.0</ele><time>2026-04-19T08:24:56.291Z</time></trkpt><trkpt lat="43.5847641" lon="11.1906244"><ele>289.0</ele><time>2026-04-19T08:24:57.308Z</time></trkpt><trkpt lat="43.5848818" lon="11.190756"><ele>291.0</ele><time>2026-04-19T08:24:58.297Z</time></trkpt><trkpt lat="43.5849968" lon="11.1908755"><ele>293.0</ele><time>2026-04-19T08:24:59.305Z</time></trkpt><trkpt lat="43.5851043" lon="11.1909946"><ele>292.75</ele><time>2026-04-19T08:25:00.288Z</time></trkpt><trkpt lat="43.5852029" lon="11.1911251"><ele>292.5</ele><time>2026-04-19T08:25:01.284Z</time></trkpt><trkpt lat="43.5853019" lon="11.1912684"><ele>292.25</ele><time>2026-04-19T08:25:02.296Z</time></trkpt><trkpt lat="43.5853973" lon="11.1914259"><ele>292.0</ele><time>2026-04-19T08:25:03.302Z</time></trkpt><trkpt lat="43.5854876" lon="11.191597"><ele>287.3333333333333</ele><time>2026-04-19T08:25:04.3Z</time></trkpt><trkpt lat="43.5855774" lon="11.19177"><ele>282.6666666666667</ele><time>2026-04-19T08:25:05.29Z</time></trkpt><trkpt lat="43.5856708" lon="11.1919436"><ele>278.0</ele><time>2026-04-19T08:25:06.296Z</time></trkpt><trkpt lat="43.5857649" lon="11.1921262"><ele>278.0</ele><time>2026-04-19T08:25:07.295Z</time></trkpt><trkpt lat="43.5858578" lon="11.1923092"><ele>278.0</ele><time>2026-04-19T08:25:08.304Z</time></trkpt><trkpt lat="43.5859525" lon="11.1924953"><ele>278.0</ele><time>2026-04-19T08:25:09.299Z</time></trkpt><trkpt lat="43.5860442" lon="11.1926777"><ele>279.0</ele><time>2026-04-19T08:25:10.277Z</time></trkpt><trkpt lat="43.5861286" lon="11.192843"><ele>280.0</ele><time>2026-04-19T08:25:11.306Z</time></trkpt><trkpt lat="43.5861938" lon="11.1929988"><ele>281.0</ele><time>2026-04-19T08:25:12.301Z</time></trkpt><trkpt lat="43.5862503" lon="11.1931488"><ele>282.0</ele><time>2026-04-19T08:25:13.296Z</time></trkpt><trkpt lat="43.5862943" lon="11.1933167"><ele>278.5</ele><time>2026-04-19T08:25:14.281Z</time></trkpt><trkpt lat="43.5863323" lon="11.1935061"><ele>275.0</ele><time>2026-04-19T08:25:15.29Z</time></trkpt><trkpt lat="43.5863663" lon="11.1936997"><ele>271.5</ele><time>2026-04-19T08:25:16.291Z</time></trkpt><trkpt lat="43.5863991" lon="11.1938932"><ele>268.0</ele><time>2026-04-19T08:25:17.295Z</time></trkpt><trkpt lat="43.5864308" lon="11.1940708"><ele>266.2</ele><time>2026-04-19T08:25:18.29Z</time></trkpt><trkpt lat="43.5864481" lon="11.194238"><ele>264.4</ele><time>2026-04-19T08:25:19.301Z</time></trkpt><trkpt lat="43.5864463" lon="11.1943947"><ele>262.59999999999997</ele><time>2026-04-19T08:25:20.3Z</time></trkpt><trkpt lat="43.5864467" lon="11.1945395"><ele>260.8</ele><time>2026-04-19T08:25:21.303Z</time></trkpt><trkpt lat="43.5864816" lon="11.1946669"><ele>259.0</ele><time>2026-04-19T08:25:22.298Z</time></trkpt><trkpt lat="43.5865707" lon="11.1947551"><ele>259.0</ele><time>2026-04-19T08:25:23.292Z</time></trkpt><trkpt lat="43.5866868" lon="11.194825"><ele>259.0</ele><time>2026-04-19T08:25:24.293Z</time></trkpt><trkpt lat="43.586809" lon="11.1948757"><ele>259.0</ele><time>2026-04-19T08:25:25.279Z</time></trkpt><trkpt lat="43.5869251" lon="11.194951"><ele>259.0</ele><time>2026-04-19T08:25:26.283Z</time></trkpt><trkpt lat="43.5870089" lon="11.1950689"><ele>256.5</ele><time>2026-04-19T08:25:27.301Z</time></trkpt><trkpt lat="43.5870586" lon="11.1952173"><ele>254.0</ele><time>2026-04-19T08:25:28.292Z</time></trkpt><trkpt lat="43.5871068" lon="11.1953682"><ele>251.5</ele><time>2026-04-19T08:25:29.307Z</time></trkpt><trkpt lat="43.5871713" lon="11.1954999"><ele>249.0</ele><time>2026-04-19T08:25:30.301Z</time></trkpt><trkpt lat="43.5872801" lon="11.1955844"><ele>249.0</ele><time>2026-04-19T08:25:31.298Z</time></trkpt><trkpt lat="43.587415" lon="11.1956414"><ele>249.0</ele><time>2026-04-19T08:25:32.289Z</time></trkpt><trkpt lat="43.5875646" lon="11.1956475"><ele>249.0</ele><time>2026-04-19T08:25:33.292Z</time></trkpt><trkpt lat="43.5877206" lon="11.1956372"><ele>249.0</ele><time>2026-04-19T08:25:34.301Z</time></trkpt><trkpt lat="43.5878922" lon="11.1956213"><ele>246.75</ele><time>2026-04-19T08:25:35.294Z</time></trkpt><trkpt lat="43.5880543" lon="11.1956218"><ele>244.5</ele><time>2026-04-19T08:25:36.294Z</time></trkpt><trkpt lat="43.5882012" lon="11.1956315"><ele>242.25</ele><time>2026-04-19T08:25:37.296Z</time></trkpt><trkpt lat="43.58833" lon="11.1956764"><ele>240.0</ele><time>2026-04-19T08:25:38.291Z</time></trkpt><trkpt lat="43.5884432" lon="11.1957649"><ele>237.0</ele><time>2026-04-19T08:25:39.303Z</time></trkpt><trkpt lat="43.5885294" lon="11.1958901"><ele>234.0</ele><time>2026-04-19T08:25:40.292Z</time></trkpt><trkpt lat="43.5885882" lon="11.1960459"><ele>231.0</ele><time>2026-04-19T08:25:41.298Z</time></trkpt><trkpt lat="43.5886362" lon="11.1962434"><ele>228.0</ele><time>2026-04-19T08:25:42.287Z</time></trkpt><trkpt lat="43.5887067" lon="11.1964348"><ele>224.0</ele><time>2026-04-19T08:25:43.295Z</time></trkpt><trkpt lat="43.5888149" lon="11.1965675"><ele>220.0</ele><time>2026-04-19T08:25:44.281Z</time></trkpt><trkpt lat="43.5889496" lon="11.1966383"><ele>216.0</ele><time>2026-04-19T08:25:45.291Z</time></trkpt><trkpt lat="43.5890988" lon="11.1966908"><ele>212.0</ele><time>2026-04-19T08:25:46.293Z</time></trkpt><trkpt lat="43.5892579" lon="11.1967259"><ele>212.0</ele><time>2026-04-19T08:25:47.295Z</time></trkpt><trkpt lat="43.5894133" lon="11.1967325"><ele>212.0</ele><time>2026-04-19T08:25:48.291Z</time></trkpt><trkpt lat="43.5895583" lon="11.1966939"><ele>212.0</ele><time>2026-04-19T08:25:49.287Z</time></trkpt><trkpt lat="43.5896948" lon="11.1966085"><ele>212.66666666666669</ele><time>2026-04-19T08:25:50.296Z</time></trkpt><trkpt lat="43.5898316" lon="11.1964758"><ele>213.33333333333331</ele><time>2026-04-19T08:25:51.307Z</time></trkpt><trkpt lat="43.5899595" lon="11.1963061"><ele>214.0</ele><time>2026-04-19T08:25:52.289Z</time></trkpt><trkpt lat="43.5900695" lon="11.1961223"><ele>214.0</ele><time>2026-04-19T08:25:53.299Z</time></trkpt><trkpt lat="43.5901804" lon="11.195942"><ele>214.0</ele><time>2026-04-19T08:25:54.303Z</time></trkpt><trkpt lat="43.5902923" lon="11.1957652"><ele>214.0</ele><time>2026-04-19T08:25:55.309Z</time></trkpt><trkpt lat="43.5904148" lon="11.1956033"><ele>211.5</ele><time>2026-04-19T08:25:56.296Z</time></trkpt><trkpt lat="43.5905363" lon="11.1954827"><ele>209.0</ele><time>2026-04-19T08:25:57.302Z</time></trkpt><trkpt lat="43.5906621" lon="11.1953822"><ele>206.5</ele><time>2026-04-19T08:25:58.304Z</time></trkpt><trkpt lat="43.5907639" lon="11.1952501"><ele>204.0</ele><time>2026-04-19T08:25:59.282Z</time></trkpt><trkpt lat="43.5908205" lon="11.1950839"><ele>204.0</ele><time>2026-04-19T08:26:00.295Z</time></trkpt><trkpt lat="43.590866" lon="11.1948877"><ele>204.0</ele><time>2026-04-19T08:26:01.295Z</time></trkpt><trkpt lat="43.5909098" lon="11.1946883"><ele>204.0</ele><time>2026-04-19T08:26:02.301Z</time></trkpt><trkpt lat="43.5909792" lon="11.1945168"><ele>204.0</ele><time>2026-04-19T08:26:03.306Z</time></trkpt><trkpt lat="43.5910721" lon="11.1943877"><ele>203.0</ele><time>2026-04-19T08:26:04.309Z</time></trkpt><trkpt lat="43.5911891" lon="11.1942977"><ele>202.0</ele><time>2026-04-19T08:26:05.292Z</time></trkpt><trkpt lat="43.5913122" lon="11.1942521"><ele>201.0</ele><time>2026-04-19T08:26:06.295Z</time></trkpt><trkpt lat="43.5914417" lon="11.1942615"><ele>200.0</ele><time>2026-04-19T08:26:07.315Z</time></trkpt><trkpt lat="43.5915691" lon="11.1943384"><ele>200.0</ele><time>2026-04-19T08:26:08.303Z</time></trkpt><trkpt lat="43.5916833" lon="11.1944876"><ele>200.0</ele><time>2026-04-19T08:26:09.299Z</time></trkpt><trkpt lat="43.5917872" lon="11.1946743"><ele>200.0</ele><time>2026-04-19T08:26:10.292Z</time></trkpt><trkpt lat="43.5918901" lon="11.1948358"><ele>197.75</ele><time>2026-04-19T08:26:11.285Z</time></trkpt><trkpt lat="43.5919859" lon="11.1949763"><ele>195.5</ele><time>2026-04-19T08:26:12.302Z</time></trkpt><trkpt lat="43.5920724" lon="11.1951127"><ele>193.25</ele><time>2026-04-19T08:26:13.294Z</time></trkpt><trkpt lat="43.5921487" lon="11.1952528"><ele>191.0</ele><time>2026-04-19T08:26:14.292Z</time></trkpt><trkpt lat="43.5922173" lon="11.1953916"><ele>191.0</ele><time>2026-04-19T08:26:15.297Z</time></trkpt><trkpt lat="43.5922747" lon="11.1955382"><ele>191.0</ele><time>2026-04-19T08:26:16.296Z</time></trkpt><trkpt lat="43.5923166" lon="11.1956909"><ele>191.0</ele><time>2026-04-19T08:26:17.303Z</time></trkpt><trkpt lat="43.5923551" lon="11.1958432"><ele>191.0</ele><time>2026-04-19T08:26:18.296Z</time></trkpt><trkpt lat="43.5923904" lon="11.1959936"><ele>189.0</ele><time>2026-04-19T08:26:19.297Z</time></trkpt><trkpt lat="43.5924222" lon="11.1961422"><ele>187.0</ele><time>2026-04-19T08:26:20.277Z</time></trkpt><trkpt lat="43.5924639" lon="11.1962884"><ele>185.0</ele><time>2026-04-19T08:26:21.303Z</time></trkpt><trkpt lat="43.5925071" lon="11.1964408"><ele>183.0</ele><time>2026-04-19T08:26:22.291Z</time></trkpt><trkpt lat="43.5925503" lon="11.1965979"><ele>181.75</ele><time>2026-04-19T08:26:23.299Z</time></trkpt><trkpt lat="43.5925971" lon="11.1967623"><ele>180.5</ele><time>2026-04-19T08:26:24.304Z</time></trkpt><trkpt lat="43.5926431" lon="11.1969267"><ele>179.25</ele><time>2026-04-19T08:26:25.28Z</time></trkpt><trkpt lat="43.5926895" lon="11.197092"><ele>178.0</ele><time>2026-04-19T08:26:26.293Z</time></trkpt><trkpt lat="43.5927333" lon="11.1972594"><ele>176.75</ele><time>2026-04-19T08:26:27.281Z</time></trkpt><trkpt lat="43.5927821" lon="11.1974324"><ele>175.5</ele><time>2026-04-19T08:26:28.277Z</time></trkpt><trkpt lat="43.5928313" lon="11.1976072"><ele>174.25</ele><time>2026-04-19T08:26:29.272Z</time></trkpt><trkpt lat="43.5928837" lon="11.1977795"><ele>173.0</ele><time>2026-04-19T08:26:30.294Z</time></trkpt><trkpt lat="43.592935" lon="11.1979558"><ele>172.25</ele><time>2026-04-19T08:26:31.292Z</time></trkpt><trkpt lat="43.592981" lon="11.1981274"><ele>171.5</ele><time>2026-04-19T08:26:32.298Z</time></trkpt><trkpt lat="43.5930237" lon="11.1982932"><ele>170.75</ele><time>2026-04-19T08:26:33.272Z</time></trkpt><trkpt lat="43.5930665" lon="11.1984556"><ele>170.0</ele><time>2026-04-19T08:26:34.3Z</time></trkpt><trkpt lat="43.5931085" lon="11.1986149"><ele>168.6</ele><time>2026-04-19T08:26:35.282Z</time></trkpt><trkpt lat="43.5931449" lon="11.1987639"><ele>167.2</ele><time>2026-04-19T08:26:36.314Z</time></trkpt><trkpt lat="43.5931779" lon="11.1988934"><ele>165.8</ele><time>2026-04-19T08:26:37.294Z</time></trkpt><trkpt lat="43.5932016" lon="11.1989999"><ele>164.4</ele><time>2026-04-19T08:26:38.302Z</time></trkpt><trkpt lat="43.5932115" lon="11.1990904"><ele>163.0</ele><time>2026-04-19T08:26:39.301Z</time></trkpt><trkpt lat="43.5931471" lon="11.1992415"><ele>162.66666666666669</ele><time>2026-04-19T08:26:41.302Z</time></trkpt><trkpt lat="43.5930824" lon="11.1993064"><ele>162.33333333333334</ele><time>2026-04-19T08:26:42.309Z</time></trkpt><trkpt lat="43.5930201" lon="11.1993555"><ele>162.0</ele><time>2026-04-19T08:26:43.305Z</time></trkpt><trkpt lat="43.5929431" lon="11.1994023"><ele>161.66666666666666</ele><time>2026-04-19T08:26:44.305Z</time></trkpt><trkpt lat="43.592866" lon="11.1994465"><ele>161.33333333333331</ele><time>2026-04-19T08:26:45.284Z</time></trkpt><trkpt lat="43.5927722" lon="11.1994822"><ele>161.0</ele><time>2026-04-19T08:26:46.31Z</time></trkpt><trkpt lat="43.5926823" lon="11.1995028"><ele>161.0</ele><time>2026-04-19T08:26:47.308Z</time></trkpt><trkpt lat="43.5925795" lon="11.1994823"><ele>161.0</ele><time>2026-04-19T08:26:48.295Z</time></trkpt><trkpt lat="43.5924798" lon="11.199446"><ele>161.0</ele><time>2026-04-19T08:26:49.296Z</time></trkpt><trkpt lat="43.5923787" lon="11.1994168"><ele>161.0</ele><time>2026-04-19T08:26:50.312Z</time></trkpt><trkpt lat="43.5922676" lon="11.1994121"><ele>161.0</ele><time>2026-04-19T08:26:51.308Z</time></trkpt><trkpt lat="43.5921535" lon="11.199435"><ele>161.0</ele><time>2026-04-19T08:26:52.302Z</time></trkpt><trkpt lat="43.5920277" lon="11.1994767"><ele>161.0</ele><time>2026-04-19T08:26:53.305Z</time></trkpt><trkpt lat="43.5919012" lon="11.1995238"><ele>161.0</ele><time>2026-04-19T08:26:54.303Z</time></trkpt><trkpt lat="43.5917652" lon="11.1995778"><ele>161.0</ele><time>2026-04-19T08:26:55.286Z</time></trkpt><trkpt lat="43.5916209" lon="11.1996393"><ele>161.0</ele><time>2026-04-19T08:26:56.302Z</time></trkpt><trkpt lat="43.5914853" lon="11.1997026"><ele>161.0</ele><time>2026-04-19T08:26:57.296Z</time></trkpt><trkpt lat="43.5913487" lon="11.1997671"><ele>161.0</ele><time>2026-04-19T08:26:58.306Z</time></trkpt><trkpt lat="43.5912185" lon="11.1998392"><ele>161.0</ele><time>2026-04-19T08:26:59.307Z</time></trkpt><trkpt lat="43.5910858" lon="11.1999179"><ele>160.66666666666666</ele><time>2026-04-19T08:27:00.308Z</time></trkpt><trkpt lat="43.5909461" lon="11.1999903"><ele>160.33333333333334</ele><time>2026-04-19T08:27:01.303Z</time></trkpt><trkpt lat="43.5908014" lon="11.2000613"><ele>160.0</ele><time>2026-04-19T08:27:02.281Z</time></trkpt><trkpt lat="43.5906556" lon="11.2001415"><ele>160.0</ele><time>2026-04-19T08:27:03.298Z</time></trkpt><trkpt lat="43.5905055" lon="11.2002223"><ele>160.0</ele><time>2026-04-19T08:27:04.303Z</time></trkpt><trkpt lat="43.5903543" lon="11.2003014"><ele>160.0</ele><time>2026-04-19T08:27:05.308Z</time></trkpt><trkpt lat="43.5902029" lon="11.2003849"><ele>160.33333333333334</ele><time>2026-04-19T08:27:06.3Z</time></trkpt><trkpt lat="43.590054" lon="11.2004579"><ele>160.66666666666666</ele><time>2026-04-19T08:27:07.295Z</time></trkpt><trkpt lat="43.589904" lon="11.2005327"><ele>161.0</ele><time>2026-04-19T08:27:08.304Z</time></trkpt><trkpt lat="43.5897522" lon="11.2006117"><ele>160.66666666666666</ele><time>2026-04-19T08:27:09.299Z</time></trkpt><trkpt lat="43.5895994" lon="11.2006914"><ele>160.33333333333334</ele><time>2026-04-19T08:27:10.301Z</time></trkpt><trkpt lat="43.5894448" lon="11.2007745"><ele>160.0</ele><time>2026-04-19T08:27:11.302Z</time></trkpt><trkpt lat="43.5892906" lon="11.2008545"><ele>160.66666666666669</ele><time>2026-04-19T08:27:12.287Z</time></trkpt><trkpt lat="43.589129" lon="11.2009377"><ele>161.33333333333334</ele><time>2026-04-19T08:27:13.3Z</time></trkpt><trkpt lat="43.5889675" lon="11.2010272"><ele>162.0</ele><time>2026-04-19T08:27:14.3Z</time></trkpt><trkpt lat="43.5888056" lon="11.2011175"><ele>163.0</ele><time>2026-04-19T08:27:15.305Z</time></trkpt><trkpt lat="43.5886412" lon="11.2012083"><ele>164.0</ele><time>2026-04-19T08:27:16.306Z</time></trkpt><trkpt lat="43.5884785" lon="11.201294"><ele>165.0</ele><time>2026-04-19T08:27:17.31Z</time></trkpt><trkpt lat="43.5883158" lon="11.201384"><ele>165.0</ele><time>2026-04-19T08:27:18.297Z</time></trkpt><trkpt lat="43.5881551" lon="11.2014626"><ele>165.0</ele><time>2026-04-19T08:27:19.292Z</time></trkpt><trkpt lat="43.5879926" lon="11.2015238"><ele>165.0</ele><time>2026-04-19T08:27:20.313Z</time></trkpt><trkpt lat="43.5878325" lon="11.2015855"><ele>165.0</ele><time>2026-04-19T08:27:21.3Z</time></trkpt><trkpt lat="43.5876722" lon="11.2016436"><ele>165.0</ele><time>2026-04-19T08:27:22.297Z</time></trkpt><trkpt lat="43.5875072" lon="11.2016979"><ele>165.0</ele><time>2026-04-19T08:27:23.296Z</time></trkpt><trkpt lat="43.5873397" lon="11.201746"><ele>165.0</ele><time>2026-04-19T08:27:24.293Z</time></trkpt><trkpt lat="43.5871752" lon="11.2017971"><ele>165.0</ele><time>2026-04-19T08:27:25.288Z</time></trkpt><trkpt lat="43.5870067" lon="11.2018514"><ele>165.0</ele><time>2026-04-19T08:27:26.28Z</time></trkpt><trkpt lat="43.5868367" lon="11.2019061"><ele>166.66666666666666</ele><time>2026-04-19T08:27:27.293Z</time></trkpt><trkpt lat="43.5866657" lon="11.2019691"><ele>168.33333333333331</ele><time>2026-04-19T08:27:28.305Z</time></trkpt><trkpt lat="43.5864925" lon="11.2020359"><ele>170.0</ele><time>2026-04-19T08:27:29.29Z</time></trkpt><trkpt lat="43.5863211" lon="11.2021052"><ele>171.66666666666666</ele><time>2026-04-19T08:27:30.279Z</time></trkpt><trkpt lat="43.586153" lon="11.2021782"><ele>173.33333333333334</ele><time>2026-04-19T08:27:31.294Z</time></trkpt><trkpt lat="43.5859937" lon="11.2022413"><ele>175.0</ele><time>2026-04-19T08:27:32.296Z</time></trkpt><trkpt lat="43.5858425" lon="11.2022827"><ele>175.0</ele><time>2026-04-19T08:27:33.297Z</time></trkpt><trkpt lat="43.5856995" lon="11.2023102"><ele>175.0</ele><time>2026-04-19T08:27:34.302Z</time></trkpt><trkpt lat="43.5855498" lon="11.202336"><ele>175.0</ele><time>2026-04-19T08:27:35.305Z</time></trkpt><trkpt lat="43.5853911" lon="11.2023553"><ele>174.33333333333334</ele><time>2026-04-19T08:27:36.303Z</time></trkpt><trkpt lat="43.5852281" lon="11.2023801"><ele>173.66666666666666</ele><time>2026-04-19T08:27:37.305Z</time></trkpt><trkpt lat="43.5850599" lon="11.2024179"><ele>173.0</ele><time>2026-04-19T08:27:38.302Z</time></trkpt><trkpt lat="43.5848943" lon="11.2024579"><ele>173.0</ele><time>2026-04-19T08:27:39.32Z</time></trkpt><trkpt lat="43.5847238" lon="11.2024977"><ele>173.0</ele><time>2026-04-19T08:27:40.301Z</time></trkpt><trkpt lat="43.5845558" lon="11.2025476"><ele>173.0</ele><time>2026-04-19T08:27:41.306Z</time></trkpt><trkpt lat="43.5843928" lon="11.20261"><ele>173.33333333333331</ele><time>2026-04-19T08:27:42.294Z</time></trkpt><trkpt lat="43.58423" lon="11.2026768"><ele>173.66666666666666</ele><time>2026-04-19T08:27:43.305Z</time></trkpt><trkpt lat="43.5840674" lon="11.2027474"><ele>174.0</ele><time>2026-04-19T08:27:44.301Z</time></trkpt><trkpt lat="43.5839064" lon="11.2028251"><ele>174.0</ele><time>2026-04-19T08:27:45.305Z</time></trkpt><trkpt lat="43.5837489" lon="11.2029235"><ele>174.0</ele><time>2026-04-19T08:27:46.313Z</time></trkpt><trkpt lat="43.5836015" lon="11.2030448"><ele>174.0</ele><time>2026-04-19T08:27:47.309Z</time></trkpt><trkpt lat="43.5834449" lon="11.2031631"><ele>173.0</ele><time>2026-04-19T08:27:48.3Z</time></trkpt><trkpt lat="43.5832815" lon="11.2032849"><ele>172.0</ele><time>2026-04-19T08:27:49.307Z</time></trkpt><trkpt lat="43.5831214" lon="11.2034145"><ele>171.0</ele><time>2026-04-19T08:27:50.299Z</time></trkpt><trkpt lat="43.5829713" lon="11.2035529"><ele>172.66666666666666</ele><time>2026-04-19T08:27:51.302Z</time></trkpt><trkpt lat="43.5828358" lon="11.2037022"><ele>174.33333333333331</ele><time>2026-04-19T08:27:52.303Z</time></trkpt><trkpt lat="43.5827061" lon="11.2038499"><ele>176.0</ele><time>2026-04-19T08:27:53.293Z</time></trkpt><trkpt lat="43.582568" lon="11.2039901"><ele>174.0</ele><time>2026-04-19T08:27:54.292Z</time></trkpt><trkpt lat="43.5824256" lon="11.2041284"><ele>172.0</ele><time>2026-04-19T08:27:55.294Z</time></trkpt><trkpt lat="43.5822774" lon="11.2042743"><ele>170.0</ele><time>2026-04-19T08:27:56.293Z</time></trkpt><trkpt lat="43.5821281" lon="11.2044123"><ele>171.66666666666666</ele><time>2026-04-19T08:27:57.312Z</time></trkpt><trkpt lat="43.5819874" lon="11.2045436"><ele>173.33333333333334</ele><time>2026-04-19T08:27:58.299Z</time></trkpt><trkpt lat="43.581866" lon="11.204666"><ele>175.0</ele><time>2026-04-19T08:27:59.283Z</time></trkpt><trkpt lat="43.5817624" lon="11.2047795"><ele>174.0</ele><time>2026-04-19T08:28:00.303Z</time></trkpt><trkpt lat="43.5816579" lon="11.204865"><ele>173.0</ele><time>2026-04-19T08:28:01.299Z</time></trkpt><trkpt lat="43.5815361" lon="11.2049387"><ele>172.0</ele><time>2026-04-19T08:28:02.304Z</time></trkpt><trkpt lat="43.5813992" lon="11.204964"><ele>171.0</ele><time>2026-04-19T08:28:03.309Z</time></trkpt><trkpt lat="43.5812569" lon="11.2049978"><ele>171.5</ele><time>2026-04-19T08:28:04.303Z</time></trkpt><trkpt lat="43.5811149" lon="11.2050349"><ele>172.0</ele><time>2026-04-19T08:28:05.308Z</time></trkpt><trkpt lat="43.5809685" lon="11.2050769"><ele>172.5</ele><time>2026-04-19T08:28:06.303Z</time></trkpt><trkpt lat="43.5808318" lon="11.2051101"><ele>173.0</ele><time>2026-04-19T08:28:07.298Z</time></trkpt><trkpt lat="43.5807062" lon="11.20515"><ele>173.0</ele><time>2026-04-19T08:28:08.298Z</time></trkpt><trkpt lat="43.5805774" lon="11.2052069"><ele>173.0</ele><time>2026-04-19T08:28:09.308Z</time></trkpt><trkpt lat="43.5804494" lon="11.2052655"><ele>173.0</ele><time>2026-04-19T08:28:10.305Z</time></trkpt><trkpt lat="43.5803097" lon="11.2053324"><ele>173.0</ele><time>2026-04-19T08:28:11.281Z</time></trkpt><trkpt lat="43.5801735" lon="11.2054236"><ele>173.33333333333331</ele><time>2026-04-19T08:28:12.307Z</time></trkpt><trkpt lat="43.5800325" lon="11.2055372"><ele>173.66666666666666</ele><time>2026-04-19T08:28:13.297Z</time></trkpt><trkpt lat="43.5798945" lon="11.2056699"><ele>174.0</ele><time>2026-04-19T08:28:14.293Z</time></trkpt><trkpt lat="43.5797491" lon="11.2058154"><ele>174.0</ele><time>2026-04-19T08:28:15.302Z</time></trkpt><trkpt lat="43.5796063" lon="11.2059631"><ele>174.0</ele><time>2026-04-19T08:28:16.295Z</time></trkpt><trkpt lat="43.5794589" lon="11.2061056"><ele>174.0</ele><time>2026-04-19T08:28:17.306Z</time></trkpt><trkpt lat="43.5793099" lon="11.2062501"><ele>173.66666666666666</ele><time>2026-04-19T08:28:18.298Z</time></trkpt><trkpt lat="43.5791665" lon="11.2063947"><ele>173.33333333333331</ele><time>2026-04-19T08:28:19.301Z</time></trkpt><trkpt lat="43.5790201" lon="11.20654"><ele>173.0</ele><time>2026-04-19T08:28:20.292Z</time></trkpt><trkpt lat="43.5788704" lon="11.2066922"><ele>173.0</ele><time>2026-04-19T08:28:21.303Z</time></trkpt><trkpt lat="43.5787218" lon="11.2068401"><ele>173.0</ele><time>2026-04-19T08:28:22.307Z</time></trkpt><trkpt lat="43.578577" lon="11.2069912"><ele>173.0</ele><time>2026-04-19T08:28:23.293Z</time></trkpt><trkpt lat="43.5784402" lon="11.2071444"><ele>173.0</ele><time>2026-04-19T08:28:24.303Z</time></trkpt><trkpt lat="43.5782973" lon="11.2072893"><ele>173.0</ele><time>2026-04-19T08:28:25.296Z</time></trkpt><trkpt lat="43.5781491" lon="11.2074389"><ele>173.0</ele><time>2026-04-19T08:28:26.28Z</time></trkpt><trkpt lat="43.5780106" lon="11.2075831"><ele>173.0</ele><time>2026-04-19T08:28:27.303Z</time></trkpt><trkpt lat="43.5778657" lon="11.2077218"><ele>173.0</ele><time>2026-04-19T08:28:28.297Z</time></trkpt><trkpt lat="43.5777223" lon="11.207859"><ele>173.0</ele><time>2026-04-19T08:28:29.3Z</time></trkpt><trkpt lat="43.5775761" lon="11.2079954"><ele>173.33333333333331</ele><time>2026-04-19T08:28:30.307Z</time></trkpt><trkpt lat="43.5774374" lon="11.2081316"><ele>173.66666666666666</ele><time>2026-04-19T08:28:31.287Z</time></trkpt><trkpt lat="43.5773005" lon="11.2082626"><ele>174.0</ele><time>2026-04-19T08:28:32.306Z</time></trkpt><trkpt lat="43.5771616" lon="11.2083962"><ele>174.0</ele><time>2026-04-19T08:28:33.308Z</time></trkpt><trkpt lat="43.577023" lon="11.2085289"><ele>174.0</ele><time>2026-04-19T08:28:34.296Z</time></trkpt><trkpt lat="43.5768866" lon="11.2086732"><ele>174.0</ele><time>2026-04-19T08:28:35.288Z</time></trkpt><trkpt lat="43.5767562" lon="11.2088299"><ele>174.0</ele><time>2026-04-19T08:28:36.305Z</time></trkpt><trkpt lat="43.5766307" lon="11.2089897"><ele>174.0</ele><time>2026-04-19T08:28:37.311Z</time></trkpt><trkpt lat="43.5765158" lon="11.2091633"><ele>174.0</ele><time>2026-04-19T08:28:38.298Z</time></trkpt><trkpt lat="43.576398" lon="11.2093437"><ele>173.33333333333334</ele><time>2026-04-19T08:28:39.283Z</time></trkpt><trkpt lat="43.5762746" lon="11.2095264"><ele>172.66666666666669</ele><time>2026-04-19T08:28:40.298Z</time></trkpt><trkpt lat="43.5761529" lon="11.2097069"><ele>172.0</ele><time>2026-04-19T08:28:41.296Z</time></trkpt><trkpt lat="43.5760349" lon="11.2098799"><ele>173.66666666666669</ele><time>2026-04-19T08:28:42.298Z</time></trkpt><trkpt lat="43.5759261" lon="11.2100374"><ele>175.33333333333334</ele><time>2026-04-19T08:28:43.305Z</time></trkpt><trkpt lat="43.5757978" lon="11.2101751"><ele>177.0</ele><time>2026-04-19T08:28:44.301Z</time></trkpt><trkpt lat="43.575667" lon="11.2102918"><ele>177.0</ele><time>2026-04-19T08:28:45.301Z</time></trkpt><trkpt lat="43.5755135" lon="11.2103971"><ele>177.0</ele><time>2026-04-19T08:28:46.301Z</time></trkpt><trkpt lat="43.5753524" lon="11.2104995"><ele>177.0</ele><time>2026-04-19T08:28:47.297Z</time></trkpt><trkpt lat="43.5751836" lon="11.2106072"><ele>177.0</ele><time>2026-04-19T08:28:48.296Z</time></trkpt><trkpt lat="43.575007" lon="11.2107268"><ele>177.0</ele><time>2026-04-19T08:28:49.3Z</time></trkpt><trkpt lat="43.5748279" lon="11.2108405"><ele>177.0</ele><time>2026-04-19T08:28:50.305Z</time></trkpt><trkpt lat="43.5746591" lon="11.2109521"><ele>177.33333333333334</ele><time>2026-04-19T08:28:51.288Z</time></trkpt><trkpt lat="43.5744931" lon="11.2110539"><ele>177.66666666666669</ele><time>2026-04-19T08:28:52.299Z</time></trkpt><trkpt lat="43.5743332" lon="11.2111685"><ele>178.0</ele><time>2026-04-19T08:28:53.314Z</time></trkpt><trkpt lat="43.5741775" lon="11.2112889"><ele>178.0</ele><time>2026-04-19T08:28:54.3Z</time></trkpt><trkpt lat="43.5740236" lon="11.211407"><ele>178.0</ele><time>2026-04-19T08:28:55.301Z</time></trkpt><trkpt lat="43.5738685" lon="11.2115331"><ele>178.0</ele><time>2026-04-19T08:28:56.312Z</time></trkpt><trkpt lat="43.573721" lon="11.2116712"><ele>177.66666666666669</ele><time>2026-04-19T08:28:57.292Z</time></trkpt><trkpt lat="43.5735729" lon="11.2118067"><ele>177.33333333333334</ele><time>2026-04-19T08:28:58.301Z</time></trkpt><trkpt lat="43.5734263" lon="11.2119318"><ele>177.0</ele><time>2026-04-19T08:28:59.309Z</time></trkpt><trkpt lat="43.5732908" lon="11.2120494"><ele>177.0</ele><time>2026-04-19T08:29:00.306Z</time></trkpt><trkpt lat="43.5731721" lon="11.2121664"><ele>177.0</ele><time>2026-04-19T08:29:01.283Z</time></trkpt><trkpt lat="43.5730767" lon="11.212317"><ele>177.0</ele><time>2026-04-19T08:29:02.304Z</time></trkpt><trkpt lat="43.5729972" lon="11.2125018"><ele>177.0</ele><time>2026-04-19T08:29:03.293Z</time></trkpt><trkpt lat="43.5729307" lon="11.212677"><ele>177.0</ele><time>2026-04-19T08:29:04.299Z</time></trkpt><trkpt lat="43.5728751" lon="11.21283"><ele>177.0</ele><time>2026-04-19T08:29:05.283Z</time></trkpt><trkpt lat="43.5728008" lon="11.2129796"><ele>177.0</ele><time>2026-04-19T08:29:06.295Z</time></trkpt><trkpt lat="43.5727053" lon="11.2131254"><ele>177.0</ele><time>2026-04-19T08:29:07.297Z</time></trkpt><trkpt lat="43.5726006" lon="11.2132881"><ele>177.66666666666666</ele><time>2026-04-19T08:29:08.293Z</time></trkpt><trkpt lat="43.5725004" lon="11.213465"><ele>178.33333333333331</ele><time>2026-04-19T08:29:09.3Z</time></trkpt><trkpt lat="43.5724005" lon="11.2136343"><ele>179.0</ele><time>2026-04-19T08:29:10.307Z</time></trkpt><trkpt lat="43.5722938" lon="11.2137989"><ele>179.0</ele><time>2026-04-19T08:29:11.309Z</time></trkpt><trkpt lat="43.5721802" lon="11.2139667"><ele>179.0</ele><time>2026-04-19T08:29:12.294Z</time></trkpt><trkpt lat="43.5720735" lon="11.2141348"><ele>179.0</ele><time>2026-04-19T08:29:13.281Z</time></trkpt><trkpt lat="43.571976" lon="11.2142945"><ele>179.0</ele><time>2026-04-19T08:29:14.314Z</time></trkpt><trkpt lat="43.5718854" lon="11.2144456"><ele>179.0</ele><time>2026-04-19T08:29:15.295Z</time></trkpt><trkpt lat="43.5717985" lon="11.214586"><ele>179.0</ele><time>2026-04-19T08:29:16.305Z</time></trkpt><trkpt lat="43.57171" lon="11.2147124"><ele>179.0</ele><time>2026-04-19T08:29:17.3Z</time></trkpt><trkpt lat="43.5716196" lon="11.2148282"><ele>179.0</ele><time>2026-04-19T08:29:18.296Z</time></trkpt><trkpt lat="43.5715364" lon="11.2149336"><ele>179.0</ele><time>2026-04-19T08:29:19.297Z</time></trkpt><trkpt lat="43.5714604" lon="11.2150225"><ele>179.0</ele><time>2026-04-19T08:29:20.294Z</time></trkpt><trkpt lat="43.5713907" lon="11.2150793"><ele>179.0</ele><time>2026-04-19T08:29:21.304Z</time></trkpt><trkpt lat="43.5713232" lon="11.2151111"><ele>179.0</ele><time>2026-04-19T08:29:23.293Z</time></trkpt><trkpt lat="43.5712536" lon="11.2151234"><ele>179.0</ele><time>2026-04-19T08:29:27.301Z</time></trkpt><trkpt lat="43.5711865" lon="11.2151667"><ele>179.0</ele><time>2026-04-19T08:29:32.302Z</time></trkpt><trkpt lat="43.571188" lon="11.2152851"><ele>179.0</ele><time>2026-04-19T08:29:34.313Z</time></trkpt><trkpt lat="43.5712398" lon="11.2153651"><ele>179.0</ele><time>2026-04-19T08:29:35.318Z</time></trkpt><trkpt lat="43.5712991" lon="11.21545"><ele>179.0</ele><time>2026-04-19T08:29:36.298Z</time></trkpt><trkpt lat="43.5713602" lon="11.2155331"><ele>179.0</ele><time>2026-04-19T08:29:37.304Z</time></trkpt><trkpt lat="43.5714083" lon="11.2156144"><ele>179.0</ele><time>2026-04-19T08:29:38.3Z</time></trkpt><trkpt lat="43.5714648" lon="11.2157087"><ele>179.2</ele><time>2026-04-19T08:29:39.303Z</time></trkpt><trkpt lat="43.571521" lon="11.2158016"><ele>179.39999999999998</ele><time>2026-04-19T08:29:40.307Z</time></trkpt><trkpt lat="43.5715858" lon="11.2159028"><ele>179.6</ele><time>2026-04-19T08:29:41.293Z</time></trkpt><trkpt lat="43.5716635" lon="11.2160136"><ele>179.8</ele><time>2026-04-19T08:29:42.297Z</time></trkpt><trkpt lat="43.5717492" lon="11.2161291"><ele>180.0</ele><time>2026-04-19T08:29:43.3Z</time></trkpt><trkpt lat="43.57183" lon="11.2162333"><ele>180.0</ele><time>2026-04-19T08:29:44.303Z</time></trkpt><trkpt lat="43.5719173" lon="11.2163144"><ele>180.0</ele><time>2026-04-19T08:29:45.28Z</time></trkpt><trkpt lat="43.5720038" lon="11.2163939"><ele>180.0</ele><time>2026-04-19T08:29:46.294Z</time></trkpt><trkpt lat="43.5720977" lon="11.2164582"><ele>180.0</ele><time>2026-04-19T08:29:47.306Z</time></trkpt><trkpt lat="43.5721971" lon="11.2165228"><ele>180.0</ele><time>2026-04-19T08:29:48.298Z</time></trkpt><trkpt lat="43.5723066" lon="11.2165822"><ele>181.25</ele><time>2026-04-19T08:29:49.312Z</time></trkpt><trkpt lat="43.5724242" lon="11.2166154"><ele>182.5</ele><time>2026-04-19T08:29:50.308Z</time></trkpt><trkpt lat="43.5725543" lon="11.2166295"><ele>183.75</ele><time>2026-04-19T08:29:51.306Z</time></trkpt><trkpt lat="43.5726914" lon="11.2166288"><ele>185.0</ele><time>2026-04-19T08:29:52.307Z</time></trkpt><trkpt lat="43.5728336" lon="11.2166044"><ele>184.33333333333331</ele><time>2026-04-19T08:29:53.303Z</time></trkpt><trkpt lat="43.5729804" lon="11.2165467"><ele>183.66666666666666</ele><time>2026-04-19T08:29:54.292Z</time></trkpt><trkpt lat="43.5731344" lon="11.2164635"><ele>183.0</ele><time>2026-04-19T08:29:55.285Z</time></trkpt><trkpt lat="43.5732816" lon="11.2163718"><ele>181.66666666666666</ele><time>2026-04-19T08:29:56.297Z</time></trkpt><trkpt lat="43.5734303" lon="11.2162614"><ele>180.33333333333331</ele><time>2026-04-19T08:29:57.301Z</time></trkpt><trkpt lat="43.573578" lon="11.2161534"><ele>179.0</ele><time>2026-04-19T08:29:58.303Z</time></trkpt><trkpt lat="43.5737245" lon="11.2160455"><ele>178.33333333333331</ele><time>2026-04-19T08:29:59.296Z</time></trkpt><trkpt lat="43.5738873" lon="11.2159504"><ele>177.66666666666666</ele><time>2026-04-19T08:30:00.301Z</time></trkpt><trkpt lat="43.5740537" lon="11.2158702"><ele>177.0</ele><time>2026-04-19T08:30:01.286Z</time></trkpt><trkpt lat="43.5742275" lon="11.2157929"><ele>177.0</ele><time>2026-04-19T08:30:02.307Z</time></trkpt><trkpt lat="43.5744121" lon="11.2157111"><ele>177.0</ele><time>2026-04-19T08:30:03.294Z</time></trkpt><trkpt lat="43.5745996" lon="11.2156332"><ele>177.0</ele><time>2026-04-19T08:30:04.297Z</time></trkpt><trkpt lat="43.5747815" lon="11.2155558"><ele>176.66666666666666</ele><time>2026-04-19T08:30:05.303Z</time></trkpt><trkpt lat="43.5749623" lon="11.2154793"><ele>176.33333333333331</ele><time>2026-04-19T08:30:06.292Z</time></trkpt><trkpt lat="43.5751459" lon="11.215402"><ele>176.0</ele><time>2026-04-19T08:30:07.309Z</time></trkpt><trkpt lat="43.5753317" lon="11.2153271"><ele>176.33333333333331</ele><time>2026-04-19T08:30:08.304Z</time></trkpt><trkpt lat="43.5755199" lon="11.2152476"><ele>176.66666666666666</ele><time>2026-04-19T08:30:09.289Z</time></trkpt><trkpt lat="43.5757133" lon="11.2151658"><ele>177.0</ele><time>2026-04-19T08:30:10.277Z</time></trkpt><trkpt lat="43.5759064" lon="11.2150844"><ele>177.0</ele><time>2026-04-19T08:30:11.301Z</time></trkpt><trkpt lat="43.5760978" lon="11.2150008"><ele>177.0</ele><time>2026-04-19T08:30:12.293Z</time></trkpt><trkpt lat="43.5762914" lon="11.2149176"><ele>177.0</ele><time>2026-04-19T08:30:13.291Z</time></trkpt><trkpt lat="43.5764795" lon="11.2148373"><ele>175.66666666666666</ele><time>2026-04-19T08:30:14.299Z</time></trkpt><trkpt lat="43.5766536" lon="11.2147573"><ele>174.33333333333331</ele><time>2026-04-19T08:30:15.297Z</time></trkpt><trkpt lat="43.5768292" lon="11.2146838"><ele>173.0</ele><time>2026-04-19T08:30:16.275Z</time></trkpt><trkpt lat="43.5769966" lon="11.2146064"><ele>173.66666666666666</ele><time>2026-04-19T08:30:17.281Z</time></trkpt><trkpt lat="43.5771535" lon="11.2145337"><ele>174.33333333333334</ele><time>2026-04-19T08:30:18.303Z</time></trkpt><trkpt lat="43.577298" lon="11.2144477"><ele>175.0</ele><time>2026-04-19T08:30:19.312Z</time></trkpt><trkpt lat="43.5774315" lon="11.2143489"><ele>175.0</ele><time>2026-04-19T08:30:20.298Z</time></trkpt><trkpt lat="43.5775622" lon="11.2142306"><ele>175.0</ele><time>2026-04-19T08:30:21.3Z</time></trkpt><trkpt lat="43.5776884" lon="11.2140849"><ele>175.0</ele><time>2026-04-19T08:30:22.304Z</time></trkpt><trkpt lat="43.5778146" lon="11.2139115"><ele>175.33333333333334</ele><time>2026-04-19T08:30:23.302Z</time></trkpt><trkpt lat="43.5779401" lon="11.2137261"><ele>175.66666666666666</ele><time>2026-04-19T08:30:24.306Z</time></trkpt><trkpt lat="43.5780693" lon="11.2135365"><ele>176.0</ele><time>2026-04-19T08:30:25.308Z</time></trkpt><trkpt lat="43.5781963" lon="11.2133604"><ele>176.0</ele><time>2026-04-19T08:30:26.283Z</time></trkpt><trkpt lat="43.5783215" lon="11.2131984"><ele>176.0</ele><time>2026-04-19T08:30:27.303Z</time></trkpt><trkpt lat="43.5784379" lon="11.2130437"><ele>176.0</ele><time>2026-04-19T08:30:28.31Z</time></trkpt><trkpt lat="43.5785567" lon="11.2129017"><ele>175.66666666666666</ele><time>2026-04-19T08:30:29.301Z</time></trkpt><trkpt lat="43.5786952" lon="11.2127798"><ele>175.33333333333334</ele><time>2026-04-19T08:30:30.283Z</time></trkpt><trkpt lat="43.5788398" lon="11.2126727"><ele>175.0</ele><time>2026-04-19T08:30:31.299Z</time></trkpt><trkpt lat="43.5789858" lon="11.212588"><ele>175.0</ele><time>2026-04-19T08:30:32.299Z</time></trkpt><trkpt lat="43.5791386" lon="11.212519"><ele>175.0</ele><time>2026-04-19T08:30:33.304Z</time></trkpt><trkpt lat="43.5792933" lon="11.2124419"><ele>175.0</ele><time>2026-04-19T08:30:34.309Z</time></trkpt><trkpt lat="43.5794407" lon="11.2123771"><ele>174.75</ele><time>2026-04-19T08:30:35.299Z</time></trkpt><trkpt lat="43.579576" lon="11.2123095"><ele>174.5</ele><time>2026-04-19T08:30:36.308Z</time></trkpt><trkpt lat="43.5797084" lon="11.2122441"><ele>174.25</ele><time>2026-04-19T08:30:37.284Z</time></trkpt><trkpt lat="43.5798478" lon="11.2121852"><ele>174.0</ele><time>2026-04-19T08:30:38.305Z</time></trkpt><trkpt lat="43.5799997" lon="11.2121382"><ele>174.0</ele><time>2026-04-19T08:30:39.303Z</time></trkpt><trkpt lat="43.5801592" lon="11.2121084"><ele>174.0</ele><time>2026-04-19T08:30:40.3Z</time></trkpt><trkpt lat="43.5803153" lon="11.2120831"><ele>174.0</ele><time>2026-04-19T08:30:41.303Z</time></trkpt><trkpt lat="43.580481" lon="11.2120513"><ele>174.0</ele><time>2026-04-19T08:30:42.307Z</time></trkpt><trkpt lat="43.5806438" lon="11.2120291"><ele>174.0</ele><time>2026-04-19T08:30:43.314Z</time></trkpt><trkpt lat="43.580801" lon="11.2120023"><ele>174.0</ele><time>2026-04-19T08:30:44.307Z</time></trkpt><trkpt lat="43.5809583" lon="11.2119878"><ele>174.0</ele><time>2026-04-19T08:30:45.305Z</time></trkpt><trkpt lat="43.5811157" lon="11.2119914"><ele>174.0</ele><time>2026-04-19T08:30:46.289Z</time></trkpt><trkpt lat="43.5812695" lon="11.2120227"><ele>174.0</ele><time>2026-04-19T08:30:47.3Z</time></trkpt><trkpt lat="43.5814193" lon="11.2120628"><ele>174.66666666666666</ele><time>2026-04-19T08:30:48.297Z</time></trkpt><trkpt lat="43.5815797" lon="11.212073"><ele>175.33333333333331</ele><time>2026-04-19T08:30:49.301Z</time></trkpt><trkpt lat="43.5817384" lon="11.2120301"><ele>176.0</ele><time>2026-04-19T08:30:50.305Z</time></trkpt><trkpt lat="43.5819076" lon="11.2119669"><ele>176.66666666666666</ele><time>2026-04-19T08:30:51.299Z</time></trkpt><trkpt lat="43.5820665" lon="11.2118917"><ele>177.33333333333334</ele><time>2026-04-19T08:30:52.305Z</time></trkpt><trkpt lat="43.5822279" lon="11.2118136"><ele>178.0</ele><time>2026-04-19T08:30:53.303Z</time></trkpt><trkpt lat="43.5823914" lon="11.2117335"><ele>178.0</ele><time>2026-04-19T08:30:54.304Z</time></trkpt><trkpt lat="43.5825501" lon="11.2116584"><ele>178.0</ele><time>2026-04-19T08:30:55.3Z</time></trkpt><trkpt lat="43.582701" lon="11.2115893"><ele>178.0</ele><time>2026-04-19T08:30:56.302Z</time></trkpt><trkpt lat="43.5828423" lon="11.2115204"><ele>176.66666666666669</ele><time>2026-04-19T08:30:57.307Z</time></trkpt><trkpt lat="43.5829906" lon="11.2114605"><ele>175.33333333333334</ele><time>2026-04-19T08:30:58.307Z</time></trkpt><trkpt lat="43.5831378" lon="11.2114007"><ele>174.0</ele><time>2026-04-19T08:30:59.296Z</time></trkpt><trkpt lat="43.583284" lon="11.2113395"><ele>174.0</ele><time>2026-04-19T08:31:00.3Z</time></trkpt><trkpt lat="43.583428" lon="11.2112588"><ele>174.0</ele><time>2026-04-19T08:31:01.306Z</time></trkpt><trkpt lat="43.5835725" lon="11.2111563"><ele>174.0</ele><time>2026-04-19T08:31:02.307Z</time></trkpt><trkpt lat="43.5837195" lon="11.2110414"><ele>174.0</ele><time>2026-04-19T08:31:03.311Z</time></trkpt><trkpt lat="43.583861" lon="11.2109249"><ele>174.0</ele><time>2026-04-19T08:31:04.281Z</time></trkpt><trkpt lat="43.5839987" lon="11.2108119"><ele>174.0</ele><time>2026-04-19T08:31:05.309Z</time></trkpt><trkpt lat="43.58414" lon="11.2107125"><ele>173.66666666666666</ele><time>2026-04-19T08:31:06.306Z</time></trkpt><trkpt lat="43.5842875" lon="11.2106223"><ele>173.33333333333331</ele><time>2026-04-19T08:31:07.301Z</time></trkpt><trkpt lat="43.5844341" lon="11.2105297"><ele>173.0</ele><time>2026-04-19T08:31:08.303Z</time></trkpt><trkpt lat="43.5845799" lon="11.2104311"><ele>173.0</ele><time>2026-04-19T08:31:09.297Z</time></trkpt><trkpt lat="43.5847256" lon="11.210331"><ele>173.0</ele><time>2026-04-19T08:31:10.299Z</time></trkpt><trkpt lat="43.5848708" lon="11.2102356"><ele>173.0</ele><time>2026-04-19T08:31:11.296Z</time></trkpt><trkpt lat="43.5850118" lon="11.2101455"><ele>173.0</ele><time>2026-04-19T08:31:12.315Z</time></trkpt><trkpt lat="43.5851534" lon="11.210056"><ele>173.0</ele><time>2026-04-19T08:31:13.305Z</time></trkpt><trkpt lat="43.585294" lon="11.2099699"><ele>173.0</ele><time>2026-04-19T08:31:14.307Z</time></trkpt><trkpt lat="43.5854318" lon="11.2098854"><ele>173.5</ele><time>2026-04-19T08:31:15.299Z</time></trkpt><trkpt lat="43.5855671" lon="11.2098009"><ele>174.0</ele><time>2026-04-19T08:31:16.287Z</time></trkpt><trkpt lat="43.585704" lon="11.2097179"><ele>174.5</ele><time>2026-04-19T08:31:17.302Z</time></trkpt><trkpt lat="43.5858377" lon="11.2096358"><ele>175.0</ele><time>2026-04-19T08:31:18.3Z</time></trkpt><trkpt lat="43.5859686" lon="11.209553"><ele>175.0</ele><time>2026-04-19T08:31:19.281Z</time></trkpt><trkpt lat="43.5861056" lon="11.2094668"><ele>175.0</ele><time>2026-04-19T08:31:20.304Z</time></trkpt><trkpt lat="43.5862429" lon="11.2093853"><ele>175.0</ele><time>2026-04-19T08:31:21.3Z</time></trkpt><trkpt lat="43.5863802" lon="11.2092987"><ele>177.0</ele><time>2026-04-19T08:31:22.301Z</time></trkpt><trkpt lat="43.5865168" lon="11.2092088"><ele>179.0</ele><time>2026-04-19T08:31:23.299Z</time></trkpt><trkpt lat="43.5866557" lon="11.2091077"><ele>181.0</ele><time>2026-04-19T08:31:24.315Z</time></trkpt><trkpt lat="43.5868001" lon="11.2090143"><ele>180.0</ele><time>2026-04-19T08:31:25.304Z</time></trkpt><trkpt lat="43.5869447" lon="11.2089226"><ele>179.0</ele><time>2026-04-19T08:31:26.28Z</time></trkpt><trkpt lat="43.5870884" lon="11.2088343"><ele>178.0</ele><time>2026-04-19T08:31:27.313Z</time></trkpt><trkpt lat="43.5872311" lon="11.2087465"><ele>178.0</ele><time>2026-04-19T08:31:28.302Z</time></trkpt><trkpt lat="43.5873711" lon="11.2086584"><ele>178.0</ele><time>2026-04-19T08:31:29.307Z</time></trkpt><trkpt lat="43.5875112" lon="11.2085693"><ele>178.0</ele><time>2026-04-19T08:31:30.304Z</time></trkpt><trkpt lat="43.5876391" lon="11.2084759"><ele>178.0</ele><time>2026-04-19T08:31:31.293Z</time></trkpt><trkpt lat="43.5877495" lon="11.2083897"><ele>178.0</ele><time>2026-04-19T08:31:32.306Z</time></trkpt><trkpt lat="43.5878456" lon="11.2083175"><ele>178.0</ele><time>2026-04-19T08:31:33.295Z</time></trkpt><trkpt lat="43.5879364" lon="11.2082569"><ele>178.0</ele><time>2026-04-19T08:31:34.308Z</time></trkpt><trkpt lat="43.5880179" lon="11.2082132"><ele>178.0</ele><time>2026-04-19T08:31:35.285Z</time></trkpt><trkpt lat="43.5880937" lon="11.2081773"><ele>177.66666666666669</ele><time>2026-04-19T08:31:36.29Z</time></trkpt><trkpt lat="43.5881685" lon="11.2081453"><ele>177.33333333333334</ele><time>2026-04-19T08:31:37.289Z</time></trkpt><trkpt lat="43.5882434" lon="11.2081137"><ele>177.0</ele><time>2026-04-19T08:31:38.289Z</time></trkpt><trkpt lat="43.5883179" lon="11.2080827"><ele>176.66666666666666</ele><time>2026-04-19T08:31:39.306Z</time></trkpt><trkpt lat="43.5883821" lon="11.208057"><ele>176.33333333333331</ele><time>2026-04-19T08:31:40.294Z</time></trkpt><trkpt lat="43.5884794" lon="11.2080207"><ele>176.0</ele><time>2026-04-19T08:31:42.296Z</time></trkpt><trkpt lat="43.5885534" lon="11.2080195"><ele>178.25</ele><time>2026-04-19T08:31:44.307Z</time></trkpt><trkpt lat="43.5886144" lon="11.2082064"><ele>180.5</ele><time>2026-04-19T08:31:46.307Z</time></trkpt><trkpt lat="43.5886347" lon="11.2083497"><ele>182.75</ele><time>2026-04-19T08:31:47.31Z</time></trkpt><trkpt lat="43.5886576" lon="11.2085182"><ele>185.0</ele><time>2026-04-19T08:31:48.3Z</time></trkpt><trkpt lat="43.5886953" lon="11.2087235"><ele>186.33333333333331</ele><time>2026-04-19T08:31:49.296Z</time></trkpt><trkpt lat="43.5887348" lon="11.2089254"><ele>187.66666666666666</ele><time>2026-04-19T08:31:50.295Z</time></trkpt><trkpt lat="43.588775" lon="11.2091348"><ele>189.0</ele><time>2026-04-19T08:31:51.289Z</time></trkpt><trkpt lat="43.5888108" lon="11.2093479"><ele>190.75</ele><time>2026-04-19T08:31:52.286Z</time></trkpt><trkpt lat="43.5888447" lon="11.2095456"><ele>192.5</ele><time>2026-04-19T08:31:53.285Z</time></trkpt><trkpt lat="43.5888787" lon="11.2097229"><ele>194.25</ele><time>2026-04-19T08:31:54.281Z</time></trkpt><trkpt lat="43.5889203" lon="11.209882"><ele>196.0</ele><time>2026-04-19T08:31:55.28Z</time></trkpt><trkpt lat="43.5889836" lon="11.2100184"><ele>197.5</ele><time>2026-04-19T08:31:56.291Z</time></trkpt><trkpt lat="43.5890781" lon="11.2101508"><ele>199.0</ele><time>2026-04-19T08:31:57.287Z</time></trkpt><trkpt lat="43.5891898" lon="11.210258"><ele>200.5</ele><time>2026-04-19T08:31:58.294Z</time></trkpt><trkpt lat="43.5893041" lon="11.2103615"><ele>202.0</ele><time>2026-04-19T08:31:59.308Z</time></trkpt><trkpt lat="43.5894376" lon="11.2104628"><ele>201.0</ele><time>2026-04-19T08:32:00.297Z</time></trkpt><trkpt lat="43.5895766" lon="11.2105673"><ele>200.0</ele><time>2026-04-19T08:32:01.281Z</time></trkpt><trkpt lat="43.5897186" lon="11.2106728"><ele>199.0</ele><time>2026-04-19T08:32:02.286Z</time></trkpt><trkpt lat="43.5898602" lon="11.2107799"><ele>201.66666666666666</ele><time>2026-04-19T08:32:03.297Z</time></trkpt><trkpt lat="43.5900059" lon="11.210891"><ele>204.33333333333331</ele><time>2026-04-19T08:32:04.301Z</time></trkpt><trkpt lat="43.5901516" lon="11.2109955"><ele>207.0</ele><time>2026-04-19T08:32:05.308Z</time></trkpt><trkpt lat="43.590299" lon="11.2110977"><ele>205.25</ele><time>2026-04-19T08:32:06.3Z</time></trkpt><trkpt lat="43.5904386" lon="11.2112044"><ele>203.5</ele><time>2026-04-19T08:32:07.291Z</time></trkpt><trkpt lat="43.5905623" lon="11.2113142"><ele>201.75</ele><time>2026-04-19T08:32:08.303Z</time></trkpt><trkpt lat="43.5906728" lon="11.2114183"><ele>200.0</ele><time>2026-04-19T08:32:09.284Z</time></trkpt><trkpt lat="43.5907611" lon="11.2115278"><ele>203.5</ele><time>2026-04-19T08:32:10.308Z</time></trkpt><trkpt lat="43.5908306" lon="11.211662"><ele>207.0</ele><time>2026-04-19T08:32:11.293Z</time></trkpt><trkpt lat="43.5908755" lon="11.2118341"><ele>210.5</ele><time>2026-04-19T08:32:12.29Z</time></trkpt><trkpt lat="43.5909137" lon="11.2120358"><ele>214.0</ele><time>2026-04-19T08:32:13.298Z</time></trkpt><trkpt lat="43.5909576" lon="11.2122663"><ele>218.0</ele><time>2026-04-19T08:32:14.296Z</time></trkpt><trkpt lat="43.5910043" lon="11.2125155"><ele>222.0</ele><time>2026-04-19T08:32:15.292Z</time></trkpt><trkpt lat="43.5910561" lon="11.2127625"><ele>226.0</ele><time>2026-04-19T08:32:16.297Z</time></trkpt><trkpt lat="43.5911095" lon="11.2130044"><ele>229.66666666666666</ele><time>2026-04-19T08:32:17.288Z</time></trkpt><trkpt lat="43.5911567" lon="11.2132271"><ele>233.33333333333331</ele><time>2026-04-19T08:32:18.295Z</time></trkpt><trkpt lat="43.5912029" lon="11.2134406"><ele>237.0</ele><time>2026-04-19T08:32:19.298Z</time></trkpt><trkpt lat="43.5912459" lon="11.2136465"><ele>237.0</ele><time>2026-04-19T08:32:20.294Z</time></trkpt><trkpt lat="43.5912884" lon="11.2138433"><ele>237.0</ele><time>2026-04-19T08:32:21.293Z</time></trkpt><trkpt lat="43.5913361" lon="11.2140507"><ele>237.0</ele><time>2026-04-19T08:32:22.272Z</time></trkpt><trkpt lat="43.591381" lon="11.2142654"><ele>239.0</ele><time>2026-04-19T08:32:23.277Z</time></trkpt><trkpt lat="43.5914134" lon="11.2144852"><ele>241.0</ele><time>2026-04-19T08:32:24.29Z</time></trkpt><trkpt lat="43.5914361" lon="11.2146991"><ele>243.0</ele><time>2026-04-19T08:32:25.284Z</time></trkpt><trkpt lat="43.5914585" lon="11.2149087"><ele>245.33333333333331</ele><time>2026-04-19T08:32:26.299Z</time></trkpt><trkpt lat="43.5915006" lon="11.2151144"><ele>247.66666666666666</ele><time>2026-04-19T08:32:27.297Z</time></trkpt><trkpt lat="43.5915769" lon="11.2152992"><ele>250.0</ele><time>2026-04-19T08:32:28.293Z</time></trkpt><trkpt lat="43.591704" lon="11.2154676"><ele>250.0</ele><time>2026-04-19T08:32:29.29Z</time></trkpt><trkpt lat="43.5918442" lon="11.2156182"><ele>250.0</ele><time>2026-04-19T08:32:30.296Z</time></trkpt><trkpt lat="43.5919894" lon="11.2157515"><ele>250.0</ele><time>2026-04-19T08:32:31.28Z</time></trkpt><trkpt lat="43.5921393" lon="11.2158936"><ele>253.0</ele><time>2026-04-19T08:32:32.298Z</time></trkpt><trkpt lat="43.5922826" lon="11.2160209"><ele>256.0</ele><time>2026-04-19T08:32:33.29Z</time></trkpt><trkpt lat="43.5924196" lon="11.2161328"><ele>259.0</ele><time>2026-04-19T08:32:34.299Z</time></trkpt><trkpt lat="43.5925566" lon="11.2162469"><ele>259.0</ele><time>2026-04-19T08:32:35.304Z</time></trkpt><trkpt lat="43.5926924" lon="11.2163601"><ele>259.0</ele><time>2026-04-19T08:32:36.299Z</time></trkpt><trkpt lat="43.5928262" lon="11.2164678"><ele>259.0</ele><time>2026-04-19T08:32:37.285Z</time></trkpt><trkpt lat="43.5929566" lon="11.2165767"><ele>261.25</ele><time>2026-04-19T08:32:38.297Z</time></trkpt><trkpt lat="43.5930885" lon="11.2166861"><ele>263.5</ele><time>2026-04-19T08:32:39.304Z</time></trkpt><trkpt lat="43.5932091" lon="11.2167933"><ele>265.75</ele><time>2026-04-19T08:32:40.295Z</time></trkpt><trkpt lat="43.5933141" lon="11.2168901"><ele>268.0</ele><time>2026-04-19T08:32:41.301Z</time></trkpt><trkpt lat="43.5933897" lon="11.2169877"><ele>268.0</ele><time>2026-04-19T08:32:42.296Z</time></trkpt><trkpt lat="43.5934355" lon="11.2170767"><ele>268.0</ele><time>2026-04-19T08:32:43.305Z</time></trkpt><trkpt lat="43.5934375" lon="11.2171785"><ele>268.0</ele><time>2026-04-19T08:32:44.282Z</time></trkpt><trkpt lat="43.5933891" lon="11.21725"><ele>268.0</ele><time>2026-04-19T08:32:45.285Z</time></trkpt><trkpt lat="43.5933035" lon="11.2172853"><ele>268.0</ele><time>2026-04-19T08:32:46.274Z</time></trkpt><trkpt lat="43.593174" lon="11.2172971"><ele>268.0</ele><time>2026-04-19T08:32:47.292Z</time></trkpt><trkpt lat="43.5930031" lon="11.2173004"><ele>268.0</ele><time>2026-04-19T08:32:48.291Z</time></trkpt><trkpt lat="43.59284" lon="11.2172836"><ele>268.0</ele><time>2026-04-19T08:32:49.299Z</time></trkpt><trkpt lat="43.5927187" lon="11.2172646"><ele>268.0</ele><time>2026-04-19T08:32:50.295Z</time></trkpt><trkpt lat="43.5926332" lon="11.2172594"><ele>268.0</ele><time>2026-04-19T08:32:51.288Z</time></trkpt><trkpt lat="43.5925582" lon="11.2172676"><ele>268.0</ele><time>2026-04-19T08:32:53.296Z</time></trkpt><trkpt lat="43.5924923" lon="11.2172947"><ele>267.4</ele><time>2026-04-19T08:32:55.29Z</time></trkpt><trkpt lat="43.5924986" lon="11.2174172"><ele>266.8</ele><time>2026-04-19T08:32:57.307Z</time></trkpt><trkpt lat="43.5925381" lon="11.2175875"><ele>266.2</ele><time>2026-04-19T08:32:59.286Z</time></trkpt><trkpt lat="43.592565" lon="11.2176992"><ele>265.6</ele><time>2026-04-19T08:33:00.285Z</time></trkpt><trkpt lat="43.5926136" lon="11.2178265"><ele>265.0</ele><time>2026-04-19T08:33:01.278Z</time></trkpt><trkpt lat="43.5926675" lon="11.2179829"><ele>265.0</ele><time>2026-04-19T08:33:02.285Z</time></trkpt><trkpt lat="43.5927364" lon="11.2181405"><ele>265.0</ele><time>2026-04-19T08:33:03.285Z</time></trkpt><trkpt lat="43.5928197" lon="11.2182867"><ele>265.0</ele><time>2026-04-19T08:33:04.285Z</time></trkpt><trkpt lat="43.5929103" lon="11.2184512"><ele>265.0</ele><time>2026-04-19T08:33:05.278Z</time></trkpt><trkpt lat="43.5930155" lon="11.2186437"><ele>269.66666666666663</ele><time>2026-04-19T08:33:06.275Z</time></trkpt><trkpt lat="43.5931326" lon="11.2188493"><ele>274.3333333333333</ele><time>2026-04-19T08:33:07.282Z</time></trkpt><trkpt lat="43.5932437" lon="11.2190498"><ele>279.0</ele><time>2026-04-19T08:33:08.279Z</time></trkpt><trkpt lat="43.5933527" lon="11.2192341"><ele>279.0</ele><time>2026-04-19T08:33:09.283Z</time></trkpt><trkpt lat="43.5934638" lon="11.2194147"><ele>279.0</ele><time>2026-04-19T08:33:10.299Z</time></trkpt><trkpt lat="43.5935738" lon="11.2195854"><ele>279.0</ele><time>2026-04-19T08:33:11.295Z</time></trkpt><trkpt lat="43.593695" lon="11.2197402"><ele>279.6666666666667</ele><time>2026-04-19T08:33:12.286Z</time></trkpt><trkpt lat="43.593826" lon="11.2198749"><ele>280.33333333333337</ele><time>2026-04-19T08:33:13.276Z</time></trkpt><trkpt lat="43.5939699" lon="11.2199774"><ele>281.0</ele><time>2026-04-19T08:33:14.279Z</time></trkpt><trkpt lat="43.5941273" lon="11.2200494"><ele>281.0</ele><time>2026-04-19T08:33:15.286Z</time></trkpt><trkpt lat="43.5943008" lon="11.2201005"><ele>281.0</ele><time>2026-04-19T08:33:16.281Z</time></trkpt><trkpt lat="43.5944818" lon="11.2201424"><ele>281.0</ele><time>2026-04-19T08:33:17.292Z</time></trkpt><trkpt lat="43.594668" lon="11.2201938"><ele>283.33333333333337</ele><time>2026-04-19T08:33:18.29Z</time></trkpt><trkpt lat="43.5948541" lon="11.2202483"><ele>285.6666666666667</ele><time>2026-04-19T08:33:19.298Z</time></trkpt><trkpt lat="43.5950332" lon="11.2203138"><ele>288.0</ele><time>2026-04-19T08:33:20.296Z</time></trkpt><trkpt lat="43.5952118" lon="11.2203937"><ele>290.0</ele><time>2026-04-19T08:33:21.284Z</time></trkpt><trkpt lat="43.5953763" lon="11.2204812"><ele>292.0</ele><time>2026-04-19T08:33:22.308Z</time></trkpt><trkpt lat="43.5955422" lon="11.2205633"><ele>294.0</ele><time>2026-04-19T08:33:23.286Z</time></trkpt><trkpt lat="43.5956936" lon="11.2206365"><ele>293.75</ele><time>2026-04-19T08:33:24.282Z</time></trkpt><trkpt lat="43.5958197" lon="11.2207061"><ele>293.5</ele><time>2026-04-19T08:33:25.316Z</time></trkpt><trkpt lat="43.595936" lon="11.220756"><ele>293.25</ele><time>2026-04-19T08:33:26.282Z</time></trkpt><trkpt lat="43.5960385" lon="11.220798"><ele>293.0</ele><time>2026-04-19T08:33:27.301Z</time></trkpt><trkpt lat="43.5961214" lon="11.22085"><ele>293.75</ele><time>2026-04-19T08:33:28.289Z</time></trkpt><trkpt lat="43.5961986" lon="11.2209482"><ele>294.5</ele><time>2026-04-19T08:33:29.299Z</time></trkpt><trkpt lat="43.5962743" lon="11.2211018"><ele>295.25</ele><time>2026-04-19T08:33:30.298Z</time></trkpt><trkpt lat="43.5963543" lon="11.2212775"><ele>296.0</ele><time>2026-04-19T08:33:31.297Z</time></trkpt><trkpt lat="43.5964384" lon="11.221447"><ele>295.33333333333337</ele><time>2026-04-19T08:33:32.306Z</time></trkpt><trkpt lat="43.5965243" lon="11.2216256"><ele>294.6666666666667</ele><time>2026-04-19T08:33:33.286Z</time></trkpt><trkpt lat="43.5965899" lon="11.2218087"><ele>294.0</ele><time>2026-04-19T08:33:34.293Z</time></trkpt><trkpt lat="43.5966387" lon="11.2220093"><ele>294.0</ele><time>2026-04-19T08:33:35.307Z</time></trkpt><trkpt lat="43.5966762" lon="11.2222164"><ele>294.0</ele><time>2026-04-19T08:33:36.313Z</time></trkpt><trkpt lat="43.5966945" lon="11.222418"><ele>294.0</ele><time>2026-04-19T08:33:37.301Z</time></trkpt><trkpt lat="43.5967059" lon="11.2226012"><ele>294.0</ele><time>2026-04-19T08:33:38.305Z</time></trkpt><trkpt lat="43.5967148" lon="11.2227773"><ele>294.0</ele><time>2026-04-19T08:33:39.294Z</time></trkpt><trkpt lat="43.5967267" lon="11.2229622"><ele>294.0</ele><time>2026-04-19T08:33:40.299Z</time></trkpt><trkpt lat="43.5967571" lon="11.2231597"><ele>294.0</ele><time>2026-04-19T08:33:41.311Z</time></trkpt><trkpt lat="43.5967849" lon="11.2233667"><ele>294.0</ele><time>2026-04-19T08:33:42.294Z</time></trkpt><trkpt lat="43.5968111" lon="11.2235719"><ele>294.0</ele><time>2026-04-19T08:33:43.314Z</time></trkpt><trkpt lat="43.5968331" lon="11.2237708"><ele>294.0</ele><time>2026-04-19T08:33:44.303Z</time></trkpt><trkpt lat="43.5968421" lon="11.2239621"><ele>294.0</ele><time>2026-04-19T08:33:45.302Z</time></trkpt><trkpt lat="43.596849" lon="11.224139"><ele>294.0</ele><time>2026-04-19T08:33:46.309Z</time></trkpt><trkpt lat="43.5968561" lon="11.2242976"><ele>293.2</ele><time>2026-04-19T08:33:47.305Z</time></trkpt><trkpt lat="43.5968609" lon="11.2244441"><ele>292.4</ele><time>2026-04-19T08:33:48.295Z</time></trkpt><trkpt lat="43.5968681" lon="11.2245914"><ele>291.6</ele><time>2026-04-19T08:33:49.287Z</time></trkpt><trkpt lat="43.5968758" lon="11.2247507"><ele>290.8</ele><time>2026-04-19T08:33:50.304Z</time></trkpt><trkpt lat="43.5968966" lon="11.2249146"><ele>290.0</ele><time>2026-04-19T08:33:51.32Z</time></trkpt><trkpt lat="43.5969417" lon="11.2250769"><ele>290.0</ele><time>2026-04-19T08:33:52.282Z</time></trkpt><trkpt lat="43.5969986" lon="11.2252453"><ele>290.0</ele><time>2026-04-19T08:33:53.296Z</time></trkpt><trkpt lat="43.5970683" lon="11.22542"><ele>290.0</ele><time>2026-04-19T08:33:54.304Z</time></trkpt><trkpt lat="43.5971307" lon="11.2255994"><ele>290.0</ele><time>2026-04-19T08:33:55.305Z</time></trkpt><trkpt lat="43.597181" lon="11.2257909"><ele>290.75</ele><time>2026-04-19T08:33:56.302Z</time></trkpt><trkpt lat="43.5972316" lon="11.2259806"><ele>291.5</ele><time>2026-04-19T08:33:57.309Z</time></trkpt><trkpt lat="43.597287" lon="11.2261586"><ele>292.25</ele><time>2026-04-19T08:33:58.298Z</time></trkpt><trkpt lat="43.5973635" lon="11.2263031"><ele>293.0</ele><time>2026-04-19T08:33:59.303Z</time></trkpt><trkpt lat="43.5974566" lon="11.2264126"><ele>294.0</ele><time>2026-04-19T08:34:00.301Z</time></trkpt><trkpt lat="43.597548" lon="11.2265062"><ele>295.0</ele><time>2026-04-19T08:34:01.286Z</time></trkpt><trkpt lat="43.5976444" lon="11.2265945"><ele>296.0</ele><time>2026-04-19T08:34:02.304Z</time></trkpt><trkpt lat="43.5977524" lon="11.2266902"><ele>297.0</ele><time>2026-04-19T08:34:03.302Z</time></trkpt><trkpt lat="43.5978563" lon="11.2267939"><ele>298.0</ele><time>2026-04-19T08:34:04.309Z</time></trkpt><trkpt lat="43.5979588" lon="11.226916"><ele>299.0</ele><time>2026-04-19T08:34:05.304Z</time></trkpt><trkpt lat="43.5980658" lon="11.2270462"><ele>300.0</ele><time>2026-04-19T08:34:06.3Z</time></trkpt><trkpt lat="43.5981609" lon="11.2271683"><ele>301.0</ele><time>2026-04-19T08:34:07.281Z</time></trkpt><trkpt lat="43.5982445" lon="11.22728"><ele>301.3333333333333</ele><time>2026-04-19T08:34:08.294Z</time></trkpt><trkpt lat="43.5983163" lon="11.2273841"><ele>301.66666666666663</ele><time>2026-04-19T08:34:09.295Z</time></trkpt><trkpt lat="43.5983716" lon="11.2274761"><ele>302.0</ele><time>2026-04-19T08:34:10.287Z</time></trkpt><trkpt lat="43.5984055" lon="11.2275617"><ele>302.3333333333333</ele><time>2026-04-19T08:34:11.296Z</time></trkpt><trkpt lat="43.5984497" lon="11.2276715"><ele>302.6666666666667</ele><time>2026-04-19T08:34:13.305Z</time></trkpt><trkpt lat="43.5984842" lon="11.2277587"><ele>303.0</ele><time>2026-04-19T08:34:15.302Z</time></trkpt><trkpt lat="43.5985668" lon="11.2277947"><ele>303.0</ele><time>2026-04-19T08:34:18.286Z</time></trkpt><trkpt lat="43.5986216" lon="11.2277391"><ele>303.0</ele><time>2026-04-19T08:34:19.299Z</time></trkpt><trkpt lat="43.5986892" lon="11.2276742"><ele>303.0</ele><time>2026-04-19T08:34:20.282Z</time></trkpt><trkpt lat="43.5987692" lon="11.227582"><ele>303.0</ele><time>2026-04-19T08:34:21.298Z</time></trkpt><trkpt lat="43.5988529" lon="11.2274846"><ele>303.0</ele><time>2026-04-19T08:34:22.291Z</time></trkpt><trkpt lat="43.5989346" lon="11.2273861"><ele>302.75</ele><time>2026-04-19T08:34:23.304Z</time></trkpt><trkpt lat="43.5990119" lon="11.2272754"><ele>302.5</ele><time>2026-04-19T08:34:24.299Z</time></trkpt><trkpt lat="43.5990878" lon="11.2271535"><ele>302.25</ele><time>2026-04-19T08:34:25.305Z</time></trkpt><trkpt lat="43.5991756" lon="11.2270267"><ele>302.0</ele><time>2026-04-19T08:34:26.305Z</time></trkpt><trkpt lat="43.599267" lon="11.226888"><ele>302.0</ele><time>2026-04-19T08:34:27.304Z</time></trkpt><trkpt lat="43.5993708" lon="11.2267405"><ele>302.0</ele><time>2026-04-19T08:34:28.292Z</time></trkpt><trkpt lat="43.5994845" lon="11.2265821"><ele>302.0</ele><time>2026-04-19T08:34:29.293Z</time></trkpt><trkpt lat="43.5996022" lon="11.2264194"><ele>302.33333333333337</ele><time>2026-04-19T08:34:30.303Z</time></trkpt><trkpt lat="43.599726" lon="11.2262592"><ele>302.6666666666667</ele><time>2026-04-19T08:34:31.293Z</time></trkpt><trkpt lat="43.5998659" lon="11.2261025"><ele>303.0</ele><time>2026-04-19T08:34:32.288Z</time></trkpt><trkpt lat="43.6000026" lon="11.2259459"><ele>303.0</ele><time>2026-04-19T08:34:33.303Z</time></trkpt><trkpt lat="43.6001399" lon="11.2257957"><ele>303.0</ele><time>2026-04-19T08:34:34.301Z</time></trkpt><trkpt lat="43.600279" lon="11.2256467"><ele>303.0</ele><time>2026-04-19T08:34:35.313Z</time></trkpt><trkpt lat="43.6004183" lon="11.225498"><ele>303.0</ele><time>2026-04-19T08:34:36.306Z</time></trkpt><trkpt lat="43.6005546" lon="11.2253492"><ele>303.0</ele><time>2026-04-19T08:34:37.298Z</time></trkpt><trkpt lat="43.6006833" lon="11.2251974"><ele>303.0</ele><time>2026-04-19T08:34:38.307Z</time></trkpt><trkpt lat="43.6008084" lon="11.2250343"><ele>303.0</ele><time>2026-04-19T08:34:39.306Z</time></trkpt><trkpt lat="43.6009335" lon="11.2248632"><ele>303.0</ele><time>2026-04-19T08:34:40.292Z</time></trkpt><trkpt lat="43.6010473" lon="11.2247048"><ele>303.0</ele><time>2026-04-19T08:34:41.296Z</time></trkpt><trkpt lat="43.6011527" lon="11.2245547"><ele>302.75</ele><time>2026-04-19T08:34:42.3Z</time></trkpt><trkpt lat="43.6012595" lon="11.2244125"><ele>302.5</ele><time>2026-04-19T08:34:43.295Z</time></trkpt><trkpt lat="43.6013616" lon="11.224269"><ele>302.25</ele><time>2026-04-19T08:34:44.277Z</time></trkpt><trkpt lat="43.601465" lon="11.2241256"><ele>302.0</ele><time>2026-04-19T08:34:45.284Z</time></trkpt><trkpt lat="43.6015691" lon="11.2239859"><ele>303.0</ele><time>2026-04-19T08:34:46.304Z</time></trkpt><trkpt lat="43.6016647" lon="11.2238475"><ele>304.0</ele><time>2026-04-19T08:34:47.299Z</time></trkpt><trkpt lat="43.6017544" lon="11.2237075"><ele>305.0</ele><time>2026-04-19T08:34:48.299Z</time></trkpt><trkpt lat="43.6018299" lon="11.2235538"><ele>306.0</ele><time>2026-04-19T08:34:49.287Z</time></trkpt><trkpt lat="43.6018952" lon="11.2233963"><ele>306.0</ele><time>2026-04-19T08:34:50.285Z</time></trkpt><trkpt lat="43.6019527" lon="11.2232186"><ele>306.0</ele><time>2026-04-19T08:34:51.301Z</time></trkpt><trkpt lat="43.6019986" lon="11.2230096"><ele>306.0</ele><time>2026-04-19T08:34:52.279Z</time></trkpt><trkpt lat="43.6020402" lon="11.2227861"><ele>302.0</ele><time>2026-04-19T08:34:53.298Z</time></trkpt><trkpt lat="43.6020834" lon="11.2225478"><ele>298.0</ele><time>2026-04-19T08:34:54.302Z</time></trkpt><trkpt lat="43.602129" lon="11.2223061"><ele>294.0</ele><time>2026-04-19T08:34:55.308Z</time></trkpt><trkpt lat="43.6021749" lon="11.2220754"><ele>294.0</ele><time>2026-04-19T08:34:56.291Z</time></trkpt><trkpt lat="43.6022223" lon="11.2218619"><ele>294.0</ele><time>2026-04-19T08:34:57.307Z</time></trkpt><trkpt lat="43.6022688" lon="11.221661"><ele>294.0</ele><time>2026-04-19T08:34:58.302Z</time></trkpt><trkpt lat="43.6023179" lon="11.2214792"><ele>294.5</ele><time>2026-04-19T08:34:59.303Z</time></trkpt><trkpt lat="43.6023759" lon="11.2213092"><ele>295.0</ele><time>2026-04-19T08:35:00.293Z</time></trkpt><trkpt lat="43.6024675" lon="11.2211446"><ele>295.5</ele><time>2026-04-19T08:35:01.3Z</time></trkpt><trkpt lat="43.6025677" lon="11.2209778"><ele>296.0</ele><time>2026-04-19T08:35:02.301Z</time></trkpt><trkpt lat="43.6026693" lon="11.2208024"><ele>295.6666666666667</ele><time>2026-04-19T08:35:03.304Z</time></trkpt><trkpt lat="43.6027777" lon="11.2206203"><ele>295.3333333333333</ele><time>2026-04-19T08:35:04.303Z</time></trkpt><trkpt lat="43.6028884" lon="11.2204247"><ele>295.0</ele><time>2026-04-19T08:35:05.297Z</time></trkpt><trkpt lat="43.6029975" lon="11.2202328"><ele>294.0</ele><time>2026-04-19T08:35:06.307Z</time></trkpt><trkpt lat="43.6031017" lon="11.2200468"><ele>293.0</ele><time>2026-04-19T08:35:07.308Z</time></trkpt><trkpt lat="43.6032026" lon="11.2198656"><ele>292.0</ele><time>2026-04-19T08:35:08.297Z</time></trkpt><trkpt lat="43.6033101" lon="11.2196868"><ele>292.0</ele><time>2026-04-19T08:35:09.299Z</time></trkpt><trkpt lat="43.6034208" lon="11.2195048"><ele>292.0</ele><time>2026-04-19T08:35:10.3Z</time></trkpt><trkpt lat="43.6035284" lon="11.2193237"><ele>292.0</ele><time>2026-04-19T08:35:11.299Z</time></trkpt><trkpt lat="43.6036226" lon="11.2191606"><ele>291.25</ele><time>2026-04-19T08:35:12.284Z</time></trkpt><trkpt lat="43.6037073" lon="11.2190077"><ele>290.5</ele><time>2026-04-19T08:35:13.294Z</time></trkpt><trkpt lat="43.6037845" lon="11.2188627"><ele>289.75</ele><time>2026-04-19T08:35:14.305Z</time></trkpt><trkpt lat="43.6038621" lon="11.2187448"><ele>289.0</ele><time>2026-04-19T08:35:15.299Z</time></trkpt><trkpt lat="43.6039468" lon="11.2186486"><ele>288.75</ele><time>2026-04-19T08:35:16.298Z</time></trkpt><trkpt lat="43.6040631" lon="11.2185865"><ele>288.5</ele><time>2026-04-19T08:35:17.302Z</time></trkpt><trkpt lat="43.6042008" lon="11.2185394"><ele>288.25</ele><time>2026-04-19T08:35:18.294Z</time></trkpt><trkpt lat="43.6043568" lon="11.2184917"><ele>288.0</ele><time>2026-04-19T08:35:19.303Z</time></trkpt><trkpt lat="43.6045297" lon="11.2184514"><ele>288.0</ele><time>2026-04-19T08:35:20.296Z</time></trkpt><trkpt lat="43.6047068" lon="11.2184429"><ele>288.0</ele><time>2026-04-19T08:35:21.305Z</time></trkpt><trkpt lat="43.604882" lon="11.2184474"><ele>288.0</ele><time>2026-04-19T08:35:22.297Z</time></trkpt><trkpt lat="43.6050678" lon="11.2184597"><ele>288.0</ele><time>2026-04-19T08:35:23.304Z</time></trkpt><trkpt lat="43.6052503" lon="11.2184523"><ele>288.0</ele><time>2026-04-19T08:35:24.302Z</time></trkpt><trkpt lat="43.6054321" lon="11.2184117"><ele>288.0</ele><time>2026-04-19T08:35:25.292Z</time></trkpt><trkpt lat="43.6056146" lon="11.218334"><ele>286.3333333333333</ele><time>2026-04-19T08:35:26.31Z</time></trkpt><trkpt lat="43.6057965" lon="11.2182448"><ele>284.66666666666663</ele><time>2026-04-19T08:35:27.317Z</time></trkpt><trkpt lat="43.6059761" lon="11.2181559"><ele>283.0</ele><time>2026-04-19T08:35:28.304Z</time></trkpt><trkpt lat="43.6061579" lon="11.2180656"><ele>285.66666666666663</ele><time>2026-04-19T08:35:29.3Z</time></trkpt><trkpt lat="43.6063375" lon="11.217976"><ele>288.3333333333333</ele><time>2026-04-19T08:35:30.309Z</time></trkpt><trkpt lat="43.6065209" lon="11.2178964"><ele>291.0</ele><time>2026-04-19T08:35:31.296Z</time></trkpt><trkpt lat="43.6067038" lon="11.2178209"><ele>291.0</ele><time>2026-04-19T08:35:32.308Z</time></trkpt><trkpt lat="43.6068899" lon="11.2177659"><ele>291.0</ele><time>2026-04-19T08:35:33.301Z</time></trkpt><trkpt lat="43.6070706" lon="11.2177293"><ele>291.0</ele><time>2026-04-19T08:35:34.297Z</time></trkpt><trkpt lat="43.6072401" lon="11.2176877"><ele>290.6666666666667</ele><time>2026-04-19T08:35:35.292Z</time></trkpt><trkpt lat="43.6074058" lon="11.2176265"><ele>290.33333333333337</ele><time>2026-04-19T08:35:36.295Z</time></trkpt><trkpt lat="43.6075642" lon="11.2175532"><ele>290.0</ele><time>2026-04-19T08:35:37.308Z</time></trkpt><trkpt lat="43.6077139" lon="11.2174588"><ele>292.0</ele><time>2026-04-19T08:35:38.303Z</time></trkpt><trkpt lat="43.6078544" lon="11.2173462"><ele>294.0</ele><time>2026-04-19T08:35:39.298Z</time></trkpt><trkpt lat="43.6079862" lon="11.2172043"><ele>296.0</ele><time>2026-04-19T08:35:40.294Z</time></trkpt><trkpt lat="43.6081138" lon="11.2170502"><ele>296.33333333333337</ele><time>2026-04-19T08:35:41.302Z</time></trkpt><trkpt lat="43.6082385" lon="11.2168918"><ele>296.6666666666667</ele><time>2026-04-19T08:35:42.297Z</time></trkpt><trkpt lat="43.6083693" lon="11.2167261"><ele>297.0</ele><time>2026-04-19T08:35:43.295Z</time></trkpt><trkpt lat="43.6084949" lon="11.2165687"><ele>297.3333333333333</ele><time>2026-04-19T08:35:44.302Z</time></trkpt><trkpt lat="43.6086174" lon="11.2164273"><ele>297.66666666666663</ele><time>2026-04-19T08:35:45.298Z</time></trkpt><trkpt lat="43.6087308" lon="11.2162859"><ele>298.0</ele><time>2026-04-19T08:35:46.303Z</time></trkpt><trkpt lat="43.6088453" lon="11.2161427"><ele>298.3333333333333</ele><time>2026-04-19T08:35:47.305Z</time></trkpt><trkpt lat="43.6089624" lon="11.2159924"><ele>298.6666666666667</ele><time>2026-04-19T08:35:48.292Z</time></trkpt><trkpt lat="43.609084" lon="11.2158433"><ele>299.0</ele><time>2026-04-19T08:35:49.306Z</time></trkpt><trkpt lat="43.6092059" lon="11.2156919"><ele>299.33333333333337</ele><time>2026-04-19T08:35:50.301Z</time></trkpt><trkpt lat="43.6093247" lon="11.2155339"><ele>299.6666666666667</ele><time>2026-04-19T08:35:51.303Z</time></trkpt><trkpt lat="43.6094518" lon="11.215371"><ele>300.0</ele><time>2026-04-19T08:35:52.292Z</time></trkpt><trkpt lat="43.6095753" lon="11.215228"><ele>299.5</ele><time>2026-04-19T08:35:53.307Z</time></trkpt><trkpt lat="43.6096945" lon="11.2151071"><ele>299.0</ele><time>2026-04-19T08:35:54.31Z</time></trkpt><trkpt lat="43.6098065" lon="11.2149939"><ele>298.5</ele><time>2026-04-19T08:35:55.295Z</time></trkpt><trkpt lat="43.6099133" lon="11.2148838"><ele>298.0</ele><time>2026-04-19T08:35:56.302Z</time></trkpt><trkpt lat="43.6100244" lon="11.214792"><ele>297.0</ele><time>2026-04-19T08:35:57.298Z</time></trkpt><trkpt lat="43.6101479" lon="11.2147249"><ele>296.0</ele><time>2026-04-19T08:35:58.3Z</time></trkpt><trkpt lat="43.6102722" lon="11.2146602"><ele>295.0</ele><time>2026-04-19T08:35:59.296Z</time></trkpt><trkpt lat="43.6103907" lon="11.2145913"><ele>294.0</ele><time>2026-04-19T08:36:00.299Z</time></trkpt><trkpt lat="43.6104994" lon="11.214515"><ele>294.0</ele><time>2026-04-19T08:36:01.299Z</time></trkpt><trkpt lat="43.6105866" lon="11.2144336"><ele>294.0</ele><time>2026-04-19T08:36:02.307Z</time></trkpt><trkpt lat="43.6106672" lon="11.2143322"><ele>294.0</ele><time>2026-04-19T08:36:03.304Z</time></trkpt><trkpt lat="43.6107456" lon="11.2142073"><ele>294.0</ele><time>2026-04-19T08:36:04.291Z</time></trkpt><trkpt lat="43.6108218" lon="11.2141022"><ele>294.0</ele><time>2026-04-19T08:36:05.29Z</time></trkpt><trkpt lat="43.6108882" lon="11.2140111"><ele>294.0</ele><time>2026-04-19T08:36:06.323Z</time></trkpt><trkpt lat="43.6109497" lon="11.2139452"><ele>294.0</ele><time>2026-04-19T08:36:07.299Z</time></trkpt><trkpt lat="43.6110118" lon="11.2138965"><ele>294.0</ele><time>2026-04-19T08:36:08.296Z</time></trkpt><trkpt lat="43.6111183" lon="11.2138429"><ele>294.0</ele><time>2026-04-19T08:36:10.301Z</time></trkpt><trkpt lat="43.6112336" lon="11.2138236"><ele>294.0</ele><time>2026-04-19T08:36:12.299Z</time></trkpt><trkpt lat="43.6112996" lon="11.213826"><ele>294.0</ele><time>2026-04-19T08:36:13.29Z</time></trkpt><trkpt lat="43.6114161" lon="11.2138357"><ele>295.0</ele><time>2026-04-19T08:36:15.31Z</time></trkpt><trkpt lat="43.611526" lon="11.2138492"><ele>296.0</ele><time>2026-04-19T08:36:17.292Z</time></trkpt><trkpt lat="43.6116393" lon="11.2138932"><ele>297.0</ele><time>2026-04-19T08:36:19.295Z</time></trkpt><trkpt lat="43.6117016" lon="11.2139417"><ele>298.0</ele><time>2026-04-19T08:36:20.296Z</time></trkpt><trkpt lat="43.6117724" lon="11.2139928"><ele>299.0</ele><time>2026-04-19T08:36:21.3Z</time></trkpt><trkpt lat="43.6118493" lon="11.2140457"><ele>299.0</ele><time>2026-04-19T08:36:22.289Z</time></trkpt><trkpt lat="43.6119384" lon="11.2141036"><ele>299.0</ele><time>2026-04-19T08:36:23.299Z</time></trkpt><trkpt lat="43.6120362" lon="11.2141704"><ele>299.0</ele><time>2026-04-19T08:36:24.309Z</time></trkpt><trkpt lat="43.612148" lon="11.2142328"><ele>299.0</ele><time>2026-04-19T08:36:25.305Z</time></trkpt><trkpt lat="43.6122722" lon="11.2142812"><ele>298.25</ele><time>2026-04-19T08:36:26.284Z</time></trkpt><trkpt lat="43.6124017" lon="11.2143292"><ele>297.5</ele><time>2026-04-19T08:36:27.298Z</time></trkpt><trkpt lat="43.6125336" lon="11.2143814"><ele>296.75</ele><time>2026-04-19T08:36:28.298Z</time></trkpt><trkpt lat="43.6126641" lon="11.2144294"><ele>296.0</ele><time>2026-04-19T08:36:29.302Z</time></trkpt><trkpt lat="43.6127861" lon="11.214475"><ele>294.6</ele><time>2026-04-19T08:36:30.308Z</time></trkpt><trkpt lat="43.6128892" lon="11.2145083"><ele>293.20000000000005</ele><time>2026-04-19T08:36:31.289Z</time></trkpt><trkpt lat="43.6129715" lon="11.2145363"><ele>291.79999999999995</ele><time>2026-04-19T08:36:32.301Z</time></trkpt><trkpt lat="43.6130672" lon="11.2145955"><ele>290.4</ele><time>2026-04-19T08:36:34.301Z</time></trkpt><trkpt lat="43.6131578" lon="11.2146804"><ele>289.0</ele><time>2026-04-19T08:36:36.304Z</time></trkpt><trkpt lat="43.6132319" lon="11.2147458"><ele>289.75</ele><time>2026-04-19T08:36:37.302Z</time></trkpt><trkpt lat="43.6133232" lon="11.2148336"><ele>290.5</ele><time>2026-04-19T08:36:38.312Z</time></trkpt><trkpt lat="43.6134222" lon="11.2149493"><ele>291.25</ele><time>2026-04-19T08:36:39.316Z</time></trkpt><trkpt lat="43.6135312" lon="11.2150674"><ele>292.0</ele><time>2026-04-19T08:36:40.295Z</time></trkpt><trkpt lat="43.6136355" lon="11.2151915"><ele>290.66666666666663</ele><time>2026-04-19T08:36:41.289Z</time></trkpt><trkpt lat="43.6137356" lon="11.2153304"><ele>289.3333333333333</ele><time>2026-04-19T08:36:42.301Z</time></trkpt><trkpt lat="43.6138389" lon="11.2154912"><ele>288.0</ele><time>2026-04-19T08:36:43.308Z</time></trkpt><trkpt lat="43.6139415" lon="11.2156632"><ele>287.0</ele><time>2026-04-19T08:36:44.3Z</time></trkpt><trkpt lat="43.6140425" lon="11.2158375"><ele>286.0</ele><time>2026-04-19T08:36:45.301Z</time></trkpt><trkpt lat="43.6141321" lon="11.216018"><ele>285.0</ele><time>2026-04-19T08:36:46.297Z</time></trkpt><trkpt lat="43.6142149" lon="11.2162012"><ele>285.0</ele><time>2026-04-19T08:36:47.294Z</time></trkpt><trkpt lat="43.6142848" lon="11.2163953"><ele>285.0</ele><time>2026-04-19T08:36:48.306Z</time></trkpt><trkpt lat="43.6143404" lon="11.2166075"><ele>285.0</ele><time>2026-04-19T08:36:49.308Z</time></trkpt><trkpt lat="43.6143835" lon="11.2168217"><ele>283.3333333333333</ele><time>2026-04-19T08:36:50.298Z</time></trkpt><trkpt lat="43.6144256" lon="11.2170274"><ele>281.66666666666663</ele><time>2026-04-19T08:36:51.303Z</time></trkpt><trkpt lat="43.6144676" lon="11.2172299"><ele>280.0</ele><time>2026-04-19T08:36:52.297Z</time></trkpt><trkpt lat="43.6145076" lon="11.2174272"><ele>280.0</ele><time>2026-04-19T08:36:53.296Z</time></trkpt><trkpt lat="43.6145517" lon="11.2176329"><ele>280.0</ele><time>2026-04-19T08:36:54.307Z</time></trkpt><trkpt lat="43.6145945" lon="11.2178436"><ele>280.0</ele><time>2026-04-19T08:36:55.287Z</time></trkpt><trkpt lat="43.6146361" lon="11.2180603"><ele>275.66666666666663</ele><time>2026-04-19T08:36:56.288Z</time></trkpt><trkpt lat="43.6146766" lon="11.2182789"><ele>271.3333333333333</ele><time>2026-04-19T08:36:57.304Z</time></trkpt><trkpt lat="43.6147155" lon="11.2184873"><ele>267.0</ele><time>2026-04-19T08:36:58.298Z</time></trkpt><trkpt lat="43.6147579" lon="11.218693"><ele>267.0</ele><time>2026-04-19T08:36:59.292Z</time></trkpt><trkpt lat="43.6148034" lon="11.2189061"><ele>267.0</ele><time>2026-04-19T08:37:00.275Z</time></trkpt><trkpt lat="43.6148444" lon="11.2191159"><ele>267.0</ele><time>2026-04-19T08:37:01.273Z</time></trkpt><trkpt lat="43.6148866" lon="11.2193244"><ele>263.5</ele><time>2026-04-19T08:37:02.288Z</time></trkpt><trkpt lat="43.6149519" lon="11.2195112"><ele>260.0</ele><time>2026-04-19T08:37:03.279Z</time></trkpt><trkpt lat="43.6150392" lon="11.219663"><ele>256.5</ele><time>2026-04-19T08:37:04.285Z</time></trkpt><trkpt lat="43.6151424" lon="11.2197886"><ele>253.0</ele><time>2026-04-19T08:37:05.297Z</time></trkpt><trkpt lat="43.6152601" lon="11.2198815"><ele>247.33333333333331</ele><time>2026-04-19T08:37:06.294Z</time></trkpt><trkpt lat="43.6153927" lon="11.2199414"><ele>241.66666666666669</ele><time>2026-04-19T08:37:07.285Z</time></trkpt><trkpt lat="43.6155402" lon="11.2199904"><ele>236.0</ele><time>2026-04-19T08:37:08.293Z</time></trkpt><trkpt lat="43.6156969" lon="11.2200215"><ele>236.0</ele><time>2026-04-19T08:37:09.286Z</time></trkpt><trkpt lat="43.6158545" lon="11.2200536"><ele>236.0</ele><time>2026-04-19T08:37:10.276Z</time></trkpt><trkpt lat="43.616006" lon="11.2200925"><ele>236.0</ele><time>2026-04-19T08:37:11.289Z</time></trkpt><trkpt lat="43.6161532" lon="11.2201275"><ele>234.25</ele><time>2026-04-19T08:37:12.278Z</time></trkpt><trkpt lat="43.6162956" lon="11.2201577"><ele>232.5</ele><time>2026-04-19T08:37:13.283Z</time></trkpt><trkpt lat="43.616443" lon="11.2201787"><ele>230.75</ele><time>2026-04-19T08:37:14.291Z</time></trkpt><trkpt lat="43.6165885" lon="11.2201948"><ele>229.0</ele><time>2026-04-19T08:37:15.287Z</time></trkpt><trkpt lat="43.6167345" lon="11.2202038"><ele>229.0</ele><time>2026-04-19T08:37:16.289Z</time></trkpt><trkpt lat="43.6168917" lon="11.2202059"><ele>229.0</ele><time>2026-04-19T08:37:17.298Z</time></trkpt><trkpt lat="43.6170517" lon="11.2202056"><ele>229.0</ele><time>2026-04-19T08:37:18.287Z</time></trkpt><trkpt lat="43.6172123" lon="11.220209"><ele>227.33333333333331</ele><time>2026-04-19T08:37:19.277Z</time></trkpt><trkpt lat="43.6173689" lon="11.2202055"><ele>225.66666666666669</ele><time>2026-04-19T08:37:20.282Z</time></trkpt><trkpt lat="43.6175269" lon="11.2202036"><ele>224.0</ele><time>2026-04-19T08:37:21.291Z</time></trkpt><trkpt lat="43.6176917" lon="11.2201957"><ele>223.0</ele><time>2026-04-19T08:37:22.299Z</time></trkpt><trkpt lat="43.6178498" lon="11.2201727"><ele>222.0</ele><time>2026-04-19T08:37:23.276Z</time></trkpt><trkpt lat="43.6180094" lon="11.2201289"><ele>221.0</ele><time>2026-04-19T08:37:24.279Z</time></trkpt><trkpt lat="43.6181714" lon="11.2200704"><ele>221.0</ele><time>2026-04-19T08:37:25.279Z</time></trkpt><trkpt lat="43.6183397" lon="11.2200004"><ele>221.0</ele><time>2026-04-19T08:37:26.278Z</time></trkpt><trkpt lat="43.6185102" lon="11.2199244"><ele>221.0</ele><time>2026-04-19T08:37:27.297Z</time></trkpt><trkpt lat="43.6186849" lon="11.219841"><ele>226.0</ele><time>2026-04-19T08:37:28.285Z</time></trkpt><trkpt lat="43.6188631" lon="11.2197527"><ele>231.0</ele><time>2026-04-19T08:37:29.296Z</time></trkpt><trkpt lat="43.6190422" lon="11.2196654"><ele>236.0</ele><time>2026-04-19T08:37:30.28Z</time></trkpt><trkpt lat="43.6192219" lon="11.2195736"><ele>236.0</ele><time>2026-04-19T08:37:31.293Z</time></trkpt><trkpt lat="43.6193993" lon="11.219479"><ele>236.0</ele><time>2026-04-19T08:37:32.298Z</time></trkpt><trkpt lat="43.6195763" lon="11.2193911"><ele>236.0</ele><time>2026-04-19T08:37:33.292Z</time></trkpt><trkpt lat="43.6197476" lon="11.2193001"><ele>231.0</ele><time>2026-04-19T08:37:34.302Z</time></trkpt><trkpt lat="43.6199201" lon="11.2192174"><ele>226.0</ele><time>2026-04-19T08:37:35.29Z</time></trkpt><trkpt lat="43.620097" lon="11.2191366"><ele>221.0</ele><time>2026-04-19T08:37:36.292Z</time></trkpt><trkpt lat="43.6202676" lon="11.2190692"><ele>220.0</ele><time>2026-04-19T08:37:37.298Z</time></trkpt><trkpt lat="43.6204327" lon="11.2190193"><ele>219.0</ele><time>2026-04-19T08:37:38.291Z</time></trkpt><trkpt lat="43.6206066" lon="11.2190077"><ele>218.0</ele><time>2026-04-19T08:37:39.295Z</time></trkpt><trkpt lat="43.620789" lon="11.219024"><ele>218.0</ele><time>2026-04-19T08:37:40.291Z</time></trkpt><trkpt lat="43.6209802" lon="11.219044"><ele>218.0</ele><time>2026-04-19T08:37:41.309Z</time></trkpt><trkpt lat="43.6211685" lon="11.2190622"><ele>218.0</ele><time>2026-04-19T08:37:42.295Z</time></trkpt><trkpt lat="43.6213565" lon="11.2190752"><ele>217.0</ele><time>2026-04-19T08:37:43.296Z</time></trkpt><trkpt lat="43.621546" lon="11.2190911"><ele>216.0</ele><time>2026-04-19T08:37:44.298Z</time></trkpt><trkpt lat="43.6217319" lon="11.219101"><ele>215.0</ele><time>2026-04-19T08:37:45.288Z</time></trkpt><trkpt lat="43.6219167" lon="11.2191155"><ele>215.0</ele><time>2026-04-19T08:37:46.295Z</time></trkpt><trkpt lat="43.6220997" lon="11.2191306"><ele>215.0</ele><time>2026-04-19T08:37:47.274Z</time></trkpt><trkpt lat="43.6222872" lon="11.2191405"><ele>215.0</ele><time>2026-04-19T08:37:48.294Z</time></trkpt><trkpt lat="43.6224737" lon="11.21915"><ele>215.0</ele><time>2026-04-19T08:37:49.293Z</time></trkpt><trkpt lat="43.622655" lon="11.2191611"><ele>215.0</ele><time>2026-04-19T08:37:50.297Z</time></trkpt><trkpt lat="43.622822" lon="11.2191727"><ele>215.0</ele><time>2026-04-19T08:37:51.278Z</time></trkpt><trkpt lat="43.622992" lon="11.2191872"><ele>213.66666666666669</ele><time>2026-04-19T08:37:52.298Z</time></trkpt><trkpt lat="43.6231637" lon="11.219193"><ele>212.33333333333331</ele><time>2026-04-19T08:37:53.3Z</time></trkpt><trkpt lat="43.6233389" lon="11.2191959"><ele>211.0</ele><time>2026-04-19T08:37:54.292Z</time></trkpt><trkpt lat="43.623521" lon="11.2191957"><ele>209.33333333333331</ele><time>2026-04-19T08:37:55.29Z</time></trkpt><trkpt lat="43.6236992" lon="11.2191958"><ele>207.66666666666669</ele><time>2026-04-19T08:37:56.286Z</time></trkpt><trkpt lat="43.6238522" lon="11.2191968"><ele>206.0</ele><time>2026-04-19T08:37:57.291Z</time></trkpt><trkpt lat="43.6239811" lon="11.2191974"><ele>206.0</ele><time>2026-04-19T08:37:58.298Z</time></trkpt><trkpt lat="43.6240827" lon="11.2191966"><ele>206.0</ele><time>2026-04-19T08:37:59.302Z</time></trkpt><trkpt lat="43.6241774" lon="11.2191913"><ele>206.0</ele><time>2026-04-19T08:38:00.295Z</time></trkpt><trkpt lat="43.6242781" lon="11.2191837"><ele>206.0</ele><time>2026-04-19T08:38:01.301Z</time></trkpt><trkpt lat="43.6243889" lon="11.2191591"><ele>206.0</ele><time>2026-04-19T08:38:02.295Z</time></trkpt><trkpt lat="43.624501" lon="11.2191466"><ele>205.4</ele><time>2026-04-19T08:38:03.3Z</time></trkpt><trkpt lat="43.6246073" lon="11.2191485"><ele>204.8</ele><time>2026-04-19T08:38:04.286Z</time></trkpt><trkpt lat="43.6247068" lon="11.2191701"><ele>204.20000000000002</ele><time>2026-04-19T08:38:05.304Z</time></trkpt><trkpt lat="43.6247914" lon="11.2192329"><ele>203.60000000000002</ele><time>2026-04-19T08:38:06.293Z</time></trkpt><trkpt lat="43.6248567" lon="11.2193002"><ele>203.0</ele><time>2026-04-19T08:38:07.295Z</time></trkpt><trkpt lat="43.6249039" lon="11.2193623"><ele>203.0</ele><time>2026-04-19T08:38:08.294Z</time></trkpt><trkpt lat="43.6249663" lon="11.2194843"><ele>203.0</ele><time>2026-04-19T08:38:10.28Z</time></trkpt><trkpt lat="43.6250609" lon="11.2196179"><ele>203.0</ele><time>2026-04-19T08:38:12.278Z</time></trkpt><trkpt lat="43.625139" lon="11.2196922"><ele>203.0</ele><time>2026-04-19T08:38:13.297Z</time></trkpt><trkpt lat="43.6252284" lon="11.2197571"><ele>203.0</ele><time>2026-04-19T08:38:14.291Z</time></trkpt><trkpt lat="43.6253325" lon="11.2197972"><ele>202.4</ele><time>2026-04-19T08:38:15.295Z</time></trkpt><trkpt lat="43.6254411" lon="11.2198075"><ele>201.8</ele><time>2026-04-19T08:38:16.291Z</time></trkpt><trkpt lat="43.6255499" lon="11.2197965"><ele>201.2</ele><time>2026-04-19T08:38:17.287Z</time></trkpt><trkpt lat="43.6256518" lon="11.219783"><ele>200.6</ele><time>2026-04-19T08:38:18.274Z</time></trkpt><trkpt lat="43.6257481" lon="11.2197734"><ele>200.0</ele><time>2026-04-19T08:38:19.29Z</time></trkpt><trkpt lat="43.625824" lon="11.2197645"><ele>200.00000000000003</ele><time>2026-04-19T08:38:20.301Z</time></trkpt><trkpt lat="43.6259343" lon="11.2197601"><ele>200.0</ele><time>2026-04-19T08:38:22.293Z</time></trkpt><trkpt lat="43.6260088" lon="11.2197431"><ele>200.0</ele><time>2026-04-19T08:38:24.288Z</time></trkpt><trkpt lat="43.6260933" lon="11.2197461"><ele>200.0</ele><time>2026-04-19T08:38:27.283Z</time></trkpt><trkpt lat="43.62616" lon="11.2197468"><ele>200.00000000000003</ele><time>2026-04-19T08:39:55.172Z</time></trkpt><trkpt lat="43.6262334" lon="11.2198145"><ele>200.0</ele><time>2026-04-19T08:39:59.178Z</time></trkpt><trkpt lat="43.6263139" lon="11.2199149"><ele>201.6</ele><time>2026-04-19T08:40:01.173Z</time></trkpt><trkpt lat="43.6264279" lon="11.2199857"><ele>203.2</ele><time>2026-04-19T08:40:03.174Z</time></trkpt><trkpt lat="43.626497" lon="11.2200272"><ele>204.8</ele><time>2026-04-19T08:40:04.177Z</time></trkpt><trkpt lat="43.6265781" lon="11.2200728"><ele>206.4</ele><time>2026-04-19T08:40:05.173Z</time></trkpt><trkpt lat="43.6266673" lon="11.2201136"><ele>208.0</ele><time>2026-04-19T08:40:06.181Z</time></trkpt><trkpt lat="43.6267678" lon="11.220146"><ele>207.99999999999997</ele><time>2026-04-19T08:40:07.172Z</time></trkpt><trkpt lat="43.6268511" lon="11.2201688"><ele>208.0</ele><time>2026-04-19T08:40:08.17Z</time></trkpt><trkpt lat="43.6269244" lon="11.2201864"><ele>208.0</ele><time>2026-04-19T08:40:09.179Z</time></trkpt><trkpt lat="43.6269894" lon="11.2202029"><ele>208.0</ele><time>2026-04-19T08:40:10.174Z</time></trkpt><trkpt lat="43.6270749" lon="11.2202618"><ele>207.99999999999997</ele><time>2026-04-19T08:40:12.208Z</time></trkpt><trkpt lat="43.6270818" lon="11.2203485"><ele>208.0</ele><time>2026-04-19T08:40:14.166Z</time></trkpt><trkpt lat="43.627045" lon="11.2204405"><ele>208.0</ele><time>2026-04-19T08:40:16.17Z</time></trkpt><trkpt lat="43.6269725" lon="11.2205205"><ele>208.0</ele><time>2026-04-19T08:40:18.167Z</time></trkpt><trkpt lat="43.6269173" lon="11.2206362"><ele>208.0</ele><time>2026-04-19T08:40:20.176Z</time></trkpt><trkpt lat="43.6268661" lon="11.2207525"><ele>208.0</ele><time>2026-04-19T08:40:22.162Z</time></trkpt><trkpt lat="43.6268007" lon="11.2208037"><ele>208.0</ele><time>2026-04-19T08:40:24.186Z</time></trkpt><trkpt lat="43.6267059" lon="11.2208323"><ele>210.83333333333331</ele><time>2026-04-19T08:40:27.176Z</time></trkpt><trkpt lat="43.6265781" lon="11.2208699"><ele>213.66666666666666</ele><time>2026-04-19T08:40:29.184Z</time></trkpt><trkpt lat="43.626515" lon="11.2208986"><ele>216.5</ele><time>2026-04-19T08:40:30.177Z</time></trkpt><trkpt lat="43.6264185" lon="11.2209533"><ele>219.33333333333331</ele><time>2026-04-19T08:40:32.171Z</time></trkpt><trkpt lat="43.6263518" lon="11.2209916"><ele>222.16666666666666</ele><time>2026-04-19T08:40:34.177Z</time></trkpt><trkpt lat="43.6262843" lon="11.2210331"><ele>225.0</ele><time>2026-04-19T08:40:36.173Z</time></trkpt><trkpt lat="43.6261766" lon="11.2211001"><ele>225.83333333333334</ele><time>2026-04-19T08:40:38.189Z</time></trkpt><trkpt lat="43.6261116" lon="11.2211484"><ele>226.66666666666669</ele><time>2026-04-19T08:40:39.185Z</time></trkpt><trkpt lat="43.6260265" lon="11.2212043"><ele>227.5</ele><time>2026-04-19T08:40:40.173Z</time></trkpt><trkpt lat="43.6259464" lon="11.2212651"><ele>228.33333333333334</ele><time>2026-04-19T08:40:41.182Z</time></trkpt><trkpt lat="43.625879" lon="11.2213237"><ele>229.16666666666669</ele><time>2026-04-19T08:40:42.164Z</time></trkpt><trkpt lat="43.6258243" lon="11.2213733"><ele>230.0</ele><time>2026-04-19T08:40:43.17Z</time></trkpt><trkpt lat="43.6257296" lon="11.2214644"><ele>232.66666666666669</ele><time>2026-04-19T08:40:45.17Z</time></trkpt><trkpt lat="43.6256467" lon="11.2215993"><ele>235.33333333333334</ele><time>2026-04-19T08:40:47.178Z</time></trkpt><trkpt lat="43.6256036" lon="11.2216802"><ele>238.0</ele><time>2026-04-19T08:40:48.172Z</time></trkpt><trkpt lat="43.6255587" lon="11.2217744"><ele>240.66666666666669</ele><time>2026-04-19T08:40:49.179Z</time></trkpt><trkpt lat="43.6255159" lon="11.2218724"><ele>243.33333333333334</ele><time>2026-04-19T08:40:50.158Z</time></trkpt><trkpt lat="43.6254771" lon="11.2219691"><ele>246.0</ele><time>2026-04-19T08:40:51.191Z</time></trkpt><trkpt lat="43.6254433" lon="11.2220609"><ele>246.00000000000003</ele><time>2026-04-19T08:40:52.187Z</time></trkpt><trkpt lat="43.6254085" lon="11.2221478"><ele>246.0</ele><time>2026-04-19T08:40:53.177Z</time></trkpt><trkpt lat="43.6253772" lon="11.2222279"><ele>246.00000000000003</ele><time>2026-04-19T08:40:54.182Z</time></trkpt><trkpt lat="43.6253442" lon="11.2223036"><ele>246.00000000000003</ele><time>2026-04-19T08:40:55.176Z</time></trkpt><trkpt lat="43.6253094" lon="11.2223774"><ele>246.0</ele><time>2026-04-19T08:40:56.165Z</time></trkpt><trkpt lat="43.6252481" lon="11.2224984"><ele>246.00000000000003</ele><time>2026-04-19T08:40:58.178Z</time></trkpt><trkpt lat="43.6252097" lon="11.2225761"><ele>246.00000000000003</ele><time>2026-04-19T08:41:00.163Z</time></trkpt><trkpt lat="43.625168" lon="11.2226619"><ele>249.83333333333334</ele><time>2026-04-19T08:41:02.181Z</time></trkpt><trkpt lat="43.6251245" lon="11.2227264"><ele>253.66666666666669</ele><time>2026-04-19T08:41:06.188Z</time></trkpt><trkpt lat="43.6250778" lon="11.2227969"><ele>257.5</ele><time>2026-04-19T08:41:10.181Z</time></trkpt><trkpt lat="43.6250333" lon="11.2228638"><ele>261.33333333333337</ele><time>2026-04-19T08:41:11.177Z</time></trkpt><trkpt lat="43.6249878" lon="11.2229432"><ele>265.1666666666667</ele><time>2026-04-19T08:41:12.178Z</time></trkpt><trkpt lat="43.6249105" lon="11.2230591"><ele>269.0</ele><time>2026-04-19T08:41:14.18Z</time></trkpt><trkpt lat="43.6248266" lon="11.2231527"><ele>269.33333333333337</ele><time>2026-04-19T08:41:16.184Z</time></trkpt><trkpt lat="43.624732" lon="11.223194"><ele>269.6666666666667</ele><time>2026-04-19T08:41:18.181Z</time></trkpt><trkpt lat="43.6246616" lon="11.2232181"><ele>270.0</ele><time>2026-04-19T08:41:20.177Z</time></trkpt><trkpt lat="43.6245845" lon="11.2232601"><ele>270.3333333333333</ele><time>2026-04-19T08:41:23.175Z</time></trkpt><trkpt lat="43.6245369" lon="11.2233189"><ele>270.66666666666663</ele><time>2026-04-19T08:41:41.17Z</time></trkpt><trkpt lat="43.6244962" lon="11.2233952"><ele>271.0</ele><time>2026-04-19T08:41:43.185Z</time></trkpt><trkpt lat="43.6244404" lon="11.223474"><ele>272.16666666666663</ele><time>2026-04-19T08:41:45.179Z</time></trkpt><trkpt lat="43.6243696" lon="11.2235157"><ele>273.3333333333333</ele><time>2026-04-19T08:41:47.173Z</time></trkpt><trkpt lat="43.6242609" lon="11.2235477"><ele>274.5</ele><time>2026-04-19T08:41:49.179Z</time></trkpt><trkpt lat="43.6241992" lon="11.2235915"><ele>275.6666666666667</ele><time>2026-04-19T08:41:50.18Z</time></trkpt><trkpt lat="43.6241364" lon="11.2236527"><ele>276.83333333333337</ele><time>2026-04-19T08:41:51.178Z</time></trkpt><trkpt lat="43.6240615" lon="11.2237054"><ele>278.0</ele><time>2026-04-19T08:41:52.179Z</time></trkpt><trkpt lat="43.6239765" lon="11.2237652"><ele>278.0</ele><time>2026-04-19T08:41:53.181Z</time></trkpt><trkpt lat="43.6238934" lon="11.2238214"><ele>278.0</ele><time>2026-04-19T08:41:54.181Z</time></trkpt><trkpt lat="43.623808" lon="11.2238686"><ele>278.0</ele><time>2026-04-19T08:41:55.179Z</time></trkpt><trkpt lat="43.6237165" lon="11.2239061"><ele>278.0</ele><time>2026-04-19T08:41:56.18Z</time></trkpt><trkpt lat="43.6236246" lon="11.223939"><ele>278.0</ele><time>2026-04-19T08:41:57.2Z</time></trkpt><trkpt lat="43.6235314" lon="11.2239668"><ele>280.2</ele><time>2026-04-19T08:41:58.179Z</time></trkpt><trkpt lat="43.6234367" lon="11.2240071"><ele>282.4</ele><time>2026-04-19T08:41:59.178Z</time></trkpt><trkpt lat="43.6233437" lon="11.2240507"><ele>284.59999999999997</ele><time>2026-04-19T08:42:00.163Z</time></trkpt><trkpt lat="43.6232546" lon="11.2240968"><ele>286.8</ele><time>2026-04-19T08:42:01.175Z</time></trkpt><trkpt lat="43.6231665" lon="11.2241442"><ele>289.0</ele><time>2026-04-19T08:42:02.155Z</time></trkpt><trkpt lat="43.6230735" lon="11.2241863"><ele>289.0</ele><time>2026-04-19T08:42:03.188Z</time></trkpt><trkpt lat="43.6229799" lon="11.2242222"><ele>289.0</ele><time>2026-04-19T08:42:04.193Z</time></trkpt><trkpt lat="43.6228868" lon="11.224263"><ele>289.0</ele><time>2026-04-19T08:42:05.186Z</time></trkpt><trkpt lat="43.6227945" lon="11.224308"><ele>289.0</ele><time>2026-04-19T08:42:06.167Z</time></trkpt><trkpt lat="43.6227092" lon="11.2243515"><ele>289.0</ele><time>2026-04-19T08:42:07.17Z</time></trkpt><trkpt lat="43.6226299" lon="11.2243896"><ele>289.0</ele><time>2026-04-19T08:42:08.181Z</time></trkpt><trkpt lat="43.6225586" lon="11.2244184"><ele>289.0</ele><time>2026-04-19T08:42:09.18Z</time></trkpt><trkpt lat="43.6225045" lon="11.2244725"><ele>289.0</ele><time>2026-04-19T08:42:10.176Z</time></trkpt><trkpt lat="43.6224615" lon="11.2245502"><ele>289.0</ele><time>2026-04-19T08:42:11.185Z</time></trkpt><trkpt lat="43.6224273" lon="11.2246465"><ele>289.0</ele><time>2026-04-19T08:42:12.161Z</time></trkpt><trkpt lat="43.622396" lon="11.2247565"><ele>289.0</ele><time>2026-04-19T08:42:13.18Z</time></trkpt><trkpt lat="43.6223669" lon="11.2248556"><ele>289.66666666666663</ele><time>2026-04-19T08:42:14.183Z</time></trkpt><trkpt lat="43.6223572" lon="11.2249561"><ele>290.3333333333333</ele><time>2026-04-19T08:42:15.17Z</time></trkpt><trkpt lat="43.622359" lon="11.2250653"><ele>291.0</ele><time>2026-04-19T08:42:16.185Z</time></trkpt><trkpt lat="43.6223783" lon="11.2251843"><ele>291.6666666666667</ele><time>2026-04-19T08:42:17.176Z</time></trkpt><trkpt lat="43.6223933" lon="11.2253188"><ele>292.33333333333337</ele><time>2026-04-19T08:42:18.176Z</time></trkpt><trkpt lat="43.6223886" lon="11.2254686"><ele>293.0</ele><time>2026-04-19T08:42:19.177Z</time></trkpt><trkpt lat="43.6223517" lon="11.2256375"><ele>293.0</ele><time>2026-04-19T08:42:20.183Z</time></trkpt><trkpt lat="43.6223167" lon="11.2258271"><ele>293.0</ele><time>2026-04-19T08:42:21.196Z</time></trkpt><trkpt lat="43.6222806" lon="11.2260164"><ele>293.0</ele><time>2026-04-19T08:42:22.164Z</time></trkpt><trkpt lat="43.6222441" lon="11.2262006"><ele>293.0</ele><time>2026-04-19T08:42:23.183Z</time></trkpt><trkpt lat="43.62221" lon="11.2263602"><ele>293.0</ele><time>2026-04-19T08:42:24.176Z</time></trkpt><trkpt lat="43.6221742" lon="11.2265077"><ele>293.0</ele><time>2026-04-19T08:42:25.197Z</time></trkpt><trkpt lat="43.6221378" lon="11.226651"><ele>293.0</ele><time>2026-04-19T08:42:26.168Z</time></trkpt><trkpt lat="43.6221061" lon="11.226801"><ele>293.0</ele><time>2026-04-19T08:42:27.178Z</time></trkpt><trkpt lat="43.6220781" lon="11.2269623"><ele>293.0</ele><time>2026-04-19T08:42:28.19Z</time></trkpt><trkpt lat="43.6220452" lon="11.227127"><ele>293.0</ele><time>2026-04-19T08:42:29.183Z</time></trkpt><trkpt lat="43.6220075" lon="11.2272948"><ele>293.0</ele><time>2026-04-19T08:42:30.17Z</time></trkpt><trkpt lat="43.6219698" lon="11.2274682"><ele>293.0</ele><time>2026-04-19T08:42:31.165Z</time></trkpt><trkpt lat="43.6219313" lon="11.2276456"><ele>292.5</ele><time>2026-04-19T08:42:32.182Z</time></trkpt><trkpt lat="43.6218934" lon="11.2278297"><ele>292.0</ele><time>2026-04-19T08:42:33.172Z</time></trkpt><trkpt lat="43.6218586" lon="11.2280119"><ele>291.5</ele><time>2026-04-19T08:42:34.182Z</time></trkpt><trkpt lat="43.6218324" lon="11.2281796"><ele>291.0</ele><time>2026-04-19T08:42:35.174Z</time></trkpt><trkpt lat="43.6218091" lon="11.2283329"><ele>291.6666666666667</ele><time>2026-04-19T08:42:36.183Z</time></trkpt><trkpt lat="43.6217881" lon="11.2284684"><ele>292.3333333333333</ele><time>2026-04-19T08:42:37.184Z</time></trkpt><trkpt lat="43.6217666" lon="11.2285854"><ele>293.0</ele><time>2026-04-19T08:42:38.177Z</time></trkpt><trkpt lat="43.6217435" lon="11.2286795"><ele>293.66666666666663</ele><time>2026-04-19T08:42:39.182Z</time></trkpt><trkpt lat="43.6217196" lon="11.2287602"><ele>294.3333333333333</ele><time>2026-04-19T08:42:40.174Z</time></trkpt><trkpt lat="43.6216625" lon="11.228877"><ele>295.0</ele><time>2026-04-19T08:42:42.18Z</time></trkpt><trkpt lat="43.6215513" lon="11.2289578"><ele>295.2</ele><time>2026-04-19T08:42:44.18Z</time></trkpt><trkpt lat="43.6214831" lon="11.2290125"><ele>295.4</ele><time>2026-04-19T08:42:45.168Z</time></trkpt><trkpt lat="43.6214096" lon="11.2290833"><ele>295.6</ele><time>2026-04-19T08:42:46.177Z</time></trkpt><trkpt lat="43.6213286" lon="11.2291695"><ele>295.8</ele><time>2026-04-19T08:42:47.176Z</time></trkpt><trkpt lat="43.6212439" lon="11.229265"><ele>296.0</ele><time>2026-04-19T08:42:48.173Z</time></trkpt><trkpt lat="43.6211592" lon="11.2293581"><ele>294.75</ele><time>2026-04-19T08:42:49.172Z</time></trkpt><trkpt lat="43.6210766" lon="11.2294636"><ele>293.5</ele><time>2026-04-19T08:42:50.175Z</time></trkpt><trkpt lat="43.6209895" lon="11.2295758"><ele>292.25</ele><time>2026-04-19T08:42:51.172Z</time></trkpt><trkpt lat="43.6208981" lon="11.2297009"><ele>291.0</ele><time>2026-04-19T08:42:52.178Z</time></trkpt><trkpt lat="43.6207961" lon="11.2298346"><ele>290.75</ele><time>2026-04-19T08:42:53.176Z</time></trkpt><trkpt lat="43.6206958" lon="11.2299637"><ele>290.5</ele><time>2026-04-19T08:42:54.178Z</time></trkpt><trkpt lat="43.620599" lon="11.2301006"><ele>290.25</ele><time>2026-04-19T08:42:55.177Z</time></trkpt><trkpt lat="43.6205009" lon="11.2302336"><ele>290.0</ele><time>2026-04-19T08:42:56.171Z</time></trkpt><trkpt lat="43.6203946" lon="11.2303663"><ele>290.25</ele><time>2026-04-19T08:42:57.16Z</time></trkpt><trkpt lat="43.6202945" lon="11.2304928"><ele>290.5</ele><time>2026-04-19T08:42:58.176Z</time></trkpt><trkpt lat="43.6201942" lon="11.2306184"><ele>290.75</ele><time>2026-04-19T08:42:59.179Z</time></trkpt><trkpt lat="43.6200977" lon="11.2307413"><ele>291.0</ele><time>2026-04-19T08:43:00.169Z</time></trkpt><trkpt lat="43.6200095" lon="11.2308567"><ele>291.0</ele><time>2026-04-19T08:43:01.159Z</time></trkpt><trkpt lat="43.6199227" lon="11.2309575"><ele>291.0</ele><time>2026-04-19T08:43:02.176Z</time></trkpt><trkpt lat="43.6198427" lon="11.2310618"><ele>291.0</ele><time>2026-04-19T08:43:03.179Z</time></trkpt><trkpt lat="43.6197575" lon="11.2311669"><ele>291.0</ele><time>2026-04-19T08:43:04.186Z</time></trkpt><trkpt lat="43.619674" lon="11.2312742"><ele>291.0</ele><time>2026-04-19T08:43:05.182Z</time></trkpt><trkpt lat="43.6195866" lon="11.2313771"><ele>291.0</ele><time>2026-04-19T08:43:06.18Z</time></trkpt><trkpt lat="43.6194999" lon="11.2314793"><ele>291.0</ele><time>2026-04-19T08:43:07.188Z</time></trkpt><trkpt lat="43.6194093" lon="11.2315825"><ele>291.0</ele><time>2026-04-19T08:43:08.178Z</time></trkpt><trkpt lat="43.6193165" lon="11.2316874"><ele>292.75</ele><time>2026-04-19T08:43:09.186Z</time></trkpt><trkpt lat="43.619219" lon="11.2318023"><ele>294.5</ele><time>2026-04-19T08:43:10.187Z</time></trkpt><trkpt lat="43.6191253" lon="11.2319243"><ele>296.25</ele><time>2026-04-19T08:43:11.18Z</time></trkpt><trkpt lat="43.6190341" lon="11.2320363"><ele>298.0</ele><time>2026-04-19T08:43:12.178Z</time></trkpt><trkpt lat="43.618945" lon="11.2321434"><ele>298.0</ele><time>2026-04-19T08:43:13.188Z</time></trkpt><trkpt lat="43.6188512" lon="11.2322562"><ele>298.0</ele><time>2026-04-19T08:43:14.183Z</time></trkpt><trkpt lat="43.6187585" lon="11.2323729"><ele>298.0</ele><time>2026-04-19T08:43:15.157Z</time></trkpt><trkpt lat="43.6186675" lon="11.2324892"><ele>298.0</ele><time>2026-04-19T08:43:16.183Z</time></trkpt><trkpt lat="43.6185878" lon="11.2325982"><ele>298.8</ele><time>2026-04-19T08:43:17.178Z</time></trkpt><trkpt lat="43.6185048" lon="11.2326975"><ele>299.6</ele><time>2026-04-19T08:43:18.173Z</time></trkpt><trkpt lat="43.6184282" lon="11.2327905"><ele>300.4</ele><time>2026-04-19T08:43:19.181Z</time></trkpt><trkpt lat="43.6183525" lon="11.2328737"><ele>301.2</ele><time>2026-04-19T08:43:20.188Z</time></trkpt><trkpt lat="43.6182877" lon="11.2329487"><ele>302.0</ele><time>2026-04-19T08:43:21.157Z</time></trkpt><trkpt lat="43.6182277" lon="11.2330309"><ele>302.0</ele><time>2026-04-19T08:43:22.183Z</time></trkpt><trkpt lat="43.6181803" lon="11.2331324"><ele>302.0</ele><time>2026-04-19T08:43:23.18Z</time></trkpt><trkpt lat="43.6181664" lon="11.2332604"><ele>302.0</ele><time>2026-04-19T08:43:24.182Z</time></trkpt><trkpt lat="43.618168" lon="11.2334123"><ele>302.0</ele><time>2026-04-19T08:43:25.168Z</time></trkpt><trkpt lat="43.6181651" lon="11.2335322"><ele>302.0</ele><time>2026-04-19T08:43:26.169Z</time></trkpt><trkpt lat="43.6181682" lon="11.2336521"><ele>302.0</ele><time>2026-04-19T08:43:27.182Z</time></trkpt><trkpt lat="43.6181796" lon="11.233777"><ele>302.0</ele><time>2026-04-19T08:43:28.177Z</time></trkpt><trkpt lat="43.618213" lon="11.2339135"><ele>302.0</ele><time>2026-04-19T08:43:29.179Z</time></trkpt><trkpt lat="43.61825" lon="11.2340341"><ele>302.0</ele><time>2026-04-19T08:43:30.176Z</time></trkpt><trkpt lat="43.6182841" lon="11.2341444"><ele>302.0</ele><time>2026-04-19T08:43:31.184Z</time></trkpt><trkpt lat="43.6183078" lon="11.2342458"><ele>302.0</ele><time>2026-04-19T08:43:32.186Z</time></trkpt><trkpt lat="43.6183086" lon="11.2343376"><ele>302.0</ele><time>2026-04-19T08:43:33.168Z</time></trkpt><trkpt lat="43.618269" lon="11.2344899"><ele>302.0</ele><time>2026-04-19T08:43:35.172Z</time></trkpt><trkpt lat="43.6182169" lon="11.2346471"><ele>302.0</ele><time>2026-04-19T08:43:37.177Z</time></trkpt><trkpt lat="43.6181933" lon="11.2347317"><ele>302.0</ele><time>2026-04-19T08:43:38.177Z</time></trkpt><trkpt lat="43.61818" lon="11.2348202"><ele>302.0</ele><time>2026-04-19T08:43:39.169Z</time></trkpt><trkpt lat="43.6181681" lon="11.2349139"><ele>301.0</ele><time>2026-04-19T08:43:40.166Z</time></trkpt><trkpt lat="43.6181623" lon="11.235004"><ele>300.0</ele><time>2026-04-19T08:43:41.163Z</time></trkpt><trkpt lat="43.6181576" lon="11.2350917"><ele>299.0</ele><time>2026-04-19T08:43:42.181Z</time></trkpt><trkpt lat="43.6181541" lon="11.2351921"><ele>298.0</ele><time>2026-04-19T08:43:43.178Z</time></trkpt><trkpt lat="43.618155" lon="11.2353044"><ele>297.0</ele><time>2026-04-19T08:43:44.167Z</time></trkpt><trkpt lat="43.6181497" lon="11.2354276"><ele>296.0</ele><time>2026-04-19T08:43:45.184Z</time></trkpt><trkpt lat="43.6181444" lon="11.235555"><ele>296.0</ele><time>2026-04-19T08:43:46.183Z</time></trkpt><trkpt lat="43.6181332" lon="11.23569"><ele>296.0</ele><time>2026-04-19T08:43:47.163Z</time></trkpt><trkpt lat="43.6181244" lon="11.2358349"><ele>296.0</ele><time>2026-04-19T08:43:48.174Z</time></trkpt><trkpt lat="43.6181091" lon="11.2359725"><ele>296.0</ele><time>2026-04-19T08:43:49.176Z</time></trkpt><trkpt lat="43.6180871" lon="11.2361098"><ele>296.0</ele><time>2026-04-19T08:43:50.186Z</time></trkpt><trkpt lat="43.618059" lon="11.2362419"><ele>296.0</ele><time>2026-04-19T08:43:51.183Z</time></trkpt><trkpt lat="43.618014" lon="11.2363719"><ele>296.0</ele><time>2026-04-19T08:43:52.182Z</time></trkpt><trkpt lat="43.6179503" lon="11.2364964"><ele>296.0</ele><time>2026-04-19T08:43:53.183Z</time></trkpt><trkpt lat="43.6178693" lon="11.236622"><ele>296.0</ele><time>2026-04-19T08:43:54.18Z</time></trkpt><trkpt lat="43.6177801" lon="11.2367568"><ele>297.5</ele><time>2026-04-19T08:43:55.184Z</time></trkpt><trkpt lat="43.6176908" lon="11.2368969"><ele>299.0</ele><time>2026-04-19T08:43:56.176Z</time></trkpt><trkpt lat="43.6176019" lon="11.2370479"><ele>300.5</ele><time>2026-04-19T08:43:57.159Z</time></trkpt><trkpt lat="43.6175106" lon="11.2371935"><ele>302.0</ele><time>2026-04-19T08:43:58.188Z</time></trkpt><trkpt lat="43.6174204" lon="11.2373261"><ele>302.2</ele><time>2026-04-19T08:43:59.187Z</time></trkpt><trkpt lat="43.6173406" lon="11.2374505"><ele>302.4</ele><time>2026-04-19T08:44:00.162Z</time></trkpt><trkpt lat="43.6172839" lon="11.2375497"><ele>302.6</ele><time>2026-04-19T08:44:01.17Z</time></trkpt><trkpt lat="43.6172386" lon="11.2376409"><ele>302.8</ele><time>2026-04-19T08:44:02.178Z</time></trkpt><trkpt lat="43.6172048" lon="11.2377378"><ele>303.0</ele><time>2026-04-19T08:44:03.187Z</time></trkpt><trkpt lat="43.6171861" lon="11.2378577"><ele>303.0</ele><time>2026-04-19T08:44:04.187Z</time></trkpt><trkpt lat="43.6171734" lon="11.2379586"><ele>303.0</ele><time>2026-04-19T08:44:05.189Z</time></trkpt><trkpt lat="43.6171586" lon="11.2380509"><ele>303.0</ele><time>2026-04-19T08:44:06.172Z</time></trkpt><trkpt lat="43.6171503" lon="11.2381399"><ele>303.0</ele><time>2026-04-19T08:44:07.185Z</time></trkpt><trkpt lat="43.6171454" lon="11.2382388"><ele>303.0</ele><time>2026-04-19T08:44:08.186Z</time></trkpt><trkpt lat="43.6171384" lon="11.2383486"><ele>303.0</ele><time>2026-04-19T08:44:09.184Z</time></trkpt><trkpt lat="43.6171299" lon="11.2384559"><ele>303.0</ele><time>2026-04-19T08:44:10.177Z</time></trkpt><trkpt lat="43.6171164" lon="11.2385631"><ele>303.6</ele><time>2026-04-19T08:44:11.182Z</time></trkpt><trkpt lat="43.6171069" lon="11.2386844"><ele>304.20000000000005</ele><time>2026-04-19T08:44:12.166Z</time></trkpt><trkpt lat="43.617096" lon="11.2388001"><ele>304.8</ele><time>2026-04-19T08:44:13.178Z</time></trkpt><trkpt lat="43.6170895" lon="11.2389148"><ele>305.40000000000003</ele><time>2026-04-19T08:44:14.18Z</time></trkpt><trkpt lat="43.6170836" lon="11.2390431"><ele>306.0</ele><time>2026-04-19T08:44:15.182Z</time></trkpt><trkpt lat="43.6170697" lon="11.239184"><ele>306.2</ele><time>2026-04-19T08:44:16.177Z</time></trkpt><trkpt lat="43.6170546" lon="11.2393298"><ele>306.40000000000003</ele><time>2026-04-19T08:44:17.184Z</time></trkpt><trkpt lat="43.6170389" lon="11.2394713"><ele>306.6</ele><time>2026-04-19T08:44:18.18Z</time></trkpt><trkpt lat="43.6170239" lon="11.2396105"><ele>306.8</ele><time>2026-04-19T08:44:19.176Z</time></trkpt><trkpt lat="43.6170097" lon="11.2397454"><ele>307.0</ele><time>2026-04-19T08:44:20.169Z</time></trkpt><trkpt lat="43.6169923" lon="11.2398692"><ele>307.6</ele><time>2026-04-19T08:44:21.186Z</time></trkpt><trkpt lat="43.6169766" lon="11.2399908"><ele>308.2</ele><time>2026-04-19T08:44:22.177Z</time></trkpt><trkpt lat="43.6169555" lon="11.2401135"><ele>308.8</ele><time>2026-04-19T08:44:23.167Z</time></trkpt><trkpt lat="43.6169323" lon="11.2402436"><ele>309.4</ele><time>2026-04-19T08:44:24.179Z</time></trkpt><trkpt lat="43.6168942" lon="11.2403699"><ele>310.0</ele><time>2026-04-19T08:44:25.175Z</time></trkpt><trkpt lat="43.6168427" lon="11.2404921"><ele>310.0</ele><time>2026-04-19T08:44:26.161Z</time></trkpt><trkpt lat="43.6167836" lon="11.2406162"><ele>310.0</ele><time>2026-04-19T08:44:27.176Z</time></trkpt><trkpt lat="43.6167166" lon="11.240739"><ele>310.0</ele><time>2026-04-19T08:44:28.188Z</time></trkpt><trkpt lat="43.6166454" lon="11.2408664"><ele>310.0</ele><time>2026-04-19T08:44:29.179Z</time></trkpt><trkpt lat="43.6165699" lon="11.2410032"><ele>310.25</ele><time>2026-04-19T08:44:30.174Z</time></trkpt><trkpt lat="43.6164869" lon="11.2411407"><ele>310.5</ele><time>2026-04-19T08:44:31.185Z</time></trkpt><trkpt lat="43.616416" lon="11.2412738"><ele>310.75</ele><time>2026-04-19T08:44:32.187Z</time></trkpt><trkpt lat="43.6163464" lon="11.2413971"><ele>311.0</ele><time>2026-04-19T08:44:33.175Z</time></trkpt><trkpt lat="43.6162708" lon="11.2415163"><ele>311.25</ele><time>2026-04-19T08:44:34.172Z</time></trkpt><trkpt lat="43.6161936" lon="11.241636"><ele>311.5</ele><time>2026-04-19T08:44:35.184Z</time></trkpt><trkpt lat="43.6161198" lon="11.2417559"><ele>311.75</ele><time>2026-04-19T08:44:36.179Z</time></trkpt><trkpt lat="43.6160488" lon="11.2418794"><ele>312.0</ele><time>2026-04-19T08:44:37.16Z</time></trkpt><trkpt lat="43.6159791" lon="11.2419961"><ele>312.0</ele><time>2026-04-19T08:44:38.176Z</time></trkpt><trkpt lat="43.6159146" lon="11.2421193"><ele>312.0</ele><time>2026-04-19T08:44:39.184Z</time></trkpt><trkpt lat="43.6158517" lon="11.2422285"><ele>312.0</ele><time>2026-04-19T08:44:40.192Z</time></trkpt><trkpt lat="43.6157935" lon="11.2423244"><ele>312.0</ele><time>2026-04-19T08:44:41.181Z</time></trkpt><trkpt lat="43.6157402" lon="11.2424092"><ele>312.0</ele><time>2026-04-19T08:44:42.177Z</time></trkpt><trkpt lat="43.6156999" lon="11.2424841"><ele>312.2</ele><time>2026-04-19T08:44:43.19Z</time></trkpt><trkpt lat="43.6156302" lon="11.2426029"><ele>312.4</ele><time>2026-04-19T08:44:45.188Z</time></trkpt><trkpt lat="43.6155641" lon="11.2426823"><ele>312.6</ele><time>2026-04-19T08:44:47.179Z</time></trkpt><trkpt lat="43.6154888" lon="11.2427075"><ele>312.8</ele><time>2026-04-19T08:44:49.19Z</time></trkpt><trkpt lat="43.6153721" lon="11.24264"><ele>313.0</ele><time>2026-04-19T08:44:51.178Z</time></trkpt><trkpt lat="43.6152867" lon="11.2425727"><ele>313.25</ele><time>2026-04-19T08:44:52.175Z</time></trkpt><trkpt lat="43.6151909" lon="11.2424859"><ele>313.5</ele><time>2026-04-19T08:44:53.158Z</time></trkpt><trkpt lat="43.6150959" lon="11.242389"><ele>313.75</ele><time>2026-04-19T08:44:54.176Z</time></trkpt><trkpt lat="43.6149839" lon="11.2422882"><ele>314.0</ele><time>2026-04-19T08:44:55.165Z</time></trkpt><trkpt lat="43.614862" lon="11.2421874"><ele>314.0</ele><time>2026-04-19T08:44:56.179Z</time></trkpt><trkpt lat="43.6147364" lon="11.2420895"><ele>314.0</ele><time>2026-04-19T08:44:57.171Z</time></trkpt><trkpt lat="43.6146157" lon="11.2419805"><ele>314.0</ele><time>2026-04-19T08:44:58.173Z</time></trkpt><trkpt lat="43.6144931" lon="11.2418795"><ele>314.0</ele><time>2026-04-19T08:44:59.16Z</time></trkpt><trkpt lat="43.6143706" lon="11.2417765"><ele>316.25</ele><time>2026-04-19T08:45:00.173Z</time></trkpt><trkpt lat="43.6142483" lon="11.2416743"><ele>318.5</ele><time>2026-04-19T08:45:01.176Z</time></trkpt><trkpt lat="43.6141213" lon="11.2415685"><ele>320.75</ele><time>2026-04-19T08:45:02.178Z</time></trkpt><trkpt lat="43.6139941" lon="11.2414639"><ele>323.0</ele><time>2026-04-19T08:45:03.184Z</time></trkpt><trkpt lat="43.6138651" lon="11.241357"><ele>323.0</ele><time>2026-04-19T08:45:04.18Z</time></trkpt><trkpt lat="43.6137366" lon="11.2412538"><ele>323.0</ele><time>2026-04-19T08:45:05.175Z</time></trkpt><trkpt lat="43.613618" lon="11.2411585"><ele>323.0</ele><time>2026-04-19T08:45:06.173Z</time></trkpt><trkpt lat="43.6135114" lon="11.2410698"><ele>323.0</ele><time>2026-04-19T08:45:07.182Z</time></trkpt><trkpt lat="43.6134133" lon="11.2409848"><ele>325.4</ele><time>2026-04-19T08:45:08.178Z</time></trkpt><trkpt lat="43.6133255" lon="11.240913"><ele>327.79999999999995</ele><time>2026-04-19T08:45:09.183Z</time></trkpt><trkpt lat="43.6132438" lon="11.2408504"><ele>330.2</ele><time>2026-04-19T08:45:10.183Z</time></trkpt><trkpt lat="43.6131617" lon="11.2407925"><ele>332.6</ele><time>2026-04-19T08:45:11.168Z</time></trkpt><trkpt lat="43.6130759" lon="11.2407352"><ele>335.0</ele><time>2026-04-19T08:45:12.162Z</time></trkpt><trkpt lat="43.612976" lon="11.2406849"><ele>335.0</ele><time>2026-04-19T08:45:13.177Z</time></trkpt><trkpt lat="43.6128735" lon="11.2406403"><ele>335.0</ele><time>2026-04-19T08:45:14.174Z</time></trkpt><trkpt lat="43.6127822" lon="11.2406022"><ele>335.0</ele><time>2026-04-19T08:45:15.18Z</time></trkpt><trkpt lat="43.6126979" lon="11.2405533"><ele>335.0</ele><time>2026-04-19T08:45:16.177Z</time></trkpt><trkpt lat="43.6126154" lon="11.2404872"><ele>335.0</ele><time>2026-04-19T08:45:17.159Z</time></trkpt><trkpt lat="43.6125165" lon="11.2403885"><ele>332.0</ele><time>2026-04-19T08:45:18.183Z</time></trkpt><trkpt lat="43.6123987" lon="11.2402444"><ele>329.0</ele><time>2026-04-19T08:45:19.182Z</time></trkpt><trkpt lat="43.6122668" lon="11.2400915"><ele>326.0</ele><time>2026-04-19T08:45:20.175Z</time></trkpt><trkpt lat="43.6121254" lon="11.2399333"><ele>323.6666666666667</ele><time>2026-04-19T08:45:21.182Z</time></trkpt><trkpt lat="43.6119808" lon="11.2397723"><ele>321.3333333333333</ele><time>2026-04-19T08:45:22.187Z</time></trkpt><trkpt lat="43.6118416" lon="11.2395995"><ele>319.0</ele><time>2026-04-19T08:45:23.176Z</time></trkpt><trkpt lat="43.6117032" lon="11.2394316"><ele>319.0</ele><time>2026-04-19T08:45:24.172Z</time></trkpt><trkpt lat="43.6115716" lon="11.2392878"><ele>319.0</ele><time>2026-04-19T08:45:25.181Z</time></trkpt><trkpt lat="43.6114692" lon="11.2391714"><ele>319.0</ele><time>2026-04-19T08:45:26.176Z</time></trkpt><trkpt lat="43.6113862" lon="11.2390868"><ele>319.0</ele><time>2026-04-19T08:45:27.178Z</time></trkpt><trkpt lat="43.6113069" lon="11.2390299"><ele>319.0</ele><time>2026-04-19T08:45:28.162Z</time></trkpt><trkpt lat="43.6112178" lon="11.2390044"><ele>319.0</ele><time>2026-04-19T08:45:29.159Z</time></trkpt><trkpt lat="43.611126" lon="11.2390143"><ele>319.0</ele><time>2026-04-19T08:45:30.172Z</time></trkpt><trkpt lat="43.6110513" lon="11.23903"><ele>319.0</ele><time>2026-04-19T08:45:31.169Z</time></trkpt><trkpt lat="43.610973" lon="11.2390666"><ele>319.0</ele><time>2026-04-19T08:45:33.182Z</time></trkpt><trkpt lat="43.6108808" lon="11.2390884"><ele>319.0</ele><time>2026-04-19T08:45:36.173Z</time></trkpt><trkpt lat="43.6108131" lon="11.2391161"><ele>321.4</ele><time>2026-04-19T08:45:38.17Z</time></trkpt><trkpt lat="43.6107457" lon="11.2391522"><ele>323.79999999999995</ele><time>2026-04-19T08:45:40.177Z</time></trkpt><trkpt lat="43.6106474" lon="11.2391829"><ele>326.20000000000005</ele><time>2026-04-19T08:45:42.178Z</time></trkpt><trkpt lat="43.610513" lon="11.239198"><ele>328.6</ele><time>2026-04-19T08:45:44.173Z</time></trkpt><trkpt lat="43.6104355" lon="11.2392126"><ele>331.0</ele><time>2026-04-19T08:45:45.183Z</time></trkpt><trkpt lat="43.6103569" lon="11.2392272"><ele>332.3333333333333</ele><time>2026-04-19T08:45:46.181Z</time></trkpt><trkpt lat="43.6102767" lon="11.2392528"><ele>333.66666666666663</ele><time>2026-04-19T08:45:47.184Z</time></trkpt><trkpt lat="43.6101973" lon="11.2392754"><ele>335.0</ele><time>2026-04-19T08:45:48.164Z</time></trkpt><trkpt lat="43.6101154" lon="11.2392968"><ele>336.3333333333333</ele><time>2026-04-19T08:45:49.18Z</time></trkpt><trkpt lat="43.6100471" lon="11.239311"><ele>337.6666666666667</ele><time>2026-04-19T08:45:50.177Z</time></trkpt><trkpt lat="43.6099357" lon="11.2393245"><ele>339.0</ele><time>2026-04-19T08:45:52.175Z</time></trkpt><trkpt lat="43.6098087" lon="11.239293"><ele>339.0</ele><time>2026-04-19T08:45:54.19Z</time></trkpt><trkpt lat="43.6097381" lon="11.2392577"><ele>339.0</ele><time>2026-04-19T08:45:55.18Z</time></trkpt><trkpt lat="43.6096646" lon="11.2392262"><ele>339.0</ele><time>2026-04-19T08:45:56.172Z</time></trkpt><trkpt lat="43.6095916" lon="11.2391821"><ele>339.0</ele><time>2026-04-19T08:45:57.189Z</time></trkpt><trkpt lat="43.6095228" lon="11.2391289"><ele>339.0</ele><time>2026-04-19T08:45:58.174Z</time></trkpt><trkpt lat="43.6094589" lon="11.2390797"><ele>339.0</ele><time>2026-04-19T08:45:59.187Z</time></trkpt><trkpt lat="43.6094007" lon="11.2390386"><ele>339.0</ele><time>2026-04-19T08:46:00.18Z</time></trkpt><trkpt lat="43.6092988" lon="11.2389464"><ele>339.3333333333333</ele><time>2026-04-19T08:46:02.178Z</time></trkpt><trkpt lat="43.6092456" lon="11.2388879"><ele>339.6666666666667</ele><time>2026-04-19T08:46:03.155Z</time></trkpt><trkpt lat="43.609181" lon="11.2388396"><ele>340.0</ele><time>2026-04-19T08:46:04.172Z</time></trkpt><trkpt lat="43.6091246" lon="11.2387898"><ele>340.33333333333337</ele><time>2026-04-19T08:46:05.168Z</time></trkpt><trkpt lat="43.6090253" lon="11.2387066"><ele>340.6666666666667</ele><time>2026-04-19T08:46:07.177Z</time></trkpt><trkpt lat="43.6089689" lon="11.2386676"><ele>341.0</ele><time>2026-04-19T08:46:08.17Z</time></trkpt><trkpt lat="43.6089072" lon="11.2386307"><ele>341.0</ele><time>2026-04-19T08:46:09.164Z</time></trkpt><trkpt lat="43.6088333" lon="11.2385987"><ele>341.0</ele><time>2026-04-19T08:46:10.18Z</time></trkpt><trkpt lat="43.6087602" lon="11.2385755"><ele>341.0</ele><time>2026-04-19T08:46:11.158Z</time></trkpt><trkpt lat="43.6086904" lon="11.2385522"><ele>341.0</ele><time>2026-04-19T08:46:12.173Z</time></trkpt><trkpt lat="43.608622" lon="11.238528"><ele>341.0</ele><time>2026-04-19T08:46:13.173Z</time></trkpt><trkpt lat="43.6084934" lon="11.2384968"><ele>341.0</ele><time>2026-04-19T08:46:15.179Z</time></trkpt><trkpt lat="43.6084055" lon="11.2384668"><ele>341.4</ele><time>2026-04-19T08:46:16.18Z</time></trkpt><trkpt lat="43.6083193" lon="11.238446"><ele>341.8</ele><time>2026-04-19T08:46:17.176Z</time></trkpt><trkpt lat="43.6082296" lon="11.2384192"><ele>342.2</ele><time>2026-04-19T08:46:18.17Z</time></trkpt><trkpt lat="43.6081444" lon="11.2383774"><ele>342.59999999999997</ele><time>2026-04-19T08:46:19.171Z</time></trkpt><trkpt lat="43.6080597" lon="11.2383259"><ele>343.0</ele><time>2026-04-19T08:46:20.174Z</time></trkpt><trkpt lat="43.6079755" lon="11.2382459"><ele>343.0</ele><time>2026-04-19T08:46:21.184Z</time></trkpt><trkpt lat="43.6078903" lon="11.2381357"><ele>343.0</ele><time>2026-04-19T08:46:22.17Z</time></trkpt><trkpt lat="43.6078029" lon="11.2380291"><ele>343.0</ele><time>2026-04-19T08:46:23.172Z</time></trkpt><trkpt lat="43.6077153" lon="11.2379282"><ele>343.0</ele><time>2026-04-19T08:46:24.174Z</time></trkpt><trkpt lat="43.6076289" lon="11.2378286"><ele>341.2</ele><time>2026-04-19T08:46:25.179Z</time></trkpt><trkpt lat="43.607546" lon="11.2377318"><ele>339.4</ele><time>2026-04-19T08:46:26.17Z</time></trkpt><trkpt lat="43.6074622" lon="11.237641"><ele>337.59999999999997</ele><time>2026-04-19T08:46:27.18Z</time></trkpt><trkpt lat="43.6073789" lon="11.2375446"><ele>335.79999999999995</ele><time>2026-04-19T08:46:28.17Z</time></trkpt><trkpt lat="43.6072924" lon="11.2374516"><ele>334.0</ele><time>2026-04-19T08:46:29.175Z</time></trkpt><trkpt lat="43.6071989" lon="11.2373653"><ele>335.0</ele><time>2026-04-19T08:46:30.178Z</time></trkpt><trkpt lat="43.6071013" lon="11.2372808"><ele>336.0</ele><time>2026-04-19T08:46:31.168Z</time></trkpt><trkpt lat="43.6069986" lon="11.2372004"><ele>337.0</ele><time>2026-04-19T08:46:32.178Z</time></trkpt><trkpt lat="43.6068974" lon="11.2370946"><ele>338.0</ele><time>2026-04-19T08:46:33.172Z</time></trkpt><trkpt lat="43.6068077" lon="11.2369661"><ele>334.0</ele><time>2026-04-19T08:46:34.17Z</time></trkpt><trkpt lat="43.6067189" lon="11.2368351"><ele>330.0</ele><time>2026-04-19T08:46:35.168Z</time></trkpt><trkpt lat="43.606635" lon="11.2367045"><ele>326.0</ele><time>2026-04-19T08:46:36.178Z</time></trkpt><trkpt lat="43.6065511" lon="11.2365804"><ele>322.0</ele><time>2026-04-19T08:46:37.177Z</time></trkpt><trkpt lat="43.6064649" lon="11.236469"><ele>321.40000000000003</ele><time>2026-04-19T08:46:38.177Z</time></trkpt><trkpt lat="43.6063886" lon="11.2363628"><ele>320.8</ele><time>2026-04-19T08:46:39.176Z</time></trkpt><trkpt lat="43.6063216" lon="11.2362654"><ele>320.2</ele><time>2026-04-19T08:46:40.167Z</time></trkpt><trkpt lat="43.6062603" lon="11.2361634"><ele>319.6</ele><time>2026-04-19T08:46:41.175Z</time></trkpt><trkpt lat="43.6061984" lon="11.2360456"><ele>319.0</ele><time>2026-04-19T08:46:42.177Z</time></trkpt><trkpt lat="43.6061351" lon="11.2359144"><ele>319.0</ele><time>2026-04-19T08:46:43.157Z</time></trkpt><trkpt lat="43.6060766" lon="11.2357852"><ele>319.0</ele><time>2026-04-19T08:46:44.176Z</time></trkpt><trkpt lat="43.6060167" lon="11.2356675"><ele>319.0</ele><time>2026-04-19T08:46:45.192Z</time></trkpt><trkpt lat="43.6059636" lon="11.2355462"><ele>319.0</ele><time>2026-04-19T08:46:46.175Z</time></trkpt><trkpt lat="43.6059083" lon="11.2354473"><ele>319.0</ele><time>2026-04-19T08:46:47.17Z</time></trkpt><trkpt lat="43.6058603" lon="11.2353736"><ele>318.8</ele><time>2026-04-19T08:46:48.168Z</time></trkpt><trkpt lat="43.6057796" lon="11.2352668"><ele>318.59999999999997</ele><time>2026-04-19T08:46:50.186Z</time></trkpt><trkpt lat="43.6056941" lon="11.2351756"><ele>318.4</ele><time>2026-04-19T08:46:52.189Z</time></trkpt><trkpt lat="43.6055824" lon="11.2351174"><ele>318.2</ele><time>2026-04-19T08:46:54.173Z</time></trkpt><trkpt lat="43.6055146" lon="11.2350994"><ele>318.0</ele><time>2026-04-19T08:46:55.176Z</time></trkpt><trkpt lat="43.6054438" lon="11.2350882"><ele>318.0</ele><time>2026-04-19T08:46:56.154Z</time></trkpt><trkpt lat="43.6053628" lon="11.2350875"><ele>318.0</ele><time>2026-04-19T08:46:57.178Z</time></trkpt><trkpt lat="43.605279" lon="11.235087"><ele>318.0</ele><time>2026-04-19T08:46:58.175Z</time></trkpt><trkpt lat="43.6052043" lon="11.2350888"><ele>318.0</ele><time>2026-04-19T08:46:59.157Z</time></trkpt><trkpt lat="43.6051058" lon="11.2350896"><ele>318.0</ele><time>2026-04-19T08:47:01.178Z</time></trkpt><trkpt lat="43.6050276" lon="11.2351007"><ele>318.0</ele><time>2026-04-19T08:47:03.178Z</time></trkpt><trkpt lat="43.6049619" lon="11.2351955"><ele>320.4</ele><time>2026-04-19T08:47:05.179Z</time></trkpt><trkpt lat="43.6049004" lon="11.2353477"><ele>322.8</ele><time>2026-04-19T08:47:07.184Z</time></trkpt><trkpt lat="43.6048625" lon="11.2354558"><ele>325.2</ele><time>2026-04-19T08:47:08.169Z</time></trkpt><trkpt lat="43.6048217" lon="11.2355716"><ele>327.6</ele><time>2026-04-19T08:47:09.171Z</time></trkpt><trkpt lat="43.6047857" lon="11.2356895"><ele>330.0</ele><time>2026-04-19T08:47:10.183Z</time></trkpt><trkpt lat="43.6047475" lon="11.2358193"><ele>331.25</ele><time>2026-04-19T08:47:11.179Z</time></trkpt><trkpt lat="43.6047077" lon="11.2359551"><ele>332.5</ele><time>2026-04-19T08:47:12.176Z</time></trkpt><trkpt lat="43.6046636" lon="11.2360999"><ele>333.75</ele><time>2026-04-19T08:47:13.175Z</time></trkpt><trkpt lat="43.6046167" lon="11.2362503"><ele>335.0</ele><time>2026-04-19T08:47:14.159Z</time></trkpt><trkpt lat="43.6045674" lon="11.2363925"><ele>335.2</ele><time>2026-04-19T08:47:15.176Z</time></trkpt><trkpt lat="43.6045208" lon="11.2365279"><ele>335.4</ele><time>2026-04-19T08:47:16.177Z</time></trkpt><trkpt lat="43.6044768" lon="11.236647"><ele>335.6</ele><time>2026-04-19T08:47:17.191Z</time></trkpt><trkpt lat="43.6044401" lon="11.236744"><ele>335.8</ele><time>2026-04-19T08:47:18.168Z</time></trkpt><trkpt lat="43.6044116" lon="11.2368248"><ele>336.0</ele><time>2026-04-19T08:47:19.173Z</time></trkpt><trkpt lat="43.6043575" lon="11.2369769"><ele>336.85714285714283</ele><time>2026-04-19T08:47:21.178Z</time></trkpt><trkpt lat="43.6043287" lon="11.2370547"><ele>337.7142857142857</ele><time>2026-04-19T08:47:22.176Z</time></trkpt><trkpt lat="43.604299" lon="11.2371418"><ele>338.57142857142856</ele><time>2026-04-19T08:47:23.192Z</time></trkpt><trkpt lat="43.6042652" lon="11.2372254"><ele>339.42857142857144</ele><time>2026-04-19T08:47:24.184Z</time></trkpt><trkpt lat="43.6042325" lon="11.2373197"><ele>340.2857142857143</ele><time>2026-04-19T08:47:25.158Z</time></trkpt><trkpt lat="43.6041958" lon="11.2374165"><ele>341.1428571428571</ele><time>2026-04-19T08:47:26.158Z</time></trkpt><trkpt lat="43.6041612" lon="11.2375132"><ele>342.0</ele><time>2026-04-19T08:47:27.175Z</time></trkpt><trkpt lat="43.6041266" lon="11.2376049"><ele>343.0</ele><time>2026-04-19T08:47:28.172Z</time></trkpt><trkpt lat="43.6040901" lon="11.2377025"><ele>344.0</ele><time>2026-04-19T08:47:29.184Z</time></trkpt><trkpt lat="43.6040491" lon="11.2378027"><ele>345.0</ele><time>2026-04-19T08:47:30.166Z</time></trkpt><trkpt lat="43.6040089" lon="11.2378985"><ele>346.0</ele><time>2026-04-19T08:47:31.157Z</time></trkpt><trkpt lat="43.6039692" lon="11.237996"><ele>347.0</ele><time>2026-04-19T08:47:32.172Z</time></trkpt><trkpt lat="43.6039286" lon="11.2381031"><ele>348.0</ele><time>2026-04-19T08:47:33.159Z</time></trkpt><trkpt lat="43.6038872" lon="11.2382122"><ele>349.59999999999997</ele><time>2026-04-19T08:47:34.155Z</time></trkpt><trkpt lat="43.6038574" lon="11.2383452"><ele>351.2</ele><time>2026-04-19T08:47:35.155Z</time></trkpt><trkpt lat="43.6038488" lon="11.2384763"><ele>352.8</ele><time>2026-04-19T08:47:36.155Z</time></trkpt><trkpt lat="43.6038455" lon="11.238629"><ele>354.4</ele><time>2026-04-19T08:47:37.163Z</time></trkpt><trkpt lat="43.6038403" lon="11.2387709"><ele>356.0</ele><time>2026-04-19T08:47:38.155Z</time></trkpt><trkpt lat="43.6038296" lon="11.2389075"><ele>357.20000000000005</ele><time>2026-04-19T08:47:39.164Z</time></trkpt><trkpt lat="43.6038133" lon="11.2390371"><ele>358.40000000000003</ele><time>2026-04-19T08:47:40.156Z</time></trkpt><trkpt lat="43.6037952" lon="11.2391719"><ele>359.6</ele><time>2026-04-19T08:47:41.163Z</time></trkpt><trkpt lat="43.6037792" lon="11.2393033"><ele>360.8</ele><time>2026-04-19T08:47:42.158Z</time></trkpt><trkpt lat="43.6037625" lon="11.2394299"><ele>362.0</ele><time>2026-04-19T08:47:43.165Z</time></trkpt><trkpt lat="43.6037489" lon="11.2395568"><ele>362.0</ele><time>2026-04-19T08:47:44.163Z</time></trkpt><trkpt lat="43.6037427" lon="11.2396933"><ele>362.0</ele><time>2026-04-19T08:47:45.161Z</time></trkpt><trkpt lat="43.6037333" lon="11.2398226"><ele>362.0</ele><time>2026-04-19T08:47:46.165Z</time></trkpt><trkpt lat="43.6037268" lon="11.2399624"><ele>362.0</ele><time>2026-04-19T08:47:47.168Z</time></trkpt><trkpt lat="43.6037204" lon="11.2401041"><ele>362.0</ele><time>2026-04-19T08:47:48.176Z</time></trkpt><trkpt lat="43.6037126" lon="11.2402461"><ele>362.8</ele><time>2026-04-19T08:47:49.179Z</time></trkpt><trkpt lat="43.6037078" lon="11.2403925"><ele>363.6</ele><time>2026-04-19T08:47:50.171Z</time></trkpt><trkpt lat="43.6037027" lon="11.2405395"><ele>364.40000000000003</ele><time>2026-04-19T08:47:51.176Z</time></trkpt><trkpt lat="43.6036932" lon="11.2406906"><ele>365.20000000000005</ele><time>2026-04-19T08:47:52.166Z</time></trkpt><trkpt lat="43.6036875" lon="11.2408294"><ele>366.0</ele><time>2026-04-19T08:47:53.171Z</time></trkpt><trkpt lat="43.6036838" lon="11.2409617"><ele>367.4</ele><time>2026-04-19T08:47:54.168Z</time></trkpt><trkpt lat="43.6036864" lon="11.2411008"><ele>368.8</ele><time>2026-04-19T08:47:55.173Z</time></trkpt><trkpt lat="43.603691" lon="11.2412428"><ele>370.2</ele><time>2026-04-19T08:47:56.169Z</time></trkpt><trkpt lat="43.6036856" lon="11.2413916"><ele>371.59999999999997</ele><time>2026-04-19T08:47:57.155Z</time></trkpt><trkpt lat="43.6036784" lon="11.2415384"><ele>373.0</ele><time>2026-04-19T08:47:58.18Z</time></trkpt><trkpt lat="43.6036704" lon="11.241681"><ele>374.8333333333333</ele><time>2026-04-19T08:47:59.176Z</time></trkpt><trkpt lat="43.6036616" lon="11.2418143"><ele>376.66666666666663</ele><time>2026-04-19T08:48:00.17Z</time></trkpt><trkpt lat="43.6036537" lon="11.2419405"><ele>378.5</ele><time>2026-04-19T08:48:01.17Z</time></trkpt><trkpt lat="43.6036445" lon="11.2420611"><ele>380.3333333333333</ele><time>2026-04-19T08:48:02.173Z</time></trkpt><trkpt lat="43.6036264" lon="11.2421529"><ele>382.1666666666667</ele><time>2026-04-19T08:48:03.155Z</time></trkpt><trkpt lat="43.6035892" lon="11.2422299"><ele>384.0</ele><time>2026-04-19T08:48:04.172Z</time></trkpt><trkpt lat="43.60353" lon="11.2422787"><ele>384.0</ele><time>2026-04-19T08:48:05.171Z</time></trkpt><trkpt lat="43.603464" lon="11.2422962"><ele>384.0</ele><time>2026-04-19T08:48:06.172Z</time></trkpt><trkpt lat="43.6033973" lon="11.2422796"><ele>384.0</ele><time>2026-04-19T08:48:07.184Z</time></trkpt><trkpt lat="43.6033215" lon="11.2422434"><ele>384.0</ele><time>2026-04-19T08:48:08.156Z</time></trkpt><trkpt lat="43.6032382" lon="11.2421974"><ele>384.0</ele><time>2026-04-19T08:48:09.172Z</time></trkpt><trkpt lat="43.6031545" lon="11.2421483"><ele>384.0</ele><time>2026-04-19T08:48:10.16Z</time></trkpt><trkpt lat="43.6030732" lon="11.2421021"><ele>384.0</ele><time>2026-04-19T08:48:11.162Z</time></trkpt><trkpt lat="43.6029888" lon="11.2420587"><ele>384.0</ele><time>2026-04-19T08:48:12.156Z</time></trkpt><trkpt lat="43.6029022" lon="11.2420193"><ele>384.0</ele><time>2026-04-19T08:48:13.166Z</time></trkpt><trkpt lat="43.602811" lon="11.2419784"><ele>384.0</ele><time>2026-04-19T08:48:14.153Z</time></trkpt><trkpt lat="43.6027213" lon="11.2419381"><ele>384.0</ele><time>2026-04-19T08:48:15.158Z</time></trkpt><trkpt lat="43.602627" lon="11.2418974"><ele>383.6</ele><time>2026-04-19T08:48:16.165Z</time></trkpt><trkpt lat="43.6025304" lon="11.2418582"><ele>383.2</ele><time>2026-04-19T08:48:17.157Z</time></trkpt><trkpt lat="43.6024388" lon="11.2418223"><ele>382.8</ele><time>2026-04-19T08:48:18.185Z</time></trkpt><trkpt lat="43.6023477" lon="11.2417893"><ele>382.40000000000003</ele><time>2026-04-19T08:48:19.157Z</time></trkpt><trkpt lat="43.6022553" lon="11.2417575"><ele>382.0</ele><time>2026-04-19T08:48:20.183Z</time></trkpt><trkpt lat="43.6021646" lon="11.2417261"><ele>382.0</ele><time>2026-04-19T08:48:21.175Z</time></trkpt><trkpt lat="43.6020798" lon="11.241701"><ele>382.0</ele><time>2026-04-19T08:48:22.181Z</time></trkpt><trkpt lat="43.6019967" lon="11.2416821"><ele>382.0</ele><time>2026-04-19T08:48:23.176Z</time></trkpt><trkpt lat="43.6019107" lon="11.2416653"><ele>382.0</ele><time>2026-04-19T08:48:24.18Z</time></trkpt><trkpt lat="43.6018268" lon="11.2416526"><ele>382.0</ele><time>2026-04-19T08:48:25.167Z</time></trkpt><trkpt lat="43.6017339" lon="11.241648"><ele>382.0</ele><time>2026-04-19T08:48:26.173Z</time></trkpt><trkpt lat="43.6016402" lon="11.2416568"><ele>383.0</ele><time>2026-04-19T08:48:27.166Z</time></trkpt><trkpt lat="43.6015599" lon="11.2416602"><ele>384.0</ele><time>2026-04-19T08:48:28.183Z</time></trkpt><trkpt lat="43.601492" lon="11.241665"><ele>385.0</ele><time>2026-04-19T08:48:29.187Z</time></trkpt><trkpt lat="43.6013799" lon="11.2417007"><ele>386.0</ele><time>2026-04-19T08:48:31.175Z</time></trkpt><trkpt lat="43.6012907" lon="11.2417885"><ele>387.0</ele><time>2026-04-19T08:48:33.17Z</time></trkpt><trkpt lat="43.6012394" lon="11.2419616"><ele>387.0</ele><time>2026-04-19T08:48:35.174Z</time></trkpt><trkpt lat="43.6012249" lon="11.2420649"><ele>387.0</ele><time>2026-04-19T08:48:36.178Z</time></trkpt><trkpt lat="43.6012035" lon="11.2421819"><ele>387.0</ele><time>2026-04-19T08:48:37.177Z</time></trkpt><trkpt lat="43.6011829" lon="11.2423212"><ele>387.0</ele><time>2026-04-19T08:48:38.182Z</time></trkpt><trkpt lat="43.6011589" lon="11.2424475"><ele>387.0</ele><time>2026-04-19T08:48:39.177Z</time></trkpt><trkpt lat="43.6011398" lon="11.2425703"><ele>386.5</ele><time>2026-04-19T08:48:40.173Z</time></trkpt><trkpt lat="43.60113" lon="11.2426885"><ele>386.0</ele><time>2026-04-19T08:48:41.178Z</time></trkpt><trkpt lat="43.6011314" lon="11.2428126"><ele>385.5</ele><time>2026-04-19T08:48:42.172Z</time></trkpt><trkpt lat="43.6011487" lon="11.2429227"><ele>385.0</ele><time>2026-04-19T08:48:43.18Z</time></trkpt><trkpt lat="43.6011821" lon="11.2430042"><ele>384.5</ele><time>2026-04-19T08:48:44.177Z</time></trkpt><trkpt lat="43.6012232" lon="11.2430737"><ele>384.0</ele><time>2026-04-19T08:48:45.158Z</time></trkpt><trkpt lat="43.6012743" lon="11.2431417"><ele>386.4285714285714</ele><time>2026-04-19T08:48:46.172Z</time></trkpt><trkpt lat="43.6013312" lon="11.2432047"><ele>388.85714285714283</ele><time>2026-04-19T08:48:47.161Z</time></trkpt><trkpt lat="43.601382" lon="11.2432777"><ele>391.2857142857143</ele><time>2026-04-19T08:48:48.172Z</time></trkpt><trkpt lat="43.6014298" lon="11.2433494"><ele>393.71428571428567</ele><time>2026-04-19T08:48:49.159Z</time></trkpt><trkpt lat="43.6014799" lon="11.2434242"><ele>396.14285714285717</ele><time>2026-04-19T08:48:50.176Z</time></trkpt><trkpt lat="43.6015256" lon="11.2434982"><ele>398.57142857142856</ele><time>2026-04-19T08:48:51.176Z</time></trkpt><trkpt lat="43.6015704" lon="11.2435871"><ele>401.0</ele><time>2026-04-19T08:48:52.174Z</time></trkpt><trkpt lat="43.6016168" lon="11.2436796"><ele>400.99999999999994</ele><time>2026-04-19T08:48:53.192Z</time></trkpt><trkpt lat="43.6016669" lon="11.2437618"><ele>401.0</ele><time>2026-04-19T08:48:54.166Z</time></trkpt><trkpt lat="43.6017235" lon="11.2438305"><ele>401.0</ele><time>2026-04-19T08:48:55.179Z</time></trkpt><trkpt lat="43.6017769" lon="11.2439041"><ele>401.0</ele><time>2026-04-19T08:48:56.174Z</time></trkpt><trkpt lat="43.6018204" lon="11.2439806"><ele>400.99999999999994</ele><time>2026-04-19T08:48:57.18Z</time></trkpt><trkpt lat="43.6018555" lon="11.2440533"><ele>401.0</ele><time>2026-04-19T08:48:58.183Z</time></trkpt><trkpt lat="43.6018788" lon="11.2441856"><ele>402.49999999999994</ele><time>2026-04-19T08:49:00.173Z</time></trkpt><trkpt lat="43.6018152" lon="11.2442857"><ele>404.0</ele><time>2026-04-19T08:49:02.178Z</time></trkpt><trkpt lat="43.6017177" lon="11.2443716"><ele>405.5</ele><time>2026-04-19T08:49:04.173Z</time></trkpt><trkpt lat="43.6016552" lon="11.244412"><ele>407.0</ele><time>2026-04-19T08:49:05.179Z</time></trkpt><trkpt lat="43.6015856" lon="11.2444619"><ele>408.49999999999994</ele><time>2026-04-19T08:49:06.179Z</time></trkpt><trkpt lat="43.6015086" lon="11.2445139"><ele>410.0</ele><time>2026-04-19T08:49:07.175Z</time></trkpt><trkpt lat="43.6014337" lon="11.2445684"><ele>410.0</ele><time>2026-04-19T08:49:08.175Z</time></trkpt><trkpt lat="43.6013544" lon="11.2446217"><ele>410.0</ele><time>2026-04-19T08:49:09.174Z</time></trkpt><trkpt lat="43.6012686" lon="11.2446839"><ele>410.0</ele><time>2026-04-19T08:49:10.161Z</time></trkpt><trkpt lat="43.60118" lon="11.2447465"><ele>410.0</ele><time>2026-04-19T08:49:11.183Z</time></trkpt><trkpt lat="43.6010897" lon="11.2448113"><ele>410.0</ele><time>2026-04-19T08:49:12.173Z</time></trkpt><trkpt lat="43.6009981" lon="11.2448862"><ele>407.6</ele><time>2026-04-19T08:49:13.167Z</time></trkpt><trkpt lat="43.6009057" lon="11.2449679"><ele>405.2</ele><time>2026-04-19T08:49:14.186Z</time></trkpt><trkpt lat="43.6008163" lon="11.2450418"><ele>402.79999999999995</ele><time>2026-04-19T08:49:15.17Z</time></trkpt><trkpt lat="43.6007231" lon="11.2451198"><ele>400.4</ele><time>2026-04-19T08:49:16.181Z</time></trkpt><trkpt lat="43.6006345" lon="11.2451959"><ele>398.0</ele><time>2026-04-19T08:49:17.178Z</time></trkpt><trkpt lat="43.6005575" lon="11.2452636"><ele>398.0</ele><time>2026-04-19T08:49:18.186Z</time></trkpt><trkpt lat="43.6004865" lon="11.2453198"><ele>398.0</ele><time>2026-04-19T08:49:19.18Z</time></trkpt><trkpt lat="43.6004268" lon="11.245374"><ele>398.0</ele><time>2026-04-19T08:49:20.176Z</time></trkpt><trkpt lat="43.6003359" lon="11.2454585"><ele>398.0</ele><time>2026-04-19T08:49:22.186Z</time></trkpt><trkpt lat="43.6002544" lon="11.2455401"><ele>398.0</ele><time>2026-04-19T08:49:24.176Z</time></trkpt><trkpt lat="43.6001692" lon="11.2456599"><ele>397.4</ele><time>2026-04-19T08:49:26.174Z</time></trkpt><trkpt lat="43.6000739" lon="11.2457595"><ele>396.79999999999995</ele><time>2026-04-19T08:49:28.185Z</time></trkpt><trkpt lat="43.6000116" lon="11.2458263"><ele>396.2</ele><time>2026-04-19T08:49:29.175Z</time></trkpt><trkpt lat="43.5999418" lon="11.2459149"><ele>395.6</ele><time>2026-04-19T08:49:30.179Z</time></trkpt><trkpt lat="43.5998717" lon="11.2460119"><ele>395.0</ele><time>2026-04-19T08:49:31.159Z</time></trkpt><trkpt lat="43.5997899" lon="11.2461219"><ele>395.0</ele><time>2026-04-19T08:49:32.181Z</time></trkpt><trkpt lat="43.5996869" lon="11.2462223"><ele>395.0</ele><time>2026-04-19T08:49:33.184Z</time></trkpt><trkpt lat="43.5995836" lon="11.2463276"><ele>395.0</ele><time>2026-04-19T08:49:34.188Z</time></trkpt><trkpt lat="43.5994803" lon="11.2464296"><ele>395.0</ele><time>2026-04-19T08:49:35.175Z</time></trkpt><trkpt lat="43.5993806" lon="11.2465296"><ele>390.4</ele><time>2026-04-19T08:49:36.174Z</time></trkpt><trkpt lat="43.599283" lon="11.2466217"><ele>385.8</ele><time>2026-04-19T08:49:37.172Z</time></trkpt><trkpt lat="43.5991927" lon="11.2467076"><ele>381.20000000000005</ele><time>2026-04-19T08:49:38.164Z</time></trkpt><trkpt lat="43.5991047" lon="11.2467958"><ele>376.6</ele><time>2026-04-19T08:49:39.183Z</time></trkpt><trkpt lat="43.5990204" lon="11.2468727"><ele>372.0</ele><time>2026-04-19T08:49:40.177Z</time></trkpt><trkpt lat="43.598947" lon="11.2469388"><ele>372.0</ele><time>2026-04-19T08:49:41.174Z</time></trkpt><trkpt lat="43.5988806" lon="11.2469902"><ele>372.0</ele><time>2026-04-19T08:49:42.183Z</time></trkpt><trkpt lat="43.5988269" lon="11.2470385"><ele>372.0</ele><time>2026-04-19T08:49:43.184Z</time></trkpt><trkpt lat="43.5987282" lon="11.2470818"><ele>372.0</ele><time>2026-04-19T08:49:45.159Z</time></trkpt><trkpt lat="43.5986426" lon="11.2470425"><ele>372.0</ele><time>2026-04-19T08:49:47.18Z</time></trkpt><trkpt lat="43.5985664" lon="11.2468909"><ele>369.6</ele><time>2026-04-19T08:49:49.185Z</time></trkpt><trkpt lat="43.5985233" lon="11.2468045"><ele>367.20000000000005</ele><time>2026-04-19T08:49:50.174Z</time></trkpt><trkpt lat="43.5984582" lon="11.2467298"><ele>364.8</ele><time>2026-04-19T08:49:51.177Z</time></trkpt><trkpt lat="43.5983757" lon="11.2466835"><ele>362.4</ele><time>2026-04-19T08:49:52.186Z</time></trkpt><trkpt lat="43.5982825" lon="11.2466477"><ele>360.0</ele><time>2026-04-19T08:49:53.182Z</time></trkpt><trkpt lat="43.5981641" lon="11.2466192"><ele>360.0</ele><time>2026-04-19T08:49:54.179Z</time></trkpt><trkpt lat="43.5980192" lon="11.2465964"><ele>360.0</ele><time>2026-04-19T08:49:55.175Z</time></trkpt><trkpt lat="43.5978762" lon="11.2465715"><ele>360.0</ele><time>2026-04-19T08:49:56.18Z</time></trkpt><trkpt lat="43.5977339" lon="11.246539"><ele>360.0</ele><time>2026-04-19T08:49:57.18Z</time></trkpt><trkpt lat="43.5975938" lon="11.2465015"><ele>358.5</ele><time>2026-04-19T08:49:58.18Z</time></trkpt><trkpt lat="43.5974529" lon="11.2464717"><ele>357.0</ele><time>2026-04-19T08:49:59.158Z</time></trkpt><trkpt lat="43.5973159" lon="11.2464656"><ele>355.5</ele><time>2026-04-19T08:50:00.179Z</time></trkpt><trkpt lat="43.597173" lon="11.2464779"><ele>354.0</ele><time>2026-04-19T08:50:01.186Z</time></trkpt><trkpt lat="43.5970303" lon="11.2465142"><ele>354.25</ele><time>2026-04-19T08:50:02.155Z</time></trkpt><trkpt lat="43.5969014" lon="11.2465506"><ele>354.5</ele><time>2026-04-19T08:50:03.185Z</time></trkpt><trkpt lat="43.5967846" lon="11.2465959"><ele>354.75</ele><time>2026-04-19T08:50:04.18Z</time></trkpt><trkpt lat="43.5966769" lon="11.2466394"><ele>355.0</ele><time>2026-04-19T08:50:05.179Z</time></trkpt><trkpt lat="43.5965661" lon="11.2466741"><ele>355.0</ele><time>2026-04-19T08:50:06.184Z</time></trkpt><trkpt lat="43.5964593" lon="11.2467056"><ele>355.0</ele><time>2026-04-19T08:50:07.174Z</time></trkpt><trkpt lat="43.5963492" lon="11.2467378"><ele>355.0</ele><time>2026-04-19T08:50:08.182Z</time></trkpt><trkpt lat="43.5962319" lon="11.246776"><ele>355.0</ele><time>2026-04-19T08:50:09.189Z</time></trkpt><trkpt lat="43.5961202" lon="11.2468047"><ele>356.0</ele><time>2026-04-19T08:50:10.183Z</time></trkpt><trkpt lat="43.5960129" lon="11.2468351"><ele>357.0</ele><time>2026-04-19T08:50:11.183Z</time></trkpt><trkpt lat="43.5959011" lon="11.2468643"><ele>358.0</ele><time>2026-04-19T08:50:12.172Z</time></trkpt><trkpt lat="43.5957854" lon="11.2469016"><ele>359.0</ele><time>2026-04-19T08:50:13.177Z</time></trkpt><trkpt lat="43.595678" lon="11.2469372"><ele>359.0</ele><time>2026-04-19T08:50:14.194Z</time></trkpt><trkpt lat="43.5955755" lon="11.2469715"><ele>359.0</ele><time>2026-04-19T08:50:15.188Z</time></trkpt><trkpt lat="43.5954921" lon="11.2469957"><ele>359.0</ele><time>2026-04-19T08:50:16.159Z</time></trkpt><trkpt lat="43.5953906" lon="11.2470062"><ele>359.0</ele><time>2026-04-19T08:50:18.173Z</time></trkpt><trkpt lat="43.5953131" lon="11.2469997"><ele>359.0</ele><time>2026-04-19T08:50:21.174Z</time></trkpt><trkpt lat="43.5952373" lon="11.2470157"><ele>359.0</ele><time>2026-04-19T08:50:23.16Z</time></trkpt><trkpt lat="43.5951319" lon="11.2471502"><ele>358.4</ele><time>2026-04-19T08:50:25.174Z</time></trkpt><trkpt lat="43.5950637" lon="11.2472394"><ele>357.79999999999995</ele><time>2026-04-19T08:50:26.156Z</time></trkpt><trkpt lat="43.5949857" lon="11.2473212"><ele>357.20000000000005</ele><time>2026-04-19T08:50:27.181Z</time></trkpt><trkpt lat="43.5948987" lon="11.2473968"><ele>356.6</ele><time>2026-04-19T08:50:28.176Z</time></trkpt><trkpt lat="43.5948073" lon="11.2474693"><ele>356.0</ele><time>2026-04-19T08:50:29.173Z</time></trkpt><trkpt lat="43.5947158" lon="11.2475252"><ele>357.4</ele><time>2026-04-19T08:50:30.173Z</time></trkpt><trkpt lat="43.594622" lon="11.2475713"><ele>358.8</ele><time>2026-04-19T08:50:31.178Z</time></trkpt><trkpt lat="43.5945295" lon="11.2475988"><ele>360.2</ele><time>2026-04-19T08:50:32.18Z</time></trkpt><trkpt lat="43.5944423" lon="11.2476155"><ele>361.59999999999997</ele><time>2026-04-19T08:50:33.192Z</time></trkpt><trkpt lat="43.5943577" lon="11.2476138"><ele>363.0</ele><time>2026-04-19T08:50:34.187Z</time></trkpt><trkpt lat="43.5942651" lon="11.2475755"><ele>363.0</ele><time>2026-04-19T08:50:35.183Z</time></trkpt><trkpt lat="43.5941562" lon="11.2475091"><ele>363.0</ele><time>2026-04-19T08:50:36.177Z</time></trkpt><trkpt lat="43.5940354" lon="11.2474379"><ele>363.0</ele><time>2026-04-19T08:50:37.177Z</time></trkpt><trkpt lat="43.593909" lon="11.2473648"><ele>363.0</ele><time>2026-04-19T08:50:38.172Z</time></trkpt><trkpt lat="43.5937801" lon="11.2473019"><ele>360.59999999999997</ele><time>2026-04-19T08:50:39.172Z</time></trkpt><trkpt lat="43.5936722" lon="11.2472472"><ele>358.2</ele><time>2026-04-19T08:50:40.157Z</time></trkpt><trkpt lat="43.5935693" lon="11.2471976"><ele>355.8</ele><time>2026-04-19T08:50:41.173Z</time></trkpt><trkpt lat="43.5934791" lon="11.2471592"><ele>353.4</ele><time>2026-04-19T08:50:42.174Z</time></trkpt><trkpt lat="43.5933945" lon="11.2471351"><ele>351.0</ele><time>2026-04-19T08:50:43.175Z</time></trkpt><trkpt lat="43.5933213" lon="11.2471335"><ele>351.0</ele><time>2026-04-19T08:50:44.18Z</time></trkpt><trkpt lat="43.5932472" lon="11.2471418"><ele>351.0</ele><time>2026-04-19T08:50:45.187Z</time></trkpt><trkpt lat="43.593183" lon="11.2471765"><ele>351.0</ele><time>2026-04-19T08:50:46.179Z</time></trkpt><trkpt lat="43.5931042" lon="11.2472941"><ele>351.0</ele><time>2026-04-19T08:50:48.176Z</time></trkpt><trkpt lat="43.5930983" lon="11.2474378"><ele>351.0</ele><time>2026-04-19T08:50:50.174Z</time></trkpt><trkpt lat="43.5931571" lon="11.2475531"><ele>354.0</ele><time>2026-04-19T08:50:52.175Z</time></trkpt><trkpt lat="43.5932294" lon="11.247629"><ele>357.0</ele><time>2026-04-19T08:50:54.179Z</time></trkpt><trkpt lat="43.5932678" lon="11.2477594"><ele>360.0</ele><time>2026-04-19T08:50:56.183Z</time></trkpt><trkpt lat="43.5932112" lon="11.2479057"><ele>363.0</ele><time>2026-04-19T08:50:58.172Z</time></trkpt><trkpt lat="43.5931582" lon="11.2479725"><ele>366.0</ele><time>2026-04-19T08:50:59.176Z</time></trkpt><trkpt lat="43.593104" lon="11.2480357"><ele>366.0</ele><time>2026-04-19T08:51:00.187Z</time></trkpt><trkpt lat="43.5930416" lon="11.2480926"><ele>366.0</ele><time>2026-04-19T08:51:01.181Z</time></trkpt><trkpt lat="43.5929829" lon="11.2481541"><ele>366.0</ele><time>2026-04-19T08:51:02.172Z</time></trkpt><trkpt lat="43.5929149" lon="11.24821"><ele>366.0</ele><time>2026-04-19T08:51:03.18Z</time></trkpt><trkpt lat="43.5928345" lon="11.2482696"><ele>366.0</ele><time>2026-04-19T08:51:04.19Z</time></trkpt><trkpt lat="43.5927479" lon="11.2483351"><ele>366.0</ele><time>2026-04-19T08:51:05.176Z</time></trkpt><trkpt lat="43.5926546" lon="11.2484017"><ele>370.0</ele><time>2026-04-19T08:51:06.183Z</time></trkpt><trkpt lat="43.5925568" lon="11.2484674"><ele>374.0</ele><time>2026-04-19T08:51:07.181Z</time></trkpt><trkpt lat="43.5924526" lon="11.2485322"><ele>378.0</ele><time>2026-04-19T08:51:08.179Z</time></trkpt><trkpt lat="43.5923426" lon="11.2485985"><ele>382.0</ele><time>2026-04-19T08:51:09.182Z</time></trkpt><trkpt lat="43.5922423" lon="11.2486576"><ele>382.0</ele><time>2026-04-19T08:51:10.175Z</time></trkpt><trkpt lat="43.5921449" lon="11.2487179"><ele>382.0</ele><time>2026-04-19T08:51:11.171Z</time></trkpt><trkpt lat="43.5920558" lon="11.2487573"><ele>382.0</ele><time>2026-04-19T08:51:12.177Z</time></trkpt><trkpt lat="43.5919804" lon="11.2487989"><ele>382.0</ele><time>2026-04-19T08:51:13.178Z</time></trkpt><trkpt lat="43.591866" lon="11.2488457"><ele>382.0</ele><time>2026-04-19T08:51:15.164Z</time></trkpt><trkpt lat="43.5917483" lon="11.2488792"><ele>382.5714285714286</ele><time>2026-04-19T08:51:17.187Z</time></trkpt><trkpt lat="43.5916816" lon="11.2488991"><ele>383.1428571428571</ele><time>2026-04-19T08:51:18.175Z</time></trkpt><trkpt lat="43.5916099" lon="11.2489174"><ele>383.7142857142857</ele><time>2026-04-19T08:51:19.171Z</time></trkpt><trkpt lat="43.5915295" lon="11.2489323"><ele>384.28571428571433</ele><time>2026-04-19T08:51:20.181Z</time></trkpt><trkpt lat="43.5914535" lon="11.2489453"><ele>384.8571428571429</ele><time>2026-04-19T08:51:21.185Z</time></trkpt><trkpt lat="43.5913798" lon="11.2489542"><ele>385.42857142857144</ele><time>2026-04-19T08:51:22.174Z</time></trkpt><trkpt lat="43.5913134" lon="11.2489808"><ele>386.0</ele><time>2026-04-19T08:51:23.183Z</time></trkpt><trkpt lat="43.591248" lon="11.2490243"><ele>388.3333333333333</ele><time>2026-04-19T08:51:24.159Z</time></trkpt><trkpt lat="43.5911879" lon="11.2490788"><ele>390.66666666666663</ele><time>2026-04-19T08:51:25.178Z</time></trkpt><trkpt lat="43.5911423" lon="11.2492382"><ele>393.0</ele><time>2026-04-19T08:51:27.181Z</time></trkpt><trkpt lat="43.5911508" lon="11.2493367"><ele>395.33333333333337</ele><time>2026-04-19T08:51:28.194Z</time></trkpt><trkpt lat="43.5911787" lon="11.2494517"><ele>397.6666666666667</ele><time>2026-04-19T08:51:29.179Z</time></trkpt><trkpt lat="43.5912157" lon="11.2495686"><ele>400.0</ele><time>2026-04-19T08:51:30.169Z</time></trkpt><trkpt lat="43.5912597" lon="11.2496981"><ele>403.5</ele><time>2026-04-19T08:51:31.178Z</time></trkpt><trkpt lat="43.5913114" lon="11.2498305"><ele>407.0</ele><time>2026-04-19T08:51:32.178Z</time></trkpt><trkpt lat="43.5913705" lon="11.249973"><ele>410.5</ele><time>2026-04-19T08:51:33.186Z</time></trkpt><trkpt lat="43.5914358" lon="11.2501406"><ele>414.0</ele><time>2026-04-19T08:51:34.173Z</time></trkpt><trkpt lat="43.5914964" lon="11.2502987"><ele>414.0</ele><time>2026-04-19T08:51:35.186Z</time></trkpt><trkpt lat="43.5915487" lon="11.2504253"><ele>414.0</ele><time>2026-04-19T08:51:36.172Z</time></trkpt><trkpt lat="43.5915959" lon="11.25054"><ele>414.0</ele><time>2026-04-19T08:51:37.175Z</time></trkpt><trkpt lat="43.5916238" lon="11.2506483"><ele>414.0</ele><time>2026-04-19T08:51:38.174Z</time></trkpt><trkpt lat="43.5916411" lon="11.2507682"><ele>414.0</ele><time>2026-04-19T08:51:39.178Z</time></trkpt><trkpt lat="43.5916467" lon="11.2508928"><ele>416.2</ele><time>2026-04-19T08:51:40.173Z</time></trkpt><trkpt lat="43.5916422" lon="11.2510267"><ele>418.4</ele><time>2026-04-19T08:51:41.172Z</time></trkpt><trkpt lat="43.5916239" lon="11.251177"><ele>420.6</ele><time>2026-04-19T08:51:42.179Z</time></trkpt><trkpt lat="43.5916062" lon="11.2513414"><ele>422.8</ele><time>2026-04-19T08:51:43.176Z</time></trkpt><trkpt lat="43.5915925" lon="11.2514984"><ele>425.0</ele><time>2026-04-19T08:51:44.176Z</time></trkpt><trkpt lat="43.5915857" lon="11.2516465"><ele>426.0</ele><time>2026-04-19T08:51:45.176Z</time></trkpt><trkpt lat="43.5915848" lon="11.2517825"><ele>427.0</ele><time>2026-04-19T08:51:46.177Z</time></trkpt><trkpt lat="43.5915893" lon="11.2519095"><ele>428.0</ele><time>2026-04-19T08:51:47.174Z</time></trkpt><trkpt lat="43.5916146" lon="11.2520377"><ele>429.0</ele><time>2026-04-19T08:51:48.177Z</time></trkpt><trkpt lat="43.5916482" lon="11.2521597"><ele>430.0</ele><time>2026-04-19T08:51:49.181Z</time></trkpt><trkpt lat="43.5916856" lon="11.252283"><ele>430.5</ele><time>2026-04-19T08:51:50.182Z</time></trkpt><trkpt lat="43.5917352" lon="11.2524107"><ele>431.0</ele><time>2026-04-19T08:51:51.176Z</time></trkpt><trkpt lat="43.5917853" lon="11.2525462"><ele>431.5</ele><time>2026-04-19T08:51:52.182Z</time></trkpt><trkpt lat="43.5918494" lon="11.2526899"><ele>432.0</ele><time>2026-04-19T08:51:53.177Z</time></trkpt><trkpt lat="43.5919115" lon="11.252848"><ele>432.0</ele><time>2026-04-19T08:51:54.174Z</time></trkpt><trkpt lat="43.591975" lon="11.2530212"><ele>432.0</ele><time>2026-04-19T08:51:55.18Z</time></trkpt><trkpt lat="43.5920355" lon="11.2532122"><ele>432.0</ele><time>2026-04-19T08:51:56.18Z</time></trkpt><trkpt lat="43.5920992" lon="11.2534129"><ele>436.75</ele><time>2026-04-19T08:51:57.178Z</time></trkpt><trkpt lat="43.592165" lon="11.2536096"><ele>441.5</ele><time>2026-04-19T08:51:58.181Z</time></trkpt><trkpt lat="43.5922288" lon="11.2537879"><ele>446.25</ele><time>2026-04-19T08:51:59.177Z</time></trkpt><trkpt lat="43.5922838" lon="11.2539501"><ele>451.0</ele><time>2026-04-19T08:52:00.188Z</time></trkpt><trkpt lat="43.5923317" lon="11.2540925"><ele>451.00000000000006</ele><time>2026-04-19T08:52:01.175Z</time></trkpt><trkpt lat="43.5923723" lon="11.2542169"><ele>451.0</ele><time>2026-04-19T08:52:02.168Z</time></trkpt><trkpt lat="43.5924004" lon="11.2543183"><ele>451.0</ele><time>2026-04-19T08:52:03.171Z</time></trkpt><trkpt lat="43.5924226" lon="11.2544042"><ele>451.0</ele><time>2026-04-19T08:52:04.176Z</time></trkpt><trkpt lat="43.5924405" lon="11.2544981"><ele>451.00000000000006</ele><time>2026-04-19T08:52:05.18Z</time></trkpt><trkpt lat="43.5924479" lon="11.2545932"><ele>451.0</ele><time>2026-04-19T08:52:06.178Z</time></trkpt><trkpt lat="43.5924362" lon="11.2546873"><ele>450.6</ele><time>2026-04-19T08:52:07.173Z</time></trkpt><trkpt lat="43.5923857" lon="11.2548205"><ele>450.20000000000005</ele><time>2026-04-19T08:52:09.183Z</time></trkpt><trkpt lat="43.5922752" lon="11.2548837"><ele>449.79999999999995</ele><time>2026-04-19T08:52:11.172Z</time></trkpt><trkpt lat="43.5921998" lon="11.2548675"><ele>449.4</ele><time>2026-04-19T08:52:12.172Z</time></trkpt><trkpt lat="43.5921042" lon="11.2548091"><ele>449.0</ele><time>2026-04-19T08:52:13.187Z</time></trkpt><trkpt lat="43.5919946" lon="11.254717"><ele>447.25</ele><time>2026-04-19T08:52:14.188Z</time></trkpt><trkpt lat="43.5918767" lon="11.2546119"><ele>445.5</ele><time>2026-04-19T08:52:15.175Z</time></trkpt><trkpt lat="43.5917634" lon="11.2544918"><ele>443.75</ele><time>2026-04-19T08:52:16.176Z</time></trkpt><trkpt lat="43.5916685" lon="11.2543739"><ele>442.0</ele><time>2026-04-19T08:52:17.185Z</time></trkpt><trkpt lat="43.5915874" lon="11.254243"><ele>442.0</ele><time>2026-04-19T08:52:18.179Z</time></trkpt><trkpt lat="43.5914961" lon="11.2541132"><ele>442.0</ele><time>2026-04-19T08:52:19.18Z</time></trkpt><trkpt lat="43.5914006" lon="11.2539738"><ele>442.0</ele><time>2026-04-19T08:52:20.171Z</time></trkpt><trkpt lat="43.5913139" lon="11.2538452"><ele>442.0</ele><time>2026-04-19T08:52:21.182Z</time></trkpt><trkpt lat="43.5912244" lon="11.2537175"><ele>441.75</ele><time>2026-04-19T08:52:22.185Z</time></trkpt><trkpt lat="43.5911385" lon="11.2535932"><ele>441.5</ele><time>2026-04-19T08:52:23.182Z</time></trkpt><trkpt lat="43.5910519" lon="11.2534653"><ele>441.25</ele><time>2026-04-19T08:52:24.178Z</time></trkpt><trkpt lat="43.5909646" lon="11.2533378"><ele>441.0</ele><time>2026-04-19T08:52:25.164Z</time></trkpt><trkpt lat="43.590878" lon="11.2532187"><ele>437.5</ele><time>2026-04-19T08:52:26.173Z</time></trkpt><trkpt lat="43.5907901" lon="11.2530972"><ele>434.0</ele><time>2026-04-19T08:52:27.17Z</time></trkpt><trkpt lat="43.5907027" lon="11.2529799"><ele>430.5</ele><time>2026-04-19T08:52:28.196Z</time></trkpt><trkpt lat="43.5906219" lon="11.2528699"><ele>427.0</ele><time>2026-04-19T08:52:29.181Z</time></trkpt><trkpt lat="43.5905419" lon="11.252767"><ele>427.0</ele><time>2026-04-19T08:52:30.163Z</time></trkpt><trkpt lat="43.5904615" lon="11.2526711"><ele>427.0</ele><time>2026-04-19T08:52:31.178Z</time></trkpt><trkpt lat="43.5903834" lon="11.2525703"><ele>427.0</ele><time>2026-04-19T08:52:32.173Z</time></trkpt><trkpt lat="43.5903033" lon="11.2524584"><ele>427.0</ele><time>2026-04-19T08:52:33.173Z</time></trkpt><trkpt lat="43.5902195" lon="11.2523277"><ele>426.25</ele><time>2026-04-19T08:52:34.189Z</time></trkpt><trkpt lat="43.5901404" lon="11.2521909"><ele>425.5</ele><time>2026-04-19T08:52:35.169Z</time></trkpt><trkpt lat="43.5900671" lon="11.2520624"><ele>424.75</ele><time>2026-04-19T08:52:36.181Z</time></trkpt><trkpt lat="43.5899966" lon="11.2519309"><ele>424.0</ele><time>2026-04-19T08:52:37.18Z</time></trkpt><trkpt lat="43.5899182" lon="11.2518008"><ele>424.0</ele><time>2026-04-19T08:52:38.175Z</time></trkpt><trkpt lat="43.589841" lon="11.2516797"><ele>424.0</ele><time>2026-04-19T08:52:39.172Z</time></trkpt><trkpt lat="43.5897593" lon="11.2515663"><ele>424.0</ele><time>2026-04-19T08:52:40.171Z</time></trkpt><trkpt lat="43.5896738" lon="11.251458"><ele>424.0</ele><time>2026-04-19T08:52:41.16Z</time></trkpt><trkpt lat="43.5895856" lon="11.2513576"><ele>423.0</ele><time>2026-04-19T08:52:42.159Z</time></trkpt><trkpt lat="43.589494" lon="11.2512694"><ele>422.0</ele><time>2026-04-19T08:52:43.171Z</time></trkpt><trkpt lat="43.5893939" lon="11.2511878"><ele>421.0</ele><time>2026-04-19T08:52:44.177Z</time></trkpt><trkpt lat="43.5892915" lon="11.2511091"><ele>420.0</ele><time>2026-04-19T08:52:45.18Z</time></trkpt><trkpt lat="43.589187" lon="11.2510414"><ele>420.0</ele><time>2026-04-19T08:52:46.159Z</time></trkpt><trkpt lat="43.5890897" lon="11.2509873"><ele>420.0</ele><time>2026-04-19T08:52:47.176Z</time></trkpt><trkpt lat="43.5889882" lon="11.2509397"><ele>420.0</ele><time>2026-04-19T08:52:48.196Z</time></trkpt><trkpt lat="43.5888822" lon="11.2508974"><ele>420.0</ele><time>2026-04-19T08:52:49.178Z</time></trkpt><trkpt lat="43.5887856" lon="11.2508653"><ele>420.0</ele><time>2026-04-19T08:52:50.177Z</time></trkpt><trkpt lat="43.5886977" lon="11.2508346"><ele>419.4</ele><time>2026-04-19T08:52:51.157Z</time></trkpt><trkpt lat="43.5886114" lon="11.2508104"><ele>418.8</ele><time>2026-04-19T08:52:52.172Z</time></trkpt><trkpt lat="43.5885285" lon="11.2507947"><ele>418.20000000000005</ele><time>2026-04-19T08:52:53.18Z</time></trkpt><trkpt lat="43.5884403" lon="11.2508093"><ele>417.6</ele><time>2026-04-19T08:52:54.174Z</time></trkpt><trkpt lat="43.5883513" lon="11.2508567"><ele>417.0</ele><time>2026-04-19T08:52:55.183Z</time></trkpt><trkpt lat="43.5882689" lon="11.2509218"><ele>417.0</ele><time>2026-04-19T08:52:56.173Z</time></trkpt><trkpt lat="43.5881809" lon="11.2510195"><ele>417.0</ele><time>2026-04-19T08:52:57.167Z</time></trkpt><trkpt lat="43.5880942" lon="11.2511566"><ele>417.0</ele><time>2026-04-19T08:52:58.175Z</time></trkpt><trkpt lat="43.5880155" lon="11.251305"><ele>417.0</ele><time>2026-04-19T08:52:59.176Z</time></trkpt><trkpt lat="43.5879405" lon="11.251464"><ele>419.25</ele><time>2026-04-19T08:53:00.162Z</time></trkpt><trkpt lat="43.5878761" lon="11.2516298"><ele>421.5</ele><time>2026-04-19T08:53:01.183Z</time></trkpt><trkpt lat="43.5878125" lon="11.2518096"><ele>423.75</ele><time>2026-04-19T08:53:02.186Z</time></trkpt><trkpt lat="43.5877585" lon="11.2519951"><ele>426.0</ele><time>2026-04-19T08:53:03.18Z</time></trkpt><trkpt lat="43.5877117" lon="11.2521798"><ele>419.75</ele><time>2026-04-19T08:53:04.169Z</time></trkpt><trkpt lat="43.5876701" lon="11.2523547"><ele>413.5</ele><time>2026-04-19T08:53:05.17Z</time></trkpt><trkpt lat="43.587631" lon="11.2525149"><ele>407.25</ele><time>2026-04-19T08:53:06.172Z</time></trkpt><trkpt lat="43.5875931" lon="11.2526737"><ele>401.0</ele><time>2026-04-19T08:53:07.192Z</time></trkpt><trkpt lat="43.5875582" lon="11.2528198"><ele>400.99999999999994</ele><time>2026-04-19T08:53:08.178Z</time></trkpt><trkpt lat="43.5875186" lon="11.2529482"><ele>401.0</ele><time>2026-04-19T08:53:09.176Z</time></trkpt><trkpt lat="43.5874799" lon="11.2530454"><ele>401.0</ele><time>2026-04-19T08:53:10.173Z</time></trkpt><trkpt lat="43.5874316" lon="11.2531287"><ele>401.0</ele><time>2026-04-19T08:53:11.178Z</time></trkpt><trkpt lat="43.5873721" lon="11.2531928"><ele>400.99999999999994</ele><time>2026-04-19T08:53:12.154Z</time></trkpt><trkpt lat="43.5872961" lon="11.2532308"><ele>401.0</ele><time>2026-04-19T08:53:13.162Z</time></trkpt><trkpt lat="43.5871986" lon="11.2532474"><ele>401.75</ele><time>2026-04-19T08:53:14.159Z</time></trkpt><trkpt lat="43.5870874" lon="11.2532392"><ele>402.5</ele><time>2026-04-19T08:53:15.167Z</time></trkpt><trkpt lat="43.5869702" lon="11.2532083"><ele>403.25</ele><time>2026-04-19T08:53:16.159Z</time></trkpt><trkpt lat="43.5868444" lon="11.2531637"><ele>404.0</ele><time>2026-04-19T08:53:17.165Z</time></trkpt><trkpt lat="43.586717" lon="11.2531025"><ele>401.6</ele><time>2026-04-19T08:53:18.159Z</time></trkpt><trkpt lat="43.5865956" lon="11.2530427"><ele>399.2</ele><time>2026-04-19T08:53:19.175Z</time></trkpt><trkpt lat="43.5864888" lon="11.2529825"><ele>396.8</ele><time>2026-04-19T08:53:20.181Z</time></trkpt><trkpt lat="43.5863942" lon="11.2529252"><ele>394.40000000000003</ele><time>2026-04-19T08:53:21.177Z</time></trkpt><trkpt lat="43.5863134" lon="11.2528716"><ele>392.0</ele><time>2026-04-19T08:53:22.174Z</time></trkpt><trkpt lat="43.5862345" lon="11.2528232"><ele>391.6</ele><time>2026-04-19T08:53:23.175Z</time></trkpt><trkpt lat="43.5861522" lon="11.252798"><ele>391.20000000000005</ele><time>2026-04-19T08:53:24.161Z</time></trkpt><trkpt lat="43.5860502" lon="11.2527946"><ele>390.8</ele><time>2026-04-19T08:53:25.177Z</time></trkpt><trkpt lat="43.5859312" lon="11.2528058"><ele>390.4</ele><time>2026-04-19T08:53:26.177Z</time></trkpt><trkpt lat="43.5858128" lon="11.2528237"><ele>390.0</ele><time>2026-04-19T08:53:27.173Z</time></trkpt><trkpt lat="43.5856966" lon="11.2528256"><ele>390.0</ele><time>2026-04-19T08:53:28.189Z</time></trkpt><trkpt lat="43.5855854" lon="11.2528086"><ele>390.0</ele><time>2026-04-19T08:53:29.159Z</time></trkpt><trkpt lat="43.5854814" lon="11.2527618"><ele>390.0</ele><time>2026-04-19T08:53:30.172Z</time></trkpt><trkpt lat="43.5853955" lon="11.2526813"><ele>390.0</ele><time>2026-04-19T08:53:31.171Z</time></trkpt><trkpt lat="43.5853197" lon="11.2525686"><ele>390.0</ele><time>2026-04-19T08:53:32.172Z</time></trkpt><trkpt lat="43.5852554" lon="11.2524278"><ele>388.5</ele><time>2026-04-19T08:53:33.167Z</time></trkpt><trkpt lat="43.585195" lon="11.252266"><ele>387.0</ele><time>2026-04-19T08:53:34.174Z</time></trkpt><trkpt lat="43.5851362" lon="11.252121"><ele>385.5</ele><time>2026-04-19T08:53:35.171Z</time></trkpt><trkpt lat="43.5850771" lon="11.2520008"><ele>384.0</ele><time>2026-04-19T08:53:36.175Z</time></trkpt><trkpt lat="43.5850086" lon="11.2519012"><ele>384.0</ele><time>2026-04-19T08:53:37.176Z</time></trkpt><trkpt lat="43.5849375" lon="11.2518283"><ele>384.0</ele><time>2026-04-19T08:53:38.182Z</time></trkpt><trkpt lat="43.5848748" lon="11.2517941"><ele>384.0</ele><time>2026-04-19T08:53:39.178Z</time></trkpt><trkpt lat="43.5848143" lon="11.2517679"><ele>384.0</ele><time>2026-04-19T08:53:40.176Z</time></trkpt><trkpt lat="43.5847413" lon="11.2517506"><ele>384.0</ele><time>2026-04-19T08:53:41.178Z</time></trkpt><trkpt lat="43.58465" lon="11.2517311"><ele>384.0</ele><time>2026-04-19T08:53:42.183Z</time></trkpt><trkpt lat="43.5845487" lon="11.2516981"><ele>382.75</ele><time>2026-04-19T08:53:43.176Z</time></trkpt><trkpt lat="43.5844507" lon="11.251648"><ele>381.5</ele><time>2026-04-19T08:53:44.169Z</time></trkpt><trkpt lat="43.5843578" lon="11.2515698"><ele>380.25</ele><time>2026-04-19T08:53:45.156Z</time></trkpt><trkpt lat="43.5842646" lon="11.2514722"><ele>379.0</ele><time>2026-04-19T08:53:46.169Z</time></trkpt><trkpt lat="43.5841576" lon="11.2513453"><ele>379.0</ele><time>2026-04-19T08:53:47.185Z</time></trkpt><trkpt lat="43.5840404" lon="11.2512239"><ele>379.0</ele><time>2026-04-19T08:53:48.176Z</time></trkpt><trkpt lat="43.583933" lon="11.2510998"><ele>379.0</ele><time>2026-04-19T08:53:49.172Z</time></trkpt><trkpt lat="43.5838402" lon="11.2509903"><ele>379.0</ele><time>2026-04-19T08:53:50.172Z</time></trkpt><trkpt lat="43.5837609" lon="11.2509096"><ele>379.0</ele><time>2026-04-19T08:53:51.187Z</time></trkpt><trkpt lat="43.5836964" lon="11.2508359"><ele>379.0</ele><time>2026-04-19T08:53:52.187Z</time></trkpt><trkpt lat="43.5836355" lon="11.2507792"><ele>379.0</ele><time>2026-04-19T08:53:53.177Z</time></trkpt><trkpt lat="43.5835823" lon="11.2507186"><ele>379.0</ele><time>2026-04-19T08:53:54.167Z</time></trkpt><trkpt lat="43.5834975" lon="11.2506052"><ele>379.0</ele><time>2026-04-19T08:53:56.166Z</time></trkpt><trkpt lat="43.5834383" lon="11.2504986"><ele>379.0</ele><time>2026-04-19T08:53:58.167Z</time></trkpt><trkpt lat="43.5833802" lon="11.250404"><ele>378.14285714285717</ele><time>2026-04-19T08:54:00.173Z</time></trkpt><trkpt lat="43.5833175" lon="11.250303"><ele>377.2857142857143</ele><time>2026-04-19T08:54:02.157Z</time></trkpt><trkpt lat="43.5832788" lon="11.2502335"><ele>376.42857142857144</ele><time>2026-04-19T08:54:03.169Z</time></trkpt><trkpt lat="43.5832413" lon="11.2501516"><ele>375.57142857142856</ele><time>2026-04-19T08:54:04.195Z</time></trkpt><trkpt lat="43.5832028" lon="11.2500657"><ele>374.7142857142857</ele><time>2026-04-19T08:54:05.171Z</time></trkpt><trkpt lat="43.5831654" lon="11.249994"><ele>373.8571428571429</ele><time>2026-04-19T08:54:06.176Z</time></trkpt><trkpt lat="43.5831272" lon="11.2499215"><ele>373.0</ele><time>2026-04-19T08:54:07.18Z</time></trkpt><trkpt lat="43.5830866" lon="11.2498519"><ele>371.3333333333333</ele><time>2026-04-19T08:54:08.154Z</time></trkpt><trkpt lat="43.5830354" lon="11.249791"><ele>369.66666666666663</ele><time>2026-04-19T08:54:09.173Z</time></trkpt><trkpt lat="43.5829659" lon="11.2497519"><ele>368.0</ele><time>2026-04-19T08:54:10.164Z</time></trkpt><trkpt lat="43.5828865" lon="11.2497267"><ele>366.3333333333333</ele><time>2026-04-19T08:54:11.154Z</time></trkpt><trkpt lat="43.5828061" lon="11.2497168"><ele>364.6666666666667</ele><time>2026-04-19T08:54:12.172Z</time></trkpt><trkpt lat="43.5827194" lon="11.2497391"><ele>363.0</ele><time>2026-04-19T08:54:13.16Z</time></trkpt><trkpt lat="43.5826252" lon="11.2497786"><ele>364.5</ele><time>2026-04-19T08:54:14.16Z</time></trkpt><trkpt lat="43.5825192" lon="11.2498225"><ele>366.0</ele><time>2026-04-19T08:54:15.174Z</time></trkpt><trkpt lat="43.5824012" lon="11.2498766"><ele>367.5</ele><time>2026-04-19T08:54:16.182Z</time></trkpt><trkpt lat="43.5822784" lon="11.2499338"><ele>369.0</ele><time>2026-04-19T08:54:17.158Z</time></trkpt><trkpt lat="43.5821617" lon="11.2499852"><ele>369.0</ele><time>2026-04-19T08:54:18.17Z</time></trkpt><trkpt lat="43.5820513" lon="11.250032"><ele>369.0</ele><time>2026-04-19T08:54:19.173Z</time></trkpt><trkpt lat="43.5819487" lon="11.2500866"><ele>369.0</ele><time>2026-04-19T08:54:20.188Z</time></trkpt><trkpt lat="43.5818485" lon="11.250131"><ele>369.0</ele><time>2026-04-19T08:54:21.184Z</time></trkpt><trkpt lat="43.5817599" lon="11.2501735"><ele>369.0</ele><time>2026-04-19T08:54:22.179Z</time></trkpt><trkpt lat="43.5816718" lon="11.2502157"><ele>366.2</ele><time>2026-04-19T08:54:23.176Z</time></trkpt><trkpt lat="43.5815973" lon="11.2502509"><ele>363.4</ele><time>2026-04-19T08:54:24.162Z</time></trkpt><trkpt lat="43.5815372" lon="11.2502825"><ele>360.6</ele><time>2026-04-19T08:54:25.173Z</time></trkpt><trkpt lat="43.5814325" lon="11.2503099"><ele>357.8</ele><time>2026-04-19T08:54:27.177Z</time></trkpt><trkpt lat="43.5813594" lon="11.250247"><ele>355.0</ele><time>2026-04-19T08:54:29.177Z</time></trkpt><trkpt lat="43.5812936" lon="11.2500966"><ele>355.0</ele><time>2026-04-19T08:54:31.181Z</time></trkpt><trkpt lat="43.5812383" lon="11.2500179"><ele>355.0</ele><time>2026-04-19T08:54:32.163Z</time></trkpt><trkpt lat="43.5811671" lon="11.2499535"><ele>355.0</ele><time>2026-04-19T08:54:33.181Z</time></trkpt><trkpt lat="43.5810887" lon="11.2498935"><ele>355.0</ele><time>2026-04-19T08:54:34.169Z</time></trkpt><trkpt lat="43.5810192" lon="11.2498387"><ele>355.0</ele><time>2026-04-19T08:54:35.171Z</time></trkpt><trkpt lat="43.5809628" lon="11.2497826"><ele>355.0</ele><time>2026-04-19T08:54:36.169Z</time></trkpt><trkpt lat="43.5809064" lon="11.2497329"><ele>352.6</ele><time>2026-04-19T08:54:37.18Z</time></trkpt><trkpt lat="43.580846" lon="11.249675"><ele>350.2</ele><time>2026-04-19T08:54:38.174Z</time></trkpt><trkpt lat="43.580778" lon="11.2496072"><ele>347.79999999999995</ele><time>2026-04-19T08:54:39.162Z</time></trkpt><trkpt lat="43.5806957" lon="11.2495344"><ele>345.4</ele><time>2026-04-19T08:54:40.177Z</time></trkpt><trkpt lat="43.5805958" lon="11.2494588"><ele>343.0</ele><time>2026-04-19T08:54:41.165Z</time></trkpt><trkpt lat="43.5804875" lon="11.2493937"><ele>343.0</ele><time>2026-04-19T08:54:42.184Z</time></trkpt><trkpt lat="43.5803851" lon="11.2493368"><ele>343.0</ele><time>2026-04-19T08:54:43.183Z</time></trkpt><trkpt lat="43.5802819" lon="11.2492897"><ele>343.0</ele><time>2026-04-19T08:54:44.174Z</time></trkpt><trkpt lat="43.5801837" lon="11.2492445"><ele>343.0</ele><time>2026-04-19T08:54:45.172Z</time></trkpt><trkpt lat="43.580083" lon="11.2491976"><ele>343.0</ele><time>2026-04-19T08:54:46.19Z</time></trkpt><trkpt lat="43.5799782" lon="11.2491383"><ele>343.0</ele><time>2026-04-19T08:54:47.184Z</time></trkpt><trkpt lat="43.579864" lon="11.2490846"><ele>343.0</ele><time>2026-04-19T08:54:48.176Z</time></trkpt><trkpt lat="43.5797507" lon="11.2490331"><ele>343.0</ele><time>2026-04-19T08:54:49.175Z</time></trkpt><trkpt lat="43.5796379" lon="11.2489744"><ele>343.0</ele><time>2026-04-19T08:54:50.181Z</time></trkpt><trkpt lat="43.579534" lon="11.2489221"><ele>342.79999999999995</ele><time>2026-04-19T08:54:51.174Z</time></trkpt><trkpt lat="43.5794318" lon="11.2488726"><ele>342.6</ele><time>2026-04-19T08:54:52.175Z</time></trkpt><trkpt lat="43.5793355" lon="11.2488175"><ele>342.4</ele><time>2026-04-19T08:54:53.184Z</time></trkpt><trkpt lat="43.5792447" lon="11.2487676"><ele>342.20000000000005</ele><time>2026-04-19T08:54:54.177Z</time></trkpt><trkpt lat="43.5791416" lon="11.2487112"><ele>342.0</ele><time>2026-04-19T08:54:55.188Z</time></trkpt><trkpt lat="43.5790331" lon="11.2486539"><ele>342.0</ele><time>2026-04-19T08:54:56.181Z</time></trkpt><trkpt lat="43.5789299" lon="11.2485948"><ele>342.0</ele><time>2026-04-19T08:54:57.172Z</time></trkpt><trkpt lat="43.5788406" lon="11.2485213"><ele>342.0</ele><time>2026-04-19T08:54:58.173Z</time></trkpt><trkpt lat="43.5787643" lon="11.2484232"><ele>342.0</ele><time>2026-04-19T08:54:59.169Z</time></trkpt><trkpt lat="43.5786962" lon="11.248316"><ele>342.0</ele><time>2026-04-19T08:55:00.174Z</time></trkpt><trkpt lat="43.5786308" lon="11.2482192"><ele>341.6666666666667</ele><time>2026-04-19T08:55:01.176Z</time></trkpt><trkpt lat="43.5785703" lon="11.2481349"><ele>341.3333333333333</ele><time>2026-04-19T08:55:02.155Z</time></trkpt><trkpt lat="43.5785069" lon="11.2480537"><ele>341.0</ele><time>2026-04-19T08:55:03.156Z</time></trkpt><trkpt lat="43.5784496" lon="11.2479748"><ele>340.66666666666663</ele><time>2026-04-19T08:55:04.173Z</time></trkpt><trkpt lat="43.5783946" lon="11.2479007"><ele>340.3333333333333</ele><time>2026-04-19T08:55:05.158Z</time></trkpt><trkpt lat="43.5783426" lon="11.2478371"><ele>340.0</ele><time>2026-04-19T08:55:06.164Z</time></trkpt><trkpt lat="43.5782894" lon="11.2477678"><ele>340.0</ele><time>2026-04-19T08:55:07.163Z</time></trkpt><trkpt lat="43.578246" lon="11.2477048"><ele>340.0</ele><time>2026-04-19T08:55:08.189Z</time></trkpt><trkpt lat="43.5781637" lon="11.247659"><ele>340.0</ele><time>2026-04-19T08:55:10.173Z</time></trkpt><trkpt lat="43.5780891" lon="11.2476924"><ele>340.0</ele><time>2026-04-19T08:55:12.176Z</time></trkpt><trkpt lat="43.5780333" lon="11.2477644"><ele>340.0</ele><time>2026-04-19T08:55:14.181Z</time></trkpt><trkpt lat="43.5779905" lon="11.2478484"><ele>340.0</ele><time>2026-04-19T08:55:16.181Z</time></trkpt><trkpt lat="43.5779781" lon="11.2479436"><ele>340.0</ele><time>2026-04-19T08:55:19.18Z</time></trkpt><trkpt lat="43.5779981" lon="11.2480621"><ele>340.0</ele><time>2026-04-19T08:55:21.178Z</time></trkpt><trkpt lat="43.5780243" lon="11.24817"><ele>340.0</ele><time>2026-04-19T08:55:22.169Z</time></trkpt><trkpt lat="43.5780553" lon="11.2482879"><ele>340.0</ele><time>2026-04-19T08:55:23.155Z</time></trkpt><trkpt lat="43.5780936" lon="11.2484353"><ele>340.0</ele><time>2026-04-19T08:55:24.174Z</time></trkpt><trkpt lat="43.5781337" lon="11.2485977"><ele>340.0</ele><time>2026-04-19T08:55:25.172Z</time></trkpt><trkpt lat="43.5781731" lon="11.2487472"><ele>340.0</ele><time>2026-04-19T08:55:26.176Z</time></trkpt><trkpt lat="43.5782206" lon="11.2488896"><ele>340.0</ele><time>2026-04-19T08:55:27.164Z</time></trkpt><trkpt lat="43.5782605" lon="11.2490134"><ele>340.0</ele><time>2026-04-19T08:55:28.178Z</time></trkpt><trkpt lat="43.5782823" lon="11.2491107"><ele>340.0</ele><time>2026-04-19T08:55:29.182Z</time></trkpt><trkpt lat="43.5782882" lon="11.249201"><ele>338.3333333333333</ele><time>2026-04-19T08:55:30.171Z</time></trkpt><trkpt lat="43.5782803" lon="11.2492972"><ele>336.66666666666663</ele><time>2026-04-19T08:55:31.179Z</time></trkpt><trkpt lat="43.5782563" lon="11.2493876"><ele>335.0</ele><time>2026-04-19T08:55:32.17Z</time></trkpt><trkpt lat="43.5781569" lon="11.2494866"><ele>333.3333333333333</ele><time>2026-04-19T08:55:34.172Z</time></trkpt><trkpt lat="43.5780803" lon="11.249487"><ele>331.6666666666667</ele><time>2026-04-19T08:55:35.185Z</time></trkpt><trkpt lat="43.5779862" lon="11.2494578"><ele>330.0</ele><time>2026-04-19T08:55:36.18Z</time></trkpt><trkpt lat="43.5778867" lon="11.2493841"><ele>328.2</ele><time>2026-04-19T08:55:37.191Z</time></trkpt><trkpt lat="43.577819" lon="11.2493046"><ele>326.4</ele><time>2026-04-19T08:55:38.173Z</time></trkpt><trkpt lat="43.5777629" lon="11.2492372"><ele>324.6</ele><time>2026-04-19T08:55:39.176Z</time></trkpt><trkpt lat="43.5776481" lon="11.2491844"><ele>322.8</ele><time>2026-04-19T08:55:41.173Z</time></trkpt><trkpt lat="43.5775883" lon="11.2492424"><ele>321.0</ele><time>2026-04-19T08:55:42.173Z</time></trkpt><trkpt lat="43.5775386" lon="11.2493771"><ele>321.0</ele><time>2026-04-19T08:55:43.173Z</time></trkpt><trkpt lat="43.5775003" lon="11.2495414"><ele>321.0</ele><time>2026-04-19T08:55:44.163Z</time></trkpt><trkpt lat="43.5774845" lon="11.2497094"><ele>321.0</ele><time>2026-04-19T08:55:45.163Z</time></trkpt><trkpt lat="43.5774746" lon="11.2498558"><ele>321.0</ele><time>2026-04-19T08:55:46.157Z</time></trkpt><trkpt lat="43.5774856" lon="11.2500046"><ele>318.5</ele><time>2026-04-19T08:55:47.162Z</time></trkpt><trkpt lat="43.5775138" lon="11.2501636"><ele>316.0</ele><time>2026-04-19T08:55:48.169Z</time></trkpt><trkpt lat="43.5775554" lon="11.250326"><ele>313.5</ele><time>2026-04-19T08:55:49.158Z</time></trkpt><trkpt lat="43.5776074" lon="11.2504808"><ele>311.0</ele><time>2026-04-19T08:55:50.168Z</time></trkpt><trkpt lat="43.577669" lon="11.2506109"><ele>309.75</ele><time>2026-04-19T08:55:51.16Z</time></trkpt><trkpt lat="43.5777413" lon="11.2507215"><ele>308.5</ele><time>2026-04-19T08:55:52.162Z</time></trkpt><trkpt lat="43.5778426" lon="11.2508418"><ele>307.25</ele><time>2026-04-19T08:55:53.174Z</time></trkpt><trkpt lat="43.5779547" lon="11.2509563"><ele>306.0</ele><time>2026-04-19T08:55:54.161Z</time></trkpt><trkpt lat="43.5780458" lon="11.251063"><ele>306.0</ele><time>2026-04-19T08:55:55.157Z</time></trkpt><trkpt lat="43.5781299" lon="11.2511685"><ele>306.0</ele><time>2026-04-19T08:55:56.17Z</time></trkpt><trkpt lat="43.5782219" lon="11.2512751"><ele>306.0</ele><time>2026-04-19T08:55:57.173Z</time></trkpt><trkpt lat="43.5783054" lon="11.2513722"><ele>306.0</ele><time>2026-04-19T08:55:58.17Z</time></trkpt><trkpt lat="43.5783758" lon="11.2514657"><ele>306.0</ele><time>2026-04-19T08:55:59.172Z</time></trkpt><trkpt lat="43.5784203" lon="11.2515671"><ele>305.0</ele><time>2026-04-19T08:56:00.179Z</time></trkpt><trkpt lat="43.5784504" lon="11.2516781"><ele>304.0</ele><time>2026-04-19T08:56:01.158Z</time></trkpt><trkpt lat="43.5784633" lon="11.2517981"><ele>303.0</ele><time>2026-04-19T08:56:02.161Z</time></trkpt><trkpt lat="43.57845" lon="11.2519238"><ele>302.0</ele><time>2026-04-19T08:56:03.16Z</time></trkpt><trkpt lat="43.578413" lon="11.2520559"><ele>301.0</ele><time>2026-04-19T08:56:04.176Z</time></trkpt><trkpt lat="43.5783597" lon="11.2521759"><ele>301.0</ele><time>2026-04-19T08:56:05.182Z</time></trkpt><trkpt lat="43.5782884" lon="11.2522795"><ele>301.0</ele><time>2026-04-19T08:56:06.158Z</time></trkpt><trkpt lat="43.5782017" lon="11.2523598"><ele>301.0</ele><time>2026-04-19T08:56:07.174Z</time></trkpt><trkpt lat="43.5781035" lon="11.2524375"><ele>301.0</ele><time>2026-04-19T08:56:08.173Z</time></trkpt><trkpt lat="43.5780029" lon="11.2525216"><ele>301.0</ele><time>2026-04-19T08:56:09.18Z</time></trkpt><trkpt lat="43.5779076" lon="11.2526116"><ele>299.0</ele><time>2026-04-19T08:56:10.173Z</time></trkpt><trkpt lat="43.5778202" lon="11.2527079"><ele>297.0</ele><time>2026-04-19T08:56:11.165Z</time></trkpt><trkpt lat="43.5777393" lon="11.2528017"><ele>295.0</ele><time>2026-04-19T08:56:12.181Z</time></trkpt><trkpt lat="43.5776492" lon="11.2528623"><ele>293.0</ele><time>2026-04-19T08:56:13.183Z</time></trkpt><trkpt lat="43.5775547" lon="11.2529039"><ele>291.0</ele><time>2026-04-19T08:56:14.176Z</time></trkpt><trkpt lat="43.5774597" lon="11.2529072"><ele>291.0</ele><time>2026-04-19T08:56:15.16Z</time></trkpt><trkpt lat="43.5773551" lon="11.2528704"><ele>291.0</ele><time>2026-04-19T08:56:16.177Z</time></trkpt><trkpt lat="43.5772374" lon="11.2528209"><ele>291.0</ele><time>2026-04-19T08:56:17.174Z</time></trkpt><trkpt lat="43.5771145" lon="11.2527681"><ele>291.0</ele><time>2026-04-19T08:56:18.195Z</time></trkpt><trkpt lat="43.5770033" lon="11.2527167"><ele>290.1666666666667</ele><time>2026-04-19T08:56:19.169Z</time></trkpt><trkpt lat="43.5769033" lon="11.2526711"><ele>289.3333333333333</ele><time>2026-04-19T08:56:20.176Z</time></trkpt><trkpt lat="43.5768132" lon="11.2526385"><ele>288.5</ele><time>2026-04-19T08:56:21.169Z</time></trkpt><trkpt lat="43.5767303" lon="11.2526105"><ele>287.66666666666663</ele><time>2026-04-19T08:56:22.182Z</time></trkpt><trkpt lat="43.576658" lon="11.2525795"><ele>286.8333333333333</ele><time>2026-04-19T08:56:23.18Z</time></trkpt><trkpt lat="43.5765871" lon="11.2525648"><ele>286.0</ele><time>2026-04-19T08:56:24.182Z</time></trkpt><trkpt lat="43.5765047" lon="11.2525671"><ele>286.0</ele><time>2026-04-19T08:56:25.188Z</time></trkpt><trkpt lat="43.5764208" lon="11.2525982"><ele>286.0</ele><time>2026-04-19T08:56:26.161Z</time></trkpt><trkpt lat="43.5763377" lon="11.2526457"><ele>286.0</ele><time>2026-04-19T08:56:27.163Z</time></trkpt><trkpt lat="43.5762643" lon="11.2527181"><ele>286.0</ele><time>2026-04-19T08:56:28.176Z</time></trkpt><trkpt lat="43.5761967" lon="11.2528285"><ele>286.0</ele><time>2026-04-19T08:56:29.179Z</time></trkpt><trkpt lat="43.5761367" lon="11.2529584"><ele>285.40000000000003</ele><time>2026-04-19T08:56:30.182Z</time></trkpt><trkpt lat="43.5760832" lon="11.2530906"><ele>284.8</ele><time>2026-04-19T08:56:31.187Z</time></trkpt><trkpt lat="43.5760298" lon="11.2532233"><ele>284.20000000000005</ele><time>2026-04-19T08:56:32.176Z</time></trkpt><trkpt lat="43.5759821" lon="11.2533518"><ele>283.6</ele><time>2026-04-19T08:56:33.185Z</time></trkpt><trkpt lat="43.5759422" lon="11.2534703"><ele>283.0</ele><time>2026-04-19T08:56:34.178Z</time></trkpt><trkpt lat="43.57591" lon="11.2535769"><ele>283.0</ele><time>2026-04-19T08:56:35.181Z</time></trkpt><trkpt lat="43.5758818" lon="11.2536796"><ele>283.0</ele><time>2026-04-19T08:56:36.185Z</time></trkpt><trkpt lat="43.5758595" lon="11.2537906"><ele>283.0</ele><time>2026-04-19T08:56:37.178Z</time></trkpt><trkpt lat="43.5758404" lon="11.2539098"><ele>283.0</ele><time>2026-04-19T08:56:38.179Z</time></trkpt><trkpt lat="43.5758218" lon="11.2540365"><ele>283.0</ele><time>2026-04-19T08:56:39.186Z</time></trkpt><trkpt lat="43.5757993" lon="11.2541706"><ele>283.0</ele><time>2026-04-19T08:56:40.175Z</time></trkpt><trkpt lat="43.5757677" lon="11.2543067"><ele>284.0</ele><time>2026-04-19T08:56:41.176Z</time></trkpt><trkpt lat="43.5757267" lon="11.2544481"><ele>285.0</ele><time>2026-04-19T08:56:42.179Z</time></trkpt><trkpt lat="43.5756698" lon="11.2545918"><ele>286.0</ele><time>2026-04-19T08:56:43.156Z</time></trkpt><trkpt lat="43.5756067" lon="11.2547247"><ele>287.0</ele><time>2026-04-19T08:56:44.173Z</time></trkpt><trkpt lat="43.5755382" lon="11.2548612"><ele>287.5</ele><time>2026-04-19T08:56:45.177Z</time></trkpt><trkpt lat="43.5754637" lon="11.2550086"><ele>288.0</ele><time>2026-04-19T08:56:46.18Z</time></trkpt><trkpt lat="43.5753882" lon="11.2551635"><ele>288.5</ele><time>2026-04-19T08:56:47.174Z</time></trkpt><trkpt lat="43.5753062" lon="11.255313"><ele>289.0</ele><time>2026-04-19T08:56:48.176Z</time></trkpt><trkpt lat="43.5752148" lon="11.2554531"><ele>290.25</ele><time>2026-04-19T08:56:49.175Z</time></trkpt><trkpt lat="43.5751215" lon="11.2555917"><ele>291.5</ele><time>2026-04-19T08:56:50.162Z</time></trkpt><trkpt lat="43.575031" lon="11.2557331"><ele>292.75</ele><time>2026-04-19T08:56:51.173Z</time></trkpt><trkpt lat="43.5749342" lon="11.2558802"><ele>294.0</ele><time>2026-04-19T08:56:52.177Z</time></trkpt><trkpt lat="43.5748469" lon="11.2560196"><ele>294.5</ele><time>2026-04-19T08:56:53.179Z</time></trkpt><trkpt lat="43.5747679" lon="11.2561488"><ele>295.0</ele><time>2026-04-19T08:56:54.181Z</time></trkpt><trkpt lat="43.5746878" lon="11.256276"><ele>295.5</ele><time>2026-04-19T08:56:55.178Z</time></trkpt><trkpt lat="43.5746174" lon="11.2563931"><ele>296.0</ele><time>2026-04-19T08:56:56.176Z</time></trkpt><trkpt lat="43.5745572" lon="11.2564947"><ele>298.8</ele><time>2026-04-19T08:56:57.179Z</time></trkpt><trkpt lat="43.5744901" lon="11.2565951"><ele>301.6</ele><time>2026-04-19T08:56:58.176Z</time></trkpt><trkpt lat="43.5743977" lon="11.2566861"><ele>304.4</ele><time>2026-04-19T08:56:59.178Z</time></trkpt><trkpt lat="43.5743076" lon="11.2567763"><ele>307.2</ele><time>2026-04-19T08:57:00.171Z</time></trkpt><trkpt lat="43.5742149" lon="11.2568778"><ele>310.0</ele><time>2026-04-19T08:57:01.179Z</time></trkpt><trkpt lat="43.574119" lon="11.2569702"><ele>310.0</ele><time>2026-04-19T08:57:02.157Z</time></trkpt><trkpt lat="43.5740559" lon="11.2570706"><ele>310.0</ele><time>2026-04-19T08:57:03.175Z</time></trkpt><trkpt lat="43.5740514" lon="11.2571904"><ele>310.0</ele><time>2026-04-19T08:57:04.175Z</time></trkpt><trkpt lat="43.5740892" lon="11.2573234"><ele>310.0</ele><time>2026-04-19T08:57:05.174Z</time></trkpt><trkpt lat="43.5741398" lon="11.257428"><ele>310.0</ele><time>2026-04-19T08:57:06.169Z</time></trkpt><trkpt lat="43.5741902" lon="11.2575326"><ele>311.0</ele><time>2026-04-19T08:57:07.178Z</time></trkpt><trkpt lat="43.5742229" lon="11.2576321"><ele>312.0</ele><time>2026-04-19T08:57:08.176Z</time></trkpt><trkpt lat="43.5742072" lon="11.2577876"><ele>313.0</ele><time>2026-04-19T08:57:10.171Z</time></trkpt><trkpt lat="43.5741511" lon="11.2578778"><ele>314.0</ele><time>2026-04-19T08:57:11.154Z</time></trkpt><trkpt lat="43.5740754" lon="11.257994"><ele>315.0</ele><time>2026-04-19T08:57:12.176Z</time></trkpt><trkpt lat="43.5740114" lon="11.2581053"><ele>317.25</ele><time>2026-04-19T08:57:13.181Z</time></trkpt><trkpt lat="43.5739775" lon="11.2582299"><ele>319.5</ele><time>2026-04-19T08:57:14.172Z</time></trkpt><trkpt lat="43.5739582" lon="11.2583856"><ele>321.75</ele><time>2026-04-19T08:57:15.17Z</time></trkpt><trkpt lat="43.5739892" lon="11.2585975"><ele>324.0</ele><time>2026-04-19T08:57:16.162Z</time></trkpt><trkpt lat="43.5740114" lon="11.2588"><ele>325.6</ele><time>2026-04-19T08:57:17.154Z</time></trkpt><trkpt lat="43.5740237" lon="11.2589934"><ele>327.2</ele><time>2026-04-19T08:57:18.169Z</time></trkpt><trkpt lat="43.57402" lon="11.2591516"><ele>328.8</ele><time>2026-04-19T08:57:19.154Z</time></trkpt><trkpt lat="43.5739932" lon="11.2592822"><ele>330.40000000000003</ele><time>2026-04-19T08:57:20.162Z</time></trkpt><trkpt lat="43.5739497" lon="11.259397"><ele>332.0</ele><time>2026-04-19T08:57:21.178Z</time></trkpt><trkpt lat="43.5738457" lon="11.2594836"><ele>332.0</ele><time>2026-04-19T08:57:22.183Z</time></trkpt><trkpt lat="43.5737116" lon="11.2595638"><ele>332.0</ele><time>2026-04-19T08:57:23.176Z</time></trkpt><trkpt lat="43.5735619" lon="11.2596402"><ele>332.0</ele><time>2026-04-19T08:57:24.167Z</time></trkpt><trkpt lat="43.5734149" lon="11.2596744"><ele>335.0</ele><time>2026-04-19T08:57:25.179Z</time></trkpt><trkpt lat="43.5732794" lon="11.2596928"><ele>338.0</ele><time>2026-04-19T08:57:26.169Z</time></trkpt><trkpt lat="43.5731511" lon="11.2597067"><ele>341.0</ele><time>2026-04-19T08:57:27.174Z</time></trkpt><trkpt lat="43.5730255" lon="11.259725"><ele>344.0</ele><time>2026-04-19T08:57:28.179Z</time></trkpt><trkpt lat="43.572915" lon="11.2597398"><ele>344.6</ele><time>2026-04-19T08:57:29.177Z</time></trkpt><trkpt lat="43.5728255" lon="11.2597539"><ele>345.2</ele><time>2026-04-19T08:57:30.181Z</time></trkpt><trkpt lat="43.5727386" lon="11.2597651"><ele>345.8</ele><time>2026-04-19T08:57:31.176Z</time></trkpt><trkpt lat="43.5726527" lon="11.2597813"><ele>346.40000000000003</ele><time>2026-04-19T08:57:32.175Z</time></trkpt><trkpt lat="43.5725649" lon="11.2598225"><ele>347.0</ele><time>2026-04-19T08:57:33.163Z</time></trkpt><trkpt lat="43.5724797" lon="11.2598739"><ele>349.0</ele><time>2026-04-19T08:57:34.157Z</time></trkpt><trkpt lat="43.5723974" lon="11.2599331"><ele>351.0</ele><time>2026-04-19T08:57:35.174Z</time></trkpt><trkpt lat="43.5723393" lon="11.2599817"><ele>353.0</ele><time>2026-04-19T08:57:36.181Z</time></trkpt><trkpt lat="43.5722213" lon="11.2599955"><ele>355.0</ele><time>2026-04-19T08:57:38.173Z</time></trkpt><trkpt lat="43.5721457" lon="11.2599536"><ele>357.0</ele><time>2026-04-19T08:57:39.165Z</time></trkpt><trkpt lat="43.5720515" lon="11.2599466"><ele>357.8</ele><time>2026-04-19T08:57:40.181Z</time></trkpt><trkpt lat="43.5719552" lon="11.2599844"><ele>358.6</ele><time>2026-04-19T08:57:41.175Z</time></trkpt><trkpt lat="43.5718596" lon="11.2600289"><ele>359.40000000000003</ele><time>2026-04-19T08:57:42.183Z</time></trkpt><trkpt lat="43.571761" lon="11.2600985"><ele>360.20000000000005</ele><time>2026-04-19T08:57:43.179Z</time></trkpt><trkpt lat="43.5716523" lon="11.2602032"><ele>361.0</ele><time>2026-04-19T08:57:44.179Z</time></trkpt><trkpt lat="43.5715789" lon="11.2603524"><ele>361.0</ele><time>2026-04-19T08:57:45.16Z</time></trkpt><trkpt lat="43.5714934" lon="11.2605059"><ele>361.0</ele><time>2026-04-19T08:57:46.171Z</time></trkpt><trkpt lat="43.5714142" lon="11.2606469"><ele>361.0</ele><time>2026-04-19T08:57:47.178Z</time></trkpt><trkpt lat="43.5713113" lon="11.2607422"><ele>361.0</ele><time>2026-04-19T08:57:48.177Z</time></trkpt><trkpt lat="43.5712176" lon="11.2607821"><ele>364.75</ele><time>2026-04-19T08:57:49.178Z</time></trkpt><trkpt lat="43.5711343" lon="11.2608153"><ele>368.5</ele><time>2026-04-19T08:57:50.176Z</time></trkpt><trkpt lat="43.5710292" lon="11.2608029"><ele>372.25</ele><time>2026-04-19T08:57:51.162Z</time></trkpt><trkpt lat="43.5709029" lon="11.2607619"><ele>376.0</ele><time>2026-04-19T08:57:52.169Z</time></trkpt><trkpt lat="43.5707667" lon="11.2607244"><ele>376.0</ele><time>2026-04-19T08:57:53.171Z</time></trkpt><trkpt lat="43.5706478" lon="11.2607013"><ele>376.0</ele><time>2026-04-19T08:57:54.163Z</time></trkpt><trkpt lat="43.5705357" lon="11.2606898"><ele>376.0</ele><time>2026-04-19T08:57:55.174Z</time></trkpt><trkpt lat="43.5704512" lon="11.2606769"><ele>376.0</ele><time>2026-04-19T08:57:56.172Z</time></trkpt><trkpt lat="43.5703545" lon="11.2606723"><ele>376.0</ele><time>2026-04-19T08:57:58.177Z</time></trkpt><trkpt lat="43.5703119" lon="11.2608032"><ele>375.4</ele><time>2026-04-19T08:58:01.18Z</time></trkpt><trkpt lat="43.5702999" lon="11.2608937"><ele>374.8</ele><time>2026-04-19T08:58:02.172Z</time></trkpt><trkpt lat="43.5703033" lon="11.2610087"><ele>374.2</ele><time>2026-04-19T08:58:03.174Z</time></trkpt><trkpt lat="43.5703119" lon="11.2611324"><ele>373.59999999999997</ele><time>2026-04-19T08:58:04.157Z</time></trkpt><trkpt lat="43.5703326" lon="11.2612723"><ele>373.0</ele><time>2026-04-19T08:58:05.174Z</time></trkpt><trkpt lat="43.570354" lon="11.2614184"><ele>375.0</ele><time>2026-04-19T08:58:06.177Z</time></trkpt><trkpt lat="43.5703676" lon="11.2615563"><ele>377.0</ele><time>2026-04-19T08:58:07.164Z</time></trkpt><trkpt lat="43.5703803" lon="11.2616902"><ele>379.0</ele><time>2026-04-19T08:58:08.168Z</time></trkpt><trkpt lat="43.5703991" lon="11.2618176"><ele>381.0</ele><time>2026-04-19T08:58:09.172Z</time></trkpt><trkpt lat="43.5704287" lon="11.2619501"><ele>383.0</ele><time>2026-04-19T08:58:10.184Z</time></trkpt><trkpt lat="43.570474" lon="11.2620855"><ele>383.0</ele><time>2026-04-19T08:58:11.18Z</time></trkpt><trkpt lat="43.5705167" lon="11.262223"><ele>383.0</ele><time>2026-04-19T08:58:12.175Z</time></trkpt><trkpt lat="43.57056" lon="11.2623612"><ele>383.0</ele><time>2026-04-19T08:58:13.176Z</time></trkpt><trkpt lat="43.5706004" lon="11.2624793"><ele>383.0</ele><time>2026-04-19T08:58:14.181Z</time></trkpt><trkpt lat="43.5706375" lon="11.262584"><ele>383.0</ele><time>2026-04-19T08:58:15.177Z</time></trkpt><trkpt lat="43.5706539" lon="11.2626987"><ele>383.1666666666667</ele><time>2026-04-19T08:58:16.177Z</time></trkpt><trkpt lat="43.5706602" lon="11.2628023"><ele>383.33333333333337</ele><time>2026-04-19T08:58:17.187Z</time></trkpt><trkpt lat="43.5706404" lon="11.2629624"><ele>383.5</ele><time>2026-04-19T08:58:19.177Z</time></trkpt><trkpt lat="43.5705899" lon="11.2630156"><ele>383.6666666666667</ele><time>2026-04-19T08:58:20.176Z</time></trkpt><trkpt lat="43.5705252" lon="11.2630468"><ele>383.8333333333333</ele><time>2026-04-19T08:58:21.178Z</time></trkpt><trkpt lat="43.5704446" lon="11.2630583"><ele>384.0</ele><time>2026-04-19T08:58:22.168Z</time></trkpt><trkpt lat="43.5703432" lon="11.2630506"><ele>382.3333333333333</ele><time>2026-04-19T08:58:23.172Z</time></trkpt><trkpt lat="43.5702458" lon="11.2630246"><ele>380.6666666666667</ele><time>2026-04-19T08:58:24.179Z</time></trkpt><trkpt lat="43.5701593" lon="11.2630124"><ele>379.0</ele><time>2026-04-19T08:58:25.182Z</time></trkpt><trkpt lat="43.5700816" lon="11.2630154"><ele>377.33333333333337</ele><time>2026-04-19T08:58:26.187Z</time></trkpt><trkpt lat="43.5700193" lon="11.2630403"><ele>375.6666666666667</ele><time>2026-04-19T08:58:27.181Z</time></trkpt><trkpt lat="43.5699636" lon="11.2631208"><ele>374.0</ele><time>2026-04-19T08:58:28.18Z</time></trkpt><trkpt lat="43.5699127" lon="11.2632269"><ele>374.0</ele><time>2026-04-19T08:58:29.177Z</time></trkpt><trkpt lat="43.5698744" lon="11.263325"><ele>374.0</ele><time>2026-04-19T08:58:30.183Z</time></trkpt><trkpt lat="43.5698597" lon="11.2634425"><ele>374.0</ele><time>2026-04-19T08:58:31.172Z</time></trkpt><trkpt lat="43.5698321" lon="11.2635369"><ele>374.0</ele><time>2026-04-19T08:58:32.19Z</time></trkpt><trkpt lat="43.5697819" lon="11.2635973"><ele>374.0</ele><time>2026-04-19T08:58:33.179Z</time></trkpt><trkpt lat="43.5697128" lon="11.2636337"><ele>374.0</ele><time>2026-04-19T08:58:34.188Z</time></trkpt><trkpt lat="43.5696377" lon="11.2636686"><ele>374.0</ele><time>2026-04-19T08:58:35.178Z</time></trkpt><trkpt lat="43.5695581" lon="11.2637027"><ele>374.0</ele><time>2026-04-19T08:58:36.165Z</time></trkpt><trkpt lat="43.5694785" lon="11.2637455"><ele>374.0</ele><time>2026-04-19T08:58:37.176Z</time></trkpt><trkpt lat="43.5694149" lon="11.2638168"><ele>374.0</ele><time>2026-04-19T08:58:38.166Z</time></trkpt><trkpt lat="43.5693839" lon="11.2639222"><ele>374.0</ele><time>2026-04-19T08:58:39.171Z</time></trkpt><trkpt lat="43.5693668" lon="11.2640287"><ele>374.0</ele><time>2026-04-19T08:58:40.174Z</time></trkpt><trkpt lat="43.5693416" lon="11.2641247"><ele>373.5</ele><time>2026-04-19T08:58:41.166Z</time></trkpt><trkpt lat="43.5693003" lon="11.2642135"><ele>373.0</ele><time>2026-04-19T08:58:42.18Z</time></trkpt><trkpt lat="43.5692471" lon="11.2642916"><ele>372.5</ele><time>2026-04-19T08:58:43.163Z</time></trkpt><trkpt lat="43.5691814" lon="11.2643598"><ele>372.0</ele><time>2026-04-19T08:58:44.186Z</time></trkpt><trkpt lat="43.5691105" lon="11.2644156"><ele>371.5</ele><time>2026-04-19T08:58:45.177Z</time></trkpt><trkpt lat="43.5690324" lon="11.2644361"><ele>371.0</ele><time>2026-04-19T08:58:46.165Z</time></trkpt><trkpt lat="43.5689487" lon="11.2644322"><ele>371.0</ele><time>2026-04-19T08:58:47.169Z</time></trkpt><trkpt lat="43.5688622" lon="11.2644043"><ele>371.0</ele><time>2026-04-19T08:58:48.186Z</time></trkpt><trkpt lat="43.5687815" lon="11.2643778"><ele>371.0</ele><time>2026-04-19T08:58:49.172Z</time></trkpt><trkpt lat="43.5687105" lon="11.2643745"><ele>371.0</ele><time>2026-04-19T08:58:50.179Z</time></trkpt><trkpt lat="43.5686274" lon="11.2643987"><ele>371.0</ele><time>2026-04-19T08:58:51.161Z</time></trkpt><trkpt lat="43.5685436" lon="11.264462"><ele>371.0</ele><time>2026-04-19T08:58:52.159Z</time></trkpt><trkpt lat="43.5684465" lon="11.2645569"><ele>369.75</ele><time>2026-04-19T08:58:53.168Z</time></trkpt><trkpt lat="43.5683459" lon="11.2646597"><ele>368.5</ele><time>2026-04-19T08:58:54.183Z</time></trkpt><trkpt lat="43.5682434" lon="11.2647529"><ele>367.25</ele><time>2026-04-19T08:58:55.164Z</time></trkpt><trkpt lat="43.5681502" lon="11.2648435"><ele>366.0</ele><time>2026-04-19T08:58:56.18Z</time></trkpt><trkpt lat="43.5680757" lon="11.2649423"><ele>364.25</ele><time>2026-04-19T08:58:57.172Z</time></trkpt><trkpt lat="43.5680205" lon="11.2650554"><ele>362.5</ele><time>2026-04-19T08:58:58.193Z</time></trkpt><trkpt lat="43.5679685" lon="11.2651919"><ele>360.75</ele><time>2026-04-19T08:58:59.193Z</time></trkpt><trkpt lat="43.5679178" lon="11.2653455"><ele>359.0</ele><time>2026-04-19T08:59:00.182Z</time></trkpt><trkpt lat="43.5678529" lon="11.2654936"><ele>360.75</ele><time>2026-04-19T08:59:01.177Z</time></trkpt><trkpt lat="43.567784" lon="11.265628"><ele>362.5</ele><time>2026-04-19T08:59:02.182Z</time></trkpt><trkpt lat="43.567722" lon="11.2657762"><ele>364.25</ele><time>2026-04-19T08:59:03.199Z</time></trkpt><trkpt lat="43.5676814" lon="11.2659229"><ele>366.0</ele><time>2026-04-19T08:59:04.182Z</time></trkpt><trkpt lat="43.5676514" lon="11.2660643"><ele>366.0</ele><time>2026-04-19T08:59:05.16Z</time></trkpt><trkpt lat="43.5676281" lon="11.2662083"><ele>366.0</ele><time>2026-04-19T08:59:06.18Z</time></trkpt><trkpt lat="43.5676223" lon="11.2663497"><ele>366.0</ele><time>2026-04-19T08:59:07.176Z</time></trkpt><trkpt lat="43.5676273" lon="11.2664936"><ele>366.0</ele><time>2026-04-19T08:59:08.174Z</time></trkpt><trkpt lat="43.5676364" lon="11.2666313"><ele>366.0</ele><time>2026-04-19T08:59:09.186Z</time></trkpt><trkpt lat="43.5676676" lon="11.2667505"><ele>366.25</ele><time>2026-04-19T08:59:10.177Z</time></trkpt><trkpt lat="43.5677244" lon="11.2668787"><ele>366.5</ele><time>2026-04-19T08:59:11.179Z</time></trkpt><trkpt lat="43.5677939" lon="11.2670127"><ele>366.75</ele><time>2026-04-19T08:59:12.173Z</time></trkpt><trkpt lat="43.5678641" lon="11.2671407"><ele>367.0</ele><time>2026-04-19T08:59:13.175Z</time></trkpt><trkpt lat="43.5679428" lon="11.2672588"><ele>367.66666666666663</ele><time>2026-04-19T08:59:14.18Z</time></trkpt><trkpt lat="43.5680073" lon="11.2673552"><ele>368.3333333333333</ele><time>2026-04-19T08:59:15.176Z</time></trkpt><trkpt lat="43.5680745" lon="11.2674332"><ele>369.0</ele><time>2026-04-19T08:59:17.183Z</time></trkpt><trkpt lat="43.5680214" lon="11.2674885"><ele>369.6666666666667</ele><time>2026-04-19T08:59:22.171Z</time></trkpt><trkpt lat="43.5679524" lon="11.2674712"><ele>370.33333333333337</ele><time>2026-04-19T08:59:23.188Z</time></trkpt><trkpt lat="43.5678602" lon="11.2674753"><ele>371.0</ele><time>2026-04-19T08:59:24.179Z</time></trkpt><trkpt lat="43.5677555" lon="11.2675117"><ele>371.0</ele><time>2026-04-19T08:59:25.172Z</time></trkpt><trkpt lat="43.5676368" lon="11.2675433"><ele>371.0</ele><time>2026-04-19T08:59:26.16Z</time></trkpt><trkpt lat="43.5675333" lon="11.2675722"><ele>371.0</ele><time>2026-04-19T08:59:27.175Z</time></trkpt><trkpt lat="43.5674348" lon="11.2676118"><ele>371.0</ele><time>2026-04-19T08:59:28.176Z</time></trkpt><trkpt lat="43.5673279" lon="11.2676699"><ele>371.0</ele><time>2026-04-19T08:59:29.18Z</time></trkpt><trkpt lat="43.5672138" lon="11.2677394"><ele>371.0</ele><time>2026-04-19T08:59:30.172Z</time></trkpt><trkpt lat="43.5670913" lon="11.267833"><ele>371.0</ele><time>2026-04-19T08:59:31.187Z</time></trkpt><trkpt lat="43.5669773" lon="11.2679115"><ele>371.0</ele><time>2026-04-19T08:59:32.183Z</time></trkpt><trkpt lat="43.5668745" lon="11.267987"><ele>371.0</ele><time>2026-04-19T08:59:33.183Z</time></trkpt><trkpt lat="43.5667727" lon="11.2680468"><ele>372.5</ele><time>2026-04-19T08:59:34.182Z</time></trkpt><trkpt lat="43.5666416" lon="11.2681062"><ele>374.0</ele><time>2026-04-19T08:59:35.183Z</time></trkpt><trkpt lat="43.5664911" lon="11.2681587"><ele>375.5</ele><time>2026-04-19T08:59:36.174Z</time></trkpt><trkpt lat="43.5663439" lon="11.2682048"><ele>377.0</ele><time>2026-04-19T08:59:37.177Z</time></trkpt><trkpt lat="43.5662129" lon="11.2682501"><ele>376.8</ele><time>2026-04-19T08:59:38.177Z</time></trkpt><trkpt lat="43.566095" lon="11.268294"><ele>376.6</ele><time>2026-04-19T08:59:39.177Z</time></trkpt><trkpt lat="43.5659886" lon="11.2683415"><ele>376.40000000000003</ele><time>2026-04-19T08:59:40.176Z</time></trkpt><trkpt lat="43.5659009" lon="11.2684088"><ele>376.20000000000005</ele><time>2026-04-19T08:59:41.183Z</time></trkpt><trkpt lat="43.5658263" lon="11.2684749"><ele>376.0</ele><time>2026-04-19T08:59:42.18Z</time></trkpt><trkpt lat="43.5657648" lon="11.2685377"><ele>376.0</ele><time>2026-04-19T08:59:43.174Z</time></trkpt><trkpt lat="43.5657124" lon="11.2685949"><ele>376.0</ele><time>2026-04-19T08:59:44.179Z</time></trkpt><trkpt lat="43.5656419" lon="11.268674"><ele>376.0</ele><time>2026-04-19T08:59:46.176Z</time></trkpt><trkpt lat="43.5655791" lon="11.2687258"><ele>376.0</ele><time>2026-04-19T08:59:49.175Z</time></trkpt><trkpt lat="43.5655653" lon="11.2688782"><ele>376.0</ele><time>2026-04-19T08:59:52.171Z</time></trkpt><trkpt lat="43.5656533" lon="11.268984"><ele>376.66666666666663</ele><time>2026-04-19T08:59:54.18Z</time></trkpt><trkpt lat="43.5657167" lon="11.2690215"><ele>377.3333333333333</ele><time>2026-04-19T08:59:55.173Z</time></trkpt><trkpt lat="43.565792" lon="11.2690458"><ele>378.0</ele><time>2026-04-19T08:59:56.168Z</time></trkpt><trkpt lat="43.5658722" lon="11.2690646"><ele>378.6666666666667</ele><time>2026-04-19T08:59:57.16Z</time></trkpt><trkpt lat="43.5659631" lon="11.2690801"><ele>379.33333333333337</ele><time>2026-04-19T08:59:58.168Z</time></trkpt><trkpt lat="43.5660499" lon="11.2690891"><ele>380.0</ele><time>2026-04-19T08:59:59.187Z</time></trkpt><trkpt lat="43.5661294" lon="11.2690923"><ele>381.5</ele><time>2026-04-19T09:00:00.18Z</time></trkpt><trkpt lat="43.5662077" lon="11.2690891"><ele>383.0</ele><time>2026-04-19T09:00:01.164Z</time></trkpt><trkpt lat="43.5662819" lon="11.2690977"><ele>384.5</ele><time>2026-04-19T09:00:02.174Z</time></trkpt><trkpt lat="43.5663498" lon="11.2691322"><ele>386.0</ele><time>2026-04-19T09:00:03.175Z</time></trkpt><trkpt lat="43.5664191" lon="11.2691906"><ele>387.49999999999994</ele><time>2026-04-19T09:00:04.186Z</time></trkpt><trkpt lat="43.5665104" lon="11.2692617"><ele>389.0</ele><time>2026-04-19T09:00:05.159Z</time></trkpt><trkpt lat="43.5666101" lon="11.2693552"><ele>389.0</ele><time>2026-04-19T09:00:06.157Z</time></trkpt><trkpt lat="43.5667067" lon="11.2694562"><ele>389.0</ele><time>2026-04-19T09:00:07.167Z</time></trkpt><trkpt lat="43.5667996" lon="11.2695623"><ele>389.0</ele><time>2026-04-19T09:00:08.179Z</time></trkpt><trkpt lat="43.5668912" lon="11.2696665"><ele>389.0</ele><time>2026-04-19T09:00:09.159Z</time></trkpt><trkpt lat="43.5669982" lon="11.2697419"><ele>392.75</ele><time>2026-04-19T09:00:10.179Z</time></trkpt><trkpt lat="43.5671205" lon="11.2697977"><ele>396.5</ele><time>2026-04-19T09:00:11.168Z</time></trkpt><trkpt lat="43.567256" lon="11.2698484"><ele>400.25</ele><time>2026-04-19T09:00:12.159Z</time></trkpt><trkpt lat="43.5673918" lon="11.2699122"><ele>404.0</ele><time>2026-04-19T09:00:13.154Z</time></trkpt><trkpt lat="43.5675304" lon="11.2699987"><ele>404.0</ele><time>2026-04-19T09:00:14.164Z</time></trkpt><trkpt lat="43.567669" lon="11.2700961"><ele>404.0</ele><time>2026-04-19T09:00:15.175Z</time></trkpt><trkpt lat="43.5678221" lon="11.2702217"><ele>404.0</ele><time>2026-04-19T09:00:16.187Z</time></trkpt><trkpt lat="43.5679758" lon="11.2703405"><ele>407.0</ele><time>2026-04-19T09:00:17.172Z</time></trkpt><trkpt lat="43.5681144" lon="11.2704561"><ele>410.0</ele><time>2026-04-19T09:00:18.175Z</time></trkpt><trkpt lat="43.5682396" lon="11.2705524"><ele>413.0</ele><time>2026-04-19T09:00:19.175Z</time></trkpt><trkpt lat="43.5683375" lon="11.2706386"><ele>416.0</ele><time>2026-04-19T09:00:20.169Z</time></trkpt><trkpt lat="43.5684354" lon="11.2707154"><ele>416.6</ele><time>2026-04-19T09:00:21.168Z</time></trkpt><trkpt lat="43.5685331" lon="11.2707761"><ele>417.20000000000005</ele><time>2026-04-19T09:00:22.16Z</time></trkpt><trkpt lat="43.5686285" lon="11.2708167"><ele>417.79999999999995</ele><time>2026-04-19T09:00:23.177Z</time></trkpt><trkpt lat="43.5687212" lon="11.2708349"><ele>418.4</ele><time>2026-04-19T09:00:24.175Z</time></trkpt><trkpt lat="43.5688254" lon="11.2708412"><ele>419.0</ele><time>2026-04-19T09:00:25.174Z</time></trkpt><trkpt lat="43.5689547" lon="11.2708402"><ele>423.25</ele><time>2026-04-19T09:00:26.159Z</time></trkpt><trkpt lat="43.5691055" lon="11.2708343"><ele>427.5</ele><time>2026-04-19T09:00:27.177Z</time></trkpt><trkpt lat="43.5692586" lon="11.2708259"><ele>431.75</ele><time>2026-04-19T09:00:28.171Z</time></trkpt><trkpt lat="43.5694032" lon="11.2708109"><ele>436.0</ele><time>2026-04-19T09:00:29.178Z</time></trkpt><trkpt lat="43.5695214" lon="11.2707904"><ele>437.8</ele><time>2026-04-19T09:00:30.177Z</time></trkpt><trkpt lat="43.5696236" lon="11.2707753"><ele>439.6</ele><time>2026-04-19T09:00:31.172Z</time></trkpt><trkpt lat="43.5697275" lon="11.27077"><ele>441.4</ele><time>2026-04-19T09:00:32.182Z</time></trkpt><trkpt lat="43.5698421" lon="11.2707766"><ele>443.2</ele><time>2026-04-19T09:00:33.171Z</time></trkpt><trkpt lat="43.5699683" lon="11.2708015"><ele>445.0</ele><time>2026-04-19T09:00:34.182Z</time></trkpt><trkpt lat="43.5701026" lon="11.2708257"><ele>445.0</ele><time>2026-04-19T09:00:35.177Z</time></trkpt><trkpt lat="43.5702329" lon="11.270853"><ele>445.0</ele><time>2026-04-19T09:00:36.177Z</time></trkpt><trkpt lat="43.5703563" lon="11.27086"><ele>445.0</ele><time>2026-04-19T09:00:37.178Z</time></trkpt><trkpt lat="43.5704878" lon="11.270863"><ele>445.0</ele><time>2026-04-19T09:00:38.18Z</time></trkpt><trkpt lat="43.5706265" lon="11.2708419"><ele>447.25</ele><time>2026-04-19T09:00:39.171Z</time></trkpt><trkpt lat="43.5707608" lon="11.2708094"><ele>449.5</ele><time>2026-04-19T09:00:40.17Z</time></trkpt><trkpt lat="43.5709004" lon="11.2707664"><ele>451.75</ele><time>2026-04-19T09:00:41.178Z</time></trkpt><trkpt lat="43.5710344" lon="11.2707243"><ele>454.0</ele><time>2026-04-19T09:00:42.184Z</time></trkpt><trkpt lat="43.5711585" lon="11.2706987"><ele>455.6666666666667</ele><time>2026-04-19T09:00:43.169Z</time></trkpt><trkpt lat="43.5712609" lon="11.2706972"><ele>457.33333333333337</ele><time>2026-04-19T09:00:44.165Z</time></trkpt><trkpt lat="43.5713434" lon="11.2706993"><ele>459.0</ele><time>2026-04-19T09:00:45.185Z</time></trkpt><trkpt lat="43.5714212" lon="11.2707101"><ele>460.66666666666663</ele><time>2026-04-19T09:00:46.174Z</time></trkpt><trkpt lat="43.5714935" lon="11.2707218"><ele>462.3333333333333</ele><time>2026-04-19T09:00:47.157Z</time></trkpt><trkpt lat="43.5715676" lon="11.2707448"><ele>464.0</ele><time>2026-04-19T09:00:48.188Z</time></trkpt><trkpt lat="43.571649" lon="11.2707662"><ele>464.0</ele><time>2026-04-19T09:00:49.185Z</time></trkpt><trkpt lat="43.5717402" lon="11.2707972"><ele>464.0</ele><time>2026-04-19T09:00:50.173Z</time></trkpt><trkpt lat="43.5718344" lon="11.2708031"><ele>464.0</ele><time>2026-04-19T09:00:51.183Z</time></trkpt><trkpt lat="43.5719527" lon="11.2708081"><ele>464.0</ele><time>2026-04-19T09:00:52.176Z</time></trkpt><trkpt lat="43.5720916" lon="11.2707997"><ele>464.0</ele><time>2026-04-19T09:00:53.182Z</time></trkpt><trkpt lat="43.5722401" lon="11.270792"><ele>466.25</ele><time>2026-04-19T09:00:54.17Z</time></trkpt><trkpt lat="43.5723802" lon="11.270784"><ele>468.5</ele><time>2026-04-19T09:00:55.175Z</time></trkpt><trkpt lat="43.5725049" lon="11.2707703"><ele>470.75</ele><time>2026-04-19T09:00:56.176Z</time></trkpt><trkpt lat="43.5726091" lon="11.2707326"><ele>473.0</ele><time>2026-04-19T09:00:57.18Z</time></trkpt><trkpt lat="43.5727048" lon="11.2706896"><ele>473.0</ele><time>2026-04-19T09:00:58.178Z</time></trkpt><trkpt lat="43.5727894" lon="11.270623"><ele>472.99999999999994</ele><time>2026-04-19T09:00:59.164Z</time></trkpt><trkpt lat="43.5728618" lon="11.2705456"><ele>472.99999999999994</ele><time>2026-04-19T09:01:00.164Z</time></trkpt><trkpt lat="43.5729314" lon="11.2704392"><ele>473.0</ele><time>2026-04-19T09:01:01.172Z</time></trkpt><trkpt lat="43.5730112" lon="11.2703441"><ele>473.0</ele><time>2026-04-19T09:01:02.173Z</time></trkpt><trkpt lat="43.5730932" lon="11.2702531"><ele>476.49999999999994</ele><time>2026-04-19T09:01:03.18Z</time></trkpt><trkpt lat="43.5731838" lon="11.2701686"><ele>480.0</ele><time>2026-04-19T09:01:04.177Z</time></trkpt><trkpt lat="43.5732531" lon="11.2700896"><ele>483.5</ele><time>2026-04-19T09:01:05.16Z</time></trkpt><trkpt lat="43.5733154" lon="11.2700147"><ele>487.0</ele><time>2026-04-19T09:01:06.174Z</time></trkpt><trkpt lat="43.5733732" lon="11.2699541"><ele>490.49999999999994</ele><time>2026-04-19T09:01:07.177Z</time></trkpt><trkpt lat="43.5734452" lon="11.2699189"><ele>494.0</ele><time>2026-04-19T09:01:08.179Z</time></trkpt><trkpt lat="43.5735133" lon="11.2699032"><ele>493.99999999999994</ele><time>2026-04-19T09:01:09.178Z</time></trkpt><trkpt lat="43.573584" lon="11.2699142"><ele>494.0</ele><time>2026-04-19T09:01:10.175Z</time></trkpt><trkpt lat="43.5736569" lon="11.2699328"><ele>494.0</ele><time>2026-04-19T09:01:11.185Z</time></trkpt><trkpt lat="43.5737305" lon="11.2699528"><ele>494.0</ele><time>2026-04-19T09:01:12.183Z</time></trkpt><trkpt lat="43.5738074" lon="11.269978"><ele>493.99999999999994</ele><time>2026-04-19T09:01:13.177Z</time></trkpt><trkpt lat="43.5738872" lon="11.2700128"><ele>494.0</ele><time>2026-04-19T09:01:14.181Z</time></trkpt><trkpt lat="43.5739699" lon="11.2700472"><ele>496.79999999999995</ele><time>2026-04-19T09:01:15.184Z</time></trkpt><trkpt lat="43.5740433" lon="11.2700928"><ele>499.59999999999997</ele><time>2026-04-19T09:01:16.166Z</time></trkpt><trkpt lat="43.5741127" lon="11.2701631"><ele>502.4</ele><time>2026-04-19T09:01:17.173Z</time></trkpt><trkpt lat="43.574197" lon="11.2702374"><ele>505.2</ele><time>2026-04-19T09:01:18.181Z</time></trkpt><trkpt lat="43.574286" lon="11.2703186"><ele>508.0</ele><time>2026-04-19T09:01:19.164Z</time></trkpt><trkpt lat="43.5743746" lon="11.2703959"><ele>508.0</ele><time>2026-04-19T09:01:20.169Z</time></trkpt><trkpt lat="43.574465" lon="11.2704709"><ele>507.99999999999994</ele><time>2026-04-19T09:01:21.18Z</time></trkpt><trkpt lat="43.5745541" lon="11.2705504"><ele>507.99999999999994</ele><time>2026-04-19T09:01:22.181Z</time></trkpt><trkpt lat="43.5746341" lon="11.2706254"><ele>508.0</ele><time>2026-04-19T09:01:23.184Z</time></trkpt><trkpt lat="43.5746985" lon="11.2706935"><ele>508.0</ele><time>2026-04-19T09:01:24.186Z</time></trkpt><trkpt lat="43.574755" lon="11.270769"><ele>508.79999999999995</ele><time>2026-04-19T09:01:25.175Z</time></trkpt><trkpt lat="43.5747976" lon="11.2708729"><ele>509.59999999999997</ele><time>2026-04-19T09:01:26.18Z</time></trkpt><trkpt lat="43.5748317" lon="11.271004"><ele>510.40000000000003</ele><time>2026-04-19T09:01:27.188Z</time></trkpt><trkpt lat="43.5748623" lon="11.271144"><ele>511.20000000000005</ele><time>2026-04-19T09:01:28.182Z</time></trkpt><trkpt lat="43.5748962" lon="11.2712916"><ele>512.0</ele><time>2026-04-19T09:01:29.177Z</time></trkpt><trkpt lat="43.5749368" lon="11.2714332"><ele>512.4</ele><time>2026-04-19T09:01:30.179Z</time></trkpt><trkpt lat="43.5749874" lon="11.2715739"><ele>512.8000000000001</ele><time>2026-04-19T09:01:31.18Z</time></trkpt><trkpt lat="43.575039" lon="11.2717149"><ele>513.2</ele><time>2026-04-19T09:01:32.188Z</time></trkpt><trkpt lat="43.5750785" lon="11.2718487"><ele>513.6</ele><time>2026-04-19T09:01:33.178Z</time></trkpt><trkpt lat="43.5751178" lon="11.2719746"><ele>514.0</ele><time>2026-04-19T09:01:34.182Z</time></trkpt><trkpt lat="43.5751703" lon="11.2720906"><ele>514.0</ele><time>2026-04-19T09:01:35.17Z</time></trkpt><trkpt lat="43.5752282" lon="11.2721877"><ele>514.0</ele><time>2026-04-19T09:01:36.177Z</time></trkpt><trkpt lat="43.5753088" lon="11.2722607"><ele>514.0</ele><time>2026-04-19T09:01:37.178Z</time></trkpt><trkpt lat="43.5754148" lon="11.2723219"><ele>514.0</ele><time>2026-04-19T09:01:38.169Z</time></trkpt><trkpt lat="43.575522" lon="11.2723747"><ele>514.0</ele><time>2026-04-19T09:01:39.177Z</time></trkpt><trkpt lat="43.5756278" lon="11.2724394"><ele>514.0</ele><time>2026-04-19T09:01:40.176Z</time></trkpt><trkpt lat="43.5757252" lon="11.2725013"><ele>514.0</ele><time>2026-04-19T09:01:41.17Z</time></trkpt><trkpt lat="43.5758146" lon="11.2725784"><ele>514.0</ele><time>2026-04-19T09:01:42.164Z</time></trkpt><trkpt lat="43.5759094" lon="11.2726613"><ele>514.0</ele><time>2026-04-19T09:01:43.175Z</time></trkpt><trkpt lat="43.5760153" lon="11.2727716"><ele>514.0</ele><time>2026-04-19T09:01:44.188Z</time></trkpt><trkpt lat="43.5761256" lon="11.2728927"><ele>514.0</ele><time>2026-04-19T09:01:45.172Z</time></trkpt><trkpt lat="43.5762465" lon="11.273007"><ele>514.0</ele><time>2026-04-19T09:01:46.176Z</time></trkpt><trkpt lat="43.5763718" lon="11.2731055"><ele>514.0</ele><time>2026-04-19T09:01:47.183Z</time></trkpt><trkpt lat="43.5765018" lon="11.2732056"><ele>513.5</ele><time>2026-04-19T09:01:48.179Z</time></trkpt><trkpt lat="43.5766243" lon="11.2732879"><ele>513.0</ele><time>2026-04-19T09:01:49.177Z</time></trkpt><trkpt lat="43.5767502" lon="11.2733635"><ele>512.5</ele><time>2026-04-19T09:01:50.177Z</time></trkpt><trkpt lat="43.576872" lon="11.2734305"><ele>512.0</ele><time>2026-04-19T09:01:51.176Z</time></trkpt><trkpt lat="43.5769919" lon="11.2734876"><ele>509.0</ele><time>2026-04-19T09:01:52.177Z</time></trkpt><trkpt lat="43.5770987" lon="11.2735565"><ele>506.0</ele><time>2026-04-19T09:01:53.172Z</time></trkpt><trkpt lat="43.5772018" lon="11.2736339"><ele>503.0</ele><time>2026-04-19T09:01:54.173Z</time></trkpt><trkpt lat="43.5773087" lon="11.2737014"><ele>500.0</ele><time>2026-04-19T09:01:55.175Z</time></trkpt><trkpt lat="43.5774184" lon="11.2737533"><ele>500.0</ele><time>2026-04-19T09:01:56.179Z</time></trkpt><trkpt lat="43.5775302" lon="11.2738023"><ele>500.0</ele><time>2026-04-19T09:01:57.165Z</time></trkpt><trkpt lat="43.577628" lon="11.2738353"><ele>500.0</ele><time>2026-04-19T09:01:58.176Z</time></trkpt><trkpt lat="43.5777232" lon="11.2738603"><ele>500.0</ele><time>2026-04-19T09:01:59.179Z</time></trkpt><trkpt lat="43.5778075" lon="11.2738757"><ele>500.0</ele><time>2026-04-19T09:02:00.183Z</time></trkpt><trkpt lat="43.5778743" lon="11.2738814"><ele>499.4</ele><time>2026-04-19T09:02:01.182Z</time></trkpt><trkpt lat="43.5779797" lon="11.2738753"><ele>498.8</ele><time>2026-04-19T09:02:03.164Z</time></trkpt><trkpt lat="43.5780402" lon="11.2739595"><ele>498.20000000000005</ele><time>2026-04-19T09:02:05.188Z</time></trkpt><trkpt lat="43.5780048" lon="11.2740707"><ele>497.6</ele><time>2026-04-19T09:02:07.183Z</time></trkpt><trkpt lat="43.5779348" lon="11.2741315"><ele>497.0</ele><time>2026-04-19T09:02:08.172Z</time></trkpt><trkpt lat="43.5778674" lon="11.274226"><ele>500.0</ele><time>2026-04-19T09:02:09.175Z</time></trkpt><trkpt lat="43.5777784" lon="11.2743393"><ele>503.0</ele><time>2026-04-19T09:02:10.176Z</time></trkpt><trkpt lat="43.577685" lon="11.2744657"><ele>506.0</ele><time>2026-04-19T09:02:11.176Z</time></trkpt><trkpt lat="43.577578" lon="11.274602"><ele>509.0</ele><time>2026-04-19T09:02:12.164Z</time></trkpt><trkpt lat="43.577468" lon="11.274729"><ele>509.5</ele><time>2026-04-19T09:02:13.163Z</time></trkpt><trkpt lat="43.5773614" lon="11.274848"><ele>510.0</ele><time>2026-04-19T09:02:14.167Z</time></trkpt><trkpt lat="43.5772522" lon="11.2749656"><ele>510.5</ele><time>2026-04-19T09:02:15.174Z</time></trkpt><trkpt lat="43.5771463" lon="11.2750849"><ele>511.0</ele><time>2026-04-19T09:02:16.177Z</time></trkpt><trkpt lat="43.5770346" lon="11.2751937"><ele>514.75</ele><time>2026-04-19T09:02:17.175Z</time></trkpt><trkpt lat="43.5769247" lon="11.2752929"><ele>518.5</ele><time>2026-04-19T09:02:18.173Z</time></trkpt><trkpt lat="43.5768088" lon="11.2753859"><ele>522.25</ele><time>2026-04-19T09:02:19.171Z</time></trkpt><trkpt lat="43.5766906" lon="11.2754775"><ele>526.0</ele><time>2026-04-19T09:02:20.172Z</time></trkpt><trkpt lat="43.576577" lon="11.2755644"><ele>526.75</ele><time>2026-04-19T09:02:21.175Z</time></trkpt><trkpt lat="43.5764637" lon="11.2756545"><ele>527.5</ele><time>2026-04-19T09:02:22.182Z</time></trkpt><trkpt lat="43.5763467" lon="11.2757509"><ele>528.25</ele><time>2026-04-19T09:02:23.168Z</time></trkpt><trkpt lat="43.5762233" lon="11.2758488"><ele>529.0</ele><time>2026-04-19T09:02:24.172Z</time></trkpt><trkpt lat="43.5761044" lon="11.2759364"><ele>529.0</ele><time>2026-04-19T09:02:25.158Z</time></trkpt><trkpt lat="43.5759816" lon="11.2760215"><ele>529.0</ele><time>2026-04-19T09:02:26.168Z</time></trkpt><trkpt lat="43.5758492" lon="11.2760922"><ele>529.0</ele><time>2026-04-19T09:02:27.172Z</time></trkpt><trkpt lat="43.5757105" lon="11.2761632"><ele>529.0</ele><time>2026-04-19T09:02:28.182Z</time></trkpt><trkpt lat="43.5755722" lon="11.2762462"><ele>529.0</ele><time>2026-04-19T09:02:29.171Z</time></trkpt><trkpt lat="43.5754289" lon="11.2763219"><ele>529.0</ele><time>2026-04-19T09:02:30.179Z</time></trkpt><trkpt lat="43.5752796" lon="11.2764037"><ele>529.0</ele><time>2026-04-19T09:02:31.176Z</time></trkpt><trkpt lat="43.5751342" lon="11.2764887"><ele>525.6666666666667</ele><time>2026-04-19T09:02:32.178Z</time></trkpt><trkpt lat="43.5749804" lon="11.2765745"><ele>522.3333333333334</ele><time>2026-04-19T09:02:33.173Z</time></trkpt><trkpt lat="43.5748237" lon="11.2766701"><ele>519.0</ele><time>2026-04-19T09:02:34.177Z</time></trkpt><trkpt lat="43.5746752" lon="11.2767698"><ele>519.0</ele><time>2026-04-19T09:02:35.172Z</time></trkpt><trkpt lat="43.5745516" lon="11.2768495"><ele>519.0</ele><time>2026-04-19T09:02:36.172Z</time></trkpt><trkpt lat="43.5744416" lon="11.2769164"><ele>519.0</ele><time>2026-04-19T09:02:37.185Z</time></trkpt><trkpt lat="43.5743403" lon="11.2769774"><ele>519.0</ele><time>2026-04-19T09:02:38.179Z</time></trkpt><trkpt lat="43.5742443" lon="11.2770418"><ele>517.75</ele><time>2026-04-19T09:02:39.162Z</time></trkpt><trkpt lat="43.5741439" lon="11.2771216"><ele>516.5</ele><time>2026-04-19T09:02:40.172Z</time></trkpt><trkpt lat="43.5740504" lon="11.277203"><ele>515.25</ele><time>2026-04-19T09:02:41.177Z</time></trkpt><trkpt lat="43.5739551" lon="11.2772953"><ele>514.0</ele><time>2026-04-19T09:02:42.176Z</time></trkpt><trkpt lat="43.5738604" lon="11.2774082"><ele>514.0</ele><time>2026-04-19T09:02:43.179Z</time></trkpt><trkpt lat="43.5737615" lon="11.2775385"><ele>514.0</ele><time>2026-04-19T09:02:44.179Z</time></trkpt><trkpt lat="43.5736646" lon="11.2776829"><ele>514.0</ele><time>2026-04-19T09:02:45.154Z</time></trkpt><trkpt lat="43.5735713" lon="11.2778318"><ele>514.0</ele><time>2026-04-19T09:02:46.169Z</time></trkpt><trkpt lat="43.5734772" lon="11.2779681"><ele>512.0</ele><time>2026-04-19T09:02:47.161Z</time></trkpt><trkpt lat="43.5733747" lon="11.2780857"><ele>510.0</ele><time>2026-04-19T09:02:48.166Z</time></trkpt><trkpt lat="43.5732595" lon="11.2781814"><ele>508.0</ele><time>2026-04-19T09:02:49.16Z</time></trkpt><trkpt lat="43.5731324" lon="11.2782603"><ele>506.0</ele><time>2026-04-19T09:02:50.18Z</time></trkpt><trkpt lat="43.5730063" lon="11.2783401"><ele>506.0</ele><time>2026-04-19T09:02:51.164Z</time></trkpt><trkpt lat="43.5728962" lon="11.2784361"><ele>506.0</ele><time>2026-04-19T09:02:52.19Z</time></trkpt><trkpt lat="43.5727958" lon="11.2785581"><ele>506.0</ele><time>2026-04-19T09:02:53.162Z</time></trkpt><trkpt lat="43.5727024" lon="11.2786857"><ele>506.0</ele><time>2026-04-19T09:02:54.176Z</time></trkpt><trkpt lat="43.572614" lon="11.2788019"><ele>504.8</ele><time>2026-04-19T09:02:55.169Z</time></trkpt><trkpt lat="43.5725284" lon="11.2789167"><ele>503.6</ele><time>2026-04-19T09:02:56.179Z</time></trkpt><trkpt lat="43.5724515" lon="11.2790308"><ele>502.4</ele><time>2026-04-19T09:02:57.176Z</time></trkpt><trkpt lat="43.5723866" lon="11.279149"><ele>501.2</ele><time>2026-04-19T09:02:58.174Z</time></trkpt><trkpt lat="43.5723288" lon="11.2792694"><ele>500.0</ele><time>2026-04-19T09:02:59.171Z</time></trkpt><trkpt lat="43.5722809" lon="11.279388"><ele>499.6</ele><time>2026-04-19T09:03:00.175Z</time></trkpt><trkpt lat="43.5722417" lon="11.2795105"><ele>499.2</ele><time>2026-04-19T09:03:01.177Z</time></trkpt><trkpt lat="43.5721921" lon="11.2796418"><ele>498.79999999999995</ele><time>2026-04-19T09:03:02.18Z</time></trkpt><trkpt lat="43.5721437" lon="11.2797692"><ele>498.4</ele><time>2026-04-19T09:03:03.179Z</time></trkpt><trkpt lat="43.5720844" lon="11.2798999"><ele>498.0</ele><time>2026-04-19T09:03:04.185Z</time></trkpt><trkpt lat="43.5720076" lon="11.2800289"><ele>495.25</ele><time>2026-04-19T09:03:05.179Z</time></trkpt><trkpt lat="43.571905" lon="11.2801047"><ele>492.5</ele><time>2026-04-19T09:03:06.175Z</time></trkpt><trkpt lat="43.5717839" lon="11.2801475"><ele>489.75</ele><time>2026-04-19T09:03:07.156Z</time></trkpt><trkpt lat="43.5716319" lon="11.2801763"><ele>487.0</ele><time>2026-04-19T09:03:08.194Z</time></trkpt><trkpt lat="43.5714855" lon="11.2802147"><ele>487.0</ele><time>2026-04-19T09:03:09.175Z</time></trkpt><trkpt lat="43.5713514" lon="11.28025"><ele>487.0</ele><time>2026-04-19T09:03:10.166Z</time></trkpt><trkpt lat="43.5712326" lon="11.2802771"><ele>487.0</ele><time>2026-04-19T09:03:11.176Z</time></trkpt><trkpt lat="43.5711109" lon="11.2802681"><ele>487.0</ele><time>2026-04-19T09:03:12.172Z</time></trkpt><trkpt lat="43.5709955" lon="11.2802242"><ele>484.40000000000003</ele><time>2026-04-19T09:03:13.168Z</time></trkpt><trkpt lat="43.5708907" lon="11.2801684"><ele>481.80000000000007</ele><time>2026-04-19T09:03:14.172Z</time></trkpt><trkpt lat="43.5708169" lon="11.2801209"><ele>479.2</ele><time>2026-04-19T09:03:15.179Z</time></trkpt><trkpt lat="43.5706822" lon="11.2800935"><ele>476.6</ele><time>2026-04-19T09:03:17.175Z</time></trkpt><trkpt lat="43.5706059" lon="11.2801256"><ele>474.0</ele><time>2026-04-19T09:03:18.172Z</time></trkpt><trkpt lat="43.570568" lon="11.2802346"><ele>474.0</ele><time>2026-04-19T09:03:19.179Z</time></trkpt><trkpt lat="43.5705613" lon="11.2803901"><ele>474.0</ele><time>2026-04-19T09:03:20.183Z</time></trkpt><trkpt lat="43.5705757" lon="11.2805516"><ele>474.0</ele><time>2026-04-19T09:03:21.193Z</time></trkpt><trkpt lat="43.570607" lon="11.2806972"><ele>474.0</ele><time>2026-04-19T09:03:22.175Z</time></trkpt><trkpt lat="43.5706519" lon="11.2808353"><ele>472.25</ele><time>2026-04-19T09:03:23.176Z</time></trkpt><trkpt lat="43.5707041" lon="11.2809545"><ele>470.5</ele><time>2026-04-19T09:03:24.184Z</time></trkpt><trkpt lat="43.5707985" lon="11.2810472"><ele>468.75</ele><time>2026-04-19T09:03:25.165Z</time></trkpt><trkpt lat="43.5709192" lon="11.2811293"><ele>467.0</ele><time>2026-04-19T09:03:26.173Z</time></trkpt><trkpt lat="43.5710563" lon="11.2812199"><ele>467.0</ele><time>2026-04-19T09:03:27.163Z</time></trkpt><trkpt lat="43.5711821" lon="11.2813046"><ele>467.0</ele><time>2026-04-19T09:03:28.161Z</time></trkpt><trkpt lat="43.5712896" lon="11.281391"><ele>467.0</ele><time>2026-04-19T09:03:29.158Z</time></trkpt><trkpt lat="43.5713802" lon="11.2814808"><ele>467.0</ele><time>2026-04-19T09:03:30.164Z</time></trkpt><trkpt lat="43.5714474" lon="11.2815879"><ele>464.75</ele><time>2026-04-19T09:03:31.17Z</time></trkpt><trkpt lat="43.571495" lon="11.2817105"><ele>462.5</ele><time>2026-04-19T09:03:32.169Z</time></trkpt><trkpt lat="43.5714985" lon="11.2818802"><ele>460.25</ele><time>2026-04-19T09:03:33.162Z</time></trkpt><trkpt lat="43.5714504" lon="11.282055"><ele>458.0</ele><time>2026-04-19T09:03:34.16Z</time></trkpt><trkpt lat="43.5713694" lon="11.282241"><ele>455.3333333333333</ele><time>2026-04-19T09:03:35.167Z</time></trkpt><trkpt lat="43.5712806" lon="11.2824333"><ele>452.66666666666663</ele><time>2026-04-19T09:03:36.161Z</time></trkpt><trkpt lat="43.5711936" lon="11.2826235"><ele>450.0</ele><time>2026-04-19T09:03:37.162Z</time></trkpt><trkpt lat="43.5710982" lon="11.2828191"><ele>450.0</ele><time>2026-04-19T09:03:38.163Z</time></trkpt><trkpt lat="43.5710075" lon="11.2830046"><ele>450.0</ele><time>2026-04-19T09:03:39.162Z</time></trkpt><trkpt lat="43.5709146" lon="11.2831958"><ele>450.0</ele><time>2026-04-19T09:03:40.158Z</time></trkpt><trkpt lat="43.5708281" lon="11.28338"><ele>449.5</ele><time>2026-04-19T09:03:41.156Z</time></trkpt><trkpt lat="43.570751" lon="11.2835425"><ele>449.0</ele><time>2026-04-19T09:03:42.155Z</time></trkpt><trkpt lat="43.5706913" lon="11.2836873"><ele>448.5</ele><time>2026-04-19T09:03:43.165Z</time></trkpt><trkpt lat="43.5706362" lon="11.2838269"><ele>448.0</ele><time>2026-04-19T09:03:44.162Z</time></trkpt><trkpt lat="43.5705826" lon="11.2839711"><ele>446.0</ele><time>2026-04-19T09:03:45.163Z</time></trkpt><trkpt lat="43.5705144" lon="11.284095"><ele>444.0</ele><time>2026-04-19T09:03:46.158Z</time></trkpt><trkpt lat="43.5704196" lon="11.2842055"><ele>442.0</ele><time>2026-04-19T09:03:47.155Z</time></trkpt><trkpt lat="43.5702906" lon="11.2842975"><ele>440.0</ele><time>2026-04-19T09:03:48.178Z</time></trkpt><trkpt lat="43.5701442" lon="11.2843765"><ele>438.0</ele><time>2026-04-19T09:03:49.178Z</time></trkpt><trkpt lat="43.5700036" lon="11.2844656"><ele>436.0</ele><time>2026-04-19T09:03:50.174Z</time></trkpt><trkpt lat="43.5698691" lon="11.2845626"><ele>434.0</ele><time>2026-04-19T09:03:51.174Z</time></trkpt><trkpt lat="43.5697352" lon="11.2846642"><ele>431.0</ele><time>2026-04-19T09:03:52.179Z</time></trkpt><trkpt lat="43.5696222" lon="11.284778"><ele>428.0</ele><time>2026-04-19T09:03:53.172Z</time></trkpt><trkpt lat="43.5695248" lon="11.2848962"><ele>425.0</ele><time>2026-04-19T09:03:54.177Z</time></trkpt><trkpt lat="43.5694415" lon="11.285026"><ele>422.0</ele><time>2026-04-19T09:03:55.179Z</time></trkpt><trkpt lat="43.5693723" lon="11.28517"><ele>422.5</ele><time>2026-04-19T09:03:56.158Z</time></trkpt><trkpt lat="43.5693171" lon="11.2853305"><ele>423.0</ele><time>2026-04-19T09:03:57.177Z</time></trkpt><trkpt lat="43.5692825" lon="11.2855081"><ele>423.5</ele><time>2026-04-19T09:03:58.187Z</time></trkpt><trkpt lat="43.5692683" lon="11.2857"><ele>424.0</ele><time>2026-04-19T09:03:59.163Z</time></trkpt><trkpt lat="43.5692699" lon="11.2858972"><ele>424.0</ele><time>2026-04-19T09:04:00.17Z</time></trkpt><trkpt lat="43.5692825" lon="11.2860641"><ele>424.0</ele><time>2026-04-19T09:04:01.175Z</time></trkpt><trkpt lat="43.5693038" lon="11.2862184"><ele>424.0</ele><time>2026-04-19T09:04:02.17Z</time></trkpt><trkpt lat="43.5693138" lon="11.286357"><ele>424.0</ele><time>2026-04-19T09:04:03.172Z</time></trkpt><trkpt lat="43.5693009" lon="11.2864881"><ele>424.0</ele><time>2026-04-19T09:04:04.174Z</time></trkpt><trkpt lat="43.5692594" lon="11.2866106"><ele>425.5</ele><time>2026-04-19T09:04:05.175Z</time></trkpt><trkpt lat="43.569184" lon="11.2867244"><ele>427.0</ele><time>2026-04-19T09:04:06.173Z</time></trkpt><trkpt lat="43.5690825" lon="11.2868254"><ele>428.5</ele><time>2026-04-19T09:04:07.159Z</time></trkpt><trkpt lat="43.5689806" lon="11.2869204"><ele>430.0</ele><time>2026-04-19T09:04:08.168Z</time></trkpt><trkpt lat="43.5688695" lon="11.2870088"><ele>430.0</ele><time>2026-04-19T09:04:09.169Z</time></trkpt><trkpt lat="43.5687544" lon="11.2871083"><ele>430.0</ele><time>2026-04-19T09:04:10.174Z</time></trkpt><trkpt lat="43.5686531" lon="11.2872319"><ele>430.0</ele><time>2026-04-19T09:04:11.173Z</time></trkpt><trkpt lat="43.5685478" lon="11.287388"><ele>430.0</ele><time>2026-04-19T09:04:12.159Z</time></trkpt><trkpt lat="43.5684519" lon="11.2875599"><ele>433.6666666666667</ele><time>2026-04-19T09:04:13.158Z</time></trkpt><trkpt lat="43.5683571" lon="11.2877486"><ele>437.33333333333337</ele><time>2026-04-19T09:04:14.158Z</time></trkpt><trkpt lat="43.56826" lon="11.2879282"><ele>441.0</ele><time>2026-04-19T09:04:15.175Z</time></trkpt><trkpt lat="43.5681562" lon="11.2880955"><ele>444.66666666666663</ele><time>2026-04-19T09:04:16.169Z</time></trkpt><trkpt lat="43.5680661" lon="11.2882666"><ele>448.3333333333333</ele><time>2026-04-19T09:04:17.171Z</time></trkpt><trkpt lat="43.5679891" lon="11.2884578"><ele>452.0</ele><time>2026-04-19T09:04:18.173Z</time></trkpt><trkpt lat="43.5679106" lon="11.2886698"><ele>452.0</ele><time>2026-04-19T09:04:19.156Z</time></trkpt><trkpt lat="43.5678282" lon="11.288889"><ele>452.0</ele><time>2026-04-19T09:04:20.154Z</time></trkpt><trkpt lat="43.5677269" lon="11.2891019"><ele>452.0</ele><time>2026-04-19T09:04:21.156Z</time></trkpt><trkpt lat="43.5676036" lon="11.2893044"><ele>452.0</ele><time>2026-04-19T09:04:22.175Z</time></trkpt><trkpt lat="43.5674926" lon="11.2894838"><ele>452.0</ele><time>2026-04-19T09:04:23.168Z</time></trkpt><trkpt lat="43.5673833" lon="11.2896458"><ele>452.0</ele><time>2026-04-19T09:04:24.166Z</time></trkpt><trkpt lat="43.5672994" lon="11.2897824"><ele>452.40000000000003</ele><time>2026-04-19T09:04:25.174Z</time></trkpt><trkpt lat="43.5672263" lon="11.289901"><ele>452.80000000000007</ele><time>2026-04-19T09:04:26.159Z</time></trkpt><trkpt lat="43.5671464" lon="11.2899752"><ele>453.2</ele><time>2026-04-19T09:04:27.163Z</time></trkpt><trkpt lat="43.567044" lon="11.2900285"><ele>453.6</ele><time>2026-04-19T09:04:28.154Z</time></trkpt><trkpt lat="43.5669344" lon="11.2900575"><ele>454.0</ele><time>2026-04-19T09:04:29.156Z</time></trkpt><trkpt lat="43.5668253" lon="11.2900743"><ele>454.0</ele><time>2026-04-19T09:04:30.187Z</time></trkpt><trkpt lat="43.5667086" lon="11.2900791"><ele>454.0</ele><time>2026-04-19T09:04:31.178Z</time></trkpt><trkpt lat="43.5666043" lon="11.290067"><ele>454.0</ele><time>2026-04-19T09:04:32.165Z</time></trkpt><trkpt lat="43.566525" lon="11.2900618"><ele>454.0</ele><time>2026-04-19T09:04:33.18Z</time></trkpt><trkpt lat="43.5664517" lon="11.2900715"><ele>454.0</ele><time>2026-04-19T09:04:34.175Z</time></trkpt><trkpt lat="43.5663707" lon="11.2901005"><ele>454.0</ele><time>2026-04-19T09:04:35.174Z</time></trkpt><trkpt lat="43.5662883" lon="11.2901341"><ele>454.0</ele><time>2026-04-19T09:04:36.181Z</time></trkpt><trkpt lat="43.566211" lon="11.2901743"><ele>454.0</ele><time>2026-04-19T09:04:37.181Z</time></trkpt><trkpt lat="43.5661429" lon="11.2902021"><ele>454.0</ele><time>2026-04-19T09:04:38.173Z</time></trkpt><trkpt lat="43.5660015" lon="11.2901655"><ele>454.0</ele><time>2026-04-19T09:04:40.175Z</time></trkpt><trkpt lat="43.5658984" lon="11.2900798"><ele>455.0</ele><time>2026-04-19T09:04:41.182Z</time></trkpt><trkpt lat="43.5657779" lon="11.2900034"><ele>456.0</ele><time>2026-04-19T09:04:42.176Z</time></trkpt><trkpt lat="43.5656599" lon="11.2899559"><ele>457.0</ele><time>2026-04-19T09:04:43.171Z</time></trkpt><trkpt lat="43.565539" lon="11.2899432"><ele>458.0</ele><time>2026-04-19T09:04:44.175Z</time></trkpt><trkpt lat="43.5654485" lon="11.2899387"><ele>457.79999999999995</ele><time>2026-04-19T09:04:45.179Z</time></trkpt><trkpt lat="43.565331" lon="11.2899675"><ele>457.59999999999997</ele><time>2026-04-19T09:04:47.158Z</time></trkpt><trkpt lat="43.5652442" lon="11.2900643"><ele>457.40000000000003</ele><time>2026-04-19T09:04:49.172Z</time></trkpt><trkpt lat="43.5651752" lon="11.2901735"><ele>457.20000000000005</ele><time>2026-04-19T09:04:51.184Z</time></trkpt><trkpt lat="43.5651295" lon="11.2902861"><ele>457.0</ele><time>2026-04-19T09:04:53.179Z</time></trkpt><trkpt lat="43.5651379" lon="11.2904015"><ele>457.0</ele><time>2026-04-19T09:04:55.165Z</time></trkpt><trkpt lat="43.5651739" lon="11.2904925"><ele>457.00000000000006</ele><time>2026-04-19T09:04:56.173Z</time></trkpt><trkpt lat="43.5652349" lon="11.2906233"><ele>457.00000000000006</ele><time>2026-04-19T09:04:57.183Z</time></trkpt><trkpt lat="43.5652764" lon="11.2907427"><ele>457.0</ele><time>2026-04-19T09:04:58.175Z</time></trkpt><trkpt lat="43.5653088" lon="11.2908567"><ele>457.0</ele><time>2026-04-19T09:04:59.186Z</time></trkpt><trkpt lat="43.5653371" lon="11.2909726"><ele>456.57142857142867</ele><time>2026-04-19T09:05:00.167Z</time></trkpt><trkpt lat="43.5653621" lon="11.2910814"><ele>456.14285714285717</ele><time>2026-04-19T09:05:01.158Z</time></trkpt><trkpt lat="43.5653884" lon="11.2911853"><ele>455.7142857142858</ele><time>2026-04-19T09:05:02.167Z</time></trkpt><trkpt lat="43.5654099" lon="11.291281"><ele>455.28571428571433</ele><time>2026-04-19T09:05:03.162Z</time></trkpt><trkpt lat="43.5654443" lon="11.2913657"><ele>454.8571428571429</ele><time>2026-04-19T09:05:04.172Z</time></trkpt><trkpt lat="43.5654793" lon="11.2914395"><ele>454.42857142857144</ele><time>2026-04-19T09:05:05.165Z</time></trkpt><trkpt lat="43.5655285" lon="11.291498"><ele>454.0</ele><time>2026-04-19T09:05:06.168Z</time></trkpt><trkpt lat="43.5656327" lon="11.2915975"><ele>451.79999999999995</ele><time>2026-04-19T09:05:08.177Z</time></trkpt><trkpt lat="43.5656977" lon="11.2916394"><ele>449.59999999999997</ele><time>2026-04-19T09:05:09.161Z</time></trkpt><trkpt lat="43.5658044" lon="11.2916984"><ele>447.4</ele><time>2026-04-19T09:05:11.178Z</time></trkpt><trkpt lat="43.5659052" lon="11.2917709"><ele>445.2</ele><time>2026-04-19T09:05:13.164Z</time></trkpt><trkpt lat="43.5660026" lon="11.2918905"><ele>443.0</ele><time>2026-04-19T09:05:15.184Z</time></trkpt><trkpt lat="43.5660528" lon="11.2919658"><ele>442.99999999999994</ele><time>2026-04-19T09:05:16.17Z</time></trkpt><trkpt lat="43.5660927" lon="11.2920412"><ele>443.0</ele><time>2026-04-19T09:05:17.177Z</time></trkpt><trkpt lat="43.5661468" lon="11.2921452"><ele>443.0</ele><time>2026-04-19T09:05:19.187Z</time></trkpt><trkpt lat="43.5661832" lon="11.2922198"><ele>443.0</ele><time>2026-04-19T09:05:21.175Z</time></trkpt><trkpt lat="43.5662519" lon="11.2922682"><ele>442.99999999999994</ele><time>2026-04-19T09:05:24.18Z</time></trkpt><trkpt lat="43.5663193" lon="11.2922122"><ele>443.0</ele><time>2026-04-19T09:05:26.167Z</time></trkpt><trkpt lat="43.5664155" lon="11.2921126"><ele>441.4</ele><time>2026-04-19T09:05:28.176Z</time></trkpt><trkpt lat="43.5665086" lon="11.2920594"><ele>439.79999999999995</ele><time>2026-04-19T09:05:30.186Z</time></trkpt><trkpt lat="43.5666049" lon="11.2920533"><ele>438.2</ele><time>2026-04-19T09:05:32.173Z</time></trkpt><trkpt lat="43.5667171" lon="11.2920755"><ele>436.6</ele><time>2026-04-19T09:05:34.175Z</time></trkpt><trkpt lat="43.5668193" lon="11.2921041"><ele>435.0</ele><time>2026-04-19T09:05:36.168Z</time></trkpt><trkpt lat="43.5669161" lon="11.2921296"><ele>435.00000000000006</ele><time>2026-04-19T09:05:38.177Z</time></trkpt><trkpt lat="43.5669808" lon="11.292137"><ele>435.0</ele><time>2026-04-19T09:05:39.18Z</time></trkpt><trkpt lat="43.5670452" lon="11.2921443"><ele>435.0</ele><time>2026-04-19T09:05:40.182Z</time></trkpt><trkpt lat="43.5671154" lon="11.2921437"><ele>435.0</ele><time>2026-04-19T09:05:41.182Z</time></trkpt><trkpt lat="43.5671873" lon="11.2921137"><ele>435.0</ele><time>2026-04-19T09:05:42.179Z</time></trkpt><trkpt lat="43.5672521" lon="11.2920614"><ele>435.00000000000006</ele><time>2026-04-19T09:05:43.183Z</time></trkpt><trkpt lat="43.5673069" lon="11.2920118"><ele>435.0</ele><time>2026-04-19T09:05:44.177Z</time></trkpt><trkpt lat="43.56741" lon="11.2919874"><ele>434.4</ele><time>2026-04-19T09:05:46.18Z</time></trkpt><trkpt lat="43.5674812" lon="11.2920161"><ele>433.8</ele><time>2026-04-19T09:05:48.184Z</time></trkpt><trkpt lat="43.5675802" lon="11.292101"><ele>433.20000000000005</ele><time>2026-04-19T09:05:50.178Z</time></trkpt><trkpt lat="43.5676369" lon="11.2921442"><ele>432.6</ele><time>2026-04-19T09:05:51.176Z</time></trkpt><trkpt lat="43.567741" lon="11.2922486"><ele>432.0</ele><time>2026-04-19T09:05:53.177Z</time></trkpt><trkpt lat="43.5677995" lon="11.2923002"><ele>429.8333333333333</ele><time>2026-04-19T09:05:54.177Z</time></trkpt><trkpt lat="43.5678665" lon="11.2923573"><ele>427.66666666666663</ele><time>2026-04-19T09:05:55.172Z</time></trkpt><trkpt lat="43.5679248" lon="11.2924125"><ele>425.5</ele><time>2026-04-19T09:05:56.175Z</time></trkpt><trkpt lat="43.5679868" lon="11.2924818"><ele>423.3333333333333</ele><time>2026-04-19T09:05:57.185Z</time></trkpt><trkpt lat="43.5680412" lon="11.2925523"><ele>421.16666666666663</ele><time>2026-04-19T09:05:58.181Z</time></trkpt><trkpt lat="43.568095" lon="11.2926071"><ele>419.0</ele><time>2026-04-19T09:05:59.182Z</time></trkpt><trkpt lat="43.5682036" lon="11.2926898"><ele>418.99999999999994</ele><time>2026-04-19T09:06:01.171Z</time></trkpt><trkpt lat="43.5682554" lon="11.2927444"><ele>419.0</ele><time>2026-04-19T09:06:02.179Z</time></trkpt><trkpt lat="43.5683107" lon="11.2928053"><ele>419.0</ele><time>2026-04-19T09:06:03.163Z</time></trkpt><trkpt lat="43.5683791" lon="11.2928697"><ele>419.0</ele><time>2026-04-19T09:06:04.188Z</time></trkpt><trkpt lat="43.5684615" lon="11.2929399"><ele>418.99999999999994</ele><time>2026-04-19T09:06:05.171Z</time></trkpt><trkpt lat="43.5685426" lon="11.2930091"><ele>419.0</ele><time>2026-04-19T09:06:06.184Z</time></trkpt><trkpt lat="43.5686064" lon="11.2930736"><ele>416.16666666666663</ele><time>2026-04-19T09:06:07.178Z</time></trkpt><trkpt lat="43.5686599" lon="11.2931397"><ele>413.3333333333333</ele><time>2026-04-19T09:06:08.176Z</time></trkpt><trkpt lat="43.5687107" lon="11.2931979"><ele>410.5</ele><time>2026-04-19T09:06:09.185Z</time></trkpt><trkpt lat="43.5687643" lon="11.29326"><ele>407.66666666666663</ele><time>2026-04-19T09:06:10.174Z</time></trkpt><trkpt lat="43.5688247" lon="11.2933177"><ele>404.8333333333333</ele><time>2026-04-19T09:06:11.19Z</time></trkpt><trkpt lat="43.5689159" lon="11.293438"><ele>402.0</ele><time>2026-04-19T09:06:13.178Z</time></trkpt><trkpt lat="43.5689792" lon="11.2935584"><ele>402.0</ele><time>2026-04-19T09:06:15.176Z</time></trkpt><trkpt lat="43.5690412" lon="11.2936923"><ele>402.0</ele><time>2026-04-19T09:06:17.174Z</time></trkpt><trkpt lat="43.5691205" lon="11.2938104"><ele>402.0</ele><time>2026-04-19T09:06:19.182Z</time></trkpt><trkpt lat="43.5692098" lon="11.2939042"><ele>402.0</ele><time>2026-04-19T09:06:21.179Z</time></trkpt><trkpt lat="43.569272" lon="11.2939487"><ele>402.0</ele><time>2026-04-19T09:06:22.187Z</time></trkpt><trkpt lat="43.5693478" lon="11.2939787"><ele>400.1666666666667</ele><time>2026-04-19T09:06:23.19Z</time></trkpt><trkpt lat="43.5694169" lon="11.2940143"><ele>398.33333333333337</ele><time>2026-04-19T09:06:24.182Z</time></trkpt><trkpt lat="43.5694836" lon="11.2940497"><ele>396.5</ele><time>2026-04-19T09:06:25.183Z</time></trkpt><trkpt lat="43.5695482" lon="11.294081"><ele>394.6666666666667</ele><time>2026-04-19T09:06:26.179Z</time></trkpt><trkpt lat="43.5696092" lon="11.294117"><ele>392.83333333333337</ele><time>2026-04-19T09:06:27.183Z</time></trkpt><trkpt lat="43.5696993" lon="11.2941849"><ele>391.0</ele><time>2026-04-19T09:06:29.18Z</time></trkpt><trkpt lat="43.5697584" lon="11.2942739"><ele>389.50000000000006</ele><time>2026-04-19T09:06:31.181Z</time></trkpt><trkpt lat="43.5697883" lon="11.2943694"><ele>388.0</ele><time>2026-04-19T09:06:33.179Z</time></trkpt><trkpt lat="43.5698282" lon="11.2944889"><ele>386.5</ele><time>2026-04-19T09:06:35.162Z</time></trkpt><trkpt lat="43.569901" lon="11.2945626"><ele>385.0</ele><time>2026-04-19T09:06:37.185Z</time></trkpt><trkpt lat="43.5699917" lon="11.2946602"><ele>383.5</ele><time>2026-04-19T09:06:39.176Z</time></trkpt><trkpt lat="43.5700367" lon="11.2947218"><ele>382.0</ele><time>2026-04-19T09:06:40.188Z</time></trkpt><trkpt lat="43.5700781" lon="11.2947901"><ele>380.5</ele><time>2026-04-19T09:06:41.174Z</time></trkpt><trkpt lat="43.5701639" lon="11.2949283"><ele>379.0</ele><time>2026-04-19T09:06:43.183Z</time></trkpt><trkpt lat="43.5702108" lon="11.2950002"><ele>377.5</ele><time>2026-04-19T09:06:44.195Z</time></trkpt><trkpt lat="43.5702598" lon="11.2950742"><ele>376.0</ele><time>2026-04-19T09:06:45.18Z</time></trkpt><trkpt lat="43.570309" lon="11.2951458"><ele>374.5</ele><time>2026-04-19T09:06:46.175Z</time></trkpt><trkpt lat="43.5703516" lon="11.2952137"><ele>373.0</ele><time>2026-04-19T09:06:47.184Z</time></trkpt><trkpt lat="43.5704183" lon="11.2953281"><ele>369.79999999999995</ele><time>2026-04-19T09:06:49.186Z</time></trkpt><trkpt lat="43.570475" lon="11.2954106"><ele>366.6</ele><time>2026-04-19T09:06:51.184Z</time></trkpt><trkpt lat="43.5705719" lon="11.2954365"><ele>363.4</ele><time>2026-04-19T09:06:54.177Z</time></trkpt><trkpt lat="43.5706592" lon="11.2953886"><ele>360.20000000000005</ele><time>2026-04-19T09:06:57.175Z</time></trkpt><trkpt lat="43.5707788" lon="11.2952956"><ele>357.0</ele><time>2026-04-19T09:06:59.191Z</time></trkpt><trkpt lat="43.5708438" lon="11.2952522"><ele>357.0</ele><time>2026-04-19T09:07:00.171Z</time></trkpt><trkpt lat="43.5709578" lon="11.2952239"><ele>357.0</ele><time>2026-04-19T09:07:02.184Z</time></trkpt><trkpt lat="43.5710617" lon="11.2952506"><ele>357.0</ele><time>2026-04-19T09:07:04.175Z</time></trkpt><trkpt lat="43.5711472" lon="11.2953092"><ele>357.0</ele><time>2026-04-19T09:07:06.178Z</time></trkpt><trkpt lat="43.5712517" lon="11.2953734"><ele>357.0</ele><time>2026-04-19T09:07:08.183Z</time></trkpt><trkpt lat="43.5713259" lon="11.2954093"><ele>353.40000000000003</ele><time>2026-04-19T09:07:09.184Z</time></trkpt><trkpt lat="43.571406" lon="11.2954468"><ele>349.8</ele><time>2026-04-19T09:07:10.185Z</time></trkpt><trkpt lat="43.5714733" lon="11.2954817"><ele>346.2</ele><time>2026-04-19T09:07:11.18Z</time></trkpt><trkpt lat="43.5715769" lon="11.295543"><ele>342.6</ele><time>2026-04-19T09:07:13.174Z</time></trkpt><trkpt lat="43.5716445" lon="11.2956354"><ele>339.0</ele><time>2026-04-19T09:07:15.173Z</time></trkpt><trkpt lat="43.5716607" lon="11.2957855"><ele>338.6</ele><time>2026-04-19T09:07:17.174Z</time></trkpt><trkpt lat="43.5716444" lon="11.29588"><ele>338.2</ele><time>2026-04-19T09:07:18.18Z</time></trkpt><trkpt lat="43.5716217" lon="11.2959768"><ele>337.8</ele><time>2026-04-19T09:07:19.175Z</time></trkpt><trkpt lat="43.5715784" lon="11.29613"><ele>337.40000000000003</ele><time>2026-04-19T09:07:21.17Z</time></trkpt><trkpt lat="43.5715443" lon="11.2962559"><ele>337.0</ele><time>2026-04-19T09:07:23.169Z</time></trkpt><trkpt lat="43.5715757" lon="11.2963896"><ele>335.8333333333333</ele><time>2026-04-19T09:07:25.178Z</time></trkpt><trkpt lat="43.5716241" lon="11.2964611"><ele>334.66666666666663</ele><time>2026-04-19T09:07:26.182Z</time></trkpt><trkpt lat="43.5716886" lon="11.2965327"><ele>333.5</ele><time>2026-04-19T09:07:27.178Z</time></trkpt><trkpt lat="43.5717605" lon="11.296605"><ele>332.3333333333333</ele><time>2026-04-19T09:07:28.177Z</time></trkpt><trkpt lat="43.57183" lon="11.296675"><ele>331.1666666666667</ele><time>2026-04-19T09:07:29.18Z</time></trkpt><trkpt lat="43.5718843" lon="11.2967414"><ele>330.0</ele><time>2026-04-19T09:07:30.178Z</time></trkpt><trkpt lat="43.5719293" lon="11.2968035"><ele>330.0</ele><time>2026-04-19T09:07:31.186Z</time></trkpt><trkpt lat="43.5719695" lon="11.2968735"><ele>330.0</ele><time>2026-04-19T09:07:32.182Z</time></trkpt><trkpt lat="43.5720462" lon="11.2970167"><ele>330.0</ele><time>2026-04-19T09:07:34.176Z</time></trkpt><trkpt lat="43.5720997" lon="11.2970893"><ele>330.0</ele><time>2026-04-19T09:07:35.177Z</time></trkpt><trkpt lat="43.5721661" lon="11.2971485"><ele>330.0</ele><time>2026-04-19T09:07:36.178Z</time></trkpt><trkpt lat="43.5722414" lon="11.2972075"><ele>330.0</ele><time>2026-04-19T09:07:37.16Z</time></trkpt><trkpt lat="43.572314" lon="11.2972703"><ele>328.1666666666667</ele><time>2026-04-19T09:07:38.189Z</time></trkpt><trkpt lat="43.5723815" lon="11.2973303"><ele>326.3333333333333</ele><time>2026-04-19T09:07:39.179Z</time></trkpt><trkpt lat="43.5724348" lon="11.2973923"><ele>324.5</ele><time>2026-04-19T09:07:40.183Z</time></trkpt><trkpt lat="43.5725332" lon="11.2975152"><ele>322.66666666666663</ele><time>2026-04-19T09:07:42.18Z</time></trkpt><trkpt lat="43.5725863" lon="11.297567"><ele>320.8333333333333</ele><time>2026-04-19T09:07:43.184Z</time></trkpt><trkpt lat="43.572652" lon="11.2975911"><ele>319.0</ele><time>2026-04-19T09:07:44.17Z</time></trkpt><trkpt lat="43.5727219" lon="11.2975967"><ele>319.0</ele><time>2026-04-19T09:07:45.181Z</time></trkpt><trkpt lat="43.5728028" lon="11.2976054"><ele>319.0</ele><time>2026-04-19T09:07:46.175Z</time></trkpt><trkpt lat="43.5728781" lon="11.2976013"><ele>319.0</ele><time>2026-04-19T09:07:47.18Z</time></trkpt><trkpt lat="43.5729972" lon="11.2976227"><ele>319.0</ele><time>2026-04-19T09:07:49.183Z</time></trkpt><trkpt lat="43.5731272" lon="11.2976936"><ele>319.0</ele><time>2026-04-19T09:07:51.188Z</time></trkpt><trkpt lat="43.5732105" lon="11.2977576"><ele>318.0</ele><time>2026-04-19T09:07:52.18Z</time></trkpt><trkpt lat="43.5732858" lon="11.2978371"><ele>317.0</ele><time>2026-04-19T09:07:53.183Z</time></trkpt><trkpt lat="43.5733557" lon="11.2979261"><ele>316.0</ele><time>2026-04-19T09:07:54.183Z</time></trkpt><trkpt lat="43.573425" lon="11.2980169"><ele>315.0</ele><time>2026-04-19T09:07:55.176Z</time></trkpt><trkpt lat="43.5734936" lon="11.2981135"><ele>314.0</ele><time>2026-04-19T09:07:56.178Z</time></trkpt><trkpt lat="43.5735618" lon="11.2982066"><ele>314.0</ele><time>2026-04-19T09:07:57.184Z</time></trkpt><trkpt lat="43.5736164" lon="11.2982896"><ele>314.0</ele><time>2026-04-19T09:07:58.177Z</time></trkpt><trkpt lat="43.5736612" lon="11.2983564"><ele>314.0</ele><time>2026-04-19T09:07:59.173Z</time></trkpt><trkpt lat="43.5737596" lon="11.2984746"><ele>314.0</ele><time>2026-04-19T09:08:01.173Z</time></trkpt><trkpt lat="43.5738404" lon="11.2985142"><ele>314.0</ele><time>2026-04-19T09:08:02.174Z</time></trkpt><trkpt lat="43.5739237" lon="11.2985418"><ele>314.0</ele><time>2026-04-19T09:08:03.178Z</time></trkpt><trkpt lat="43.57402" lon="11.298552"><ele>316.6</ele><time>2026-04-19T09:08:04.191Z</time></trkpt><trkpt lat="43.5741187" lon="11.2985445"><ele>319.2</ele><time>2026-04-19T09:08:05.178Z</time></trkpt><trkpt lat="43.5741932" lon="11.2985282"><ele>321.8</ele><time>2026-04-19T09:08:06.166Z</time></trkpt><trkpt lat="43.5742967" lon="11.2985717"><ele>324.40000000000003</ele><time>2026-04-19T09:08:08.159Z</time></trkpt><trkpt lat="43.5743421" lon="11.2986453"><ele>327.0</ele><time>2026-04-19T09:08:09.175Z</time></trkpt><trkpt lat="43.5743851" lon="11.2987746"><ele>327.0</ele><time>2026-04-19T09:08:10.176Z</time></trkpt><trkpt lat="43.5744307" lon="11.2988988"><ele>327.0</ele><time>2026-04-19T09:08:11.181Z</time></trkpt><trkpt lat="43.5744834" lon="11.2990145"><ele>327.0</ele><time>2026-04-19T09:08:12.18Z</time></trkpt><trkpt lat="43.5745432" lon="11.2991418"><ele>327.0</ele><time>2026-04-19T09:08:13.165Z</time></trkpt><trkpt lat="43.5746029" lon="11.2992672"><ele>327.0</ele><time>2026-04-19T09:08:14.161Z</time></trkpt><trkpt lat="43.5746575" lon="11.2993888"><ele>328.40000000000003</ele><time>2026-04-19T09:08:15.182Z</time></trkpt><trkpt lat="43.5747092" lon="11.2994928"><ele>329.8</ele><time>2026-04-19T09:08:16.176Z</time></trkpt><trkpt lat="43.5747629" lon="11.2995768"><ele>331.2</ele><time>2026-04-19T09:08:17.175Z</time></trkpt><trkpt lat="43.5748296" lon="11.2996694"><ele>332.6</ele><time>2026-04-19T09:08:18.156Z</time></trkpt><trkpt lat="43.5749031" lon="11.2997795"><ele>334.0</ele><time>2026-04-19T09:08:19.173Z</time></trkpt><trkpt lat="43.5749724" lon="11.2998794"><ele>330.66666666666663</ele><time>2026-04-19T09:08:20.179Z</time></trkpt><trkpt lat="43.5750441" lon="11.2999833"><ele>327.3333333333333</ele><time>2026-04-19T09:08:21.178Z</time></trkpt><trkpt lat="43.5751203" lon="11.3000769"><ele>324.0</ele><time>2026-04-19T09:08:22.181Z</time></trkpt><trkpt lat="43.5751723" lon="11.3001452"><ele>320.6666666666667</ele><time>2026-04-19T09:08:23.181Z</time></trkpt><trkpt lat="43.5752309" lon="11.300203"><ele>317.33333333333337</ele><time>2026-04-19T09:08:24.171Z</time></trkpt><trkpt lat="43.5753105" lon="11.3002324"><ele>314.0</ele><time>2026-04-19T09:08:25.176Z</time></trkpt><trkpt lat="43.5753863" lon="11.3002495"><ele>313.83333333333337</ele><time>2026-04-19T09:08:26.177Z</time></trkpt><trkpt lat="43.575467" lon="11.3002609"><ele>313.6666666666667</ele><time>2026-04-19T09:08:27.175Z</time></trkpt><trkpt lat="43.5755606" lon="11.300274"><ele>313.5</ele><time>2026-04-19T09:08:28.185Z</time></trkpt><trkpt lat="43.5756426" lon="11.3002839"><ele>313.3333333333333</ele><time>2026-04-19T09:08:29.175Z</time></trkpt><trkpt lat="43.5757115" lon="11.3002597"><ele>313.16666666666663</ele><time>2026-04-19T09:08:30.173Z</time></trkpt><trkpt lat="43.5757835" lon="11.3002179"><ele>313.0</ele><time>2026-04-19T09:08:31.17Z</time></trkpt><trkpt lat="43.5758565" lon="11.3001834"><ele>313.0</ele><time>2026-04-19T09:08:32.181Z</time></trkpt><trkpt lat="43.5759388" lon="11.3001624"><ele>313.0</ele><time>2026-04-19T09:08:33.182Z</time></trkpt><trkpt lat="43.5760291" lon="11.3001348"><ele>313.0</ele><time>2026-04-19T09:08:34.154Z</time></trkpt><trkpt lat="43.576098" lon="11.3000851"><ele>313.0</ele><time>2026-04-19T09:08:35.171Z</time></trkpt><trkpt lat="43.5761626" lon="11.3000395"><ele>313.0</ele><time>2026-04-19T09:08:36.152Z</time></trkpt><trkpt lat="43.5762352" lon="11.2999968"><ele>313.0</ele><time>2026-04-19T09:08:37.178Z</time></trkpt><trkpt lat="43.5763065" lon="11.2999556"><ele>312.8</ele><time>2026-04-19T09:08:38.176Z</time></trkpt><trkpt lat="43.5763712" lon="11.2999165"><ele>312.6</ele><time>2026-04-19T09:08:39.172Z</time></trkpt><trkpt lat="43.5764718" lon="11.2998715"><ele>312.4</ele><time>2026-04-19T09:08:41.176Z</time></trkpt><trkpt lat="43.5765406" lon="11.2999739"><ele>312.2</ele><time>2026-04-19T09:08:43.175Z</time></trkpt><trkpt lat="43.5765917" lon="11.3000632"><ele>312.0</ele><time>2026-04-19T09:08:44.172Z</time></trkpt><trkpt lat="43.5766502" lon="11.3001606"><ele>312.0</ele><time>2026-04-19T09:08:45.17Z</time></trkpt><trkpt lat="43.5767085" lon="11.3002671"><ele>312.0</ele><time>2026-04-19T09:08:46.175Z</time></trkpt><trkpt lat="43.5767659" lon="11.3003674"><ele>312.0</ele><time>2026-04-19T09:08:47.178Z</time></trkpt><trkpt lat="43.5768158" lon="11.3004689"><ele>312.0</ele><time>2026-04-19T09:08:48.177Z</time></trkpt><trkpt lat="43.5768634" lon="11.3005645"><ele>312.0</ele><time>2026-04-19T09:08:49.177Z</time></trkpt><trkpt lat="43.5769128" lon="11.3006532"><ele>312.0</ele><time>2026-04-19T09:08:50.179Z</time></trkpt><trkpt lat="43.5769666" lon="11.3007399"><ele>314.8</ele><time>2026-04-19T09:08:51.173Z</time></trkpt><trkpt lat="43.5770264" lon="11.3008233"><ele>317.6</ele><time>2026-04-19T09:08:52.161Z</time></trkpt><trkpt lat="43.5770929" lon="11.3009086"><ele>320.40000000000003</ele><time>2026-04-19T09:08:53.16Z</time></trkpt><trkpt lat="43.5771702" lon="11.3009928"><ele>323.2</ele><time>2026-04-19T09:08:54.153Z</time></trkpt><trkpt lat="43.5772518" lon="11.30106"><ele>326.0</ele><time>2026-04-19T09:08:55.168Z</time></trkpt><trkpt lat="43.5773239" lon="11.3011256"><ele>326.0</ele><time>2026-04-19T09:08:56.174Z</time></trkpt><trkpt lat="43.5773904" lon="11.3011892"><ele>326.0</ele><time>2026-04-19T09:08:57.18Z</time></trkpt><trkpt lat="43.5774514" lon="11.3012471"><ele>326.0</ele><time>2026-04-19T09:08:58.162Z</time></trkpt><trkpt lat="43.5775181" lon="11.3012945"><ele>326.0</ele><time>2026-04-19T09:08:59.162Z</time></trkpt><trkpt lat="43.5776071" lon="11.3013361"><ele>326.0</ele><time>2026-04-19T09:09:00.167Z</time></trkpt><trkpt lat="43.5777119" lon="11.3013536"><ele>326.0</ele><time>2026-04-19T09:09:01.172Z</time></trkpt><trkpt lat="43.5778242" lon="11.3013631"><ele>327.6</ele><time>2026-04-19T09:09:02.181Z</time></trkpt><trkpt lat="43.5779327" lon="11.3013687"><ele>329.20000000000005</ele><time>2026-04-19T09:09:03.175Z</time></trkpt><trkpt lat="43.5780375" lon="11.3013651"><ele>330.79999999999995</ele><time>2026-04-19T09:09:04.178Z</time></trkpt><trkpt lat="43.5781372" lon="11.3013587"><ele>332.4</ele><time>2026-04-19T09:09:05.182Z</time></trkpt><trkpt lat="43.5782289" lon="11.3013484"><ele>334.0</ele><time>2026-04-19T09:09:06.172Z</time></trkpt><trkpt lat="43.5783107" lon="11.3013467"><ele>334.0</ele><time>2026-04-19T09:09:07.165Z</time></trkpt><trkpt lat="43.5783794" lon="11.3013544"><ele>334.0</ele><time>2026-04-19T09:09:08.173Z</time></trkpt><trkpt lat="43.5784868" lon="11.3013627"><ele>334.0</ele><time>2026-04-19T09:09:10.18Z</time></trkpt><trkpt lat="43.5785935" lon="11.3013805"><ele>334.0</ele><time>2026-04-19T09:09:12.18Z</time></trkpt><trkpt lat="43.5787146" lon="11.3013862"><ele>334.0</ele><time>2026-04-19T09:09:14.18Z</time></trkpt><trkpt lat="43.5788488" lon="11.3014128"><ele>332.4</ele><time>2026-04-19T09:09:16.176Z</time></trkpt><trkpt lat="43.5789304" lon="11.3014309"><ele>330.79999999999995</ele><time>2026-04-19T09:09:17.175Z</time></trkpt><trkpt lat="43.579018" lon="11.3014528"><ele>329.20000000000005</ele><time>2026-04-19T09:09:18.18Z</time></trkpt><trkpt lat="43.5791156" lon="11.3014853"><ele>327.6</ele><time>2026-04-19T09:09:19.173Z</time></trkpt><trkpt lat="43.5792169" lon="11.3015216"><ele>326.0</ele><time>2026-04-19T09:09:20.157Z</time></trkpt><trkpt lat="43.579312" lon="11.3015623"><ele>326.0</ele><time>2026-04-19T09:09:21.163Z</time></trkpt><trkpt lat="43.5793974" lon="11.3016128"><ele>326.0</ele><time>2026-04-19T09:09:22.179Z</time></trkpt><trkpt lat="43.5794693" lon="11.3016655"><ele>326.0</ele><time>2026-04-19T09:09:23.175Z</time></trkpt><trkpt lat="43.5795386" lon="11.301704"><ele>326.0</ele><time>2026-04-19T09:09:24.189Z</time></trkpt><trkpt lat="43.5796126" lon="11.3017167"><ele>326.0</ele><time>2026-04-19T09:09:25.166Z</time></trkpt><trkpt lat="43.579697" lon="11.3017154"><ele>326.0</ele><time>2026-04-19T09:09:26.179Z</time></trkpt><trkpt lat="43.5797824" lon="11.3016982"><ele>327.0</ele><time>2026-04-19T09:09:27.179Z</time></trkpt><trkpt lat="43.5798698" lon="11.3016774"><ele>328.0</ele><time>2026-04-19T09:09:28.154Z</time></trkpt><trkpt lat="43.5799577" lon="11.3016745"><ele>329.0</ele><time>2026-04-19T09:09:29.183Z</time></trkpt><trkpt lat="43.5800471" lon="11.3016905"><ele>330.0</ele><time>2026-04-19T09:09:30.187Z</time></trkpt><trkpt lat="43.5801349" lon="11.3017179"><ele>331.0</ele><time>2026-04-19T09:09:31.171Z</time></trkpt><trkpt lat="43.580211" lon="11.3017408"><ele>332.0</ele><time>2026-04-19T09:09:32.177Z</time></trkpt><trkpt lat="43.5802743" lon="11.3017614"><ele>332.83333333333337</ele><time>2026-04-19T09:09:33.18Z</time></trkpt><trkpt lat="43.5803664" lon="11.3017837"><ele>333.6666666666667</ele><time>2026-04-19T09:09:35.185Z</time></trkpt><trkpt lat="43.5804348" lon="11.3018089"><ele>334.5</ele><time>2026-04-19T09:09:37.173Z</time></trkpt><trkpt lat="43.5804898" lon="11.3018528"><ele>335.3333333333333</ele><time>2026-04-19T09:09:39.184Z</time></trkpt><trkpt lat="43.580516" lon="11.301735"><ele>336.16666666666663</ele><time>2026-04-19T09:09:42.188Z</time></trkpt><trkpt lat="43.5805174" lon="11.3015907"><ele>337.0</ele><time>2026-04-19T09:09:44.177Z</time></trkpt><trkpt lat="43.5805146" lon="11.3014279"><ele>336.40000000000003</ele><time>2026-04-19T09:09:46.187Z</time></trkpt><trkpt lat="43.5805154" lon="11.3013034"><ele>335.8</ele><time>2026-04-19T09:09:48.172Z</time></trkpt><trkpt lat="43.580513" lon="11.301197"><ele>335.2</ele><time>2026-04-19T09:09:50.176Z</time></trkpt><trkpt lat="43.5804741" lon="11.3010226"><ele>334.6</ele><time>2026-04-19T09:09:52.176Z</time></trkpt><trkpt lat="43.5804342" lon="11.3008916"><ele>334.0</ele><time>2026-04-19T09:09:53.178Z</time></trkpt><trkpt lat="43.5803907" lon="11.3007476"><ele>336.0</ele><time>2026-04-19T09:09:54.18Z</time></trkpt><trkpt lat="43.5803443" lon="11.300591"><ele>338.0</ele><time>2026-04-19T09:09:55.171Z</time></trkpt><trkpt lat="43.5802954" lon="11.3004262"><ele>340.0</ele><time>2026-04-19T09:09:56.172Z</time></trkpt><trkpt lat="43.5802427" lon="11.3002704"><ele>342.0</ele><time>2026-04-19T09:09:57.175Z</time></trkpt><trkpt lat="43.5801886" lon="11.3001408"><ele>343.8</ele><time>2026-04-19T09:09:58.178Z</time></trkpt><trkpt lat="43.5801284" lon="11.3000228"><ele>345.6</ele><time>2026-04-19T09:09:59.176Z</time></trkpt><trkpt lat="43.5800652" lon="11.2999018"><ele>347.40000000000003</ele><time>2026-04-19T09:10:00.176Z</time></trkpt><trkpt lat="43.5800104" lon="11.2997652"><ele>349.20000000000005</ele><time>2026-04-19T09:10:01.176Z</time></trkpt><trkpt lat="43.5799625" lon="11.2996333"><ele>351.0</ele><time>2026-04-19T09:10:02.167Z</time></trkpt><trkpt lat="43.579902" lon="11.2994895"><ele>352.25</ele><time>2026-04-19T09:10:03.16Z</time></trkpt><trkpt lat="43.5798535" lon="11.2993349"><ele>353.5</ele><time>2026-04-19T09:10:04.156Z</time></trkpt><trkpt lat="43.5798036" lon="11.2991876"><ele>354.75</ele><time>2026-04-19T09:10:05.173Z</time></trkpt><trkpt lat="43.5797479" lon="11.2990379"><ele>356.0</ele><time>2026-04-19T09:10:06.171Z</time></trkpt><trkpt lat="43.5796795" lon="11.2988957"><ele>356.0</ele><time>2026-04-19T09:10:07.172Z</time></trkpt><trkpt lat="43.5795823" lon="11.2987317"><ele>356.0</ele><time>2026-04-19T09:10:08.173Z</time></trkpt><trkpt lat="43.5794822" lon="11.2985677"><ele>356.0</ele><time>2026-04-19T09:10:09.177Z</time></trkpt><trkpt lat="43.579396" lon="11.2984245"><ele>356.0</ele><time>2026-04-19T09:10:10.174Z</time></trkpt><trkpt lat="43.5793299" lon="11.2983276"><ele>358.20000000000005</ele><time>2026-04-19T09:10:11.18Z</time></trkpt><trkpt lat="43.5792799" lon="11.2982518"><ele>360.40000000000003</ele><time>2026-04-19T09:10:12.175Z</time></trkpt><trkpt lat="43.5792057" lon="11.2981229"><ele>362.6</ele><time>2026-04-19T09:10:14.163Z</time></trkpt><trkpt lat="43.5791608" lon="11.2980316"><ele>364.8</ele><time>2026-04-19T09:10:15.166Z</time></trkpt><trkpt lat="43.5791248" lon="11.2979343"><ele>367.0</ele><time>2026-04-19T09:10:16.167Z</time></trkpt><trkpt lat="43.5790807" lon="11.2978114"><ele>367.0</ele><time>2026-04-19T09:10:17.168Z</time></trkpt><trkpt lat="43.5790279" lon="11.2976917"><ele>367.0</ele><time>2026-04-19T09:10:18.169Z</time></trkpt><trkpt lat="43.5789678" lon="11.2975844"><ele>367.0</ele><time>2026-04-19T09:10:19.165Z</time></trkpt><trkpt lat="43.5788963" lon="11.297494"><ele>367.0</ele><time>2026-04-19T09:10:20.166Z</time></trkpt><trkpt lat="43.5788044" lon="11.2974243"><ele>367.0</ele><time>2026-04-19T09:10:21.174Z</time></trkpt><trkpt lat="43.5787171" lon="11.2973551"><ele>366.5</ele><time>2026-04-19T09:10:22.173Z</time></trkpt><trkpt lat="43.5786486" lon="11.2972625"><ele>366.0</ele><time>2026-04-19T09:10:23.17Z</time></trkpt><trkpt lat="43.5786101" lon="11.2971198"><ele>365.5</ele><time>2026-04-19T09:10:24.18Z</time></trkpt><trkpt lat="43.5786065" lon="11.2969471"><ele>365.0</ele><time>2026-04-19T09:10:25.171Z</time></trkpt><trkpt lat="43.5786202" lon="11.2967607"><ele>366.25</ele><time>2026-04-19T09:10:26.178Z</time></trkpt><trkpt lat="43.5786226" lon="11.2965608"><ele>367.5</ele><time>2026-04-19T09:10:27.161Z</time></trkpt><trkpt lat="43.578625" lon="11.2963603"><ele>368.75</ele><time>2026-04-19T09:10:28.172Z</time></trkpt><trkpt lat="43.5786312" lon="11.2961637"><ele>370.0</ele><time>2026-04-19T09:10:29.179Z</time></trkpt><trkpt lat="43.5786449" lon="11.2959616"><ele>372.0</ele><time>2026-04-19T09:10:30.195Z</time></trkpt><trkpt lat="43.5786627" lon="11.2957548"><ele>374.0</ele><time>2026-04-19T09:10:31.157Z</time></trkpt><trkpt lat="43.5786854" lon="11.2955492"><ele>376.0</ele><time>2026-04-19T09:10:32.168Z</time></trkpt><trkpt lat="43.5787127" lon="11.2953482"><ele>376.5</ele><time>2026-04-19T09:10:33.167Z</time></trkpt><trkpt lat="43.5787579" lon="11.2951543"><ele>377.0</ele><time>2026-04-19T09:10:34.17Z</time></trkpt><trkpt lat="43.5788181" lon="11.2949829"><ele>377.5</ele><time>2026-04-19T09:10:35.173Z</time></trkpt><trkpt lat="43.5788768" lon="11.294861"><ele>378.0</ele><time>2026-04-19T09:10:36.155Z</time></trkpt><trkpt lat="43.5789146" lon="11.2947796"><ele>381.0</ele><time>2026-04-19T09:10:37.166Z</time></trkpt><trkpt lat="43.5789266" lon="11.2946506"><ele>384.0</ele><time>2026-04-19T09:10:39.159Z</time></trkpt><trkpt lat="43.5789103" lon="11.2945156"><ele>387.0</ele><time>2026-04-19T09:10:41.183Z</time></trkpt><trkpt lat="43.5789243" lon="11.2943597"><ele>390.0</ele><time>2026-04-19T09:10:43.176Z</time></trkpt><trkpt lat="43.5789688" lon="11.2942093"><ele>393.0</ele><time>2026-04-19T09:10:45.187Z</time></trkpt><trkpt lat="43.5790346" lon="11.2941099"><ele>393.0</ele><time>2026-04-19T09:10:47.182Z</time></trkpt><trkpt lat="43.5791126" lon="11.2940206"><ele>393.0</ele><time>2026-04-19T09:10:49.182Z</time></trkpt><trkpt lat="43.5791937" lon="11.2939555"><ele>393.0</ele><time>2026-04-19T09:10:51.189Z</time></trkpt><trkpt lat="43.5793162" lon="11.2938783"><ele>393.0</ele><time>2026-04-19T09:10:53.184Z</time></trkpt><trkpt lat="43.5793908" lon="11.2938256"><ele>393.0</ele><time>2026-04-19T09:10:54.17Z</time></trkpt><trkpt lat="43.5794617" lon="11.2937841"><ele>391.5</ele><time>2026-04-19T09:10:55.178Z</time></trkpt><trkpt lat="43.579531" lon="11.2937366"><ele>390.0</ele><time>2026-04-19T09:10:56.178Z</time></trkpt><trkpt lat="43.5795947" lon="11.293673"><ele>388.5</ele><time>2026-04-19T09:10:57.179Z</time></trkpt><trkpt lat="43.5796543" lon="11.2936006"><ele>387.0</ele><time>2026-04-19T09:10:58.164Z</time></trkpt><trkpt lat="43.5797148" lon="11.2935296"><ele>385.5</ele><time>2026-04-19T09:10:59.183Z</time></trkpt><trkpt lat="43.5797674" lon="11.2934576"><ele>384.0</ele><time>2026-04-19T09:11:00.178Z</time></trkpt><trkpt lat="43.5798242" lon="11.2933846"><ele>384.0</ele><time>2026-04-19T09:11:01.188Z</time></trkpt><trkpt lat="43.5798778" lon="11.2932893"><ele>384.0</ele><time>2026-04-19T09:11:02.189Z</time></trkpt><trkpt lat="43.5799256" lon="11.2931752"><ele>384.0</ele><time>2026-04-19T09:11:03.178Z</time></trkpt><trkpt lat="43.5799634" lon="11.2930497"><ele>384.0</ele><time>2026-04-19T09:11:04.176Z</time></trkpt><trkpt lat="43.5799936" lon="11.2929132"><ele>384.0</ele><time>2026-04-19T09:11:05.183Z</time></trkpt><trkpt lat="43.5800148" lon="11.2927829"><ele>386.2</ele><time>2026-04-19T09:11:06.159Z</time></trkpt><trkpt lat="43.5800247" lon="11.2926477"><ele>388.4</ele><time>2026-04-19T09:11:07.182Z</time></trkpt><trkpt lat="43.5800246" lon="11.2925158"><ele>390.6</ele><time>2026-04-19T09:11:08.176Z</time></trkpt><trkpt lat="43.5800147" lon="11.2923835"><ele>392.8</ele><time>2026-04-19T09:11:09.159Z</time></trkpt><trkpt lat="43.5799992" lon="11.2922528"><ele>395.0</ele><time>2026-04-19T09:11:10.176Z</time></trkpt><trkpt lat="43.5799868" lon="11.2921313"><ele>396.66666666666663</ele><time>2026-04-19T09:11:11.156Z</time></trkpt><trkpt lat="43.5799837" lon="11.2920114"><ele>398.3333333333333</ele><time>2026-04-19T09:11:12.171Z</time></trkpt><trkpt lat="43.5799914" lon="11.2918993"><ele>400.0</ele><time>2026-04-19T09:11:13.171Z</time></trkpt><trkpt lat="43.5800097" lon="11.2918042"><ele>401.66666666666663</ele><time>2026-04-19T09:11:14.151Z</time></trkpt><trkpt lat="43.580043" lon="11.291727"><ele>403.3333333333333</ele><time>2026-04-19T09:11:15.172Z</time></trkpt><trkpt lat="43.5800973" lon="11.2916789"><ele>405.0</ele><time>2026-04-19T09:11:16.18Z</time></trkpt><trkpt lat="43.5802398" lon="11.291666"><ele>405.0</ele><time>2026-04-19T09:11:18.181Z</time></trkpt><trkpt lat="43.5803214" lon="11.2916805"><ele>405.0</ele><time>2026-04-19T09:11:19.17Z</time></trkpt><trkpt lat="43.5804014" lon="11.2916905"><ele>405.0</ele><time>2026-04-19T09:11:20.158Z</time></trkpt><trkpt lat="43.5804856" lon="11.2916988"><ele>405.0</ele><time>2026-04-19T09:11:21.175Z</time></trkpt><trkpt lat="43.5805634" lon="11.2917026"><ele>405.0</ele><time>2026-04-19T09:11:22.178Z</time></trkpt><trkpt lat="43.580632" lon="11.2917084"><ele>405.0</ele><time>2026-04-19T09:11:23.155Z</time></trkpt><trkpt lat="43.5807508" lon="11.2916886"><ele>405.1428571428571</ele><time>2026-04-19T09:11:25.188Z</time></trkpt><trkpt lat="43.5808111" lon="11.2916452"><ele>405.2857142857143</ele><time>2026-04-19T09:11:26.187Z</time></trkpt><trkpt lat="43.5808624" lon="11.2915844"><ele>405.42857142857144</ele><time>2026-04-19T09:11:27.165Z</time></trkpt><trkpt lat="43.5809078" lon="11.2915133"><ele>405.57142857142856</ele><time>2026-04-19T09:11:28.176Z</time></trkpt><trkpt lat="43.5809502" lon="11.2914332"><ele>405.7142857142857</ele><time>2026-04-19T09:11:29.164Z</time></trkpt><trkpt lat="43.5809917" lon="11.2913484"><ele>405.85714285714283</ele><time>2026-04-19T09:11:30.177Z</time></trkpt><trkpt lat="43.5810421" lon="11.2912604"><ele>406.0</ele><time>2026-04-19T09:11:31.177Z</time></trkpt><trkpt lat="43.5811231" lon="11.2911863"><ele>407.4</ele><time>2026-04-19T09:11:32.183Z</time></trkpt><trkpt lat="43.5812236" lon="11.2911157"><ele>408.8</ele><time>2026-04-19T09:11:33.183Z</time></trkpt><trkpt lat="43.5813286" lon="11.2910518"><ele>410.2</ele><time>2026-04-19T09:11:34.199Z</time></trkpt><trkpt lat="43.5814283" lon="11.2909929"><ele>411.59999999999997</ele><time>2026-04-19T09:11:35.192Z</time></trkpt><trkpt lat="43.5815132" lon="11.290936"><ele>413.0</ele><time>2026-04-19T09:11:36.16Z</time></trkpt><trkpt lat="43.5815908" lon="11.2908813"><ele>413.0</ele><time>2026-04-19T09:11:37.182Z</time></trkpt><trkpt lat="43.5816634" lon="11.2908347"><ele>413.0</ele><time>2026-04-19T09:11:38.19Z</time></trkpt><trkpt lat="43.5817267" lon="11.2908106"><ele>413.0</ele><time>2026-04-19T09:11:39.183Z</time></trkpt><trkpt lat="43.5818411" lon="11.2908127"><ele>413.0</ele><time>2026-04-19T09:11:41.183Z</time></trkpt><trkpt lat="43.5819042" lon="11.2908236"><ele>413.0</ele><time>2026-04-19T09:11:42.187Z</time></trkpt><trkpt lat="43.5820305" lon="11.290763"><ele>411.49999999999994</ele><time>2026-04-19T09:11:44.183Z</time></trkpt><trkpt lat="43.5821044" lon="11.2907396"><ele>410.0</ele><time>2026-04-19T09:11:45.18Z</time></trkpt><trkpt lat="43.5821971" lon="11.2907469"><ele>408.5</ele><time>2026-04-19T09:11:46.185Z</time></trkpt><trkpt lat="43.5822969" lon="11.2907704"><ele>407.0</ele><time>2026-04-19T09:11:47.173Z</time></trkpt><trkpt lat="43.5823785" lon="11.2908027"><ele>405.49999999999994</ele><time>2026-04-19T09:11:48.178Z</time></trkpt><trkpt lat="43.5824429" lon="11.2908243"><ele>404.0</ele><time>2026-04-19T09:11:49.166Z</time></trkpt><trkpt lat="43.5825532" lon="11.2908599"><ele>404.0</ele><time>2026-04-19T09:11:51.189Z</time></trkpt><trkpt lat="43.5826162" lon="11.290957"><ele>404.0</ele><time>2026-04-19T09:11:53.181Z</time></trkpt><trkpt lat="43.5826472" lon="11.2910973"><ele>404.0</ele><time>2026-04-19T09:11:55.186Z</time></trkpt><trkpt lat="43.5826776" lon="11.2912446"><ele>404.0</ele><time>2026-04-19T09:11:57.172Z</time></trkpt><trkpt lat="43.5827296" lon="11.2913688"><ele>404.0</ele><time>2026-04-19T09:11:59.182Z</time></trkpt><trkpt lat="43.582771" lon="11.2914385"><ele>400.75</ele><time>2026-04-19T09:12:00.18Z</time></trkpt><trkpt lat="43.5828321" lon="11.2915217"><ele>397.5</ele><time>2026-04-19T09:12:01.179Z</time></trkpt><trkpt lat="43.5829207" lon="11.2916108"><ele>394.25</ele><time>2026-04-19T09:12:02.177Z</time></trkpt><trkpt lat="43.5830377" lon="11.2916961"><ele>391.0</ele><time>2026-04-19T09:12:03.176Z</time></trkpt><trkpt lat="43.5831597" lon="11.291783"><ele>389.5</ele><time>2026-04-19T09:12:04.18Z</time></trkpt><trkpt lat="43.5832879" lon="11.2918663"><ele>388.0</ele><time>2026-04-19T09:12:05.175Z</time></trkpt><trkpt lat="43.5834076" lon="11.2919473"><ele>386.5</ele><time>2026-04-19T09:12:06.176Z</time></trkpt><trkpt lat="43.5835148" lon="11.2920189"><ele>385.0</ele><time>2026-04-19T09:12:07.178Z</time></trkpt><trkpt lat="43.5836109" lon="11.2920874"><ele>384.50000000000006</ele><time>2026-04-19T09:12:08.182Z</time></trkpt><trkpt lat="43.5836905" lon="11.2921491"><ele>384.0</ele><time>2026-04-19T09:12:09.182Z</time></trkpt><trkpt lat="43.5837638" lon="11.2921965"><ele>383.5</ele><time>2026-04-19T09:12:10.169Z</time></trkpt><trkpt lat="43.5838293" lon="11.2922482"><ele>383.0</ele><time>2026-04-19T09:12:11.168Z</time></trkpt><trkpt lat="43.5839013" lon="11.2923868"><ele>382.5</ele><time>2026-04-19T09:12:13.195Z</time></trkpt><trkpt lat="43.5839199" lon="11.2924822"><ele>382.0</ele><time>2026-04-19T09:12:14.177Z</time></trkpt><trkpt lat="43.583952" lon="11.2925714"><ele>382.0</ele><time>2026-04-19T09:12:15.168Z</time></trkpt><trkpt lat="43.5839967" lon="11.2926542"><ele>382.0</ele><time>2026-04-19T09:12:16.173Z</time></trkpt><trkpt lat="43.584059" lon="11.2927218"><ele>382.0</ele><time>2026-04-19T09:12:17.181Z</time></trkpt><trkpt lat="43.5841442" lon="11.2927898"><ele>382.0</ele><time>2026-04-19T09:12:18.186Z</time></trkpt><trkpt lat="43.5842405" lon="11.2928596"><ele>382.0</ele><time>2026-04-19T09:12:19.178Z</time></trkpt><trkpt lat="43.5843313" lon="11.2929231"><ele>382.0</ele><time>2026-04-19T09:12:20.179Z</time></trkpt><trkpt lat="43.5844282" lon="11.2929988"><ele>382.0</ele><time>2026-04-19T09:12:21.176Z</time></trkpt><trkpt lat="43.5845321" lon="11.2930837"><ele>382.0</ele><time>2026-04-19T09:12:22.176Z</time></trkpt><trkpt lat="43.5846372" lon="11.2931725"><ele>382.0</ele><time>2026-04-19T09:12:23.185Z</time></trkpt><trkpt lat="43.5847432" lon="11.2932527"><ele>378.5</ele><time>2026-04-19T09:12:24.168Z</time></trkpt><trkpt lat="43.5848531" lon="11.2933361"><ele>375.0</ele><time>2026-04-19T09:12:25.175Z</time></trkpt><trkpt lat="43.5849594" lon="11.2934284"><ele>371.5</ele><time>2026-04-19T09:12:26.153Z</time></trkpt><trkpt lat="43.5850553" lon="11.2935465"><ele>368.0</ele><time>2026-04-19T09:12:27.176Z</time></trkpt><trkpt lat="43.5851408" lon="11.2936681"><ele>368.0</ele><time>2026-04-19T09:12:28.175Z</time></trkpt><trkpt lat="43.5852013" lon="11.2937767"><ele>368.0</ele><time>2026-04-19T09:12:29.175Z</time></trkpt><trkpt lat="43.5852386" lon="11.2938544"><ele>368.0</ele><time>2026-04-19T09:12:30.159Z</time></trkpt><trkpt lat="43.5852598" lon="11.2939441"><ele>368.0</ele><time>2026-04-19T09:12:31.177Z</time></trkpt><trkpt lat="43.585264" lon="11.2940506"><ele>368.0</ele><time>2026-04-19T09:12:32.17Z</time></trkpt><trkpt lat="43.5852472" lon="11.2941752"><ele>368.0</ele><time>2026-04-19T09:12:33.183Z</time></trkpt><trkpt lat="43.5852215" lon="11.2943136"><ele>368.0</ele><time>2026-04-19T09:12:34.18Z</time></trkpt><trkpt lat="43.5851946" lon="11.2944636"><ele>368.0</ele><time>2026-04-19T09:12:35.166Z</time></trkpt><trkpt lat="43.5851676" lon="11.2946049"><ele>368.0</ele><time>2026-04-19T09:12:36.168Z</time></trkpt><trkpt lat="43.5851453" lon="11.2947381"><ele>368.0</ele><time>2026-04-19T09:12:37.166Z</time></trkpt><trkpt lat="43.5851261" lon="11.2948643"><ele>368.0</ele><time>2026-04-19T09:12:38.173Z</time></trkpt><trkpt lat="43.5851004" lon="11.2949963"><ele>366.75</ele><time>2026-04-19T09:12:39.178Z</time></trkpt><trkpt lat="43.5850695" lon="11.2951439"><ele>365.5</ele><time>2026-04-19T09:12:40.16Z</time></trkpt><trkpt lat="43.5850433" lon="11.295299"><ele>364.25</ele><time>2026-04-19T09:12:41.182Z</time></trkpt><trkpt lat="43.5850217" lon="11.295467"><ele>363.0</ele><time>2026-04-19T09:12:42.179Z</time></trkpt><trkpt lat="43.5850003" lon="11.2956337"><ele>361.0</ele><time>2026-04-19T09:12:43.162Z</time></trkpt><trkpt lat="43.5849796" lon="11.2957978"><ele>359.0</ele><time>2026-04-19T09:12:44.181Z</time></trkpt><trkpt lat="43.5849731" lon="11.2959618"><ele>357.0</ele><time>2026-04-19T09:12:45.176Z</time></trkpt><trkpt lat="43.5849709" lon="11.2961262"><ele>355.0</ele><time>2026-04-19T09:12:46.181Z</time></trkpt><trkpt lat="43.5849722" lon="11.2962866"><ele>353.75</ele><time>2026-04-19T09:12:47.177Z</time></trkpt><trkpt lat="43.5849818" lon="11.2964427"><ele>352.5</ele><time>2026-04-19T09:12:48.179Z</time></trkpt><trkpt lat="43.5849981" lon="11.2965937"><ele>351.25</ele><time>2026-04-19T09:12:49.164Z</time></trkpt><trkpt lat="43.5850259" lon="11.2967399"><ele>350.0</ele><time>2026-04-19T09:12:50.183Z</time></trkpt><trkpt lat="43.5850614" lon="11.2968957"><ele>350.0</ele><time>2026-04-19T09:12:51.176Z</time></trkpt><trkpt lat="43.5850994" lon="11.2970542"><ele>350.0</ele><time>2026-04-19T09:12:52.175Z</time></trkpt><trkpt lat="43.5851419" lon="11.2972214"><ele>350.0</ele><time>2026-04-19T09:12:53.184Z</time></trkpt><trkpt lat="43.5851899" lon="11.2973878"><ele>350.0</ele><time>2026-04-19T09:12:54.174Z</time></trkpt><trkpt lat="43.585241" lon="11.2975348"><ele>350.0</ele><time>2026-04-19T09:12:55.199Z</time></trkpt><trkpt lat="43.585283" lon="11.297665"><ele>350.0</ele><time>2026-04-19T09:12:56.173Z</time></trkpt><trkpt lat="43.5853148" lon="11.2977776"><ele>350.0</ele><time>2026-04-19T09:12:57.175Z</time></trkpt><trkpt lat="43.5853269" lon="11.2979003"><ele>350.0</ele><time>2026-04-19T09:12:58.174Z</time></trkpt><trkpt lat="43.5853197" lon="11.2980272"><ele>350.0</ele><time>2026-04-19T09:12:59.167Z</time></trkpt><trkpt lat="43.585313" lon="11.298168"><ele>349.0</ele><time>2026-04-19T09:13:00.156Z</time></trkpt><trkpt lat="43.5853088" lon="11.2983297"><ele>348.0</ele><time>2026-04-19T09:13:01.172Z</time></trkpt><trkpt lat="43.5853052" lon="11.2985046"><ele>347.0</ele><time>2026-04-19T09:13:02.17Z</time></trkpt><trkpt lat="43.585307" lon="11.2986888"><ele>346.0</ele><time>2026-04-19T09:13:03.169Z</time></trkpt><trkpt lat="43.5853066" lon="11.298883"><ele>344.5</ele><time>2026-04-19T09:13:04.185Z</time></trkpt><trkpt lat="43.5853056" lon="11.299061"><ele>343.0</ele><time>2026-04-19T09:13:05.202Z</time></trkpt><trkpt lat="43.585302" lon="11.2992369"><ele>341.5</ele><time>2026-04-19T09:13:06.178Z</time></trkpt><trkpt lat="43.5852972" lon="11.2994122"><ele>340.0</ele><time>2026-04-19T09:13:07.185Z</time></trkpt><trkpt lat="43.585294" lon="11.2995861"><ele>339.25</ele><time>2026-04-19T09:13:08.164Z</time></trkpt><trkpt lat="43.5852949" lon="11.2997576"><ele>338.5</ele><time>2026-04-19T09:13:09.174Z</time></trkpt><trkpt lat="43.5853003" lon="11.2999246"><ele>337.75</ele><time>2026-04-19T09:13:10.179Z</time></trkpt><trkpt lat="43.5853014" lon="11.3000922"><ele>337.0</ele><time>2026-04-19T09:13:11.187Z</time></trkpt><trkpt lat="43.5853006" lon="11.3002477"><ele>337.0</ele><time>2026-04-19T09:13:12.173Z</time></trkpt><trkpt lat="43.5853004" lon="11.3003976"><ele>337.0</ele><time>2026-04-19T09:13:13.171Z</time></trkpt><trkpt lat="43.5853007" lon="11.3005456"><ele>337.0</ele><time>2026-04-19T09:13:14.165Z</time></trkpt><trkpt lat="43.5853035" lon="11.3006916"><ele>337.0</ele><time>2026-04-19T09:13:15.162Z</time></trkpt><trkpt lat="43.5853111" lon="11.3008252"><ele>337.0</ele><time>2026-04-19T09:13:16.175Z</time></trkpt><trkpt lat="43.585335" lon="11.3009495"><ele>337.20000000000005</ele><time>2026-04-19T09:13:17.187Z</time></trkpt><trkpt lat="43.5853809" lon="11.3010719"><ele>337.4</ele><time>2026-04-19T09:13:18.18Z</time></trkpt><trkpt lat="43.5854403" lon="11.3011975"><ele>337.6</ele><time>2026-04-19T09:13:19.152Z</time></trkpt><trkpt lat="43.5855124" lon="11.3013264"><ele>337.79999999999995</ele><time>2026-04-19T09:13:20.187Z</time></trkpt><trkpt lat="43.5855764" lon="11.3014362"><ele>338.0</ele><time>2026-04-19T09:13:21.164Z</time></trkpt><trkpt lat="43.5856292" lon="11.3015423"><ele>338.59999999999997</ele><time>2026-04-19T09:13:22.19Z</time></trkpt><trkpt lat="43.5856638" lon="11.3016577"><ele>339.2</ele><time>2026-04-19T09:13:23.174Z</time></trkpt><trkpt lat="43.5856748" lon="11.3017945"><ele>339.8</ele><time>2026-04-19T09:13:24.16Z</time></trkpt><trkpt lat="43.5856875" lon="11.301931"><ele>340.4</ele><time>2026-04-19T09:13:25.166Z</time></trkpt><trkpt lat="43.5857001" lon="11.3020525"><ele>341.0</ele><time>2026-04-19T09:13:26.167Z</time></trkpt><trkpt lat="43.5857116" lon="11.3021708"><ele>341.0</ele><time>2026-04-19T09:13:27.172Z</time></trkpt><trkpt lat="43.5857276" lon="11.3022908"><ele>341.0</ele><time>2026-04-19T09:13:28.175Z</time></trkpt><trkpt lat="43.5857591" lon="11.3024071"><ele>341.0</ele><time>2026-04-19T09:13:29.157Z</time></trkpt><trkpt lat="43.5857984" lon="11.3025025"><ele>341.0</ele><time>2026-04-19T09:13:30.181Z</time></trkpt><trkpt lat="43.5858421" lon="11.3025847"><ele>341.0</ele><time>2026-04-19T09:13:31.169Z</time></trkpt><trkpt lat="43.5858841" lon="11.3026651"><ele>341.0</ele><time>2026-04-19T09:13:32.176Z</time></trkpt><trkpt lat="43.5859309" lon="11.3027269"><ele>341.0</ele><time>2026-04-19T09:13:33.184Z</time></trkpt><trkpt lat="43.5860116" lon="11.3028231"><ele>341.0</ele><time>2026-04-19T09:13:35.169Z</time></trkpt><trkpt lat="43.5860784" lon="11.3029378"><ele>341.0</ele><time>2026-04-19T09:13:37.158Z</time></trkpt><trkpt lat="43.5861431" lon="11.3030612"><ele>341.0</ele><time>2026-04-19T09:13:39.173Z</time></trkpt><trkpt lat="43.5861816" lon="11.3031338"><ele>341.0</ele><time>2026-04-19T09:13:40.175Z</time></trkpt><trkpt lat="43.5862307" lon="11.3032143"><ele>339.33333333333337</ele><time>2026-04-19T09:13:41.162Z</time></trkpt><trkpt lat="43.586285" lon="11.3032887"><ele>337.6666666666667</ele><time>2026-04-19T09:13:42.163Z</time></trkpt><trkpt lat="43.5863546" lon="11.303345"><ele>336.0</ele><time>2026-04-19T09:13:43.169Z</time></trkpt><trkpt lat="43.5864261" lon="11.303398"><ele>334.3333333333333</ele><time>2026-04-19T09:13:44.186Z</time></trkpt><trkpt lat="43.5865095" lon="11.3034475"><ele>332.66666666666663</ele><time>2026-04-19T09:13:45.171Z</time></trkpt><trkpt lat="43.5865892" lon="11.3035036"><ele>331.0</ele><time>2026-04-19T09:13:46.178Z</time></trkpt><trkpt lat="43.5866603" lon="11.3035603"><ele>331.0</ele><time>2026-04-19T09:13:47.176Z</time></trkpt><trkpt lat="43.5867302" lon="11.303609"><ele>331.0</ele><time>2026-04-19T09:13:48.175Z</time></trkpt><trkpt lat="43.586795" lon="11.303678"><ele>331.0</ele><time>2026-04-19T09:13:49.176Z</time></trkpt><trkpt lat="43.586859" lon="11.3037627"><ele>331.0</ele><time>2026-04-19T09:13:50.174Z</time></trkpt><trkpt lat="43.5869158" lon="11.3038595"><ele>331.0</ele><time>2026-04-19T09:13:51.175Z</time></trkpt><trkpt lat="43.5869573" lon="11.3039846"><ele>331.0</ele><time>2026-04-19T09:13:52.191Z</time></trkpt><trkpt lat="43.5869718" lon="11.3041168"><ele>329.8333333333333</ele><time>2026-04-19T09:13:53.181Z</time></trkpt><trkpt lat="43.5869571" lon="11.3042527"><ele>328.66666666666663</ele><time>2026-04-19T09:13:54.188Z</time></trkpt><trkpt lat="43.5869394" lon="11.3043829"><ele>327.5</ele><time>2026-04-19T09:13:55.165Z</time></trkpt><trkpt lat="43.5869239" lon="11.304498"><ele>326.3333333333333</ele><time>2026-04-19T09:13:56.179Z</time></trkpt><trkpt lat="43.5869125" lon="11.3046154"><ele>325.1666666666667</ele><time>2026-04-19T09:13:57.193Z</time></trkpt><trkpt lat="43.5868949" lon="11.3047273"><ele>324.0</ele><time>2026-04-19T09:13:58.176Z</time></trkpt><trkpt lat="43.5868778" lon="11.3048373"><ele>323.0</ele><time>2026-04-19T09:13:59.188Z</time></trkpt><trkpt lat="43.5868587" lon="11.3049575"><ele>322.0</ele><time>2026-04-19T09:14:00.169Z</time></trkpt><trkpt lat="43.5868384" lon="11.3050906"><ele>321.0</ele><time>2026-04-19T09:14:01.156Z</time></trkpt><trkpt lat="43.5868152" lon="11.3052315"><ele>320.0</ele><time>2026-04-19T09:14:02.176Z</time></trkpt><trkpt lat="43.5867959" lon="11.3053767"><ele>319.0</ele><time>2026-04-19T09:14:03.172Z</time></trkpt><trkpt lat="43.586774" lon="11.30553"><ele>317.25</ele><time>2026-04-19T09:14:04.177Z</time></trkpt><trkpt lat="43.5867559" lon="11.3056859"><ele>315.5</ele><time>2026-04-19T09:14:05.159Z</time></trkpt><trkpt lat="43.5867308" lon="11.3058459"><ele>313.75</ele><time>2026-04-19T09:14:06.159Z</time></trkpt><trkpt lat="43.5867097" lon="11.3060059"><ele>312.0</ele><time>2026-04-19T09:14:07.159Z</time></trkpt><trkpt lat="43.5866861" lon="11.3061661"><ele>312.0</ele><time>2026-04-19T09:14:08.155Z</time></trkpt><trkpt lat="43.5866628" lon="11.3063266"><ele>312.0</ele><time>2026-04-19T09:14:09.165Z</time></trkpt><trkpt lat="43.5866403" lon="11.3064751"><ele>312.0</ele><time>2026-04-19T09:14:10.163Z</time></trkpt><trkpt lat="43.5866213" lon="11.3066109"><ele>312.0</ele><time>2026-04-19T09:14:11.162Z</time></trkpt><trkpt lat="43.5866001" lon="11.3067397"><ele>312.0</ele><time>2026-04-19T09:14:12.16Z</time></trkpt><trkpt lat="43.5865926" lon="11.3068506"><ele>311.0</ele><time>2026-04-19T09:14:13.183Z</time></trkpt><trkpt lat="43.586588" lon="11.3069539"><ele>310.0</ele><time>2026-04-19T09:14:14.175Z</time></trkpt><trkpt lat="43.5865861" lon="11.3070492"><ele>309.0</ele><time>2026-04-19T09:14:15.171Z</time></trkpt><trkpt lat="43.5865927" lon="11.3071383"><ele>308.0</ele><time>2026-04-19T09:14:16.18Z</time></trkpt><trkpt lat="43.5866061" lon="11.307229"><ele>307.0</ele><time>2026-04-19T09:14:17.181Z</time></trkpt><trkpt lat="43.5866213" lon="11.3073942"><ele>306.0</ele><time>2026-04-19T09:14:19.175Z</time></trkpt><trkpt lat="43.5866298" lon="11.3074822"><ele>304.40000000000003</ele><time>2026-04-19T09:14:20.165Z</time></trkpt><trkpt lat="43.5866405" lon="11.3075991"><ele>302.8</ele><time>2026-04-19T09:14:21.177Z</time></trkpt><trkpt lat="43.5866502" lon="11.3077248"><ele>301.20000000000005</ele><time>2026-04-19T09:14:22.183Z</time></trkpt><trkpt lat="43.5866639" lon="11.3078669"><ele>299.6</ele><time>2026-04-19T09:14:23.182Z</time></trkpt><trkpt lat="43.586681" lon="11.3080122"><ele>298.0</ele><time>2026-04-19T09:14:24.189Z</time></trkpt><trkpt lat="43.5866916" lon="11.3081612"><ele>296.2</ele><time>2026-04-19T09:14:25.185Z</time></trkpt><trkpt lat="43.5867054" lon="11.3083022"><ele>294.4</ele><time>2026-04-19T09:14:26.171Z</time></trkpt><trkpt lat="43.5867188" lon="11.308434"><ele>292.59999999999997</ele><time>2026-04-19T09:14:27.181Z</time></trkpt><trkpt lat="43.5867326" lon="11.3085709"><ele>290.8</ele><time>2026-04-19T09:14:28.18Z</time></trkpt><trkpt lat="43.5867487" lon="11.3087138"><ele>289.0</ele><time>2026-04-19T09:14:29.164Z</time></trkpt><trkpt lat="43.5867643" lon="11.3088575"><ele>287.0</ele><time>2026-04-19T09:14:30.181Z</time></trkpt><trkpt lat="43.5867787" lon="11.3090073"><ele>285.0</ele><time>2026-04-19T09:14:31.182Z</time></trkpt><trkpt lat="43.5867916" lon="11.3091472"><ele>283.0</ele><time>2026-04-19T09:14:32.178Z</time></trkpt><trkpt lat="43.5868058" lon="11.3092909"><ele>281.0</ele><time>2026-04-19T09:14:33.17Z</time></trkpt><trkpt lat="43.5868239" lon="11.3094422"><ele>279.0</ele><time>2026-04-19T09:14:34.178Z</time></trkpt><trkpt lat="43.5868406" lon="11.309588"><ele>279.0</ele><time>2026-04-19T09:14:35.175Z</time></trkpt><trkpt lat="43.5868566" lon="11.3097237"><ele>279.0</ele><time>2026-04-19T09:14:36.184Z</time></trkpt><trkpt lat="43.5868728" lon="11.309839"><ele>279.0</ele><time>2026-04-19T09:14:37.174Z</time></trkpt><trkpt lat="43.5868864" lon="11.3099482"><ele>279.0</ele><time>2026-04-19T09:14:38.18Z</time></trkpt><trkpt lat="43.5868913" lon="11.3100475"><ele>279.0</ele><time>2026-04-19T09:14:39.174Z</time></trkpt><trkpt lat="43.5868835" lon="11.3101552"><ele>279.0</ele><time>2026-04-19T09:14:40.178Z</time></trkpt><trkpt lat="43.5868568" lon="11.3102675"><ele>277.6666666666667</ele><time>2026-04-19T09:14:41.178Z</time></trkpt><trkpt lat="43.5868188" lon="11.3103789"><ele>276.3333333333333</ele><time>2026-04-19T09:14:42.172Z</time></trkpt><trkpt lat="43.5867822" lon="11.3104848"><ele>275.0</ele><time>2026-04-19T09:14:43.18Z</time></trkpt><trkpt lat="43.5867533" lon="11.3105732"><ele>273.66666666666663</ele><time>2026-04-19T09:14:44.176Z</time></trkpt><trkpt lat="43.5867292" lon="11.310655"><ele>272.3333333333333</ele><time>2026-04-19T09:14:45.186Z</time></trkpt><trkpt lat="43.5867027" lon="11.3107342"><ele>271.0</ele><time>2026-04-19T09:14:46.173Z</time></trkpt><trkpt lat="43.5866235" lon="11.3108613"><ele>269.66666666666663</ele><time>2026-04-19T09:14:48.178Z</time></trkpt><trkpt lat="43.5865268" lon="11.310907"><ele>268.3333333333333</ele><time>2026-04-19T09:14:50.179Z</time></trkpt><trkpt lat="43.5864482" lon="11.3109518"><ele>267.0</ele><time>2026-04-19T09:14:52.179Z</time></trkpt><trkpt lat="43.5864012" lon="11.3110448"><ele>265.6666666666667</ele><time>2026-04-19T09:14:54.18Z</time></trkpt><trkpt lat="43.5864026" lon="11.3111775"><ele>264.33333333333337</ele><time>2026-04-19T09:14:56.168Z</time></trkpt><trkpt lat="43.5864309" lon="11.311273"><ele>263.0</ele><time>2026-04-19T09:14:57.177Z</time></trkpt><trkpt lat="43.5864628" lon="11.3113863"><ele>261.57142857142856</ele><time>2026-04-19T09:14:58.159Z</time></trkpt><trkpt lat="43.5864888" lon="11.3114889"><ele>260.1428571428571</ele><time>2026-04-19T09:14:59.176Z</time></trkpt><trkpt lat="43.5865151" lon="11.3115868"><ele>258.7142857142857</ele><time>2026-04-19T09:15:00.161Z</time></trkpt><trkpt lat="43.5865498" lon="11.3116743"><ele>257.2857142857143</ele><time>2026-04-19T09:15:01.17Z</time></trkpt><trkpt lat="43.5865897" lon="11.3117592"><ele>255.85714285714286</ele><time>2026-04-19T09:15:02.153Z</time></trkpt><trkpt lat="43.5866443" lon="11.3118227"><ele>254.42857142857144</ele><time>2026-04-19T09:15:03.165Z</time></trkpt><trkpt lat="43.5867134" lon="11.3118673"><ele>253.00000000000003</ele><time>2026-04-19T09:15:04.174Z</time></trkpt><trkpt lat="43.5867841" lon="11.3119168"><ele>252.99999999999997</ele><time>2026-04-19T09:15:05.166Z</time></trkpt><trkpt lat="43.5868585" lon="11.311951"><ele>253.0</ele><time>2026-04-19T09:15:06.172Z</time></trkpt><trkpt lat="43.5869324" lon="11.3119879"><ele>253.0</ele><time>2026-04-19T09:15:07.164Z</time></trkpt><trkpt lat="43.5870098" lon="11.3120309"><ele>253.0</ele><time>2026-04-19T09:15:08.179Z</time></trkpt><trkpt lat="43.5870857" lon="11.3120794"><ele>252.99999999999997</ele><time>2026-04-19T09:15:09.174Z</time></trkpt><trkpt lat="43.5871605" lon="11.3121316"><ele>253.0</ele><time>2026-04-19T09:15:10.193Z</time></trkpt><trkpt lat="43.5872275" lon="11.3121922"><ele>250.83333333333331</ele><time>2026-04-19T09:15:11.178Z</time></trkpt><trkpt lat="43.5872949" lon="11.3122551"><ele>248.66666666666666</ele><time>2026-04-19T09:15:12.178Z</time></trkpt><trkpt lat="43.5873702" lon="11.3123038"><ele>246.5</ele><time>2026-04-19T09:15:13.181Z</time></trkpt><trkpt lat="43.587449" lon="11.3123339"><ele>244.33333333333331</ele><time>2026-04-19T09:15:14.182Z</time></trkpt><trkpt lat="43.5875183" lon="11.3123776"><ele>242.16666666666666</ele><time>2026-04-19T09:15:15.183Z</time></trkpt><trkpt lat="43.5875777" lon="11.3124147"><ele>240.0</ele><time>2026-04-19T09:15:16.168Z</time></trkpt><trkpt lat="43.5876242" lon="11.3125445"><ele>240.0</ele><time>2026-04-19T09:15:18.183Z</time></trkpt><trkpt lat="43.5876036" lon="11.3126271"><ele>240.0</ele><time>2026-04-19T09:15:19.169Z</time></trkpt><trkpt lat="43.5875614" lon="11.3126979"><ele>240.0</ele><time>2026-04-19T09:15:20.194Z</time></trkpt><trkpt lat="43.5875017" lon="11.3128087"><ele>240.0</ele><time>2026-04-19T09:15:22.174Z</time></trkpt><trkpt lat="43.5874373" lon="11.3129268"><ele>240.0</ele><time>2026-04-19T09:15:24.179Z</time></trkpt><trkpt lat="43.5873812" lon="11.3130526"><ele>240.0</ele><time>2026-04-19T09:15:26.166Z</time></trkpt><trkpt lat="43.5873101" lon="11.313169"><ele>238.33333333333334</ele><time>2026-04-19T09:15:28.183Z</time></trkpt><trkpt lat="43.5872691" lon="11.3132412"><ele>236.66666666666669</ele><time>2026-04-19T09:15:29.178Z</time></trkpt><trkpt lat="43.5872239" lon="11.3133073"><ele>235.0</ele><time>2026-04-19T09:15:30.179Z</time></trkpt><trkpt lat="43.5871441" lon="11.3134228"><ele>233.33333333333334</ele><time>2026-04-19T09:15:32.169Z</time></trkpt><trkpt lat="43.5871031" lon="11.313512"><ele>231.66666666666669</ele><time>2026-04-19T09:15:34.171Z</time></trkpt><trkpt lat="43.5870649" lon="11.3135994"><ele>230.0</ele><time>2026-04-19T09:15:37.177Z</time></trkpt><trkpt lat="43.5870097" lon="11.3136632"><ele>229.83333333333334</ele><time>2026-04-19T09:15:40.178Z</time></trkpt><trkpt lat="43.5869234" lon="11.3136411"><ele>229.66666666666669</ele><time>2026-04-19T09:15:42.189Z</time></trkpt><trkpt lat="43.586831" lon="11.3136149"><ele>229.5</ele><time>2026-04-19T09:15:44.181Z</time></trkpt><trkpt lat="43.5867367" lon="11.3136036"><ele>229.33333333333331</ele><time>2026-04-19T09:15:46.168Z</time></trkpt><trkpt lat="43.5866734" lon="11.3136335"><ele>229.16666666666666</ele><time>2026-04-19T09:15:48.172Z</time></trkpt><trkpt lat="43.5865848" lon="11.3136901"><ele>229.0</ele><time>2026-04-19T09:15:51.173Z</time></trkpt><trkpt lat="43.5865138" lon="11.313724"><ele>228.99999999999997</ele><time>2026-04-19T09:15:53.18Z</time></trkpt><trkpt lat="43.5864209" lon="11.3137092"><ele>229.0</ele><time>2026-04-19T09:15:55.176Z</time></trkpt><trkpt lat="43.5863088" lon="11.313762"><ele>229.0</ele><time>2026-04-19T09:15:57.18Z</time></trkpt><trkpt lat="43.5862506" lon="11.3138069"><ele>229.0</ele><time>2026-04-19T09:15:58.162Z</time></trkpt><trkpt lat="43.5861894" lon="11.3138363"><ele>228.99999999999997</ele><time>2026-04-19T09:15:59.167Z</time></trkpt><trkpt lat="43.5861223" lon="11.313873"><ele>229.0</ele><time>2026-04-19T09:16:00.169Z</time></trkpt><trkpt lat="43.5860555" lon="11.3139146"><ele>229.0</ele><time>2026-04-19T09:16:01.148Z</time></trkpt><trkpt lat="43.5859812" lon="11.3139548"><ele>228.99999999999997</ele><time>2026-04-19T09:16:02.176Z</time></trkpt><trkpt lat="43.5859025" lon="11.3140074"><ele>228.99999999999997</ele><time>2026-04-19T09:16:03.183Z</time></trkpt><trkpt lat="43.5858134" lon="11.3140661"><ele>229.0</ele><time>2026-04-19T09:16:04.169Z</time></trkpt><trkpt lat="43.585718" lon="11.3141227"><ele>229.0</ele><time>2026-04-19T09:16:05.162Z</time></trkpt><trkpt lat="43.5856354" lon="11.3141826"><ele>229.0</ele><time>2026-04-19T09:16:06.178Z</time></trkpt><trkpt lat="43.5855536" lon="11.3142404"><ele>228.99999999999997</ele><time>2026-04-19T09:16:07.171Z</time></trkpt><trkpt lat="43.5854725" lon="11.3142998"><ele>228.99999999999997</ele><time>2026-04-19T09:16:08.174Z</time></trkpt><trkpt lat="43.5853946" lon="11.3143658"><ele>229.0</ele><time>2026-04-19T09:16:09.184Z</time></trkpt><trkpt lat="43.585313" lon="11.3144239"><ele>229.0</ele><time>2026-04-19T09:16:10.176Z</time></trkpt><trkpt lat="43.5852349" lon="11.3144837"><ele>229.16666666666666</ele><time>2026-04-19T09:16:11.155Z</time></trkpt><trkpt lat="43.5851594" lon="11.3145368"><ele>229.33333333333331</ele><time>2026-04-19T09:16:12.173Z</time></trkpt><trkpt lat="43.5850831" lon="11.3145964"><ele>229.5</ele><time>2026-04-19T09:16:13.177Z</time></trkpt><trkpt lat="43.5850091" lon="11.3146545"><ele>229.66666666666669</ele><time>2026-04-19T09:16:14.186Z</time></trkpt><trkpt lat="43.5849405" lon="11.3147075"><ele>229.83333333333334</ele><time>2026-04-19T09:16:15.177Z</time></trkpt><trkpt lat="43.5848709" lon="11.314761"><ele>230.0</ele><time>2026-04-19T09:16:16.167Z</time></trkpt><trkpt lat="43.584798" lon="11.3148123"><ele>230.00000000000003</ele><time>2026-04-19T09:16:17.167Z</time></trkpt><trkpt lat="43.5847201" lon="11.3148637"><ele>230.0</ele><time>2026-04-19T09:16:18.171Z</time></trkpt><trkpt lat="43.5846489" lon="11.3149109"><ele>230.0</ele><time>2026-04-19T09:16:19.172Z</time></trkpt><trkpt lat="43.5845768" lon="11.3149692"><ele>230.0</ele><time>2026-04-19T09:16:20.164Z</time></trkpt><trkpt lat="43.5844991" lon="11.3150331"><ele>230.00000000000003</ele><time>2026-04-19T09:16:21.171Z</time></trkpt><trkpt lat="43.5844207" lon="11.315096"><ele>230.0</ele><time>2026-04-19T09:16:22.175Z</time></trkpt><trkpt lat="43.5843487" lon="11.3151637"><ele>230.1428571428571</ele><time>2026-04-19T09:16:23.18Z</time></trkpt><trkpt lat="43.5842909" lon="11.3152307"><ele>230.28571428571428</ele><time>2026-04-19T09:16:24.182Z</time></trkpt><trkpt lat="43.5842376" lon="11.3152928"><ele>230.42857142857142</ele><time>2026-04-19T09:16:25.172Z</time></trkpt><trkpt lat="43.5841844" lon="11.3153529"><ele>230.57142857142856</ele><time>2026-04-19T09:16:26.158Z</time></trkpt><trkpt lat="43.5841339" lon="11.3154068"><ele>230.71428571428572</ele><time>2026-04-19T09:16:27.17Z</time></trkpt><trkpt lat="43.5841182" lon="11.3155047"><ele>230.85714285714286</ele><time>2026-04-19T09:16:29.179Z</time></trkpt><trkpt lat="43.5841009" lon="11.3156278"><ele>231.0</ele><time>2026-04-19T09:16:32.177Z</time></trkpt><trkpt lat="43.5840567" lon="11.315747"><ele>231.0</ele><time>2026-04-19T09:16:34.184Z</time></trkpt><trkpt lat="43.5840172" lon="11.3158188"><ele>231.00000000000003</ele><time>2026-04-19T09:16:35.182Z</time></trkpt><trkpt lat="43.5839714" lon="11.3159155"><ele>231.00000000000003</ele><time>2026-04-19T09:16:36.182Z</time></trkpt><trkpt lat="43.5839353" lon="11.3160369"><ele>231.0</ele><time>2026-04-19T09:16:37.174Z</time></trkpt><trkpt lat="43.5838972" lon="11.3161714"><ele>231.0</ele><time>2026-04-19T09:16:38.176Z</time></trkpt><trkpt lat="43.5838462" lon="11.3162954"><ele>230.8</ele><time>2026-04-19T09:16:39.157Z</time></trkpt><trkpt lat="43.5837927" lon="11.3164203"><ele>230.60000000000002</ele><time>2026-04-19T09:16:40.178Z</time></trkpt><trkpt lat="43.5837478" lon="11.3165435"><ele>230.4</ele><time>2026-04-19T09:16:41.177Z</time></trkpt><trkpt lat="43.5837005" lon="11.3166545"><ele>230.2</ele><time>2026-04-19T09:16:42.174Z</time></trkpt><trkpt lat="43.583653" lon="11.3167712"><ele>230.0</ele><time>2026-04-19T09:16:43.171Z</time></trkpt><trkpt lat="43.5836016" lon="11.3168859"><ele>230.66666666666669</ele><time>2026-04-19T09:16:44.182Z</time></trkpt><trkpt lat="43.5835497" lon="11.3170007"><ele>231.33333333333334</ele><time>2026-04-19T09:16:45.186Z</time></trkpt><trkpt lat="43.583507" lon="11.3171016"><ele>232.0</ele><time>2026-04-19T09:16:46.175Z</time></trkpt><trkpt lat="43.58346" lon="11.317193"><ele>232.66666666666669</ele><time>2026-04-19T09:16:47.176Z</time></trkpt><trkpt lat="43.5834135" lon="11.3172716"><ele>233.33333333333334</ele><time>2026-04-19T09:16:48.176Z</time></trkpt><trkpt lat="43.5833716" lon="11.3173481"><ele>234.0</ele><time>2026-04-19T09:16:49.177Z</time></trkpt><trkpt lat="43.5832884" lon="11.3174793"><ele>234.0</ele><time>2026-04-19T09:16:51.182Z</time></trkpt><trkpt lat="43.5832009" lon="11.3175684"><ele>233.99999999999997</ele><time>2026-04-19T09:16:53.18Z</time></trkpt><trkpt lat="43.5830903" lon="11.3176335"><ele>233.99999999999997</ele><time>2026-04-19T09:16:55.164Z</time></trkpt><trkpt lat="43.5829714" lon="11.3176791"><ele>234.0</ele><time>2026-04-19T09:16:57.172Z</time></trkpt><trkpt lat="43.5829095" lon="11.3177037"><ele>234.0</ele><time>2026-04-19T09:16:58.186Z</time></trkpt><trkpt lat="43.5828408" lon="11.3177242"><ele>234.39999999999998</ele><time>2026-04-19T09:16:59.174Z</time></trkpt><trkpt lat="43.5827617" lon="11.3177494"><ele>234.79999999999998</ele><time>2026-04-19T09:17:00.171Z</time></trkpt><trkpt lat="43.582677" lon="11.3177735"><ele>235.20000000000002</ele><time>2026-04-19T09:17:01.18Z</time></trkpt><trkpt lat="43.5825885" lon="11.3178035"><ele>235.60000000000002</ele><time>2026-04-19T09:17:02.176Z</time></trkpt><trkpt lat="43.582489" lon="11.3178328"><ele>236.0</ele><time>2026-04-19T09:17:03.159Z</time></trkpt><trkpt lat="43.5823859" lon="11.3178581"><ele>236.00000000000003</ele><time>2026-04-19T09:17:04.154Z</time></trkpt><trkpt lat="43.5822958" lon="11.3178938"><ele>236.0</ele><time>2026-04-19T09:17:05.179Z</time></trkpt><trkpt lat="43.5822088" lon="11.3179354"><ele>236.0</ele><time>2026-04-19T09:17:06.18Z</time></trkpt><trkpt lat="43.5821162" lon="11.3179569"><ele>236.0</ele><time>2026-04-19T09:17:07.157Z</time></trkpt><trkpt lat="43.5820316" lon="11.3179506"><ele>236.00000000000003</ele><time>2026-04-19T09:17:08.176Z</time></trkpt><trkpt lat="43.5819694" lon="11.3179346"><ele>236.0</ele><time>2026-04-19T09:17:09.173Z</time></trkpt><trkpt lat="43.5818769" lon="11.3179023"><ele>236.00000000000003</ele><time>2026-04-19T09:17:11.174Z</time></trkpt><trkpt lat="43.5818128" lon="11.3178896"><ele>236.0</ele><time>2026-04-19T09:17:14.179Z</time></trkpt><trkpt lat="43.5817272" lon="11.3178788"><ele>236.0</ele><time>2026-04-19T09:17:26.16Z</time></trkpt><trkpt lat="43.5816416" lon="11.3178881"><ele>236.0</ele><time>2026-04-19T09:17:29.173Z</time></trkpt><trkpt lat="43.5816081" lon="11.3180192"><ele>236.00000000000003</ele><time>2026-04-19T09:17:31.153Z</time></trkpt><trkpt lat="43.5816056" lon="11.3181181"><ele>236.0</ele><time>2026-04-19T09:17:32.173Z</time></trkpt><trkpt lat="43.5815982" lon="11.3182292"><ele>236.0</ele><time>2026-04-19T09:17:33.175Z</time></trkpt><trkpt lat="43.5815916" lon="11.31835"><ele>236.00000000000003</ele><time>2026-04-19T09:17:34.178Z</time></trkpt><trkpt lat="43.5815828" lon="11.3184769"><ele>236.00000000000003</ele><time>2026-04-19T09:17:35.158Z</time></trkpt><trkpt lat="43.5815775" lon="11.3185853"><ele>236.0</ele><time>2026-04-19T09:17:36.18Z</time></trkpt><trkpt lat="43.5815524" lon="11.3187181"><ele>236.0</ele><time>2026-04-19T09:17:38.175Z</time></trkpt><trkpt lat="43.5815187" lon="11.3188381"><ele>237.75</ele><time>2026-04-19T09:17:40.172Z</time></trkpt><trkpt lat="43.5814439" lon="11.3189406"><ele>239.5</ele><time>2026-04-19T09:17:42.176Z</time></trkpt><trkpt lat="43.5813146" lon="11.3190044"><ele>241.25</ele><time>2026-04-19T09:17:44.175Z</time></trkpt><trkpt lat="43.5812221" lon="11.3190099"><ele>243.0</ele><time>2026-04-19T09:17:45.179Z</time></trkpt><trkpt lat="43.5811035" lon="11.3190054"><ele>243.0</ele><time>2026-04-19T09:17:46.166Z</time></trkpt><trkpt lat="43.5809559" lon="11.3189993"><ele>243.0</ele><time>2026-04-19T09:17:47.176Z</time></trkpt><trkpt lat="43.5808179" lon="11.318989"><ele>243.0</ele><time>2026-04-19T09:17:48.184Z</time></trkpt><trkpt lat="43.5806891" lon="11.318994"><ele>243.0</ele><time>2026-04-19T09:17:49.179Z</time></trkpt><trkpt lat="43.5805527" lon="11.318994"><ele>243.0</ele><time>2026-04-19T09:17:50.183Z</time></trkpt><trkpt lat="43.5804234" lon="11.319002"><ele>243.0</ele><time>2026-04-19T09:17:51.178Z</time></trkpt><trkpt lat="43.5803005" lon="11.3190061"><ele>243.0</ele><time>2026-04-19T09:17:52.175Z</time></trkpt><trkpt lat="43.5801881" lon="11.3190072"><ele>243.0</ele><time>2026-04-19T09:17:53.174Z</time></trkpt><trkpt lat="43.5800912" lon="11.3190095"><ele>244.0</ele><time>2026-04-19T09:17:54.176Z</time></trkpt><trkpt lat="43.5800113" lon="11.319015"><ele>245.0</ele><time>2026-04-19T09:17:55.167Z</time></trkpt><trkpt lat="43.5799316" lon="11.3190256"><ele>246.0</ele><time>2026-04-19T09:17:56.176Z</time></trkpt><trkpt lat="43.5798618" lon="11.3190606"><ele>247.0</ele><time>2026-04-19T09:17:57.165Z</time></trkpt><trkpt lat="43.5798214" lon="11.3191489"><ele>248.0</ele><time>2026-04-19T09:17:58.183Z</time></trkpt><trkpt lat="43.5797946" lon="11.3192631"><ele>249.0</ele><time>2026-04-19T09:17:59.18Z</time></trkpt><trkpt lat="43.5797834" lon="11.3193776"><ele>249.0</ele><time>2026-04-19T09:18:00.176Z</time></trkpt><trkpt lat="43.5797657" lon="11.3194903"><ele>249.0</ele><time>2026-04-19T09:18:01.179Z</time></trkpt><trkpt lat="43.5797549" lon="11.3195943"><ele>249.0</ele><time>2026-04-19T09:18:02.175Z</time></trkpt><trkpt lat="43.5797539" lon="11.3197013"><ele>249.0</ele><time>2026-04-19T09:18:03.174Z</time></trkpt><trkpt lat="43.5797653" lon="11.3198158"><ele>249.0</ele><time>2026-04-19T09:18:04.175Z</time></trkpt><trkpt lat="43.5797889" lon="11.3199292"><ele>249.0</ele><time>2026-04-19T09:18:05.17Z</time></trkpt><trkpt lat="43.5798323" lon="11.320014"><ele>250.66666666666666</ele><time>2026-04-19T09:18:06.178Z</time></trkpt><trkpt lat="43.5798997" lon="11.3200666"><ele>252.33333333333331</ele><time>2026-04-19T09:18:07.182Z</time></trkpt><trkpt lat="43.579973" lon="11.320132"><ele>254.0</ele><time>2026-04-19T09:18:08.179Z</time></trkpt><trkpt lat="43.5800437" lon="11.3201941"><ele>255.66666666666666</ele><time>2026-04-19T09:18:09.187Z</time></trkpt><trkpt lat="43.5801197" lon="11.3202586"><ele>257.3333333333333</ele><time>2026-04-19T09:18:10.168Z</time></trkpt><trkpt lat="43.5801895" lon="11.3203016"><ele>259.0</ele><time>2026-04-19T09:18:11.177Z</time></trkpt><trkpt lat="43.5802608" lon="11.3203284"><ele>259.0</ele><time>2026-04-19T09:18:12.169Z</time></trkpt><trkpt lat="43.5803329" lon="11.3203517"><ele>259.0</ele><time>2026-04-19T09:18:13.152Z</time></trkpt><trkpt lat="43.5804062" lon="11.3203691"><ele>259.0</ele><time>2026-04-19T09:18:14.176Z</time></trkpt><trkpt lat="43.5804799" lon="11.3203712"><ele>259.0</ele><time>2026-04-19T09:18:15.184Z</time></trkpt><trkpt lat="43.5805474" lon="11.320373"><ele>259.0</ele><time>2026-04-19T09:18:16.199Z</time></trkpt><trkpt lat="43.5806124" lon="11.3203749"><ele>259.0</ele><time>2026-04-19T09:18:17.184Z</time></trkpt><trkpt lat="43.5807296" lon="11.3203904"><ele>258.8</ele><time>2026-04-19T09:18:19.181Z</time></trkpt><trkpt lat="43.5808229" lon="11.320475"><ele>258.59999999999997</ele><time>2026-04-19T09:18:21.187Z</time></trkpt><trkpt lat="43.5808446" lon="11.3205912"><ele>258.4</ele><time>2026-04-19T09:18:23.16Z</time></trkpt><trkpt lat="43.5808276" lon="11.3206951"><ele>258.2</ele><time>2026-04-19T09:18:25.177Z</time></trkpt><trkpt lat="43.5807645" lon="11.3207568"><ele>258.0</ele><time>2026-04-19T09:18:27.174Z</time></trkpt><trkpt lat="43.5806419" lon="11.3207697"><ele>260.4</ele><time>2026-04-19T09:18:29.176Z</time></trkpt><trkpt lat="43.5805565" lon="11.320764"><ele>262.8</ele><time>2026-04-19T09:18:30.177Z</time></trkpt><trkpt lat="43.5804556" lon="11.320763"><ele>265.2</ele><time>2026-04-19T09:18:31.177Z</time></trkpt><trkpt lat="43.5803616" lon="11.3207764"><ele>267.6</ele><time>2026-04-19T09:18:32.184Z</time></trkpt><trkpt lat="43.5802556" lon="11.3207894"><ele>270.0</ele><time>2026-04-19T09:18:33.186Z</time></trkpt><trkpt lat="43.5801601" lon="11.3208666"><ele>270.0</ele><time>2026-04-19T09:18:34.171Z</time></trkpt><trkpt lat="43.5800504" lon="11.3209868"><ele>270.0</ele><time>2026-04-19T09:18:35.173Z</time></trkpt><trkpt lat="43.5799841" lon="11.3211784"><ele>270.0</ele><time>2026-04-19T09:18:36.182Z</time></trkpt><trkpt lat="43.5799151" lon="11.3213534"><ele>270.0</ele><time>2026-04-19T09:18:37.166Z</time></trkpt><trkpt lat="43.5798313" lon="11.321474"><ele>271.0</ele><time>2026-04-19T09:18:38.175Z</time></trkpt><trkpt lat="43.5797129" lon="11.3215675"><ele>272.0</ele><time>2026-04-19T09:18:39.174Z</time></trkpt><trkpt lat="43.5795902" lon="11.3216413"><ele>273.0</ele><time>2026-04-19T09:18:40.157Z</time></trkpt><trkpt lat="43.5794856" lon="11.3217187"><ele>274.0</ele><time>2026-04-19T09:18:41.167Z</time></trkpt><trkpt lat="43.5794102" lon="11.3218189"><ele>274.0</ele><time>2026-04-19T09:18:42.173Z</time></trkpt><trkpt lat="43.5793672" lon="11.3219443"><ele>274.0</ele><time>2026-04-19T09:18:43.17Z</time></trkpt><trkpt lat="43.5793765" lon="11.3220725"><ele>274.0</ele><time>2026-04-19T09:18:44.173Z</time></trkpt><trkpt lat="43.5794411" lon="11.322163"><ele>274.0</ele><time>2026-04-19T09:18:45.174Z</time></trkpt><trkpt lat="43.5795216" lon="11.3221946"><ele>274.0</ele><time>2026-04-19T09:18:46.175Z</time></trkpt><trkpt lat="43.5796178" lon="11.3221355"><ele>275.4</ele><time>2026-04-19T09:18:47.179Z</time></trkpt><trkpt lat="43.579715" lon="11.3220574"><ele>276.79999999999995</ele><time>2026-04-19T09:18:48.18Z</time></trkpt><trkpt lat="43.5797958" lon="11.3219928"><ele>278.20000000000005</ele><time>2026-04-19T09:18:49.176Z</time></trkpt><trkpt lat="43.5798715" lon="11.3219768"><ele>279.6</ele><time>2026-04-19T09:18:50.188Z</time></trkpt><trkpt lat="43.5799409" lon="11.3220348"><ele>281.0</ele><time>2026-04-19T09:18:51.169Z</time></trkpt><trkpt lat="43.5799637" lon="11.3221563"><ele>283.5</ele><time>2026-04-19T09:18:52.174Z</time></trkpt><trkpt lat="43.5799549" lon="11.3222904"><ele>286.0</ele><time>2026-04-19T09:18:53.155Z</time></trkpt><trkpt lat="43.5799056" lon="11.32244"><ele>288.5</ele><time>2026-04-19T09:18:54.163Z</time></trkpt><trkpt lat="43.5798289" lon="11.322632"><ele>291.0</ele><time>2026-04-19T09:18:55.16Z</time></trkpt><trkpt lat="43.5797547" lon="11.3228413"><ele>291.0</ele><time>2026-04-19T09:18:56.158Z</time></trkpt><trkpt lat="43.5796921" lon="11.3230469"><ele>291.0</ele><time>2026-04-19T09:18:57.161Z</time></trkpt><trkpt lat="43.5796356" lon="11.3232153"><ele>291.0</ele><time>2026-04-19T09:18:58.161Z</time></trkpt><trkpt lat="43.5796091" lon="11.3233754"><ele>291.0</ele><time>2026-04-19T09:18:59.158Z</time></trkpt><trkpt lat="43.579611" lon="11.323561"><ele>292.0</ele><time>2026-04-19T09:19:00.159Z</time></trkpt><trkpt lat="43.5796211" lon="11.323733"><ele>293.0</ele><time>2026-04-19T09:19:01.155Z</time></trkpt><trkpt lat="43.5796115" lon="11.3239031"><ele>294.0</ele><time>2026-04-19T09:19:02.159Z</time></trkpt><trkpt lat="43.5795824" lon="11.3240815"><ele>295.0</ele><time>2026-04-19T09:19:03.157Z</time></trkpt><trkpt lat="43.5795439" lon="11.3242454"><ele>296.0</ele><time>2026-04-19T09:19:04.163Z</time></trkpt><trkpt lat="43.579527" lon="11.3243908"><ele>297.0</ele><time>2026-04-19T09:19:05.156Z</time></trkpt><trkpt lat="43.5795286" lon="11.3245615"><ele>298.0</ele><time>2026-04-19T09:19:06.159Z</time></trkpt><trkpt lat="43.5795478" lon="11.3247387"><ele>299.0</ele><time>2026-04-19T09:19:07.16Z</time></trkpt><trkpt lat="43.5795817" lon="11.324926"><ele>300.59999999999997</ele><time>2026-04-19T09:19:08.174Z</time></trkpt><trkpt lat="43.5796197" lon="11.3250842"><ele>302.2</ele><time>2026-04-19T09:19:09.176Z</time></trkpt><trkpt lat="43.5796585" lon="11.3252283"><ele>303.79999999999995</ele><time>2026-04-19T09:19:10.181Z</time></trkpt><trkpt lat="43.579693" lon="11.3253724"><ele>305.4</ele><time>2026-04-19T09:19:11.165Z</time></trkpt><trkpt lat="43.5797217" lon="11.3255024"><ele>307.0</ele><time>2026-04-19T09:19:12.164Z</time></trkpt><trkpt lat="43.5797485" lon="11.3256245"><ele>309.0</ele><time>2026-04-19T09:19:13.178Z</time></trkpt><trkpt lat="43.5797781" lon="11.3257253"><ele>311.0</ele><time>2026-04-19T09:19:14.178Z</time></trkpt><trkpt lat="43.5798111" lon="11.3258179"><ele>313.0</ele><time>2026-04-19T09:19:15.176Z</time></trkpt><trkpt lat="43.5798349" lon="11.3259249"><ele>315.0</ele><time>2026-04-19T09:19:16.165Z</time></trkpt><trkpt lat="43.5798533" lon="11.3260323"><ele>317.0</ele><time>2026-04-19T09:19:17.17Z</time></trkpt><trkpt lat="43.5798703" lon="11.3261449"><ele>319.0</ele><time>2026-04-19T09:19:18.176Z</time></trkpt><trkpt lat="43.5798911" lon="11.3262737"><ele>319.66666666666663</ele><time>2026-04-19T09:19:19.179Z</time></trkpt><trkpt lat="43.5799096" lon="11.3263985"><ele>320.3333333333333</ele><time>2026-04-19T09:19:20.173Z</time></trkpt><trkpt lat="43.5799303" lon="11.326515"><ele>321.0</ele><time>2026-04-19T09:19:21.184Z</time></trkpt><trkpt lat="43.5799497" lon="11.3266217"><ele>321.6666666666667</ele><time>2026-04-19T09:19:22.154Z</time></trkpt><trkpt lat="43.5799643" lon="11.3267248"><ele>322.33333333333337</ele><time>2026-04-19T09:19:23.155Z</time></trkpt><trkpt lat="43.5799789" lon="11.3268247"><ele>323.0</ele><time>2026-04-19T09:19:24.175Z</time></trkpt><trkpt lat="43.5799927" lon="11.3269311"><ele>323.0</ele><time>2026-04-19T09:19:25.179Z</time></trkpt><trkpt lat="43.5800004" lon="11.3270532"><ele>323.0</ele><time>2026-04-19T09:19:26.155Z</time></trkpt><trkpt lat="43.5800157" lon="11.32718"><ele>323.0</ele><time>2026-04-19T09:19:27.172Z</time></trkpt><trkpt lat="43.5800378" lon="11.3273047"><ele>323.0</ele><time>2026-04-19T09:19:28.17Z</time></trkpt><trkpt lat="43.5800629" lon="11.3274134"><ele>323.0</ele><time>2026-04-19T09:19:29.167Z</time></trkpt><trkpt lat="43.580089" lon="11.3274981"><ele>323.0</ele><time>2026-04-19T09:19:30.163Z</time></trkpt><trkpt lat="43.5801175" lon="11.3275786"><ele>323.1666666666667</ele><time>2026-04-19T09:19:31.179Z</time></trkpt><trkpt lat="43.5801465" lon="11.3276598"><ele>323.33333333333337</ele><time>2026-04-19T09:19:32.158Z</time></trkpt><trkpt lat="43.580183" lon="11.3277475"><ele>323.5</ele><time>2026-04-19T09:19:33.174Z</time></trkpt><trkpt lat="43.5802264" lon="11.3278375"><ele>323.6666666666667</ele><time>2026-04-19T09:19:34.18Z</time></trkpt><trkpt lat="43.5802846" lon="11.3279321"><ele>323.8333333333333</ele><time>2026-04-19T09:19:35.188Z</time></trkpt><trkpt lat="43.5803534" lon="11.3280353"><ele>324.0</ele><time>2026-04-19T09:19:36.169Z</time></trkpt><trkpt lat="43.580433" lon="11.3281499"><ele>326.2</ele><time>2026-04-19T09:19:37.166Z</time></trkpt><trkpt lat="43.5805123" lon="11.3282645"><ele>328.4</ele><time>2026-04-19T09:19:38.178Z</time></trkpt><trkpt lat="43.5805689" lon="11.3283768"><ele>330.6</ele><time>2026-04-19T09:19:39.178Z</time></trkpt><trkpt lat="43.5806223" lon="11.3284928"><ele>332.8</ele><time>2026-04-19T09:19:40.18Z</time></trkpt><trkpt lat="43.580676" lon="11.3286072"><ele>335.0</ele><time>2026-04-19T09:19:41.172Z</time></trkpt><trkpt lat="43.5807286" lon="11.3287092"><ele>335.0</ele><time>2026-04-19T09:19:42.171Z</time></trkpt><trkpt lat="43.5807783" lon="11.328788"><ele>335.0</ele><time>2026-04-19T09:19:43.174Z</time></trkpt><trkpt lat="43.580825" lon="11.328848"><ele>335.0</ele><time>2026-04-19T09:19:44.17Z</time></trkpt><trkpt lat="43.5809151" lon="11.3289658"><ele>335.0</ele><time>2026-04-19T09:19:46.178Z</time></trkpt><trkpt lat="43.5809533" lon="11.3290374"><ele>335.0</ele><time>2026-04-19T09:19:47.174Z</time></trkpt><trkpt lat="43.5809823" lon="11.3292087"><ele>336.0</ele><time>2026-04-19T09:19:49.177Z</time></trkpt><trkpt lat="43.5809821" lon="11.3293105"><ele>337.0</ele><time>2026-04-19T09:19:50.179Z</time></trkpt><trkpt lat="43.580973" lon="11.329423"><ele>338.0</ele><time>2026-04-19T09:19:51.166Z</time></trkpt><trkpt lat="43.5809435" lon="11.3295471"><ele>339.0</ele><time>2026-04-19T09:19:52.172Z</time></trkpt><trkpt lat="43.5808984" lon="11.329662"><ele>340.0</ele><time>2026-04-19T09:19:53.158Z</time></trkpt><trkpt lat="43.5808364" lon="11.3297769"><ele>341.0</ele><time>2026-04-19T09:19:54.165Z</time></trkpt><trkpt lat="43.5807313" lon="11.3298978"><ele>342.0</ele><time>2026-04-19T09:19:55.173Z</time></trkpt><trkpt lat="43.5806389" lon="11.3299968"><ele>343.0</ele><time>2026-04-19T09:19:56.177Z</time></trkpt><trkpt lat="43.5805554" lon="11.3300985"><ele>344.0</ele><time>2026-04-19T09:19:57.171Z</time></trkpt><trkpt lat="43.580477" lon="11.3301901"><ele>345.0</ele><time>2026-04-19T09:19:58.178Z</time></trkpt><trkpt lat="43.5804042" lon="11.330279"><ele>346.0</ele><time>2026-04-19T09:19:59.157Z</time></trkpt><trkpt lat="43.5803357" lon="11.3303626"><ele>346.0</ele><time>2026-04-19T09:20:00.176Z</time></trkpt><trkpt lat="43.5802767" lon="11.3304289"><ele>346.0</ele><time>2026-04-19T09:20:01.176Z</time></trkpt><trkpt lat="43.5802294" lon="11.3304938"><ele>346.0</ele><time>2026-04-19T09:20:02.174Z</time></trkpt><trkpt lat="43.5801871" lon="11.3305757"><ele>346.0</ele><time>2026-04-19T09:20:03.17Z</time></trkpt><trkpt lat="43.5801528" lon="11.3306672"><ele>346.0</ele><time>2026-04-19T09:20:04.159Z</time></trkpt><trkpt lat="43.5801315" lon="11.3307855"><ele>346.0</ele><time>2026-04-19T09:20:05.162Z</time></trkpt><trkpt lat="43.5801193" lon="11.3309172"><ele>348.20000000000005</ele><time>2026-04-19T09:20:06.179Z</time></trkpt><trkpt lat="43.5801177" lon="11.3310491"><ele>350.40000000000003</ele><time>2026-04-19T09:20:07.176Z</time></trkpt><trkpt lat="43.5801238" lon="11.3311833"><ele>352.6</ele><time>2026-04-19T09:20:08.16Z</time></trkpt><trkpt lat="43.5801445" lon="11.3313164"><ele>354.8</ele><time>2026-04-19T09:20:09.168Z</time></trkpt><trkpt lat="43.5801747" lon="11.3314424"><ele>357.0</ele><time>2026-04-19T09:20:10.174Z</time></trkpt><trkpt lat="43.5802108" lon="11.3315699"><ele>357.6</ele><time>2026-04-19T09:20:11.178Z</time></trkpt><trkpt lat="43.5802443" lon="11.3316992"><ele>358.20000000000005</ele><time>2026-04-19T09:20:12.17Z</time></trkpt><trkpt lat="43.5802691" lon="11.3318345"><ele>358.8</ele><time>2026-04-19T09:20:13.179Z</time></trkpt><trkpt lat="43.5802786" lon="11.3319841"><ele>359.4</ele><time>2026-04-19T09:20:14.18Z</time></trkpt><trkpt lat="43.5802773" lon="11.3321451"><ele>360.0</ele><time>2026-04-19T09:20:15.181Z</time></trkpt><trkpt lat="43.5802684" lon="11.3323138"><ele>360.4</ele><time>2026-04-19T09:20:16.182Z</time></trkpt><trkpt lat="43.5802456" lon="11.3324794"><ele>360.8</ele><time>2026-04-19T09:20:17.18Z</time></trkpt><trkpt lat="43.5802228" lon="11.3326363"><ele>361.20000000000005</ele><time>2026-04-19T09:20:18.176Z</time></trkpt><trkpt lat="43.5801972" lon="11.3327749"><ele>361.6</ele><time>2026-04-19T09:20:19.162Z</time></trkpt><trkpt lat="43.5801727" lon="11.3329127"><ele>362.0</ele><time>2026-04-19T09:20:20.176Z</time></trkpt><trkpt lat="43.5801478" lon="11.3330395"><ele>363.1428571428571</ele><time>2026-04-19T09:20:21.176Z</time></trkpt><trkpt lat="43.5801264" lon="11.3331494"><ele>364.2857142857143</ele><time>2026-04-19T09:20:22.176Z</time></trkpt><trkpt lat="43.5801139" lon="11.3332446"><ele>365.42857142857144</ele><time>2026-04-19T09:20:23.181Z</time></trkpt><trkpt lat="43.5801092" lon="11.3333367"><ele>366.57142857142856</ele><time>2026-04-19T09:20:24.174Z</time></trkpt><trkpt lat="43.5801186" lon="11.3334386"><ele>367.7142857142857</ele><time>2026-04-19T09:20:25.171Z</time></trkpt><trkpt lat="43.5801417" lon="11.333538"><ele>368.85714285714283</ele><time>2026-04-19T09:20:26.163Z</time></trkpt><trkpt lat="43.5801738" lon="11.3336367"><ele>370.0</ele><time>2026-04-19T09:20:27.169Z</time></trkpt><trkpt lat="43.5802099" lon="11.3337122"><ele>370.0</ele><time>2026-04-19T09:20:28.176Z</time></trkpt><trkpt lat="43.580252" lon="11.3337777"><ele>370.0</ele><time>2026-04-19T09:20:29.181Z</time></trkpt><trkpt lat="43.5803257" lon="11.333889"><ele>370.0</ele><time>2026-04-19T09:20:31.173Z</time></trkpt><trkpt lat="43.5804053" lon="11.3339932"><ele>370.0</ele><time>2026-04-19T09:20:33.176Z</time></trkpt><trkpt lat="43.5804798" lon="11.3341107"><ele>370.0</ele><time>2026-04-19T09:20:35.176Z</time></trkpt><trkpt lat="43.5805517" lon="11.3342453"><ele>372.16666666666663</ele><time>2026-04-19T09:20:37.176Z</time></trkpt><trkpt lat="43.5805896" lon="11.3343175"><ele>374.3333333333333</ele><time>2026-04-19T09:20:38.177Z</time></trkpt><trkpt lat="43.5806327" lon="11.3344035"><ele>376.5</ele><time>2026-04-19T09:20:39.174Z</time></trkpt><trkpt lat="43.5806779" lon="11.3344923"><ele>378.6666666666667</ele><time>2026-04-19T09:20:40.165Z</time></trkpt><trkpt lat="43.5807238" lon="11.334593"><ele>380.83333333333337</ele><time>2026-04-19T09:20:41.171Z</time></trkpt><trkpt lat="43.5807742" lon="11.3347037"><ele>383.0</ele><time>2026-04-19T09:20:42.181Z</time></trkpt><trkpt lat="43.5808289" lon="11.3348322"><ele>385.0</ele><time>2026-04-19T09:20:43.18Z</time></trkpt><trkpt lat="43.5808921" lon="11.3349741"><ele>387.0</ele><time>2026-04-19T09:20:44.176Z</time></trkpt><trkpt lat="43.5809585" lon="11.3351177"><ele>389.0</ele><time>2026-04-19T09:20:45.176Z</time></trkpt><trkpt lat="43.581014" lon="11.3352446"><ele>391.0</ele><time>2026-04-19T09:20:46.169Z</time></trkpt><trkpt lat="43.581074" lon="11.3353562"><ele>391.0</ele><time>2026-04-19T09:20:47.179Z</time></trkpt><trkpt lat="43.5811442" lon="11.3354642"><ele>391.0</ele><time>2026-04-19T09:20:48.164Z</time></trkpt><trkpt lat="43.5812167" lon="11.3355695"><ele>391.0</ele><time>2026-04-19T09:20:49.18Z</time></trkpt><trkpt lat="43.5812837" lon="11.3356847"><ele>391.0</ele><time>2026-04-19T09:20:50.168Z</time></trkpt><trkpt lat="43.5813548" lon="11.3358127"><ele>391.0</ele><time>2026-04-19T09:20:51.184Z</time></trkpt><trkpt lat="43.5814203" lon="11.3359631"><ele>391.25</ele><time>2026-04-19T09:20:52.178Z</time></trkpt><trkpt lat="43.5814773" lon="11.336123"><ele>391.5</ele><time>2026-04-19T09:20:53.18Z</time></trkpt><trkpt lat="43.5815314" lon="11.3362946"><ele>391.75</ele><time>2026-04-19T09:20:54.179Z</time></trkpt><trkpt lat="43.5815786" lon="11.3364587"><ele>392.0</ele><time>2026-04-19T09:20:55.173Z</time></trkpt><trkpt lat="43.5816148" lon="11.3365996"><ele>395.0</ele><time>2026-04-19T09:20:56.179Z</time></trkpt><trkpt lat="43.5816622" lon="11.3367127"><ele>398.0</ele><time>2026-04-19T09:20:57.18Z</time></trkpt><trkpt lat="43.581729" lon="11.3367843"><ele>401.0</ele><time>2026-04-19T09:20:58.175Z</time></trkpt><trkpt lat="43.5818051" lon="11.3367949"><ele>404.0</ele><time>2026-04-19T09:20:59.182Z</time></trkpt><trkpt lat="43.5818983" lon="11.3367389"><ele>407.0</ele><time>2026-04-19T09:21:00.17Z</time></trkpt><trkpt lat="43.5820015" lon="11.3366845"><ele>407.20000000000005</ele><time>2026-04-19T09:21:01.176Z</time></trkpt><trkpt lat="43.5820953" lon="11.3366507"><ele>407.4</ele><time>2026-04-19T09:21:02.175Z</time></trkpt><trkpt lat="43.5821913" lon="11.3366626"><ele>407.6</ele><time>2026-04-19T09:21:03.177Z</time></trkpt><trkpt lat="43.582284" lon="11.3367088"><ele>407.79999999999995</ele><time>2026-04-19T09:21:04.171Z</time></trkpt><trkpt lat="43.5823774" lon="11.3367663"><ele>408.0</ele><time>2026-04-19T09:21:05.181Z</time></trkpt><trkpt lat="43.5824714" lon="11.3368234"><ele>408.0</ele><time>2026-04-19T09:21:06.175Z</time></trkpt><trkpt lat="43.5825627" lon="11.3368845"><ele>408.0</ele><time>2026-04-19T09:21:07.171Z</time></trkpt><trkpt lat="43.5826569" lon="11.3369373"><ele>408.0</ele><time>2026-04-19T09:21:08.175Z</time></trkpt><trkpt lat="43.5827541" lon="11.3369693"><ele>408.0</ele><time>2026-04-19T09:21:09.174Z</time></trkpt><trkpt lat="43.5828363" lon="11.3369838"><ele>408.0</ele><time>2026-04-19T09:21:10.171Z</time></trkpt><trkpt lat="43.5829392" lon="11.3370588"><ele>409.3333333333333</ele><time>2026-04-19T09:21:12.179Z</time></trkpt><trkpt lat="43.5829811" lon="11.3371282"><ele>410.66666666666663</ele><time>2026-04-19T09:21:13.184Z</time></trkpt><trkpt lat="43.5830218" lon="11.3372207"><ele>412.0</ele><time>2026-04-19T09:21:14.178Z</time></trkpt><trkpt lat="43.5830563" lon="11.3373242"><ele>413.3333333333333</ele><time>2026-04-19T09:21:15.176Z</time></trkpt><trkpt lat="43.5830887" lon="11.3374374"><ele>414.66666666666663</ele><time>2026-04-19T09:21:16.167Z</time></trkpt><trkpt lat="43.5831197" lon="11.337571"><ele>416.0</ele><time>2026-04-19T09:21:17.178Z</time></trkpt><trkpt lat="43.583151" lon="11.3377225"><ele>416.0</ele><time>2026-04-19T09:21:18.172Z</time></trkpt><trkpt lat="43.5831857" lon="11.3378752"><ele>416.0</ele><time>2026-04-19T09:21:19.172Z</time></trkpt><trkpt lat="43.5832185" lon="11.3380252"><ele>416.0</ele><time>2026-04-19T09:21:20.174Z</time></trkpt><trkpt lat="43.5832599" lon="11.3381557"><ele>416.0</ele><time>2026-04-19T09:21:21.169Z</time></trkpt><trkpt lat="43.5833" lon="11.338279"><ele>416.0</ele><time>2026-04-19T09:21:22.171Z</time></trkpt><trkpt lat="43.5833287" lon="11.3384037"><ele>419.6</ele><time>2026-04-19T09:21:23.168Z</time></trkpt><trkpt lat="43.5833619" lon="11.3385231"><ele>423.20000000000005</ele><time>2026-04-19T09:21:24.177Z</time></trkpt><trkpt lat="43.5833939" lon="11.3386458"><ele>426.79999999999995</ele><time>2026-04-19T09:21:25.167Z</time></trkpt><trkpt lat="43.5834284" lon="11.3387747"><ele>430.4</ele><time>2026-04-19T09:21:26.172Z</time></trkpt><trkpt lat="43.583487" lon="11.3388866"><ele>434.0</ele><time>2026-04-19T09:21:27.179Z</time></trkpt><trkpt lat="43.5835695" lon="11.3390015"><ele>435.0</ele><time>2026-04-19T09:21:28.179Z</time></trkpt><trkpt lat="43.5836524" lon="11.3391254"><ele>436.0</ele><time>2026-04-19T09:21:29.171Z</time></trkpt><trkpt lat="43.5837238" lon="11.3392688"><ele>437.0</ele><time>2026-04-19T09:21:30.183Z</time></trkpt><trkpt lat="43.5837856" lon="11.3394093"><ele>438.0</ele><time>2026-04-19T09:21:31.17Z</time></trkpt><trkpt lat="43.5838346" lon="11.3395454"><ele>438.0</ele><time>2026-04-19T09:21:32.174Z</time></trkpt><trkpt lat="43.5838884" lon="11.339664"><ele>437.99999999999994</ele><time>2026-04-19T09:21:33.186Z</time></trkpt><trkpt lat="43.5839457" lon="11.3397882"><ele>437.99999999999994</ele><time>2026-04-19T09:21:34.179Z</time></trkpt><trkpt lat="43.5839965" lon="11.3399183"><ele>438.0</ele><time>2026-04-19T09:21:35.166Z</time></trkpt><trkpt lat="43.5840431" lon="11.3400437"><ele>438.0</ele><time>2026-04-19T09:21:36.157Z</time></trkpt><trkpt lat="43.5840675" lon="11.3401741"><ele>440.79999999999995</ele><time>2026-04-19T09:21:37.185Z</time></trkpt><trkpt lat="43.5840898" lon="11.3402944"><ele>443.59999999999997</ele><time>2026-04-19T09:21:38.182Z</time></trkpt><trkpt lat="43.5841137" lon="11.3404273"><ele>446.40000000000003</ele><time>2026-04-19T09:21:39.179Z</time></trkpt><trkpt lat="43.584158" lon="11.3405448"><ele>449.20000000000005</ele><time>2026-04-19T09:21:40.177Z</time></trkpt><trkpt lat="43.5842413" lon="11.3406644"><ele>452.0</ele><time>2026-04-19T09:21:41.179Z</time></trkpt><trkpt lat="43.584325" lon="11.3408017"><ele>452.5</ele><time>2026-04-19T09:21:42.169Z</time></trkpt><trkpt lat="43.5844113" lon="11.3409326"><ele>453.0</ele><time>2026-04-19T09:21:43.173Z</time></trkpt><trkpt lat="43.584508" lon="11.3410619"><ele>453.5</ele><time>2026-04-19T09:21:44.18Z</time></trkpt><trkpt lat="43.5846025" lon="11.341203"><ele>454.0</ele><time>2026-04-19T09:21:45.189Z</time></trkpt><trkpt lat="43.5846913" lon="11.3413302"><ele>456.4</ele><time>2026-04-19T09:21:46.18Z</time></trkpt><trkpt lat="43.58477" lon="11.341449"><ele>458.79999999999995</ele><time>2026-04-19T09:21:47.182Z</time></trkpt><trkpt lat="43.5848406" lon="11.3415561"><ele>461.20000000000005</ele><time>2026-04-19T09:21:48.177Z</time></trkpt><trkpt lat="43.5849028" lon="11.3416686"><ele>463.6</ele><time>2026-04-19T09:21:49.176Z</time></trkpt><trkpt lat="43.5849452" lon="11.3417709"><ele>466.0</ele><time>2026-04-19T09:21:50.174Z</time></trkpt><trkpt lat="43.5849576" lon="11.3418816"><ele>466.0</ele><time>2026-04-19T09:21:51.176Z</time></trkpt><trkpt lat="43.5849639" lon="11.3420078"><ele>466.0</ele><time>2026-04-19T09:21:52.181Z</time></trkpt><trkpt lat="43.5849594" lon="11.342127"><ele>466.0</ele><time>2026-04-19T09:21:53.186Z</time></trkpt><trkpt lat="43.5849261" lon="11.342263"><ele>466.0</ele><time>2026-04-19T09:21:54.174Z</time></trkpt><trkpt lat="43.5848839" lon="11.3424192"><ele>466.0</ele><time>2026-04-19T09:21:55.172Z</time></trkpt><trkpt lat="43.5848363" lon="11.3425785"><ele>468.20000000000005</ele><time>2026-04-19T09:21:56.174Z</time></trkpt><trkpt lat="43.584789" lon="11.3427368"><ele>470.40000000000003</ele><time>2026-04-19T09:21:57.176Z</time></trkpt><trkpt lat="43.5847488" lon="11.3428961"><ele>472.6</ele><time>2026-04-19T09:21:58.188Z</time></trkpt><trkpt lat="43.5847195" lon="11.3430318"><ele>474.8</ele><time>2026-04-19T09:21:59.172Z</time></trkpt><trkpt lat="43.584697" lon="11.3431514"><ele>477.0</ele><time>2026-04-19T09:22:00.167Z</time></trkpt><trkpt lat="43.5846813" lon="11.3432774"><ele>478.40000000000003</ele><time>2026-04-19T09:22:01.172Z</time></trkpt><trkpt lat="43.5846783" lon="11.3433989"><ele>479.80000000000007</ele><time>2026-04-19T09:22:02.175Z</time></trkpt><trkpt lat="43.5846921" lon="11.3435196"><ele>481.2</ele><time>2026-04-19T09:22:03.158Z</time></trkpt><trkpt lat="43.5847219" lon="11.3436477"><ele>482.6</ele><time>2026-04-19T09:22:04.173Z</time></trkpt><trkpt lat="43.584763" lon="11.3437779"><ele>484.0</ele><time>2026-04-19T09:22:05.159Z</time></trkpt><trkpt lat="43.5848098" lon="11.3439125"><ele>484.83333333333337</ele><time>2026-04-19T09:22:06.174Z</time></trkpt><trkpt lat="43.5848485" lon="11.3440429"><ele>485.6666666666667</ele><time>2026-04-19T09:22:07.181Z</time></trkpt><trkpt lat="43.5848824" lon="11.3441686"><ele>486.5</ele><time>2026-04-19T09:22:08.179Z</time></trkpt><trkpt lat="43.5849014" lon="11.34429"><ele>487.33333333333337</ele><time>2026-04-19T09:22:09.179Z</time></trkpt><trkpt lat="43.5848945" lon="11.3443837"><ele>488.1666666666667</ele><time>2026-04-19T09:22:10.181Z</time></trkpt><trkpt lat="43.5848513" lon="11.3444555"><ele>489.0</ele><time>2026-04-19T09:22:11.185Z</time></trkpt><trkpt lat="43.5847965" lon="11.3445056"><ele>489.0</ele><time>2026-04-19T09:22:12.184Z</time></trkpt><trkpt lat="43.5847252" lon="11.3445392"><ele>489.0</ele><time>2026-04-19T09:22:13.181Z</time></trkpt><trkpt lat="43.5846219" lon="11.3445493"><ele>489.0</ele><time>2026-04-19T09:22:14.176Z</time></trkpt><trkpt lat="43.5844993" lon="11.3445428"><ele>489.0</ele><time>2026-04-19T09:22:15.179Z</time></trkpt><trkpt lat="43.5843806" lon="11.3445411"><ele>489.0</ele><time>2026-04-19T09:22:16.186Z</time></trkpt><trkpt lat="43.5842675" lon="11.34456"><ele>488.3333333333333</ele><time>2026-04-19T09:22:17.175Z</time></trkpt><trkpt lat="43.5841723" lon="11.3446034"><ele>487.66666666666663</ele><time>2026-04-19T09:22:18.172Z</time></trkpt><trkpt lat="43.5840974" lon="11.3446611"><ele>487.0</ele><time>2026-04-19T09:22:19.177Z</time></trkpt><trkpt lat="43.5840429" lon="11.3447331"><ele>486.3333333333333</ele><time>2026-04-19T09:22:20.167Z</time></trkpt><trkpt lat="43.5840033" lon="11.3448297"><ele>485.66666666666663</ele><time>2026-04-19T09:22:21.181Z</time></trkpt><trkpt lat="43.583979" lon="11.344935"><ele>485.0</ele><time>2026-04-19T09:22:22.162Z</time></trkpt><trkpt lat="43.5839711" lon="11.345036"><ele>485.0</ele><time>2026-04-19T09:22:23.177Z</time></trkpt><trkpt lat="43.5839799" lon="11.3451398"><ele>485.0</ele><time>2026-04-19T09:22:24.177Z</time></trkpt><trkpt lat="43.5839953" lon="11.3452521"><ele>485.0</ele><time>2026-04-19T09:22:25.161Z</time></trkpt><trkpt lat="43.5840231" lon="11.3453749"><ele>485.0</ele><time>2026-04-19T09:22:26.158Z</time></trkpt><trkpt lat="43.5840579" lon="11.3455129"><ele>485.0</ele><time>2026-04-19T09:22:27.173Z</time></trkpt><trkpt lat="43.5841013" lon="11.3456474"><ele>485.25</ele><time>2026-04-19T09:22:28.169Z</time></trkpt><trkpt lat="43.5841596" lon="11.3457702"><ele>485.5</ele><time>2026-04-19T09:22:29.168Z</time></trkpt><trkpt lat="43.584238" lon="11.3458829"><ele>485.75</ele><time>2026-04-19T09:22:30.183Z</time></trkpt><trkpt lat="43.5843339" lon="11.3459935"><ele>486.0</ele><time>2026-04-19T09:22:31.171Z</time></trkpt><trkpt lat="43.5844292" lon="11.3461037"><ele>487.20000000000005</ele><time>2026-04-19T09:22:32.157Z</time></trkpt><trkpt lat="43.5845162" lon="11.3462053"><ele>488.40000000000003</ele><time>2026-04-19T09:22:33.171Z</time></trkpt><trkpt lat="43.5845926" lon="11.346288"><ele>489.6</ele><time>2026-04-19T09:22:34.169Z</time></trkpt><trkpt lat="43.5846763" lon="11.346363"><ele>490.8</ele><time>2026-04-19T09:22:35.171Z</time></trkpt><trkpt lat="43.5847607" lon="11.3464206"><ele>492.0</ele><time>2026-04-19T09:22:36.164Z</time></trkpt><trkpt lat="43.5848532" lon="11.3464499"><ele>492.0</ele><time>2026-04-19T09:22:37.156Z</time></trkpt><trkpt lat="43.5849487" lon="11.3464615"><ele>492.00000000000006</ele><time>2026-04-19T09:22:38.178Z</time></trkpt><trkpt lat="43.5850474" lon="11.3464507"><ele>492.00000000000006</ele><time>2026-04-19T09:22:39.172Z</time></trkpt><trkpt lat="43.5851521" lon="11.3464377"><ele>492.0</ele><time>2026-04-19T09:22:40.183Z</time></trkpt><trkpt lat="43.5852569" lon="11.3464188"><ele>492.0</ele><time>2026-04-19T09:22:41.177Z</time></trkpt><trkpt lat="43.5853598" lon="11.3463993"><ele>494.20000000000005</ele><time>2026-04-19T09:22:42.181Z</time></trkpt><trkpt lat="43.5854617" lon="11.3463796"><ele>496.40000000000003</ele><time>2026-04-19T09:22:43.176Z</time></trkpt><trkpt lat="43.5855693" lon="11.3463552"><ele>498.59999999999997</ele><time>2026-04-19T09:22:44.173Z</time></trkpt><trkpt lat="43.5856745" lon="11.3463344"><ele>500.79999999999995</ele><time>2026-04-19T09:22:45.181Z</time></trkpt><trkpt lat="43.5857686" lon="11.3463154"><ele>503.0</ele><time>2026-04-19T09:22:46.181Z</time></trkpt><trkpt lat="43.5858592" lon="11.3463188"><ele>502.99999999999994</ele><time>2026-04-19T09:22:47.177Z</time></trkpt><trkpt lat="43.5859423" lon="11.3463391"><ele>503.0</ele><time>2026-04-19T09:22:48.179Z</time></trkpt><trkpt lat="43.5860105" lon="11.3463914"><ele>503.0</ele><time>2026-04-19T09:22:49.164Z</time></trkpt><trkpt lat="43.5860636" lon="11.3464765"><ele>503.0</ele><time>2026-04-19T09:22:50.156Z</time></trkpt><trkpt lat="43.5861074" lon="11.3465908"><ele>502.99999999999994</ele><time>2026-04-19T09:22:51.159Z</time></trkpt><trkpt lat="43.5861319" lon="11.3467149"><ele>503.0</ele><time>2026-04-19T09:22:52.156Z</time></trkpt><trkpt lat="43.5861371" lon="11.3468604"><ele>502.99999999999994</ele><time>2026-04-19T09:22:53.155Z</time></trkpt><trkpt lat="43.5861216" lon="11.347"><ele>503.0</ele><time>2026-04-19T09:22:54.175Z</time></trkpt><trkpt lat="43.5861037" lon="11.3471176"><ele>503.0</ele><time>2026-04-19T09:22:55.155Z</time></trkpt><trkpt lat="43.5861053" lon="11.3472207"><ele>503.0</ele><time>2026-04-19T09:22:56.17Z</time></trkpt><trkpt lat="43.5861255" lon="11.3473182"><ele>502.99999999999994</ele><time>2026-04-19T09:22:57.177Z</time></trkpt><trkpt lat="43.5861648" lon="11.3474134"><ele>503.0</ele><time>2026-04-19T09:22:58.155Z</time></trkpt><trkpt lat="43.5862171" lon="11.3474993"><ele>507.0</ele><time>2026-04-19T09:22:59.171Z</time></trkpt><trkpt lat="43.5862694" lon="11.3475879"><ele>510.99999999999994</ele><time>2026-04-19T09:23:00.176Z</time></trkpt><trkpt lat="43.5863207" lon="11.3477001"><ele>515.0</ele><time>2026-04-19T09:23:01.178Z</time></trkpt><trkpt lat="43.5863579" lon="11.347824"><ele>519.0</ele><time>2026-04-19T09:23:02.179Z</time></trkpt><trkpt lat="43.5863785" lon="11.3479706"><ele>523.0</ele><time>2026-04-19T09:23:03.178Z</time></trkpt><trkpt lat="43.5863906" lon="11.3481401"><ele>525.0</ele><time>2026-04-19T09:23:04.174Z</time></trkpt><trkpt lat="43.5863975" lon="11.3483222"><ele>527.0</ele><time>2026-04-19T09:23:05.176Z</time></trkpt><trkpt lat="43.5864023" lon="11.348506"><ele>529.0</ele><time>2026-04-19T09:23:06.162Z</time></trkpt><trkpt lat="43.5864084" lon="11.3486906"><ele>531.0</ele><time>2026-04-19T09:23:07.158Z</time></trkpt><trkpt lat="43.5864175" lon="11.3488767"><ele>532.0</ele><time>2026-04-19T09:23:08.159Z</time></trkpt><trkpt lat="43.5864245" lon="11.3490564"><ele>533.0</ele><time>2026-04-19T09:23:09.167Z</time></trkpt><trkpt lat="43.5864275" lon="11.3492207"><ele>534.0</ele><time>2026-04-19T09:23:10.177Z</time></trkpt><trkpt lat="43.5864306" lon="11.3493567"><ele>535.0</ele><time>2026-04-19T09:23:11.17Z</time></trkpt><trkpt lat="43.5864389" lon="11.3494784"><ele>536.0</ele><time>2026-04-19T09:23:12.153Z</time></trkpt><trkpt lat="43.5864585" lon="11.349593"><ele>537.2</ele><time>2026-04-19T09:23:13.172Z</time></trkpt><trkpt lat="43.5864946" lon="11.3497111"><ele>538.4000000000001</ele><time>2026-04-19T09:23:14.173Z</time></trkpt><trkpt lat="43.586545" lon="11.3498364"><ele>539.6</ele><time>2026-04-19T09:23:15.164Z</time></trkpt><trkpt lat="43.5866014" lon="11.3499668"><ele>540.8000000000001</ele><time>2026-04-19T09:23:16.173Z</time></trkpt><trkpt lat="43.5866568" lon="11.3501005"><ele>542.0</ele><time>2026-04-19T09:23:17.176Z</time></trkpt><trkpt lat="43.5867041" lon="11.3502371"><ele>542.0</ele><time>2026-04-19T09:23:18.156Z</time></trkpt><trkpt lat="43.5867436" lon="11.3503718"><ele>542.0</ele><time>2026-04-19T09:23:19.176Z</time></trkpt><trkpt lat="43.586769" lon="11.3505029"><ele>542.0</ele><time>2026-04-19T09:23:20.168Z</time></trkpt><trkpt lat="43.5867835" lon="11.3506234"><ele>542.0</ele><time>2026-04-19T09:23:21.158Z</time></trkpt><trkpt lat="43.5867811" lon="11.3507366"><ele>542.0</ele><time>2026-04-19T09:23:22.177Z</time></trkpt><trkpt lat="43.5867522" lon="11.3508295"><ele>542.0</ele><time>2026-04-19T09:23:23.156Z</time></trkpt><trkpt lat="43.586696" lon="11.3509059"><ele>543.2</ele><time>2026-04-19T09:23:24.174Z</time></trkpt><trkpt lat="43.5866162" lon="11.3509609"><ele>544.4000000000001</ele><time>2026-04-19T09:23:25.174Z</time></trkpt><trkpt lat="43.5865249" lon="11.3510315"><ele>545.5999999999999</ele><time>2026-04-19T09:23:26.176Z</time></trkpt><trkpt lat="43.586424" lon="11.3511371"><ele>546.8</ele><time>2026-04-19T09:23:27.185Z</time></trkpt><trkpt lat="43.5863431" lon="11.3512612"><ele>548.0</ele><time>2026-04-19T09:23:28.176Z</time></trkpt><trkpt lat="43.5862858" lon="11.3513859"><ele>550.0</ele><time>2026-04-19T09:23:29.173Z</time></trkpt><trkpt lat="43.5862457" lon="11.3515136"><ele>552.0</ele><time>2026-04-19T09:23:30.186Z</time></trkpt><trkpt lat="43.5862123" lon="11.3516576"><ele>554.0</ele><time>2026-04-19T09:23:31.181Z</time></trkpt><trkpt lat="43.5861894" lon="11.3518074"><ele>556.0</ele><time>2026-04-19T09:23:32.177Z</time></trkpt><trkpt lat="43.586178" lon="11.3519345"><ele>558.0</ele><time>2026-04-19T09:23:33.178Z</time></trkpt><trkpt lat="43.5861749" lon="11.352057"><ele>558.0</ele><time>2026-04-19T09:23:34.181Z</time></trkpt><trkpt lat="43.58619" lon="11.3521751"><ele>558.0</ele><time>2026-04-19T09:23:35.173Z</time></trkpt><trkpt lat="43.5862227" lon="11.3522922"><ele>558.0</ele><time>2026-04-19T09:23:36.175Z</time></trkpt><trkpt lat="43.586262" lon="11.3524007"><ele>558.0</ele><time>2026-04-19T09:23:37.179Z</time></trkpt><trkpt lat="43.5863108" lon="11.3524989"><ele>558.0</ele><time>2026-04-19T09:23:38.171Z</time></trkpt><trkpt lat="43.5863786" lon="11.3525919"><ele>558.0</ele><time>2026-04-19T09:23:39.183Z</time></trkpt><trkpt lat="43.586465" lon="11.352693"><ele>558.0</ele><time>2026-04-19T09:23:40.178Z</time></trkpt><trkpt lat="43.5865571" lon="11.3528019"><ele>558.0</ele><time>2026-04-19T09:23:41.186Z</time></trkpt><trkpt lat="43.5866528" lon="11.3529217"><ele>558.0</ele><time>2026-04-19T09:23:42.185Z</time></trkpt><trkpt lat="43.586754" lon="11.3530429"><ele>558.0</ele><time>2026-04-19T09:23:43.192Z</time></trkpt><trkpt lat="43.5868583" lon="11.3531662"><ele>557.75</ele><time>2026-04-19T09:23:44.165Z</time></trkpt><trkpt lat="43.5869669" lon="11.3532913"><ele>557.5</ele><time>2026-04-19T09:23:45.179Z</time></trkpt><trkpt lat="43.5870733" lon="11.3534112"><ele>557.25</ele><time>2026-04-19T09:23:46.188Z</time></trkpt><trkpt lat="43.5871694" lon="11.3535217"><ele>557.0</ele><time>2026-04-19T09:23:47.189Z</time></trkpt><trkpt lat="43.5872533" lon="11.3536215"><ele>558.2</ele><time>2026-04-19T09:23:48.173Z</time></trkpt><trkpt lat="43.5873226" lon="11.3537225"><ele>559.4000000000001</ele><time>2026-04-19T09:23:49.164Z</time></trkpt><trkpt lat="43.5873774" lon="11.3538386"><ele>560.5999999999999</ele><time>2026-04-19T09:23:50.181Z</time></trkpt><trkpt lat="43.5874124" lon="11.3539723"><ele>561.8</ele><time>2026-04-19T09:23:51.188Z</time></trkpt><trkpt lat="43.5874206" lon="11.3541241"><ele>563.0</ele><time>2026-04-19T09:23:52.189Z</time></trkpt><trkpt lat="43.587414" lon="11.3542875"><ele>563.0</ele><time>2026-04-19T09:23:53.173Z</time></trkpt><trkpt lat="43.5874004" lon="11.3544731"><ele>563.0</ele><time>2026-04-19T09:23:54.178Z</time></trkpt><trkpt lat="43.5873931" lon="11.3546533"><ele>563.0</ele><time>2026-04-19T09:23:55.175Z</time></trkpt><trkpt lat="43.5873832" lon="11.3548091"><ele>563.0</ele><time>2026-04-19T09:23:56.182Z</time></trkpt><trkpt lat="43.5873662" lon="11.3549512"><ele>562.75</ele><time>2026-04-19T09:23:57.177Z</time></trkpt><trkpt lat="43.5873353" lon="11.3550822"><ele>562.5</ele><time>2026-04-19T09:23:58.154Z</time></trkpt><trkpt lat="43.5872777" lon="11.355202"><ele>562.25</ele><time>2026-04-19T09:23:59.177Z</time></trkpt><trkpt lat="43.5871923" lon="11.3553251"><ele>562.0</ele><time>2026-04-19T09:24:00.175Z</time></trkpt><trkpt lat="43.5870832" lon="11.3554469"><ele>564.0</ele><time>2026-04-19T09:24:01.174Z</time></trkpt><trkpt lat="43.5869652" lon="11.3555896"><ele>566.0</ele><time>2026-04-19T09:24:02.179Z</time></trkpt><trkpt lat="43.5868463" lon="11.3557547"><ele>568.0</ele><time>2026-04-19T09:24:03.168Z</time></trkpt><trkpt lat="43.5867462" lon="11.3559329"><ele>568.0</ele><time>2026-04-19T09:24:04.171Z</time></trkpt><trkpt lat="43.5866593" lon="11.356111"><ele>568.0</ele><time>2026-04-19T09:24:05.182Z</time></trkpt><trkpt lat="43.5865647" lon="11.3562723"><ele>568.0</ele><time>2026-04-19T09:24:06.175Z</time></trkpt><trkpt lat="43.5864476" lon="11.3564327"><ele>567.75</ele><time>2026-04-19T09:24:07.173Z</time></trkpt><trkpt lat="43.5863338" lon="11.3565858"><ele>567.5</ele><time>2026-04-19T09:24:08.178Z</time></trkpt><trkpt lat="43.5862354" lon="11.3567124"><ele>567.25</ele><time>2026-04-19T09:24:09.177Z</time></trkpt><trkpt lat="43.5861623" lon="11.35683"><ele>567.0</ele><time>2026-04-19T09:24:10.181Z</time></trkpt><trkpt lat="43.5861073" lon="11.3569656"><ele>568.0</ele><time>2026-04-19T09:24:11.155Z</time></trkpt><trkpt lat="43.5860547" lon="11.3571281"><ele>569.0</ele><time>2026-04-19T09:24:12.151Z</time></trkpt><trkpt lat="43.586004" lon="11.3573209"><ele>570.0</ele><time>2026-04-19T09:24:13.179Z</time></trkpt><trkpt lat="43.585959" lon="11.3575421"><ele>571.0</ele><time>2026-04-19T09:24:14.177Z</time></trkpt><trkpt lat="43.585911" lon="11.357766"><ele>572.25</ele><time>2026-04-19T09:24:15.178Z</time></trkpt><trkpt lat="43.5858634" lon="11.3579783"><ele>573.5</ele><time>2026-04-19T09:24:16.18Z</time></trkpt><trkpt lat="43.5858216" lon="11.3581685"><ele>574.75</ele><time>2026-04-19T09:24:17.172Z</time></trkpt><trkpt lat="43.5857901" lon="11.3583374"><ele>576.0</ele><time>2026-04-19T09:24:18.177Z</time></trkpt><trkpt lat="43.5857696" lon="11.3584913"><ele>576.4</ele><time>2026-04-19T09:24:19.177Z</time></trkpt><trkpt lat="43.5857597" lon="11.358624"><ele>576.8</ele><time>2026-04-19T09:24:20.171Z</time></trkpt><trkpt lat="43.585778" lon="11.3587568"><ele>577.1999999999999</ele><time>2026-04-19T09:24:21.174Z</time></trkpt><trkpt lat="43.5858287" lon="11.3589065"><ele>577.6</ele><time>2026-04-19T09:24:22.179Z</time></trkpt><trkpt lat="43.5858968" lon="11.3590634"><ele>578.0</ele><time>2026-04-19T09:24:23.173Z</time></trkpt><trkpt lat="43.5859617" lon="11.3592166"><ele>578.0</ele><time>2026-04-19T09:24:24.173Z</time></trkpt><trkpt lat="43.5860253" lon="11.3593625"><ele>578.0</ele><time>2026-04-19T09:24:25.169Z</time></trkpt><trkpt lat="43.5860891" lon="11.3594884"><ele>578.0</ele><time>2026-04-19T09:24:26.178Z</time></trkpt><trkpt lat="43.5861509" lon="11.3596026"><ele>578.0</ele><time>2026-04-19T09:24:27.175Z</time></trkpt><trkpt lat="43.5862031" lon="11.3597114"><ele>578.0</ele><time>2026-04-19T09:24:28.177Z</time></trkpt><trkpt lat="43.5862269" lon="11.3598264"><ele>578.0</ele><time>2026-04-19T09:24:29.176Z</time></trkpt><trkpt lat="43.5862291" lon="11.3599408"><ele>578.0</ele><time>2026-04-19T09:24:30.184Z</time></trkpt><trkpt lat="43.5862207" lon="11.3600603"><ele>578.0</ele><time>2026-04-19T09:24:31.189Z</time></trkpt><trkpt lat="43.5862099" lon="11.3601707"><ele>578.0</ele><time>2026-04-19T09:24:32.174Z</time></trkpt><trkpt lat="43.5861966" lon="11.3602759"><ele>578.0</ele><time>2026-04-19T09:24:33.186Z</time></trkpt><trkpt lat="43.5861785" lon="11.3603766"><ele>578.0</ele><time>2026-04-19T09:24:34.17Z</time></trkpt><trkpt lat="43.5861583" lon="11.3604676"><ele>578.5</ele><time>2026-04-19T09:24:35.182Z</time></trkpt><trkpt lat="43.5861387" lon="11.360557"><ele>579.0</ele><time>2026-04-19T09:24:36.162Z</time></trkpt><trkpt lat="43.586121" lon="11.3606476"><ele>579.5</ele><time>2026-04-19T09:24:37.176Z</time></trkpt><trkpt lat="43.5861064" lon="11.3607323"><ele>580.0</ele><time>2026-04-19T09:24:38.169Z</time></trkpt><trkpt lat="43.5860801" lon="11.360895"><ele>580.5</ele><time>2026-04-19T09:24:40.175Z</time></trkpt><trkpt lat="43.5860653" lon="11.3610521"><ele>581.0</ele><time>2026-04-19T09:24:42.174Z</time></trkpt><trkpt lat="43.586052" lon="11.3612011"><ele>582.1666666666666</ele><time>2026-04-19T09:24:44.179Z</time></trkpt><trkpt lat="43.5860466" lon="11.3613666"><ele>583.3333333333333</ele><time>2026-04-19T09:24:46.173Z</time></trkpt><trkpt lat="43.586041" lon="11.3614628"><ele>584.5</ele><time>2026-04-19T09:24:47.177Z</time></trkpt><trkpt lat="43.5860336" lon="11.3615696"><ele>585.6666666666666</ele><time>2026-04-19T09:24:48.158Z</time></trkpt><trkpt lat="43.5860145" lon="11.3616825"><ele>586.8333333333334</ele><time>2026-04-19T09:24:49.165Z</time></trkpt><trkpt lat="43.585994" lon="11.3617986"><ele>588.0</ele><time>2026-04-19T09:24:50.182Z</time></trkpt><trkpt lat="43.5859747" lon="11.3619148"><ele>588.0</ele><time>2026-04-19T09:24:51.179Z</time></trkpt><trkpt lat="43.5859485" lon="11.362036"><ele>588.0</ele><time>2026-04-19T09:24:52.178Z</time></trkpt><trkpt lat="43.5859262" lon="11.3621548"><ele>588.0</ele><time>2026-04-19T09:24:53.157Z</time></trkpt><trkpt lat="43.5859005" lon="11.3622754"><ele>588.0</ele><time>2026-04-19T09:24:54.174Z</time></trkpt><trkpt lat="43.5858721" lon="11.3623965"><ele>588.0</ele><time>2026-04-19T09:24:55.155Z</time></trkpt><trkpt lat="43.5858466" lon="11.3625271"><ele>589.6</ele><time>2026-04-19T09:24:56.178Z</time></trkpt><trkpt lat="43.5858205" lon="11.3626617"><ele>591.1999999999999</ele><time>2026-04-19T09:24:57.178Z</time></trkpt><trkpt lat="43.585794" lon="11.3628"><ele>592.8</ele><time>2026-04-19T09:24:58.176Z</time></trkpt><trkpt lat="43.5857714" lon="11.3629453"><ele>594.4</ele><time>2026-04-19T09:24:59.165Z</time></trkpt><trkpt lat="43.5857514" lon="11.3630948"><ele>596.0</ele><time>2026-04-19T09:25:00.172Z</time></trkpt><trkpt lat="43.5857274" lon="11.3632316"><ele>598.8</ele><time>2026-04-19T09:25:01.179Z</time></trkpt><trkpt lat="43.5856899" lon="11.3633559"><ele>601.6</ele><time>2026-04-19T09:25:02.174Z</time></trkpt><trkpt lat="43.585638" lon="11.3634761"><ele>604.4</ele><time>2026-04-19T09:25:03.173Z</time></trkpt><trkpt lat="43.5855822" lon="11.3635837"><ele>607.2</ele><time>2026-04-19T09:25:04.168Z</time></trkpt><trkpt lat="43.5855107" lon="11.3636817"><ele>610.0</ele><time>2026-04-19T09:25:05.175Z</time></trkpt><trkpt lat="43.5854326" lon="11.3637777"><ele>610.6</ele><time>2026-04-19T09:25:06.174Z</time></trkpt><trkpt lat="43.5853604" lon="11.3638728"><ele>611.2</ele><time>2026-04-19T09:25:07.186Z</time></trkpt><trkpt lat="43.5853039" lon="11.3639741"><ele>611.8</ele><time>2026-04-19T09:25:08.171Z</time></trkpt><trkpt lat="43.5852596" lon="11.3640889"><ele>612.4</ele><time>2026-04-19T09:25:09.164Z</time></trkpt><trkpt lat="43.5852276" lon="11.3642059"><ele>613.0</ele><time>2026-04-19T09:25:10.168Z</time></trkpt><trkpt lat="43.585219" lon="11.3643214"><ele>613.0</ele><time>2026-04-19T09:25:11.182Z</time></trkpt><trkpt lat="43.5852324" lon="11.3644305"><ele>613.0</ele><time>2026-04-19T09:25:12.172Z</time></trkpt><trkpt lat="43.5852554" lon="11.3645314"><ele>613.0</ele><time>2026-04-19T09:25:13.171Z</time></trkpt><trkpt lat="43.5852898" lon="11.3646405"><ele>613.0</ele><time>2026-04-19T09:25:14.174Z</time></trkpt><trkpt lat="43.5853322" lon="11.3647475"><ele>613.0</ele><time>2026-04-19T09:25:15.169Z</time></trkpt><trkpt lat="43.58537" lon="11.3648515"><ele>613.0</ele><time>2026-04-19T09:25:16.151Z</time></trkpt><trkpt lat="43.5853991" lon="11.3649623"><ele>615.3333333333334</ele><time>2026-04-19T09:25:17.175Z</time></trkpt><trkpt lat="43.5854167" lon="11.3650685"><ele>617.6666666666667</ele><time>2026-04-19T09:25:18.161Z</time></trkpt><trkpt lat="43.585426" lon="11.3651839"><ele>620.0</ele><time>2026-04-19T09:25:19.167Z</time></trkpt><trkpt lat="43.5854335" lon="11.3653077"><ele>622.3333333333334</ele><time>2026-04-19T09:25:20.156Z</time></trkpt><trkpt lat="43.5854356" lon="11.3654344"><ele>624.6666666666666</ele><time>2026-04-19T09:25:21.176Z</time></trkpt><trkpt lat="43.5854387" lon="11.3655706"><ele>627.0</ele><time>2026-04-19T09:25:22.164Z</time></trkpt><trkpt lat="43.5854387" lon="11.3657229"><ele>627.0</ele><time>2026-04-19T09:25:23.184Z</time></trkpt><trkpt lat="43.5854353" lon="11.3658913"><ele>627.0</ele><time>2026-04-19T09:25:24.167Z</time></trkpt><trkpt lat="43.5854233" lon="11.3660645"><ele>627.0</ele><time>2026-04-19T09:25:25.184Z</time></trkpt><trkpt lat="43.5854119" lon="11.3662567"><ele>627.0</ele><time>2026-04-19T09:25:26.169Z</time></trkpt><trkpt lat="43.5853951" lon="11.3664593"><ele>627.0</ele><time>2026-04-19T09:25:27.164Z</time></trkpt><trkpt lat="43.5853763" lon="11.3666755"><ele>627.0</ele><time>2026-04-19T09:25:28.177Z</time></trkpt><trkpt lat="43.5853559" lon="11.366898"><ele>627.0</ele><time>2026-04-19T09:25:29.177Z</time></trkpt><trkpt lat="43.5853328" lon="11.3671158"><ele>628.25</ele><time>2026-04-19T09:25:30.178Z</time></trkpt><trkpt lat="43.5853246" lon="11.3673002"><ele>629.5</ele><time>2026-04-19T09:25:31.173Z</time></trkpt><trkpt lat="43.5853309" lon="11.3674744"><ele>630.75</ele><time>2026-04-19T09:25:32.179Z</time></trkpt><trkpt lat="43.5853507" lon="11.3676383"><ele>632.0</ele><time>2026-04-19T09:25:33.172Z</time></trkpt><trkpt lat="43.5853772" lon="11.3677885"><ele>632.0</ele><time>2026-04-19T09:25:34.172Z</time></trkpt><trkpt lat="43.5853829" lon="11.3679168"><ele>632.0</ele><time>2026-04-19T09:25:35.177Z</time></trkpt><trkpt lat="43.5853706" lon="11.3680235"><ele>632.0</ele><time>2026-04-19T09:25:36.174Z</time></trkpt><trkpt lat="43.5853355" lon="11.3681026"><ele>632.0</ele><time>2026-04-19T09:25:37.176Z</time></trkpt><trkpt lat="43.5852783" lon="11.3681825"><ele>632.0</ele><time>2026-04-19T09:25:38.171Z</time></trkpt><trkpt lat="43.5851855" lon="11.3682685"><ele>632.0</ele><time>2026-04-19T09:25:39.172Z</time></trkpt><trkpt lat="43.5850781" lon="11.3683606"><ele>635.75</ele><time>2026-04-19T09:25:40.172Z</time></trkpt><trkpt lat="43.5849654" lon="11.3684664"><ele>639.5</ele><time>2026-04-19T09:25:41.176Z</time></trkpt><trkpt lat="43.5848578" lon="11.3685734"><ele>643.25</ele><time>2026-04-19T09:25:42.188Z</time></trkpt><trkpt lat="43.5847524" lon="11.3686789"><ele>647.0</ele><time>2026-04-19T09:25:43.175Z</time></trkpt><trkpt lat="43.5846482" lon="11.3687818"><ele>647.0</ele><time>2026-04-19T09:25:44.191Z</time></trkpt><trkpt lat="43.58455" lon="11.3688815"><ele>647.0</ele><time>2026-04-19T09:25:45.181Z</time></trkpt><trkpt lat="43.5844503" lon="11.3689787"><ele>647.0</ele><time>2026-04-19T09:25:46.184Z</time></trkpt><trkpt lat="43.5843442" lon="11.3690822"><ele>647.0</ele><time>2026-04-19T09:25:47.175Z</time></trkpt><trkpt lat="43.5842352" lon="11.3691959"><ele>649.5</ele><time>2026-04-19T09:25:48.178Z</time></trkpt><trkpt lat="43.5841253" lon="11.3693147"><ele>652.0</ele><time>2026-04-19T09:25:49.161Z</time></trkpt><trkpt lat="43.5840109" lon="11.3694466"><ele>654.5</ele><time>2026-04-19T09:25:50.163Z</time></trkpt><trkpt lat="43.5838923" lon="11.3695848"><ele>657.0</ele><time>2026-04-19T09:25:51.176Z</time></trkpt><trkpt lat="43.5837694" lon="11.3697274"><ele>659.0</ele><time>2026-04-19T09:25:52.17Z</time></trkpt><trkpt lat="43.5836434" lon="11.3698662"><ele>661.0</ele><time>2026-04-19T09:25:53.178Z</time></trkpt><trkpt lat="43.5835142" lon="11.3700163"><ele>663.0</ele><time>2026-04-19T09:25:54.171Z</time></trkpt><trkpt lat="43.5833882" lon="11.3701644"><ele>663.0</ele><time>2026-04-19T09:25:55.183Z</time></trkpt><trkpt lat="43.5832696" lon="11.3702973"><ele>663.0</ele><time>2026-04-19T09:25:56.178Z</time></trkpt><trkpt lat="43.5831586" lon="11.3704184"><ele>663.0</ele><time>2026-04-19T09:25:57.169Z</time></trkpt><trkpt lat="43.5830564" lon="11.3705273"><ele>663.0</ele><time>2026-04-19T09:25:58.179Z</time></trkpt><trkpt lat="43.5829514" lon="11.3706355"><ele>664.75</ele><time>2026-04-19T09:25:59.174Z</time></trkpt><trkpt lat="43.5828369" lon="11.3707376"><ele>666.5</ele><time>2026-04-19T09:26:00.17Z</time></trkpt><trkpt lat="43.5827171" lon="11.3708282"><ele>668.25</ele><time>2026-04-19T09:26:01.176Z</time></trkpt><trkpt lat="43.582583" lon="11.3709006"><ele>670.0</ele><time>2026-04-19T09:26:02.18Z</time></trkpt><trkpt lat="43.5824361" lon="11.3709676"><ele>670.0</ele><time>2026-04-19T09:26:03.175Z</time></trkpt><trkpt lat="43.5822773" lon="11.3710284"><ele>670.0</ele><time>2026-04-19T09:26:04.177Z</time></trkpt><trkpt lat="43.5821172" lon="11.3710818"><ele>670.0</ele><time>2026-04-19T09:26:05.178Z</time></trkpt><trkpt lat="43.5819496" lon="11.371132"><ele>673.0</ele><time>2026-04-19T09:26:06.169Z</time></trkpt><trkpt lat="43.5817803" lon="11.3711817"><ele>676.0</ele><time>2026-04-19T09:26:07.175Z</time></trkpt><trkpt lat="43.5816231" lon="11.3712163"><ele>679.0</ele><time>2026-04-19T09:26:08.168Z</time></trkpt><trkpt lat="43.5814814" lon="11.3712432"><ele>679.0</ele><time>2026-04-19T09:26:09.174Z</time></trkpt><trkpt lat="43.5813535" lon="11.371263"><ele>679.0</ele><time>2026-04-19T09:26:10.161Z</time></trkpt><trkpt lat="43.5812314" lon="11.3712713"><ele>679.0</ele><time>2026-04-19T09:26:11.176Z</time></trkpt><trkpt lat="43.5811142" lon="11.3712757"><ele>679.0</ele><time>2026-04-19T09:26:12.175Z</time></trkpt><trkpt lat="43.5810007" lon="11.371274"><ele>681.0</ele><time>2026-04-19T09:26:13.173Z</time></trkpt><trkpt lat="43.5808953" lon="11.3712583"><ele>683.0</ele><time>2026-04-19T09:26:14.182Z</time></trkpt><trkpt lat="43.5807982" lon="11.3712207"><ele>685.0</ele><time>2026-04-19T09:26:15.159Z</time></trkpt><trkpt lat="43.5807025" lon="11.3711546"><ele>687.0</ele><time>2026-04-19T09:26:16.168Z</time></trkpt><trkpt lat="43.5806036" lon="11.3710728"><ele>689.0</ele><time>2026-04-19T09:26:17.168Z</time></trkpt><trkpt lat="43.5805161" lon="11.3710074"><ele>689.0</ele><time>2026-04-19T09:26:18.155Z</time></trkpt><trkpt lat="43.580435" lon="11.3709623"><ele>689.0</ele><time>2026-04-19T09:26:19.178Z</time></trkpt><trkpt lat="43.5803662" lon="11.3709388"><ele>689.0</ele><time>2026-04-19T09:26:20.156Z</time></trkpt><trkpt lat="43.5802984" lon="11.3709419"><ele>689.0</ele><time>2026-04-19T09:26:21.186Z</time></trkpt><trkpt lat="43.5802341" lon="11.3709739"><ele>689.0</ele><time>2026-04-19T09:26:22.178Z</time></trkpt><trkpt lat="43.5801756" lon="11.371046"><ele>689.0</ele><time>2026-04-19T09:26:23.154Z</time></trkpt><trkpt lat="43.5801209" lon="11.3711365"><ele>690.0</ele><time>2026-04-19T09:26:24.168Z</time></trkpt><trkpt lat="43.5800678" lon="11.3712422"><ele>691.0</ele><time>2026-04-19T09:26:25.161Z</time></trkpt><trkpt lat="43.5800018" lon="11.3713403"><ele>692.0</ele><time>2026-04-19T09:26:26.158Z</time></trkpt><trkpt lat="43.5799212" lon="11.3714187"><ele>693.0</ele><time>2026-04-19T09:26:27.171Z</time></trkpt><trkpt lat="43.5798275" lon="11.3714589"><ele>694.0</ele><time>2026-04-19T09:26:28.159Z</time></trkpt><trkpt lat="43.5797365" lon="11.3714759"><ele>697.0</ele><time>2026-04-19T09:26:29.163Z</time></trkpt><trkpt lat="43.5796478" lon="11.3714796"><ele>700.0</ele><time>2026-04-19T09:26:30.18Z</time></trkpt><trkpt lat="43.5795592" lon="11.371485"><ele>703.0</ele><time>2026-04-19T09:26:31.183Z</time></trkpt><trkpt lat="43.5794641" lon="11.3715226"><ele>706.0</ele><time>2026-04-19T09:26:32.17Z</time></trkpt><trkpt lat="43.5793695" lon="11.3715813"><ele>709.0</ele><time>2026-04-19T09:26:33.17Z</time></trkpt><trkpt lat="43.5792854" lon="11.3716652"><ele>709.0</ele><time>2026-04-19T09:26:34.19Z</time></trkpt><trkpt lat="43.5792089" lon="11.3717695"><ele>709.0</ele><time>2026-04-19T09:26:35.176Z</time></trkpt><trkpt lat="43.5791305" lon="11.3718903"><ele>709.0</ele><time>2026-04-19T09:26:36.183Z</time></trkpt><trkpt lat="43.5790521" lon="11.3720061"><ele>709.0</ele><time>2026-04-19T09:26:37.177Z</time></trkpt><trkpt lat="43.5789688" lon="11.3721037"><ele>709.0</ele><time>2026-04-19T09:26:38.174Z</time></trkpt><trkpt lat="43.578868" lon="11.3721769"><ele>712.25</ele><time>2026-04-19T09:26:39.174Z</time></trkpt><trkpt lat="43.5787474" lon="11.3722503"><ele>715.5</ele><time>2026-04-19T09:26:40.173Z</time></trkpt><trkpt lat="43.5786259" lon="11.3723223"><ele>718.75</ele><time>2026-04-19T09:26:41.175Z</time></trkpt><trkpt lat="43.5785079" lon="11.3724088"><ele>722.0</ele><time>2026-04-19T09:26:42.178Z</time></trkpt><trkpt lat="43.5783953" lon="11.3725127"><ele>722.0</ele><time>2026-04-19T09:26:43.183Z</time></trkpt><trkpt lat="43.5782927" lon="11.3726272"><ele>722.0</ele><time>2026-04-19T09:26:44.167Z</time></trkpt><trkpt lat="43.5782036" lon="11.3727453"><ele>722.0</ele><time>2026-04-19T09:26:45.176Z</time></trkpt><trkpt lat="43.5781305" lon="11.3728612"><ele>722.0</ele><time>2026-04-19T09:26:46.176Z</time></trkpt><trkpt lat="43.5780682" lon="11.3729834"><ele>722.1666666666666</ele><time>2026-04-19T09:26:47.177Z</time></trkpt><trkpt lat="43.5780174" lon="11.3730986"><ele>722.3333333333333</ele><time>2026-04-19T09:26:48.163Z</time></trkpt><trkpt lat="43.5779705" lon="11.373204"><ele>722.5</ele><time>2026-04-19T09:26:49.178Z</time></trkpt><trkpt lat="43.5779186" lon="11.3732934"><ele>722.6666666666666</ele><time>2026-04-19T09:26:50.183Z</time></trkpt><trkpt lat="43.5778671" lon="11.373362"><ele>722.8333333333334</ele><time>2026-04-19T09:26:51.174Z</time></trkpt><trkpt lat="43.5778045" lon="11.3734203"><ele>723.0</ele><time>2026-04-19T09:26:52.168Z</time></trkpt><trkpt lat="43.5777272" lon="11.3734652"><ele>723.5</ele><time>2026-04-19T09:26:53.178Z</time></trkpt><trkpt lat="43.5776263" lon="11.3734902"><ele>724.0</ele><time>2026-04-19T09:26:54.173Z</time></trkpt><trkpt lat="43.5775073" lon="11.3734924"><ele>724.5</ele><time>2026-04-19T09:26:55.173Z</time></trkpt><trkpt lat="43.5773747" lon="11.3734855"><ele>725.0</ele><time>2026-04-19T09:26:56.164Z</time></trkpt><trkpt lat="43.57724" lon="11.3735026"><ele>725.0</ele><time>2026-04-19T09:26:57.173Z</time></trkpt><trkpt lat="43.5771187" lon="11.373541"><ele>725.0</ele><time>2026-04-19T09:26:58.174Z</time></trkpt><trkpt lat="43.5770152" lon="11.3735906"><ele>725.0</ele><time>2026-04-19T09:26:59.178Z</time></trkpt><trkpt lat="43.576931" lon="11.3736254"><ele>725.0</ele><time>2026-04-19T09:27:00.177Z</time></trkpt><trkpt lat="43.5768357" lon="11.3736317"><ele>725.0</ele><time>2026-04-19T09:27:01.158Z</time></trkpt><trkpt lat="43.5767265" lon="11.373618"><ele>725.75</ele><time>2026-04-19T09:27:02.175Z</time></trkpt><trkpt lat="43.5766067" lon="11.3735986"><ele>726.5</ele><time>2026-04-19T09:27:03.164Z</time></trkpt><trkpt lat="43.5764783" lon="11.3735596"><ele>727.25</ele><time>2026-04-19T09:27:04.171Z</time></trkpt><trkpt lat="43.5763481" lon="11.3735218"><ele>728.0</ele><time>2026-04-19T09:27:05.163Z</time></trkpt><trkpt lat="43.576212" lon="11.3735041"><ele>726.75</ele><time>2026-04-19T09:27:06.178Z</time></trkpt><trkpt lat="43.5760799" lon="11.3735151"><ele>725.5</ele><time>2026-04-19T09:27:07.172Z</time></trkpt><trkpt lat="43.5759504" lon="11.3735489"><ele>724.25</ele><time>2026-04-19T09:27:08.172Z</time></trkpt><trkpt lat="43.5758278" lon="11.3735997"><ele>723.0</ele><time>2026-04-19T09:27:09.161Z</time></trkpt><trkpt lat="43.575709" lon="11.3736834"><ele>723.0</ele><time>2026-04-19T09:27:10.175Z</time></trkpt><trkpt lat="43.5755992" lon="11.373785"><ele>723.0</ele><time>2026-04-19T09:27:11.179Z</time></trkpt><trkpt lat="43.5755033" lon="11.3738989"><ele>723.0</ele><time>2026-04-19T09:27:12.182Z</time></trkpt><trkpt lat="43.5754103" lon="11.3740284"><ele>723.0</ele><time>2026-04-19T09:27:13.177Z</time></trkpt><trkpt lat="43.5753179" lon="11.3741662"><ele>723.6666666666666</ele><time>2026-04-19T09:27:14.167Z</time></trkpt><trkpt lat="43.5752128" lon="11.3743183"><ele>724.3333333333333</ele><time>2026-04-19T09:27:15.157Z</time></trkpt><trkpt lat="43.5750953" lon="11.3744904"><ele>725.0</ele><time>2026-04-19T09:27:16.2Z</time></trkpt><trkpt lat="43.5749571" lon="11.3746859"><ele>728.0</ele><time>2026-04-19T09:27:17.181Z</time></trkpt><trkpt lat="43.5748191" lon="11.3748839"><ele>731.0</ele><time>2026-04-19T09:27:18.173Z</time></trkpt><trkpt lat="43.5746961" lon="11.3750584"><ele>734.0</ele><time>2026-04-19T09:27:19.174Z</time></trkpt><trkpt lat="43.5745889" lon="11.3752095"><ele>733.75</ele><time>2026-04-19T09:27:20.172Z</time></trkpt><trkpt lat="43.5744914" lon="11.3753312"><ele>733.5</ele><time>2026-04-19T09:27:21.172Z</time></trkpt><trkpt lat="43.5743959" lon="11.3754251"><ele>733.25</ele><time>2026-04-19T09:27:22.183Z</time></trkpt><trkpt lat="43.5742911" lon="11.3755017"><ele>733.0</ele><time>2026-04-19T09:27:23.173Z</time></trkpt><trkpt lat="43.5741582" lon="11.3755724"><ele>735.6666666666667</ele><time>2026-04-19T09:27:24.184Z</time></trkpt><trkpt lat="43.5740082" lon="11.3756569"><ele>738.3333333333334</ele><time>2026-04-19T09:27:25.161Z</time></trkpt><trkpt lat="43.5738415" lon="11.3757423"><ele>741.0</ele><time>2026-04-19T09:27:26.169Z</time></trkpt><trkpt lat="43.5736874" lon="11.3758258"><ele>741.0</ele><time>2026-04-19T09:27:27.178Z</time></trkpt><trkpt lat="43.5735543" lon="11.3759085"><ele>741.0</ele><time>2026-04-19T09:27:28.17Z</time></trkpt><trkpt lat="43.5734375" lon="11.3759995"><ele>741.0</ele><time>2026-04-19T09:27:29.168Z</time></trkpt><trkpt lat="43.5733218" lon="11.3760872"><ele>741.0</ele><time>2026-04-19T09:27:30.163Z</time></trkpt><trkpt lat="43.5732047" lon="11.3761516"><ele>741.0</ele><time>2026-04-19T09:27:31.175Z</time></trkpt><trkpt lat="43.5730679" lon="11.3762059"><ele>741.0</ele><time>2026-04-19T09:27:32.172Z</time></trkpt><trkpt lat="43.5729232" lon="11.3762428"><ele>741.0</ele><time>2026-04-19T09:27:33.175Z</time></trkpt><trkpt lat="43.5727771" lon="11.3762854"><ele>741.0</ele><time>2026-04-19T09:27:34.174Z</time></trkpt><trkpt lat="43.5726369" lon="11.3763413"><ele>742.75</ele><time>2026-04-19T09:27:35.174Z</time></trkpt><trkpt lat="43.5725056" lon="11.3764023"><ele>744.5</ele><time>2026-04-19T09:27:36.17Z</time></trkpt><trkpt lat="43.5723715" lon="11.3764563"><ele>746.25</ele><time>2026-04-19T09:27:37.177Z</time></trkpt><trkpt lat="43.5722272" lon="11.3765104"><ele>748.0</ele><time>2026-04-19T09:27:38.174Z</time></trkpt><trkpt lat="43.5720764" lon="11.3765736"><ele>748.75</ele><time>2026-04-19T09:27:39.169Z</time></trkpt><trkpt lat="43.5719294" lon="11.3766445"><ele>749.5</ele><time>2026-04-19T09:27:40.166Z</time></trkpt><trkpt lat="43.5717946" lon="11.3767174"><ele>750.25</ele><time>2026-04-19T09:27:41.17Z</time></trkpt><trkpt lat="43.5716583" lon="11.376776"><ele>751.0</ele><time>2026-04-19T09:27:42.169Z</time></trkpt><trkpt lat="43.5715126" lon="11.3768433"><ele>751.0</ele><time>2026-04-19T09:27:43.169Z</time></trkpt><trkpt lat="43.5713638" lon="11.3768982"><ele>751.0</ele><time>2026-04-19T09:27:44.174Z</time></trkpt><trkpt lat="43.5712186" lon="11.3769211"><ele>751.0</ele><time>2026-04-19T09:27:45.177Z</time></trkpt><trkpt lat="43.5710815" lon="11.376935"><ele>751.0</ele><time>2026-04-19T09:27:46.173Z</time></trkpt><trkpt lat="43.5709523" lon="11.376959"><ele>750.5</ele><time>2026-04-19T09:27:47.177Z</time></trkpt><trkpt lat="43.5708266" lon="11.3769986"><ele>750.0</ele><time>2026-04-19T09:27:48.174Z</time></trkpt><trkpt lat="43.5706975" lon="11.3770672"><ele>749.5</ele><time>2026-04-19T09:27:49.159Z</time></trkpt><trkpt lat="43.5705625" lon="11.3771483"><ele>749.0</ele><time>2026-04-19T09:27:50.172Z</time></trkpt><trkpt lat="43.5704261" lon="11.3772374"><ele>748.0</ele><time>2026-04-19T09:27:51.162Z</time></trkpt><trkpt lat="43.5702972" lon="11.3773231"><ele>747.0</ele><time>2026-04-19T09:27:52.175Z</time></trkpt><trkpt lat="43.5701789" lon="11.3774017"><ele>746.0</ele><time>2026-04-19T09:27:53.176Z</time></trkpt><trkpt lat="43.5700761" lon="11.3774706"><ele>745.0</ele><time>2026-04-19T09:27:54.18Z</time></trkpt><trkpt lat="43.5699775" lon="11.3775297"><ele>745.0</ele><time>2026-04-19T09:27:55.172Z</time></trkpt><trkpt lat="43.5698857" lon="11.3775862"><ele>745.0</ele><time>2026-04-19T09:27:56.176Z</time></trkpt><trkpt lat="43.5698006" lon="11.377636"><ele>745.0</ele><time>2026-04-19T09:27:57.16Z</time></trkpt><trkpt lat="43.5697242" lon="11.3776816"><ele>745.0</ele><time>2026-04-19T09:27:58.179Z</time></trkpt><trkpt lat="43.5696577" lon="11.3777279"><ele>745.0</ele><time>2026-04-19T09:27:59.174Z</time></trkpt><trkpt lat="43.5695576" lon="11.3778041"><ele>745.6</ele><time>2026-04-19T09:28:01.174Z</time></trkpt><trkpt lat="43.5694754" lon="11.3778644"><ele>746.2</ele><time>2026-04-19T09:28:03.171Z</time></trkpt><trkpt lat="43.5694145" lon="11.3778891"><ele>746.8</ele><time>2026-04-19T09:28:05.174Z</time></trkpt><trkpt lat="43.5693407" lon="11.3780263"><ele>747.4</ele><time>2026-04-19T09:34:17.167Z</time></trkpt><trkpt lat="43.5692762" lon="11.3781639"><ele>748.0</ele><time>2026-04-19T09:34:18.166Z</time></trkpt><trkpt lat="43.5691667" lon="11.3783256"><ele>748.0</ele><time>2026-04-19T09:34:20.16Z</time></trkpt><trkpt lat="43.5691181" lon="11.3783858"><ele>748.0</ele><time>2026-04-19T09:34:21.151Z</time></trkpt><trkpt lat="43.5690081" lon="11.3785356"><ele>748.0</ele><time>2026-04-19T09:34:23.164Z</time></trkpt><trkpt lat="43.5688249" lon="11.3787761"><ele>748.25</ele><time>2026-04-19T09:34:25.111Z</time></trkpt><trkpt lat="43.5687333" lon="11.3788825"><ele>748.5</ele><time>2026-04-19T09:34:26.291Z</time></trkpt><trkpt lat="43.5686194" lon="11.3790125"><ele>748.75</ele><time>2026-04-19T09:34:27.193Z</time></trkpt><trkpt lat="43.5685424" lon="11.3790988"><ele>749.0</ele><time>2026-04-19T09:34:28.163Z</time></trkpt><trkpt lat="43.5683906" lon="11.3792443"><ele>749.0</ele><time>2026-04-19T09:34:29.159Z</time></trkpt><trkpt lat="43.5683338" lon="11.3792984"><ele>749.0</ele><time>2026-04-19T09:34:30.159Z</time></trkpt><trkpt lat="43.568202" lon="11.3794294"><ele>749.0</ele><time>2026-04-19T09:34:31.164Z</time></trkpt><trkpt lat="43.5681387" lon="11.3795032"><ele>749.0</ele><time>2026-04-19T09:34:32.151Z</time></trkpt><trkpt lat="43.5680631" lon="11.3797006"><ele>748.0</ele><time>2026-04-19T09:34:33.164Z</time></trkpt><trkpt lat="43.5680321" lon="11.3797867"><ele>747.0</ele><time>2026-04-19T09:34:34.157Z</time></trkpt><trkpt lat="43.5679812" lon="11.3799728"><ele>746.0</ele><time>2026-04-19T09:34:35.156Z</time></trkpt><trkpt lat="43.5679448" lon="11.3800916"><ele>745.0</ele><time>2026-04-19T09:34:36.157Z</time></trkpt><trkpt lat="43.5678167" lon="11.3802262"><ele>745.0</ele><time>2026-04-19T09:34:38.161Z</time></trkpt><trkpt lat="43.5676376" lon="11.380312"><ele>745.0</ele><time>2026-04-19T09:34:39.155Z</time></trkpt><trkpt lat="43.5675088" lon="11.3803808"><ele>745.0</ele><time>2026-04-19T09:34:40.159Z</time></trkpt><trkpt lat="43.5673896" lon="11.3804637"><ele>742.25</ele><time>2026-04-19T09:34:41.154Z</time></trkpt><trkpt lat="43.5672708" lon="11.380554"><ele>739.5</ele><time>2026-04-19T09:34:42.173Z</time></trkpt><trkpt lat="43.5671639" lon="11.3806488"><ele>736.75</ele><time>2026-04-19T09:34:43.181Z</time></trkpt><trkpt lat="43.5670583" lon="11.3807381"><ele>734.0</ele><time>2026-04-19T09:34:44.164Z</time></trkpt><trkpt lat="43.5669548" lon="11.3808379"><ele>734.0</ele><time>2026-04-19T09:34:45.171Z</time></trkpt><trkpt lat="43.5668597" lon="11.38092"><ele>734.0</ele><time>2026-04-19T09:34:46.187Z</time></trkpt><trkpt lat="43.566761" lon="11.380982"><ele>734.0</ele><time>2026-04-19T09:34:47.178Z</time></trkpt><trkpt lat="43.566672" lon="11.3810193"><ele>734.0</ele><time>2026-04-19T09:34:48.17Z</time></trkpt><trkpt lat="43.566585" lon="11.3810432"><ele>734.0</ele><time>2026-04-19T09:34:49.175Z</time></trkpt><trkpt lat="43.566485" lon="11.381045"><ele>734.0</ele><time>2026-04-19T09:34:50.18Z</time></trkpt><trkpt lat="43.566383" lon="11.3810582"><ele>734.0</ele><time>2026-04-19T09:34:51.159Z</time></trkpt><trkpt lat="43.5662849" lon="11.3810882"><ele>734.0</ele><time>2026-04-19T09:34:52.154Z</time></trkpt><trkpt lat="43.5661846" lon="11.38115"><ele>734.0</ele><time>2026-04-19T09:34:53.167Z</time></trkpt><trkpt lat="43.5660794" lon="11.3812305"><ele>734.0</ele><time>2026-04-19T09:34:54.164Z</time></trkpt><trkpt lat="43.5659697" lon="11.3813328"><ele>732.25</ele><time>2026-04-19T09:34:55.153Z</time></trkpt><trkpt lat="43.5658615" lon="11.3814525"><ele>730.5</ele><time>2026-04-19T09:34:56.165Z</time></trkpt><trkpt lat="43.565745" lon="11.3815697"><ele>728.75</ele><time>2026-04-19T09:34:57.17Z</time></trkpt><trkpt lat="43.5656168" lon="11.3816749"><ele>727.0</ele><time>2026-04-19T09:34:58.149Z</time></trkpt><trkpt lat="43.5654878" lon="11.3817704"><ele>724.5</ele><time>2026-04-19T09:34:59.174Z</time></trkpt><trkpt lat="43.5653621" lon="11.381855"><ele>722.0</ele><time>2026-04-19T09:35:00.167Z</time></trkpt><trkpt lat="43.5652382" lon="11.3819472"><ele>719.5</ele><time>2026-04-19T09:35:01.155Z</time></trkpt><trkpt lat="43.565124" lon="11.3820642"><ele>717.0</ele><time>2026-04-19T09:35:02.169Z</time></trkpt><trkpt lat="43.5650376" lon="11.3822086"><ele>717.0</ele><time>2026-04-19T09:35:03.166Z</time></trkpt><trkpt lat="43.5649622" lon="11.3823306"><ele>717.0</ele><time>2026-04-19T09:35:04.18Z</time></trkpt><trkpt lat="43.5649136" lon="11.3824186"><ele>717.0</ele><time>2026-04-19T09:35:05.161Z</time></trkpt><trkpt lat="43.5647919" lon="11.3825036"><ele>717.0</ele><time>2026-04-19T09:35:07.172Z</time></trkpt><trkpt lat="43.5646819" lon="11.3825025"><ele>717.0</ele><time>2026-04-19T09:35:08.152Z</time></trkpt><trkpt lat="43.5645797" lon="11.382509"><ele>718.1666666666666</ele><time>2026-04-19T09:35:09.154Z</time></trkpt><trkpt lat="43.5644883" lon="11.3825037"><ele>719.3333333333334</ele><time>2026-04-19T09:35:10.156Z</time></trkpt><trkpt lat="43.564404" lon="11.3825065"><ele>720.5</ele><time>2026-04-19T09:35:11.153Z</time></trkpt><trkpt lat="43.5643109" lon="11.3825326"><ele>721.6666666666667</ele><time>2026-04-19T09:35:12.173Z</time></trkpt><trkpt lat="43.5642317" lon="11.382572"><ele>722.8333333333334</ele><time>2026-04-19T09:35:13.169Z</time></trkpt><trkpt lat="43.5642304" lon="11.38266"><ele>724.0</ele><time>2026-04-19T09:35:14.162Z</time></trkpt><trkpt lat="43.5641883" lon="11.3827963"><ele>724.0</ele><time>2026-04-19T09:35:16.153Z</time></trkpt><trkpt lat="43.5641726" lon="11.3829118"><ele>724.0</ele><time>2026-04-19T09:35:17.181Z</time></trkpt><trkpt lat="43.5641697" lon="11.3830528"><ele>724.0</ele><time>2026-04-19T09:35:18.175Z</time></trkpt><trkpt lat="43.5641503" lon="11.3832105"><ele>724.0</ele><time>2026-04-19T09:35:19.154Z</time></trkpt><trkpt lat="43.5641033" lon="11.3833949"><ele>724.0</ele><time>2026-04-19T09:35:20.151Z</time></trkpt><trkpt lat="43.5640258" lon="11.3836076"><ele>720.0</ele><time>2026-04-19T09:35:21.151Z</time></trkpt><trkpt lat="43.5639152" lon="11.3838245"><ele>716.0</ele><time>2026-04-19T09:35:22.16Z</time></trkpt><trkpt lat="43.5638348" lon="11.3840061"><ele>712.0</ele><time>2026-04-19T09:35:23.166Z</time></trkpt><trkpt lat="43.5637313" lon="11.384183"><ele>709.75</ele><time>2026-04-19T09:35:24.159Z</time></trkpt><trkpt lat="43.5636181" lon="11.3843566"><ele>707.5</ele><time>2026-04-19T09:35:25.165Z</time></trkpt><trkpt lat="43.5635173" lon="11.3845066"><ele>705.25</ele><time>2026-04-19T09:35:26.159Z</time></trkpt><trkpt lat="43.5634247" lon="11.3846363"><ele>703.0</ele><time>2026-04-19T09:35:27.167Z</time></trkpt><trkpt lat="43.5633327" lon="11.3847406"><ele>703.0</ele><time>2026-04-19T09:35:28.167Z</time></trkpt><trkpt lat="43.5632355" lon="11.3848288"><ele>703.0</ele><time>2026-04-19T09:35:29.174Z</time></trkpt><trkpt lat="43.563152" lon="11.3848996"><ele>703.0</ele><time>2026-04-19T09:35:30.176Z</time></trkpt><trkpt lat="43.5630803" lon="11.3849545"><ele>703.0</ele><time>2026-04-19T09:35:31.184Z</time></trkpt><trkpt lat="43.5630216" lon="11.3850122"><ele>703.0</ele><time>2026-04-19T09:35:32.171Z</time></trkpt><trkpt lat="43.562969" lon="11.3850803"><ele>703.0</ele><time>2026-04-19T09:35:33.179Z</time></trkpt><trkpt lat="43.562906" lon="11.3852014"><ele>703.0</ele><time>2026-04-19T09:35:35.157Z</time></trkpt><trkpt lat="43.5628989" lon="11.385306"><ele>703.0</ele><time>2026-04-19T09:35:36.166Z</time></trkpt><trkpt lat="43.562924" lon="11.385453"><ele>703.0</ele><time>2026-04-19T09:35:37.16Z</time></trkpt><trkpt lat="43.5629463" lon="11.3855909"><ele>703.0</ele><time>2026-04-19T09:35:38.165Z</time></trkpt><trkpt lat="43.5629687" lon="11.3857318"><ele>703.0</ele><time>2026-04-19T09:35:39.173Z</time></trkpt><trkpt lat="43.5629882" lon="11.3858871"><ele>701.0</ele><time>2026-04-19T09:35:40.173Z</time></trkpt><trkpt lat="43.5629978" lon="11.3860415"><ele>699.0</ele><time>2026-04-19T09:35:41.174Z</time></trkpt><trkpt lat="43.5629877" lon="11.3861953"><ele>697.0</ele><time>2026-04-19T09:35:42.184Z</time></trkpt><trkpt lat="43.5629549" lon="11.3863527"><ele>695.0</ele><time>2026-04-19T09:35:43.156Z</time></trkpt><trkpt lat="43.5629141" lon="11.3865149"><ele>698.0</ele><time>2026-04-19T09:35:44.164Z</time></trkpt><trkpt lat="43.5628633" lon="11.3866746"><ele>701.0</ele><time>2026-04-19T09:35:45.175Z</time></trkpt><trkpt lat="43.5627872" lon="11.3868383"><ele>704.0</ele><time>2026-04-19T09:35:46.179Z</time></trkpt><trkpt lat="43.5626856" lon="11.3869821"><ele>707.0</ele><time>2026-04-19T09:35:47.174Z</time></trkpt><trkpt lat="43.5625565" lon="11.3871081"><ele>704.0</ele><time>2026-04-19T09:35:48.176Z</time></trkpt><trkpt lat="43.562411" lon="11.3872187"><ele>701.0</ele><time>2026-04-19T09:35:49.159Z</time></trkpt><trkpt lat="43.5622823" lon="11.3873443"><ele>698.0</ele><time>2026-04-19T09:35:50.187Z</time></trkpt><trkpt lat="43.5621688" lon="11.3875018"><ele>698.0</ele><time>2026-04-19T09:35:51.178Z</time></trkpt><trkpt lat="43.5620764" lon="11.3876976"><ele>698.0</ele><time>2026-04-19T09:35:52.168Z</time></trkpt><trkpt lat="43.5619927" lon="11.3879018"><ele>698.0</ele><time>2026-04-19T09:35:53.17Z</time></trkpt><trkpt lat="43.5619017" lon="11.3881024"><ele>702.0</ele><time>2026-04-19T09:35:54.171Z</time></trkpt><trkpt lat="43.5617947" lon="11.3883146"><ele>706.0</ele><time>2026-04-19T09:35:55.17Z</time></trkpt><trkpt lat="43.5616709" lon="11.3885115"><ele>710.0</ele><time>2026-04-19T09:35:56.173Z</time></trkpt><trkpt lat="43.561546" lon="11.3886917"><ele>708.0</ele><time>2026-04-19T09:35:57.16Z</time></trkpt><trkpt lat="43.5614217" lon="11.3888487"><ele>706.0</ele><time>2026-04-19T09:35:58.172Z</time></trkpt><trkpt lat="43.5612934" lon="11.3889861"><ele>704.0</ele><time>2026-04-19T09:35:59.174Z</time></trkpt><trkpt lat="43.5611498" lon="11.3891032"><ele>704.0</ele><time>2026-04-19T09:36:00.172Z</time></trkpt><trkpt lat="43.560994" lon="11.3891979"><ele>704.0</ele><time>2026-04-19T09:36:01.151Z</time></trkpt><trkpt lat="43.5608305" lon="11.3893117"><ele>704.0</ele><time>2026-04-19T09:36:02.164Z</time></trkpt><trkpt lat="43.5606751" lon="11.3894571"><ele>704.0</ele><time>2026-04-19T09:36:03.175Z</time></trkpt><trkpt lat="43.5605253" lon="11.3896247"><ele>704.0</ele><time>2026-04-19T09:36:04.175Z</time></trkpt><trkpt lat="43.5603775" lon="11.3898071"><ele>704.0</ele><time>2026-04-19T09:36:05.186Z</time></trkpt><trkpt lat="43.560238" lon="11.3900009"><ele>704.0</ele><time>2026-04-19T09:36:06.167Z</time></trkpt><trkpt lat="43.5601077" lon="11.3901818"><ele>704.0</ele><time>2026-04-19T09:36:07.176Z</time></trkpt><trkpt lat="43.5600052" lon="11.3903539"><ele>704.0</ele><time>2026-04-19T09:36:08.172Z</time></trkpt><trkpt lat="43.5599234" lon="11.3905361"><ele>702.0</ele><time>2026-04-19T09:36:09.179Z</time></trkpt><trkpt lat="43.5598536" lon="11.3907135"><ele>700.0</ele><time>2026-04-19T09:36:10.179Z</time></trkpt><trkpt lat="43.5597939" lon="11.3909017"><ele>698.0</ele><time>2026-04-19T09:36:11.171Z</time></trkpt><trkpt lat="43.5597414" lon="11.3910865"><ele>696.0</ele><time>2026-04-19T09:36:12.167Z</time></trkpt><trkpt lat="43.5596858" lon="11.3912706"><ele>694.0</ele><time>2026-04-19T09:36:13.169Z</time></trkpt><trkpt lat="43.5596057" lon="11.39145"><ele>692.0</ele><time>2026-04-19T09:36:14.177Z</time></trkpt><trkpt lat="43.5595116" lon="11.3916174"><ele>690.0</ele><time>2026-04-19T09:36:15.168Z</time></trkpt><trkpt lat="43.5594035" lon="11.3917635"><ele>692.25</ele><time>2026-04-19T09:36:16.151Z</time></trkpt><trkpt lat="43.5592809" lon="11.3918885"><ele>694.5</ele><time>2026-04-19T09:36:17.174Z</time></trkpt><trkpt lat="43.5591573" lon="11.3919977"><ele>696.75</ele><time>2026-04-19T09:36:18.176Z</time></trkpt><trkpt lat="43.5590468" lon="11.3921149"><ele>699.0</ele><time>2026-04-19T09:36:19.171Z</time></trkpt><trkpt lat="43.5589839" lon="11.3922746"><ele>699.0</ele><time>2026-04-19T09:36:20.165Z</time></trkpt><trkpt lat="43.5589329" lon="11.3924571"><ele>699.0</ele><time>2026-04-19T09:36:21.17Z</time></trkpt><trkpt lat="43.5588509" lon="11.3926338"><ele>699.0</ele><time>2026-04-19T09:36:22.173Z</time></trkpt><trkpt lat="43.5587457" lon="11.392799"><ele>705.0</ele><time>2026-04-19T09:36:23.171Z</time></trkpt><trkpt lat="43.5586386" lon="11.3929487"><ele>711.0</ele><time>2026-04-19T09:36:24.174Z</time></trkpt><trkpt lat="43.5585193" lon="11.3930893"><ele>717.0</ele><time>2026-04-19T09:36:25.166Z</time></trkpt><trkpt lat="43.5583994" lon="11.3932286"><ele>717.0</ele><time>2026-04-19T09:36:26.168Z</time></trkpt><trkpt lat="43.5583068" lon="11.3934028"><ele>717.0</ele><time>2026-04-19T09:36:27.176Z</time></trkpt><trkpt lat="43.5582206" lon="11.3936088"><ele>717.0</ele><time>2026-04-19T09:36:28.17Z</time></trkpt><trkpt lat="43.5581409" lon="11.3938308"><ele>719.6666666666666</ele><time>2026-04-19T09:36:29.181Z</time></trkpt><trkpt lat="43.5580446" lon="11.3940304"><ele>722.3333333333333</ele><time>2026-04-19T09:36:30.176Z</time></trkpt><trkpt lat="43.5579273" lon="11.3942056"><ele>725.0</ele><time>2026-04-19T09:36:31.168Z</time></trkpt><trkpt lat="43.5578161" lon="11.3943867"><ele>725.0</ele><time>2026-04-19T09:36:32.166Z</time></trkpt><trkpt lat="43.5576874" lon="11.3945366"><ele>725.0</ele><time>2026-04-19T09:36:33.15Z</time></trkpt><trkpt lat="43.5575523" lon="11.394639"><ele>725.0</ele><time>2026-04-19T09:36:34.173Z</time></trkpt><trkpt lat="43.5574144" lon="11.3947147"><ele>723.3333333333333</ele><time>2026-04-19T09:36:35.172Z</time></trkpt><trkpt lat="43.5572636" lon="11.3947469"><ele>721.6666666666666</ele><time>2026-04-19T09:36:36.158Z</time></trkpt><trkpt lat="43.5570887" lon="11.3947264"><ele>720.0</ele><time>2026-04-19T09:36:37.166Z</time></trkpt><trkpt lat="43.5569129" lon="11.3947256"><ele>720.0</ele><time>2026-04-19T09:36:38.161Z</time></trkpt><trkpt lat="43.5567281" lon="11.3947249"><ele>720.0</ele><time>2026-04-19T09:36:39.17Z</time></trkpt><trkpt lat="43.5565532" lon="11.3947504"><ele>720.0</ele><time>2026-04-19T09:36:40.15Z</time></trkpt><trkpt lat="43.5563609" lon="11.3947876"><ele>719.0</ele><time>2026-04-19T09:36:41.188Z</time></trkpt><trkpt lat="43.5561754" lon="11.394837"><ele>718.0</ele><time>2026-04-19T09:36:42.176Z</time></trkpt><trkpt lat="43.5559988" lon="11.394889"><ele>717.0</ele><time>2026-04-19T09:36:43.17Z</time></trkpt><trkpt lat="43.555829" lon="11.3949257"><ele>717.0</ele><time>2026-04-19T09:36:44.183Z</time></trkpt><trkpt lat="43.555659" lon="11.3949296"><ele>717.0</ele><time>2026-04-19T09:36:45.184Z</time></trkpt><trkpt lat="43.5554914" lon="11.3949198"><ele>717.0</ele><time>2026-04-19T09:36:46.173Z</time></trkpt><trkpt lat="43.5553191" lon="11.3949265"><ele>719.6666666666666</ele><time>2026-04-19T09:36:47.171Z</time></trkpt><trkpt lat="43.5551443" lon="11.3949606"><ele>722.3333333333333</ele><time>2026-04-19T09:36:48.15Z</time></trkpt><trkpt lat="43.5549739" lon="11.3950605"><ele>725.0</ele><time>2026-04-19T09:36:49.173Z</time></trkpt><trkpt lat="43.5548238" lon="11.3951772"><ele>725.0</ele><time>2026-04-19T09:36:50.168Z</time></trkpt><trkpt lat="43.5546707" lon="11.3952828"><ele>725.0</ele><time>2026-04-19T09:36:51.175Z</time></trkpt><trkpt lat="43.5545153" lon="11.3953309"><ele>725.0</ele><time>2026-04-19T09:36:52.154Z</time></trkpt><trkpt lat="43.5543574" lon="11.3952914"><ele>728.6666666666666</ele><time>2026-04-19T09:36:53.177Z</time></trkpt><trkpt lat="43.5542186" lon="11.3951872"><ele>732.3333333333334</ele><time>2026-04-19T09:36:54.175Z</time></trkpt><trkpt lat="43.5540843" lon="11.3950661"><ele>736.0</ele><time>2026-04-19T09:36:55.171Z</time></trkpt><trkpt lat="43.5539469" lon="11.3949377"><ele>736.0</ele><time>2026-04-19T09:36:56.17Z</time></trkpt><trkpt lat="43.5538233" lon="11.3948298"><ele>736.0</ele><time>2026-04-19T09:36:57.156Z</time></trkpt><trkpt lat="43.5537135" lon="11.3947654"><ele>736.0</ele><time>2026-04-19T09:36:58.17Z</time></trkpt><trkpt lat="43.5535899" lon="11.3947552"><ele>736.0</ele><time>2026-04-19T09:36:59.174Z</time></trkpt><trkpt lat="43.5534937" lon="11.3948226"><ele>738.25</ele><time>2026-04-19T09:37:00.169Z</time></trkpt><trkpt lat="43.5534227" lon="11.3949544"><ele>740.5</ele><time>2026-04-19T09:37:01.179Z</time></trkpt><trkpt lat="43.553354" lon="11.3950725"><ele>742.75</ele><time>2026-04-19T09:37:02.17Z</time></trkpt><trkpt lat="43.5532862" lon="11.3952266"><ele>745.0</ele><time>2026-04-19T09:37:03.183Z</time></trkpt><trkpt lat="43.5532253" lon="11.3954015"><ele>743.3333333333334</ele><time>2026-04-19T09:37:04.182Z</time></trkpt><trkpt lat="43.5531753" lon="11.3955924"><ele>741.6666666666666</ele><time>2026-04-19T09:37:05.174Z</time></trkpt><trkpt lat="43.5530961" lon="11.3957806"><ele>740.0</ele><time>2026-04-19T09:37:06.175Z</time></trkpt><trkpt lat="43.5530046" lon="11.395958"><ele>740.0</ele><time>2026-04-19T09:37:07.176Z</time></trkpt><trkpt lat="43.552888" lon="11.396106"><ele>740.0</ele><time>2026-04-19T09:37:08.178Z</time></trkpt><trkpt lat="43.5527467" lon="11.3962242"><ele>740.0</ele><time>2026-04-19T09:37:09.17Z</time></trkpt><trkpt lat="43.5525988" lon="11.3963426"><ele>744.3333333333333</ele><time>2026-04-19T09:37:10.159Z</time></trkpt><trkpt lat="43.5524444" lon="11.3964802"><ele>748.6666666666666</ele><time>2026-04-19T09:37:11.173Z</time></trkpt><trkpt lat="43.5522916" lon="11.3966434"><ele>753.0</ele><time>2026-04-19T09:37:12.176Z</time></trkpt><trkpt lat="43.5521337" lon="11.3968398"><ele>752.6666666666666</ele><time>2026-04-19T09:37:13.191Z</time></trkpt><trkpt lat="43.5519731" lon="11.3970385"><ele>752.3333333333333</ele><time>2026-04-19T09:37:14.171Z</time></trkpt><trkpt lat="43.5517931" lon="11.3971999"><ele>752.0</ele><time>2026-04-19T09:37:15.176Z</time></trkpt><trkpt lat="43.5516127" lon="11.3973624"><ele>752.0</ele><time>2026-04-19T09:37:16.171Z</time></trkpt><trkpt lat="43.5514327" lon="11.3975229"><ele>752.0</ele><time>2026-04-19T09:37:17.169Z</time></trkpt><trkpt lat="43.5512579" lon="11.3976709"><ele>752.0</ele><time>2026-04-19T09:37:18.177Z</time></trkpt><trkpt lat="43.5510841" lon="11.3978005"><ele>753.3333333333333</ele><time>2026-04-19T09:37:19.18Z</time></trkpt><trkpt lat="43.5509194" lon="11.3979232"><ele>754.6666666666666</ele><time>2026-04-19T09:37:20.168Z</time></trkpt><trkpt lat="43.5507672" lon="11.3980423"><ele>756.0</ele><time>2026-04-19T09:37:21.178Z</time></trkpt><trkpt lat="43.5506277" lon="11.3981573"><ele>754.1999999999999</ele><time>2026-04-19T09:37:22.161Z</time></trkpt><trkpt lat="43.5505067" lon="11.3982546"><ele>752.4</ele><time>2026-04-19T09:37:23.187Z</time></trkpt><trkpt lat="43.5504042" lon="11.3983309"><ele>750.6</ele><time>2026-04-19T09:37:24.185Z</time></trkpt><trkpt lat="43.5503123" lon="11.398379"><ele>748.8</ele><time>2026-04-19T09:37:25.177Z</time></trkpt><trkpt lat="43.5502197" lon="11.3983996"><ele>747.0</ele><time>2026-04-19T09:37:26.177Z</time></trkpt><trkpt lat="43.5501165" lon="11.398381"><ele>746.5</ele><time>2026-04-19T09:37:27.171Z</time></trkpt><trkpt lat="43.5500147" lon="11.3983418"><ele>746.0</ele><time>2026-04-19T09:37:28.191Z</time></trkpt><trkpt lat="43.5498975" lon="11.3982745"><ele>745.5</ele><time>2026-04-19T09:37:29.171Z</time></trkpt><trkpt lat="43.5497577" lon="11.3982125"><ele>745.0</ele><time>2026-04-19T09:37:30.179Z</time></trkpt><trkpt lat="43.549614" lon="11.3981481"><ele>744.0</ele><time>2026-04-19T09:37:31.173Z</time></trkpt><trkpt lat="43.5494677" lon="11.3980813"><ele>743.0</ele><time>2026-04-19T09:37:32.164Z</time></trkpt><trkpt lat="43.549323" lon="11.3980122"><ele>742.0</ele><time>2026-04-19T09:37:33.155Z</time></trkpt><trkpt lat="43.5491707" lon="11.3979428"><ele>742.0</ele><time>2026-04-19T09:37:34.164Z</time></trkpt><trkpt lat="43.5490263" lon="11.3978701"><ele>742.0</ele><time>2026-04-19T09:37:35.173Z</time></trkpt><trkpt lat="43.548874" lon="11.3977965"><ele>742.0</ele><time>2026-04-19T09:37:36.168Z</time></trkpt><trkpt lat="43.5487238" lon="11.39773"><ele>739.25</ele><time>2026-04-19T09:37:37.18Z</time></trkpt><trkpt lat="43.5485799" lon="11.3976695"><ele>736.5</ele><time>2026-04-19T09:37:38.166Z</time></trkpt><trkpt lat="43.5484412" lon="11.3976096"><ele>733.75</ele><time>2026-04-19T09:37:39.172Z</time></trkpt><trkpt lat="43.5483045" lon="11.3975709"><ele>731.0</ele><time>2026-04-19T09:37:40.173Z</time></trkpt><trkpt lat="43.5481679" lon="11.3975621"><ele>731.0</ele><time>2026-04-19T09:37:41.169Z</time></trkpt><trkpt lat="43.5480284" lon="11.3975611"><ele>731.0</ele><time>2026-04-19T09:37:42.176Z</time></trkpt><trkpt lat="43.5478949" lon="11.3975569"><ele>731.0</ele><time>2026-04-19T09:37:43.172Z</time></trkpt><trkpt lat="43.5477601" lon="11.3975503"><ele>731.0</ele><time>2026-04-19T09:37:44.169Z</time></trkpt><trkpt lat="43.5476265" lon="11.397538"><ele>728.25</ele><time>2026-04-19T09:37:45.178Z</time></trkpt><trkpt lat="43.5474897" lon="11.3975247"><ele>725.5</ele><time>2026-04-19T09:37:46.175Z</time></trkpt><trkpt lat="43.5473613" lon="11.3974944"><ele>722.75</ele><time>2026-04-19T09:37:47.169Z</time></trkpt><trkpt lat="43.5472399" lon="11.3974601"><ele>720.0</ele><time>2026-04-19T09:37:48.174Z</time></trkpt><trkpt lat="43.5471227" lon="11.3974273"><ele>717.4</ele><time>2026-04-19T09:37:49.181Z</time></trkpt><trkpt lat="43.5470034" lon="11.3974058"><ele>714.8</ele><time>2026-04-19T09:37:50.187Z</time></trkpt><trkpt lat="43.5468933" lon="11.3973917"><ele>712.2</ele><time>2026-04-19T09:37:51.199Z</time></trkpt><trkpt lat="43.5467822" lon="11.3974014"><ele>709.6</ele><time>2026-04-19T09:37:52.177Z</time></trkpt><trkpt lat="43.5466919" lon="11.3974577"><ele>707.0</ele><time>2026-04-19T09:37:53.179Z</time></trkpt><trkpt lat="43.5466336" lon="11.3975739"><ele>707.0</ele><time>2026-04-19T09:37:54.178Z</time></trkpt><trkpt lat="43.5466134" lon="11.3977177"><ele>707.0</ele><time>2026-04-19T09:37:55.171Z</time></trkpt><trkpt lat="43.546647" lon="11.3978621"><ele>707.0</ele><time>2026-04-19T09:37:56.174Z</time></trkpt><trkpt lat="43.5466954" lon="11.3979993"><ele>707.0</ele><time>2026-04-19T09:37:57.179Z</time></trkpt><trkpt lat="43.5467772" lon="11.3981297"><ele>705.75</ele><time>2026-04-19T09:37:58.171Z</time></trkpt><trkpt lat="43.5468672" lon="11.3982586"><ele>704.5</ele><time>2026-04-19T09:37:59.173Z</time></trkpt><trkpt lat="43.5469681" lon="11.3984096"><ele>703.25</ele><time>2026-04-19T09:38:00.169Z</time></trkpt><trkpt lat="43.54707" lon="11.3985723"><ele>702.0</ele><time>2026-04-19T09:38:01.176Z</time></trkpt><trkpt lat="43.5471704" lon="11.3987591"><ele>705.3333333333334</ele><time>2026-04-19T09:38:02.173Z</time></trkpt><trkpt lat="43.5472668" lon="11.3989621"><ele>708.6666666666667</ele><time>2026-04-19T09:38:03.184Z</time></trkpt><trkpt lat="43.5473688" lon="11.3991777"><ele>712.0</ele><time>2026-04-19T09:38:04.171Z</time></trkpt><trkpt lat="43.5474686" lon="11.3993984"><ele>712.0</ele><time>2026-04-19T09:38:05.179Z</time></trkpt><trkpt lat="43.5475693" lon="11.3996214"><ele>712.0</ele><time>2026-04-19T09:38:06.177Z</time></trkpt><trkpt lat="43.547671" lon="11.3998501"><ele>712.0</ele><time>2026-04-19T09:38:07.162Z</time></trkpt><trkpt lat="43.5477713" lon="11.4000755"><ele>712.6666666666667</ele><time>2026-04-19T09:38:08.181Z</time></trkpt><trkpt lat="43.5478695" lon="11.4002949"><ele>713.3333333333334</ele><time>2026-04-19T09:38:09.171Z</time></trkpt><trkpt lat="43.5479647" lon="11.4004987"><ele>714.0</ele><time>2026-04-19T09:38:10.175Z</time></trkpt><trkpt lat="43.5480482" lon="11.400701"><ele>714.0</ele><time>2026-04-19T09:38:11.174Z</time></trkpt><trkpt lat="43.5481107" lon="11.4008937"><ele>714.0</ele><time>2026-04-19T09:38:12.174Z</time></trkpt><trkpt lat="43.5481563" lon="11.4010812"><ele>714.0</ele><time>2026-04-19T09:38:13.175Z</time></trkpt><trkpt lat="43.5481895" lon="11.4012641"><ele>714.0</ele><time>2026-04-19T09:38:14.174Z</time></trkpt><trkpt lat="43.5481913" lon="11.4014558"><ele>712.6666666666666</ele><time>2026-04-19T09:38:15.175Z</time></trkpt><trkpt lat="43.5481693" lon="11.4016628"><ele>711.3333333333333</ele><time>2026-04-19T09:38:16.171Z</time></trkpt><trkpt lat="43.5481478" lon="11.4018652"><ele>710.0</ele><time>2026-04-19T09:38:17.168Z</time></trkpt><trkpt lat="43.5481479" lon="11.4020795"><ele>708.75</ele><time>2026-04-19T09:38:18.176Z</time></trkpt><trkpt lat="43.5481743" lon="11.40228"><ele>707.5</ele><time>2026-04-19T09:38:19.171Z</time></trkpt><trkpt lat="43.5482108" lon="11.4024707"><ele>706.25</ele><time>2026-04-19T09:38:20.175Z</time></trkpt><trkpt lat="43.5482549" lon="11.4026686"><ele>705.0</ele><time>2026-04-19T09:38:21.178Z</time></trkpt><trkpt lat="43.5482687" lon="11.4028569"><ele>706.25</ele><time>2026-04-19T09:38:22.168Z</time></trkpt><trkpt lat="43.5482447" lon="11.4030593"><ele>707.5</ele><time>2026-04-19T09:38:23.159Z</time></trkpt><trkpt lat="43.5482047" lon="11.4032366"><ele>708.75</ele><time>2026-04-19T09:38:24.175Z</time></trkpt><trkpt lat="43.5480896" lon="11.4033435"><ele>710.0</ele><time>2026-04-19T09:38:25.174Z</time></trkpt><trkpt lat="43.5479382" lon="11.4034118"><ele>706.3333333333333</ele><time>2026-04-19T09:38:26.17Z</time></trkpt><trkpt lat="43.5477856" lon="11.4034886"><ele>702.6666666666666</ele><time>2026-04-19T09:38:27.169Z</time></trkpt><trkpt lat="43.5476115" lon="11.403571"><ele>699.0</ele><time>2026-04-19T09:38:28.177Z</time></trkpt><trkpt lat="43.5474632" lon="11.4036421"><ele>699.0</ele><time>2026-04-19T09:38:29.168Z</time></trkpt><trkpt lat="43.5473341" lon="11.4037275"><ele>699.0</ele><time>2026-04-19T09:38:30.173Z</time></trkpt><trkpt lat="43.5472237" lon="11.4038499"><ele>699.0</ele><time>2026-04-19T09:38:31.174Z</time></trkpt><trkpt lat="43.5471346" lon="11.4040104"><ele>699.0</ele><time>2026-04-19T09:38:32.159Z</time></trkpt><trkpt lat="43.5470466" lon="11.4042007"><ele>698.6666666666666</ele><time>2026-04-19T09:38:33.17Z</time></trkpt><trkpt lat="43.5469557" lon="11.4043992"><ele>698.3333333333333</ele><time>2026-04-19T09:38:34.177Z</time></trkpt><trkpt lat="43.5468614" lon="11.4046097"><ele>698.0</ele><time>2026-04-19T09:38:35.18Z</time></trkpt><trkpt lat="43.5467622" lon="11.4048211"><ele>700.3333333333333</ele><time>2026-04-19T09:38:36.173Z</time></trkpt><trkpt lat="43.5466631" lon="11.4050379"><ele>702.6666666666666</ele><time>2026-04-19T09:38:37.167Z</time></trkpt><trkpt lat="43.5465609" lon="11.4052578"><ele>705.0</ele><time>2026-04-19T09:38:38.158Z</time></trkpt><trkpt lat="43.546463" lon="11.4054771"><ele>706.0</ele><time>2026-04-19T09:38:39.177Z</time></trkpt><trkpt lat="43.5463669" lon="11.4056866"><ele>707.0</ele><time>2026-04-19T09:38:40.181Z</time></trkpt><trkpt lat="43.5462675" lon="11.4058955"><ele>708.0</ele><time>2026-04-19T09:38:41.177Z</time></trkpt><trkpt lat="43.5461651" lon="11.4061046"><ele>702.6666666666666</ele><time>2026-04-19T09:38:42.176Z</time></trkpt><trkpt lat="43.546049" lon="11.406312"><ele>697.3333333333333</ele><time>2026-04-19T09:38:43.176Z</time></trkpt><trkpt lat="43.5459207" lon="11.4065229"><ele>692.0</ele><time>2026-04-19T09:38:44.178Z</time></trkpt><trkpt lat="43.5457675" lon="11.4067138"><ele>692.0</ele><time>2026-04-19T09:38:45.168Z</time></trkpt><trkpt lat="43.5456041" lon="11.4068909"><ele>692.0</ele><time>2026-04-19T09:38:46.179Z</time></trkpt><trkpt lat="43.5454295" lon="11.4070356"><ele>692.0</ele><time>2026-04-19T09:38:47.175Z</time></trkpt><trkpt lat="43.5452381" lon="11.4071507"><ele>693.0</ele><time>2026-04-19T09:38:48.18Z</time></trkpt><trkpt lat="43.54505" lon="11.4072567"><ele>694.0</ele><time>2026-04-19T09:38:49.176Z</time></trkpt><trkpt lat="43.5448655" lon="11.4073566"><ele>695.0</ele><time>2026-04-19T09:38:50.178Z</time></trkpt><trkpt lat="43.5446894" lon="11.4074516"><ele>694.6666666666666</ele><time>2026-04-19T09:38:51.184Z</time></trkpt><trkpt lat="43.5445147" lon="11.4075406"><ele>694.3333333333334</ele><time>2026-04-19T09:38:52.174Z</time></trkpt><trkpt lat="43.5443449" lon="11.4076293"><ele>694.0</ele><time>2026-04-19T09:38:53.182Z</time></trkpt><trkpt lat="43.5441783" lon="11.4077137"><ele>694.0</ele><time>2026-04-19T09:38:54.175Z</time></trkpt><trkpt lat="43.5440169" lon="11.4077952"><ele>694.0</ele><time>2026-04-19T09:38:55.173Z</time></trkpt><trkpt lat="43.5438558" lon="11.4078836"><ele>694.0</ele><time>2026-04-19T09:38:56.174Z</time></trkpt><trkpt lat="43.5436934" lon="11.4079767"><ele>690.3333333333334</ele><time>2026-04-19T09:38:57.173Z</time></trkpt><trkpt lat="43.5435211" lon="11.4080689"><ele>686.6666666666666</ele><time>2026-04-19T09:38:58.186Z</time></trkpt><trkpt lat="43.5433394" lon="11.4081732"><ele>683.0</ele><time>2026-04-19T09:38:59.165Z</time></trkpt><trkpt lat="43.5431573" lon="11.4082733"><ele>683.0</ele><time>2026-04-19T09:39:00.163Z</time></trkpt><trkpt lat="43.5429726" lon="11.4083582"><ele>683.0</ele><time>2026-04-19T09:39:01.184Z</time></trkpt><trkpt lat="43.5427775" lon="11.4084222"><ele>683.0</ele><time>2026-04-19T09:39:02.183Z</time></trkpt><trkpt lat="43.5425741" lon="11.4084546"><ele>680.6666666666666</ele><time>2026-04-19T09:39:03.182Z</time></trkpt><trkpt lat="43.5423656" lon="11.4084655"><ele>678.3333333333334</ele><time>2026-04-19T09:39:04.167Z</time></trkpt><trkpt lat="43.5421558" lon="11.4084548"><ele>676.0</ele><time>2026-04-19T09:39:05.173Z</time></trkpt><trkpt lat="43.5419428" lon="11.4084405"><ele>676.0</ele><time>2026-04-19T09:39:06.166Z</time></trkpt><trkpt lat="43.5417283" lon="11.4084284"><ele>676.0</ele><time>2026-04-19T09:39:07.176Z</time></trkpt><trkpt lat="43.5415187" lon="11.4084211"><ele>676.0</ele><time>2026-04-19T09:39:08.181Z</time></trkpt><trkpt lat="43.5413159" lon="11.4084172"><ele>680.6666666666667</ele><time>2026-04-19T09:39:09.171Z</time></trkpt><trkpt lat="43.541123" lon="11.408414"><ele>685.3333333333334</ele><time>2026-04-19T09:39:10.171Z</time></trkpt><trkpt lat="43.5409301" lon="11.4084155"><ele>690.0</ele><time>2026-04-19T09:39:11.154Z</time></trkpt><trkpt lat="43.5407426" lon="11.4084123"><ele>690.0</ele><time>2026-04-19T09:39:12.184Z</time></trkpt><trkpt lat="43.5405615" lon="11.4084097"><ele>690.0</ele><time>2026-04-19T09:39:13.183Z</time></trkpt><trkpt lat="43.5403824" lon="11.4084022"><ele>690.0</ele><time>2026-04-19T09:39:14.157Z</time></trkpt><trkpt lat="43.5402072" lon="11.4083976"><ele>693.0</ele><time>2026-04-19T09:39:15.153Z</time></trkpt><trkpt lat="43.5400368" lon="11.4083951"><ele>696.0</ele><time>2026-04-19T09:39:16.174Z</time></trkpt><trkpt lat="43.5398694" lon="11.4083896"><ele>699.0</ele><time>2026-04-19T09:39:17.16Z</time></trkpt><trkpt lat="43.5397179" lon="11.4083774"><ele>699.0</ele><time>2026-04-19T09:39:18.175Z</time></trkpt><trkpt lat="43.5395733" lon="11.4083695"><ele>699.0</ele><time>2026-04-19T09:39:19.177Z</time></trkpt><trkpt lat="43.5394344" lon="11.4083705"><ele>699.0</ele><time>2026-04-19T09:39:20.168Z</time></trkpt><trkpt lat="43.5393075" lon="11.4083918"><ele>699.0</ele><time>2026-04-19T09:39:21.178Z</time></trkpt><trkpt lat="43.5391951" lon="11.4084409"><ele>700.75</ele><time>2026-04-19T09:39:22.159Z</time></trkpt><trkpt lat="43.5391031" lon="11.4085335"><ele>702.5</ele><time>2026-04-19T09:39:23.172Z</time></trkpt><trkpt lat="43.5390194" lon="11.4086399"><ele>704.25</ele><time>2026-04-19T09:39:24.168Z</time></trkpt><trkpt lat="43.5389421" lon="11.4087629"><ele>706.0</ele><time>2026-04-19T09:39:25.167Z</time></trkpt><trkpt lat="43.5388741" lon="11.4089084"><ele>706.0</ele><time>2026-04-19T09:39:26.168Z</time></trkpt><trkpt lat="43.5388086" lon="11.4090583"><ele>706.0</ele><time>2026-04-19T09:39:27.172Z</time></trkpt><trkpt lat="43.5387385" lon="11.4092134"><ele>706.0</ele><time>2026-04-19T09:39:28.176Z</time></trkpt><trkpt lat="43.5386622" lon="11.4093731"><ele>706.0</ele><time>2026-04-19T09:39:29.181Z</time></trkpt><trkpt lat="43.5385933" lon="11.4095397"><ele>710.0</ele><time>2026-04-19T09:39:30.176Z</time></trkpt><trkpt lat="43.538523" lon="11.409708"><ele>714.0</ele><time>2026-04-19T09:39:31.15Z</time></trkpt><trkpt lat="43.5384587" lon="11.4098786"><ele>718.0</ele><time>2026-04-19T09:39:32.169Z</time></trkpt><trkpt lat="43.5383898" lon="11.4100391"><ele>722.0</ele><time>2026-04-19T09:39:33.175Z</time></trkpt><trkpt lat="43.5383167" lon="11.4101955"><ele>722.0</ele><time>2026-04-19T09:39:34.151Z</time></trkpt><trkpt lat="43.5382292" lon="11.4103379"><ele>722.0</ele><time>2026-04-19T09:39:35.157Z</time></trkpt><trkpt lat="43.5381282" lon="11.4104621"><ele>722.0</ele><time>2026-04-19T09:39:36.184Z</time></trkpt><trkpt lat="43.5380176" lon="11.4105694"><ele>722.0</ele><time>2026-04-19T09:39:37.164Z</time></trkpt><trkpt lat="43.5379039" lon="11.4106762"><ele>720.25</ele><time>2026-04-19T09:39:38.174Z</time></trkpt><trkpt lat="43.5377926" lon="11.4107654"><ele>718.5</ele><time>2026-04-19T09:39:39.163Z</time></trkpt><trkpt lat="43.5376672" lon="11.4108424"><ele>716.75</ele><time>2026-04-19T09:39:40.177Z</time></trkpt><trkpt lat="43.5375352" lon="11.4109274"><ele>715.0</ele><time>2026-04-19T09:39:41.176Z</time></trkpt><trkpt lat="43.5373967" lon="11.4109946"><ele>715.0</ele><time>2026-04-19T09:39:42.18Z</time></trkpt><trkpt lat="43.5372629" lon="11.4110377"><ele>715.0</ele><time>2026-04-19T09:39:43.175Z</time></trkpt><trkpt lat="43.5371297" lon="11.4110522"><ele>715.0</ele><time>2026-04-19T09:39:44.169Z</time></trkpt><trkpt lat="43.5370006" lon="11.4110231"><ele>715.0</ele><time>2026-04-19T09:39:45.156Z</time></trkpt><trkpt lat="43.5368678" lon="11.4109553"><ele>712.0</ele><time>2026-04-19T09:39:46.178Z</time></trkpt><trkpt lat="43.5367255" lon="11.4108793"><ele>709.0</ele><time>2026-04-19T09:39:47.174Z</time></trkpt><trkpt lat="43.5365798" lon="11.4108066"><ele>706.0</ele><time>2026-04-19T09:39:48.18Z</time></trkpt><trkpt lat="43.5364283" lon="11.410789"><ele>706.0</ele><time>2026-04-19T09:39:49.187Z</time></trkpt><trkpt lat="43.5362604" lon="11.4108294"><ele>706.0</ele><time>2026-04-19T09:39:50.162Z</time></trkpt><trkpt lat="43.5361007" lon="11.4109071"><ele>706.0</ele><time>2026-04-19T09:39:51.165Z</time></trkpt><trkpt lat="43.5359361" lon="11.4109809"><ele>704.3333333333334</ele><time>2026-04-19T09:39:52.18Z</time></trkpt><trkpt lat="43.5357738" lon="11.4110355"><ele>702.6666666666666</ele><time>2026-04-19T09:39:53.176Z</time></trkpt><trkpt lat="43.5356057" lon="11.4110915"><ele>701.0</ele><time>2026-04-19T09:39:54.17Z</time></trkpt><trkpt lat="43.5354367" lon="11.411153"><ele>702.3333333333333</ele><time>2026-04-19T09:39:55.178Z</time></trkpt><trkpt lat="43.5352606" lon="11.4112272"><ele>703.6666666666666</ele><time>2026-04-19T09:39:56.168Z</time></trkpt><trkpt lat="43.5350921" lon="11.4113272"><ele>705.0</ele><time>2026-04-19T09:39:57.163Z</time></trkpt><trkpt lat="43.5349336" lon="11.4114435"><ele>705.0</ele><time>2026-04-19T09:39:58.183Z</time></trkpt><trkpt lat="43.5347902" lon="11.4115536"><ele>705.0</ele><time>2026-04-19T09:39:59.178Z</time></trkpt><trkpt lat="43.5346515" lon="11.4116332"><ele>705.0</ele><time>2026-04-19T09:40:00.181Z</time></trkpt><trkpt lat="43.5345212" lon="11.4116686"><ele>705.0</ele><time>2026-04-19T09:40:01.172Z</time></trkpt><trkpt lat="43.534406" lon="11.4116507"><ele>707.0</ele><time>2026-04-19T09:40:02.173Z</time></trkpt><trkpt lat="43.5342959" lon="11.4115762"><ele>709.0</ele><time>2026-04-19T09:40:03.17Z</time></trkpt><trkpt lat="43.5341954" lon="11.411465"><ele>711.0</ele><time>2026-04-19T09:40:04.174Z</time></trkpt><trkpt lat="43.5340903" lon="11.4113646"><ele>713.0</ele><time>2026-04-19T09:40:05.187Z</time></trkpt><trkpt lat="43.5339684" lon="11.4112915"><ele>709.3333333333333</ele><time>2026-04-19T09:40:06.175Z</time></trkpt><trkpt lat="43.5338291" lon="11.4112237"><ele>705.6666666666666</ele><time>2026-04-19T09:40:07.181Z</time></trkpt><trkpt lat="43.5336747" lon="11.4111569"><ele>702.0</ele><time>2026-04-19T09:40:08.156Z</time></trkpt><trkpt lat="43.5335169" lon="11.4110857"><ele>702.0</ele><time>2026-04-19T09:40:09.159Z</time></trkpt><trkpt lat="43.5333541" lon="11.4110139"><ele>702.0</ele><time>2026-04-19T09:40:10.174Z</time></trkpt><trkpt lat="43.5331937" lon="11.4109451"><ele>702.0</ele><time>2026-04-19T09:40:11.176Z</time></trkpt><trkpt lat="43.53304" lon="11.4108866"><ele>702.0</ele><time>2026-04-19T09:40:12.175Z</time></trkpt><trkpt lat="43.5328983" lon="11.4108527"><ele>702.0</ele><time>2026-04-19T09:40:13.17Z</time></trkpt><trkpt lat="43.5327623" lon="11.4108459"><ele>702.0</ele><time>2026-04-19T09:40:14.167Z</time></trkpt><trkpt lat="43.5326326" lon="11.4108828"><ele>702.0</ele><time>2026-04-19T09:40:15.173Z</time></trkpt><trkpt lat="43.5325103" lon="11.4109621"><ele>703.0</ele><time>2026-04-19T09:40:16.175Z</time></trkpt><trkpt lat="43.5323831" lon="11.4110564"><ele>704.0</ele><time>2026-04-19T09:40:17.175Z</time></trkpt><trkpt lat="43.532229" lon="11.4111602"><ele>705.0</ele><time>2026-04-19T09:40:18.179Z</time></trkpt><trkpt lat="43.5320734" lon="11.4112748"><ele>704.3333333333334</ele><time>2026-04-19T09:40:19.19Z</time></trkpt><trkpt lat="43.5319187" lon="11.4114171"><ele>703.6666666666667</ele><time>2026-04-19T09:40:20.176Z</time></trkpt><trkpt lat="43.5317653" lon="11.4115814"><ele>703.0</ele><time>2026-04-19T09:40:21.156Z</time></trkpt><trkpt lat="43.5316149" lon="11.4117606"><ele>703.0</ele><time>2026-04-19T09:40:22.181Z</time></trkpt><trkpt lat="43.5314641" lon="11.4119538"><ele>703.0</ele><time>2026-04-19T09:40:23.177Z</time></trkpt><trkpt lat="43.5313072" lon="11.4121397"><ele>703.0</ele><time>2026-04-19T09:40:24.178Z</time></trkpt><trkpt lat="43.531151" lon="11.4123136"><ele>703.0</ele><time>2026-04-19T09:40:25.165Z</time></trkpt><trkpt lat="43.5310086" lon="11.4124647"><ele>703.0</ele><time>2026-04-19T09:40:26.185Z</time></trkpt><trkpt lat="43.5308797" lon="11.4125888"><ele>703.0</ele><time>2026-04-19T09:40:27.182Z</time></trkpt><trkpt lat="43.5307534" lon="11.4126773"><ele>703.0</ele><time>2026-04-19T09:40:28.186Z</time></trkpt><trkpt lat="43.5306264" lon="11.4127317"><ele>703.0</ele><time>2026-04-19T09:40:29.171Z</time></trkpt><trkpt lat="43.5305067" lon="11.4127424"><ele>703.0</ele><time>2026-04-19T09:40:30.178Z</time></trkpt><trkpt lat="43.5303684" lon="11.4126882"><ele>703.0</ele><time>2026-04-19T09:40:31.185Z</time></trkpt><trkpt lat="43.5302171" lon="11.4125788"><ele>703.6666666666667</ele><time>2026-04-19T09:40:32.155Z</time></trkpt><trkpt lat="43.5300713" lon="11.4124534"><ele>704.3333333333334</ele><time>2026-04-19T09:40:33.181Z</time></trkpt><trkpt lat="43.5299317" lon="11.412327"><ele>705.0</ele><time>2026-04-19T09:40:34.176Z</time></trkpt><trkpt lat="43.529803" lon="11.4122244"><ele>705.0</ele><time>2026-04-19T09:40:35.166Z</time></trkpt><trkpt lat="43.5296809" lon="11.4121886"><ele>705.0</ele><time>2026-04-19T09:40:36.173Z</time></trkpt><trkpt lat="43.5295534" lon="11.412208"><ele>705.0</ele><time>2026-04-19T09:40:37.184Z</time></trkpt><trkpt lat="43.52943" lon="11.4122423"><ele>705.0</ele><time>2026-04-19T09:40:38.177Z</time></trkpt><trkpt lat="43.5293157" lon="11.412265"><ele>705.75</ele><time>2026-04-19T09:40:39.172Z</time></trkpt><trkpt lat="43.5291959" lon="11.4122145"><ele>706.5</ele><time>2026-04-19T09:40:40.18Z</time></trkpt><trkpt lat="43.5291026" lon="11.4120612"><ele>707.25</ele><time>2026-04-19T09:40:41.166Z</time></trkpt><trkpt lat="43.5290322" lon="11.4118612"><ele>708.0</ele><time>2026-04-19T09:40:42.185Z</time></trkpt><trkpt lat="43.5289661" lon="11.4116794"><ele>704.5</ele><time>2026-04-19T09:40:43.17Z</time></trkpt><trkpt lat="43.5289017" lon="11.4115258"><ele>701.0</ele><time>2026-04-19T09:40:44.168Z</time></trkpt><trkpt lat="43.5288216" lon="11.4113994"><ele>697.5</ele><time>2026-04-19T09:40:45.169Z</time></trkpt><trkpt lat="43.5287314" lon="11.4113196"><ele>694.0</ele><time>2026-04-19T09:40:46.167Z</time></trkpt><trkpt lat="43.5285878" lon="11.4112708"><ele>689.6666666666667</ele><time>2026-04-19T09:40:47.172Z</time></trkpt><trkpt lat="43.5284078" lon="11.4112569"><ele>685.3333333333334</ele><time>2026-04-19T09:40:48.184Z</time></trkpt><trkpt lat="43.5282202" lon="11.4112587"><ele>681.0</ele><time>2026-04-19T09:40:49.186Z</time></trkpt><trkpt lat="43.5280293" lon="11.41128"><ele>681.5</ele><time>2026-04-19T09:40:50.168Z</time></trkpt><trkpt lat="43.5278546" lon="11.411309"><ele>682.0</ele><time>2026-04-19T09:40:51.18Z</time></trkpt><trkpt lat="43.5277174" lon="11.4113481"><ele>682.5</ele><time>2026-04-19T09:40:52.172Z</time></trkpt><trkpt lat="43.5275999" lon="11.4113681"><ele>683.0</ele><time>2026-04-19T09:40:53.171Z</time></trkpt><trkpt lat="43.527496" lon="11.4113444"><ele>680.75</ele><time>2026-04-19T09:40:54.168Z</time></trkpt><trkpt lat="43.5273976" lon="11.4112435"><ele>678.5</ele><time>2026-04-19T09:40:55.174Z</time></trkpt><trkpt lat="43.5273073" lon="11.4110718"><ele>676.25</ele><time>2026-04-19T09:40:56.18Z</time></trkpt><trkpt lat="43.5271959" lon="11.4109229"><ele>674.0</ele><time>2026-04-19T09:40:57.174Z</time></trkpt><trkpt lat="43.5270594" lon="11.410804"><ele>674.0</ele><time>2026-04-19T09:40:58.176Z</time></trkpt><trkpt lat="43.5269105" lon="11.4107205"><ele>674.0</ele><time>2026-04-19T09:40:59.187Z</time></trkpt><trkpt lat="43.5267808" lon="11.4106388"><ele>674.0</ele><time>2026-04-19T09:41:00.176Z</time></trkpt><trkpt lat="43.5266748" lon="11.4105389"><ele>674.0</ele><time>2026-04-19T09:41:01.17Z</time></trkpt><trkpt lat="43.526565" lon="11.4104192"><ele>674.0</ele><time>2026-04-19T09:41:02.171Z</time></trkpt><trkpt lat="43.5264701" lon="11.4102448"><ele>674.0</ele><time>2026-04-19T09:41:03.172Z</time></trkpt><trkpt lat="43.5263846" lon="11.4100156"><ele>674.0</ele><time>2026-04-19T09:41:04.17Z</time></trkpt><trkpt lat="43.5262941" lon="11.4097714"><ele>670.6666666666666</ele><time>2026-04-19T09:41:05.174Z</time></trkpt><trkpt lat="43.5262094" lon="11.4095163"><ele>667.3333333333334</ele><time>2026-04-19T09:41:06.172Z</time></trkpt><trkpt lat="43.526125" lon="11.4092723"><ele>664.0</ele><time>2026-04-19T09:41:07.163Z</time></trkpt><trkpt lat="43.5260378" lon="11.4090485"><ele>664.3333333333334</ele><time>2026-04-19T09:41:08.179Z</time></trkpt><trkpt lat="43.525942" lon="11.4088259"><ele>664.6666666666666</ele><time>2026-04-19T09:41:09.166Z</time></trkpt><trkpt lat="43.5258179" lon="11.4086325"><ele>665.0</ele><time>2026-04-19T09:41:10.173Z</time></trkpt><trkpt lat="43.5256815" lon="11.4084697"><ele>665.0</ele><time>2026-04-19T09:41:11.176Z</time></trkpt><trkpt lat="43.5255552" lon="11.4083212"><ele>665.0</ele><time>2026-04-19T09:41:12.173Z</time></trkpt><trkpt lat="43.5254397" lon="11.4081389"><ele>665.0</ele><time>2026-04-19T09:41:13.179Z</time></trkpt><trkpt lat="43.5253643" lon="11.4079002"><ele>663.3333333333333</ele><time>2026-04-19T09:41:14.169Z</time></trkpt><trkpt lat="43.5253074" lon="11.407649"><ele>661.6666666666666</ele><time>2026-04-19T09:41:15.172Z</time></trkpt><trkpt lat="43.5252399" lon="11.4074115"><ele>660.0</ele><time>2026-04-19T09:41:16.158Z</time></trkpt><trkpt lat="43.5251568" lon="11.4072016"><ele>661.3333333333334</ele><time>2026-04-19T09:41:17.172Z</time></trkpt><trkpt lat="43.5250615" lon="11.4069951"><ele>662.6666666666667</ele><time>2026-04-19T09:41:18.17Z</time></trkpt><trkpt lat="43.5249394" lon="11.4068052"><ele>664.0</ele><time>2026-04-19T09:41:19.183Z</time></trkpt><trkpt lat="43.5247701" lon="11.4066507"><ele>664.0</ele><time>2026-04-19T09:41:20.182Z</time></trkpt><trkpt lat="43.5245998" lon="11.406524"><ele>664.0</ele><time>2026-04-19T09:41:21.177Z</time></trkpt><trkpt lat="43.5244422" lon="11.4063962"><ele>664.0</ele><time>2026-04-19T09:41:22.178Z</time></trkpt><trkpt lat="43.5242811" lon="11.4062381"><ele>659.6666666666667</ele><time>2026-04-19T09:41:23.181Z</time></trkpt><trkpt lat="43.5241177" lon="11.4060605"><ele>655.3333333333334</ele><time>2026-04-19T09:41:24.178Z</time></trkpt><trkpt lat="43.52397" lon="11.4058687"><ele>651.0</ele><time>2026-04-19T09:41:25.162Z</time></trkpt><trkpt lat="43.5238273" lon="11.4056804"><ele>652.3333333333334</ele><time>2026-04-19T09:41:26.184Z</time></trkpt><trkpt lat="43.5236975" lon="11.4055035"><ele>653.6666666666667</ele><time>2026-04-19T09:41:27.179Z</time></trkpt><trkpt lat="43.5235581" lon="11.4053456"><ele>655.0</ele><time>2026-04-19T09:41:28.176Z</time></trkpt><trkpt lat="43.5233967" lon="11.4052477"><ele>655.0</ele><time>2026-04-19T09:41:29.176Z</time></trkpt><trkpt lat="43.5232162" lon="11.4051806"><ele>655.0</ele><time>2026-04-19T09:41:30.174Z</time></trkpt><trkpt lat="43.5230425" lon="11.4051323"><ele>655.0</ele><time>2026-04-19T09:41:31.181Z</time></trkpt><trkpt lat="43.5228923" lon="11.4050931"><ele>650.0</ele><time>2026-04-19T09:41:32.171Z</time></trkpt><trkpt lat="43.5227634" lon="11.4050246"><ele>645.0</ele><time>2026-04-19T09:41:33.163Z</time></trkpt><trkpt lat="43.5226459" lon="11.404879"><ele>640.0</ele><time>2026-04-19T09:41:34.176Z</time></trkpt><trkpt lat="43.5225218" lon="11.4047117"><ele>638.3333333333334</ele><time>2026-04-19T09:41:35.159Z</time></trkpt><trkpt lat="43.522373" lon="11.4045695"><ele>636.6666666666666</ele><time>2026-04-19T09:41:36.179Z</time></trkpt><trkpt lat="43.5222185" lon="11.4044689"><ele>635.0</ele><time>2026-04-19T09:41:37.168Z</time></trkpt><trkpt lat="43.5220515" lon="11.4044188"><ele>635.0</ele><time>2026-04-19T09:41:38.172Z</time></trkpt><trkpt lat="43.5218592" lon="11.4043982"><ele>635.0</ele><time>2026-04-19T09:41:39.174Z</time></trkpt><trkpt lat="43.521668" lon="11.404385"><ele>635.0</ele><time>2026-04-19T09:41:40.177Z</time></trkpt><trkpt lat="43.5214744" lon="11.4043541"><ele>635.0</ele><time>2026-04-19T09:41:41.172Z</time></trkpt><trkpt lat="43.5212773" lon="11.404313"><ele>635.0</ele><time>2026-04-19T09:41:42.177Z</time></trkpt><trkpt lat="43.5210754" lon="11.4042647"><ele>635.0</ele><time>2026-04-19T09:41:43.164Z</time></trkpt><trkpt lat="43.520876" lon="11.4042124"><ele>631.0</ele><time>2026-04-19T09:41:44.173Z</time></trkpt><trkpt lat="43.5206732" lon="11.4041481"><ele>627.0</ele><time>2026-04-19T09:41:45.168Z</time></trkpt><trkpt lat="43.5204726" lon="11.4040698"><ele>623.0</ele><time>2026-04-19T09:41:46.171Z</time></trkpt><trkpt lat="43.5202755" lon="11.4039912"><ele>622.0</ele><time>2026-04-19T09:41:47.162Z</time></trkpt><trkpt lat="43.520082" lon="11.4039163"><ele>621.0</ele><time>2026-04-19T09:41:48.171Z</time></trkpt><trkpt lat="43.5198892" lon="11.4038538"><ele>620.0</ele><time>2026-04-19T09:41:49.17Z</time></trkpt><trkpt lat="43.5197178" lon="11.4038045"><ele>617.3333333333333</ele><time>2026-04-19T09:41:50.177Z</time></trkpt><trkpt lat="43.5195508" lon="11.403776"><ele>614.6666666666666</ele><time>2026-04-19T09:41:51.184Z</time></trkpt><trkpt lat="43.5193899" lon="11.4037577"><ele>612.0</ele><time>2026-04-19T09:41:52.173Z</time></trkpt><trkpt lat="43.5192393" lon="11.4037622"><ele>612.0</ele><time>2026-04-19T09:41:53.17Z</time></trkpt><trkpt lat="43.5190826" lon="11.4037826"><ele>612.0</ele><time>2026-04-19T09:41:54.176Z</time></trkpt><trkpt lat="43.5189108" lon="11.4038311"><ele>612.0</ele><time>2026-04-19T09:41:55.172Z</time></trkpt><trkpt lat="43.5187239" lon="11.4039"><ele>605.6666666666666</ele><time>2026-04-19T09:41:56.178Z</time></trkpt><trkpt lat="43.5185267" lon="11.4039694"><ele>599.3333333333333</ele><time>2026-04-19T09:41:57.174Z</time></trkpt><trkpt lat="43.5183168" lon="11.4040523"><ele>593.0</ele><time>2026-04-19T09:41:58.175Z</time></trkpt><trkpt lat="43.5181021" lon="11.4041234"><ele>588.6666666666666</ele><time>2026-04-19T09:41:59.183Z</time></trkpt><trkpt lat="43.5178984" lon="11.4041844"><ele>584.3333333333334</ele><time>2026-04-19T09:42:00.177Z</time></trkpt><trkpt lat="43.5177246" lon="11.4042353"><ele>580.0</ele><time>2026-04-19T09:42:01.176Z</time></trkpt><trkpt lat="43.5175792" lon="11.4042917"><ele>580.0</ele><time>2026-04-19T09:42:02.176Z</time></trkpt><trkpt lat="43.51745" lon="11.4043401"><ele>580.0</ele><time>2026-04-19T09:42:03.182Z</time></trkpt><trkpt lat="43.5173352" lon="11.4043996"><ele>580.0</ele><time>2026-04-19T09:42:04.178Z</time></trkpt><trkpt lat="43.5172249" lon="11.4044643"><ele>580.0</ele><time>2026-04-19T09:42:05.18Z</time></trkpt><trkpt lat="43.5171153" lon="11.4045356"><ele>577.2</ele><time>2026-04-19T09:42:06.179Z</time></trkpt><trkpt lat="43.5170071" lon="11.4046143"><ele>574.4</ele><time>2026-04-19T09:42:07.175Z</time></trkpt><trkpt lat="43.5169105" lon="11.4046834"><ele>571.6</ele><time>2026-04-19T09:42:08.174Z</time></trkpt><trkpt lat="43.5168319" lon="11.404749"><ele>568.8</ele><time>2026-04-19T09:42:09.177Z</time></trkpt><trkpt lat="43.5167824" lon="11.4048283"><ele>566.0</ele><time>2026-04-19T09:42:10.186Z</time></trkpt><trkpt lat="43.516772" lon="11.4049367"><ele>566.0</ele><time>2026-04-19T09:42:11.169Z</time></trkpt><trkpt lat="43.5167956" lon="11.4050829"><ele>566.0</ele><time>2026-04-19T09:42:12.166Z</time></trkpt><trkpt lat="43.5168287" lon="11.4052232"><ele>566.0</ele><time>2026-04-19T09:42:13.176Z</time></trkpt><trkpt lat="43.5168455" lon="11.4053442"><ele>566.0</ele><time>2026-04-19T09:42:14.172Z</time></trkpt><trkpt lat="43.5168123" lon="11.4054592"><ele>566.0</ele><time>2026-04-19T09:42:15.169Z</time></trkpt><trkpt lat="43.516735" lon="11.4055459"><ele>564.0</ele><time>2026-04-19T09:42:16.168Z</time></trkpt><trkpt lat="43.5166223" lon="11.4055816"><ele>562.0</ele><time>2026-04-19T09:42:17.175Z</time></trkpt><trkpt lat="43.516486" lon="11.4055883"><ele>560.0</ele><time>2026-04-19T09:42:18.174Z</time></trkpt><trkpt lat="43.5163448" lon="11.4055676"><ele>558.0</ele><time>2026-04-19T09:42:19.172Z</time></trkpt><trkpt lat="43.5162241" lon="11.4055328"><ele>556.3333333333334</ele><time>2026-04-19T09:42:20.171Z</time></trkpt><trkpt lat="43.5161243" lon="11.4055041"><ele>554.6666666666666</ele><time>2026-04-19T09:42:21.182Z</time></trkpt><trkpt lat="43.5160435" lon="11.4055347"><ele>553.0</ele><time>2026-04-19T09:42:22.177Z</time></trkpt><trkpt lat="43.5159798" lon="11.4056095"><ele>551.3333333333333</ele><time>2026-04-19T09:42:23.174Z</time></trkpt><trkpt lat="43.5159415" lon="11.4057203"><ele>549.6666666666666</ele><time>2026-04-19T09:42:24.174Z</time></trkpt><trkpt lat="43.5159242" lon="11.4058339"><ele>548.0</ele><time>2026-04-19T09:42:25.182Z</time></trkpt><trkpt lat="43.5159146" lon="11.4059729"><ele>548.0</ele><time>2026-04-19T09:42:26.175Z</time></trkpt><trkpt lat="43.5158858" lon="11.4061189"><ele>548.0</ele><time>2026-04-19T09:42:27.179Z</time></trkpt><trkpt lat="43.5158193" lon="11.4062405"><ele>548.0</ele><time>2026-04-19T09:42:28.183Z</time></trkpt><trkpt lat="43.5157242" lon="11.4063229"><ele>548.0</ele><time>2026-04-19T09:42:29.173Z</time></trkpt><trkpt lat="43.5155837" lon="11.4063295"><ele>548.0</ele><time>2026-04-19T09:42:30.186Z</time></trkpt><trkpt lat="43.5154165" lon="11.4062945"><ele>548.0</ele><time>2026-04-19T09:42:31.154Z</time></trkpt><trkpt lat="43.5152439" lon="11.4062663"><ele>548.0</ele><time>2026-04-19T09:42:32.178Z</time></trkpt><trkpt lat="43.5150912" lon="11.4062758"><ele>541.3333333333333</ele><time>2026-04-19T09:42:33.175Z</time></trkpt><trkpt lat="43.5149438" lon="11.4063491"><ele>534.6666666666666</ele><time>2026-04-19T09:42:34.175Z</time></trkpt><trkpt lat="43.5148057" lon="11.4064707"><ele>528.0</ele><time>2026-04-19T09:42:35.169Z</time></trkpt><trkpt lat="43.5146667" lon="11.4066273"><ele>524.6666666666666</ele><time>2026-04-19T09:42:36.178Z</time></trkpt><trkpt lat="43.5145086" lon="11.4067974"><ele>521.3333333333333</ele><time>2026-04-19T09:42:37.176Z</time></trkpt><trkpt lat="43.5143541" lon="11.4069706"><ele>518.0</ele><time>2026-04-19T09:42:38.17Z</time></trkpt><trkpt lat="43.5142027" lon="11.4071295"><ele>517.6666666666666</ele><time>2026-04-19T09:42:39.183Z</time></trkpt><trkpt lat="43.5140608" lon="11.4072528"><ele>517.3333333333334</ele><time>2026-04-19T09:42:40.159Z</time></trkpt><trkpt lat="43.5139133" lon="11.4073347"><ele>517.0</ele><time>2026-04-19T09:42:41.162Z</time></trkpt><trkpt lat="43.513759" lon="11.4073754"><ele>514.6666666666667</ele><time>2026-04-19T09:42:42.177Z</time></trkpt><trkpt lat="43.5136001" lon="11.4073995"><ele>512.3333333333334</ele><time>2026-04-19T09:42:43.175Z</time></trkpt><trkpt lat="43.513439" lon="11.4073954"><ele>510.0</ele><time>2026-04-19T09:42:44.17Z</time></trkpt><trkpt lat="43.5132719" lon="11.4073461"><ele>510.0</ele><time>2026-04-19T09:42:45.175Z</time></trkpt><trkpt lat="43.5130937" lon="11.4072597"><ele>510.0</ele><time>2026-04-19T09:42:46.183Z</time></trkpt><trkpt lat="43.5129352" lon="11.4071778"><ele>510.0</ele><time>2026-04-19T09:42:47.178Z</time></trkpt><trkpt lat="43.5128137" lon="11.4071165"><ele>507.6</ele><time>2026-04-19T09:42:48.173Z</time></trkpt><trkpt lat="43.5127184" lon="11.4070821"><ele>505.2</ele><time>2026-04-19T09:42:49.174Z</time></trkpt><trkpt lat="43.5126335" lon="11.4070797"><ele>502.79999999999995</ele><time>2026-04-19T09:42:50.163Z</time></trkpt><trkpt lat="43.5125548" lon="11.4071351"><ele>500.4</ele><time>2026-04-19T09:42:51.172Z</time></trkpt><trkpt lat="43.5125074" lon="11.4072652"><ele>498.0</ele><time>2026-04-19T09:42:52.168Z</time></trkpt><trkpt lat="43.5125007" lon="11.4074404"><ele>498.0</ele><time>2026-04-19T09:42:53.173Z</time></trkpt><trkpt lat="43.512511" lon="11.4076262"><ele>497.99999999999994</ele><time>2026-04-19T09:42:54.179Z</time></trkpt><trkpt lat="43.5125157" lon="11.4077964"><ele>497.99999999999994</ele><time>2026-04-19T09:42:55.18Z</time></trkpt><trkpt lat="43.5125109" lon="11.4079332"><ele>498.0</ele><time>2026-04-19T09:42:56.163Z</time></trkpt><trkpt lat="43.5124931" lon="11.408036"><ele>498.0</ele><time>2026-04-19T09:42:57.183Z</time></trkpt><trkpt lat="43.5124408" lon="11.4080856"><ele>498.0</ele><time>2026-04-19T09:42:58.183Z</time></trkpt><trkpt lat="43.5123684" lon="11.4080858"><ele>498.0</ele><time>2026-04-19T09:42:59.178Z</time></trkpt><trkpt lat="43.5122813" lon="11.4079994"><ele>498.0</ele><time>2026-04-19T09:43:00.18Z</time></trkpt><trkpt lat="43.5121601" lon="11.4078325"><ele>498.0</ele><time>2026-04-19T09:43:01.171Z</time></trkpt><trkpt lat="43.5120339" lon="11.4076497"><ele>492.0</ele><time>2026-04-19T09:43:02.157Z</time></trkpt><trkpt lat="43.5119135" lon="11.4074951"><ele>486.0</ele><time>2026-04-19T09:43:03.187Z</time></trkpt><trkpt lat="43.5117954" lon="11.4073413"><ele>480.0</ele><time>2026-04-19T09:43:04.171Z</time></trkpt><trkpt lat="43.5116994" lon="11.4071665"><ele>480.66666666666663</ele><time>2026-04-19T09:43:05.163Z</time></trkpt><trkpt lat="43.5116371" lon="11.4069656"><ele>481.3333333333333</ele><time>2026-04-19T09:43:06.179Z</time></trkpt><trkpt lat="43.5115907" lon="11.4067529"><ele>482.0</ele><time>2026-04-19T09:43:07.18Z</time></trkpt><trkpt lat="43.5115741" lon="11.4065351"><ele>482.0</ele><time>2026-04-19T09:43:08.176Z</time></trkpt><trkpt lat="43.5115861" lon="11.4063446"><ele>482.0</ele><time>2026-04-19T09:43:09.186Z</time></trkpt><trkpt lat="43.5116061" lon="11.4061821"><ele>482.0</ele><time>2026-04-19T09:43:10.17Z</time></trkpt><trkpt lat="43.5116107" lon="11.4060443"><ele>482.0</ele><time>2026-04-19T09:43:11.173Z</time></trkpt><trkpt lat="43.5115796" lon="11.4059166"><ele>481.5</ele><time>2026-04-19T09:43:12.172Z</time></trkpt><trkpt lat="43.5115211" lon="11.405812"><ele>481.0</ele><time>2026-04-19T09:43:13.177Z</time></trkpt><trkpt lat="43.5114385" lon="11.4057527"><ele>480.5</ele><time>2026-04-19T09:43:14.177Z</time></trkpt><trkpt lat="43.5113018" lon="11.4057375"><ele>480.0</ele><time>2026-04-19T09:43:15.16Z</time></trkpt><trkpt lat="43.5111428" lon="11.4057366"><ele>476.0</ele><time>2026-04-19T09:43:16.16Z</time></trkpt><trkpt lat="43.510982" lon="11.4057073"><ele>472.0</ele><time>2026-04-19T09:43:17.176Z</time></trkpt><trkpt lat="43.5108191" lon="11.4056607"><ele>468.0</ele><time>2026-04-19T09:43:18.177Z</time></trkpt><trkpt lat="43.5106536" lon="11.4056004"><ele>468.0</ele><time>2026-04-19T09:43:19.177Z</time></trkpt><trkpt lat="43.5104892" lon="11.4055429"><ele>468.0</ele><time>2026-04-19T09:43:20.169Z</time></trkpt><trkpt lat="43.5103336" lon="11.4055013"><ele>468.0</ele><time>2026-04-19T09:43:21.177Z</time></trkpt><trkpt lat="43.5102028" lon="11.4054758"><ele>468.0</ele><time>2026-04-19T09:43:22.168Z</time></trkpt><trkpt lat="43.510111" lon="11.4054136"><ele>468.0</ele><time>2026-04-19T09:43:23.174Z</time></trkpt><trkpt lat="43.5100702" lon="11.4052843"><ele>468.0</ele><time>2026-04-19T09:43:24.15Z</time></trkpt><trkpt lat="43.5100657" lon="11.4051039"><ele>468.0</ele><time>2026-04-19T09:43:25.152Z</time></trkpt><trkpt lat="43.5100381" lon="11.4049226"><ele>468.0</ele><time>2026-04-19T09:43:26.164Z</time></trkpt><trkpt lat="43.5100016" lon="11.4047087"><ele>468.0</ele><time>2026-04-19T09:43:27.17Z</time></trkpt><trkpt lat="43.5099496" lon="11.404476"><ele>468.0</ele><time>2026-04-19T09:43:28.176Z</time></trkpt><trkpt lat="43.5098831" lon="11.4042309"><ele>466.33333333333337</ele><time>2026-04-19T09:43:29.171Z</time></trkpt><trkpt lat="43.5098105" lon="11.4039813"><ele>464.6666666666667</ele><time>2026-04-19T09:43:30.154Z</time></trkpt><trkpt lat="43.5097346" lon="11.4037575"><ele>463.0</ele><time>2026-04-19T09:43:31.156Z</time></trkpt><trkpt lat="43.5096674" lon="11.4035563"><ele>463.25</ele><time>2026-04-19T09:43:32.184Z</time></trkpt><trkpt lat="43.5096112" lon="11.4033727"><ele>463.5</ele><time>2026-04-19T09:43:33.18Z</time></trkpt><trkpt lat="43.5095572" lon="11.4032025"><ele>463.75</ele><time>2026-04-19T09:43:34.177Z</time></trkpt><trkpt lat="43.5094842" lon="11.4030541"><ele>464.0</ele><time>2026-04-19T09:43:35.169Z</time></trkpt><trkpt lat="43.5094006" lon="11.4029358"><ele>462.75</ele><time>2026-04-19T09:43:36.165Z</time></trkpt><trkpt lat="43.5092936" lon="11.4028592"><ele>461.5</ele><time>2026-04-19T09:43:37.177Z</time></trkpt><trkpt lat="43.5091546" lon="11.4028211"><ele>460.25</ele><time>2026-04-19T09:43:38.167Z</time></trkpt><trkpt lat="43.5089866" lon="11.4028074"><ele>459.0</ele><time>2026-04-19T09:43:39.164Z</time></trkpt><trkpt lat="43.5088102" lon="11.4027833"><ele>455.0</ele><time>2026-04-19T09:43:40.179Z</time></trkpt><trkpt lat="43.5086161" lon="11.402754"><ele>451.0</ele><time>2026-04-19T09:43:41.178Z</time></trkpt><trkpt lat="43.5084226" lon="11.4027158"><ele>447.0</ele><time>2026-04-19T09:43:42.176Z</time></trkpt><trkpt lat="43.5082265" lon="11.402676"><ele>447.0</ele><time>2026-04-19T09:43:43.175Z</time></trkpt><trkpt lat="43.5080383" lon="11.4026421"><ele>447.0</ele><time>2026-04-19T09:43:44.172Z</time></trkpt><trkpt lat="43.5078555" lon="11.4026032"><ele>447.0</ele><time>2026-04-19T09:43:45.156Z</time></trkpt><trkpt lat="43.5076707" lon="11.4025586"><ele>445.0</ele><time>2026-04-19T09:43:46.163Z</time></trkpt><trkpt lat="43.5074862" lon="11.4025034"><ele>443.0</ele><time>2026-04-19T09:43:47.178Z</time></trkpt><trkpt lat="43.5073001" lon="11.4024434"><ele>441.0</ele><time>2026-04-19T09:43:48.152Z</time></trkpt><trkpt lat="43.5071204" lon="11.4023684"><ele>436.66666666666663</ele><time>2026-04-19T09:43:49.173Z</time></trkpt><trkpt lat="43.5069518" lon="11.4022823"><ele>432.3333333333333</ele><time>2026-04-19T09:43:50.177Z</time></trkpt><trkpt lat="43.5067985" lon="11.4021836"><ele>428.0</ele><time>2026-04-19T09:43:51.175Z</time></trkpt><trkpt lat="43.5066603" lon="11.4020766"><ele>424.75</ele><time>2026-04-19T09:43:52.171Z</time></trkpt><trkpt lat="43.506536" lon="11.401963"><ele>421.5</ele><time>2026-04-19T09:43:53.18Z</time></trkpt><trkpt lat="43.506435" lon="11.4018492"><ele>418.25</ele><time>2026-04-19T09:43:54.178Z</time></trkpt><trkpt lat="43.5063392" lon="11.4017532"><ele>415.0</ele><time>2026-04-19T09:43:55.176Z</time></trkpt><trkpt lat="43.5062469" lon="11.4016761"><ele>413.83333333333337</ele><time>2026-04-19T09:43:56.175Z</time></trkpt><trkpt lat="43.5061451" lon="11.4016415"><ele>412.6666666666667</ele><time>2026-04-19T09:43:57.179Z</time></trkpt><trkpt lat="43.5060516" lon="11.4016341"><ele>411.5</ele><time>2026-04-19T09:43:58.179Z</time></trkpt><trkpt lat="43.5059713" lon="11.4016324"><ele>410.33333333333337</ele><time>2026-04-19T09:43:59.162Z</time></trkpt><trkpt lat="43.5059077" lon="11.4015748"><ele>409.1666666666667</ele><time>2026-04-19T09:44:00.184Z</time></trkpt><trkpt lat="43.5058722" lon="11.401469"><ele>408.0</ele><time>2026-04-19T09:44:01.176Z</time></trkpt><trkpt lat="43.5058822" lon="11.4013493"><ele>408.59999999999997</ele><time>2026-04-19T09:44:02.173Z</time></trkpt><trkpt lat="43.5059277" lon="11.4012374"><ele>409.2</ele><time>2026-04-19T09:44:03.183Z</time></trkpt><trkpt lat="43.5060079" lon="11.4011388"><ele>409.8</ele><time>2026-04-19T09:44:04.176Z</time></trkpt><trkpt lat="43.5061033" lon="11.4010592"><ele>410.4</ele><time>2026-04-19T09:44:05.168Z</time></trkpt><trkpt lat="43.5062114" lon="11.4010151"><ele>411.0</ele><time>2026-04-19T09:44:06.171Z</time></trkpt><trkpt lat="43.5063144" lon="11.4009808"><ele>411.0</ele><time>2026-04-19T09:44:07.177Z</time></trkpt><trkpt lat="43.5063814" lon="11.4009038"><ele>411.0</ele><time>2026-04-19T09:44:08.19Z</time></trkpt><trkpt lat="43.5063671" lon="11.4007663"><ele>411.0</ele><time>2026-04-19T09:44:09.178Z</time></trkpt><trkpt lat="43.506313" lon="11.4006232"><ele>411.0</ele><time>2026-04-19T09:44:10.171Z</time></trkpt><trkpt lat="43.5062152" lon="11.4005251"><ele>411.0</ele><time>2026-04-19T09:44:11.176Z</time></trkpt><trkpt lat="43.5060767" lon="11.4004596"><ele>408.0</ele><time>2026-04-19T09:44:12.177Z</time></trkpt><trkpt lat="43.505929" lon="11.4003879"><ele>405.0</ele><time>2026-04-19T09:44:13.171Z</time></trkpt><trkpt lat="43.5057671" lon="11.4003162"><ele>402.0</ele><time>2026-04-19T09:44:14.157Z</time></trkpt><trkpt lat="43.5055891" lon="11.4002443"><ele>402.0</ele><time>2026-04-19T09:44:15.184Z</time></trkpt><trkpt lat="43.5054179" lon="11.4001768"><ele>402.0</ele><time>2026-04-19T09:44:16.166Z</time></trkpt><trkpt lat="43.5052565" lon="11.4001047"><ele>402.0</ele><time>2026-04-19T09:44:17.174Z</time></trkpt><trkpt lat="43.50511" lon="11.4000341"><ele>399.0</ele><time>2026-04-19T09:44:18.168Z</time></trkpt><trkpt lat="43.5049763" lon="11.3999571"><ele>396.0</ele><time>2026-04-19T09:44:19.172Z</time></trkpt><trkpt lat="43.5048631" lon="11.3998445"><ele>393.0</ele><time>2026-04-19T09:44:20.169Z</time></trkpt><trkpt lat="43.5047598" lon="11.3997027"><ele>390.0</ele><time>2026-04-19T09:44:21.156Z</time></trkpt><trkpt lat="43.504673" lon="11.3995277"><ele>389.66666666666663</ele><time>2026-04-19T09:44:22.172Z</time></trkpt><trkpt lat="43.5046076" lon="11.3993254"><ele>389.3333333333333</ele><time>2026-04-19T09:44:23.172Z</time></trkpt><trkpt lat="43.5045347" lon="11.3991207"><ele>389.0</ele><time>2026-04-19T09:44:24.175Z</time></trkpt><trkpt lat="43.5044412" lon="11.3989222"><ele>388.3333333333333</ele><time>2026-04-19T09:44:25.17Z</time></trkpt><trkpt lat="43.5043294" lon="11.3987217"><ele>387.66666666666663</ele><time>2026-04-19T09:44:26.167Z</time></trkpt><trkpt lat="43.5042108" lon="11.3985195"><ele>387.0</ele><time>2026-04-19T09:44:27.171Z</time></trkpt><trkpt lat="43.5040902" lon="11.3983243"><ele>387.0</ele><time>2026-04-19T09:44:28.168Z</time></trkpt><trkpt lat="43.503975" lon="11.3981296"><ele>387.0</ele><time>2026-04-19T09:44:29.175Z</time></trkpt><trkpt lat="43.5038572" lon="11.3979469"><ele>387.0</ele><time>2026-04-19T09:44:30.17Z</time></trkpt><trkpt lat="43.5037338" lon="11.3977702"><ele>385.3333333333333</ele><time>2026-04-19T09:44:31.159Z</time></trkpt><trkpt lat="43.5036014" lon="11.3976028"><ele>383.66666666666663</ele><time>2026-04-19T09:44:32.175Z</time></trkpt><trkpt lat="43.5034684" lon="11.397459"><ele>382.0</ele><time>2026-04-19T09:44:33.173Z</time></trkpt><trkpt lat="43.5033391" lon="11.397325"><ele>382.0</ele><time>2026-04-19T09:44:34.184Z</time></trkpt><trkpt lat="43.5032101" lon="11.397192"><ele>382.0</ele><time>2026-04-19T09:44:35.177Z</time></trkpt><trkpt lat="43.5030695" lon="11.3970608"><ele>382.0</ele><time>2026-04-19T09:44:36.175Z</time></trkpt><trkpt lat="43.5029244" lon="11.3969314"><ele>380.66666666666663</ele><time>2026-04-19T09:44:37.171Z</time></trkpt><trkpt lat="43.5027765" lon="11.3967999"><ele>379.3333333333333</ele><time>2026-04-19T09:44:38.189Z</time></trkpt><trkpt lat="43.5026259" lon="11.3966615"><ele>378.0</ele><time>2026-04-19T09:44:39.178Z</time></trkpt><trkpt lat="43.5024683" lon="11.3965303"><ele>378.0</ele><time>2026-04-19T09:44:40.174Z</time></trkpt><trkpt lat="43.5023107" lon="11.3963933"><ele>378.0</ele><time>2026-04-19T09:44:41.172Z</time></trkpt><trkpt lat="43.5021528" lon="11.3962551"><ele>378.0</ele><time>2026-04-19T09:44:42.178Z</time></trkpt><trkpt lat="43.5019999" lon="11.3961262"><ele>377.3333333333333</ele><time>2026-04-19T09:44:43.174Z</time></trkpt><trkpt lat="43.5018475" lon="11.3960062"><ele>376.66666666666663</ele><time>2026-04-19T09:44:44.172Z</time></trkpt><trkpt lat="43.5017048" lon="11.3958907"><ele>376.0</ele><time>2026-04-19T09:44:45.18Z</time></trkpt><trkpt lat="43.5015777" lon="11.3957819"><ele>376.0</ele><time>2026-04-19T09:44:46.187Z</time></trkpt><trkpt lat="43.5014472" lon="11.395675"><ele>376.0</ele><time>2026-04-19T09:44:47.174Z</time></trkpt><trkpt lat="43.5013166" lon="11.395559"><ele>376.0</ele><time>2026-04-19T09:44:48.151Z</time></trkpt><trkpt lat="43.5011845" lon="11.3954318"><ele>375.66666666666663</ele><time>2026-04-19T09:44:49.185Z</time></trkpt><trkpt lat="43.5010487" lon="11.3953009"><ele>375.3333333333333</ele><time>2026-04-19T09:44:50.174Z</time></trkpt><trkpt lat="43.5009063" lon="11.3951694"><ele>375.0</ele><time>2026-04-19T09:44:51.173Z</time></trkpt><trkpt lat="43.500758" lon="11.3950365"><ele>375.0</ele><time>2026-04-19T09:44:52.179Z</time></trkpt><trkpt lat="43.5006102" lon="11.3949041"><ele>375.0</ele><time>2026-04-19T09:44:53.175Z</time></trkpt><trkpt lat="43.5004649" lon="11.3947711"><ele>375.0</ele><time>2026-04-19T09:44:54.161Z</time></trkpt><trkpt lat="43.5003141" lon="11.3946363"><ele>373.6666666666667</ele><time>2026-04-19T09:44:55.174Z</time></trkpt><trkpt lat="43.5001702" lon="11.3945069"><ele>372.33333333333337</ele><time>2026-04-19T09:44:56.17Z</time></trkpt><trkpt lat="43.5000188" lon="11.3943795"><ele>371.0</ele><time>2026-04-19T09:44:57.163Z</time></trkpt><trkpt lat="43.4998642" lon="11.3942676"><ele>371.0</ele><time>2026-04-19T09:44:58.16Z</time></trkpt><trkpt lat="43.4997016" lon="11.3941819"><ele>371.0</ele><time>2026-04-19T09:44:59.179Z</time></trkpt><trkpt lat="43.499535" lon="11.3940989"><ele>371.0</ele><time>2026-04-19T09:45:00.157Z</time></trkpt><trkpt lat="43.4993691" lon="11.394025"><ele>370.6666666666667</ele><time>2026-04-19T09:45:01.179Z</time></trkpt><trkpt lat="43.4992068" lon="11.3939522"><ele>370.3333333333333</ele><time>2026-04-19T09:45:02.173Z</time></trkpt><trkpt lat="43.4990469" lon="11.3938771"><ele>370.0</ele><time>2026-04-19T09:45:03.153Z</time></trkpt><trkpt lat="43.4988915" lon="11.3937983"><ele>374.0</ele><time>2026-04-19T09:45:04.154Z</time></trkpt><trkpt lat="43.4987363" lon="11.3937076"><ele>378.0</ele><time>2026-04-19T09:45:05.171Z</time></trkpt><trkpt lat="43.4985808" lon="11.393602"><ele>382.0</ele><time>2026-04-19T09:45:06.177Z</time></trkpt><trkpt lat="43.4984338" lon="11.3934838"><ele>382.0</ele><time>2026-04-19T09:45:07.173Z</time></trkpt><trkpt lat="43.498289" lon="11.393368"><ele>382.0</ele><time>2026-04-19T09:45:08.173Z</time></trkpt><trkpt lat="43.4981392" lon="11.3932583"><ele>382.0</ele><time>2026-04-19T09:45:09.169Z</time></trkpt><trkpt lat="43.4979879" lon="11.3931421"><ele>386.0</ele><time>2026-04-19T09:45:10.171Z</time></trkpt><trkpt lat="43.4978388" lon="11.3930223"><ele>390.0</ele><time>2026-04-19T09:45:11.172Z</time></trkpt><trkpt lat="43.4976936" lon="11.392893"><ele>394.0</ele><time>2026-04-19T09:45:12.174Z</time></trkpt><trkpt lat="43.4975602" lon="11.3927462"><ele>394.0</ele><time>2026-04-19T09:45:13.186Z</time></trkpt><trkpt lat="43.4974298" lon="11.3925936"><ele>394.0</ele><time>2026-04-19T09:45:14.157Z</time></trkpt><trkpt lat="43.4972929" lon="11.3924556"><ele>394.0</ele><time>2026-04-19T09:45:15.169Z</time></trkpt><trkpt lat="43.4971531" lon="11.3923466"><ele>397.75</ele><time>2026-04-19T09:45:16.174Z</time></trkpt><trkpt lat="43.4970098" lon="11.3922583"><ele>401.5</ele><time>2026-04-19T09:45:17.163Z</time></trkpt><trkpt lat="43.4968816" lon="11.3921993"><ele>405.25</ele><time>2026-04-19T09:45:18.175Z</time></trkpt><trkpt lat="43.4967294" lon="11.3922236"><ele>409.0</ele><time>2026-04-19T09:45:19.169Z</time></trkpt><trkpt lat="43.496585" lon="11.3922712"><ele>409.0</ele><time>2026-04-19T09:45:20.167Z</time></trkpt><trkpt lat="43.4964272" lon="11.3923233"><ele>409.0</ele><time>2026-04-19T09:45:21.168Z</time></trkpt><trkpt lat="43.4962714" lon="11.392353"><ele>409.0</ele><time>2026-04-19T09:45:22.18Z</time></trkpt><trkpt lat="43.4961328" lon="11.392359"><ele>410.75</ele><time>2026-04-19T09:45:23.169Z</time></trkpt><trkpt lat="43.496017" lon="11.3923053"><ele>412.5</ele><time>2026-04-19T09:45:24.171Z</time></trkpt><trkpt lat="43.4958947" lon="11.392192"><ele>414.25</ele><time>2026-04-19T09:45:25.17Z</time></trkpt><trkpt lat="43.4957675" lon="11.3920534"><ele>416.0</ele><time>2026-04-19T09:45:26.173Z</time></trkpt><trkpt lat="43.495659" lon="11.3919074"><ele>416.0</ele><time>2026-04-19T09:45:27.18Z</time></trkpt><trkpt lat="43.4955874" lon="11.3917446"><ele>416.0</ele><time>2026-04-19T09:45:28.175Z</time></trkpt><trkpt lat="43.495563" lon="11.3915608"><ele>416.0</ele><time>2026-04-19T09:45:29.175Z</time></trkpt><trkpt lat="43.4955803" lon="11.3913972"><ele>416.0</ele><time>2026-04-19T09:45:30.174Z</time></trkpt><trkpt lat="43.4956185" lon="11.3912725"><ele>417.5</ele><time>2026-04-19T09:45:31.157Z</time></trkpt><trkpt lat="43.4957208" lon="11.3911347"><ele>419.0</ele><time>2026-04-19T09:45:32.176Z</time></trkpt><trkpt lat="43.4958306" lon="11.3910166"><ele>420.5</ele><time>2026-04-19T09:45:33.177Z</time></trkpt><trkpt lat="43.4959329" lon="11.390904"><ele>422.0</ele><time>2026-04-19T09:45:34.168Z</time></trkpt><trkpt lat="43.4959852" lon="11.3907766"><ele>422.0</ele><time>2026-04-19T09:45:35.169Z</time></trkpt><trkpt lat="43.4959733" lon="11.3906344"><ele>422.0</ele><time>2026-04-19T09:45:36.172Z</time></trkpt><trkpt lat="43.4959291" lon="11.3905048"><ele>422.0</ele><time>2026-04-19T09:45:37.173Z</time></trkpt><trkpt lat="43.495855" lon="11.3903971"><ele>422.0</ele><time>2026-04-19T09:45:38.171Z</time></trkpt><trkpt lat="43.4957469" lon="11.3902924"><ele>422.0</ele><time>2026-04-19T09:45:39.173Z</time></trkpt><trkpt lat="43.4956259" lon="11.3901788"><ele>422.66666666666663</ele><time>2026-04-19T09:45:40.177Z</time></trkpt><trkpt lat="43.4954998" lon="11.3900702"><ele>423.33333333333337</ele><time>2026-04-19T09:45:41.174Z</time></trkpt><trkpt lat="43.49536" lon="11.3899629"><ele>424.0</ele><time>2026-04-19T09:45:42.174Z</time></trkpt><trkpt lat="43.4952121" lon="11.3898598"><ele>425.6666666666667</ele><time>2026-04-19T09:45:43.173Z</time></trkpt><trkpt lat="43.4950652" lon="11.3897378"><ele>427.33333333333337</ele><time>2026-04-19T09:45:44.173Z</time></trkpt><trkpt lat="43.4949137" lon="11.3895996"><ele>429.0</ele><time>2026-04-19T09:45:45.176Z</time></trkpt><trkpt lat="43.4947594" lon="11.3894548"><ele>429.0</ele><time>2026-04-19T09:45:46.175Z</time></trkpt><trkpt lat="43.4946055" lon="11.3893088"><ele>429.0</ele><time>2026-04-19T09:45:47.163Z</time></trkpt><trkpt lat="43.494463" lon="11.3891434"><ele>429.0</ele><time>2026-04-19T09:45:48.174Z</time></trkpt><trkpt lat="43.4943422" lon="11.3889542"><ele>430.0</ele><time>2026-04-19T09:45:49.177Z</time></trkpt><trkpt lat="43.4942332" lon="11.3887596"><ele>431.0</ele><time>2026-04-19T09:45:50.176Z</time></trkpt><trkpt lat="43.4941202" lon="11.3886259"><ele>432.0</ele><time>2026-04-19T09:45:51.178Z</time></trkpt><trkpt lat="43.4939886" lon="11.3885063"><ele>432.0</ele><time>2026-04-19T09:45:52.153Z</time></trkpt><trkpt lat="43.4938517" lon="11.3884082"><ele>432.0</ele><time>2026-04-19T09:45:53.18Z</time></trkpt><trkpt lat="43.4937153" lon="11.3883235"><ele>432.0</ele><time>2026-04-19T09:45:54.173Z</time></trkpt><trkpt lat="43.4935716" lon="11.3882875"><ele>436.5</ele><time>2026-04-19T09:45:55.17Z</time></trkpt><trkpt lat="43.4934205" lon="11.3882892"><ele>441.0</ele><time>2026-04-19T09:45:56.177Z</time></trkpt><trkpt lat="43.4932746" lon="11.3883046"><ele>445.5</ele><time>2026-04-19T09:45:57.181Z</time></trkpt><trkpt lat="43.4931244" lon="11.3883351"><ele>450.0</ele><time>2026-04-19T09:45:58.178Z</time></trkpt><trkpt lat="43.4930007" lon="11.3883908"><ele>452.2</ele><time>2026-04-19T09:45:59.183Z</time></trkpt><trkpt lat="43.4929069" lon="11.3884461"><ele>454.4</ele><time>2026-04-19T09:46:00.18Z</time></trkpt><trkpt lat="43.4928415" lon="11.3884635"><ele>456.6</ele><time>2026-04-19T09:46:01.174Z</time></trkpt><trkpt lat="43.4927469" lon="11.3883779"><ele>458.8</ele><time>2026-04-19T09:46:03.157Z</time></trkpt><trkpt lat="43.4926868" lon="11.3882251"><ele>461.0</ele><time>2026-04-19T09:46:04.151Z</time></trkpt><trkpt lat="43.4925882" lon="11.3880634"><ele>456.66666666666663</ele><time>2026-04-19T09:46:05.173Z</time></trkpt><trkpt lat="43.4924519" lon="11.3879494"><ele>452.33333333333337</ele><time>2026-04-19T09:46:06.176Z</time></trkpt><trkpt lat="43.4923125" lon="11.3878495"><ele>448.0</ele><time>2026-04-19T09:46:07.18Z</time></trkpt><trkpt lat="43.4921725" lon="11.3877459"><ele>453.0</ele><time>2026-04-19T09:46:08.17Z</time></trkpt><trkpt lat="43.4920268" lon="11.3876333"><ele>458.0</ele><time>2026-04-19T09:46:09.156Z</time></trkpt><trkpt lat="43.4918845" lon="11.3875007"><ele>463.0</ele><time>2026-04-19T09:46:10.172Z</time></trkpt><trkpt lat="43.4917408" lon="11.3873615"><ele>463.0</ele><time>2026-04-19T09:46:11.171Z</time></trkpt><trkpt lat="43.4915917" lon="11.3872141"><ele>463.0</ele><time>2026-04-19T09:46:12.168Z</time></trkpt><trkpt lat="43.4914376" lon="11.3870788"><ele>463.0</ele><time>2026-04-19T09:46:13.178Z</time></trkpt><trkpt lat="43.4913039" lon="11.3869586"><ele>464.25</ele><time>2026-04-19T09:46:14.166Z</time></trkpt><trkpt lat="43.491177" lon="11.3868487"><ele>465.5</ele><time>2026-04-19T09:46:15.167Z</time></trkpt><trkpt lat="43.4910642" lon="11.3867409"><ele>466.75</ele><time>2026-04-19T09:46:16.176Z</time></trkpt><trkpt lat="43.4909624" lon="11.3866174"><ele>468.0</ele><time>2026-04-19T09:46:17.171Z</time></trkpt><trkpt lat="43.49088" lon="11.3864741"><ele>467.0</ele><time>2026-04-19T09:46:18.175Z</time></trkpt><trkpt lat="43.4908107" lon="11.386319"><ele>466.0</ele><time>2026-04-19T09:46:19.178Z</time></trkpt><trkpt lat="43.4907478" lon="11.3861735"><ele>465.0</ele><time>2026-04-19T09:46:20.187Z</time></trkpt><trkpt lat="43.490694" lon="11.3860274"><ele>464.0</ele><time>2026-04-19T09:46:21.171Z</time></trkpt><trkpt lat="43.4906466" lon="11.3858835"><ele>464.0</ele><time>2026-04-19T09:46:22.171Z</time></trkpt><trkpt lat="43.4906023" lon="11.3857534"><ele>464.0</ele><time>2026-04-19T09:46:23.18Z</time></trkpt><trkpt lat="43.4905681" lon="11.3856454"><ele>464.0</ele><time>2026-04-19T09:46:24.179Z</time></trkpt><trkpt lat="43.4905278" lon="11.3855504"><ele>464.0</ele><time>2026-04-19T09:46:25.176Z</time></trkpt><trkpt lat="43.4904748" lon="11.385418"><ele>464.0</ele><time>2026-04-19T09:46:27.179Z</time></trkpt><trkpt lat="43.4904408" lon="11.3853142"><ele>463.0</ele><time>2026-04-19T09:46:29.178Z</time></trkpt><trkpt lat="43.4903936" lon="11.3852179"><ele>462.0</ele><time>2026-04-19T09:46:32.178Z</time></trkpt><trkpt lat="43.4903312" lon="11.3851645"><ele>461.0</ele><time>2026-04-19T09:46:55.186Z</time></trkpt><trkpt lat="43.4902867" lon="11.385337"><ele>460.0</ele><time>2026-04-19T09:46:58.174Z</time></trkpt><trkpt lat="43.4902934" lon="11.385459"><ele>459.0</ele><time>2026-04-19T09:46:59.184Z</time></trkpt><trkpt lat="43.4902955" lon="11.3855813"><ele>459.0</ele><time>2026-04-19T09:47:00.169Z</time></trkpt><trkpt lat="43.4902929" lon="11.3857098"><ele>459.0</ele><time>2026-04-19T09:47:01.168Z</time></trkpt><trkpt lat="43.4902834" lon="11.3858473"><ele>459.0</ele><time>2026-04-19T09:47:02.173Z</time></trkpt><trkpt lat="43.4902557" lon="11.3859864"><ele>459.0</ele><time>2026-04-19T09:47:03.15Z</time></trkpt><trkpt lat="43.4901962" lon="11.3861135"><ele>459.0</ele><time>2026-04-19T09:47:04.173Z</time></trkpt><trkpt lat="43.4901169" lon="11.3862258"><ele>459.0</ele><time>2026-04-19T09:47:05.167Z</time></trkpt><trkpt lat="43.4900413" lon="11.3863117"><ele>459.0</ele><time>2026-04-19T09:47:06.157Z</time></trkpt><trkpt lat="43.4899649" lon="11.3863497"><ele>459.0</ele><time>2026-04-19T09:47:07.172Z</time></trkpt><trkpt lat="43.4898691" lon="11.386255"><ele>459.0</ele><time>2026-04-19T09:47:09.164Z</time></trkpt><trkpt lat="43.4898402" lon="11.3861057"><ele>459.0</ele><time>2026-04-19T09:47:10.176Z</time></trkpt><trkpt lat="43.4898461" lon="11.3859577"><ele>459.0</ele><time>2026-04-19T09:47:11.176Z</time></trkpt><trkpt lat="43.4898722" lon="11.3858091"><ele>459.0</ele><time>2026-04-19T09:47:12.169Z</time></trkpt><trkpt lat="43.4899134" lon="11.3856526"><ele>459.0</ele><time>2026-04-19T09:47:13.152Z</time></trkpt><trkpt lat="43.4899482" lon="11.3854827"><ele>459.0</ele><time>2026-04-19T09:47:14.182Z</time></trkpt><trkpt lat="43.4899914" lon="11.3853085"><ele>458.75</ele><time>2026-04-19T09:47:15.176Z</time></trkpt><trkpt lat="43.4900423" lon="11.3851439"><ele>458.5</ele><time>2026-04-19T09:47:16.179Z</time></trkpt><trkpt lat="43.4901286" lon="11.3850084"><ele>458.25</ele><time>2026-04-19T09:47:17.159Z</time></trkpt><trkpt lat="43.4902381" lon="11.3848792"><ele>458.0</ele><time>2026-04-19T09:47:18.184Z</time></trkpt><trkpt lat="43.4903544" lon="11.3847575"><ele>457.75</ele><time>2026-04-19T09:47:19.156Z</time></trkpt><trkpt lat="43.4904727" lon="11.3846308"><ele>457.5</ele><time>2026-04-19T09:47:20.177Z</time></trkpt><trkpt lat="43.4905874" lon="11.3845124"><ele>457.25</ele><time>2026-04-19T09:47:21.176Z</time></trkpt><trkpt lat="43.4906938" lon="11.3843997"><ele>457.0</ele><time>2026-04-19T09:47:22.16Z</time></trkpt><trkpt lat="43.4908049" lon="11.3842955"><ele>457.0</ele><time>2026-04-19T09:47:23.172Z</time></trkpt><trkpt lat="43.4909068" lon="11.3841985"><ele>457.0</ele><time>2026-04-19T09:47:24.174Z</time></trkpt><trkpt lat="43.4909957" lon="11.3840944"><ele>457.0</ele><time>2026-04-19T09:47:25.177Z</time></trkpt><trkpt lat="43.4910883" lon="11.3839665"><ele>457.0</ele><time>2026-04-19T09:47:26.173Z</time></trkpt><trkpt lat="43.4911674" lon="11.3838013"><ele>456.6666666666667</ele><time>2026-04-19T09:47:27.175Z</time></trkpt><trkpt lat="43.4912317" lon="11.3836167"><ele>456.33333333333337</ele><time>2026-04-19T09:47:28.178Z</time></trkpt><trkpt lat="43.4912767" lon="11.3834109"><ele>456.0</ele><time>2026-04-19T09:47:29.181Z</time></trkpt><trkpt lat="43.4913097" lon="11.3831985"><ele>453.25</ele><time>2026-04-19T09:47:30.174Z</time></trkpt><trkpt lat="43.4913262" lon="11.3830047"><ele>450.5</ele><time>2026-04-19T09:47:31.16Z</time></trkpt><trkpt lat="43.4913301" lon="11.3828134"><ele>447.75</ele><time>2026-04-19T09:47:32.168Z</time></trkpt><trkpt lat="43.4913036" lon="11.3826463"><ele>445.0</ele><time>2026-04-19T09:47:33.159Z</time></trkpt><trkpt lat="43.4912243" lon="11.3825144"><ele>445.0</ele><time>2026-04-19T09:47:34.179Z</time></trkpt><trkpt lat="43.4911152" lon="11.3824031"><ele>445.0</ele><time>2026-04-19T09:47:35.171Z</time></trkpt><trkpt lat="43.4909902" lon="11.3823208"><ele>445.0</ele><time>2026-04-19T09:47:36.173Z</time></trkpt><trkpt lat="43.490862" lon="11.3822457"><ele>445.0</ele><time>2026-04-19T09:47:37.178Z</time></trkpt><trkpt lat="43.4907457" lon="11.3821431"><ele>440.6666666666667</ele><time>2026-04-19T09:47:38.18Z</time></trkpt><trkpt lat="43.4906812" lon="11.3819599"><ele>436.33333333333337</ele><time>2026-04-19T09:47:39.156Z</time></trkpt><trkpt lat="43.4906211" lon="11.3817552"><ele>432.0</ele><time>2026-04-19T09:47:40.171Z</time></trkpt><trkpt lat="43.4905554" lon="11.3815727"><ele>432.0</ele><time>2026-04-19T09:47:41.161Z</time></trkpt><trkpt lat="43.4904836" lon="11.3813971"><ele>432.0</ele><time>2026-04-19T09:47:42.18Z</time></trkpt><trkpt lat="43.4903963" lon="11.3812252"><ele>432.0</ele><time>2026-04-19T09:47:43.169Z</time></trkpt><trkpt lat="43.4903052" lon="11.3810532"><ele>434.0</ele><time>2026-04-19T09:47:44.177Z</time></trkpt><trkpt lat="43.4902194" lon="11.3808783"><ele>436.0</ele><time>2026-04-19T09:47:45.172Z</time></trkpt><trkpt lat="43.4901679" lon="11.3806961"><ele>438.0</ele><time>2026-04-19T09:47:46.172Z</time></trkpt><trkpt lat="43.4901629" lon="11.3804964"><ele>440.0</ele><time>2026-04-19T09:47:47.173Z</time></trkpt><trkpt lat="43.4902012" lon="11.3802853"><ele>440.0</ele><time>2026-04-19T09:47:48.184Z</time></trkpt><trkpt lat="43.4902723" lon="11.3800814"><ele>440.0</ele><time>2026-04-19T09:47:49.175Z</time></trkpt><trkpt lat="43.4903615" lon="11.3798816"><ele>440.0</ele><time>2026-04-19T09:47:50.153Z</time></trkpt><trkpt lat="43.4904572" lon="11.379697"><ele>435.3333333333333</ele><time>2026-04-19T09:47:51.174Z</time></trkpt><trkpt lat="43.4905685" lon="11.3795202"><ele>430.66666666666663</ele><time>2026-04-19T09:47:52.174Z</time></trkpt><trkpt lat="43.4906642" lon="11.3793587"><ele>426.0</ele><time>2026-04-19T09:47:53.184Z</time></trkpt><trkpt lat="43.4907342" lon="11.379187"><ele>426.0</ele><time>2026-04-19T09:47:54.179Z</time></trkpt><trkpt lat="43.4907795" lon="11.3790001"><ele>426.0</ele><time>2026-04-19T09:47:55.182Z</time></trkpt><trkpt lat="43.4907871" lon="11.3787906"><ele>426.0</ele><time>2026-04-19T09:47:56.172Z</time></trkpt><trkpt lat="43.4907792" lon="11.3785801"><ele>426.0</ele><time>2026-04-19T09:47:57.173Z</time></trkpt><trkpt lat="43.4907723" lon="11.3783669"><ele>425.66666666666663</ele><time>2026-04-19T09:47:58.17Z</time></trkpt><trkpt lat="43.4907456" lon="11.3781384"><ele>425.3333333333333</ele><time>2026-04-19T09:47:59.155Z</time></trkpt><trkpt lat="43.4907113" lon="11.3779025"><ele>425.0</ele><time>2026-04-19T09:48:00.173Z</time></trkpt><trkpt lat="43.4906781" lon="11.3776632"><ele>423.3333333333333</ele><time>2026-04-19T09:48:01.172Z</time></trkpt><trkpt lat="43.4906384" lon="11.3774292"><ele>421.66666666666663</ele><time>2026-04-19T09:48:02.169Z</time></trkpt><trkpt lat="43.4905994" lon="11.3771882"><ele>420.0</ele><time>2026-04-19T09:48:03.186Z</time></trkpt><trkpt lat="43.4905603" lon="11.3769474"><ele>418.33333333333337</ele><time>2026-04-19T09:48:04.176Z</time></trkpt><trkpt lat="43.4905205" lon="11.3767031"><ele>416.6666666666667</ele><time>2026-04-19T09:48:05.168Z</time></trkpt><trkpt lat="43.4904826" lon="11.3764499"><ele>415.0</ele><time>2026-04-19T09:48:06.174Z</time></trkpt><trkpt lat="43.4904476" lon="11.3761999"><ele>419.33333333333337</ele><time>2026-04-19T09:48:07.169Z</time></trkpt><trkpt lat="43.4904246" lon="11.3759488"><ele>423.66666666666663</ele><time>2026-04-19T09:48:08.156Z</time></trkpt><trkpt lat="43.4904042" lon="11.3757193"><ele>428.0</ele><time>2026-04-19T09:48:09.166Z</time></trkpt><trkpt lat="43.4903942" lon="11.3754863"><ele>428.0</ele><time>2026-04-19T09:48:10.177Z</time></trkpt><trkpt lat="43.4903938" lon="11.3752387"><ele>428.0</ele><time>2026-04-19T09:48:11.173Z</time></trkpt><trkpt lat="43.4903969" lon="11.3749857"><ele>428.0</ele><time>2026-04-19T09:48:12.173Z</time></trkpt><trkpt lat="43.490419" lon="11.3747405"><ele>421.3333333333333</ele><time>2026-04-19T09:48:13.172Z</time></trkpt><trkpt lat="43.4904531" lon="11.3745006"><ele>414.66666666666663</ele><time>2026-04-19T09:48:14.169Z</time></trkpt><trkpt lat="43.4904939" lon="11.3742647"><ele>408.0</ele><time>2026-04-19T09:48:15.177Z</time></trkpt><trkpt lat="43.4905436" lon="11.3740353"><ele>408.0</ele><time>2026-04-19T09:48:16.177Z</time></trkpt><trkpt lat="43.4906119" lon="11.3738075"><ele>408.0</ele><time>2026-04-19T09:48:17.157Z</time></trkpt><trkpt lat="43.4906839" lon="11.373593"><ele>408.0</ele><time>2026-04-19T09:48:18.173Z</time></trkpt><trkpt lat="43.490753" lon="11.3734022"><ele>408.0</ele><time>2026-04-19T09:48:19.161Z</time></trkpt><trkpt lat="43.4908015" lon="11.3732203"><ele>408.0</ele><time>2026-04-19T09:48:20.177Z</time></trkpt><trkpt lat="43.4908195" lon="11.3730208"><ele>408.0</ele><time>2026-04-19T09:48:21.163Z</time></trkpt><trkpt lat="43.49081" lon="11.3728275"><ele>408.0</ele><time>2026-04-19T09:48:22.181Z</time></trkpt><trkpt lat="43.4907444" lon="11.3726268"><ele>406.0</ele><time>2026-04-19T09:48:23.167Z</time></trkpt><trkpt lat="43.4906399" lon="11.3724383"><ele>404.0</ele><time>2026-04-19T09:48:24.172Z</time></trkpt><trkpt lat="43.4905301" lon="11.3722627"><ele>402.0</ele><time>2026-04-19T09:48:25.168Z</time></trkpt><trkpt lat="43.4904384" lon="11.3720767"><ele>406.0</ele><time>2026-04-19T09:48:26.176Z</time></trkpt><trkpt lat="43.4903727" lon="11.3718982"><ele>410.0</ele><time>2026-04-19T09:48:27.168Z</time></trkpt><trkpt lat="43.4903453" lon="11.3717228"><ele>414.0</ele><time>2026-04-19T09:48:28.18Z</time></trkpt><trkpt lat="43.4903531" lon="11.3715673"><ele>418.0</ele><time>2026-04-19T09:48:29.159Z</time></trkpt><trkpt lat="43.4904026" lon="11.3714368"><ele>415.0</ele><time>2026-04-19T09:48:30.165Z</time></trkpt><trkpt lat="43.4904823" lon="11.3713503"><ele>412.0</ele><time>2026-04-19T09:48:31.161Z</time></trkpt><trkpt lat="43.4906052" lon="11.37132"><ele>409.0</ele><time>2026-04-19T09:48:32.176Z</time></trkpt><trkpt lat="43.4907404" lon="11.3713298"><ele>406.0</ele><time>2026-04-19T09:48:33.184Z</time></trkpt><trkpt lat="43.4908929" lon="11.3713347"><ele>406.0</ele><time>2026-04-19T09:48:34.18Z</time></trkpt><trkpt lat="43.4910487" lon="11.371331"><ele>406.0</ele><time>2026-04-19T09:48:35.177Z</time></trkpt><trkpt lat="43.491189" lon="11.3712801"><ele>406.0</ele><time>2026-04-19T09:48:36.178Z</time></trkpt><trkpt lat="43.4913218" lon="11.3711866"><ele>402.6666666666667</ele><time>2026-04-19T09:48:37.182Z</time></trkpt><trkpt lat="43.4914428" lon="11.3710673"><ele>399.33333333333337</ele><time>2026-04-19T09:48:38.182Z</time></trkpt><trkpt lat="43.4915383" lon="11.3709109"><ele>396.0</ele><time>2026-04-19T09:48:39.179Z</time></trkpt><trkpt lat="43.4916213" lon="11.3707223"><ele>397.0</ele><time>2026-04-19T09:48:40.178Z</time></trkpt><trkpt lat="43.4916959" lon="11.3705132"><ele>398.0</ele><time>2026-04-19T09:48:41.187Z</time></trkpt><trkpt lat="43.491763" lon="11.3702935"><ele>399.0</ele><time>2026-04-19T09:48:42.155Z</time></trkpt><trkpt lat="43.4918213" lon="11.3700795"><ele>399.0</ele><time>2026-04-19T09:48:43.181Z</time></trkpt><trkpt lat="43.4918536" lon="11.3698838"><ele>399.0</ele><time>2026-04-19T09:48:44.172Z</time></trkpt><trkpt lat="43.4918619" lon="11.3697063"><ele>399.0</ele><time>2026-04-19T09:48:45.171Z</time></trkpt><trkpt lat="43.491833" lon="11.3695244"><ele>399.0</ele><time>2026-04-19T09:48:46.171Z</time></trkpt><trkpt lat="43.4917641" lon="11.3693378"><ele>398.33333333333337</ele><time>2026-04-19T09:48:47.155Z</time></trkpt><trkpt lat="43.4916735" lon="11.3691481"><ele>397.6666666666667</ele><time>2026-04-19T09:48:48.174Z</time></trkpt><trkpt lat="43.4915738" lon="11.3689586"><ele>397.0</ele><time>2026-04-19T09:48:49.166Z</time></trkpt><trkpt lat="43.4914764" lon="11.3687755"><ele>396.6666666666667</ele><time>2026-04-19T09:48:50.152Z</time></trkpt><trkpt lat="43.4913745" lon="11.3686027"><ele>396.33333333333337</ele><time>2026-04-19T09:48:51.155Z</time></trkpt><trkpt lat="43.4912656" lon="11.3684455"><ele>396.0</ele><time>2026-04-19T09:48:52.176Z</time></trkpt><trkpt lat="43.4911451" lon="11.3683105"><ele>396.0</ele><time>2026-04-19T09:48:53.18Z</time></trkpt><trkpt lat="43.4910182" lon="11.3682031"><ele>396.0</ele><time>2026-04-19T09:48:54.186Z</time></trkpt><trkpt lat="43.490881" lon="11.3681392"><ele>396.0</ele><time>2026-04-19T09:48:55.171Z</time></trkpt><trkpt lat="43.490757" lon="11.3680988"><ele>396.0</ele><time>2026-04-19T09:48:56.174Z</time></trkpt><trkpt lat="43.4906517" lon="11.3680696"><ele>396.1666666666667</ele><time>2026-04-19T09:48:57.181Z</time></trkpt><trkpt lat="43.4905604" lon="11.3680264"><ele>396.33333333333337</ele><time>2026-04-19T09:48:58.179Z</time></trkpt><trkpt lat="43.4904995" lon="11.3679419"><ele>396.5</ele><time>2026-04-19T09:48:59.177Z</time></trkpt><trkpt lat="43.4904811" lon="11.3678459"><ele>396.6666666666667</ele><time>2026-04-19T09:49:00.179Z</time></trkpt><trkpt lat="43.490496" lon="11.3677364"><ele>396.83333333333337</ele><time>2026-04-19T09:49:01.153Z</time></trkpt><trkpt lat="43.490557" lon="11.3676663"><ele>397.0</ele><time>2026-04-19T09:49:02.182Z</time></trkpt><trkpt lat="43.4906387" lon="11.3676412"><ele>397.0</ele><time>2026-04-19T09:49:03.172Z</time></trkpt><trkpt lat="43.4907226" lon="11.3676468"><ele>397.0</ele><time>2026-04-19T09:49:04.152Z</time></trkpt><trkpt lat="43.4908142" lon="11.3676481"><ele>397.0</ele><time>2026-04-19T09:49:05.167Z</time></trkpt><trkpt lat="43.4909112" lon="11.3676496"><ele>397.0</ele><time>2026-04-19T09:49:06.167Z</time></trkpt><trkpt lat="43.4910105" lon="11.3676531"><ele>397.0</ele><time>2026-04-19T09:49:07.16Z</time></trkpt><trkpt lat="43.4911141" lon="11.367667"><ele>397.0</ele><time>2026-04-19T09:49:08.177Z</time></trkpt><trkpt lat="43.4912195" lon="11.3676866"><ele>397.0</ele><time>2026-04-19T09:49:09.177Z</time></trkpt><trkpt lat="43.4913304" lon="11.3677371"><ele>397.0</ele><time>2026-04-19T09:49:10.186Z</time></trkpt><trkpt lat="43.4914611" lon="11.367831"><ele>397.0</ele><time>2026-04-19T09:49:11.179Z</time></trkpt><trkpt lat="43.4915903" lon="11.3679523"><ele>393.0</ele><time>2026-04-19T09:49:12.176Z</time></trkpt><trkpt lat="43.4917233" lon="11.3680885"><ele>389.0</ele><time>2026-04-19T09:49:13.175Z</time></trkpt><trkpt lat="43.4918553" lon="11.3682264"><ele>385.0</ele><time>2026-04-19T09:49:14.154Z</time></trkpt><trkpt lat="43.4919818" lon="11.3683672"><ele>381.6666666666667</ele><time>2026-04-19T09:49:15.173Z</time></trkpt><trkpt lat="43.4921074" lon="11.368508"><ele>378.33333333333337</ele><time>2026-04-19T09:49:16.176Z</time></trkpt><trkpt lat="43.4922297" lon="11.3686311"><ele>375.0</ele><time>2026-04-19T09:49:17.173Z</time></trkpt><trkpt lat="43.4923698" lon="11.3687417"><ele>375.0</ele><time>2026-04-19T09:49:18.172Z</time></trkpt><trkpt lat="43.4925252" lon="11.368834"><ele>375.0</ele><time>2026-04-19T09:49:19.175Z</time></trkpt><trkpt lat="43.4926906" lon="11.3689055"><ele>375.0</ele><time>2026-04-19T09:49:20.178Z</time></trkpt><trkpt lat="43.4928492" lon="11.3689693"><ele>369.6666666666667</ele><time>2026-04-19T09:49:21.176Z</time></trkpt><trkpt lat="43.4930049" lon="11.3690213"><ele>364.33333333333337</ele><time>2026-04-19T09:49:22.181Z</time></trkpt><trkpt lat="43.4931702" lon="11.369074"><ele>359.0</ele><time>2026-04-19T09:49:23.18Z</time></trkpt><trkpt lat="43.4933354" lon="11.3691195"><ele>359.0</ele><time>2026-04-19T09:49:24.175Z</time></trkpt><trkpt lat="43.4935018" lon="11.3691637"><ele>359.0</ele><time>2026-04-19T09:49:25.171Z</time></trkpt><trkpt lat="43.4936771" lon="11.3692019"><ele>359.0</ele><time>2026-04-19T09:49:26.174Z</time></trkpt><trkpt lat="43.4938539" lon="11.3692437"><ele>355.33333333333337</ele><time>2026-04-19T09:49:27.172Z</time></trkpt><trkpt lat="43.4940326" lon="11.3692793"><ele>351.6666666666667</ele><time>2026-04-19T09:49:28.157Z</time></trkpt><trkpt lat="43.4942121" lon="11.369325"><ele>348.0</ele><time>2026-04-19T09:49:29.181Z</time></trkpt><trkpt lat="43.49438" lon="11.3693693"><ele>348.0</ele><time>2026-04-19T09:49:30.179Z</time></trkpt><trkpt lat="43.4945358" lon="11.3694113"><ele>348.0</ele><time>2026-04-19T09:49:31.152Z</time></trkpt><trkpt lat="43.4946711" lon="11.3694493"><ele>348.0</ele><time>2026-04-19T09:49:32.178Z</time></trkpt><trkpt lat="43.4947958" lon="11.3694995"><ele>348.0</ele><time>2026-04-19T09:49:33.176Z</time></trkpt><trkpt lat="43.4949046" lon="11.3695577"><ele>347.2</ele><time>2026-04-19T09:49:34.184Z</time></trkpt><trkpt lat="43.4950049" lon="11.3696342"><ele>346.4</ele><time>2026-04-19T09:49:35.159Z</time></trkpt><trkpt lat="43.495098" lon="11.3697267"><ele>345.59999999999997</ele><time>2026-04-19T09:49:36.187Z</time></trkpt><trkpt lat="43.4951821" lon="11.3698263"><ele>344.79999999999995</ele><time>2026-04-19T09:49:37.172Z</time></trkpt><trkpt lat="43.4952526" lon="11.3699234"><ele>344.0</ele><time>2026-04-19T09:49:38.177Z</time></trkpt><trkpt lat="43.4953257" lon="11.3700112"><ele>344.0</ele><time>2026-04-19T09:49:39.177Z</time></trkpt><trkpt lat="43.4954034" lon="11.370096"><ele>344.0</ele><time>2026-04-19T09:49:40.176Z</time></trkpt><trkpt lat="43.4954858" lon="11.370183"><ele>344.0</ele><time>2026-04-19T09:49:41.179Z</time></trkpt><trkpt lat="43.4955654" lon="11.3702714"><ele>344.0</ele><time>2026-04-19T09:49:42.183Z</time></trkpt><trkpt lat="43.4956402" lon="11.3703667"><ele>344.0</ele><time>2026-04-19T09:49:43.179Z</time></trkpt><trkpt lat="43.4957106" lon="11.3704718"><ele>346.0</ele><time>2026-04-19T09:49:44.176Z</time></trkpt><trkpt lat="43.4957663" lon="11.3705802"><ele>348.0</ele><time>2026-04-19T09:49:45.176Z</time></trkpt><trkpt lat="43.4957925" lon="11.3707033"><ele>350.0</ele><time>2026-04-19T09:49:46.18Z</time></trkpt><trkpt lat="43.4957887" lon="11.3708394"><ele>352.0</ele><time>2026-04-19T09:49:47.178Z</time></trkpt><trkpt lat="43.4957809" lon="11.3709779"><ele>354.0</ele><time>2026-04-19T09:49:48.176Z</time></trkpt><trkpt lat="43.4957583" lon="11.3711157"><ele>354.0</ele><time>2026-04-19T09:49:49.182Z</time></trkpt><trkpt lat="43.4957223" lon="11.371261"><ele>354.0</ele><time>2026-04-19T09:49:50.17Z</time></trkpt><trkpt lat="43.4956697" lon="11.3714112"><ele>354.0</ele><time>2026-04-19T09:49:51.174Z</time></trkpt><trkpt lat="43.4956202" lon="11.3715732"><ele>354.0</ele><time>2026-04-19T09:49:52.171Z</time></trkpt><trkpt lat="43.4955756" lon="11.3717357"><ele>354.0</ele><time>2026-04-19T09:49:53.17Z</time></trkpt><trkpt lat="43.4955324" lon="11.3719025"><ele>354.0</ele><time>2026-04-19T09:49:54.169Z</time></trkpt><trkpt lat="43.4954876" lon="11.3720597"><ele>354.0</ele><time>2026-04-19T09:49:55.165Z</time></trkpt><trkpt lat="43.4954493" lon="11.3722197"><ele>354.0</ele><time>2026-04-19T09:49:56.178Z</time></trkpt><trkpt lat="43.4954327" lon="11.3723861"><ele>355.0</ele><time>2026-04-19T09:49:57.197Z</time></trkpt><trkpt lat="43.4954362" lon="11.3725592"><ele>356.0</ele><time>2026-04-19T09:49:58.173Z</time></trkpt><trkpt lat="43.4954602" lon="11.3727372"><ele>357.0</ele><time>2026-04-19T09:49:59.173Z</time></trkpt><trkpt lat="43.4955101" lon="11.3729046"><ele>358.0</ele><time>2026-04-19T09:50:00.176Z</time></trkpt><trkpt lat="43.4955744" lon="11.3730618"><ele>358.0</ele><time>2026-04-19T09:50:01.173Z</time></trkpt><trkpt lat="43.4956607" lon="11.3731922"><ele>358.0</ele><time>2026-04-19T09:50:02.175Z</time></trkpt><trkpt lat="43.4957725" lon="11.3732948"><ele>358.0</ele><time>2026-04-19T09:50:03.168Z</time></trkpt><trkpt lat="43.4958965" lon="11.3733637"><ele>358.0</ele><time>2026-04-19T09:50:04.172Z</time></trkpt><trkpt lat="43.49602" lon="11.3734464"><ele>358.0</ele><time>2026-04-19T09:50:05.169Z</time></trkpt><trkpt lat="43.4961271" lon="11.3735675"><ele>358.0</ele><time>2026-04-19T09:50:06.182Z</time></trkpt><trkpt lat="43.4962111" lon="11.3737214"><ele>358.0</ele><time>2026-04-19T09:50:07.177Z</time></trkpt><trkpt lat="43.4962625" lon="11.3738845"><ele>358.0</ele><time>2026-04-19T09:50:08.157Z</time></trkpt><trkpt lat="43.4963164" lon="11.3740417"><ele>360.5</ele><time>2026-04-19T09:50:09.176Z</time></trkpt><trkpt lat="43.496393" lon="11.3741807"><ele>363.0</ele><time>2026-04-19T09:50:10.154Z</time></trkpt><trkpt lat="43.4964916" lon="11.3742823"><ele>365.5</ele><time>2026-04-19T09:50:11.167Z</time></trkpt><trkpt lat="43.4966026" lon="11.3743824"><ele>368.0</ele><time>2026-04-19T09:50:12.177Z</time></trkpt><trkpt lat="43.4967038" lon="11.3744941"><ele>368.0</ele><time>2026-04-19T09:50:13.167Z</time></trkpt><trkpt lat="43.4967855" lon="11.3746414"><ele>368.0</ele><time>2026-04-19T09:50:14.172Z</time></trkpt><trkpt lat="43.4968622" lon="11.3748205"><ele>368.0</ele><time>2026-04-19T09:50:15.181Z</time></trkpt><trkpt lat="43.4969465" lon="11.3750173"><ele>369.33333333333337</ele><time>2026-04-19T09:50:16.167Z</time></trkpt><trkpt lat="43.4970472" lon="11.3752049"><ele>370.6666666666667</ele><time>2026-04-19T09:50:17.177Z</time></trkpt><trkpt lat="43.4971574" lon="11.3753914"><ele>372.0</ele><time>2026-04-19T09:50:18.163Z</time></trkpt><trkpt lat="43.4972608" lon="11.3755647"><ele>372.0</ele><time>2026-04-19T09:50:19.154Z</time></trkpt><trkpt lat="43.4973634" lon="11.3757163"><ele>372.0</ele><time>2026-04-19T09:50:20.177Z</time></trkpt><trkpt lat="43.497485" lon="11.3758391"><ele>372.0</ele><time>2026-04-19T09:50:21.174Z</time></trkpt><trkpt lat="43.497626" lon="11.3759492"><ele>372.0</ele><time>2026-04-19T09:50:22.173Z</time></trkpt><trkpt lat="43.4977734" lon="11.3760586"><ele>372.0</ele><time>2026-04-19T09:50:23.171Z</time></trkpt><trkpt lat="43.4979198" lon="11.3761743"><ele>372.0</ele><time>2026-04-19T09:50:24.175Z</time></trkpt><trkpt lat="43.4980642" lon="11.3762888"><ele>374.0</ele><time>2026-04-19T09:50:25.182Z</time></trkpt><trkpt lat="43.4981927" lon="11.3763858"><ele>376.0</ele><time>2026-04-19T09:50:26.183Z</time></trkpt><trkpt lat="43.4982988" lon="11.3764596"><ele>378.0</ele><time>2026-04-19T09:50:27.183Z</time></trkpt><trkpt lat="43.4983815" lon="11.3765189"><ele>380.0</ele><time>2026-04-19T09:50:28.175Z</time></trkpt><trkpt lat="43.4984464" lon="11.376535"><ele>382.0</ele><time>2026-04-19T09:50:29.175Z</time></trkpt><trkpt lat="43.4984935" lon="11.3764416"><ele>383.0</ele><time>2026-04-19T09:50:30.175Z</time></trkpt><trkpt lat="43.4985076" lon="11.3763036"><ele>384.0</ele><time>2026-04-19T09:50:31.165Z</time></trkpt><trkpt lat="43.4984906" lon="11.3761568"><ele>385.0</ele><time>2026-04-19T09:50:32.179Z</time></trkpt><trkpt lat="43.4984481" lon="11.375994"><ele>386.0</ele><time>2026-04-19T09:50:33.18Z</time></trkpt><trkpt lat="43.4984011" lon="11.3758267"><ele>386.0</ele><time>2026-04-19T09:50:34.185Z</time></trkpt><trkpt lat="43.4983582" lon="11.37567"><ele>386.0</ele><time>2026-04-19T09:50:35.191Z</time></trkpt><trkpt lat="43.4983243" lon="11.3755293"><ele>386.0</ele><time>2026-04-19T09:50:36.179Z</time></trkpt><trkpt lat="43.4983224" lon="11.3753905"><ele>386.0</ele><time>2026-04-19T09:50:37.17Z</time></trkpt><trkpt lat="43.4983657" lon="11.3752924"><ele>386.0</ele><time>2026-04-19T09:50:38.177Z</time></trkpt><trkpt lat="43.4984684" lon="11.3752468"><ele>386.66666666666663</ele><time>2026-04-19T09:50:39.179Z</time></trkpt><trkpt lat="43.4986274" lon="11.3752175"><ele>387.33333333333337</ele><time>2026-04-19T09:50:40.176Z</time></trkpt><trkpt lat="43.4988083" lon="11.3751875"><ele>388.0</ele><time>2026-04-19T09:50:41.176Z</time></trkpt><trkpt lat="43.4989726" lon="11.3751427"><ele>389.0</ele><time>2026-04-19T09:50:42.18Z</time></trkpt><trkpt lat="43.4991526" lon="11.3751209"><ele>390.0</ele><time>2026-04-19T09:50:43.179Z</time></trkpt><trkpt lat="43.4993291" lon="11.3751292"><ele>391.0</ele><time>2026-04-19T09:50:44.171Z</time></trkpt><trkpt lat="43.4995036" lon="11.3751501"><ele>392.33333333333337</ele><time>2026-04-19T09:50:45.18Z</time></trkpt><trkpt lat="43.4996743" lon="11.3751898"><ele>393.66666666666663</ele><time>2026-04-19T09:50:46.17Z</time></trkpt><trkpt lat="43.4998501" lon="11.3752371"><ele>395.0</ele><time>2026-04-19T09:50:47.184Z</time></trkpt><trkpt lat="43.5000256" lon="11.3752907"><ele>395.0</ele><time>2026-04-19T09:50:48.168Z</time></trkpt><trkpt lat="43.5001904" lon="11.3753283"><ele>395.0</ele><time>2026-04-19T09:50:49.178Z</time></trkpt><trkpt lat="43.5003483" lon="11.3753527"><ele>395.0</ele><time>2026-04-19T09:50:50.178Z</time></trkpt><trkpt lat="43.500506" lon="11.3753896"><ele>395.25</ele><time>2026-04-19T09:50:51.181Z</time></trkpt><trkpt lat="43.5006501" lon="11.3754211"><ele>395.5</ele><time>2026-04-19T09:50:52.174Z</time></trkpt><trkpt lat="43.5007798" lon="11.3754484"><ele>395.75</ele><time>2026-04-19T09:50:53.182Z</time></trkpt><trkpt lat="43.5008939" lon="11.3754664"><ele>396.0</ele><time>2026-04-19T09:50:54.169Z</time></trkpt><trkpt lat="43.5009928" lon="11.3754971"><ele>396.8</ele><time>2026-04-19T09:50:55.181Z</time></trkpt><trkpt lat="43.5010804" lon="11.3755462"><ele>397.6</ele><time>2026-04-19T09:50:56.174Z</time></trkpt><trkpt lat="43.5011598" lon="11.3756152"><ele>398.4</ele><time>2026-04-19T09:50:57.177Z</time></trkpt><trkpt lat="43.5012295" lon="11.3757106"><ele>399.2</ele><time>2026-04-19T09:50:58.166Z</time></trkpt><trkpt lat="43.5012873" lon="11.3758534"><ele>400.0</ele><time>2026-04-19T09:50:59.182Z</time></trkpt><trkpt lat="43.5013267" lon="11.376038"><ele>400.0</ele><time>2026-04-19T09:51:00.173Z</time></trkpt><trkpt lat="43.5013477" lon="11.3762416"><ele>400.0</ele><time>2026-04-19T09:51:01.17Z</time></trkpt><trkpt lat="43.5013528" lon="11.37645"><ele>400.0</ele><time>2026-04-19T09:51:02.175Z</time></trkpt><trkpt lat="43.5013627" lon="11.3766481"><ele>400.0</ele><time>2026-04-19T09:51:03.17Z</time></trkpt><trkpt lat="43.501391" lon="11.3768441"><ele>401.75</ele><time>2026-04-19T09:51:04.187Z</time></trkpt><trkpt lat="43.5014543" lon="11.3770303"><ele>403.5</ele><time>2026-04-19T09:51:05.175Z</time></trkpt><trkpt lat="43.5015327" lon="11.3771994"><ele>405.25</ele><time>2026-04-19T09:51:06.17Z</time></trkpt><trkpt lat="43.5016265" lon="11.3773532"><ele>407.0</ele><time>2026-04-19T09:51:07.174Z</time></trkpt><trkpt lat="43.5017355" lon="11.3774971"><ele>408.5</ele><time>2026-04-19T09:51:08.182Z</time></trkpt><trkpt lat="43.5018431" lon="11.3776259"><ele>410.0</ele><time>2026-04-19T09:51:09.179Z</time></trkpt><trkpt lat="43.5019644" lon="11.377729"><ele>411.5</ele><time>2026-04-19T09:51:10.184Z</time></trkpt><trkpt lat="43.5020977" lon="11.3778078"><ele>413.0</ele><time>2026-04-19T09:51:11.179Z</time></trkpt><trkpt lat="43.5022336" lon="11.3778612"><ele>413.0</ele><time>2026-04-19T09:51:12.175Z</time></trkpt><trkpt lat="43.502371" lon="11.3779131"><ele>413.0</ele><time>2026-04-19T09:51:13.174Z</time></trkpt><trkpt lat="43.5025142" lon="11.3779503"><ele>413.0</ele><time>2026-04-19T09:51:14.175Z</time></trkpt><trkpt lat="43.5026606" lon="11.3779679"><ele>413.0</ele><time>2026-04-19T09:51:15.159Z</time></trkpt><trkpt lat="43.5028092" lon="11.3779758"><ele>416.3333333333333</ele><time>2026-04-19T09:51:16.174Z</time></trkpt><trkpt lat="43.5029597" lon="11.3779873"><ele>419.66666666666663</ele><time>2026-04-19T09:51:17.175Z</time></trkpt><trkpt lat="43.5031152" lon="11.377998"><ele>423.0</ele><time>2026-04-19T09:51:18.185Z</time></trkpt><trkpt lat="43.5032705" lon="11.3780083"><ele>422.33333333333337</ele><time>2026-04-19T09:51:19.173Z</time></trkpt><trkpt lat="43.5034233" lon="11.3780344"><ele>421.6666666666667</ele><time>2026-04-19T09:51:20.171Z</time></trkpt><trkpt lat="43.5035693" lon="11.3780947"><ele>421.0</ele><time>2026-04-19T09:51:21.179Z</time></trkpt><trkpt lat="43.5037175" lon="11.3781809"><ele>425.0</ele><time>2026-04-19T09:51:22.176Z</time></trkpt><trkpt lat="43.5038678" lon="11.3782619"><ele>429.0</ele><time>2026-04-19T09:51:23.174Z</time></trkpt><trkpt lat="43.5040212" lon="11.378321"><ele>433.0</ele><time>2026-04-19T09:51:24.173Z</time></trkpt><trkpt lat="43.5041806" lon="11.3783756"><ele>433.0</ele><time>2026-04-19T09:51:25.173Z</time></trkpt><trkpt lat="43.5043399" lon="11.3784288"><ele>433.0</ele><time>2026-04-19T09:51:26.175Z</time></trkpt><trkpt lat="43.5044984" lon="11.3784838"><ele>433.0</ele><time>2026-04-19T09:51:27.177Z</time></trkpt><trkpt lat="43.5046563" lon="11.37853"><ele>435.75</ele><time>2026-04-19T09:51:28.179Z</time></trkpt><trkpt lat="43.5048017" lon="11.3785861"><ele>438.5</ele><time>2026-04-19T09:51:29.18Z</time></trkpt><trkpt lat="43.5049326" lon="11.3786668"><ele>441.25</ele><time>2026-04-19T09:51:30.173Z</time></trkpt><trkpt lat="43.5050499" lon="11.3787797"><ele>444.0</ele><time>2026-04-19T09:51:31.173Z</time></trkpt><trkpt lat="43.5051461" lon="11.3789472"><ele>444.0</ele><time>2026-04-19T09:51:32.174Z</time></trkpt><trkpt lat="43.5052341" lon="11.3791308"><ele>444.0</ele><time>2026-04-19T09:51:33.172Z</time></trkpt><trkpt lat="43.5053273" lon="11.3793017"><ele>444.0</ele><time>2026-04-19T09:51:34.191Z</time></trkpt><trkpt lat="43.5054159" lon="11.3794498"><ele>446.6666666666667</ele><time>2026-04-19T09:51:35.177Z</time></trkpt><trkpt lat="43.5054987" lon="11.3795477"><ele>449.33333333333337</ele><time>2026-04-19T09:51:36.175Z</time></trkpt><trkpt lat="43.5055737" lon="11.379579"><ele>452.0</ele><time>2026-04-19T09:51:37.171Z</time></trkpt><trkpt lat="43.505641" lon="11.37953"><ele>454.6666666666667</ele><time>2026-04-19T09:51:38.169Z</time></trkpt><trkpt lat="43.5056725" lon="11.3794157"><ele>457.33333333333337</ele><time>2026-04-19T09:51:39.173Z</time></trkpt><trkpt lat="43.505682" lon="11.3792883"><ele>460.0</ele><time>2026-04-19T09:51:40.172Z</time></trkpt><trkpt lat="43.5056696" lon="11.3791609"><ele>460.0</ele><time>2026-04-19T09:51:41.167Z</time></trkpt><trkpt lat="43.5056326" lon="11.3790049"><ele>460.0</ele><time>2026-04-19T09:51:42.189Z</time></trkpt><trkpt lat="43.5055938" lon="11.3788459"><ele>460.0</ele><time>2026-04-19T09:51:43.176Z</time></trkpt><trkpt lat="43.5055616" lon="11.3786939"><ele>460.0</ele><time>2026-04-19T09:51:44.179Z</time></trkpt><trkpt lat="43.5055451" lon="11.3785527"><ele>459.83333333333337</ele><time>2026-04-19T09:51:45.17Z</time></trkpt><trkpt lat="43.5055495" lon="11.3784313"><ele>459.6666666666667</ele><time>2026-04-19T09:51:46.17Z</time></trkpt><trkpt lat="43.5055794" lon="11.3783411"><ele>459.5</ele><time>2026-04-19T09:51:47.174Z</time></trkpt><trkpt lat="43.505632" lon="11.3782808"><ele>459.33333333333337</ele><time>2026-04-19T09:51:48.177Z</time></trkpt><trkpt lat="43.505715" lon="11.3782613"><ele>459.1666666666667</ele><time>2026-04-19T09:51:49.155Z</time></trkpt><trkpt lat="43.5058168" lon="11.3782963"><ele>459.0</ele><time>2026-04-19T09:51:50.175Z</time></trkpt><trkpt lat="43.5059064" lon="11.3783445"><ele>459.0</ele><time>2026-04-19T09:51:51.154Z</time></trkpt><trkpt lat="43.5060073" lon="11.3784515"><ele>459.0</ele><time>2026-04-19T09:51:52.173Z</time></trkpt><trkpt lat="43.5061059" lon="11.3785874"><ele>459.0</ele><time>2026-04-19T09:51:53.164Z</time></trkpt><trkpt lat="43.506178" lon="11.3787355"><ele>459.0</ele><time>2026-04-19T09:51:54.169Z</time></trkpt><trkpt lat="43.5062616" lon="11.3788811"><ele>461.25</ele><time>2026-04-19T09:51:55.173Z</time></trkpt><trkpt lat="43.5063658" lon="11.3789951"><ele>463.5</ele><time>2026-04-19T09:51:56.175Z</time></trkpt><trkpt lat="43.5064846" lon="11.3790758"><ele>465.75</ele><time>2026-04-19T09:51:57.177Z</time></trkpt><trkpt lat="43.5066133" lon="11.3791564"><ele>468.0</ele><time>2026-04-19T09:51:58.175Z</time></trkpt><trkpt lat="43.5067454" lon="11.3792329"><ele>468.0</ele><time>2026-04-19T09:51:59.187Z</time></trkpt><trkpt lat="43.5068851" lon="11.3793172"><ele>468.0</ele><time>2026-04-19T09:52:00.177Z</time></trkpt><trkpt lat="43.5070209" lon="11.3794017"><ele>468.0</ele><time>2026-04-19T09:52:01.183Z</time></trkpt><trkpt lat="43.5071583" lon="11.3794703"><ele>468.0</ele><time>2026-04-19T09:52:02.184Z</time></trkpt><trkpt lat="43.5072944" lon="11.3795361"><ele>471.66666666666663</ele><time>2026-04-19T09:52:03.188Z</time></trkpt><trkpt lat="43.5074396" lon="11.3795893"><ele>475.3333333333333</ele><time>2026-04-19T09:52:04.175Z</time></trkpt><trkpt lat="43.5075942" lon="11.3796121"><ele>479.0</ele><time>2026-04-19T09:52:05.176Z</time></trkpt><trkpt lat="43.5077557" lon="11.3796276"><ele>482.0</ele><time>2026-04-19T09:52:06.18Z</time></trkpt><trkpt lat="43.5079257" lon="11.3796528"><ele>485.0</ele><time>2026-04-19T09:52:07.178Z</time></trkpt><trkpt lat="43.5080939" lon="11.3796949"><ele>488.0</ele><time>2026-04-19T09:52:08.18Z</time></trkpt><trkpt lat="43.5082566" lon="11.3797543"><ele>488.0</ele><time>2026-04-19T09:52:09.172Z</time></trkpt><trkpt lat="43.5084134" lon="11.3798296"><ele>488.0</ele><time>2026-04-19T09:52:10.172Z</time></trkpt><trkpt lat="43.508569" lon="11.3799172"><ele>488.0</ele><time>2026-04-19T09:52:11.177Z</time></trkpt><trkpt lat="43.5087318" lon="11.3800057"><ele>492.0</ele><time>2026-04-19T09:52:12.172Z</time></trkpt><trkpt lat="43.5088896" lon="11.3800926"><ele>496.0</ele><time>2026-04-19T09:52:13.179Z</time></trkpt><trkpt lat="43.5090415" lon="11.380173"><ele>500.0</ele><time>2026-04-19T09:52:14.175Z</time></trkpt><trkpt lat="43.5091901" lon="11.3802307"><ele>500.0</ele><time>2026-04-19T09:52:15.182Z</time></trkpt><trkpt lat="43.5093272" lon="11.3802668"><ele>500.0</ele><time>2026-04-19T09:52:16.161Z</time></trkpt><trkpt lat="43.5094512" lon="11.3802844"><ele>500.0</ele><time>2026-04-19T09:52:17.171Z</time></trkpt><trkpt lat="43.5095642" lon="11.3802753"><ele>500.0</ele><time>2026-04-19T09:52:18.18Z</time></trkpt><trkpt lat="43.5096563" lon="11.3802212"><ele>501.2</ele><time>2026-04-19T09:52:19.171Z</time></trkpt><trkpt lat="43.5097174" lon="11.3801264"><ele>502.4</ele><time>2026-04-19T09:52:20.179Z</time></trkpt><trkpt lat="43.509778" lon="11.3800169"><ele>503.6</ele><time>2026-04-19T09:52:21.17Z</time></trkpt><trkpt lat="43.5098784" lon="11.3799553"><ele>504.8</ele><time>2026-04-19T09:52:22.18Z</time></trkpt><trkpt lat="43.5099854" lon="11.3799379"><ele>506.0</ele><time>2026-04-19T09:52:23.174Z</time></trkpt><trkpt lat="43.510101" lon="11.3799568"><ele>506.0</ele><time>2026-04-19T09:52:24.174Z</time></trkpt><trkpt lat="43.5102129" lon="11.3800238"><ele>506.0</ele><time>2026-04-19T09:52:25.151Z</time></trkpt><trkpt lat="43.5103112" lon="11.3801332"><ele>506.0</ele><time>2026-04-19T09:52:26.175Z</time></trkpt><trkpt lat="43.5104107" lon="11.3802498"><ele>506.0</ele><time>2026-04-19T09:52:27.176Z</time></trkpt><trkpt lat="43.510518" lon="11.3803324"><ele>508.75</ele><time>2026-04-19T09:52:28.185Z</time></trkpt><trkpt lat="43.5106389" lon="11.3803785"><ele>511.5</ele><time>2026-04-19T09:52:29.174Z</time></trkpt><trkpt lat="43.510758" lon="11.380387"><ele>514.25</ele><time>2026-04-19T09:52:30.172Z</time></trkpt><trkpt lat="43.5108538" lon="11.3803163"><ele>517.0</ele><time>2026-04-19T09:52:31.181Z</time></trkpt><trkpt lat="43.5109284" lon="11.3802064"><ele>517.0</ele><time>2026-04-19T09:52:32.185Z</time></trkpt><trkpt lat="43.5109946" lon="11.3801192"><ele>517.0</ele><time>2026-04-19T09:52:33.158Z</time></trkpt><trkpt lat="43.5110849" lon="11.380071"><ele>517.0</ele><time>2026-04-19T09:52:34.184Z</time></trkpt><trkpt lat="43.5111788" lon="11.3800834"><ele>517.0</ele><time>2026-04-19T09:52:35.164Z</time></trkpt><trkpt lat="43.5112717" lon="11.3801643"><ele>517.0</ele><time>2026-04-19T09:52:36.176Z</time></trkpt><trkpt lat="43.5113344" lon="11.3803031"><ele>519.0</ele><time>2026-04-19T09:52:37.177Z</time></trkpt><trkpt lat="43.5113954" lon="11.3804557"><ele>521.0</ele><time>2026-04-19T09:52:38.169Z</time></trkpt><trkpt lat="43.5114851" lon="11.3805442"><ele>523.0</ele><time>2026-04-19T09:52:39.177Z</time></trkpt><trkpt lat="43.5116016" lon="11.3805927"><ele>525.0</ele><time>2026-04-19T09:52:40.175Z</time></trkpt><trkpt lat="43.5117042" lon="11.3806654"><ele>526.75</ele><time>2026-04-19T09:52:41.181Z</time></trkpt><trkpt lat="43.5117971" lon="11.3807772"><ele>528.5</ele><time>2026-04-19T09:52:42.178Z</time></trkpt><trkpt lat="43.5118536" lon="11.3809262"><ele>530.25</ele><time>2026-04-19T09:52:43.175Z</time></trkpt><trkpt lat="43.5118812" lon="11.3810873"><ele>532.0</ele><time>2026-04-19T09:52:44.196Z</time></trkpt><trkpt lat="43.511896" lon="11.3812544"><ele>532.5</ele><time>2026-04-19T09:52:45.184Z</time></trkpt><trkpt lat="43.5119565" lon="11.3814106"><ele>533.0</ele><time>2026-04-19T09:52:46.16Z</time></trkpt><trkpt lat="43.5120265" lon="11.3815682"><ele>533.5</ele><time>2026-04-19T09:52:47.178Z</time></trkpt><trkpt lat="43.5120703" lon="11.3817299"><ele>534.0</ele><time>2026-04-19T09:52:48.182Z</time></trkpt><trkpt lat="43.5120793" lon="11.3818886"><ele>534.0</ele><time>2026-04-19T09:52:49.175Z</time></trkpt><trkpt lat="43.5120565" lon="11.3820408"><ele>534.0</ele><time>2026-04-19T09:52:50.179Z</time></trkpt><trkpt lat="43.5120086" lon="11.3821863"><ele>534.0</ele><time>2026-04-19T09:52:51.17Z</time></trkpt><trkpt lat="43.5119392" lon="11.3823396"><ele>534.0</ele><time>2026-04-19T09:52:52.173Z</time></trkpt><trkpt lat="43.5118849" lon="11.3824891"><ele>535.2</ele><time>2026-04-19T09:52:53.181Z</time></trkpt><trkpt lat="43.5118764" lon="11.3826181"><ele>536.4</ele><time>2026-04-19T09:52:54.175Z</time></trkpt><trkpt lat="43.5119126" lon="11.3827331"><ele>537.6</ele><time>2026-04-19T09:52:55.178Z</time></trkpt><trkpt lat="43.5119896" lon="11.3828056"><ele>538.8</ele><time>2026-04-19T09:52:56.178Z</time></trkpt><trkpt lat="43.5120807" lon="11.3828217"><ele>540.0</ele><time>2026-04-19T09:52:57.173Z</time></trkpt><trkpt lat="43.5121929" lon="11.3827973"><ele>542.75</ele><time>2026-04-19T09:52:58.175Z</time></trkpt><trkpt lat="43.5123033" lon="11.3827421"><ele>545.5</ele><time>2026-04-19T09:52:59.178Z</time></trkpt><trkpt lat="43.5124189" lon="11.3826818"><ele>548.25</ele><time>2026-04-19T09:53:00.172Z</time></trkpt><trkpt lat="43.5125421" lon="11.3826239"><ele>551.0</ele><time>2026-04-19T09:53:01.171Z</time></trkpt><trkpt lat="43.5126796" lon="11.3825605"><ele>551.0</ele><time>2026-04-19T09:53:02.175Z</time></trkpt><trkpt lat="43.5128204" lon="11.3825007"><ele>551.0</ele><time>2026-04-19T09:53:03.166Z</time></trkpt><trkpt lat="43.5129684" lon="11.38245"><ele>551.0</ele><time>2026-04-19T09:53:04.165Z</time></trkpt><trkpt lat="43.5131212" lon="11.3824214"><ele>553.3333333333333</ele><time>2026-04-19T09:53:05.177Z</time></trkpt><trkpt lat="43.5132773" lon="11.3824083"><ele>555.6666666666666</ele><time>2026-04-19T09:53:06.179Z</time></trkpt><trkpt lat="43.5134418" lon="11.3823927"><ele>558.0</ele><time>2026-04-19T09:53:07.165Z</time></trkpt><trkpt lat="43.5136103" lon="11.3823789"><ele>560.3333333333334</ele><time>2026-04-19T09:53:08.164Z</time></trkpt><trkpt lat="43.5137822" lon="11.3823601"><ele>562.6666666666667</ele><time>2026-04-19T09:53:09.176Z</time></trkpt><trkpt lat="43.5139572" lon="11.3823441"><ele>565.0</ele><time>2026-04-19T09:53:10.175Z</time></trkpt><trkpt lat="43.5141337" lon="11.3823297"><ele>565.0</ele><time>2026-04-19T09:53:11.182Z</time></trkpt><trkpt lat="43.514307" lon="11.3823088"><ele>565.0</ele><time>2026-04-19T09:53:12.156Z</time></trkpt><trkpt lat="43.514478" lon="11.382269"><ele>565.0</ele><time>2026-04-19T09:53:13.175Z</time></trkpt><trkpt lat="43.5146442" lon="11.3822171"><ele>572.0</ele><time>2026-04-19T09:53:14.178Z</time></trkpt><trkpt lat="43.5148086" lon="11.3821772"><ele>579.0</ele><time>2026-04-19T09:53:15.18Z</time></trkpt><trkpt lat="43.5149636" lon="11.3821684"><ele>586.0</ele><time>2026-04-19T09:53:16.178Z</time></trkpt><trkpt lat="43.5151026" lon="11.3821773"><ele>586.0</ele><time>2026-04-19T09:53:17.188Z</time></trkpt><trkpt lat="43.5152334" lon="11.382175"><ele>586.0</ele><time>2026-04-19T09:53:18.16Z</time></trkpt><trkpt lat="43.5153584" lon="11.3821605"><ele>586.0</ele><time>2026-04-19T09:53:19.175Z</time></trkpt><trkpt lat="43.515467" lon="11.3821121"><ele>586.0</ele><time>2026-04-19T09:53:20.177Z</time></trkpt><trkpt lat="43.5155725" lon="11.3820589"><ele>588.5</ele><time>2026-04-19T09:53:21.183Z</time></trkpt><trkpt lat="43.5156719" lon="11.3820332"><ele>591.0</ele><time>2026-04-19T09:53:22.175Z</time></trkpt><trkpt lat="43.515785" lon="11.382083"><ele>593.5</ele><time>2026-04-19T09:53:23.173Z</time></trkpt><trkpt lat="43.515906" lon="11.3821415"><ele>596.0</ele><time>2026-04-19T09:53:24.177Z</time></trkpt><trkpt lat="43.5160371" lon="11.3821647"><ele>596.0</ele><time>2026-04-19T09:53:25.18Z</time></trkpt><trkpt lat="43.5161635" lon="11.3821744"><ele>596.0</ele><time>2026-04-19T09:53:26.181Z</time></trkpt><trkpt lat="43.5162971" lon="11.3821679"><ele>596.0</ele><time>2026-04-19T09:53:27.182Z</time></trkpt><trkpt lat="43.516437" lon="11.3821493"><ele>596.0</ele><time>2026-04-19T09:53:28.181Z</time></trkpt><trkpt lat="43.5165659" lon="11.3821307"><ele>598.4</ele><time>2026-04-19T09:53:29.181Z</time></trkpt><trkpt lat="43.5166821" lon="11.3821094"><ele>600.8</ele><time>2026-04-19T09:53:30.175Z</time></trkpt><trkpt lat="43.5167864" lon="11.3820799"><ele>603.1999999999999</ele><time>2026-04-19T09:53:31.169Z</time></trkpt><trkpt lat="43.5168626" lon="11.3820411"><ele>605.6</ele><time>2026-04-19T09:53:32.177Z</time></trkpt><trkpt lat="43.5169208" lon="11.3819843"><ele>608.0</ele><time>2026-04-19T09:53:33.176Z</time></trkpt><trkpt lat="43.5169193" lon="11.3817948"><ele>608.0</ele><time>2026-04-19T09:53:35.172Z</time></trkpt><trkpt lat="43.5168831" lon="11.3817135"><ele>608.0</ele><time>2026-04-19T09:53:36.175Z</time></trkpt><trkpt lat="43.5168215" lon="11.3816621"><ele>608.0</ele><time>2026-04-19T09:53:37.17Z</time></trkpt><trkpt lat="43.5167585" lon="11.3816273"><ele>608.0</ele><time>2026-04-19T09:53:38.174Z</time></trkpt><trkpt lat="43.5166723" lon="11.3816347"><ele>608.0</ele><time>2026-04-19T09:53:39.169Z</time></trkpt><trkpt lat="43.5165922" lon="11.3816561"><ele>608.0</ele><time>2026-04-19T09:53:40.162Z</time></trkpt><trkpt lat="43.5165117" lon="11.3816627"><ele>608.0</ele><time>2026-04-19T09:53:41.168Z</time></trkpt><trkpt lat="43.5164331" lon="11.381638"><ele>608.0</ele><time>2026-04-19T09:53:42.173Z</time></trkpt><trkpt lat="43.5163835" lon="11.3815611"><ele>608.0</ele><time>2026-04-19T09:53:43.179Z</time></trkpt><trkpt lat="43.5163746" lon="11.3814599"><ele>608.0</ele><time>2026-04-19T09:53:44.173Z</time></trkpt><trkpt lat="43.5163945" lon="11.381357"><ele>608.0</ele><time>2026-04-19T09:53:45.167Z</time></trkpt><trkpt lat="43.5164502" lon="11.3812601"><ele>608.0</ele><time>2026-04-19T09:53:46.169Z</time></trkpt><trkpt lat="43.5164993" lon="11.3811811"><ele>608.5</ele><time>2026-04-19T09:53:47.237Z</time></trkpt><trkpt lat="43.516553" lon="11.3811305"><ele>609.0</ele><time>2026-04-19T09:53:49.173Z</time></trkpt><trkpt lat="43.5165954" lon="11.3810576"><ele>609.5</ele><time>2026-04-19T09:53:52.169Z</time></trkpt><trkpt lat="43.5166171" lon="11.3809154"><ele>610.0</ele><time>2026-04-19T09:54:29.181Z</time></trkpt><trkpt lat="43.5166427" lon="11.3808311"><ele>610.5</ele><time>2026-04-19T09:54:30.175Z</time></trkpt><trkpt lat="43.5167161" lon="11.3807051"><ele>611.0</ele><time>2026-04-19T09:54:32.175Z</time></trkpt><trkpt lat="43.5167465" lon="11.3806169"><ele>611.0</ele><time>2026-04-19T09:54:34.176Z</time></trkpt><trkpt lat="43.5168042" lon="11.3805683"><ele>611.0</ele><time>2026-04-19T09:54:38.178Z</time></trkpt><trkpt lat="43.5167596" lon="11.3806789"><ele>611.0</ele><time>2026-04-19T09:55:01.167Z</time></trkpt><trkpt lat="43.5167144" lon="11.380841"><ele>611.0</ele><time>2026-04-19T09:55:03.154Z</time></trkpt><trkpt lat="43.5166771" lon="11.3809242"><ele>611.0</ele><time>2026-04-19T09:55:04.174Z</time></trkpt><trkpt lat="43.5166404" lon="11.3810468"><ele>611.0</ele><time>2026-04-19T09:55:06.158Z</time></trkpt><trkpt lat="43.5166181" lon="11.3811314"><ele>611.0</ele><time>2026-04-19T09:55:08.163Z</time></trkpt><trkpt lat="43.5166214" lon="11.3812249"><ele>611.0</ele><time>2026-04-19T09:55:10.173Z</time></trkpt><trkpt lat="43.5166967" lon="11.3813279"><ele>611.0</ele><time>2026-04-19T09:55:12.172Z</time></trkpt><trkpt lat="43.5167988" lon="11.3814008"><ele>611.0</ele><time>2026-04-19T09:55:14.177Z</time></trkpt><trkpt lat="43.5168955" lon="11.3814612"><ele>611.2</ele><time>2026-04-19T09:55:16.16Z</time></trkpt><trkpt lat="43.5169662" lon="11.3814624"><ele>611.4000000000001</ele><time>2026-04-19T09:55:18.157Z</time></trkpt><trkpt lat="43.5170656" lon="11.3814609"><ele>611.6</ele><time>2026-04-19T09:55:21.176Z</time></trkpt><trkpt lat="43.5171662" lon="11.3814676"><ele>611.8000000000001</ele><time>2026-04-19T09:55:23.182Z</time></trkpt><trkpt lat="43.5172945" lon="11.3814499"><ele>612.0</ele><time>2026-04-19T09:55:25.169Z</time></trkpt><trkpt lat="43.5173588" lon="11.3814425"><ele>612.0</ele><time>2026-04-19T09:55:26.176Z</time></trkpt><trkpt lat="43.5174735" lon="11.3814395"><ele>612.0</ele><time>2026-04-19T09:55:28.166Z</time></trkpt><trkpt lat="43.5175786" lon="11.3814463"><ele>612.0</ele><time>2026-04-19T09:55:30.167Z</time></trkpt><trkpt lat="43.5176758" lon="11.3814647"><ele>612.0</ele><time>2026-04-19T09:55:32.177Z</time></trkpt><trkpt lat="43.5177716" lon="11.3815031"><ele>612.0</ele><time>2026-04-19T09:55:34.154Z</time></trkpt><trkpt lat="43.5178761" lon="11.3815932"><ele>613.6666666666666</ele><time>2026-04-19T09:55:36.172Z</time></trkpt><trkpt lat="43.5179314" lon="11.3816447"><ele>615.3333333333334</ele><time>2026-04-19T09:55:37.174Z</time></trkpt><trkpt lat="43.5180149" lon="11.3817061"><ele>617.0</ele><time>2026-04-19T09:55:39.168Z</time></trkpt><trkpt lat="43.518077" lon="11.3817449"><ele>618.6666666666667</ele><time>2026-04-19T09:55:41.178Z</time></trkpt><trkpt lat="43.5181459" lon="11.3817804"><ele>620.3333333333334</ele><time>2026-04-19T09:55:44.179Z</time></trkpt><trkpt lat="43.5182104" lon="11.3817935"><ele>622.0</ele><time>2026-04-19T09:55:46.175Z</time></trkpt><trkpt lat="43.5183083" lon="11.3818095"><ele>622.0</ele><time>2026-04-19T09:55:48.172Z</time></trkpt><trkpt lat="43.5184249" lon="11.3818191"><ele>622.0</ele><time>2026-04-19T09:55:50.183Z</time></trkpt><trkpt lat="43.5184883" lon="11.381812"><ele>622.0</ele><time>2026-04-19T09:55:51.17Z</time></trkpt><trkpt lat="43.5185612" lon="11.3817981"><ele>622.0</ele><time>2026-04-19T09:55:52.174Z</time></trkpt><trkpt lat="43.5186419" lon="11.3817787"><ele>622.0</ele><time>2026-04-19T09:55:53.184Z</time></trkpt><trkpt lat="43.5187201" lon="11.3817621"><ele>622.0</ele><time>2026-04-19T09:55:54.176Z</time></trkpt><trkpt lat="43.5188009" lon="11.3817608"><ele>624.3333333333334</ele><time>2026-04-19T09:55:55.174Z</time></trkpt><trkpt lat="43.5188786" lon="11.3817735"><ele>626.6666666666667</ele><time>2026-04-19T09:55:56.173Z</time></trkpt><trkpt lat="43.5189451" lon="11.3817993"><ele>629.0</ele><time>2026-04-19T09:55:57.178Z</time></trkpt><trkpt lat="43.5190496" lon="11.3818986"><ele>631.3333333333334</ele><time>2026-04-19T09:55:59.162Z</time></trkpt><trkpt lat="43.5191032" lon="11.3819744"><ele>633.6666666666666</ele><time>2026-04-19T09:56:00.181Z</time></trkpt><trkpt lat="43.5191619" lon="11.3820371"><ele>636.0</ele><time>2026-04-19T09:56:01.159Z</time></trkpt><trkpt lat="43.5192168" lon="11.3821003"><ele>636.0</ele><time>2026-04-19T09:56:02.162Z</time></trkpt><trkpt lat="43.519267" lon="11.3821544"><ele>636.0</ele><time>2026-04-19T09:56:03.171Z</time></trkpt><trkpt lat="43.5193291" lon="11.3822733"><ele>636.0</ele><time>2026-04-19T09:56:05.163Z</time></trkpt><trkpt lat="43.5193531" lon="11.3824264"><ele>636.0</ele><time>2026-04-19T09:56:07.17Z</time></trkpt><trkpt lat="43.5193622" lon="11.382514"><ele>636.0</ele><time>2026-04-19T09:56:08.174Z</time></trkpt><trkpt lat="43.5193858" lon="11.3826079"><ele>636.0</ele><time>2026-04-19T09:56:09.172Z</time></trkpt><trkpt lat="43.5194225" lon="11.3827047"><ele>636.6666666666666</ele><time>2026-04-19T09:56:10.172Z</time></trkpt><trkpt lat="43.5194691" lon="11.3827848"><ele>637.3333333333334</ele><time>2026-04-19T09:56:11.169Z</time></trkpt><trkpt lat="43.5195251" lon="11.3828549"><ele>638.0</ele><time>2026-04-19T09:56:12.17Z</time></trkpt><trkpt lat="43.5195918" lon="11.3829099"><ele>638.6666666666667</ele><time>2026-04-19T09:56:13.169Z</time></trkpt><trkpt lat="43.5196765" lon="11.382938"><ele>639.3333333333334</ele><time>2026-04-19T09:56:14.173Z</time></trkpt><trkpt lat="43.5197692" lon="11.3829508"><ele>640.0</ele><time>2026-04-19T09:56:15.174Z</time></trkpt><trkpt lat="43.5198717" lon="11.3829493"><ele>642.8</ele><time>2026-04-19T09:56:16.169Z</time></trkpt><trkpt lat="43.5199776" lon="11.382952"><ele>645.6</ele><time>2026-04-19T09:56:17.169Z</time></trkpt><trkpt lat="43.5200881" lon="11.3829663"><ele>648.4000000000001</ele><time>2026-04-19T09:56:18.186Z</time></trkpt><trkpt lat="43.5201986" lon="11.3829967"><ele>651.2</ele><time>2026-04-19T09:56:19.157Z</time></trkpt><trkpt lat="43.520304" lon="11.3830352"><ele>654.0</ele><time>2026-04-19T09:56:20.18Z</time></trkpt><trkpt lat="43.5203887" lon="11.3830984"><ele>655.8000000000001</ele><time>2026-04-19T09:56:21.171Z</time></trkpt><trkpt lat="43.5204627" lon="11.3831822"><ele>657.6</ele><time>2026-04-19T09:56:22.171Z</time></trkpt><trkpt lat="43.5205168" lon="11.3832877"><ele>659.4</ele><time>2026-04-19T09:56:23.183Z</time></trkpt><trkpt lat="43.5205521" lon="11.3833958"><ele>661.2</ele><time>2026-04-19T09:56:24.178Z</time></trkpt><trkpt lat="43.5205655" lon="11.3835272"><ele>663.0</ele><time>2026-04-19T09:56:25.175Z</time></trkpt><trkpt lat="43.5205783" lon="11.3836619"><ele>663.0</ele><time>2026-04-19T09:56:26.169Z</time></trkpt><trkpt lat="43.5205842" lon="11.3838013"><ele>663.0</ele><time>2026-04-19T09:56:27.171Z</time></trkpt><trkpt lat="43.5205895" lon="11.3839487"><ele>663.0</ele><time>2026-04-19T09:56:28.178Z</time></trkpt><trkpt lat="43.520601" lon="11.3840819"><ele>663.0</ele><time>2026-04-19T09:56:29.174Z</time></trkpt><trkpt lat="43.5206184" lon="11.3842042"><ele>663.0</ele><time>2026-04-19T09:56:30.172Z</time></trkpt><trkpt lat="43.5206476" lon="11.3843145"><ele>664.8</ele><time>2026-04-19T09:56:31.157Z</time></trkpt><trkpt lat="43.5206849" lon="11.3844251"><ele>666.5999999999999</ele><time>2026-04-19T09:56:32.176Z</time></trkpt><trkpt lat="43.5207303" lon="11.3845311"><ele>668.4000000000001</ele><time>2026-04-19T09:56:33.186Z</time></trkpt><trkpt lat="43.5207759" lon="11.3846451"><ele>670.2</ele><time>2026-04-19T09:56:34.176Z</time></trkpt><trkpt lat="43.5208108" lon="11.3847727"><ele>672.0</ele><time>2026-04-19T09:56:35.177Z</time></trkpt><trkpt lat="43.5208422" lon="11.3848928"><ele>672.4000000000001</ele><time>2026-04-19T09:56:36.173Z</time></trkpt><trkpt lat="43.5208821" lon="11.3850025"><ele>672.8000000000001</ele><time>2026-04-19T09:56:37.167Z</time></trkpt><trkpt lat="43.5209325" lon="11.3851086"><ele>673.2</ele><time>2026-04-19T09:56:38.165Z</time></trkpt><trkpt lat="43.5209946" lon="11.3852004"><ele>673.6</ele><time>2026-04-19T09:56:39.166Z</time></trkpt><trkpt lat="43.5210678" lon="11.3852889"><ele>674.0</ele><time>2026-04-19T09:56:40.154Z</time></trkpt><trkpt lat="43.5211428" lon="11.3853689"><ele>674.0</ele><time>2026-04-19T09:56:41.167Z</time></trkpt><trkpt lat="43.5212263" lon="11.3854456"><ele>674.0</ele><time>2026-04-19T09:56:42.161Z</time></trkpt><trkpt lat="43.5213152" lon="11.3855249"><ele>674.0</ele><time>2026-04-19T09:56:43.173Z</time></trkpt><trkpt lat="43.5214072" lon="11.3856054"><ele>674.0</ele><time>2026-04-19T09:56:44.163Z</time></trkpt><trkpt lat="43.5214988" lon="11.3856851"><ele>674.0</ele><time>2026-04-19T09:56:45.159Z</time></trkpt><trkpt lat="43.5215767" lon="11.3857584"><ele>677.4000000000001</ele><time>2026-04-19T09:56:46.159Z</time></trkpt><trkpt lat="43.5216405" lon="11.3858434"><ele>680.8</ele><time>2026-04-19T09:56:47.181Z</time></trkpt><trkpt lat="43.5216951" lon="11.3859355"><ele>684.2</ele><time>2026-04-19T09:56:48.151Z</time></trkpt><trkpt lat="43.521736" lon="11.3860552"><ele>687.5999999999999</ele><time>2026-04-19T09:56:49.169Z</time></trkpt><trkpt lat="43.5217703" lon="11.3861832"><ele>691.0</ele><time>2026-04-19T09:56:50.159Z</time></trkpt><trkpt lat="43.5217772" lon="11.3862968"><ele>690.9999999999999</ele><time>2026-04-19T09:56:51.18Z</time></trkpt><trkpt lat="43.5217683" lon="11.3864006"><ele>691.0</ele><time>2026-04-19T09:56:52.169Z</time></trkpt><trkpt lat="43.5217328" lon="11.386497"><ele>691.0</ele><time>2026-04-19T09:56:53.182Z</time></trkpt><trkpt lat="43.521706" lon="11.3865857"><ele>691.0</ele><time>2026-04-19T09:56:54.162Z</time></trkpt><trkpt lat="43.5217019" lon="11.3866824"><ele>691.0</ele><time>2026-04-19T09:56:55.17Z</time></trkpt><trkpt lat="43.5217096" lon="11.3867741"><ele>690.9999999999999</ele><time>2026-04-19T09:56:56.179Z</time></trkpt><trkpt lat="43.521737" lon="11.3868786"><ele>691.0</ele><time>2026-04-19T09:56:57.182Z</time></trkpt><trkpt lat="43.5217778" lon="11.3869766"><ele>691.0</ele><time>2026-04-19T09:56:58.171Z</time></trkpt><trkpt lat="43.5218374" lon="11.3870651"><ele>691.0</ele><time>2026-04-19T09:56:59.184Z</time></trkpt><trkpt lat="43.5219158" lon="11.3871365"><ele>691.0</ele><time>2026-04-19T09:57:00.172Z</time></trkpt><trkpt lat="43.5220073" lon="11.3872006"><ele>691.0</ele><time>2026-04-19T09:57:01.183Z</time></trkpt><trkpt lat="43.5221035" lon="11.3872508"><ele>691.0</ele><time>2026-04-19T09:57:02.181Z</time></trkpt><trkpt lat="43.52221" lon="11.3872869"><ele>691.75</ele><time>2026-04-19T09:57:03.171Z</time></trkpt><trkpt lat="43.5223097" lon="11.3873067"><ele>692.5</ele><time>2026-04-19T09:57:04.187Z</time></trkpt><trkpt lat="43.5224183" lon="11.3873086"><ele>693.25</ele><time>2026-04-19T09:57:05.169Z</time></trkpt><trkpt lat="43.5225433" lon="11.3872947"><ele>694.0</ele><time>2026-04-19T09:57:06.182Z</time></trkpt><trkpt lat="43.5226678" lon="11.387283"><ele>694.0</ele><time>2026-04-19T09:57:07.173Z</time></trkpt><trkpt lat="43.5227802" lon="11.3872701"><ele>694.0</ele><time>2026-04-19T09:57:08.176Z</time></trkpt><trkpt lat="43.5228841" lon="11.3872423"><ele>694.0</ele><time>2026-04-19T09:57:09.163Z</time></trkpt><trkpt lat="43.5229953" lon="11.3871956"><ele>694.0</ele><time>2026-04-19T09:57:10.167Z</time></trkpt><trkpt lat="43.5231116" lon="11.3871294"><ele>697.5</ele><time>2026-04-19T09:57:11.186Z</time></trkpt><trkpt lat="43.5232362" lon="11.387055"><ele>701.0</ele><time>2026-04-19T09:57:12.172Z</time></trkpt><trkpt lat="43.5233661" lon="11.3869748"><ele>704.5</ele><time>2026-04-19T09:57:13.177Z</time></trkpt><trkpt lat="43.5235016" lon="11.3868883"><ele>708.0</ele><time>2026-04-19T09:57:14.172Z</time></trkpt><trkpt lat="43.5236439" lon="11.3868006"><ele>707.3333333333334</ele><time>2026-04-19T09:57:15.155Z</time></trkpt><trkpt lat="43.523783" lon="11.386695"><ele>706.6666666666667</ele><time>2026-04-19T09:57:16.175Z</time></trkpt><trkpt lat="43.5239121" lon="11.3865948"><ele>706.0</ele><time>2026-04-19T09:57:17.155Z</time></trkpt><trkpt lat="43.5240396" lon="11.3865016"><ele>706.0</ele><time>2026-04-19T09:57:18.178Z</time></trkpt><trkpt lat="43.5241558" lon="11.386438"><ele>706.0</ele><time>2026-04-19T09:57:19.168Z</time></trkpt><trkpt lat="43.5242748" lon="11.3864161"><ele>706.0</ele><time>2026-04-19T09:57:20.175Z</time></trkpt><trkpt lat="43.5243976" lon="11.3864135"><ele>706.0</ele><time>2026-04-19T09:57:21.156Z</time></trkpt><trkpt lat="43.5245156" lon="11.3864178"><ele>705.5</ele><time>2026-04-19T09:57:22.18Z</time></trkpt><trkpt lat="43.5246191" lon="11.3864181"><ele>705.0</ele><time>2026-04-19T09:57:23.177Z</time></trkpt><trkpt lat="43.5247043" lon="11.3864002"><ele>704.5</ele><time>2026-04-19T09:57:24.179Z</time></trkpt><trkpt lat="43.5247808" lon="11.3863649"><ele>704.0</ele><time>2026-04-19T09:57:25.189Z</time></trkpt><trkpt lat="43.5248488" lon="11.3863189"><ele>703.5</ele><time>2026-04-19T09:57:26.182Z</time></trkpt><trkpt lat="43.5249109" lon="11.3862355"><ele>703.0</ele><time>2026-04-19T09:57:27.178Z</time></trkpt><trkpt lat="43.5249501" lon="11.3860965"><ele>706.0</ele><time>2026-04-19T09:57:28.156Z</time></trkpt><trkpt lat="43.524984" lon="11.3859551"><ele>709.0</ele><time>2026-04-19T09:57:29.17Z</time></trkpt><trkpt lat="43.5250254" lon="11.3858064"><ele>712.0</ele><time>2026-04-19T09:57:30.176Z</time></trkpt><trkpt lat="43.5250823" lon="11.3856672"><ele>715.0</ele><time>2026-04-19T09:57:31.18Z</time></trkpt><trkpt lat="43.5251616" lon="11.3855266"><ele>715.25</ele><time>2026-04-19T09:57:32.178Z</time></trkpt><trkpt lat="43.5252663" lon="11.3853982"><ele>715.5</ele><time>2026-04-19T09:57:33.183Z</time></trkpt><trkpt lat="43.5253818" lon="11.3852844"><ele>715.75</ele><time>2026-04-19T09:57:34.174Z</time></trkpt><trkpt lat="43.5255049" lon="11.3851942"><ele>716.0</ele><time>2026-04-19T09:57:35.175Z</time></trkpt><trkpt lat="43.5256366" lon="11.3851088"><ele>716.0</ele><time>2026-04-19T09:57:36.179Z</time></trkpt><trkpt lat="43.5257581" lon="11.3850289"><ele>716.0</ele><time>2026-04-19T09:57:37.165Z</time></trkpt><trkpt lat="43.5258628" lon="11.3849476"><ele>716.0</ele><time>2026-04-19T09:57:38.177Z</time></trkpt><trkpt lat="43.5259458" lon="11.3848519"><ele>716.0</ele><time>2026-04-19T09:57:39.171Z</time></trkpt><trkpt lat="43.5260043" lon="11.3847335"><ele>715.75</ele><time>2026-04-19T09:57:40.185Z</time></trkpt><trkpt lat="43.5260551" lon="11.3845797"><ele>715.5</ele><time>2026-04-19T09:57:41.163Z</time></trkpt><trkpt lat="43.5260945" lon="11.3844099"><ele>715.25</ele><time>2026-04-19T09:57:42.185Z</time></trkpt><trkpt lat="43.5261295" lon="11.3842362"><ele>715.0</ele><time>2026-04-19T09:57:43.185Z</time></trkpt><trkpt lat="43.5261533" lon="11.3840436"><ele>715.0</ele><time>2026-04-19T09:57:44.173Z</time></trkpt><trkpt lat="43.5261731" lon="11.3838675"><ele>715.0</ele><time>2026-04-19T09:57:45.177Z</time></trkpt><trkpt lat="43.5261779" lon="11.3837173"><ele>715.0</ele><time>2026-04-19T09:57:46.172Z</time></trkpt><trkpt lat="43.5261787" lon="11.3836038"><ele>715.0</ele><time>2026-04-19T09:57:47.17Z</time></trkpt><trkpt lat="43.5261956" lon="11.3834999"><ele>715.0</ele><time>2026-04-19T09:57:48.174Z</time></trkpt><trkpt lat="43.5262245" lon="11.3834103"><ele>715.5</ele><time>2026-04-19T09:57:49.158Z</time></trkpt><trkpt lat="43.5262646" lon="11.383342"><ele>716.0</ele><time>2026-04-19T09:57:50.177Z</time></trkpt><trkpt lat="43.5263734" lon="11.383293"><ele>716.5</ele><time>2026-04-19T09:57:52.178Z</time></trkpt><trkpt lat="43.5264384" lon="11.3833141"><ele>717.0</ele><time>2026-04-19T09:57:53.167Z</time></trkpt><trkpt lat="43.5265142" lon="11.3833614"><ele>717.5</ele><time>2026-04-19T09:57:54.177Z</time></trkpt><trkpt lat="43.526597" lon="11.3834045"><ele>718.0</ele><time>2026-04-19T09:57:55.176Z</time></trkpt><trkpt lat="43.5266936" lon="11.3834666"><ele>718.0</ele><time>2026-04-19T09:57:56.173Z</time></trkpt><trkpt lat="43.5268059" lon="11.3835365"><ele>718.0</ele><time>2026-04-19T09:57:57.172Z</time></trkpt><trkpt lat="43.526921" lon="11.3835601"><ele>718.0</ele><time>2026-04-19T09:57:58.178Z</time></trkpt><trkpt lat="43.5270495" lon="11.3835261"><ele>718.0</ele><time>2026-04-19T09:57:59.174Z</time></trkpt><trkpt lat="43.5271698" lon="11.3834502"><ele>719.0</ele><time>2026-04-19T09:58:00.166Z</time></trkpt><trkpt lat="43.5272696" lon="11.3833537"><ele>720.0</ele><time>2026-04-19T09:58:01.17Z</time></trkpt><trkpt lat="43.5273461" lon="11.3832479"><ele>721.0</ele><time>2026-04-19T09:58:02.184Z</time></trkpt><trkpt lat="43.527389" lon="11.3831142"><ele>722.0</ele><time>2026-04-19T09:58:03.184Z</time></trkpt><trkpt lat="43.5274051" lon="11.3829833"><ele>723.0</ele><time>2026-04-19T09:58:04.17Z</time></trkpt><trkpt lat="43.5273894" lon="11.3828508"><ele>723.3333333333334</ele><time>2026-04-19T09:58:05.173Z</time></trkpt><trkpt lat="43.5273667" lon="11.3827205"><ele>723.6666666666666</ele><time>2026-04-19T09:58:06.187Z</time></trkpt><trkpt lat="43.5273357" lon="11.3825955"><ele>724.0</ele><time>2026-04-19T09:58:07.175Z</time></trkpt><trkpt lat="43.5273035" lon="11.3824833"><ele>724.3333333333333</ele><time>2026-04-19T09:58:08.182Z</time></trkpt><trkpt lat="43.5272978" lon="11.3823772"><ele>724.6666666666666</ele><time>2026-04-19T09:58:09.179Z</time></trkpt><trkpt lat="43.527325" lon="11.3822788"><ele>725.0</ele><time>2026-04-19T09:58:10.18Z</time></trkpt><trkpt lat="43.5273748" lon="11.3821796"><ele>725.0</ele><time>2026-04-19T09:58:11.175Z</time></trkpt><trkpt lat="43.5274335" lon="11.3820876"><ele>725.0</ele><time>2026-04-19T09:58:12.175Z</time></trkpt><trkpt lat="43.5275079" lon="11.3819921"><ele>725.0</ele><time>2026-04-19T09:58:13.173Z</time></trkpt><trkpt lat="43.5275875" lon="11.3818923"><ele>725.0</ele><time>2026-04-19T09:58:14.175Z</time></trkpt><trkpt lat="43.5276662" lon="11.3817771"><ele>725.0</ele><time>2026-04-19T09:58:15.173Z</time></trkpt><trkpt lat="43.5277401" lon="11.381638"><ele>725.0</ele><time>2026-04-19T09:58:16.17Z</time></trkpt><trkpt lat="43.5278197" lon="11.3814909"><ele>725.0</ele><time>2026-04-19T09:58:17.18Z</time></trkpt><trkpt lat="43.5279046" lon="11.3813521"><ele>725.0</ele><time>2026-04-19T09:58:18.176Z</time></trkpt><trkpt lat="43.5279859" lon="11.38121"><ele>725.0</ele><time>2026-04-19T09:58:19.173Z</time></trkpt><trkpt lat="43.528064" lon="11.3810784"><ele>728.8</ele><time>2026-04-19T09:58:20.157Z</time></trkpt><trkpt lat="43.5281286" lon="11.3809591"><ele>732.6</ele><time>2026-04-19T09:58:21.161Z</time></trkpt><trkpt lat="43.5281873" lon="11.380846"><ele>736.4000000000001</ele><time>2026-04-19T09:58:22.171Z</time></trkpt><trkpt lat="43.5282513" lon="11.3807422"><ele>740.2</ele><time>2026-04-19T09:58:23.175Z</time></trkpt><trkpt lat="43.5283307" lon="11.3806578"><ele>744.0</ele><time>2026-04-19T09:58:24.17Z</time></trkpt><trkpt lat="43.5284389" lon="11.3806097"><ele>744.0</ele><time>2026-04-19T09:58:25.164Z</time></trkpt><trkpt lat="43.5285394" lon="11.3805888"><ele>744.0</ele><time>2026-04-19T09:58:26.17Z</time></trkpt><trkpt lat="43.5286156" lon="11.3805858"><ele>744.0</ele><time>2026-04-19T09:58:27.181Z</time></trkpt><trkpt lat="43.5286782" lon="11.3805738"><ele>744.0</ele><time>2026-04-19T09:58:28.178Z</time></trkpt><trkpt lat="43.5287548" lon="11.3804979"><ele>744.0</ele><time>2026-04-19T09:58:30.157Z</time></trkpt><trkpt lat="43.5287121" lon="11.3803691"><ele>744.0</ele><time>2026-04-19T09:58:32.151Z</time></trkpt><trkpt lat="43.5286655" lon="11.3802979"><ele>746.2</ele><time>2026-04-19T09:58:33.16Z</time></trkpt><trkpt lat="43.5285846" lon="11.3801787"><ele>748.4000000000001</ele><time>2026-04-19T09:58:34.156Z</time></trkpt><trkpt lat="43.5285116" lon="11.3800615"><ele>750.6</ele><time>2026-04-19T09:58:35.186Z</time></trkpt><trkpt lat="43.5284362" lon="11.3799493"><ele>752.8</ele><time>2026-04-19T09:58:36.167Z</time></trkpt><trkpt lat="43.5283491" lon="11.3798643"><ele>755.0</ele><time>2026-04-19T09:58:37.169Z</time></trkpt><trkpt lat="43.5282552" lon="11.3798293"><ele>755.0</ele><time>2026-04-19T09:58:38.171Z</time></trkpt><trkpt lat="43.5281556" lon="11.3798164"><ele>755.0</ele><time>2026-04-19T09:58:39.168Z</time></trkpt><trkpt lat="43.5280572" lon="11.3798058"><ele>755.0</ele><time>2026-04-19T09:58:40.17Z</time></trkpt><trkpt lat="43.5279553" lon="11.3797828"><ele>755.0</ele><time>2026-04-19T09:58:41.171Z</time></trkpt><trkpt lat="43.5278565" lon="11.3797408"><ele>755.0</ele><time>2026-04-19T09:58:42.172Z</time></trkpt><trkpt lat="43.5277685" lon="11.3796742"><ele>757.3333333333333</ele><time>2026-04-19T09:58:43.169Z</time></trkpt><trkpt lat="43.5276827" lon="11.3796344"><ele>759.6666666666666</ele><time>2026-04-19T09:58:44.173Z</time></trkpt><trkpt lat="43.5275999" lon="11.3796405"><ele>762.0</ele><time>2026-04-19T09:58:45.17Z</time></trkpt><trkpt lat="43.5275138" lon="11.3796636"><ele>764.3333333333333</ele><time>2026-04-19T09:58:46.178Z</time></trkpt><trkpt lat="43.5274332" lon="11.3796795"><ele>766.6666666666666</ele><time>2026-04-19T09:58:47.185Z</time></trkpt><trkpt lat="43.5273691" lon="11.3796799"><ele>769.0</ele><time>2026-04-19T09:58:48.19Z</time></trkpt><trkpt lat="43.5272645" lon="11.3795717"><ele>769.0</ele><time>2026-04-19T09:58:50.16Z</time></trkpt><trkpt lat="43.5272095" lon="11.3794695"><ele>769.0</ele><time>2026-04-19T09:58:51.177Z</time></trkpt><trkpt lat="43.5271427" lon="11.3793278"><ele>769.0</ele><time>2026-04-19T09:58:52.17Z</time></trkpt><trkpt lat="43.527084" lon="11.3791773"><ele>769.0</ele><time>2026-04-19T09:58:53.181Z</time></trkpt><trkpt lat="43.527032" lon="11.3790178"><ele>767.0</ele><time>2026-04-19T09:58:54.176Z</time></trkpt><trkpt lat="43.5269974" lon="11.378847"><ele>765.0</ele><time>2026-04-19T09:58:55.169Z</time></trkpt><trkpt lat="43.526971" lon="11.3786755"><ele>763.0</ele><time>2026-04-19T09:58:56.187Z</time></trkpt><trkpt lat="43.5269433" lon="11.3785118"><ele>761.0</ele><time>2026-04-19T09:58:57.185Z</time></trkpt><trkpt lat="43.5268968" lon="11.3783628"><ele>761.0</ele><time>2026-04-19T09:58:58.168Z</time></trkpt><trkpt lat="43.5268358" lon="11.3782123"><ele>761.0</ele><time>2026-04-19T09:58:59.191Z</time></trkpt><trkpt lat="43.5267748" lon="11.3780694"><ele>761.0</ele><time>2026-04-19T09:59:00.17Z</time></trkpt><trkpt lat="43.5267288" lon="11.3779565"><ele>761.0</ele><time>2026-04-19T09:59:01.171Z</time></trkpt><trkpt lat="43.5266905" lon="11.3778493"><ele>761.0</ele><time>2026-04-19T09:59:02.173Z</time></trkpt><trkpt lat="43.5266695" lon="11.3777449"><ele>761.0</ele><time>2026-04-19T09:59:03.168Z</time></trkpt><trkpt lat="43.5266687" lon="11.3776513"><ele>761.0</ele><time>2026-04-19T09:59:04.173Z</time></trkpt><trkpt lat="43.5266919" lon="11.377561"><ele>761.0</ele><time>2026-04-19T09:59:05.165Z</time></trkpt><trkpt lat="43.52674" lon="11.3774642"><ele>761.0</ele><time>2026-04-19T09:59:06.183Z</time></trkpt><trkpt lat="43.5268091" lon="11.3773672"><ele>761.0</ele><time>2026-04-19T09:59:07.168Z</time></trkpt><trkpt lat="43.5268925" lon="11.377254"><ele>761.0</ele><time>2026-04-19T09:59:08.173Z</time></trkpt><trkpt lat="43.5269812" lon="11.3771299"><ele>759.5999999999999</ele><time>2026-04-19T09:59:09.184Z</time></trkpt><trkpt lat="43.5270596" lon="11.3770029"><ele>758.2</ele><time>2026-04-19T09:59:10.17Z</time></trkpt><trkpt lat="43.5271351" lon="11.376895"><ele>756.8</ele><time>2026-04-19T09:59:11.173Z</time></trkpt><trkpt lat="43.5272118" lon="11.376809"><ele>755.4000000000001</ele><time>2026-04-19T09:59:12.175Z</time></trkpt><trkpt lat="43.5272714" lon="11.3767192"><ele>754.0</ele><time>2026-04-19T09:59:13.176Z</time></trkpt><trkpt lat="43.5273013" lon="11.376607"><ele>754.4000000000001</ele><time>2026-04-19T09:59:14.176Z</time></trkpt><trkpt lat="43.5273001" lon="11.3764731"><ele>754.8</ele><time>2026-04-19T09:59:15.175Z</time></trkpt><trkpt lat="43.5272688" lon="11.3763291"><ele>755.2</ele><time>2026-04-19T09:59:16.178Z</time></trkpt><trkpt lat="43.5272098" lon="11.3762141"><ele>755.5999999999999</ele><time>2026-04-19T09:59:17.178Z</time></trkpt><trkpt lat="43.5271225" lon="11.3761123"><ele>756.0</ele><time>2026-04-19T09:59:18.174Z</time></trkpt><trkpt lat="43.5270291" lon="11.3760241"><ele>756.0</ele><time>2026-04-19T09:59:19.174Z</time></trkpt><trkpt lat="43.5269313" lon="11.3759343"><ele>756.0</ele><time>2026-04-19T09:59:20.171Z</time></trkpt><trkpt lat="43.5268461" lon="11.375856"><ele>756.0</ele><time>2026-04-19T09:59:21.16Z</time></trkpt><trkpt lat="43.526774" lon="11.3757817"><ele>756.0</ele><time>2026-04-19T09:59:22.181Z</time></trkpt><trkpt lat="43.5267146" lon="11.3756806"><ele>756.0</ele><time>2026-04-19T09:59:23.169Z</time></trkpt><trkpt lat="43.5266864" lon="11.3755714"><ele>755.6666666666666</ele><time>2026-04-19T09:59:24.167Z</time></trkpt><trkpt lat="43.5266799" lon="11.3754597"><ele>755.3333333333334</ele><time>2026-04-19T09:59:25.174Z</time></trkpt><trkpt lat="43.526704" lon="11.3753549"><ele>755.0</ele><time>2026-04-19T09:59:26.174Z</time></trkpt><trkpt lat="43.5267534" lon="11.3752556"><ele>754.6666666666667</ele><time>2026-04-19T09:59:27.18Z</time></trkpt><trkpt lat="43.526833" lon="11.3751739"><ele>754.3333333333334</ele><time>2026-04-19T09:59:28.18Z</time></trkpt><trkpt lat="43.5269182" lon="11.3751087"><ele>754.0</ele><time>2026-04-19T09:59:29.172Z</time></trkpt><trkpt lat="43.527015" lon="11.3750864"><ele>753.25</ele><time>2026-04-19T09:59:30.164Z</time></trkpt><trkpt lat="43.5271216" lon="11.3750967"><ele>752.5</ele><time>2026-04-19T09:59:31.167Z</time></trkpt><trkpt lat="43.5272367" lon="11.3751558"><ele>751.75</ele><time>2026-04-19T09:59:32.174Z</time></trkpt><trkpt lat="43.5273748" lon="11.3752364"><ele>751.0</ele><time>2026-04-19T09:59:33.174Z</time></trkpt><trkpt lat="43.5275232" lon="11.3753126"><ele>751.0</ele><time>2026-04-19T09:59:34.172Z</time></trkpt><trkpt lat="43.5276684" lon="11.3753688"><ele>751.0</ele><time>2026-04-19T09:59:35.173Z</time></trkpt><trkpt lat="43.5278102" lon="11.3754156"><ele>751.0</ele><time>2026-04-19T09:59:36.172Z</time></trkpt><trkpt lat="43.5279413" lon="11.3754692"><ele>751.0</ele><time>2026-04-19T09:59:37.18Z</time></trkpt><trkpt lat="43.528053" lon="11.3755376"><ele>752.3333333333334</ele><time>2026-04-19T09:59:38.173Z</time></trkpt><trkpt lat="43.5281446" lon="11.3756055"><ele>753.6666666666667</ele><time>2026-04-19T09:59:39.175Z</time></trkpt><trkpt lat="43.5282223" lon="11.3756615"><ele>755.0</ele><time>2026-04-19T09:59:40.168Z</time></trkpt><trkpt lat="43.5283017" lon="11.3756733"><ele>756.3333333333334</ele><time>2026-04-19T09:59:41.149Z</time></trkpt><trkpt lat="43.5283738" lon="11.3756237"><ele>757.6666666666666</ele><time>2026-04-19T09:59:42.172Z</time></trkpt><trkpt lat="43.528417" lon="11.3755356"><ele>759.0</ele><time>2026-04-19T09:59:43.177Z</time></trkpt><trkpt lat="43.5284312" lon="11.3754262"><ele>759.0</ele><time>2026-04-19T09:59:44.169Z</time></trkpt><trkpt lat="43.5284181" lon="11.3753198"><ele>759.0</ele><time>2026-04-19T09:59:45.193Z</time></trkpt><trkpt lat="43.5283689" lon="11.3752044"><ele>759.0</ele><time>2026-04-19T09:59:46.173Z</time></trkpt><trkpt lat="43.5283097" lon="11.3750807"><ele>759.0</ele><time>2026-04-19T09:59:47.171Z</time></trkpt><trkpt lat="43.5282419" lon="11.3749479"><ele>759.0</ele><time>2026-04-19T09:59:48.174Z</time></trkpt><trkpt lat="43.5281738" lon="11.3748076"><ele>760.25</ele><time>2026-04-19T09:59:49.179Z</time></trkpt><trkpt lat="43.5281132" lon="11.3746641"><ele>761.5</ele><time>2026-04-19T09:59:50.166Z</time></trkpt><trkpt lat="43.5280762" lon="11.3744885"><ele>762.75</ele><time>2026-04-19T09:59:51.178Z</time></trkpt><trkpt lat="43.5280435" lon="11.3742855"><ele>764.0</ele><time>2026-04-19T09:59:52.161Z</time></trkpt><trkpt lat="43.5279922" lon="11.3740858"><ele>764.0</ele><time>2026-04-19T09:59:53.163Z</time></trkpt><trkpt lat="43.5279337" lon="11.3738874"><ele>764.0</ele><time>2026-04-19T09:59:54.162Z</time></trkpt><trkpt lat="43.527879" lon="11.3736909"><ele>764.0</ele><time>2026-04-19T09:59:55.176Z</time></trkpt><trkpt lat="43.5278329" lon="11.3735135"><ele>764.0</ele><time>2026-04-19T09:59:56.18Z</time></trkpt><trkpt lat="43.5277706" lon="11.3733707"><ele>761.25</ele><time>2026-04-19T09:59:57.175Z</time></trkpt><trkpt lat="43.527711" lon="11.3732307"><ele>758.5</ele><time>2026-04-19T09:59:58.169Z</time></trkpt><trkpt lat="43.5276634" lon="11.3730776"><ele>755.75</ele><time>2026-04-19T09:59:59.165Z</time></trkpt><trkpt lat="43.5276384" lon="11.3729001"><ele>753.0</ele><time>2026-04-19T10:00:00.178Z</time></trkpt><trkpt lat="43.5276236" lon="11.3727282"><ele>753.0</ele><time>2026-04-19T10:00:01.166Z</time></trkpt><trkpt lat="43.527599" lon="11.3725686"><ele>753.0</ele><time>2026-04-19T10:00:02.183Z</time></trkpt><trkpt lat="43.52754" lon="11.3724282"><ele>753.0</ele><time>2026-04-19T10:00:03.173Z</time></trkpt><trkpt lat="43.5274479" lon="11.3722907"><ele>753.0</ele><time>2026-04-19T10:00:04.167Z</time></trkpt><trkpt lat="43.5273423" lon="11.3721578"><ele>752.8</ele><time>2026-04-19T10:00:05.178Z</time></trkpt><trkpt lat="43.5272349" lon="11.3720392"><ele>752.5999999999999</ele><time>2026-04-19T10:00:06.171Z</time></trkpt><trkpt lat="43.5271436" lon="11.3719412"><ele>752.4000000000001</ele><time>2026-04-19T10:00:07.175Z</time></trkpt><trkpt lat="43.5270662" lon="11.3718638"><ele>752.2</ele><time>2026-04-19T10:00:08.178Z</time></trkpt><trkpt lat="43.5270036" lon="11.3717848"><ele>752.0</ele><time>2026-04-19T10:00:09.174Z</time></trkpt><trkpt lat="43.5269565" lon="11.3716963"><ele>750.5</ele><time>2026-04-19T10:00:10.173Z</time></trkpt><trkpt lat="43.5269369" lon="11.3715935"><ele>749.0</ele><time>2026-04-19T10:00:11.176Z</time></trkpt><trkpt lat="43.5269265" lon="11.3714986"><ele>747.5</ele><time>2026-04-19T10:00:12.181Z</time></trkpt><trkpt lat="43.5269353" lon="11.3714"><ele>746.0</ele><time>2026-04-19T10:00:13.171Z</time></trkpt><trkpt lat="43.526983" lon="11.3712882"><ele>744.5</ele><time>2026-04-19T10:00:14.175Z</time></trkpt><trkpt lat="43.5270642" lon="11.3711655"><ele>743.0</ele><time>2026-04-19T10:00:15.165Z</time></trkpt><trkpt lat="43.5271416" lon="11.3710511"><ele>743.0</ele><time>2026-04-19T10:00:16.186Z</time></trkpt><trkpt lat="43.5272001" lon="11.3709499"><ele>743.0</ele><time>2026-04-19T10:00:17.173Z</time></trkpt><trkpt lat="43.5272486" lon="11.370836"><ele>743.0</ele><time>2026-04-19T10:00:18.184Z</time></trkpt><trkpt lat="43.5272759" lon="11.3707072"><ele>743.0</ele><time>2026-04-19T10:00:19.16Z</time></trkpt><trkpt lat="43.5272658" lon="11.370581"><ele>743.0</ele><time>2026-04-19T10:00:20.156Z</time></trkpt><trkpt lat="43.5272437" lon="11.3704531"><ele>741.2</ele><time>2026-04-19T10:00:21.171Z</time></trkpt><trkpt lat="43.5271964" lon="11.3703302"><ele>739.4</ele><time>2026-04-19T10:00:22.156Z</time></trkpt><trkpt lat="43.5271323" lon="11.3702161"><ele>737.6</ele><time>2026-04-19T10:00:23.156Z</time></trkpt><trkpt lat="43.5270541" lon="11.3701216"><ele>735.8000000000001</ele><time>2026-04-19T10:00:24.16Z</time></trkpt><trkpt lat="43.5269617" lon="11.370052"><ele>734.0</ele><time>2026-04-19T10:00:25.17Z</time></trkpt><trkpt lat="43.5268671" lon="11.3699932"><ele>734.0</ele><time>2026-04-19T10:00:26.155Z</time></trkpt><trkpt lat="43.5267789" lon="11.3699264"><ele>734.0</ele><time>2026-04-19T10:00:27.176Z</time></trkpt><trkpt lat="43.526706" lon="11.3698394"><ele>734.0</ele><time>2026-04-19T10:00:28.17Z</time></trkpt><trkpt lat="43.5266479" lon="11.3697317"><ele>734.0</ele><time>2026-04-19T10:00:29.159Z</time></trkpt><trkpt lat="43.5266003" lon="11.3696082"><ele>734.0</ele><time>2026-04-19T10:00:30.168Z</time></trkpt><trkpt lat="43.5265607" lon="11.3694534"><ele>732.5</ele><time>2026-04-19T10:00:31.181Z</time></trkpt><trkpt lat="43.5265186" lon="11.3692847"><ele>731.0</ele><time>2026-04-19T10:00:32.177Z</time></trkpt><trkpt lat="43.5264823" lon="11.3691151"><ele>729.5</ele><time>2026-04-19T10:00:33.176Z</time></trkpt><trkpt lat="43.5264424" lon="11.3689565"><ele>728.0</ele><time>2026-04-19T10:00:34.176Z</time></trkpt><trkpt lat="43.5263984" lon="11.3688176"><ele>726.3333333333333</ele><time>2026-04-19T10:00:35.178Z</time></trkpt><trkpt lat="43.5263518" lon="11.3687052"><ele>724.6666666666666</ele><time>2026-04-19T10:00:36.177Z</time></trkpt><trkpt lat="43.5263122" lon="11.3686168"><ele>723.0</ele><time>2026-04-19T10:00:37.18Z</time></trkpt><trkpt lat="43.5262714" lon="11.3685467"><ele>721.3333333333334</ele><time>2026-04-19T10:00:38.183Z</time></trkpt><trkpt lat="43.5262251" lon="11.3684858"><ele>719.6666666666667</ele><time>2026-04-19T10:00:39.176Z</time></trkpt><trkpt lat="43.5261158" lon="11.3683596"><ele>718.0</ele><time>2026-04-19T10:00:41.172Z</time></trkpt><trkpt lat="43.5260363" lon="11.3682775"><ele>717.5</ele><time>2026-04-19T10:00:42.175Z</time></trkpt><trkpt lat="43.5259523" lon="11.3681787"><ele>717.0</ele><time>2026-04-19T10:00:43.182Z</time></trkpt><trkpt lat="43.5258531" lon="11.3680736"><ele>716.5</ele><time>2026-04-19T10:00:44.174Z</time></trkpt><trkpt lat="43.52576" lon="11.3679776"><ele>716.0</ele><time>2026-04-19T10:00:45.164Z</time></trkpt><trkpt lat="43.5256746" lon="11.3678952"><ele>715.8333333333333</ele><time>2026-04-19T10:00:46.17Z</time></trkpt><trkpt lat="43.5256034" lon="11.367814"><ele>715.6666666666666</ele><time>2026-04-19T10:00:47.171Z</time></trkpt><trkpt lat="43.5255464" lon="11.3677341"><ele>715.5</ele><time>2026-04-19T10:00:48.17Z</time></trkpt><trkpt lat="43.525508" lon="11.3676588"><ele>715.3333333333334</ele><time>2026-04-19T10:00:49.185Z</time></trkpt><trkpt lat="43.5255173" lon="11.367494"><ele>715.1666666666667</ele><time>2026-04-19T10:00:51.175Z</time></trkpt><trkpt lat="43.5255574" lon="11.3674212"><ele>715.0</ele><time>2026-04-19T10:00:52.155Z</time></trkpt><trkpt lat="43.5256271" lon="11.3673631"><ele>715.0</ele><time>2026-04-19T10:00:53.175Z</time></trkpt><trkpt lat="43.525713" lon="11.3673278"><ele>715.0</ele><time>2026-04-19T10:00:54.166Z</time></trkpt><trkpt lat="43.525796" lon="11.36733"><ele>715.0</ele><time>2026-04-19T10:00:55.174Z</time></trkpt><trkpt lat="43.5258775" lon="11.3673647"><ele>715.0</ele><time>2026-04-19T10:00:56.165Z</time></trkpt><trkpt lat="43.5259703" lon="11.3674407"><ele>715.0</ele><time>2026-04-19T10:00:57.169Z</time></trkpt><trkpt lat="43.5260706" lon="11.3675459"><ele>715.0</ele><time>2026-04-19T10:00:58.15Z</time></trkpt><trkpt lat="43.5261695" lon="11.3676507"><ele>715.0</ele><time>2026-04-19T10:00:59.166Z</time></trkpt><trkpt lat="43.5262605" lon="11.3677515"><ele>715.0</ele><time>2026-04-19T10:01:00.184Z</time></trkpt><trkpt lat="43.5263388" lon="11.3678382"><ele>715.0</ele><time>2026-04-19T10:01:01.183Z</time></trkpt><trkpt lat="43.5264132" lon="11.3679112"><ele>715.0</ele><time>2026-04-19T10:01:02.172Z</time></trkpt><trkpt lat="43.5265002" lon="11.367963"><ele>714.0</ele><time>2026-04-19T10:01:03.182Z</time></trkpt><trkpt lat="43.526594" lon="11.3679908"><ele>713.0</ele><time>2026-04-19T10:01:04.173Z</time></trkpt><trkpt lat="43.5266853" lon="11.3679534"><ele>712.0</ele><time>2026-04-19T10:01:05.18Z</time></trkpt><trkpt lat="43.5267739" lon="11.3678845"><ele>711.0</ele><time>2026-04-19T10:01:06.165Z</time></trkpt><trkpt lat="43.5268482" lon="11.3677983"><ele>710.0</ele><time>2026-04-19T10:01:07.174Z</time></trkpt><trkpt lat="43.5269127" lon="11.3677149"><ele>710.0</ele><time>2026-04-19T10:01:08.169Z</time></trkpt><trkpt lat="43.5269387" lon="11.3675804"><ele>710.0</ele><time>2026-04-19T10:01:09.169Z</time></trkpt><trkpt lat="43.5269125" lon="11.3674277"><ele>710.0</ele><time>2026-04-19T10:01:10.179Z</time></trkpt><trkpt lat="43.5268749" lon="11.3672927"><ele>710.0</ele><time>2026-04-19T10:01:11.173Z</time></trkpt><trkpt lat="43.5268197" lon="11.3671648"><ele>710.0</ele><time>2026-04-19T10:01:12.161Z</time></trkpt><trkpt lat="43.5267519" lon="11.3670347"><ele>709.5</ele><time>2026-04-19T10:01:13.173Z</time></trkpt><trkpt lat="43.5266701" lon="11.3668839"><ele>709.0</ele><time>2026-04-19T10:01:14.162Z</time></trkpt><trkpt lat="43.5265894" lon="11.3667321"><ele>708.5</ele><time>2026-04-19T10:01:15.164Z</time></trkpt><trkpt lat="43.526512" lon="11.3665925"><ele>708.0</ele><time>2026-04-19T10:01:16.177Z</time></trkpt><trkpt lat="43.5264485" lon="11.3664671"><ele>707.4</ele><time>2026-04-19T10:01:17.176Z</time></trkpt><trkpt lat="43.5264014" lon="11.3663489"><ele>706.8</ele><time>2026-04-19T10:01:18.174Z</time></trkpt><trkpt lat="43.5263765" lon="11.3662338"><ele>706.2</ele><time>2026-04-19T10:01:19.168Z</time></trkpt><trkpt lat="43.5263668" lon="11.366118"><ele>705.6</ele><time>2026-04-19T10:01:20.154Z</time></trkpt><trkpt lat="43.5263832" lon="11.3659856"><ele>705.0</ele><time>2026-04-19T10:01:21.162Z</time></trkpt><trkpt lat="43.5264227" lon="11.365823"><ele>705.0</ele><time>2026-04-19T10:01:22.151Z</time></trkpt><trkpt lat="43.5264717" lon="11.3656443"><ele>705.0</ele><time>2026-04-19T10:01:23.175Z</time></trkpt><trkpt lat="43.5265177" lon="11.3654694"><ele>705.0</ele><time>2026-04-19T10:01:24.164Z</time></trkpt><trkpt lat="43.526554" lon="11.3653126"><ele>705.0</ele><time>2026-04-19T10:01:25.158Z</time></trkpt><trkpt lat="43.5265737" lon="11.3651542"><ele>704.0</ele><time>2026-04-19T10:01:26.172Z</time></trkpt><trkpt lat="43.5265769" lon="11.3650088"><ele>703.0</ele><time>2026-04-19T10:01:27.178Z</time></trkpt><trkpt lat="43.5265607" lon="11.3648535"><ele>702.0</ele><time>2026-04-19T10:01:28.181Z</time></trkpt><trkpt lat="43.5265206" lon="11.3647019"><ele>701.0</ele><time>2026-04-19T10:01:29.179Z</time></trkpt><trkpt lat="43.5264591" lon="11.3645483"><ele>699.0</ele><time>2026-04-19T10:01:30.149Z</time></trkpt><trkpt lat="43.5263794" lon="11.364395"><ele>697.0</ele><time>2026-04-19T10:01:31.179Z</time></trkpt><trkpt lat="43.5262946" lon="11.3642531"><ele>695.0</ele><time>2026-04-19T10:01:32.175Z</time></trkpt><trkpt lat="43.5262085" lon="11.364118"><ele>693.0</ele><time>2026-04-19T10:01:33.164Z</time></trkpt><trkpt lat="43.5261483" lon="11.3639754"><ele>693.0</ele><time>2026-04-19T10:01:34.176Z</time></trkpt><trkpt lat="43.5261057" lon="11.3638101"><ele>693.0</ele><time>2026-04-19T10:01:35.178Z</time></trkpt><trkpt lat="43.5260655" lon="11.3636323"><ele>693.0</ele><time>2026-04-19T10:01:36.159Z</time></trkpt><trkpt lat="43.5260329" lon="11.3634332"><ele>693.0</ele><time>2026-04-19T10:01:37.157Z</time></trkpt><trkpt lat="43.5260097" lon="11.3632194"><ele>694.0</ele><time>2026-04-19T10:01:38.18Z</time></trkpt><trkpt lat="43.5259828" lon="11.3629837"><ele>695.0</ele><time>2026-04-19T10:01:39.171Z</time></trkpt><trkpt lat="43.5259564" lon="11.3627403"><ele>696.0</ele><time>2026-04-19T10:01:40.175Z</time></trkpt><trkpt lat="43.525932" lon="11.362496"><ele>696.0</ele><time>2026-04-19T10:01:41.17Z</time></trkpt><trkpt lat="43.5259066" lon="11.3622455"><ele>696.0</ele><time>2026-04-19T10:01:42.18Z</time></trkpt><trkpt lat="43.5258865" lon="11.3619997"><ele>696.0</ele><time>2026-04-19T10:01:43.168Z</time></trkpt><trkpt lat="43.5258628" lon="11.3617832"><ele>695.25</ele><time>2026-04-19T10:01:44.173Z</time></trkpt><trkpt lat="43.5258426" lon="11.36158"><ele>694.5</ele><time>2026-04-19T10:01:45.176Z</time></trkpt><trkpt lat="43.5258281" lon="11.361388"><ele>693.75</ele><time>2026-04-19T10:01:46.175Z</time></trkpt><trkpt lat="43.5258168" lon="11.3612094"><ele>693.0</ele><time>2026-04-19T10:01:47.154Z</time></trkpt><trkpt lat="43.5258217" lon="11.3610466"><ele>692.4</ele><time>2026-04-19T10:01:48.176Z</time></trkpt><trkpt lat="43.5258389" lon="11.3609031"><ele>691.8</ele><time>2026-04-19T10:01:49.186Z</time></trkpt><trkpt lat="43.5258565" lon="11.3607692"><ele>691.2</ele><time>2026-04-19T10:01:50.175Z</time></trkpt><trkpt lat="43.5259018" lon="11.3606387"><ele>690.6</ele><time>2026-04-19T10:01:51.158Z</time></trkpt><trkpt lat="43.5259889" lon="11.3605038"><ele>690.0</ele><time>2026-04-19T10:01:52.171Z</time></trkpt><trkpt lat="43.5260873" lon="11.3603545"><ele>688.3333333333334</ele><time>2026-04-19T10:01:53.183Z</time></trkpt><trkpt lat="43.5262002" lon="11.3602022"><ele>686.6666666666667</ele><time>2026-04-19T10:01:54.165Z</time></trkpt><trkpt lat="43.52631" lon="11.3600413"><ele>685.0</ele><time>2026-04-19T10:01:55.178Z</time></trkpt><trkpt lat="43.5264163" lon="11.3598733"><ele>688.6666666666667</ele><time>2026-04-19T10:01:56.168Z</time></trkpt><trkpt lat="43.5265251" lon="11.3596985"><ele>692.3333333333334</ele><time>2026-04-19T10:01:57.173Z</time></trkpt><trkpt lat="43.5266421" lon="11.3595298"><ele>696.0</ele><time>2026-04-19T10:01:58.172Z</time></trkpt><trkpt lat="43.5267633" lon="11.3593852"><ele>696.0</ele><time>2026-04-19T10:01:59.169Z</time></trkpt><trkpt lat="43.5268815" lon="11.3592631"><ele>696.0</ele><time>2026-04-19T10:02:00.173Z</time></trkpt><trkpt lat="43.5269944" lon="11.3591664"><ele>696.0</ele><time>2026-04-19T10:02:01.179Z</time></trkpt><trkpt lat="43.5271028" lon="11.359075"><ele>696.0</ele><time>2026-04-19T10:02:02.173Z</time></trkpt><trkpt lat="43.5272007" lon="11.3589756"><ele>691.5</ele><time>2026-04-19T10:02:03.178Z</time></trkpt><trkpt lat="43.5272971" lon="11.3588459"><ele>687.0</ele><time>2026-04-19T10:02:04.172Z</time></trkpt><trkpt lat="43.5273779" lon="11.3587054"><ele>682.5</ele><time>2026-04-19T10:02:05.156Z</time></trkpt><trkpt lat="43.5274461" lon="11.3585608"><ele>678.0</ele><time>2026-04-19T10:02:06.166Z</time></trkpt><trkpt lat="43.5274963" lon="11.3584247"><ele>678.0</ele><time>2026-04-19T10:02:07.167Z</time></trkpt><trkpt lat="43.5275298" lon="11.3582882"><ele>678.0</ele><time>2026-04-19T10:02:08.177Z</time></trkpt><trkpt lat="43.5275474" lon="11.3581503"><ele>678.0</ele><time>2026-04-19T10:02:09.166Z</time></trkpt><trkpt lat="43.5275468" lon="11.357982"><ele>678.0</ele><time>2026-04-19T10:02:10.176Z</time></trkpt><trkpt lat="43.5275362" lon="11.3578202"><ele>678.0</ele><time>2026-04-19T10:02:11.166Z</time></trkpt><trkpt lat="43.5275264" lon="11.3576707"><ele>677.8</ele><time>2026-04-19T10:02:12.177Z</time></trkpt><trkpt lat="43.5275294" lon="11.3575476"><ele>677.5999999999999</ele><time>2026-04-19T10:02:13.17Z</time></trkpt><trkpt lat="43.5275426" lon="11.3574236"><ele>677.4000000000001</ele><time>2026-04-19T10:02:14.171Z</time></trkpt><trkpt lat="43.5275728" lon="11.3572863"><ele>677.2</ele><time>2026-04-19T10:02:15.17Z</time></trkpt><trkpt lat="43.5276198" lon="11.3571418"><ele>677.0</ele><time>2026-04-19T10:02:16.172Z</time></trkpt><trkpt lat="43.5276744" lon="11.3569917"><ele>676.5</ele><time>2026-04-19T10:02:17.16Z</time></trkpt><trkpt lat="43.5277336" lon="11.356834"><ele>676.0</ele><time>2026-04-19T10:02:18.154Z</time></trkpt><trkpt lat="43.5277958" lon="11.3566798"><ele>675.5</ele><time>2026-04-19T10:02:19.166Z</time></trkpt><trkpt lat="43.5278611" lon="11.3565343"><ele>675.0</ele><time>2026-04-19T10:02:20.172Z</time></trkpt><trkpt lat="43.5279182" lon="11.3564049"><ele>672.8</ele><time>2026-04-19T10:02:21.156Z</time></trkpt><trkpt lat="43.5279777" lon="11.3562814"><ele>670.6</ele><time>2026-04-19T10:02:22.171Z</time></trkpt><trkpt lat="43.5280288" lon="11.3561719"><ele>668.4000000000001</ele><time>2026-04-19T10:02:23.168Z</time></trkpt><trkpt lat="43.5280751" lon="11.3560706"><ele>666.2</ele><time>2026-04-19T10:02:24.169Z</time></trkpt><trkpt lat="43.5281233" lon="11.3559759"><ele>664.0</ele><time>2026-04-19T10:02:25.159Z</time></trkpt><trkpt lat="43.5281719" lon="11.3558912"><ele>664.0</ele><time>2026-04-19T10:02:26.156Z</time></trkpt><trkpt lat="43.5282269" lon="11.3558188"><ele>664.0</ele><time>2026-04-19T10:02:27.167Z</time></trkpt><trkpt lat="43.5282864" lon="11.3557655"><ele>664.0</ele><time>2026-04-19T10:02:28.162Z</time></trkpt><trkpt lat="43.5283877" lon="11.3556954"><ele>664.0</ele><time>2026-04-19T10:02:30.178Z</time></trkpt><trkpt lat="43.5284793" lon="11.3556435"><ele>664.0</ele><time>2026-04-19T10:02:32.172Z</time></trkpt><trkpt lat="43.5285519" lon="11.3555959"><ele>664.0</ele><time>2026-04-19T10:02:34.169Z</time></trkpt><trkpt lat="43.5286143" lon="11.3555641"><ele>662.6666666666667</ele><time>2026-04-19T10:02:36.183Z</time></trkpt><trkpt lat="43.5287034" lon="11.3555042"><ele>661.3333333333334</ele><time>2026-04-19T10:02:38.179Z</time></trkpt><trkpt lat="43.5287628" lon="11.3554593"><ele>660.0</ele><time>2026-04-19T10:02:39.164Z</time></trkpt><trkpt lat="43.5288429" lon="11.3554243"><ele>658.6666666666666</ele><time>2026-04-19T10:02:40.186Z</time></trkpt><trkpt lat="43.52894" lon="11.3553946"><ele>657.3333333333333</ele><time>2026-04-19T10:02:41.173Z</time></trkpt><trkpt lat="43.5290374" lon="11.3553881"><ele>656.0</ele><time>2026-04-19T10:02:42.179Z</time></trkpt><trkpt lat="43.529146" lon="11.3553901"><ele>656.0</ele><time>2026-04-19T10:02:43.178Z</time></trkpt><trkpt lat="43.5292573" lon="11.3554096"><ele>656.0</ele><time>2026-04-19T10:02:44.175Z</time></trkpt><trkpt lat="43.5293684" lon="11.3554243"><ele>656.0</ele><time>2026-04-19T10:02:45.174Z</time></trkpt><trkpt lat="43.5294582" lon="11.3554593"><ele>656.0</ele><time>2026-04-19T10:02:46.175Z</time></trkpt><trkpt lat="43.5295281" lon="11.3554835"><ele>656.0</ele><time>2026-04-19T10:02:47.173Z</time></trkpt><trkpt lat="43.52959" lon="11.3555082"><ele>657.6666666666666</ele><time>2026-04-19T10:02:48.17Z</time></trkpt><trkpt lat="43.5296971" lon="11.3555427"><ele>659.3333333333333</ele><time>2026-04-19T10:02:50.173Z</time></trkpt><trkpt lat="43.5298141" lon="11.355601"><ele>661.0</ele><time>2026-04-19T10:02:52.17Z</time></trkpt><trkpt lat="43.5298739" lon="11.3556354"><ele>662.6666666666666</ele><time>2026-04-19T10:02:53.166Z</time></trkpt><trkpt lat="43.5299374" lon="11.3556702"><ele>664.3333333333334</ele><time>2026-04-19T10:02:54.185Z</time></trkpt><trkpt lat="43.5300009" lon="11.3557197"><ele>666.0</ele><time>2026-04-19T10:02:55.176Z</time></trkpt><trkpt lat="43.5300596" lon="11.3557644"><ele>666.0</ele><time>2026-04-19T10:02:56.172Z</time></trkpt><trkpt lat="43.530121" lon="11.3558012"><ele>666.0</ele><time>2026-04-19T10:02:57.182Z</time></trkpt><trkpt lat="43.5301838" lon="11.3558378"><ele>666.0</ele><time>2026-04-19T10:02:58.179Z</time></trkpt><trkpt lat="43.530246" lon="11.35587"><ele>666.0</ele><time>2026-04-19T10:02:59.175Z</time></trkpt><trkpt lat="43.5303127" lon="11.3558904"><ele>666.0</ele><time>2026-04-19T10:03:00.174Z</time></trkpt><trkpt lat="43.53038" lon="11.3559133"><ele>666.0</ele><time>2026-04-19T10:03:01.154Z</time></trkpt><trkpt lat="43.5304487" lon="11.3559281"><ele>666.0</ele><time>2026-04-19T10:03:02.173Z</time></trkpt><trkpt lat="43.5305163" lon="11.355935"><ele>665.7142857142858</ele><time>2026-04-19T10:03:03.18Z</time></trkpt><trkpt lat="43.5305794" lon="11.3559314"><ele>665.4285714285713</ele><time>2026-04-19T10:03:04.177Z</time></trkpt><trkpt lat="43.5306434" lon="11.3559007"><ele>665.1428571428571</ele><time>2026-04-19T10:03:05.169Z</time></trkpt><trkpt lat="43.5307016" lon="11.3558405"><ele>664.8571428571429</ele><time>2026-04-19T10:03:06.178Z</time></trkpt><trkpt lat="43.5307572" lon="11.3557791"><ele>664.5714285714287</ele><time>2026-04-19T10:03:07.173Z</time></trkpt><trkpt lat="43.5308067" lon="11.355702"><ele>664.2857142857142</ele><time>2026-04-19T10:03:08.158Z</time></trkpt><trkpt lat="43.5308541" lon="11.3556263"><ele>664.0</ele><time>2026-04-19T10:03:09.178Z</time></trkpt><trkpt lat="43.5308962" lon="11.3555534"><ele>663.7142857142857</ele><time>2026-04-19T10:03:10.158Z</time></trkpt><trkpt lat="43.5309403" lon="11.3554816"><ele>663.4285714285714</ele><time>2026-04-19T10:03:11.174Z</time></trkpt><trkpt lat="43.5309798" lon="11.3554052"><ele>663.1428571428571</ele><time>2026-04-19T10:03:12.165Z</time></trkpt><trkpt lat="43.5310156" lon="11.3553264"><ele>662.8571428571429</ele><time>2026-04-19T10:03:13.165Z</time></trkpt><trkpt lat="43.5310521" lon="11.3552476"><ele>662.5714285714286</ele><time>2026-04-19T10:03:14.186Z</time></trkpt><trkpt lat="43.5310879" lon="11.3551739"><ele>662.2857142857143</ele><time>2026-04-19T10:03:15.178Z</time></trkpt><trkpt lat="43.5311251" lon="11.3551014"><ele>662.0</ele><time>2026-04-19T10:03:16.18Z</time></trkpt><trkpt lat="43.5311744" lon="11.3549439"><ele>662.0</ele><time>2026-04-19T10:03:18.167Z</time></trkpt><trkpt lat="43.5312024" lon="11.3548558"><ele>662.0</ele><time>2026-04-19T10:03:19.193Z</time></trkpt><trkpt lat="43.5312297" lon="11.3547574"><ele>662.0</ele><time>2026-04-19T10:03:20.171Z</time></trkpt><trkpt lat="43.5312598" lon="11.3546539"><ele>662.0</ele><time>2026-04-19T10:03:21.175Z</time></trkpt><trkpt lat="43.5312886" lon="11.3545419"><ele>662.0</ele><time>2026-04-19T10:03:22.186Z</time></trkpt><trkpt lat="43.5313207" lon="11.3544186"><ele>662.0</ele><time>2026-04-19T10:03:23.172Z</time></trkpt><trkpt lat="43.5313521" lon="11.3542815"><ele>662.0</ele><time>2026-04-19T10:03:24.174Z</time></trkpt><trkpt lat="43.5313847" lon="11.354138"><ele>662.0</ele><time>2026-04-19T10:03:25.175Z</time></trkpt><trkpt lat="43.5314168" lon="11.3539838"><ele>662.0</ele><time>2026-04-19T10:03:26.183Z</time></trkpt><trkpt lat="43.5314451" lon="11.3538153"><ele>662.0</ele><time>2026-04-19T10:03:27.157Z</time></trkpt><trkpt lat="43.5314689" lon="11.3536392"><ele>662.75</ele><time>2026-04-19T10:03:28.179Z</time></trkpt><trkpt lat="43.5314922" lon="11.353455"><ele>663.5</ele><time>2026-04-19T10:03:29.152Z</time></trkpt><trkpt lat="43.5315138" lon="11.3532513"><ele>664.25</ele><time>2026-04-19T10:03:30.178Z</time></trkpt><trkpt lat="43.5315441" lon="11.3530316"><ele>665.0</ele><time>2026-04-19T10:03:31.177Z</time></trkpt><trkpt lat="43.531573" lon="11.3528147"><ele>665.5</ele><time>2026-04-19T10:03:32.173Z</time></trkpt><trkpt lat="43.5315896" lon="11.3526139"><ele>666.0</ele><time>2026-04-19T10:03:33.174Z</time></trkpt><trkpt lat="43.531612" lon="11.3524134"><ele>666.5</ele><time>2026-04-19T10:03:34.166Z</time></trkpt><trkpt lat="43.5316375" lon="11.3522076"><ele>667.0</ele><time>2026-04-19T10:03:35.169Z</time></trkpt><trkpt lat="43.5316593" lon="11.3520011"><ele>667.0</ele><time>2026-04-19T10:03:36.154Z</time></trkpt><trkpt lat="43.5316874" lon="11.3517971"><ele>667.0</ele><time>2026-04-19T10:03:37.163Z</time></trkpt><trkpt lat="43.5317129" lon="11.3516008"><ele>667.0</ele><time>2026-04-19T10:03:38.178Z</time></trkpt><trkpt lat="43.5317341" lon="11.3514047"><ele>667.0</ele><time>2026-04-19T10:03:39.172Z</time></trkpt><trkpt lat="43.5317566" lon="11.3512132"><ele>665.75</ele><time>2026-04-19T10:03:40.17Z</time></trkpt><trkpt lat="43.5317716" lon="11.3510328"><ele>664.5</ele><time>2026-04-19T10:03:41.168Z</time></trkpt><trkpt lat="43.5317879" lon="11.3508776"><ele>663.25</ele><time>2026-04-19T10:03:42.162Z</time></trkpt><trkpt lat="43.53181" lon="11.3507278"><ele>662.0</ele><time>2026-04-19T10:03:43.172Z</time></trkpt><trkpt lat="43.5318395" lon="11.3505809"><ele>662.8</ele><time>2026-04-19T10:03:44.167Z</time></trkpt><trkpt lat="43.5318842" lon="11.3504386"><ele>663.6</ele><time>2026-04-19T10:03:45.181Z</time></trkpt><trkpt lat="43.5319432" lon="11.3503027"><ele>664.4</ele><time>2026-04-19T10:03:46.149Z</time></trkpt><trkpt lat="43.5320086" lon="11.350185"><ele>665.1999999999999</ele><time>2026-04-19T10:03:47.178Z</time></trkpt><trkpt lat="43.5320762" lon="11.3500833"><ele>666.0</ele><time>2026-04-19T10:03:48.166Z</time></trkpt><trkpt lat="43.5321497" lon="11.3499941"><ele>666.0</ele><time>2026-04-19T10:03:49.181Z</time></trkpt><trkpt lat="43.5322443" lon="11.3499113"><ele>666.0</ele><time>2026-04-19T10:03:50.177Z</time></trkpt><trkpt lat="43.5323563" lon="11.3498209"><ele>666.0</ele><time>2026-04-19T10:03:51.161Z</time></trkpt><trkpt lat="43.5324725" lon="11.3497317"><ele>666.0</ele><time>2026-04-19T10:03:52.178Z</time></trkpt><trkpt lat="43.5325897" lon="11.3496409"><ele>664.25</ele><time>2026-04-19T10:03:53.16Z</time></trkpt><trkpt lat="43.5327068" lon="11.3495508"><ele>662.5</ele><time>2026-04-19T10:03:54.176Z</time></trkpt><trkpt lat="43.5328237" lon="11.3494509"><ele>660.75</ele><time>2026-04-19T10:03:55.172Z</time></trkpt><trkpt lat="43.532943" lon="11.349344"><ele>659.0</ele><time>2026-04-19T10:03:56.171Z</time></trkpt><trkpt lat="43.5330686" lon="11.3492359"><ele>659.0</ele><time>2026-04-19T10:03:57.17Z</time></trkpt><trkpt lat="43.5331975" lon="11.3491272"><ele>659.0</ele><time>2026-04-19T10:03:58.185Z</time></trkpt><trkpt lat="43.5333243" lon="11.3490271"><ele>659.0</ele><time>2026-04-19T10:03:59.164Z</time></trkpt><trkpt lat="43.5334508" lon="11.3489307"><ele>659.0</ele><time>2026-04-19T10:04:00.172Z</time></trkpt><trkpt lat="43.5335726" lon="11.3488284"><ele>657.25</ele><time>2026-04-19T10:04:01.165Z</time></trkpt><trkpt lat="43.5336977" lon="11.3487213"><ele>655.5</ele><time>2026-04-19T10:04:02.178Z</time></trkpt><trkpt lat="43.5338237" lon="11.3486102"><ele>653.75</ele><time>2026-04-19T10:04:03.169Z</time></trkpt><trkpt lat="43.5339509" lon="11.3485039"><ele>652.0</ele><time>2026-04-19T10:04:04.172Z</time></trkpt><trkpt lat="43.5340826" lon="11.3483944"><ele>652.0</ele><time>2026-04-19T10:04:05.179Z</time></trkpt><trkpt lat="43.5342034" lon="11.3482874"><ele>652.0</ele><time>2026-04-19T10:04:06.168Z</time></trkpt><trkpt lat="43.5343164" lon="11.3481902"><ele>652.0</ele><time>2026-04-19T10:04:07.154Z</time></trkpt><trkpt lat="43.5344335" lon="11.3481021"><ele>652.0</ele><time>2026-04-19T10:04:08.15Z</time></trkpt><trkpt lat="43.5345435" lon="11.3480216"><ele>652.6</ele><time>2026-04-19T10:04:09.176Z</time></trkpt><trkpt lat="43.534633" lon="11.3479563"><ele>653.2</ele><time>2026-04-19T10:04:10.153Z</time></trkpt><trkpt lat="43.5347062" lon="11.3478999"><ele>653.8</ele><time>2026-04-19T10:04:11.161Z</time></trkpt><trkpt lat="43.5347601" lon="11.3478535"><ele>654.4</ele><time>2026-04-19T10:04:12.164Z</time></trkpt><trkpt lat="43.5348578" lon="11.3477775"><ele>655.0</ele><time>2026-04-19T10:04:14.167Z</time></trkpt><trkpt lat="43.5349644" lon="11.3476767"><ele>655.0</ele><time>2026-04-19T10:04:16.172Z</time></trkpt><trkpt lat="43.5350319" lon="11.3476257"><ele>655.0</ele><time>2026-04-19T10:04:17.173Z</time></trkpt><trkpt lat="43.5351103" lon="11.347554"><ele>655.0</ele><time>2026-04-19T10:04:18.159Z</time></trkpt><trkpt lat="43.5351982" lon="11.3474689"><ele>655.0</ele><time>2026-04-19T10:04:19.187Z</time></trkpt><trkpt lat="43.5352985" lon="11.3473763"><ele>655.0</ele><time>2026-04-19T10:04:20.174Z</time></trkpt><trkpt lat="43.5354" lon="11.3472769"><ele>653.4</ele><time>2026-04-19T10:04:21.173Z</time></trkpt><trkpt lat="43.5354981" lon="11.3471849"><ele>651.8</ele><time>2026-04-19T10:04:22.183Z</time></trkpt><trkpt lat="43.5355906" lon="11.3471089"><ele>650.2</ele><time>2026-04-19T10:04:23.172Z</time></trkpt><trkpt lat="43.5356795" lon="11.3470432"><ele>648.6</ele><time>2026-04-19T10:04:24.178Z</time></trkpt><trkpt lat="43.5357635" lon="11.3469847"><ele>647.0</ele><time>2026-04-19T10:04:25.181Z</time></trkpt><trkpt lat="43.5358412" lon="11.3469008"><ele>647.0</ele><time>2026-04-19T10:04:26.172Z</time></trkpt><trkpt lat="43.5359045" lon="11.3468001"><ele>647.0</ele><time>2026-04-19T10:04:27.171Z</time></trkpt><trkpt lat="43.5359596" lon="11.3466837"><ele>647.0</ele><time>2026-04-19T10:04:28.171Z</time></trkpt><trkpt lat="43.5360231" lon="11.3465298"><ele>647.0</ele><time>2026-04-19T10:04:29.179Z</time></trkpt><trkpt lat="43.5360815" lon="11.3463317"><ele>646.0</ele><time>2026-04-19T10:04:30.176Z</time></trkpt><trkpt lat="43.5361474" lon="11.3461268"><ele>645.0</ele><time>2026-04-19T10:04:31.161Z</time></trkpt><trkpt lat="43.5362203" lon="11.3459183"><ele>644.0</ele><time>2026-04-19T10:04:32.174Z</time></trkpt><trkpt lat="43.5362918" lon="11.3457219"><ele>642.0</ele><time>2026-04-19T10:04:33.172Z</time></trkpt><trkpt lat="43.5363589" lon="11.3455204"><ele>640.0</ele><time>2026-04-19T10:04:34.178Z</time></trkpt><trkpt lat="43.5364229" lon="11.3453214"><ele>638.0</ele><time>2026-04-19T10:04:35.156Z</time></trkpt><trkpt lat="43.5364868" lon="11.3451245"><ele>638.0</ele><time>2026-04-19T10:04:36.176Z</time></trkpt><trkpt lat="43.5365462" lon="11.3449395"><ele>638.0</ele><time>2026-04-19T10:04:37.173Z</time></trkpt><trkpt lat="43.5365992" lon="11.3447676"><ele>638.0</ele><time>2026-04-19T10:04:38.171Z</time></trkpt><trkpt lat="43.5366459" lon="11.34462"><ele>638.0</ele><time>2026-04-19T10:04:39.174Z</time></trkpt><trkpt lat="43.5366809" lon="11.3444753"><ele>636.75</ele><time>2026-04-19T10:04:40.184Z</time></trkpt><trkpt lat="43.53672" lon="11.34433"><ele>635.5</ele><time>2026-04-19T10:04:41.179Z</time></trkpt><trkpt lat="43.5367622" lon="11.344176"><ele>634.25</ele><time>2026-04-19T10:04:42.177Z</time></trkpt><trkpt lat="43.5368099" lon="11.3440171"><ele>633.0</ele><time>2026-04-19T10:04:43.166Z</time></trkpt><trkpt lat="43.5368571" lon="11.3438527"><ele>631.4</ele><time>2026-04-19T10:04:44.179Z</time></trkpt><trkpt lat="43.5368999" lon="11.3437032"><ele>629.8</ele><time>2026-04-19T10:04:45.186Z</time></trkpt><trkpt lat="43.5369505" lon="11.3435702"><ele>628.2</ele><time>2026-04-19T10:04:46.165Z</time></trkpt><trkpt lat="43.5369845" lon="11.3434475"><ele>626.6</ele><time>2026-04-19T10:04:47.154Z</time></trkpt><trkpt lat="43.5370011" lon="11.3433185"><ele>625.0</ele><time>2026-04-19T10:04:48.173Z</time></trkpt><trkpt lat="43.5370053" lon="11.3431611"><ele>622.4</ele><time>2026-04-19T10:04:49.169Z</time></trkpt><trkpt lat="43.5370046" lon="11.3430058"><ele>619.8</ele><time>2026-04-19T10:04:50.171Z</time></trkpt><trkpt lat="43.537002" lon="11.3428541"><ele>617.2</ele><time>2026-04-19T10:04:51.156Z</time></trkpt><trkpt lat="43.5370024" lon="11.3426998"><ele>614.6</ele><time>2026-04-19T10:04:52.17Z</time></trkpt><trkpt lat="43.5370028" lon="11.3425422"><ele>612.0</ele><time>2026-04-19T10:04:53.168Z</time></trkpt><trkpt lat="43.5370025" lon="11.3423717"><ele>610.0</ele><time>2026-04-19T10:04:54.169Z</time></trkpt><trkpt lat="43.5370058" lon="11.3422147"><ele>608.0</ele><time>2026-04-19T10:04:55.175Z</time></trkpt><trkpt lat="43.5370081" lon="11.3420617"><ele>606.0</ele><time>2026-04-19T10:04:56.177Z</time></trkpt><trkpt lat="43.5370089" lon="11.3419214"><ele>604.0</ele><time>2026-04-19T10:04:57.172Z</time></trkpt><trkpt lat="43.5370083" lon="11.3417978"><ele>602.0</ele><time>2026-04-19T10:04:58.177Z</time></trkpt><trkpt lat="43.5370058" lon="11.3416922"><ele>602.0</ele><time>2026-04-19T10:04:59.166Z</time></trkpt><trkpt lat="43.5370001" lon="11.3415888"><ele>602.0</ele><time>2026-04-19T10:05:00.18Z</time></trkpt><trkpt lat="43.5369916" lon="11.341496"><ele>602.0</ele><time>2026-04-19T10:05:01.172Z</time></trkpt><trkpt lat="43.5369726" lon="11.3414002"><ele>602.0</ele><time>2026-04-19T10:05:02.158Z</time></trkpt><trkpt lat="43.5368776" lon="11.341259"><ele>602.0</ele><time>2026-04-19T10:05:04.17Z</time></trkpt><trkpt lat="43.5367876" lon="11.3411954"><ele>603.8000000000001</ele><time>2026-04-19T10:05:05.173Z</time></trkpt><trkpt lat="43.536684" lon="11.3411471"><ele>605.6</ele><time>2026-04-19T10:05:06.168Z</time></trkpt><trkpt lat="43.5365828" lon="11.3411025"><ele>607.4000000000001</ele><time>2026-04-19T10:05:07.172Z</time></trkpt><trkpt lat="43.5364805" lon="11.3410457"><ele>609.2</ele><time>2026-04-19T10:05:08.169Z</time></trkpt><trkpt lat="43.5363791" lon="11.3409603"><ele>611.0</ele><time>2026-04-19T10:05:09.164Z</time></trkpt><trkpt lat="43.536276" lon="11.340868"><ele>605.0</ele><time>2026-04-19T10:05:10.156Z</time></trkpt><trkpt lat="43.5361695" lon="11.340784"><ele>599.0</ele><time>2026-04-19T10:05:11.167Z</time></trkpt><trkpt lat="43.5360539" lon="11.3407087"><ele>593.0</ele><time>2026-04-19T10:05:12.179Z</time></trkpt><trkpt lat="43.5359352" lon="11.3406415"><ele>587.0</ele><time>2026-04-19T10:05:13.181Z</time></trkpt><trkpt lat="43.5358246" lon="11.3405721"><ele>591.5</ele><time>2026-04-19T10:05:14.171Z</time></trkpt><trkpt lat="43.5357119" lon="11.3404996"><ele>596.0</ele><time>2026-04-19T10:05:15.175Z</time></trkpt><trkpt lat="43.5356046" lon="11.3404168"><ele>600.5</ele><time>2026-04-19T10:05:16.167Z</time></trkpt><trkpt lat="43.5355073" lon="11.3403343"><ele>605.0</ele><time>2026-04-19T10:05:17.178Z</time></trkpt><trkpt lat="43.5354159" lon="11.340252"><ele>599.2</ele><time>2026-04-19T10:05:18.176Z</time></trkpt><trkpt lat="43.5353286" lon="11.3401666"><ele>593.4</ele><time>2026-04-19T10:05:19.176Z</time></trkpt><trkpt lat="43.5352461" lon="11.3400798"><ele>587.6</ele><time>2026-04-19T10:05:20.177Z</time></trkpt><trkpt lat="43.5351722" lon="11.3399847"><ele>581.8</ele><time>2026-04-19T10:05:21.173Z</time></trkpt><trkpt lat="43.5351097" lon="11.3398718"><ele>576.0</ele><time>2026-04-19T10:05:22.17Z</time></trkpt><trkpt lat="43.5350387" lon="11.3397377"><ele>577.6</ele><time>2026-04-19T10:05:23.176Z</time></trkpt><trkpt lat="43.5349767" lon="11.339601"><ele>579.2</ele><time>2026-04-19T10:05:24.173Z</time></trkpt><trkpt lat="43.5349187" lon="11.3394778"><ele>580.8</ele><time>2026-04-19T10:05:25.172Z</time></trkpt><trkpt lat="43.5348648" lon="11.3393508"><ele>582.4</ele><time>2026-04-19T10:05:26.168Z</time></trkpt><trkpt lat="43.53481" lon="11.33923"><ele>584.0</ele><time>2026-04-19T10:05:27.167Z</time></trkpt><trkpt lat="43.5347527" lon="11.3391106"><ele>584.0</ele><time>2026-04-19T10:05:28.15Z</time></trkpt><trkpt lat="43.5346985" lon="11.3389873"><ele>584.0</ele><time>2026-04-19T10:05:29.175Z</time></trkpt><trkpt lat="43.5346467" lon="11.338862"><ele>584.0</ele><time>2026-04-19T10:05:30.169Z</time></trkpt><trkpt lat="43.5345936" lon="11.3387468"><ele>584.0</ele><time>2026-04-19T10:05:31.169Z</time></trkpt><trkpt lat="43.5345406" lon="11.3386345"><ele>584.0</ele><time>2026-04-19T10:05:32.173Z</time></trkpt><trkpt lat="43.5344946" lon="11.3385317"><ele>579.3333333333333</ele><time>2026-04-19T10:05:33.163Z</time></trkpt><trkpt lat="43.5344542" lon="11.3384417"><ele>574.6666666666666</ele><time>2026-04-19T10:05:34.149Z</time></trkpt><trkpt lat="43.5344187" lon="11.3383671"><ele>570.0</ele><time>2026-04-19T10:05:35.155Z</time></trkpt><trkpt lat="43.5343811" lon="11.3382916"><ele>565.3333333333334</ele><time>2026-04-19T10:05:36.181Z</time></trkpt><trkpt lat="43.5343529" lon="11.3382098"><ele>560.6666666666667</ele><time>2026-04-19T10:05:37.161Z</time></trkpt><trkpt lat="43.5343378" lon="11.3380376"><ele>556.0</ele><time>2026-04-19T10:05:39.152Z</time></trkpt><trkpt lat="43.5343818" lon="11.3378781"><ele>556.6</ele><time>2026-04-19T10:05:41.173Z</time></trkpt><trkpt lat="43.5344451" lon="11.3377998"><ele>557.2</ele><time>2026-04-19T10:05:42.174Z</time></trkpt><trkpt lat="43.5345212" lon="11.3377185"><ele>557.8</ele><time>2026-04-19T10:05:43.168Z</time></trkpt><trkpt lat="43.5346127" lon="11.3376292"><ele>558.4</ele><time>2026-04-19T10:05:44.155Z</time></trkpt><trkpt lat="43.5347125" lon="11.3375446"><ele>559.0</ele><time>2026-04-19T10:05:45.177Z</time></trkpt><trkpt lat="43.534814" lon="11.3374532"><ele>559.0</ele><time>2026-04-19T10:05:46.174Z</time></trkpt><trkpt lat="43.5349287" lon="11.3373554"><ele>559.0</ele><time>2026-04-19T10:05:47.165Z</time></trkpt><trkpt lat="43.5350447" lon="11.3372559"><ele>559.0</ele><time>2026-04-19T10:05:48.169Z</time></trkpt><trkpt lat="43.5351623" lon="11.3371667"><ele>559.0</ele><time>2026-04-19T10:05:49.175Z</time></trkpt><trkpt lat="43.5352742" lon="11.3370841"><ele>556.2</ele><time>2026-04-19T10:05:50.169Z</time></trkpt><trkpt lat="43.5353799" lon="11.3370001"><ele>553.4</ele><time>2026-04-19T10:05:51.156Z</time></trkpt><trkpt lat="43.5354701" lon="11.3369193"><ele>550.6</ele><time>2026-04-19T10:05:52.153Z</time></trkpt><trkpt lat="43.5355544" lon="11.3368484"><ele>547.8</ele><time>2026-04-19T10:05:53.18Z</time></trkpt><trkpt lat="43.5356164" lon="11.3367804"><ele>545.0</ele><time>2026-04-19T10:05:54.169Z</time></trkpt><trkpt lat="43.5356675" lon="11.3367125"><ele>545.0</ele><time>2026-04-19T10:05:55.162Z</time></trkpt><trkpt lat="43.5356989" lon="11.336622"><ele>545.0</ele><time>2026-04-19T10:05:56.179Z</time></trkpt><trkpt lat="43.5357158" lon="11.3365124"><ele>545.0</ele><time>2026-04-19T10:05:57.171Z</time></trkpt><trkpt lat="43.5357241" lon="11.3363956"><ele>545.0</ele><time>2026-04-19T10:05:58.169Z</time></trkpt><trkpt lat="43.5357428" lon="11.3362879"><ele>545.0</ele><time>2026-04-19T10:05:59.174Z</time></trkpt><trkpt lat="43.5357724" lon="11.3361954"><ele>545.0</ele><time>2026-04-19T10:06:00.169Z</time></trkpt><trkpt lat="43.5358175" lon="11.3361242"><ele>542.3333333333333</ele><time>2026-04-19T10:06:01.173Z</time></trkpt><trkpt lat="43.5358709" lon="11.3360772"><ele>539.6666666666666</ele><time>2026-04-19T10:06:02.18Z</time></trkpt><trkpt lat="43.5359368" lon="11.3360557"><ele>537.0</ele><time>2026-04-19T10:06:03.155Z</time></trkpt><trkpt lat="43.5360213" lon="11.3360733"><ele>534.3333333333334</ele><time>2026-04-19T10:06:04.174Z</time></trkpt><trkpt lat="43.5361168" lon="11.3360913"><ele>531.6666666666667</ele><time>2026-04-19T10:06:05.175Z</time></trkpt><trkpt lat="43.5362126" lon="11.3361021"><ele>529.0</ele><time>2026-04-19T10:06:06.176Z</time></trkpt><trkpt lat="43.5363182" lon="11.3360895"><ele>528.8</ele><time>2026-04-19T10:06:07.176Z</time></trkpt><trkpt lat="43.5364256" lon="11.3360464"><ele>528.5999999999999</ele><time>2026-04-19T10:06:08.168Z</time></trkpt><trkpt lat="43.5365328" lon="11.335992"><ele>528.4</ele><time>2026-04-19T10:06:09.173Z</time></trkpt><trkpt lat="43.5366305" lon="11.3359476"><ele>528.1999999999999</ele><time>2026-04-19T10:06:10.154Z</time></trkpt><trkpt lat="43.536729" lon="11.33591"><ele>528.0</ele><time>2026-04-19T10:06:11.174Z</time></trkpt><trkpt lat="43.5368201" lon="11.3358666"><ele>528.0</ele><time>2026-04-19T10:06:12.179Z</time></trkpt><trkpt lat="43.5369019" lon="11.3358115"><ele>528.0</ele><time>2026-04-19T10:06:13.179Z</time></trkpt><trkpt lat="43.5369684" lon="11.3357411"><ele>528.0</ele><time>2026-04-19T10:06:14.186Z</time></trkpt><trkpt lat="43.5370276" lon="11.3356475"><ele>528.0</ele><time>2026-04-19T10:06:15.181Z</time></trkpt><trkpt lat="43.5370812" lon="11.3355417"><ele>528.0</ele><time>2026-04-19T10:06:16.177Z</time></trkpt><trkpt lat="43.5371265" lon="11.3354261"><ele>526.0</ele><time>2026-04-19T10:06:17.172Z</time></trkpt><trkpt lat="43.5371631" lon="11.3353181"><ele>524.0</ele><time>2026-04-19T10:06:18.175Z</time></trkpt><trkpt lat="43.5371964" lon="11.3352145"><ele>522.0</ele><time>2026-04-19T10:06:19.171Z</time></trkpt><trkpt lat="43.5372276" lon="11.3351195"><ele>520.0</ele><time>2026-04-19T10:06:20.172Z</time></trkpt><trkpt lat="43.537256" lon="11.3350216"><ele>518.0</ele><time>2026-04-19T10:06:21.179Z</time></trkpt><trkpt lat="43.5372823" lon="11.3349423"><ele>516.0</ele><time>2026-04-19T10:06:22.167Z</time></trkpt><trkpt lat="43.5373267" lon="11.3348581"><ele>516.0</ele><time>2026-04-19T10:06:24.175Z</time></trkpt><trkpt lat="43.5373328" lon="11.3347539"><ele>516.0</ele><time>2026-04-19T10:06:27.153Z</time></trkpt><trkpt lat="43.5372542" lon="11.3346908"><ele>516.0</ele><time>2026-04-19T10:06:30.167Z</time></trkpt><trkpt lat="43.537153" lon="11.3347111"><ele>516.0</ele><time>2026-04-19T10:06:32.162Z</time></trkpt><trkpt lat="43.537072" lon="11.3347314"><ele>516.0</ele><time>2026-04-19T10:06:33.152Z</time></trkpt><trkpt lat="43.5369708" lon="11.3347531"><ele>515.8</ele><time>2026-04-19T10:06:34.167Z</time></trkpt><trkpt lat="43.5368685" lon="11.3347762"><ele>515.6</ele><time>2026-04-19T10:06:35.159Z</time></trkpt><trkpt lat="43.5367677" lon="11.3347945"><ele>515.4</ele><time>2026-04-19T10:06:36.158Z</time></trkpt><trkpt lat="43.5366611" lon="11.3348167"><ele>515.2</ele><time>2026-04-19T10:06:37.158Z</time></trkpt><trkpt lat="43.5365675" lon="11.3348355"><ele>515.0</ele><time>2026-04-19T10:06:38.167Z</time></trkpt><trkpt lat="43.5365016" lon="11.3348528"><ele>515.0</ele><time>2026-04-19T10:06:39.175Z</time></trkpt><trkpt lat="43.5364322" lon="11.3348493"><ele>515.0</ele><time>2026-04-19T10:06:40.171Z</time></trkpt><trkpt lat="43.5363254" lon="11.334783"><ele>515.0</ele><time>2026-04-19T10:06:42.166Z</time></trkpt><trkpt lat="43.5362709" lon="11.3347197"><ele>515.0</ele><time>2026-04-19T10:06:43.168Z</time></trkpt><trkpt lat="43.536221" lon="11.3346494"><ele>515.0</ele><time>2026-04-19T10:06:44.176Z</time></trkpt><trkpt lat="43.5361631" lon="11.3345947"><ele>515.0</ele><time>2026-04-19T10:06:45.171Z</time></trkpt><trkpt lat="43.5360765" lon="11.3345496"><ele>512.7142857142858</ele><time>2026-04-19T10:06:46.177Z</time></trkpt><trkpt lat="43.5359976" lon="11.3345332"><ele>510.42857142857144</ele><time>2026-04-19T10:06:47.169Z</time></trkpt><trkpt lat="43.5359268" lon="11.3345304"><ele>508.14285714285717</ele><time>2026-04-19T10:06:48.168Z</time></trkpt><trkpt lat="43.5358496" lon="11.3345217"><ele>505.8571428571429</ele><time>2026-04-19T10:06:49.171Z</time></trkpt><trkpt lat="43.5357808" lon="11.3344955"><ele>503.57142857142856</ele><time>2026-04-19T10:06:50.174Z</time></trkpt><trkpt lat="43.535717" lon="11.3344488"><ele>501.28571428571433</ele><time>2026-04-19T10:06:51.172Z</time></trkpt><trkpt lat="43.5356544" lon="11.3343955"><ele>499.00000000000006</ele><time>2026-04-19T10:06:52.175Z</time></trkpt><trkpt lat="43.5355828" lon="11.3343398"><ele>499.0</ele><time>2026-04-19T10:06:53.178Z</time></trkpt><trkpt lat="43.5355125" lon="11.3342753"><ele>499.0</ele><time>2026-04-19T10:06:54.167Z</time></trkpt><trkpt lat="43.5354452" lon="11.3342051"><ele>499.0</ele><time>2026-04-19T10:06:55.168Z</time></trkpt><trkpt lat="43.5353658" lon="11.3341384"><ele>499.0</ele><time>2026-04-19T10:06:56.18Z</time></trkpt><trkpt lat="43.5352784" lon="11.3340683"><ele>499.0</ele><time>2026-04-19T10:06:57.175Z</time></trkpt><trkpt lat="43.5351963" lon="11.334007"><ele>498.4</ele><time>2026-04-19T10:06:58.168Z</time></trkpt><trkpt lat="43.5351175" lon="11.333945"><ele>497.79999999999995</ele><time>2026-04-19T10:06:59.168Z</time></trkpt><trkpt lat="43.5350329" lon="11.3338788"><ele>497.20000000000005</ele><time>2026-04-19T10:07:00.164Z</time></trkpt><trkpt lat="43.5349536" lon="11.3338015"><ele>496.6</ele><time>2026-04-19T10:07:01.18Z</time></trkpt><trkpt lat="43.534886" lon="11.3337032"><ele>496.0</ele><time>2026-04-19T10:07:02.18Z</time></trkpt><trkpt lat="43.5348277" lon="11.3335943"><ele>493.20000000000005</ele><time>2026-04-19T10:07:03.161Z</time></trkpt><trkpt lat="43.5347653" lon="11.3334931"><ele>490.40000000000003</ele><time>2026-04-19T10:07:04.177Z</time></trkpt><trkpt lat="43.5346831" lon="11.3333943"><ele>487.6</ele><time>2026-04-19T10:07:05.174Z</time></trkpt><trkpt lat="43.5345843" lon="11.3333139"><ele>484.8</ele><time>2026-04-19T10:07:06.164Z</time></trkpt><trkpt lat="43.5344898" lon="11.3332335"><ele>482.0</ele><time>2026-04-19T10:07:07.174Z</time></trkpt><trkpt lat="43.5344011" lon="11.3331725"><ele>481.8</ele><time>2026-04-19T10:07:08.158Z</time></trkpt><trkpt lat="43.5343102" lon="11.3331485"><ele>481.6</ele><time>2026-04-19T10:07:09.166Z</time></trkpt><trkpt lat="43.5342076" lon="11.3331441"><ele>481.40000000000003</ele><time>2026-04-19T10:07:10.171Z</time></trkpt><trkpt lat="43.5340927" lon="11.3331424"><ele>481.20000000000005</ele><time>2026-04-19T10:07:11.168Z</time></trkpt><trkpt lat="43.5339638" lon="11.3331332"><ele>481.0</ele><time>2026-04-19T10:07:12.175Z</time></trkpt><trkpt lat="43.5338401" lon="11.3331321"><ele>480.0</ele><time>2026-04-19T10:07:13.171Z</time></trkpt><trkpt lat="43.5337215" lon="11.3331332"><ele>479.0</ele><time>2026-04-19T10:07:14.19Z</time></trkpt><trkpt lat="43.5336092" lon="11.333127"><ele>478.0</ele><time>2026-04-19T10:07:15.17Z</time></trkpt><trkpt lat="43.5335188" lon="11.3331036"><ele>477.0</ele><time>2026-04-19T10:07:16.157Z</time></trkpt><trkpt lat="43.5334211" lon="11.3330637"><ele>476.0</ele><time>2026-04-19T10:07:17.168Z</time></trkpt><trkpt lat="43.5333109" lon="11.3330319"><ele>475.5</ele><time>2026-04-19T10:07:18.167Z</time></trkpt><trkpt lat="43.5332019" lon="11.3329984"><ele>475.0</ele><time>2026-04-19T10:07:19.169Z</time></trkpt><trkpt lat="43.5330934" lon="11.3329688"><ele>474.5</ele><time>2026-04-19T10:07:20.182Z</time></trkpt><trkpt lat="43.5329738" lon="11.3329417"><ele>474.0</ele><time>2026-04-19T10:07:21.18Z</time></trkpt><trkpt lat="43.532857" lon="11.3329245"><ele>473.4</ele><time>2026-04-19T10:07:22.163Z</time></trkpt><trkpt lat="43.532745" lon="11.3329139"><ele>472.79999999999995</ele><time>2026-04-19T10:07:23.176Z</time></trkpt><trkpt lat="43.5326488" lon="11.3329089"><ele>472.20000000000005</ele><time>2026-04-19T10:07:24.175Z</time></trkpt><trkpt lat="43.5325607" lon="11.3328969"><ele>471.6</ele><time>2026-04-19T10:07:25.17Z</time></trkpt><trkpt lat="43.5324817" lon="11.3328762"><ele>471.0</ele><time>2026-04-19T10:07:26.179Z</time></trkpt><trkpt lat="43.5324052" lon="11.3328396"><ele>471.0</ele><time>2026-04-19T10:07:27.167Z</time></trkpt><trkpt lat="43.5323293" lon="11.3327789"><ele>471.0</ele><time>2026-04-19T10:07:28.183Z</time></trkpt><trkpt lat="43.5322524" lon="11.3327167"><ele>471.0</ele><time>2026-04-19T10:07:29.181Z</time></trkpt><trkpt lat="43.5321772" lon="11.3326555"><ele>471.0</ele><time>2026-04-19T10:07:30.173Z</time></trkpt><trkpt lat="43.5321064" lon="11.332592"><ele>471.0</ele><time>2026-04-19T10:07:31.178Z</time></trkpt><trkpt lat="43.5320336" lon="11.332506"><ele>471.0</ele><time>2026-04-19T10:07:32.172Z</time></trkpt><trkpt lat="43.5319768" lon="11.3324084"><ele>468.4</ele><time>2026-04-19T10:07:33.169Z</time></trkpt><trkpt lat="43.5319188" lon="11.3322939"><ele>465.8</ele><time>2026-04-19T10:07:34.163Z</time></trkpt><trkpt lat="43.5318666" lon="11.3321674"><ele>463.19999999999993</ele><time>2026-04-19T10:07:35.175Z</time></trkpt><trkpt lat="43.5318138" lon="11.3320412"><ele>460.59999999999997</ele><time>2026-04-19T10:07:36.18Z</time></trkpt><trkpt lat="43.53176" lon="11.3319291"><ele>458.0</ele><time>2026-04-19T10:07:37.176Z</time></trkpt><trkpt lat="43.5317081" lon="11.3318337"><ele>457.99999999999994</ele><time>2026-04-19T10:07:38.173Z</time></trkpt><trkpt lat="43.5316815" lon="11.3317523"><ele>458.0</ele><time>2026-04-19T10:07:39.164Z</time></trkpt><trkpt lat="43.5316632" lon="11.3316688"><ele>458.0</ele><time>2026-04-19T10:07:40.179Z</time></trkpt><trkpt lat="43.5316428" lon="11.3315583"><ele>458.0</ele><time>2026-04-19T10:07:41.181Z</time></trkpt><trkpt lat="43.5316" lon="11.3314273"><ele>457.99999999999994</ele><time>2026-04-19T10:07:42.182Z</time></trkpt><trkpt lat="43.5315538" lon="11.3312977"><ele>458.0</ele><time>2026-04-19T10:07:43.178Z</time></trkpt><trkpt lat="43.5315075" lon="11.3311658"><ele>456.8333333333333</ele><time>2026-04-19T10:07:44.179Z</time></trkpt><trkpt lat="43.5314616" lon="11.3310642"><ele>455.66666666666663</ele><time>2026-04-19T10:07:45.156Z</time></trkpt><trkpt lat="43.5314004" lon="11.3310078"><ele>454.5</ele><time>2026-04-19T10:07:46.169Z</time></trkpt><trkpt lat="43.5313283" lon="11.3309743"><ele>453.33333333333337</ele><time>2026-04-19T10:07:47.167Z</time></trkpt><trkpt lat="43.5312407" lon="11.3309459"><ele>452.1666666666667</ele><time>2026-04-19T10:07:48.165Z</time></trkpt><trkpt lat="43.5311611" lon="11.3309152"><ele>451.0</ele><time>2026-04-19T10:07:49.159Z</time></trkpt><trkpt lat="43.5310835" lon="11.3308758"><ele>450.20000000000005</ele><time>2026-04-19T10:07:50.153Z</time></trkpt><trkpt lat="43.5309867" lon="11.330808"><ele>449.40000000000003</ele><time>2026-04-19T10:07:51.173Z</time></trkpt><trkpt lat="43.5308855" lon="11.3307227"><ele>448.6</ele><time>2026-04-19T10:07:52.175Z</time></trkpt><trkpt lat="43.5308005" lon="11.3306404"><ele>447.8</ele><time>2026-04-19T10:07:53.176Z</time></trkpt><trkpt lat="43.5307066" lon="11.3305685"><ele>447.0</ele><time>2026-04-19T10:07:54.167Z</time></trkpt><trkpt lat="43.5306187" lon="11.3304857"><ele>446.1666666666667</ele><time>2026-04-19T10:07:55.175Z</time></trkpt><trkpt lat="43.5305466" lon="11.330406"><ele>445.33333333333337</ele><time>2026-04-19T10:07:56.18Z</time></trkpt><trkpt lat="43.5304687" lon="11.3303286"><ele>444.5</ele><time>2026-04-19T10:07:57.179Z</time></trkpt><trkpt lat="43.530393" lon="11.3302634"><ele>443.6666666666667</ele><time>2026-04-19T10:07:58.173Z</time></trkpt><trkpt lat="43.5303306" lon="11.3302155"><ele>442.83333333333337</ele><time>2026-04-19T10:07:59.181Z</time></trkpt><trkpt lat="43.5302779" lon="11.3301675"><ele>442.0</ele><time>2026-04-19T10:08:00.168Z</time></trkpt><trkpt lat="43.5302148" lon="11.3300424"><ele>440.8</ele><time>2026-04-19T10:08:02.177Z</time></trkpt><trkpt lat="43.5301793" lon="11.3299269"><ele>439.6</ele><time>2026-04-19T10:08:04.173Z</time></trkpt><trkpt lat="43.5301039" lon="11.3298281"><ele>438.40000000000003</ele><time>2026-04-19T10:08:06.191Z</time></trkpt><trkpt lat="43.5300096" lon="11.3297407"><ele>437.20000000000005</ele><time>2026-04-19T10:08:08.181Z</time></trkpt><trkpt lat="43.5299251" lon="11.3296394"><ele>436.0</ele><time>2026-04-19T10:08:10.178Z</time></trkpt><trkpt lat="43.5298437" lon="11.3295505"><ele>434.83333333333337</ele><time>2026-04-19T10:08:12.168Z</time></trkpt><trkpt lat="43.5297726" lon="11.3294604"><ele>433.6666666666667</ele><time>2026-04-19T10:08:14.177Z</time></trkpt><trkpt lat="43.529697" lon="11.3293652"><ele>432.5</ele><time>2026-04-19T10:08:16.174Z</time></trkpt><trkpt lat="43.5296461" lon="11.3292913"><ele>431.33333333333337</ele><time>2026-04-19T10:08:18.165Z</time></trkpt><trkpt lat="43.529583" lon="11.3292746"><ele>430.1666666666667</ele><time>2026-04-19T10:08:20.181Z</time></trkpt><trkpt lat="43.5295057" lon="11.3293023"><ele>429.0</ele><time>2026-04-19T10:08:22.159Z</time></trkpt><trkpt lat="43.5294435" lon="11.329347"><ele>428.79999999999995</ele><time>2026-04-19T10:08:23.178Z</time></trkpt><trkpt lat="43.5293616" lon="11.3294043"><ele>428.59999999999997</ele><time>2026-04-19T10:08:24.176Z</time></trkpt><trkpt lat="43.5292744" lon="11.3294555"><ele>428.4</ele><time>2026-04-19T10:08:25.176Z</time></trkpt><trkpt lat="43.5291828" lon="11.3295096"><ele>428.2</ele><time>2026-04-19T10:08:26.182Z</time></trkpt><trkpt lat="43.5290883" lon="11.3295665"><ele>428.0</ele><time>2026-04-19T10:08:27.174Z</time></trkpt><trkpt lat="43.528992" lon="11.3296273"><ele>428.0</ele><time>2026-04-19T10:08:28.177Z</time></trkpt><trkpt lat="43.5288947" lon="11.3296913"><ele>427.99999999999994</ele><time>2026-04-19T10:08:29.172Z</time></trkpt><trkpt lat="43.5287981" lon="11.3297582"><ele>427.99999999999994</ele><time>2026-04-19T10:08:30.167Z</time></trkpt><trkpt lat="43.5286952" lon="11.3298256"><ele>428.0</ele><time>2026-04-19T10:08:31.169Z</time></trkpt><trkpt lat="43.5285887" lon="11.3298881"><ele>428.0</ele><time>2026-04-19T10:08:32.17Z</time></trkpt><trkpt lat="43.5284823" lon="11.3299577"><ele>424.79999999999995</ele><time>2026-04-19T10:08:33.155Z</time></trkpt><trkpt lat="43.5283788" lon="11.3300226"><ele>421.59999999999997</ele><time>2026-04-19T10:08:34.155Z</time></trkpt><trkpt lat="43.5282751" lon="11.330086"><ele>418.4</ele><time>2026-04-19T10:08:35.159Z</time></trkpt><trkpt lat="43.528175" lon="11.3301521"><ele>415.20000000000005</ele><time>2026-04-19T10:08:36.17Z</time></trkpt><trkpt lat="43.528075" lon="11.3302123"><ele>412.0</ele><time>2026-04-19T10:08:37.162Z</time></trkpt><trkpt lat="43.527981" lon="11.3302679"><ele>412.00000000000006</ele><time>2026-04-19T10:08:38.17Z</time></trkpt><trkpt lat="43.5278936" lon="11.3303301"><ele>412.0</ele><time>2026-04-19T10:08:39.175Z</time></trkpt><trkpt lat="43.5278114" lon="11.3303853"><ele>412.0</ele><time>2026-04-19T10:08:40.179Z</time></trkpt><trkpt lat="43.5277288" lon="11.3304377"><ele>412.0</ele><time>2026-04-19T10:08:41.183Z</time></trkpt><trkpt lat="43.5276523" lon="11.3304845"><ele>412.00000000000006</ele><time>2026-04-19T10:08:42.168Z</time></trkpt><trkpt lat="43.5275822" lon="11.3305307"><ele>412.0</ele><time>2026-04-19T10:08:43.174Z</time></trkpt><trkpt lat="43.5275179" lon="11.3305731"><ele>408.6</ele><time>2026-04-19T10:08:44.168Z</time></trkpt><trkpt lat="43.527458" lon="11.3306047"><ele>405.20000000000005</ele><time>2026-04-19T10:08:45.169Z</time></trkpt><trkpt lat="43.5273527" lon="11.3306661"><ele>401.8</ele><time>2026-04-19T10:08:47.173Z</time></trkpt><trkpt lat="43.5272779" lon="11.330753"><ele>398.4</ele><time>2026-04-19T10:08:49.174Z</time></trkpt><trkpt lat="43.5272574" lon="11.3309124"><ele>395.0</ele><time>2026-04-19T10:08:51.164Z</time></trkpt><trkpt lat="43.5272621" lon="11.3310077"><ele>394.99999999999994</ele><time>2026-04-19T10:08:52.154Z</time></trkpt><trkpt lat="43.5272757" lon="11.3311133"><ele>395.0</ele><time>2026-04-19T10:08:53.181Z</time></trkpt><trkpt lat="43.5272935" lon="11.3312163"><ele>395.0</ele><time>2026-04-19T10:08:54.168Z</time></trkpt><trkpt lat="43.5273108" lon="11.3313168"><ele>395.0</ele><time>2026-04-19T10:08:55.17Z</time></trkpt><trkpt lat="43.5273256" lon="11.3314242"><ele>394.99999999999994</ele><time>2026-04-19T10:08:56.171Z</time></trkpt><trkpt lat="43.5273471" lon="11.3315371"><ele>395.0</ele><time>2026-04-19T10:08:57.176Z</time></trkpt><trkpt lat="43.5273787" lon="11.3316571"><ele>392.0</ele><time>2026-04-19T10:08:58.17Z</time></trkpt><trkpt lat="43.5274193" lon="11.3317909"><ele>389.0</ele><time>2026-04-19T10:08:59.171Z</time></trkpt><trkpt lat="43.5274619" lon="11.3319376"><ele>386.0</ele><time>2026-04-19T10:09:00.153Z</time></trkpt><trkpt lat="43.5275104" lon="11.3320941"><ele>383.0</ele><time>2026-04-19T10:09:01.173Z</time></trkpt><trkpt lat="43.5275599" lon="11.332249"><ele>381.79999999999995</ele><time>2026-04-19T10:09:02.157Z</time></trkpt><trkpt lat="43.5276061" lon="11.3323886"><ele>380.6</ele><time>2026-04-19T10:09:03.169Z</time></trkpt><trkpt lat="43.5276492" lon="11.3325159"><ele>379.4</ele><time>2026-04-19T10:09:04.173Z</time></trkpt><trkpt lat="43.5276874" lon="11.3326209"><ele>378.20000000000005</ele><time>2026-04-19T10:09:05.172Z</time></trkpt><trkpt lat="43.5277281" lon="11.3327233"><ele>377.0</ele><time>2026-04-19T10:09:06.172Z</time></trkpt><trkpt lat="43.5277737" lon="11.3328306"><ele>377.0</ele><time>2026-04-19T10:09:07.168Z</time></trkpt><trkpt lat="43.5278265" lon="11.3329331"><ele>377.0</ele><time>2026-04-19T10:09:08.17Z</time></trkpt><trkpt lat="43.5278711" lon="11.3330304"><ele>377.0</ele><time>2026-04-19T10:09:09.174Z</time></trkpt><trkpt lat="43.5279193" lon="11.3331191"><ele>377.0</ele><time>2026-04-19T10:09:10.17Z</time></trkpt><trkpt lat="43.5279689" lon="11.333203"><ele>377.0</ele><time>2026-04-19T10:09:11.163Z</time></trkpt><trkpt lat="43.5280099" lon="11.3332867"><ele>377.0</ele><time>2026-04-19T10:09:12.172Z</time></trkpt><trkpt lat="43.5280503" lon="11.3333757"><ele>377.5</ele><time>2026-04-19T10:09:13.178Z</time></trkpt><trkpt lat="43.5280904" lon="11.3334501"><ele>378.0</ele><time>2026-04-19T10:09:14.18Z</time></trkpt><trkpt lat="43.5281251" lon="11.333525"><ele>378.5</ele><time>2026-04-19T10:09:15.173Z</time></trkpt><trkpt lat="43.5281518" lon="11.3336074"><ele>379.0</ele><time>2026-04-19T10:09:16.175Z</time></trkpt><trkpt lat="43.5281767" lon="11.3336873"><ele>379.5</ele><time>2026-04-19T10:09:17.165Z</time></trkpt><trkpt lat="43.5282129" lon="11.3338397"><ele>380.0</ele><time>2026-04-19T10:09:19.169Z</time></trkpt><trkpt lat="43.5282061" lon="11.3339767"><ele>379.6</ele><time>2026-04-19T10:09:21.168Z</time></trkpt><trkpt lat="43.5281546" lon="11.3341026"><ele>379.2</ele><time>2026-04-19T10:09:23.168Z</time></trkpt><trkpt lat="43.5280567" lon="11.3341826"><ele>378.79999999999995</ele><time>2026-04-19T10:09:25.171Z</time></trkpt><trkpt lat="43.5279226" lon="11.334163"><ele>378.4</ele><time>2026-04-19T10:09:27.168Z</time></trkpt><trkpt lat="43.5278409" lon="11.3341437"><ele>378.0</ele><time>2026-04-19T10:09:28.169Z</time></trkpt><trkpt lat="43.5277542" lon="11.3341246"><ele>378.0</ele><time>2026-04-19T10:09:29.177Z</time></trkpt><trkpt lat="43.5276658" lon="11.334107"><ele>378.0</ele><time>2026-04-19T10:09:30.158Z</time></trkpt><trkpt lat="43.5275811" lon="11.3341121"><ele>378.0</ele><time>2026-04-19T10:09:31.173Z</time></trkpt><trkpt lat="43.5274978" lon="11.3341366"><ele>378.0</ele><time>2026-04-19T10:09:32.175Z</time></trkpt><trkpt lat="43.5274112" lon="11.3341743"><ele>378.0</ele><time>2026-04-19T10:09:33.172Z</time></trkpt><trkpt lat="43.5273352" lon="11.3342077"><ele>378.0</ele><time>2026-04-19T10:09:34.148Z</time></trkpt><trkpt lat="43.5272602" lon="11.3342187"><ele>378.0</ele><time>2026-04-19T10:09:35.144Z</time></trkpt><trkpt lat="43.5271912" lon="11.3342093"><ele>378.0</ele><time>2026-04-19T10:09:36.162Z</time></trkpt><trkpt lat="43.5271163" lon="11.3341884"><ele>378.0</ele><time>2026-04-19T10:09:37.173Z</time></trkpt><trkpt lat="43.527043" lon="11.3341681"><ele>378.0</ele><time>2026-04-19T10:09:38.166Z</time></trkpt><trkpt lat="43.5269798" lon="11.3341344"><ele>378.0</ele><time>2026-04-19T10:09:39.16Z</time></trkpt><trkpt lat="43.5268681" lon="11.3340509"><ele>378.0</ele><time>2026-04-19T10:09:41.176Z</time></trkpt><trkpt lat="43.526798" lon="11.3340223"><ele>377.1666666666667</ele><time>2026-04-19T10:09:42.167Z</time></trkpt><trkpt lat="43.5267205" lon="11.3340107"><ele>376.3333333333333</ele><time>2026-04-19T10:09:43.176Z</time></trkpt><trkpt lat="43.5266509" lon="11.3339979"><ele>375.5</ele><time>2026-04-19T10:09:44.172Z</time></trkpt><trkpt lat="43.5265824" lon="11.3339596"><ele>374.66666666666663</ele><time>2026-04-19T10:09:45.162Z</time></trkpt><trkpt lat="43.5265271" lon="11.3339013"><ele>373.8333333333333</ele><time>2026-04-19T10:09:46.176Z</time></trkpt><trkpt lat="43.5264786" lon="11.333807"><ele>373.0</ele><time>2026-04-19T10:09:47.174Z</time></trkpt><trkpt lat="43.5264448" lon="11.3337031"><ele>373.0</ele><time>2026-04-19T10:09:48.149Z</time></trkpt><trkpt lat="43.5264041" lon="11.3336095"><ele>373.0</ele><time>2026-04-19T10:09:49.171Z</time></trkpt><trkpt lat="43.5263526" lon="11.3335416"><ele>373.0</ele><time>2026-04-19T10:09:50.161Z</time></trkpt><trkpt lat="43.5262864" lon="11.333506"><ele>373.0</ele><time>2026-04-19T10:09:51.171Z</time></trkpt><trkpt lat="43.5262065" lon="11.333489"><ele>373.0</ele><time>2026-04-19T10:09:52.172Z</time></trkpt><trkpt lat="43.5261246" lon="11.3334962"><ele>373.0</ele><time>2026-04-19T10:09:53.161Z</time></trkpt><trkpt lat="43.5260335" lon="11.3335276"><ele>375.5</ele><time>2026-04-19T10:09:54.17Z</time></trkpt><trkpt lat="43.525945" lon="11.3335636"><ele>378.0</ele><time>2026-04-19T10:09:55.175Z</time></trkpt><trkpt lat="43.5258637" lon="11.3335957"><ele>380.5</ele><time>2026-04-19T10:09:56.166Z</time></trkpt><trkpt lat="43.5257857" lon="11.3336231"><ele>383.0</ele><time>2026-04-19T10:09:57.175Z</time></trkpt><trkpt lat="43.5257133" lon="11.333636"><ele>385.50000000000006</ele><time>2026-04-19T10:09:58.155Z</time></trkpt><trkpt lat="43.52564" lon="11.3336279"><ele>388.0</ele><time>2026-04-19T10:09:59.166Z</time></trkpt><trkpt lat="43.5255628" lon="11.3336111"><ele>388.00000000000006</ele><time>2026-04-19T10:10:00.176Z</time></trkpt><trkpt lat="43.525481" lon="11.3335949"><ele>388.0</ele><time>2026-04-19T10:10:01.154Z</time></trkpt><trkpt lat="43.5253962" lon="11.333575"><ele>388.0</ele><time>2026-04-19T10:10:02.168Z</time></trkpt><trkpt lat="43.5253163" lon="11.3335573"><ele>388.0</ele><time>2026-04-19T10:10:03.176Z</time></trkpt><trkpt lat="43.5252376" lon="11.3335463"><ele>388.00000000000006</ele><time>2026-04-19T10:10:04.152Z</time></trkpt><trkpt lat="43.5251582" lon="11.3335402"><ele>388.0</ele><time>2026-04-19T10:10:05.173Z</time></trkpt><trkpt lat="43.5250803" lon="11.3335427"><ele>390.00000000000006</ele><time>2026-04-19T10:10:06.176Z</time></trkpt><trkpt lat="43.5250047" lon="11.3335672"><ele>392.0</ele><time>2026-04-19T10:10:07.168Z</time></trkpt><trkpt lat="43.5249385" lon="11.3336064"><ele>394.0</ele><time>2026-04-19T10:10:08.158Z</time></trkpt><trkpt lat="43.5248727" lon="11.3336584"><ele>396.0</ele><time>2026-04-19T10:10:09.158Z</time></trkpt><trkpt lat="43.5247956" lon="11.3337177"><ele>398.00000000000006</ele><time>2026-04-19T10:10:10.165Z</time></trkpt><trkpt lat="43.5247197" lon="11.3337669"><ele>400.0</ele><time>2026-04-19T10:10:11.175Z</time></trkpt><trkpt lat="43.5246371" lon="11.333792"><ele>402.0</ele><time>2026-04-19T10:10:12.172Z</time></trkpt><trkpt lat="43.5245395" lon="11.3337963"><ele>404.0</ele><time>2026-04-19T10:10:13.177Z</time></trkpt><trkpt lat="43.5244345" lon="11.3337768"><ele>406.0</ele><time>2026-04-19T10:10:14.17Z</time></trkpt><trkpt lat="43.5243387" lon="11.333749"><ele>408.0</ele><time>2026-04-19T10:10:15.183Z</time></trkpt><trkpt lat="43.5242516" lon="11.3337269"><ele>410.0</ele><time>2026-04-19T10:10:16.175Z</time></trkpt><trkpt lat="43.5241704" lon="11.3337229"><ele>409.99999999999994</ele><time>2026-04-19T10:10:17.169Z</time></trkpt><trkpt lat="43.524094" lon="11.3337518"><ele>410.0</ele><time>2026-04-19T10:10:18.171Z</time></trkpt><trkpt lat="43.5240223" lon="11.3338028"><ele>410.0</ele><time>2026-04-19T10:10:19.16Z</time></trkpt><trkpt lat="43.5239554" lon="11.3338721"><ele>410.0</ele><time>2026-04-19T10:10:20.168Z</time></trkpt><trkpt lat="43.5238882" lon="11.3339293"><ele>409.99999999999994</ele><time>2026-04-19T10:10:21.157Z</time></trkpt><trkpt lat="43.5238154" lon="11.3339455"><ele>410.0</ele><time>2026-04-19T10:10:22.176Z</time></trkpt><trkpt lat="43.5237038" lon="11.3339007"><ele>412.4</ele><time>2026-04-19T10:10:24.167Z</time></trkpt><trkpt lat="43.5235883" lon="11.3338054"><ele>414.8</ele><time>2026-04-19T10:10:26.164Z</time></trkpt><trkpt lat="43.5235049" lon="11.3337534"><ele>417.20000000000005</ele><time>2026-04-19T10:10:27.173Z</time></trkpt><trkpt lat="43.5234206" lon="11.3337243"><ele>419.6</ele><time>2026-04-19T10:10:28.173Z</time></trkpt><trkpt lat="43.523334" lon="11.3337132"><ele>422.0</ele><time>2026-04-19T10:10:29.17Z</time></trkpt><trkpt lat="43.5232659" lon="11.3337241"><ele>421.99999999999994</ele><time>2026-04-19T10:10:30.177Z</time></trkpt><trkpt lat="43.5231967" lon="11.3337605"><ele>422.0</ele><time>2026-04-19T10:10:31.171Z</time></trkpt><trkpt lat="43.5231362" lon="11.3338294"><ele>422.0</ele><time>2026-04-19T10:10:32.171Z</time></trkpt><trkpt lat="43.5230637" lon="11.3338794"><ele>422.0</ele><time>2026-04-19T10:10:33.169Z</time></trkpt><trkpt lat="43.5230028" lon="11.3339164"><ele>421.99999999999994</ele><time>2026-04-19T10:10:34.173Z</time></trkpt><trkpt lat="43.5229421" lon="11.3339407"><ele>422.0</ele><time>2026-04-19T10:10:37.175Z</time></trkpt><trkpt lat="43.5228519" lon="11.3340001"><ele>424.40000000000003</ele><time>2026-04-19T10:11:29.159Z</time></trkpt><trkpt lat="43.5227784" lon="11.3340247"><ele>426.8</ele><time>2026-04-19T10:11:30.171Z</time></trkpt><trkpt lat="43.5226889" lon="11.3340582"><ele>429.2</ele><time>2026-04-19T10:11:31.153Z</time></trkpt><trkpt lat="43.5225982" lon="11.334098"><ele>431.6</ele><time>2026-04-19T10:11:32.15Z</time></trkpt><trkpt lat="43.5224995" lon="11.3341302"><ele>434.0</ele><time>2026-04-19T10:11:33.158Z</time></trkpt><trkpt lat="43.5224076" lon="11.3341581"><ele>433.99999999999994</ele><time>2026-04-19T10:11:34.171Z</time></trkpt><trkpt lat="43.5223222" lon="11.3341698"><ele>434.0</ele><time>2026-04-19T10:11:35.167Z</time></trkpt><trkpt lat="43.5222411" lon="11.3341748"><ele>434.0</ele><time>2026-04-19T10:11:36.172Z</time></trkpt><trkpt lat="43.5221607" lon="11.3341878"><ele>434.0</ele><time>2026-04-19T10:11:37.151Z</time></trkpt><trkpt lat="43.5220763" lon="11.334208"><ele>433.99999999999994</ele><time>2026-04-19T10:11:38.159Z</time></trkpt><trkpt lat="43.5219774" lon="11.3342447"><ele>434.0</ele><time>2026-04-19T10:11:39.149Z</time></trkpt><trkpt lat="43.5218761" lon="11.3342992"><ele>432.6</ele><time>2026-04-19T10:11:40.151Z</time></trkpt><trkpt lat="43.5217651" lon="11.3343755"><ele>431.2</ele><time>2026-04-19T10:11:41.16Z</time></trkpt><trkpt lat="43.5216596" lon="11.3344454"><ele>429.80000000000007</ele><time>2026-04-19T10:11:42.143Z</time></trkpt><trkpt lat="43.5215767" lon="11.3345001"><ele>428.40000000000003</ele><time>2026-04-19T10:11:43.147Z</time></trkpt><trkpt lat="43.5215148" lon="11.3345477"><ele>427.0</ele><time>2026-04-19T10:11:44.157Z</time></trkpt><trkpt lat="43.5214275" lon="11.3346006"><ele>427.00000000000006</ele><time>2026-04-19T10:11:46.15Z</time></trkpt><trkpt lat="43.5213462" lon="11.3346149"><ele>427.0</ele><time>2026-04-19T10:11:48.156Z</time></trkpt><trkpt lat="43.5212727" lon="11.3344922"><ele>427.0</ele><time>2026-04-19T10:11:50.168Z</time></trkpt><trkpt lat="43.5212559" lon="11.3344033"><ele>427.0</ele><time>2026-04-19T10:11:51.161Z</time></trkpt><trkpt lat="43.5212517" lon="11.3343033"><ele>427.00000000000006</ele><time>2026-04-19T10:11:52.169Z</time></trkpt><trkpt lat="43.5212559" lon="11.3341904"><ele>427.0</ele><time>2026-04-19T10:11:53.162Z</time></trkpt><trkpt lat="43.5212612" lon="11.3340634"><ele>427.0</ele><time>2026-04-19T10:11:54.17Z</time></trkpt><trkpt lat="43.5212442" lon="11.3339119"><ele>427.0</ele><time>2026-04-19T10:11:55.165Z</time></trkpt><trkpt lat="43.5212017" lon="11.3337548"><ele>427.0</ele><time>2026-04-19T10:11:56.169Z</time></trkpt><trkpt lat="43.5211513" lon="11.333589"><ele>427.0</ele><time>2026-04-19T10:11:57.165Z</time></trkpt><trkpt lat="43.5211144" lon="11.3334335"><ele>427.40000000000003</ele><time>2026-04-19T10:11:58.184Z</time></trkpt><trkpt lat="43.5210861" lon="11.3333009"><ele>427.80000000000007</ele><time>2026-04-19T10:11:59.174Z</time></trkpt><trkpt lat="43.5210638" lon="11.3331764"><ele>428.2</ele><time>2026-04-19T10:12:00.176Z</time></trkpt><trkpt lat="43.5210268" lon="11.3330538"><ele>428.6</ele><time>2026-04-19T10:12:01.166Z</time></trkpt><trkpt lat="43.5209834" lon="11.3329408"><ele>429.0</ele><time>2026-04-19T10:12:02.168Z</time></trkpt><trkpt lat="43.5209256" lon="11.3328523"><ele>429.0</ele><time>2026-04-19T10:12:03.166Z</time></trkpt><trkpt lat="43.5208671" lon="11.3327821"><ele>429.0</ele><time>2026-04-19T10:12:04.18Z</time></trkpt><trkpt lat="43.5208145" lon="11.3327278"><ele>429.0</ele><time>2026-04-19T10:12:05.178Z</time></trkpt><trkpt lat="43.5207556" lon="11.332576"><ele>429.0</ele><time>2026-04-19T10:12:07.165Z</time></trkpt><trkpt lat="43.5207358" lon="11.3324822"><ele>429.0</ele><time>2026-04-19T10:12:08.149Z</time></trkpt><trkpt lat="43.5207402" lon="11.3323799"><ele>429.0</ele><time>2026-04-19T10:12:09.166Z</time></trkpt><trkpt lat="43.520759" lon="11.332275"><ele>429.0</ele><time>2026-04-19T10:12:10.166Z</time></trkpt><trkpt lat="43.5207875" lon="11.332176"><ele>429.0</ele><time>2026-04-19T10:12:11.167Z</time></trkpt><trkpt lat="43.5208275" lon="11.332089"><ele>429.0</ele><time>2026-04-19T10:12:12.166Z</time></trkpt><trkpt lat="43.520844" lon="11.3319722"><ele>429.0</ele><time>2026-04-19T10:12:13.164Z</time></trkpt><trkpt lat="43.5208525" lon="11.3318408"><ele>429.0</ele><time>2026-04-19T10:12:14.174Z</time></trkpt><trkpt lat="43.5208454" lon="11.3317071"><ele>429.0</ele><time>2026-04-19T10:12:15.166Z</time></trkpt><trkpt lat="43.5208374" lon="11.3315774"><ele>429.0</ele><time>2026-04-19T10:12:16.166Z</time></trkpt><trkpt lat="43.5208118" lon="11.3314454"><ele>429.0</ele><time>2026-04-19T10:12:17.162Z</time></trkpt><trkpt lat="43.5207595" lon="11.3313144"><ele>429.0</ele><time>2026-04-19T10:12:18.155Z</time></trkpt><trkpt lat="43.5206837" lon="11.3311895"><ele>429.0</ele><time>2026-04-19T10:12:19.153Z</time></trkpt><trkpt lat="43.5206012" lon="11.3310767"><ele>429.0</ele><time>2026-04-19T10:12:20.152Z</time></trkpt><trkpt lat="43.5205248" lon="11.3309785"><ele>428.6</ele><time>2026-04-19T10:12:21.159Z</time></trkpt><trkpt lat="43.5204579" lon="11.3308832"><ele>428.2</ele><time>2026-04-19T10:12:22.153Z</time></trkpt><trkpt lat="43.5204058" lon="11.3307772"><ele>427.80000000000007</ele><time>2026-04-19T10:12:23.149Z</time></trkpt><trkpt lat="43.5203838" lon="11.3306663"><ele>427.40000000000003</ele><time>2026-04-19T10:12:24.16Z</time></trkpt><trkpt lat="43.5203674" lon="11.3305401"><ele>427.0</ele><time>2026-04-19T10:12:25.177Z</time></trkpt><trkpt lat="43.5203567" lon="11.3303989"><ele>431.0</ele><time>2026-04-19T10:12:26.165Z</time></trkpt><trkpt lat="43.520349" lon="11.3302694"><ele>435.00000000000006</ele><time>2026-04-19T10:12:27.167Z</time></trkpt><trkpt lat="43.5203534" lon="11.3301532"><ele>439.00000000000006</ele><time>2026-04-19T10:12:28.17Z</time></trkpt><trkpt lat="43.5203415" lon="11.3300352"><ele>443.0</ele><time>2026-04-19T10:12:29.167Z</time></trkpt><trkpt lat="43.5203122" lon="11.3298893"><ele>447.0</ele><time>2026-04-19T10:12:30.171Z</time></trkpt><trkpt lat="43.5202669" lon="11.329754"><ele>445.0</ele><time>2026-04-19T10:12:31.163Z</time></trkpt><trkpt lat="43.5202112" lon="11.3296362"><ele>443.00000000000006</ele><time>2026-04-19T10:12:32.171Z</time></trkpt><trkpt lat="43.5201572" lon="11.3295414"><ele>441.00000000000006</ele><time>2026-04-19T10:12:33.159Z</time></trkpt><trkpt lat="43.5200925" lon="11.3294667"><ele>439.0</ele><time>2026-04-19T10:12:34.173Z</time></trkpt><trkpt lat="43.5200145" lon="11.329423"><ele>437.0</ele><time>2026-04-19T10:12:35.167Z</time></trkpt><trkpt lat="43.519925" lon="11.3293811"><ele>437.0</ele><time>2026-04-19T10:12:36.176Z</time></trkpt><trkpt lat="43.519826" lon="11.3293471"><ele>437.00000000000006</ele><time>2026-04-19T10:12:37.173Z</time></trkpt><trkpt lat="43.5197286" lon="11.3293148"><ele>437.00000000000006</ele><time>2026-04-19T10:12:38.176Z</time></trkpt><trkpt lat="43.5196429" lon="11.3292828"><ele>437.0</ele><time>2026-04-19T10:12:39.155Z</time></trkpt><trkpt lat="43.5195641" lon="11.3292316"><ele>437.0</ele><time>2026-04-19T10:12:40.154Z</time></trkpt><trkpt lat="43.5194907" lon="11.3291647"><ele>438.0</ele><time>2026-04-19T10:12:41.184Z</time></trkpt><trkpt lat="43.5194224" lon="11.3290854"><ele>439.00000000000006</ele><time>2026-04-19T10:12:42.176Z</time></trkpt><trkpt lat="43.5193593" lon="11.3289921"><ele>440.00000000000006</ele><time>2026-04-19T10:12:43.178Z</time></trkpt><trkpt lat="43.5192897" lon="11.3289056"><ele>441.0</ele><time>2026-04-19T10:12:44.175Z</time></trkpt><trkpt lat="43.5192166" lon="11.3288333"><ele>442.0</ele><time>2026-04-19T10:12:45.165Z</time></trkpt><trkpt lat="43.5191237" lon="11.3288"><ele>438.6</ele><time>2026-04-19T10:12:46.164Z</time></trkpt><trkpt lat="43.5190198" lon="11.3287861"><ele>435.20000000000005</ele><time>2026-04-19T10:12:47.161Z</time></trkpt><trkpt lat="43.518915" lon="11.3287833"><ele>431.8</ele><time>2026-04-19T10:12:48.168Z</time></trkpt><trkpt lat="43.5188123" lon="11.3287886"><ele>428.4</ele><time>2026-04-19T10:12:49.179Z</time></trkpt><trkpt lat="43.51871" lon="11.3288127"><ele>425.0</ele><time>2026-04-19T10:12:50.173Z</time></trkpt><trkpt lat="43.5185942" lon="11.3288575"><ele>429.5</ele><time>2026-04-19T10:12:51.165Z</time></trkpt><trkpt lat="43.5184667" lon="11.3289165"><ele>434.0</ele><time>2026-04-19T10:12:52.168Z</time></trkpt><trkpt lat="43.5183493" lon="11.3289803"><ele>438.5</ele><time>2026-04-19T10:12:53.176Z</time></trkpt><trkpt lat="43.5182415" lon="11.3290337"><ele>443.0</ele><time>2026-04-19T10:12:54.176Z</time></trkpt><trkpt lat="43.5181581" lon="11.3290662"><ele>442.99999999999994</ele><time>2026-04-19T10:12:55.172Z</time></trkpt><trkpt lat="43.5180881" lon="11.3290803"><ele>443.0</ele><time>2026-04-19T10:12:56.181Z</time></trkpt><trkpt lat="43.5180201" lon="11.3290825"><ele>443.0</ele><time>2026-04-19T10:12:57.178Z</time></trkpt><trkpt lat="43.5179475" lon="11.3290697"><ele>443.0</ele><time>2026-04-19T10:12:58.151Z</time></trkpt><trkpt lat="43.5178585" lon="11.3290218"><ele>442.99999999999994</ele><time>2026-04-19T10:12:59.173Z</time></trkpt><trkpt lat="43.5177719" lon="11.328975"><ele>443.0</ele><time>2026-04-19T10:13:00.166Z</time></trkpt><trkpt lat="43.5176898" lon="11.3289335"><ele>442.0</ele><time>2026-04-19T10:13:01.174Z</time></trkpt><trkpt lat="43.5176184" lon="11.3289108"><ele>440.99999999999994</ele><time>2026-04-19T10:13:02.168Z</time></trkpt><trkpt lat="43.5175368" lon="11.3289336"><ele>439.99999999999994</ele><time>2026-04-19T10:13:03.171Z</time></trkpt><trkpt lat="43.51745" lon="11.3289766"><ele>439.0</ele><time>2026-04-19T10:13:04.152Z</time></trkpt><trkpt lat="43.5173477" lon="11.3290234"><ele>438.0</ele><time>2026-04-19T10:13:05.171Z</time></trkpt><trkpt lat="43.5172439" lon="11.3290692"><ele>438.0</ele><time>2026-04-19T10:13:06.173Z</time></trkpt><trkpt lat="43.5171323" lon="11.3291102"><ele>438.0</ele><time>2026-04-19T10:13:07.168Z</time></trkpt><trkpt lat="43.5170071" lon="11.329148"><ele>438.0</ele><time>2026-04-19T10:13:08.17Z</time></trkpt><trkpt lat="43.5168633" lon="11.329177"><ele>438.0</ele><time>2026-04-19T10:13:09.171Z</time></trkpt><trkpt lat="43.5167193" lon="11.3292045"><ele>437.4</ele><time>2026-04-19T10:13:10.172Z</time></trkpt><trkpt lat="43.516607" lon="11.3292233"><ele>436.79999999999995</ele><time>2026-04-19T10:13:11.196Z</time></trkpt><trkpt lat="43.516533" lon="11.3292276"><ele>436.2</ele><time>2026-04-19T10:13:12.163Z</time></trkpt><trkpt lat="43.5164242" lon="11.3292024"><ele>435.6</ele><time>2026-04-19T10:13:14.155Z</time></trkpt><trkpt lat="43.5163519" lon="11.3291909"><ele>435.0</ele><time>2026-04-19T10:13:16.15Z</time></trkpt><trkpt lat="43.5162892" lon="11.3291215"><ele>435.0</ele><time>2026-04-19T10:13:18.167Z</time></trkpt><trkpt lat="43.516239" lon="11.3289695"><ele>435.0</ele><time>2026-04-19T10:13:20.166Z</time></trkpt><trkpt lat="43.5161931" lon="11.3288542"><ele>435.0</ele><time>2026-04-19T10:13:22.179Z</time></trkpt><trkpt lat="43.516179" lon="11.3287593"><ele>435.0</ele><time>2026-04-19T10:13:25.165Z</time></trkpt><trkpt lat="43.5161583" lon="11.3286753"><ele>435.0</ele><time>2026-04-19T10:14:00.18Z</time></trkpt><trkpt lat="43.5161867" lon="11.328568"><ele>435.0</ele><time>2026-04-19T10:14:03.171Z</time></trkpt><trkpt lat="43.5162659" lon="11.328541"><ele>432.5</ele><time>2026-04-19T10:14:05.172Z</time></trkpt><trkpt lat="43.5163646" lon="11.3285644"><ele>430.0</ele><time>2026-04-19T10:14:07.169Z</time></trkpt><trkpt lat="43.5164297" lon="11.3285943"><ele>427.5</ele><time>2026-04-19T10:14:08.171Z</time></trkpt><trkpt lat="43.516501" lon="11.3286207"><ele>425.0</ele><time>2026-04-19T10:14:09.169Z</time></trkpt><trkpt lat="43.5165675" lon="11.3286465"><ele>422.5</ele><time>2026-04-19T10:14:10.17Z</time></trkpt><trkpt lat="43.5166645" lon="11.3286676"><ele>420.0</ele><time>2026-04-19T10:14:12.177Z</time></trkpt><trkpt lat="43.5167513" lon="11.3286544"><ele>420.0</ele><time>2026-04-19T10:14:14.171Z</time></trkpt><trkpt lat="43.5168593" lon="11.3286206"><ele>420.0</ele><time>2026-04-19T10:14:16.179Z</time></trkpt><trkpt lat="43.5169338" lon="11.3285917"><ele>420.0</ele><time>2026-04-19T10:14:17.182Z</time></trkpt><trkpt lat="43.5170278" lon="11.3285428"><ele>420.0</ele><time>2026-04-19T10:14:18.17Z</time></trkpt><trkpt lat="43.5171348" lon="11.3284933"><ele>420.0</ele><time>2026-04-19T10:14:19.152Z</time></trkpt><trkpt lat="43.5172452" lon="11.3284539"><ele>420.2</ele><time>2026-04-19T10:14:20.176Z</time></trkpt><trkpt lat="43.5173497" lon="11.3284176"><ele>420.4</ele><time>2026-04-19T10:14:21.167Z</time></trkpt><trkpt lat="43.5174495" lon="11.328377"><ele>420.6</ele><time>2026-04-19T10:14:22.169Z</time></trkpt><trkpt lat="43.5175352" lon="11.3283089"><ele>420.8</ele><time>2026-04-19T10:14:23.17Z</time></trkpt><trkpt lat="43.5176031" lon="11.328219"><ele>421.0</ele><time>2026-04-19T10:14:24.176Z</time></trkpt><trkpt lat="43.517655" lon="11.3281085"><ele>419.00000000000006</ele><time>2026-04-19T10:14:25.181Z</time></trkpt><trkpt lat="43.517667" lon="11.3279949"><ele>417.0</ele><time>2026-04-19T10:14:26.175Z</time></trkpt><trkpt lat="43.5176485" lon="11.3278859"><ele>415.0</ele><time>2026-04-19T10:14:27.164Z</time></trkpt><trkpt lat="43.5176082" lon="11.3277822"><ele>413.0</ele><time>2026-04-19T10:14:28.183Z</time></trkpt><trkpt lat="43.5175676" lon="11.3276712"><ele>411.00000000000006</ele><time>2026-04-19T10:14:29.193Z</time></trkpt><trkpt lat="43.5175345" lon="11.3275608"><ele>409.0</ele><time>2026-04-19T10:14:30.181Z</time></trkpt><trkpt lat="43.5175137" lon="11.3274438"><ele>409.0</ele><time>2026-04-19T10:14:31.173Z</time></trkpt><trkpt lat="43.5175103" lon="11.3273351"><ele>409.0</ele><time>2026-04-19T10:14:32.175Z</time></trkpt><trkpt lat="43.5175127" lon="11.327219"><ele>409.0</ele><time>2026-04-19T10:14:33.175Z</time></trkpt><trkpt lat="43.5175209" lon="11.3270837"><ele>409.0</ele><time>2026-04-19T10:14:34.174Z</time></trkpt><trkpt lat="43.5175387" lon="11.3269589"><ele>409.0</ele><time>2026-04-19T10:14:35.166Z</time></trkpt><trkpt lat="43.5175815" lon="11.3268314"><ele>406.0</ele><time>2026-04-19T10:14:36.178Z</time></trkpt><trkpt lat="43.5176386" lon="11.3266961"><ele>403.0</ele><time>2026-04-19T10:14:37.183Z</time></trkpt><trkpt lat="43.5177135" lon="11.3265527"><ele>400.0</ele><time>2026-04-19T10:14:38.176Z</time></trkpt><trkpt lat="43.5177973" lon="11.3264098"><ele>397.0</ele><time>2026-04-19T10:14:39.184Z</time></trkpt><trkpt lat="43.5178792" lon="11.3262719"><ele>395.0</ele><time>2026-04-19T10:14:40.177Z</time></trkpt><trkpt lat="43.5179623" lon="11.3261336"><ele>393.0</ele><time>2026-04-19T10:14:41.154Z</time></trkpt><trkpt lat="43.5180457" lon="11.3259965"><ele>391.0</ele><time>2026-04-19T10:14:42.176Z</time></trkpt><trkpt lat="43.5181329" lon="11.3258582"><ele>389.0</ele><time>2026-04-19T10:14:43.179Z</time></trkpt><trkpt lat="43.5182126" lon="11.325725"><ele>389.0</ele><time>2026-04-19T10:14:44.172Z</time></trkpt><trkpt lat="43.5182807" lon="11.3255888"><ele>389.0</ele><time>2026-04-19T10:14:45.163Z</time></trkpt><trkpt lat="43.5183293" lon="11.3254529"><ele>389.0</ele><time>2026-04-19T10:14:46.166Z</time></trkpt><trkpt lat="43.5183532" lon="11.3253004"><ele>389.0</ele><time>2026-04-19T10:14:47.167Z</time></trkpt><trkpt lat="43.5183564" lon="11.3251348"><ele>388.75</ele><time>2026-04-19T10:14:48.175Z</time></trkpt><trkpt lat="43.5183469" lon="11.324966"><ele>388.5</ele><time>2026-04-19T10:14:49.172Z</time></trkpt><trkpt lat="43.5183375" lon="11.3247992"><ele>388.25</ele><time>2026-04-19T10:14:50.171Z</time></trkpt><trkpt lat="43.5183343" lon="11.3246375"><ele>388.0</ele><time>2026-04-19T10:14:51.167Z</time></trkpt><trkpt lat="43.518355" lon="11.3244823"><ele>388.0</ele><time>2026-04-19T10:14:52.186Z</time></trkpt><trkpt lat="43.5183918" lon="11.3243324"><ele>388.0</ele><time>2026-04-19T10:14:53.164Z</time></trkpt><trkpt lat="43.5184358" lon="11.3241881"><ele>388.0</ele><time>2026-04-19T10:14:54.17Z</time></trkpt><trkpt lat="43.5184786" lon="11.3240382"><ele>388.0</ele><time>2026-04-19T10:14:55.176Z</time></trkpt><trkpt lat="43.5185222" lon="11.3238707"><ele>387.0</ele><time>2026-04-19T10:14:56.173Z</time></trkpt><trkpt lat="43.518567" lon="11.3236921"><ele>386.0</ele><time>2026-04-19T10:14:57.165Z</time></trkpt><trkpt lat="43.5186057" lon="11.3235027"><ele>385.0</ele><time>2026-04-19T10:14:58.178Z</time></trkpt><trkpt lat="43.5186317" lon="11.3233098"><ele>384.0</ele><time>2026-04-19T10:14:59.18Z</time></trkpt><trkpt lat="43.5186564" lon="11.3231277"><ele>383.25</ele><time>2026-04-19T10:15:00.161Z</time></trkpt><trkpt lat="43.5186967" lon="11.3229405"><ele>382.5</ele><time>2026-04-19T10:15:01.171Z</time></trkpt><trkpt lat="43.5187397" lon="11.3227553"><ele>381.75</ele><time>2026-04-19T10:15:02.184Z</time></trkpt><trkpt lat="43.5187845" lon="11.322564"><ele>381.0</ele><time>2026-04-19T10:15:03.17Z</time></trkpt><trkpt lat="43.5188359" lon="11.3223712"><ele>379.5</ele><time>2026-04-19T10:15:04.174Z</time></trkpt><trkpt lat="43.5188786" lon="11.3221896"><ele>378.0</ele><time>2026-04-19T10:15:05.181Z</time></trkpt><trkpt lat="43.5189174" lon="11.3220143"><ele>376.5</ele><time>2026-04-19T10:15:06.168Z</time></trkpt><trkpt lat="43.5189502" lon="11.3218415"><ele>375.0</ele><time>2026-04-19T10:15:07.183Z</time></trkpt><trkpt lat="43.5189805" lon="11.3216673"><ele>375.0</ele><time>2026-04-19T10:15:08.17Z</time></trkpt><trkpt lat="43.5190094" lon="11.3214946"><ele>375.0</ele><time>2026-04-19T10:15:09.178Z</time></trkpt><trkpt lat="43.5190341" lon="11.3213218"><ele>375.0</ele><time>2026-04-19T10:15:10.171Z</time></trkpt><trkpt lat="43.5190647" lon="11.321153"><ele>375.0</ele><time>2026-04-19T10:15:11.153Z</time></trkpt><trkpt lat="43.5191136" lon="11.3209847"><ele>375.0</ele><time>2026-04-19T10:15:12.172Z</time></trkpt><trkpt lat="43.5191799" lon="11.3208192"><ele>375.0</ele><time>2026-04-19T10:15:13.176Z</time></trkpt><trkpt lat="43.5192567" lon="11.3206487"><ele>375.0</ele><time>2026-04-19T10:15:14.173Z</time></trkpt><trkpt lat="43.5193374" lon="11.3204789"><ele>375.0</ele><time>2026-04-19T10:15:15.196Z</time></trkpt><trkpt lat="43.5194208" lon="11.3203051"><ele>373.3333333333333</ele><time>2026-04-19T10:15:16.184Z</time></trkpt><trkpt lat="43.5195052" lon="11.3201281"><ele>371.66666666666663</ele><time>2026-04-19T10:15:17.161Z</time></trkpt><trkpt lat="43.5195902" lon="11.3199454"><ele>370.0</ele><time>2026-04-19T10:15:18.17Z</time></trkpt><trkpt lat="43.5196683" lon="11.3197592"><ele>369.25</ele><time>2026-04-19T10:15:19.178Z</time></trkpt><trkpt lat="43.5197315" lon="11.3195611"><ele>368.5</ele><time>2026-04-19T10:15:20.176Z</time></trkpt><trkpt lat="43.5197877" lon="11.3193678"><ele>367.75</ele><time>2026-04-19T10:15:21.178Z</time></trkpt><trkpt lat="43.5198262" lon="11.3191821"><ele>367.0</ele><time>2026-04-19T10:15:22.155Z</time></trkpt><trkpt lat="43.5198531" lon="11.3190135"><ele>365.75</ele><time>2026-04-19T10:15:23.171Z</time></trkpt><trkpt lat="43.5198812" lon="11.318859"><ele>364.5</ele><time>2026-04-19T10:15:24.17Z</time></trkpt><trkpt lat="43.5198945" lon="11.318689"><ele>363.25</ele><time>2026-04-19T10:15:25.177Z</time></trkpt><trkpt lat="43.5198853" lon="11.3185365"><ele>362.0</ele><time>2026-04-19T10:15:26.178Z</time></trkpt><trkpt lat="43.519849" lon="11.3183857"><ele>362.0</ele><time>2026-04-19T10:15:27.176Z</time></trkpt><trkpt lat="43.5197992" lon="11.3182081"><ele>362.0</ele><time>2026-04-19T10:15:28.154Z</time></trkpt><trkpt lat="43.5197529" lon="11.3180424"><ele>362.0</ele><time>2026-04-19T10:15:29.178Z</time></trkpt><trkpt lat="43.5197009" lon="11.3178865"><ele>362.0</ele><time>2026-04-19T10:15:30.174Z</time></trkpt><trkpt lat="43.5196597" lon="11.3177368"><ele>360.8</ele><time>2026-04-19T10:15:31.175Z</time></trkpt><trkpt lat="43.5196244" lon="11.3176008"><ele>359.6</ele><time>2026-04-19T10:15:32.172Z</time></trkpt><trkpt lat="43.5196018" lon="11.3174748"><ele>358.40000000000003</ele><time>2026-04-19T10:15:33.173Z</time></trkpt><trkpt lat="43.5195948" lon="11.3173592"><ele>357.20000000000005</ele><time>2026-04-19T10:15:34.172Z</time></trkpt><trkpt lat="43.519601" lon="11.3172386"><ele>356.0</ele><time>2026-04-19T10:15:35.178Z</time></trkpt><trkpt lat="43.5195969" lon="11.3170981"><ele>354.20000000000005</ele><time>2026-04-19T10:15:36.173Z</time></trkpt><trkpt lat="43.5195949" lon="11.316949"><ele>352.40000000000003</ele><time>2026-04-19T10:15:37.154Z</time></trkpt><trkpt lat="43.5195913" lon="11.3167983"><ele>350.6</ele><time>2026-04-19T10:15:38.181Z</time></trkpt><trkpt lat="43.519576" lon="11.3166497"><ele>348.8</ele><time>2026-04-19T10:15:39.174Z</time></trkpt><trkpt lat="43.5195569" lon="11.3164919"><ele>347.0</ele><time>2026-04-19T10:15:40.177Z</time></trkpt><trkpt lat="43.5195275" lon="11.316351"><ele>345.6</ele><time>2026-04-19T10:15:41.175Z</time></trkpt><trkpt lat="43.5194937" lon="11.3162213"><ele>344.20000000000005</ele><time>2026-04-19T10:15:42.174Z</time></trkpt><trkpt lat="43.5194462" lon="11.3160837"><ele>342.8</ele><time>2026-04-19T10:15:43.178Z</time></trkpt><trkpt lat="43.5193894" lon="11.3159554"><ele>341.4</ele><time>2026-04-19T10:15:44.175Z</time></trkpt><trkpt lat="43.5193279" lon="11.3158478"><ele>340.0</ele><time>2026-04-19T10:15:45.182Z</time></trkpt><trkpt lat="43.519268" lon="11.315758"><ele>340.0</ele><time>2026-04-19T10:15:46.173Z</time></trkpt><trkpt lat="43.5192066" lon="11.3156737"><ele>340.0</ele><time>2026-04-19T10:15:47.176Z</time></trkpt><trkpt lat="43.5191391" lon="11.315597"><ele>340.0</ele><time>2026-04-19T10:15:48.177Z</time></trkpt><trkpt lat="43.5190441" lon="11.3154952"><ele>340.0</ele><time>2026-04-19T10:15:49.186Z</time></trkpt><trkpt lat="43.5189221" lon="11.3153729"><ele>340.0</ele><time>2026-04-19T10:15:50.173Z</time></trkpt><trkpt lat="43.5188011" lon="11.31525"><ele>337.25</ele><time>2026-04-19T10:15:51.175Z</time></trkpt><trkpt lat="43.5186924" lon="11.3151297"><ele>334.5</ele><time>2026-04-19T10:15:52.175Z</time></trkpt><trkpt lat="43.5185921" lon="11.3150214"><ele>331.75</ele><time>2026-04-19T10:15:53.171Z</time></trkpt><trkpt lat="43.5185064" lon="11.3149211"><ele>329.0</ele><time>2026-04-19T10:15:54.177Z</time></trkpt><trkpt lat="43.5184192" lon="11.3148199"><ele>328.5</ele><time>2026-04-19T10:15:55.177Z</time></trkpt><trkpt lat="43.5183287" lon="11.3147293"><ele>328.0</ele><time>2026-04-19T10:15:56.17Z</time></trkpt><trkpt lat="43.5182454" lon="11.314648"><ele>327.5</ele><time>2026-04-19T10:15:57.174Z</time></trkpt><trkpt lat="43.5181856" lon="11.3145816"><ele>327.0</ele><time>2026-04-19T10:15:58.175Z</time></trkpt><trkpt lat="43.5181354" lon="11.3145171"><ele>326.5</ele><time>2026-04-19T10:15:59.171Z</time></trkpt><trkpt lat="43.5180927" lon="11.314441"><ele>326.0</ele><time>2026-04-19T10:16:00.168Z</time></trkpt><trkpt lat="43.5180709" lon="11.314334"><ele>326.0</ele><time>2026-04-19T10:16:01.155Z</time></trkpt><trkpt lat="43.5180681" lon="11.3142133"><ele>326.0</ele><time>2026-04-19T10:16:02.167Z</time></trkpt><trkpt lat="43.5180627" lon="11.3140964"><ele>326.0</ele><time>2026-04-19T10:16:03.159Z</time></trkpt><trkpt lat="43.5180452" lon="11.3140006"><ele>326.0</ele><time>2026-04-19T10:16:04.171Z</time></trkpt><trkpt lat="43.5180149" lon="11.3138978"><ele>326.0</ele><time>2026-04-19T10:16:05.176Z</time></trkpt><trkpt lat="43.517961" lon="11.31379"><ele>326.0</ele><time>2026-04-19T10:16:06.174Z</time></trkpt><trkpt lat="43.5178779" lon="11.3137139"><ele>321.5</ele><time>2026-04-19T10:16:07.169Z</time></trkpt><trkpt lat="43.5177827" lon="11.3136368"><ele>317.0</ele><time>2026-04-19T10:16:08.158Z</time></trkpt><trkpt lat="43.5176781" lon="11.3135747"><ele>312.5</ele><time>2026-04-19T10:16:09.165Z</time></trkpt><trkpt lat="43.5175649" lon="11.3135269"><ele>308.0</ele><time>2026-04-19T10:16:10.163Z</time></trkpt><trkpt lat="43.5174565" lon="11.3134882"><ele>308.0</ele><time>2026-04-19T10:16:11.174Z</time></trkpt><trkpt lat="43.5173656" lon="11.3134518"><ele>308.0</ele><time>2026-04-19T10:16:12.165Z</time></trkpt><trkpt lat="43.5172889" lon="11.3134074"><ele>308.0</ele><time>2026-04-19T10:16:13.172Z</time></trkpt><trkpt lat="43.5172241" lon="11.3133345"><ele>308.0</ele><time>2026-04-19T10:16:14.174Z</time></trkpt><trkpt lat="43.5171778" lon="11.3132346"><ele>308.0</ele><time>2026-04-19T10:16:15.177Z</time></trkpt><trkpt lat="43.5171566" lon="11.313127"><ele>308.0</ele><time>2026-04-19T10:16:16.157Z</time></trkpt><trkpt lat="43.5171777" lon="11.3130148"><ele>305.5</ele><time>2026-04-19T10:16:17.17Z</time></trkpt><trkpt lat="43.5171947" lon="11.3129093"><ele>303.0</ele><time>2026-04-19T10:16:18.168Z</time></trkpt><trkpt lat="43.5171912" lon="11.3127963"><ele>300.5</ele><time>2026-04-19T10:16:19.151Z</time></trkpt><trkpt lat="43.5171827" lon="11.3126818"><ele>298.0</ele><time>2026-04-19T10:16:20.174Z</time></trkpt><trkpt lat="43.5171745" lon="11.3125939"><ele>295.5</ele><time>2026-04-19T10:16:21.174Z</time></trkpt><trkpt lat="43.5171955" lon="11.3124736"><ele>293.0</ele><time>2026-04-19T10:16:23.171Z</time></trkpt><trkpt lat="43.5172606" lon="11.3123909"><ele>293.0</ele><time>2026-04-19T10:16:26.157Z</time></trkpt><trkpt lat="43.5173282" lon="11.3123276"><ele>293.0</ele><time>2026-04-19T10:16:28.176Z</time></trkpt><trkpt lat="43.517381" lon="11.3122637"><ele>293.0</ele><time>2026-04-19T10:16:30.181Z</time></trkpt><trkpt lat="43.5174401" lon="11.31221"><ele>293.0</ele><time>2026-04-19T10:16:32.151Z</time></trkpt><trkpt lat="43.5175377" lon="11.3121589"><ele>293.0</ele><time>2026-04-19T10:16:34.175Z</time></trkpt><trkpt lat="43.5176503" lon="11.3120997"><ele>293.0</ele><time>2026-04-19T10:16:36.155Z</time></trkpt><trkpt lat="43.5177636" lon="11.312047"><ele>291.83333333333337</ele><time>2026-04-19T10:16:38.188Z</time></trkpt><trkpt lat="43.5178231" lon="11.3120186"><ele>290.6666666666667</ele><time>2026-04-19T10:16:39.182Z</time></trkpt><trkpt lat="43.5179383" lon="11.3119634"><ele>289.5</ele><time>2026-04-19T10:16:41.157Z</time></trkpt><trkpt lat="43.5180229" lon="11.3119289"><ele>288.3333333333333</ele><time>2026-04-19T10:16:43.167Z</time></trkpt><trkpt lat="43.5180962" lon="11.3119087"><ele>287.16666666666663</ele><time>2026-04-19T10:16:46.172Z</time></trkpt><trkpt lat="43.5181859" lon="11.311875"><ele>286.0</ele><time>2026-04-19T10:16:49.174Z</time></trkpt><trkpt lat="43.5182794" lon="11.3118096"><ele>286.0</ele><time>2026-04-19T10:16:51.177Z</time></trkpt><trkpt lat="43.5183436" lon="11.3117687"><ele>286.0</ele><time>2026-04-19T10:16:52.168Z</time></trkpt><trkpt lat="43.5184215" lon="11.3117181"><ele>286.0</ele><time>2026-04-19T10:16:53.179Z</time></trkpt><trkpt lat="43.5185215" lon="11.3116715"><ele>286.0</ele><time>2026-04-19T10:16:54.15Z</time></trkpt><trkpt lat="43.5186233" lon="11.3116362"><ele>286.0</ele><time>2026-04-19T10:16:55.163Z</time></trkpt><trkpt lat="43.5187298" lon="11.3116108"><ele>285.8</ele><time>2026-04-19T10:16:56.171Z</time></trkpt><trkpt lat="43.5188265" lon="11.3115962"><ele>285.6</ele><time>2026-04-19T10:16:57.172Z</time></trkpt><trkpt lat="43.5189248" lon="11.3116066"><ele>285.4</ele><time>2026-04-19T10:16:58.17Z</time></trkpt><trkpt lat="43.5190297" lon="11.3116357"><ele>285.2</ele><time>2026-04-19T10:16:59.168Z</time></trkpt><trkpt lat="43.519135" lon="11.3116799"><ele>285.0</ele><time>2026-04-19T10:17:00.169Z</time></trkpt><trkpt lat="43.5192369" lon="11.3117213"><ele>285.0</ele><time>2026-04-19T10:17:01.171Z</time></trkpt><trkpt lat="43.5193429" lon="11.3117557"><ele>285.0</ele><time>2026-04-19T10:17:02.168Z</time></trkpt><trkpt lat="43.519454" lon="11.3117908"><ele>285.0</ele><time>2026-04-19T10:17:03.176Z</time></trkpt><trkpt lat="43.5195689" lon="11.3118382"><ele>285.0</ele><time>2026-04-19T10:17:04.179Z</time></trkpt><trkpt lat="43.5196766" lon="11.3118699"><ele>285.6</ele><time>2026-04-19T10:17:05.196Z</time></trkpt><trkpt lat="43.5197878" lon="11.3118745"><ele>286.2</ele><time>2026-04-19T10:17:06.152Z</time></trkpt><trkpt lat="43.519896" lon="11.3118443"><ele>286.8</ele><time>2026-04-19T10:17:07.164Z</time></trkpt><trkpt lat="43.5199989" lon="11.3117729"><ele>287.4</ele><time>2026-04-19T10:17:08.178Z</time></trkpt><trkpt lat="43.5200856" lon="11.3116764"><ele>288.0</ele><time>2026-04-19T10:17:09.179Z</time></trkpt><trkpt lat="43.5201483" lon="11.311532"><ele>287.3333333333333</ele><time>2026-04-19T10:17:10.185Z</time></trkpt><trkpt lat="43.5201738" lon="11.3113009"><ele>286.66666666666663</ele><time>2026-04-19T10:17:11.17Z</time></trkpt><trkpt lat="43.5201801" lon="11.3110256"><ele>286.0</ele><time>2026-04-19T10:17:12.177Z</time></trkpt><trkpt lat="43.5201864" lon="11.310724"><ele>286.3333333333333</ele><time>2026-04-19T10:17:13.183Z</time></trkpt><trkpt lat="43.5201937" lon="11.3104143"><ele>286.6666666666667</ele><time>2026-04-19T10:17:14.182Z</time></trkpt><trkpt lat="43.5201991" lon="11.3101196"><ele>287.0</ele><time>2026-04-19T10:17:15.176Z</time></trkpt><trkpt lat="43.5202011" lon="11.3098502"><ele>289.0</ele><time>2026-04-19T10:17:16.175Z</time></trkpt><trkpt lat="43.5201871" lon="11.3096067"><ele>291.0</ele><time>2026-04-19T10:17:17.152Z</time></trkpt><trkpt lat="43.5201671" lon="11.3093756"><ele>293.0</ele><time>2026-04-19T10:17:18.182Z</time></trkpt><trkpt lat="43.5201364" lon="11.3091855"><ele>293.0</ele><time>2026-04-19T10:17:19.159Z</time></trkpt><trkpt lat="43.5201116" lon="11.3090161"><ele>293.0</ele><time>2026-04-19T10:17:20.155Z</time></trkpt><trkpt lat="43.5201098" lon="11.3088573"><ele>293.0</ele><time>2026-04-19T10:17:21.167Z</time></trkpt><trkpt lat="43.5201403" lon="11.3086967"><ele>293.0</ele><time>2026-04-19T10:17:22.154Z</time></trkpt><trkpt lat="43.520201" lon="11.3085312"><ele>293.6666666666667</ele><time>2026-04-19T10:17:23.173Z</time></trkpt><trkpt lat="43.5202716" lon="11.3083486"><ele>294.3333333333333</ele><time>2026-04-19T10:17:24.173Z</time></trkpt><trkpt lat="43.5203425" lon="11.308159"><ele>295.0</ele><time>2026-04-19T10:17:25.158Z</time></trkpt><trkpt lat="43.5204169" lon="11.3079714"><ele>297.75</ele><time>2026-04-19T10:17:26.162Z</time></trkpt><trkpt lat="43.5204882" lon="11.3077941"><ele>300.5</ele><time>2026-04-19T10:17:27.176Z</time></trkpt><trkpt lat="43.520551" lon="11.3076581"><ele>303.25</ele><time>2026-04-19T10:17:28.173Z</time></trkpt><trkpt lat="43.5206323" lon="11.3075683"><ele>306.0</ele><time>2026-04-19T10:17:29.171Z</time></trkpt><trkpt lat="43.5207495" lon="11.3075235"><ele>306.0</ele><time>2026-04-19T10:17:30.18Z</time></trkpt><trkpt lat="43.520872" lon="11.307529"><ele>306.0</ele><time>2026-04-19T10:17:31.166Z</time></trkpt><trkpt lat="43.5209924" lon="11.3075013"><ele>306.0</ele><time>2026-04-19T10:17:32.177Z</time></trkpt><trkpt lat="43.5210876" lon="11.3074073"><ele>306.0</ele><time>2026-04-19T10:17:33.175Z</time></trkpt><trkpt lat="43.5211529" lon="11.3072735"><ele>305.75</ele><time>2026-04-19T10:17:34.165Z</time></trkpt><trkpt lat="43.5211639" lon="11.3070946"><ele>305.5</ele><time>2026-04-19T10:17:35.181Z</time></trkpt><trkpt lat="43.5211486" lon="11.3068943"><ele>305.25</ele><time>2026-04-19T10:17:36.17Z</time></trkpt><trkpt lat="43.5211279" lon="11.3066853"><ele>305.0</ele><time>2026-04-19T10:17:37.176Z</time></trkpt><trkpt lat="43.521108" lon="11.3064731"><ele>306.33333333333337</ele><time>2026-04-19T10:17:38.177Z</time></trkpt><trkpt lat="43.5210894" lon="11.3062444"><ele>307.6666666666667</ele><time>2026-04-19T10:17:39.175Z</time></trkpt><trkpt lat="43.5210709" lon="11.3060286"><ele>309.0</ele><time>2026-04-19T10:17:40.173Z</time></trkpt><trkpt lat="43.5210534" lon="11.3058164"><ele>309.0</ele><time>2026-04-19T10:17:41.155Z</time></trkpt><trkpt lat="43.5210397" lon="11.3056177"><ele>309.0</ele><time>2026-04-19T10:17:42.157Z</time></trkpt><trkpt lat="43.5210316" lon="11.3054485"><ele>309.0</ele><time>2026-04-19T10:17:43.166Z</time></trkpt><trkpt lat="43.5210364" lon="11.3052896"><ele>309.0</ele><time>2026-04-19T10:17:44.175Z</time></trkpt><trkpt lat="43.5210739" lon="11.3051397"><ele>308.25</ele><time>2026-04-19T10:17:45.171Z</time></trkpt><trkpt lat="43.5211552" lon="11.3050173"><ele>307.5</ele><time>2026-04-19T10:17:46.168Z</time></trkpt><trkpt lat="43.5212773" lon="11.304943"><ele>306.75</ele><time>2026-04-19T10:17:47.17Z</time></trkpt><trkpt lat="43.5214237" lon="11.3049083"><ele>306.0</ele><time>2026-04-19T10:17:48.168Z</time></trkpt><trkpt lat="43.5215802" lon="11.3049111"><ele>309.3333333333333</ele><time>2026-04-19T10:17:49.174Z</time></trkpt><trkpt lat="43.5217352" lon="11.3049147"><ele>312.66666666666663</ele><time>2026-04-19T10:17:50.174Z</time></trkpt><trkpt lat="43.5218976" lon="11.3049531"><ele>316.0</ele><time>2026-04-19T10:17:51.164Z</time></trkpt><trkpt lat="43.522067" lon="11.3050153"><ele>317.66666666666663</ele><time>2026-04-19T10:17:52.17Z</time></trkpt><trkpt lat="43.522239" lon="11.3050838"><ele>319.3333333333333</ele><time>2026-04-19T10:17:53.165Z</time></trkpt><trkpt lat="43.5224111" lon="11.3051756"><ele>321.0</ele><time>2026-04-19T10:17:54.175Z</time></trkpt><trkpt lat="43.5225781" lon="11.3052913"><ele>321.0</ele><time>2026-04-19T10:17:55.172Z</time></trkpt><trkpt lat="43.5227407" lon="11.3054215"><ele>321.0</ele><time>2026-04-19T10:17:56.181Z</time></trkpt><trkpt lat="43.5229018" lon="11.305536"><ele>321.0</ele><time>2026-04-19T10:17:57.172Z</time></trkpt><trkpt lat="43.5230649" lon="11.3056304"><ele>326.0</ele><time>2026-04-19T10:17:58.151Z</time></trkpt><trkpt lat="43.5232328" lon="11.3057061"><ele>331.0</ele><time>2026-04-19T10:17:59.166Z</time></trkpt><trkpt lat="43.5234007" lon="11.3057765"><ele>336.0</ele><time>2026-04-19T10:18:00.174Z</time></trkpt><trkpt lat="43.5235737" lon="11.3058309"><ele>336.3333333333333</ele><time>2026-04-19T10:18:01.165Z</time></trkpt><trkpt lat="43.5237535" lon="11.3058718"><ele>336.66666666666663</ele><time>2026-04-19T10:18:02.164Z</time></trkpt><trkpt lat="43.5239373" lon="11.3059127"><ele>337.0</ele><time>2026-04-19T10:18:03.17Z</time></trkpt><trkpt lat="43.5241269" lon="11.3059559"><ele>337.0</ele><time>2026-04-19T10:18:04.167Z</time></trkpt><trkpt lat="43.5243097" lon="11.3059925"><ele>337.0</ele><time>2026-04-19T10:18:05.174Z</time></trkpt><trkpt lat="43.5244972" lon="11.3060258"><ele>337.0</ele><time>2026-04-19T10:18:06.165Z</time></trkpt><trkpt lat="43.5246832" lon="11.306071"><ele>337.3333333333333</ele><time>2026-04-19T10:18:07.165Z</time></trkpt><trkpt lat="43.5248775" lon="11.3061199"><ele>337.6666666666667</ele><time>2026-04-19T10:18:08.179Z</time></trkpt><trkpt lat="43.5250621" lon="11.3061632"><ele>338.0</ele><time>2026-04-19T10:18:09.171Z</time></trkpt><trkpt lat="43.5252225" lon="11.3062048"><ele>338.0</ele><time>2026-04-19T10:18:10.173Z</time></trkpt><trkpt lat="43.5253684" lon="11.3062406"><ele>338.0</ele><time>2026-04-19T10:18:11.171Z</time></trkpt><trkpt lat="43.5254982" lon="11.306266"><ele>338.0</ele><time>2026-04-19T10:18:12.18Z</time></trkpt><trkpt lat="43.5256133" lon="11.3062513"><ele>338.0</ele><time>2026-04-19T10:18:13.167Z</time></trkpt><trkpt lat="43.5257045" lon="11.3061693"><ele>340.25</ele><time>2026-04-19T10:18:14.181Z</time></trkpt><trkpt lat="43.5257757" lon="11.3060322"><ele>342.5</ele><time>2026-04-19T10:18:15.171Z</time></trkpt><trkpt lat="43.5258066" lon="11.3058535"><ele>344.75</ele><time>2026-04-19T10:18:16.168Z</time></trkpt><trkpt lat="43.5257755" lon="11.305652"><ele>347.0</ele><time>2026-04-19T10:18:17.168Z</time></trkpt><trkpt lat="43.5257197" lon="11.3054506"><ele>349.33333333333337</ele><time>2026-04-19T10:18:18.167Z</time></trkpt><trkpt lat="43.52564" lon="11.3052521"><ele>351.6666666666667</ele><time>2026-04-19T10:18:19.165Z</time></trkpt><trkpt lat="43.5255548" lon="11.305041"><ele>354.0</ele><time>2026-04-19T10:18:20.158Z</time></trkpt><trkpt lat="43.5254651" lon="11.3048224"><ele>352.0</ele><time>2026-04-19T10:18:21.167Z</time></trkpt><trkpt lat="43.5253675" lon="11.3046084"><ele>350.0</ele><time>2026-04-19T10:18:22.175Z</time></trkpt><trkpt lat="43.5252699" lon="11.304404"><ele>348.0</ele><time>2026-04-19T10:18:23.172Z</time></trkpt><trkpt lat="43.5251794" lon="11.3042103"><ele>348.0</ele><time>2026-04-19T10:18:24.163Z</time></trkpt><trkpt lat="43.525073" lon="11.3040367"><ele>348.0</ele><time>2026-04-19T10:18:25.154Z</time></trkpt><trkpt lat="43.5249468" lon="11.3038987"><ele>348.0</ele><time>2026-04-19T10:18:26.166Z</time></trkpt><trkpt lat="43.5248106" lon="11.3037974"><ele>347.25</ele><time>2026-04-19T10:18:27.156Z</time></trkpt><trkpt lat="43.5246635" lon="11.3037047"><ele>346.5</ele><time>2026-04-19T10:18:28.173Z</time></trkpt><trkpt lat="43.5245385" lon="11.3036241"><ele>345.75</ele><time>2026-04-19T10:18:29.178Z</time></trkpt><trkpt lat="43.5244394" lon="11.303529"><ele>345.0</ele><time>2026-04-19T10:18:30.169Z</time></trkpt><trkpt lat="43.5243629" lon="11.3034222"><ele>345.0</ele><time>2026-04-19T10:18:31.165Z</time></trkpt><trkpt lat="43.5243273" lon="11.3033204"><ele>345.0</ele><time>2026-04-19T10:18:32.162Z</time></trkpt><trkpt lat="43.5243661" lon="11.3032122"><ele>345.0</ele><time>2026-04-19T10:18:33.152Z</time></trkpt><trkpt lat="43.5244339" lon="11.3030939"><ele>345.0</ele><time>2026-04-19T10:18:34.173Z</time></trkpt><trkpt lat="43.5245476" lon="11.3029937"><ele>345.0</ele><time>2026-04-19T10:18:35.159Z</time></trkpt><trkpt lat="43.5246686" lon="11.3029063"><ele>347.5</ele><time>2026-04-19T10:18:36.168Z</time></trkpt><trkpt lat="43.5248013" lon="11.3028368"><ele>350.0</ele><time>2026-04-19T10:18:37.17Z</time></trkpt><trkpt lat="43.5249316" lon="11.3027903"><ele>352.5</ele><time>2026-04-19T10:18:38.168Z</time></trkpt><trkpt lat="43.5250468" lon="11.3027795"><ele>355.0</ele><time>2026-04-19T10:18:39.168Z</time></trkpt><trkpt lat="43.5251401" lon="11.3027648"><ele>355.0</ele><time>2026-04-19T10:18:40.168Z</time></trkpt><trkpt lat="43.5252258" lon="11.3027516"><ele>355.0</ele><time>2026-04-19T10:18:41.176Z</time></trkpt><trkpt lat="43.525298" lon="11.3027373"><ele>355.0</ele><time>2026-04-19T10:18:42.174Z</time></trkpt><trkpt lat="43.5253597" lon="11.3026791"><ele>355.0</ele><time>2026-04-19T10:18:44.187Z</time></trkpt><trkpt lat="43.5253764" lon="11.3025716"><ele>355.0</ele><time>2026-04-19T10:18:46.178Z</time></trkpt><trkpt lat="43.525331" lon="11.302498"><ele>355.0</ele><time>2026-04-19T10:18:47.154Z</time></trkpt><trkpt lat="43.5251998" lon="11.3023437"><ele>356.0</ele><time>2026-04-19T10:18:48.174Z</time></trkpt><trkpt lat="43.5250318" lon="11.3021786"><ele>357.0</ele><time>2026-04-19T10:18:49.173Z</time></trkpt><trkpt lat="43.5248608" lon="11.3020001"><ele>358.0</ele><time>2026-04-19T10:18:50.171Z</time></trkpt><trkpt lat="43.5246895" lon="11.3018223"><ele>354.3333333333333</ele><time>2026-04-19T10:18:51.173Z</time></trkpt><trkpt lat="43.5245366" lon="11.3016632"><ele>350.6666666666667</ele><time>2026-04-19T10:18:52.176Z</time></trkpt><trkpt lat="43.5244022" lon="11.3015262"><ele>347.0</ele><time>2026-04-19T10:18:53.171Z</time></trkpt><trkpt lat="43.5242932" lon="11.3014102"><ele>347.0</ele><time>2026-04-19T10:18:54.172Z</time></trkpt><trkpt lat="43.5242122" lon="11.3012966"><ele>347.0</ele><time>2026-04-19T10:18:55.168Z</time></trkpt><trkpt lat="43.5241598" lon="11.301157"><ele>347.0</ele><time>2026-04-19T10:18:56.172Z</time></trkpt><trkpt lat="43.5241517" lon="11.3009871"><ele>347.0</ele><time>2026-04-19T10:18:57.172Z</time></trkpt><trkpt lat="43.5241812" lon="11.3008057"><ele>347.0</ele><time>2026-04-19T10:18:58.186Z</time></trkpt><trkpt lat="43.5242133" lon="11.3006124"><ele>347.0</ele><time>2026-04-19T10:18:59.169Z</time></trkpt><trkpt lat="43.5242343" lon="11.3004221"><ele>347.0</ele><time>2026-04-19T10:19:00.176Z</time></trkpt><trkpt lat="43.5242138" lon="11.3002423"><ele>347.0</ele><time>2026-04-19T10:19:01.176Z</time></trkpt><trkpt lat="43.5241336" lon="11.3000664"><ele>347.33333333333337</ele><time>2026-04-19T10:19:02.172Z</time></trkpt><trkpt lat="43.524036" lon="11.2998935"><ele>347.6666666666667</ele><time>2026-04-19T10:19:03.175Z</time></trkpt><trkpt lat="43.5239136" lon="11.2997577"><ele>348.0</ele><time>2026-04-19T10:19:04.187Z</time></trkpt><trkpt lat="43.5237612" lon="11.2996427"><ele>345.0</ele><time>2026-04-19T10:19:05.177Z</time></trkpt><trkpt lat="43.5236032" lon="11.299516"><ele>342.0</ele><time>2026-04-19T10:19:06.167Z</time></trkpt><trkpt lat="43.5234485" lon="11.2993839"><ele>339.0</ele><time>2026-04-19T10:19:07.169Z</time></trkpt><trkpt lat="43.523283" lon="11.2992399"><ele>339.0</ele><time>2026-04-19T10:19:08.152Z</time></trkpt><trkpt lat="43.5231091" lon="11.2990891"><ele>339.0</ele><time>2026-04-19T10:19:09.173Z</time></trkpt><trkpt lat="43.5229286" lon="11.2989351"><ele>339.0</ele><time>2026-04-19T10:19:10.172Z</time></trkpt><trkpt lat="43.5227507" lon="11.2987841"><ele>337.0</ele><time>2026-04-19T10:19:11.172Z</time></trkpt><trkpt lat="43.5225817" lon="11.2986414"><ele>335.0</ele><time>2026-04-19T10:19:12.171Z</time></trkpt><trkpt lat="43.5224176" lon="11.2984985"><ele>333.0</ele><time>2026-04-19T10:19:13.17Z</time></trkpt><trkpt lat="43.5222579" lon="11.2983676"><ele>333.0</ele><time>2026-04-19T10:19:14.169Z</time></trkpt><trkpt lat="43.5221037" lon="11.2982322"><ele>333.0</ele><time>2026-04-19T10:19:15.178Z</time></trkpt><trkpt lat="43.5219517" lon="11.2981135"><ele>333.0</ele><time>2026-04-19T10:19:16.175Z</time></trkpt><trkpt lat="43.5217921" lon="11.2980395"><ele>335.3333333333333</ele><time>2026-04-19T10:19:17.153Z</time></trkpt><trkpt lat="43.5216058" lon="11.2980125"><ele>337.66666666666663</ele><time>2026-04-19T10:19:18.17Z</time></trkpt><trkpt lat="43.5214216" lon="11.2980218"><ele>340.0</ele><time>2026-04-19T10:19:19.174Z</time></trkpt><trkpt lat="43.5212744" lon="11.2980161"><ele>334.75</ele><time>2026-04-19T10:19:20.169Z</time></trkpt><trkpt lat="43.5211424" lon="11.2979936"><ele>329.5</ele><time>2026-04-19T10:19:21.178Z</time></trkpt><trkpt lat="43.52102" lon="11.2979509"><ele>324.25</ele><time>2026-04-19T10:19:22.167Z</time></trkpt><trkpt lat="43.5209129" lon="11.2978334"><ele>319.0</ele><time>2026-04-19T10:19:23.167Z</time></trkpt><trkpt lat="43.5208122" lon="11.2976612"><ele>319.0</ele><time>2026-04-19T10:19:24.163Z</time></trkpt><trkpt lat="43.5207173" lon="11.2974649"><ele>319.0</ele><time>2026-04-19T10:19:25.178Z</time></trkpt><trkpt lat="43.5205996" lon="11.2972669"><ele>319.0</ele><time>2026-04-19T10:19:26.173Z</time></trkpt><trkpt lat="43.5204666" lon="11.2970484"><ele>316.0</ele><time>2026-04-19T10:19:27.154Z</time></trkpt><trkpt lat="43.5203295" lon="11.2968278"><ele>313.0</ele><time>2026-04-19T10:19:28.167Z</time></trkpt><trkpt lat="43.5201911" lon="11.2966144"><ele>310.0</ele><time>2026-04-19T10:19:29.167Z</time></trkpt><trkpt lat="43.5200639" lon="11.2964133"><ele>310.0</ele><time>2026-04-19T10:19:30.172Z</time></trkpt><trkpt lat="43.5199472" lon="11.2962317"><ele>310.0</ele><time>2026-04-19T10:19:31.169Z</time></trkpt><trkpt lat="43.519835" lon="11.2960724"><ele>310.0</ele><time>2026-04-19T10:19:32.174Z</time></trkpt><trkpt lat="43.5197229" lon="11.2959264"><ele>310.0</ele><time>2026-04-19T10:19:33.172Z</time></trkpt><trkpt lat="43.5196408" lon="11.2957918"><ele>310.0</ele><time>2026-04-19T10:19:34.183Z</time></trkpt><trkpt lat="43.5195892" lon="11.2956292"><ele>310.0</ele><time>2026-04-19T10:19:35.175Z</time></trkpt><trkpt lat="43.5195899" lon="11.2954512"><ele>310.0</ele><time>2026-04-19T10:19:36.178Z</time></trkpt><trkpt lat="43.5196227" lon="11.295278"><ele>307.66666666666663</ele><time>2026-04-19T10:19:37.172Z</time></trkpt><trkpt lat="43.5196834" lon="11.2951127"><ele>305.3333333333333</ele><time>2026-04-19T10:19:38.168Z</time></trkpt><trkpt lat="43.5197935" lon="11.2949492"><ele>303.0</ele><time>2026-04-19T10:19:39.168Z</time></trkpt><trkpt lat="43.519918" lon="11.2948015"><ele>296.3333333333333</ele><time>2026-04-19T10:19:40.175Z</time></trkpt><trkpt lat="43.5200683" lon="11.2946864"><ele>289.66666666666663</ele><time>2026-04-19T10:19:41.166Z</time></trkpt><trkpt lat="43.5202115" lon="11.2946081"><ele>283.0</ele><time>2026-04-19T10:19:42.161Z</time></trkpt><trkpt lat="43.5203336" lon="11.2945599"><ele>283.25</ele><time>2026-04-19T10:19:43.186Z</time></trkpt><trkpt lat="43.5204471" lon="11.2945773"><ele>283.5</ele><time>2026-04-19T10:19:44.164Z</time></trkpt><trkpt lat="43.5205766" lon="11.2946453"><ele>283.75</ele><time>2026-04-19T10:19:45.173Z</time></trkpt><trkpt lat="43.5207354" lon="11.2947444"><ele>284.0</ele><time>2026-04-19T10:19:46.175Z</time></trkpt><trkpt lat="43.5209165" lon="11.2948429"><ele>286.75</ele><time>2026-04-19T10:19:47.174Z</time></trkpt><trkpt lat="43.5210808" lon="11.294898"><ele>289.5</ele><time>2026-04-19T10:19:48.161Z</time></trkpt><trkpt lat="43.5212294" lon="11.2949299"><ele>292.25</ele><time>2026-04-19T10:19:49.167Z</time></trkpt><trkpt lat="43.5213449" lon="11.2949274"><ele>295.0</ele><time>2026-04-19T10:19:50.182Z</time></trkpt><trkpt lat="43.5214379" lon="11.2948951"><ele>295.0</ele><time>2026-04-19T10:19:51.175Z</time></trkpt><trkpt lat="43.5215168" lon="11.2948153"><ele>295.0</ele><time>2026-04-19T10:19:52.171Z</time></trkpt><trkpt lat="43.5215583" lon="11.2946815"><ele>295.0</ele><time>2026-04-19T10:19:53.168Z</time></trkpt><trkpt lat="43.5215399" lon="11.2945199"><ele>295.0</ele><time>2026-04-19T10:19:54.158Z</time></trkpt><trkpt lat="43.5214677" lon="11.2943859"><ele>295.0</ele><time>2026-04-19T10:19:55.171Z</time></trkpt><trkpt lat="43.5213508" lon="11.2942963"><ele>291.3333333333333</ele><time>2026-04-19T10:19:56.183Z</time></trkpt><trkpt lat="43.5212163" lon="11.2942306"><ele>287.6666666666667</ele><time>2026-04-19T10:19:57.159Z</time></trkpt><trkpt lat="43.5210525" lon="11.2941802"><ele>284.0</ele><time>2026-04-19T10:19:58.161Z</time></trkpt><trkpt lat="43.5208825" lon="11.2941255"><ele>284.0</ele><time>2026-04-19T10:19:59.17Z</time></trkpt><trkpt lat="43.5207055" lon="11.294071"><ele>284.0</ele><time>2026-04-19T10:20:00.169Z</time></trkpt><trkpt lat="43.5205345" lon="11.2940144"><ele>284.0</ele><time>2026-04-19T10:20:01.171Z</time></trkpt><trkpt lat="43.5203772" lon="11.2939562"><ele>281.59999999999997</ele><time>2026-04-19T10:20:02.161Z</time></trkpt><trkpt lat="43.5202397" lon="11.2939087"><ele>279.2</ele><time>2026-04-19T10:20:03.164Z</time></trkpt><trkpt lat="43.5201291" lon="11.2938667"><ele>276.79999999999995</ele><time>2026-04-19T10:20:04.169Z</time></trkpt><trkpt lat="43.5200441" lon="11.293812"><ele>274.4</ele><time>2026-04-19T10:20:05.175Z</time></trkpt><trkpt lat="43.519986" lon="11.2937213"><ele>272.0</ele><time>2026-04-19T10:20:06.172Z</time></trkpt><trkpt lat="43.5199855" lon="11.2935872"><ele>272.0</ele><time>2026-04-19T10:20:07.164Z</time></trkpt><trkpt lat="43.5200469" lon="11.2934327"><ele>272.0</ele><time>2026-04-19T10:20:08.149Z</time></trkpt><trkpt lat="43.5201188" lon="11.2933137"><ele>272.0</ele><time>2026-04-19T10:20:09.164Z</time></trkpt><trkpt lat="43.520194" lon="11.293183"><ele>272.0</ele><time>2026-04-19T10:20:10.17Z</time></trkpt><trkpt lat="43.5202224" lon="11.2930332"><ele>271.25</ele><time>2026-04-19T10:20:11.177Z</time></trkpt><trkpt lat="43.5202267" lon="11.2928507"><ele>270.5</ele><time>2026-04-19T10:20:12.16Z</time></trkpt><trkpt lat="43.5202087" lon="11.2926423"><ele>269.75</ele><time>2026-04-19T10:20:13.172Z</time></trkpt><trkpt lat="43.5201822" lon="11.2924412"><ele>269.0</ele><time>2026-04-19T10:20:14.184Z</time></trkpt><trkpt lat="43.5201621" lon="11.292256"><ele>270.83333333333337</ele><time>2026-04-19T10:20:15.182Z</time></trkpt><trkpt lat="43.5201449" lon="11.2921176"><ele>272.6666666666667</ele><time>2026-04-19T10:20:16.172Z</time></trkpt><trkpt lat="43.5201271" lon="11.2920105"><ele>274.5</ele><time>2026-04-19T10:20:17.167Z</time></trkpt><trkpt lat="43.5201166" lon="11.2919202"><ele>276.3333333333333</ele><time>2026-04-19T10:20:18.171Z</time></trkpt><trkpt lat="43.5201385" lon="11.2917953"><ele>278.16666666666663</ele><time>2026-04-19T10:20:20.167Z</time></trkpt><trkpt lat="43.5201952" lon="11.2917462"><ele>280.0</ele><time>2026-04-19T10:20:22.165Z</time></trkpt><trkpt lat="43.520276" lon="11.2917423"><ele>280.0</ele><time>2026-04-19T10:20:24.163Z</time></trkpt><trkpt lat="43.5203841" lon="11.2917694"><ele>280.0</ele><time>2026-04-19T10:20:26.172Z</time></trkpt><trkpt lat="43.5204526" lon="11.2917716"><ele>280.0</ele><time>2026-04-19T10:20:27.173Z</time></trkpt><trkpt lat="43.520536" lon="11.291769"><ele>280.0</ele><time>2026-04-19T10:20:28.194Z</time></trkpt><trkpt lat="43.5206484" lon="11.2917596"><ele>280.0</ele><time>2026-04-19T10:20:29.172Z</time></trkpt><trkpt lat="43.5207774" lon="11.2917385"><ele>280.5</ele><time>2026-04-19T10:20:30.175Z</time></trkpt><trkpt lat="43.5209143" lon="11.2917386"><ele>281.0</ele><time>2026-04-19T10:20:31.166Z</time></trkpt><trkpt lat="43.5210483" lon="11.2917479"><ele>281.5</ele><time>2026-04-19T10:20:32.171Z</time></trkpt><trkpt lat="43.5211815" lon="11.2917616"><ele>282.0</ele><time>2026-04-19T10:20:33.155Z</time></trkpt><trkpt lat="43.5213126" lon="11.2917952"><ele>282.5</ele><time>2026-04-19T10:20:34.154Z</time></trkpt><trkpt lat="43.5214463" lon="11.2918286"><ele>283.0</ele><time>2026-04-19T10:20:35.17Z</time></trkpt><trkpt lat="43.5215722" lon="11.2918542"><ele>283.5</ele><time>2026-04-19T10:20:36.176Z</time></trkpt><trkpt lat="43.5216918" lon="11.2918309"><ele>284.0</ele><time>2026-04-19T10:20:37.166Z</time></trkpt><trkpt lat="43.5218182" lon="11.2917538"><ele>284.0</ele><time>2026-04-19T10:20:38.17Z</time></trkpt><trkpt lat="43.5219543" lon="11.2916537"><ele>284.0</ele><time>2026-04-19T10:20:39.17Z</time></trkpt><trkpt lat="43.5220836" lon="11.2915245"><ele>284.0</ele><time>2026-04-19T10:20:40.174Z</time></trkpt><trkpt lat="43.5222022" lon="11.2913805"><ele>285.25</ele><time>2026-04-19T10:20:41.171Z</time></trkpt><trkpt lat="43.5223092" lon="11.2912476"><ele>286.5</ele><time>2026-04-19T10:20:42.184Z</time></trkpt><trkpt lat="43.5224092" lon="11.2911198"><ele>287.75</ele><time>2026-04-19T10:20:43.164Z</time></trkpt><trkpt lat="43.5225195" lon="11.2910147"><ele>289.0</ele><time>2026-04-19T10:20:44.166Z</time></trkpt><trkpt lat="43.5226554" lon="11.2909285"><ele>289.0</ele><time>2026-04-19T10:20:45.18Z</time></trkpt><trkpt lat="43.5228236" lon="11.2908539"><ele>289.0</ele><time>2026-04-19T10:20:46.153Z</time></trkpt><trkpt lat="43.5229899" lon="11.2907817"><ele>289.0</ele><time>2026-04-19T10:20:47.164Z</time></trkpt><trkpt lat="43.5231483" lon="11.290717"><ele>287.66666666666663</ele><time>2026-04-19T10:20:48.172Z</time></trkpt><trkpt lat="43.5233058" lon="11.2906571"><ele>286.3333333333333</ele><time>2026-04-19T10:20:49.169Z</time></trkpt><trkpt lat="43.5234726" lon="11.2906124"><ele>285.0</ele><time>2026-04-19T10:20:50.176Z</time></trkpt><trkpt lat="43.5236461" lon="11.2905848"><ele>283.3333333333333</ele><time>2026-04-19T10:20:51.174Z</time></trkpt><trkpt lat="43.5238243" lon="11.2905804"><ele>281.66666666666663</ele><time>2026-04-19T10:20:52.176Z</time></trkpt><trkpt lat="43.5240077" lon="11.2905969"><ele>280.0</ele><time>2026-04-19T10:20:53.169Z</time></trkpt><trkpt lat="43.524182" lon="11.2906174"><ele>279.3333333333333</ele><time>2026-04-19T10:20:54.169Z</time></trkpt><trkpt lat="43.524341" lon="11.290623"><ele>278.6666666666667</ele><time>2026-04-19T10:20:55.175Z</time></trkpt><trkpt lat="43.52449" lon="11.2906128"><ele>278.0</ele><time>2026-04-19T10:20:56.158Z</time></trkpt><trkpt lat="43.524636" lon="11.2905654"><ele>278.0</ele><time>2026-04-19T10:20:57.183Z</time></trkpt><trkpt lat="43.5247949" lon="11.2904965"><ele>278.0</ele><time>2026-04-19T10:20:58.176Z</time></trkpt><trkpt lat="43.5249601" lon="11.2904477"><ele>278.0</ele><time>2026-04-19T10:20:59.173Z</time></trkpt><trkpt lat="43.5251331" lon="11.2904189"><ele>278.0</ele><time>2026-04-19T10:21:00.182Z</time></trkpt><trkpt lat="43.5253114" lon="11.2904065"><ele>278.0</ele><time>2026-04-19T10:21:01.18Z</time></trkpt><trkpt lat="43.5254971" lon="11.2903856"><ele>278.0</ele><time>2026-04-19T10:21:02.186Z</time></trkpt><trkpt lat="43.5256887" lon="11.2903475"><ele>275.33333333333337</ele><time>2026-04-19T10:21:03.174Z</time></trkpt><trkpt lat="43.525891" lon="11.2903016"><ele>272.6666666666667</ele><time>2026-04-19T10:21:04.169Z</time></trkpt><trkpt lat="43.5260915" lon="11.2902499"><ele>270.0</ele><time>2026-04-19T10:21:05.157Z</time></trkpt><trkpt lat="43.52628" lon="11.2901935"><ele>269.0</ele><time>2026-04-19T10:21:06.174Z</time></trkpt><trkpt lat="43.5264339" lon="11.2901362"><ele>268.0</ele><time>2026-04-19T10:21:07.168Z</time></trkpt><trkpt lat="43.5265742" lon="11.2900754"><ele>267.0</ele><time>2026-04-19T10:21:08.158Z</time></trkpt><trkpt lat="43.5267047" lon="11.2899921"><ele>267.0</ele><time>2026-04-19T10:21:09.183Z</time></trkpt><trkpt lat="43.5268205" lon="11.2898912"><ele>267.0</ele><time>2026-04-19T10:21:10.177Z</time></trkpt><trkpt lat="43.5269185" lon="11.2897499"><ele>267.0</ele><time>2026-04-19T10:21:11.183Z</time></trkpt><trkpt lat="43.5270037" lon="11.2895853"><ele>267.0</ele><time>2026-04-19T10:21:12.179Z</time></trkpt><trkpt lat="43.5270518" lon="11.2893873"><ele>267.6666666666667</ele><time>2026-04-19T10:21:13.174Z</time></trkpt><trkpt lat="43.5270606" lon="11.2891693"><ele>268.33333333333337</ele><time>2026-04-19T10:21:14.184Z</time></trkpt><trkpt lat="43.5270527" lon="11.2889434"><ele>269.0</ele><time>2026-04-19T10:21:15.176Z</time></trkpt><trkpt lat="43.5270206" lon="11.2886999"><ele>271.0</ele><time>2026-04-19T10:21:16.179Z</time></trkpt><trkpt lat="43.5269678" lon="11.2884568"><ele>273.0</ele><time>2026-04-19T10:21:17.175Z</time></trkpt><trkpt lat="43.5269103" lon="11.2882033"><ele>275.0</ele><time>2026-04-19T10:21:18.173Z</time></trkpt><trkpt lat="43.5268589" lon="11.2879622"><ele>278.0</ele><time>2026-04-19T10:21:19.168Z</time></trkpt><trkpt lat="43.5268194" lon="11.2877494"><ele>281.0</ele><time>2026-04-19T10:21:20.179Z</time></trkpt><trkpt lat="43.5268016" lon="11.2875404"><ele>284.0</ele><time>2026-04-19T10:21:21.175Z</time></trkpt><trkpt lat="43.5268043" lon="11.287337"><ele>284.33333333333337</ele><time>2026-04-19T10:21:22.172Z</time></trkpt><trkpt lat="43.5268392" lon="11.2871442"><ele>284.6666666666667</ele><time>2026-04-19T10:21:23.18Z</time></trkpt><trkpt lat="43.5268931" lon="11.2869426"><ele>285.0</ele><time>2026-04-19T10:21:24.17Z</time></trkpt><trkpt lat="43.5269443" lon="11.2867442"><ele>285.0</ele><time>2026-04-19T10:21:25.178Z</time></trkpt><trkpt lat="43.5269819" lon="11.2865846"><ele>285.0</ele><time>2026-04-19T10:21:26.173Z</time></trkpt><trkpt lat="43.5270104" lon="11.2864549"><ele>285.0</ele><time>2026-04-19T10:21:27.176Z</time></trkpt><trkpt lat="43.5270715" lon="11.2863511"><ele>285.0</ele><time>2026-04-19T10:21:28.173Z</time></trkpt><trkpt lat="43.5271765" lon="11.2862796"><ele>285.0</ele><time>2026-04-19T10:21:29.167Z</time></trkpt><trkpt lat="43.5273019" lon="11.286223"><ele>288.25</ele><time>2026-04-19T10:21:30.167Z</time></trkpt><trkpt lat="43.5274258" lon="11.2861596"><ele>291.5</ele><time>2026-04-19T10:21:31.162Z</time></trkpt><trkpt lat="43.5275353" lon="11.2860783"><ele>294.75</ele><time>2026-04-19T10:21:32.17Z</time></trkpt><trkpt lat="43.5276378" lon="11.2859805"><ele>298.0</ele><time>2026-04-19T10:21:33.176Z</time></trkpt><trkpt lat="43.5277172" lon="11.2858111"><ele>298.0</ele><time>2026-04-19T10:21:34.167Z</time></trkpt><trkpt lat="43.527766" lon="11.2856142"><ele>298.0</ele><time>2026-04-19T10:21:35.179Z</time></trkpt><trkpt lat="43.5277943" lon="11.2854098"><ele>298.0</ele><time>2026-04-19T10:21:36.169Z</time></trkpt><trkpt lat="43.5277933" lon="11.2851952"><ele>297.66666666666663</ele><time>2026-04-19T10:21:37.168Z</time></trkpt><trkpt lat="43.5277591" lon="11.2849794"><ele>297.3333333333333</ele><time>2026-04-19T10:21:38.165Z</time></trkpt><trkpt lat="43.5277056" lon="11.2847719"><ele>297.0</ele><time>2026-04-19T10:21:39.156Z</time></trkpt><trkpt lat="43.5276324" lon="11.2845804"><ele>299.25</ele><time>2026-04-19T10:21:40.169Z</time></trkpt><trkpt lat="43.5275378" lon="11.2844185"><ele>301.5</ele><time>2026-04-19T10:21:41.169Z</time></trkpt><trkpt lat="43.5274313" lon="11.2842886"><ele>303.75</ele><time>2026-04-19T10:21:42.172Z</time></trkpt><trkpt lat="43.5273401" lon="11.28422"><ele>306.0</ele><time>2026-04-19T10:21:43.17Z</time></trkpt><trkpt lat="43.5272839" lon="11.2841553"><ele>306.0</ele><time>2026-04-19T10:21:44.176Z</time></trkpt><trkpt lat="43.5272623" lon="11.2840657"><ele>306.0</ele><time>2026-04-19T10:21:45.179Z</time></trkpt><trkpt lat="43.5272962" lon="11.283984"><ele>306.0</ele><time>2026-04-19T10:21:46.158Z</time></trkpt><trkpt lat="43.5273915" lon="11.2839382"><ele>306.0</ele><time>2026-04-19T10:21:47.171Z</time></trkpt><trkpt lat="43.5275228" lon="11.2839317"><ele>306.0</ele><time>2026-04-19T10:21:48.164Z</time></trkpt><trkpt lat="43.5276715" lon="11.2839431"><ele>306.0</ele><time>2026-04-19T10:21:49.174Z</time></trkpt><trkpt lat="43.5278162" lon="11.2839418"><ele>306.0</ele><time>2026-04-19T10:21:50.153Z</time></trkpt><trkpt lat="43.5279578" lon="11.2839519"><ele>306.0</ele><time>2026-04-19T10:21:51.165Z</time></trkpt><trkpt lat="43.5281045" lon="11.2839966"><ele>306.0</ele><time>2026-04-19T10:21:52.17Z</time></trkpt><trkpt lat="43.528262" lon="11.2840832"><ele>309.6666666666667</ele><time>2026-04-19T10:21:53.178Z</time></trkpt><trkpt lat="43.5284174" lon="11.2842005"><ele>313.33333333333337</ele><time>2026-04-19T10:21:54.165Z</time></trkpt><trkpt lat="43.5285597" lon="11.2843102"><ele>317.0</ele><time>2026-04-19T10:21:55.187Z</time></trkpt><trkpt lat="43.5286977" lon="11.2844246"><ele>320.0</ele><time>2026-04-19T10:21:56.184Z</time></trkpt><trkpt lat="43.5288359" lon="11.2845526"><ele>323.0</ele><time>2026-04-19T10:21:57.171Z</time></trkpt><trkpt lat="43.5289702" lon="11.2847049"><ele>326.0</ele><time>2026-04-19T10:21:58.184Z</time></trkpt><trkpt lat="43.5291084" lon="11.2848691"><ele>326.0</ele><time>2026-04-19T10:21:59.155Z</time></trkpt><trkpt lat="43.5292414" lon="11.2850312"><ele>326.0</ele><time>2026-04-19T10:22:00.173Z</time></trkpt><trkpt lat="43.5293486" lon="11.2851624"><ele>326.0</ele><time>2026-04-19T10:22:01.164Z</time></trkpt><trkpt lat="43.5294385" lon="11.2852567"><ele>326.0</ele><time>2026-04-19T10:22:02.17Z</time></trkpt><trkpt lat="43.5295161" lon="11.2853203"><ele>328.6</ele><time>2026-04-19T10:22:03.178Z</time></trkpt><trkpt lat="43.5295916" lon="11.2853273"><ele>331.20000000000005</ele><time>2026-04-19T10:22:04.183Z</time></trkpt><trkpt lat="43.5296688" lon="11.2852742"><ele>333.79999999999995</ele><time>2026-04-19T10:22:05.179Z</time></trkpt><trkpt lat="43.5297254" lon="11.2851715"><ele>336.4</ele><time>2026-04-19T10:22:06.158Z</time></trkpt><trkpt lat="43.5297725" lon="11.285051"><ele>339.0</ele><time>2026-04-19T10:22:07.17Z</time></trkpt><trkpt lat="43.5298149" lon="11.2849116"><ele>339.0</ele><time>2026-04-19T10:22:08.172Z</time></trkpt><trkpt lat="43.5298623" lon="11.2848001"><ele>339.0</ele><time>2026-04-19T10:22:09.184Z</time></trkpt><trkpt lat="43.5299104" lon="11.2847039"><ele>339.0</ele><time>2026-04-19T10:22:10.164Z</time></trkpt><trkpt lat="43.5299889" lon="11.2846039"><ele>339.0</ele><time>2026-04-19T10:22:12.187Z</time></trkpt><trkpt lat="43.5300336" lon="11.2845384"><ele>339.0</ele><time>2026-04-19T10:22:14.174Z</time></trkpt><trkpt lat="43.530062" lon="11.2844487"><ele>339.0</ele><time>2026-04-19T10:22:16.176Z</time></trkpt><trkpt lat="43.5300552" lon="11.2842697"><ele>339.2</ele><time>2026-04-19T10:22:18.168Z</time></trkpt><trkpt lat="43.5300474" lon="11.2841484"><ele>339.4</ele><time>2026-04-19T10:22:19.178Z</time></trkpt><trkpt lat="43.5300357" lon="11.2840274"><ele>339.6</ele><time>2026-04-19T10:22:20.149Z</time></trkpt><trkpt lat="43.5300262" lon="11.2838944"><ele>339.8</ele><time>2026-04-19T10:22:21.153Z</time></trkpt><trkpt lat="43.53001" lon="11.2837501"><ele>340.0</ele><time>2026-04-19T10:22:22.168Z</time></trkpt><trkpt lat="43.5299811" lon="11.2836116"><ele>339.6</ele><time>2026-04-19T10:22:23.157Z</time></trkpt><trkpt lat="43.5299509" lon="11.2834841"><ele>339.2</ele><time>2026-04-19T10:22:24.173Z</time></trkpt><trkpt lat="43.5299159" lon="11.2833524"><ele>338.79999999999995</ele><time>2026-04-19T10:22:25.15Z</time></trkpt><trkpt lat="43.5298601" lon="11.28323"><ele>338.4</ele><time>2026-04-19T10:22:26.161Z</time></trkpt><trkpt lat="43.5297903" lon="11.2831125"><ele>338.0</ele><time>2026-04-19T10:22:27.164Z</time></trkpt><trkpt lat="43.5296854" lon="11.2830197"><ele>338.25</ele><time>2026-04-19T10:22:28.159Z</time></trkpt><trkpt lat="43.5295735" lon="11.282939"><ele>338.5</ele><time>2026-04-19T10:22:29.168Z</time></trkpt><trkpt lat="43.5294726" lon="11.2828253"><ele>338.75</ele><time>2026-04-19T10:22:30.167Z</time></trkpt><trkpt lat="43.5293843" lon="11.2826709"><ele>339.0</ele><time>2026-04-19T10:22:31.156Z</time></trkpt><trkpt lat="43.5293059" lon="11.2825"><ele>339.0</ele><time>2026-04-19T10:22:32.159Z</time></trkpt><trkpt lat="43.5292356" lon="11.2823289"><ele>339.0</ele><time>2026-04-19T10:22:33.169Z</time></trkpt><trkpt lat="43.5291732" lon="11.2821615"><ele>339.0</ele><time>2026-04-19T10:22:34.177Z</time></trkpt><trkpt lat="43.5291122" lon="11.2820003"><ele>339.0</ele><time>2026-04-19T10:22:35.173Z</time></trkpt><trkpt lat="43.5290619" lon="11.2818492"><ele>339.75</ele><time>2026-04-19T10:22:36.151Z</time></trkpt><trkpt lat="43.5290256" lon="11.2816933"><ele>340.5</ele><time>2026-04-19T10:22:37.149Z</time></trkpt><trkpt lat="43.5290215" lon="11.2815398"><ele>341.25</ele><time>2026-04-19T10:22:38.171Z</time></trkpt><trkpt lat="43.5290634" lon="11.2814073"><ele>342.0</ele><time>2026-04-19T10:22:39.153Z</time></trkpt><trkpt lat="43.5291511" lon="11.2812942"><ele>343.75</ele><time>2026-04-19T10:22:40.174Z</time></trkpt><trkpt lat="43.5292642" lon="11.2812216"><ele>345.5</ele><time>2026-04-19T10:22:41.171Z</time></trkpt><trkpt lat="43.5293846" lon="11.2811663"><ele>347.25</ele><time>2026-04-19T10:22:42.165Z</time></trkpt><trkpt lat="43.5295023" lon="11.2811373"><ele>349.0</ele><time>2026-04-19T10:22:43.173Z</time></trkpt><trkpt lat="43.5296067" lon="11.2811359"><ele>349.0</ele><time>2026-04-19T10:22:44.17Z</time></trkpt><trkpt lat="43.5296918" lon="11.2811262"><ele>349.0</ele><time>2026-04-19T10:22:45.18Z</time></trkpt><trkpt lat="43.5297605" lon="11.2811148"><ele>349.0</ele><time>2026-04-19T10:22:46.172Z</time></trkpt><trkpt lat="43.5298592" lon="11.2810972"><ele>349.0</ele><time>2026-04-19T10:22:48.178Z</time></trkpt><trkpt lat="43.5299351" lon="11.2810986"><ele>349.0</ele><time>2026-04-19T10:22:50.176Z</time></trkpt><trkpt lat="43.5300048" lon="11.2810998"><ele>349.0</ele><time>2026-04-19T10:22:53.159Z</time></trkpt><trkpt lat="43.5300981" lon="11.2810653"><ele>349.0</ele><time>2026-04-19T10:23:01.167Z</time></trkpt><trkpt lat="43.5302131" lon="11.2810328"><ele>349.0</ele><time>2026-04-19T10:23:03.179Z</time></trkpt><trkpt lat="43.5303094" lon="11.280996"><ele>349.0</ele><time>2026-04-19T10:23:05.17Z</time></trkpt><trkpt lat="43.5303789" lon="11.2809539"><ele>349.0</ele><time>2026-04-19T10:23:08.177Z</time></trkpt><trkpt lat="43.5303318" lon="11.2808948"><ele>349.0</ele><time>2026-04-19T10:23:12.15Z</time></trkpt><trkpt lat="43.5302004" lon="11.2809664"><ele>349.0</ele><time>2026-04-19T10:23:14.164Z</time></trkpt><trkpt lat="43.5301034" lon="11.2809986"><ele>349.0</ele><time>2026-04-19T10:23:15.166Z</time></trkpt><trkpt lat="43.5300169" lon="11.281029"><ele>349.0</ele><time>2026-04-19T10:23:16.182Z</time></trkpt><trkpt lat="43.5299545" lon="11.2810519"><ele>349.0</ele><time>2026-04-19T10:23:17.159Z</time></trkpt><trkpt lat="43.5298515" lon="11.2810873"><ele>349.0</ele><time>2026-04-19T10:23:19.155Z</time></trkpt><trkpt lat="43.5297741" lon="11.2811155"><ele>349.0</ele><time>2026-04-19T10:23:20.148Z</time></trkpt><trkpt lat="43.5296562" lon="11.2811451"><ele>349.0</ele><time>2026-04-19T10:23:21.175Z</time></trkpt><trkpt lat="43.5295154" lon="11.2811717"><ele>349.0</ele><time>2026-04-19T10:23:22.167Z</time></trkpt><trkpt lat="43.5293816" lon="11.2812104"><ele>349.0</ele><time>2026-04-19T10:23:23.168Z</time></trkpt><trkpt lat="43.5292605" lon="11.2812554"><ele>349.0</ele><time>2026-04-19T10:23:24.173Z</time></trkpt><trkpt lat="43.5291627" lon="11.2813332"><ele>349.0</ele><time>2026-04-19T10:23:25.177Z</time></trkpt><trkpt lat="43.5290889" lon="11.2814318"><ele>349.0</ele><time>2026-04-19T10:23:26.178Z</time></trkpt><trkpt lat="43.529033" lon="11.2815324"><ele>349.0</ele><time>2026-04-19T10:23:27.173Z</time></trkpt><trkpt lat="43.5290072" lon="11.281644"><ele>349.0</ele><time>2026-04-19T10:23:28.175Z</time></trkpt><trkpt lat="43.5289995" lon="11.2817429"><ele>349.0</ele><time>2026-04-19T10:23:29.173Z</time></trkpt><trkpt lat="43.5290134" lon="11.2818724"><ele>349.0</ele><time>2026-04-19T10:23:31.169Z</time></trkpt><trkpt lat="43.5289324" lon="11.2817735"><ele>349.0</ele><time>2026-04-19T10:23:37.166Z</time></trkpt><trkpt lat="43.5288962" lon="11.2816369"><ele>349.0</ele><time>2026-04-19T10:23:39.171Z</time></trkpt><trkpt lat="43.5288637" lon="11.281473"><ele>349.0</ele><time>2026-04-19T10:23:41.171Z</time></trkpt><trkpt lat="43.5288495" lon="11.2813864"><ele>349.0</ele><time>2026-04-19T10:23:42.173Z</time></trkpt><trkpt lat="43.5288126" lon="11.2812248"><ele>349.0</ele><time>2026-04-19T10:23:44.164Z</time></trkpt><trkpt lat="43.5287951" lon="11.281133"><ele>349.0</ele><time>2026-04-19T10:23:45.179Z</time></trkpt><trkpt lat="43.5287745" lon="11.2810227"><ele>349.0</ele><time>2026-04-19T10:23:46.163Z</time></trkpt><trkpt lat="43.5287594" lon="11.2809021"><ele>349.0</ele><time>2026-04-19T10:23:47.176Z</time></trkpt><trkpt lat="43.528745" lon="11.2807934"><ele>349.0</ele><time>2026-04-19T10:23:48.176Z</time></trkpt><trkpt lat="43.5287516" lon="11.2806685"><ele>349.0</ele><time>2026-04-19T10:23:49.176Z</time></trkpt><trkpt lat="43.5287783" lon="11.2805349"><ele>349.0</ele><time>2026-04-19T10:23:50.182Z</time></trkpt><trkpt lat="43.5287943" lon="11.2804334"><ele>351.4</ele><time>2026-04-19T10:23:51.15Z</time></trkpt><trkpt lat="43.5287747" lon="11.2803114"><ele>353.79999999999995</ele><time>2026-04-19T10:23:53.186Z</time></trkpt><trkpt lat="43.5287574" lon="11.2802157"><ele>356.20000000000005</ele><time>2026-04-19T10:23:55.175Z</time></trkpt><trkpt lat="43.5287382" lon="11.2800772"><ele>358.6</ele><time>2026-04-19T10:23:57.184Z</time></trkpt><trkpt lat="43.5286946" lon="11.2799008"><ele>361.0</ele><time>2026-04-19T10:23:59.174Z</time></trkpt><trkpt lat="43.5286647" lon="11.2798048"><ele>362.4</ele><time>2026-04-19T10:24:00.155Z</time></trkpt><trkpt lat="43.5286296" lon="11.27969"><ele>363.8</ele><time>2026-04-19T10:24:01.153Z</time></trkpt><trkpt lat="43.5285864" lon="11.2795796"><ele>365.2</ele><time>2026-04-19T10:24:02.179Z</time></trkpt><trkpt lat="43.5285386" lon="11.279474"><ele>366.59999999999997</ele><time>2026-04-19T10:24:03.167Z</time></trkpt><trkpt lat="43.5284758" lon="11.2793827"><ele>368.0</ele><time>2026-04-19T10:24:04.168Z</time></trkpt><trkpt lat="43.5283946" lon="11.2793079"><ele>368.0</ele><time>2026-04-19T10:24:05.167Z</time></trkpt><trkpt lat="43.5282909" lon="11.2792425"><ele>368.0</ele><time>2026-04-19T10:24:06.167Z</time></trkpt><trkpt lat="43.5281773" lon="11.279154"><ele>368.0</ele><time>2026-04-19T10:24:07.157Z</time></trkpt><trkpt lat="43.5280596" lon="11.2790552"><ele>368.0</ele><time>2026-04-19T10:24:08.172Z</time></trkpt><trkpt lat="43.5279531" lon="11.2789723"><ele>368.79999999999995</ele><time>2026-04-19T10:24:09.176Z</time></trkpt><trkpt lat="43.5278756" lon="11.2788814"><ele>369.6</ele><time>2026-04-19T10:24:10.184Z</time></trkpt><trkpt lat="43.5278087" lon="11.2787863"><ele>370.4</ele><time>2026-04-19T10:24:11.173Z</time></trkpt><trkpt lat="43.5277498" lon="11.2786824"><ele>371.20000000000005</ele><time>2026-04-19T10:24:12.17Z</time></trkpt><trkpt lat="43.5277083" lon="11.2785773"><ele>372.0</ele><time>2026-04-19T10:24:13.175Z</time></trkpt><trkpt lat="43.5276761" lon="11.2784607"><ele>372.0</ele><time>2026-04-19T10:24:14.178Z</time></trkpt><trkpt lat="43.527648" lon="11.278324"><ele>372.0</ele><time>2026-04-19T10:24:15.175Z</time></trkpt><trkpt lat="43.5276244" lon="11.2781789"><ele>372.0</ele><time>2026-04-19T10:24:16.174Z</time></trkpt><trkpt lat="43.5276071" lon="11.2780164"><ele>372.0</ele><time>2026-04-19T10:24:17.175Z</time></trkpt><trkpt lat="43.5275918" lon="11.2778297"><ele>372.5</ele><time>2026-04-19T10:24:18.176Z</time></trkpt><trkpt lat="43.5275628" lon="11.2776579"><ele>373.0</ele><time>2026-04-19T10:24:19.169Z</time></trkpt><trkpt lat="43.5275288" lon="11.2774965"><ele>373.5</ele><time>2026-04-19T10:24:20.175Z</time></trkpt><trkpt lat="43.5274981" lon="11.2773449"><ele>374.0</ele><time>2026-04-19T10:24:21.168Z</time></trkpt><trkpt lat="43.5274799" lon="11.2771984"><ele>375.2</ele><time>2026-04-19T10:24:22.175Z</time></trkpt><trkpt lat="43.5274642" lon="11.2770391"><ele>376.4</ele><time>2026-04-19T10:24:23.173Z</time></trkpt><trkpt lat="43.5274502" lon="11.2768872"><ele>377.6</ele><time>2026-04-19T10:24:24.169Z</time></trkpt><trkpt lat="43.5274424" lon="11.27675"><ele>378.8</ele><time>2026-04-19T10:24:25.171Z</time></trkpt><trkpt lat="43.527446" lon="11.276633"><ele>380.0</ele><time>2026-04-19T10:24:26.168Z</time></trkpt><trkpt lat="43.5274477" lon="11.2765261"><ele>381.0</ele><time>2026-04-19T10:24:27.149Z</time></trkpt><trkpt lat="43.527431" lon="11.2764116"><ele>382.0</ele><time>2026-04-19T10:24:28.169Z</time></trkpt><trkpt lat="43.5273884" lon="11.2763063"><ele>383.0</ele><time>2026-04-19T10:24:29.163Z</time></trkpt><trkpt lat="43.5273427" lon="11.2762097"><ele>384.0</ele><time>2026-04-19T10:24:30.171Z</time></trkpt><trkpt lat="43.5272972" lon="11.276122"><ele>384.99999999999994</ele><time>2026-04-19T10:24:31.168Z</time></trkpt><trkpt lat="43.5272514" lon="11.2760432"><ele>386.0</ele><time>2026-04-19T10:24:32.164Z</time></trkpt><trkpt lat="43.527219" lon="11.2759686"><ele>386.0</ele><time>2026-04-19T10:24:33.175Z</time></trkpt><trkpt lat="43.5271834" lon="11.2758522"><ele>386.0</ele><time>2026-04-19T10:24:35.166Z</time></trkpt><trkpt lat="43.5271986" lon="11.2757673"><ele>386.0</ele><time>2026-04-19T10:24:37.167Z</time></trkpt><trkpt lat="43.5272474" lon="11.2756625"><ele>386.0</ele><time>2026-04-19T10:24:39.166Z</time></trkpt><trkpt lat="43.5272789" lon="11.2755288"><ele>386.0</ele><time>2026-04-19T10:24:40.168Z</time></trkpt><trkpt lat="43.5272898" lon="11.2753675"><ele>386.66666666666663</ele><time>2026-04-19T10:24:41.169Z</time></trkpt><trkpt lat="43.5272771" lon="11.2751907"><ele>387.3333333333333</ele><time>2026-04-19T10:24:42.172Z</time></trkpt><trkpt lat="43.5272563" lon="11.2750542"><ele>388.0</ele><time>2026-04-19T10:24:43.177Z</time></trkpt><trkpt lat="43.5272393" lon="11.2749487"><ele>388.66666666666663</ele><time>2026-04-19T10:24:44.162Z</time></trkpt><trkpt lat="43.5272186" lon="11.2748656"><ele>389.3333333333333</ele><time>2026-04-19T10:24:45.167Z</time></trkpt><trkpt lat="43.527197" lon="11.2747831"><ele>390.0</ele><time>2026-04-19T10:24:46.18Z</time></trkpt><trkpt lat="43.5271321" lon="11.2746826"><ele>391.2</ele><time>2026-04-19T10:24:48.174Z</time></trkpt><trkpt lat="43.5270762" lon="11.2746418"><ele>392.4</ele><time>2026-04-19T10:24:49.168Z</time></trkpt><trkpt lat="43.5269929" lon="11.2746035"><ele>393.6</ele><time>2026-04-19T10:24:50.172Z</time></trkpt><trkpt lat="43.5268855" lon="11.2745283"><ele>394.8</ele><time>2026-04-19T10:24:51.174Z</time></trkpt><trkpt lat="43.5267625" lon="11.2744333"><ele>396.0</ele><time>2026-04-19T10:24:52.175Z</time></trkpt><trkpt lat="43.5266294" lon="11.2743245"><ele>396.0</ele><time>2026-04-19T10:24:53.185Z</time></trkpt><trkpt lat="43.5264929" lon="11.2742158"><ele>396.0</ele><time>2026-04-19T10:24:54.18Z</time></trkpt><trkpt lat="43.5263694" lon="11.2741126"><ele>396.0</ele><time>2026-04-19T10:24:55.174Z</time></trkpt><trkpt lat="43.5262476" lon="11.2740142"><ele>396.0</ele><time>2026-04-19T10:24:56.168Z</time></trkpt><trkpt lat="43.526124" lon="11.2739285"><ele>397.75</ele><time>2026-04-19T10:24:57.156Z</time></trkpt><trkpt lat="43.526007" lon="11.2738657"><ele>399.5</ele><time>2026-04-19T10:24:58.178Z</time></trkpt><trkpt lat="43.5259025" lon="11.2738038"><ele>401.25</ele><time>2026-04-19T10:24:59.178Z</time></trkpt><trkpt lat="43.5258024" lon="11.2737192"><ele>403.0</ele><time>2026-04-19T10:25:00.178Z</time></trkpt><trkpt lat="43.5257123" lon="11.2736041"><ele>403.0</ele><time>2026-04-19T10:25:01.167Z</time></trkpt><trkpt lat="43.5256374" lon="11.2734765"><ele>403.0</ele><time>2026-04-19T10:25:02.178Z</time></trkpt><trkpt lat="43.5255672" lon="11.273354"><ele>403.0</ele><time>2026-04-19T10:25:03.173Z</time></trkpt><trkpt lat="43.525506" lon="11.2732469"><ele>403.0</ele><time>2026-04-19T10:25:04.176Z</time></trkpt><trkpt lat="43.5254512" lon="11.2731813"><ele>403.0</ele><time>2026-04-19T10:25:05.167Z</time></trkpt><trkpt lat="43.5253251" lon="11.2731305"><ele>403.50000000000006</ele><time>2026-04-19T10:25:07.176Z</time></trkpt><trkpt lat="43.525229" lon="11.2731219"><ele>404.0</ele><time>2026-04-19T10:25:08.175Z</time></trkpt><trkpt lat="43.5251334" lon="11.2731116"><ele>404.5</ele><time>2026-04-19T10:25:09.179Z</time></trkpt><trkpt lat="43.5250557" lon="11.2730932"><ele>405.0</ele><time>2026-04-19T10:25:10.171Z</time></trkpt><trkpt lat="43.5249706" lon="11.2730699"><ele>405.50000000000006</ele><time>2026-04-19T10:25:11.147Z</time></trkpt><trkpt lat="43.5248904" lon="11.2730495"><ele>406.0</ele><time>2026-04-19T10:25:12.169Z</time></trkpt><trkpt lat="43.524809" lon="11.2730289"><ele>408.20000000000005</ele><time>2026-04-19T10:25:13.157Z</time></trkpt><trkpt lat="43.5247192" lon="11.2730122"><ele>410.40000000000003</ele><time>2026-04-19T10:25:14.161Z</time></trkpt><trkpt lat="43.52462" lon="11.2729991"><ele>412.6</ele><time>2026-04-19T10:25:15.149Z</time></trkpt><trkpt lat="43.524526" lon="11.2729789"><ele>414.8</ele><time>2026-04-19T10:25:16.168Z</time></trkpt><trkpt lat="43.5244334" lon="11.2729587"><ele>417.0</ele><time>2026-04-19T10:25:17.172Z</time></trkpt><trkpt lat="43.5243532" lon="11.2729268"><ele>417.20000000000005</ele><time>2026-04-19T10:25:18.162Z</time></trkpt><trkpt lat="43.5242784" lon="11.2728697"><ele>417.4</ele><time>2026-04-19T10:25:19.172Z</time></trkpt><trkpt lat="43.5242016" lon="11.2727942"><ele>417.6</ele><time>2026-04-19T10:25:20.166Z</time></trkpt><trkpt lat="43.5241197" lon="11.272693"><ele>417.79999999999995</ele><time>2026-04-19T10:25:21.162Z</time></trkpt><trkpt lat="43.5240434" lon="11.2725981"><ele>418.0</ele><time>2026-04-19T10:25:22.172Z</time></trkpt><trkpt lat="43.5239819" lon="11.2725293"><ele>418.0</ele><time>2026-04-19T10:25:23.173Z</time></trkpt><trkpt lat="43.5238946" lon="11.2724472"><ele>418.0</ele><time>2026-04-19T10:25:25.152Z</time></trkpt><trkpt lat="43.5238469" lon="11.2723483"><ele>418.0</ele><time>2026-04-19T10:25:27.175Z</time></trkpt><trkpt lat="43.5238589" lon="11.272196"><ele>418.0</ele><time>2026-04-19T10:25:29.174Z</time></trkpt><trkpt lat="43.5238849" lon="11.2721034"><ele>418.0</ele><time>2026-04-19T10:25:30.181Z</time></trkpt><trkpt lat="43.5239204" lon="11.2720043"><ele>420.0</ele><time>2026-04-19T10:25:31.168Z</time></trkpt><trkpt lat="43.5239619" lon="11.2718928"><ele>422.0</ele><time>2026-04-19T10:25:32.171Z</time></trkpt><trkpt lat="43.5240095" lon="11.2717677"><ele>423.99999999999994</ele><time>2026-04-19T10:25:33.169Z</time></trkpt><trkpt lat="43.5240583" lon="11.2716313"><ele>426.0</ele><time>2026-04-19T10:25:34.178Z</time></trkpt><trkpt lat="43.5241061" lon="11.2714906"><ele>428.0</ele><time>2026-04-19T10:25:35.175Z</time></trkpt><trkpt lat="43.5241544" lon="11.2713501"><ele>430.59999999999997</ele><time>2026-04-19T10:25:36.173Z</time></trkpt><trkpt lat="43.5242049" lon="11.2712056"><ele>433.19999999999993</ele><time>2026-04-19T10:25:37.17Z</time></trkpt><trkpt lat="43.5242499" lon="11.2710604"><ele>435.8</ele><time>2026-04-19T10:25:38.178Z</time></trkpt><trkpt lat="43.524289" lon="11.2709575"><ele>438.4</ele><time>2026-04-19T10:25:39.173Z</time></trkpt><trkpt lat="43.5243277" lon="11.2708138"><ele>441.0</ele><time>2026-04-19T10:25:41.172Z</time></trkpt><trkpt lat="43.5243067" lon="11.2706932"><ele>444.6</ele><time>2026-04-19T10:25:43.173Z</time></trkpt><trkpt lat="43.5242549" lon="11.2705435"><ele>448.20000000000005</ele><time>2026-04-19T10:25:45.167Z</time></trkpt><trkpt lat="43.524213" lon="11.2704455"><ele>451.79999999999995</ele><time>2026-04-19T10:25:46.182Z</time></trkpt><trkpt lat="43.5241686" lon="11.2703192"><ele>455.4</ele><time>2026-04-19T10:25:47.172Z</time></trkpt><trkpt lat="43.5241327" lon="11.2701668"><ele>459.0</ele><time>2026-04-19T10:25:48.162Z</time></trkpt><trkpt lat="43.5240994" lon="11.2700053"><ele>459.0</ele><time>2026-04-19T10:25:49.17Z</time></trkpt><trkpt lat="43.5240593" lon="11.269851"><ele>459.0</ele><time>2026-04-19T10:25:50.169Z</time></trkpt><trkpt lat="43.5240095" lon="11.2697044"><ele>459.0</ele><time>2026-04-19T10:25:51.172Z</time></trkpt><trkpt lat="43.5239449" lon="11.2695615"><ele>459.0</ele><time>2026-04-19T10:25:52.173Z</time></trkpt><trkpt lat="43.5238746" lon="11.2694208"><ele>459.0</ele><time>2026-04-19T10:25:53.176Z</time></trkpt><trkpt lat="43.5238048" lon="11.2692998"><ele>459.0</ele><time>2026-04-19T10:25:54.174Z</time></trkpt><trkpt lat="43.5237178" lon="11.269216"><ele>459.0</ele><time>2026-04-19T10:25:55.17Z</time></trkpt><trkpt lat="43.523609" lon="11.2691555"><ele>459.0</ele><time>2026-04-19T10:25:56.169Z</time></trkpt><trkpt lat="43.5235233" lon="11.2690941"><ele>459.0</ele><time>2026-04-19T10:25:57.176Z</time></trkpt><trkpt lat="43.5234418" lon="11.268999"><ele>460.4</ele><time>2026-04-19T10:25:58.184Z</time></trkpt><trkpt lat="43.5233669" lon="11.2688967"><ele>461.79999999999995</ele><time>2026-04-19T10:25:59.178Z</time></trkpt><trkpt lat="43.5233088" lon="11.26879"><ele>463.20000000000005</ele><time>2026-04-19T10:26:00.173Z</time></trkpt><trkpt lat="43.5232592" lon="11.2686758"><ele>464.6</ele><time>2026-04-19T10:26:01.171Z</time></trkpt><trkpt lat="43.523217" lon="11.268574"><ele>466.0</ele><time>2026-04-19T10:26:02.183Z</time></trkpt><trkpt lat="43.5231345" lon="11.268456"><ele>466.0</ele><time>2026-04-19T10:26:04.165Z</time></trkpt><trkpt lat="43.5230682" lon="11.2684114"><ele>466.0</ele><time>2026-04-19T10:26:05.164Z</time></trkpt><trkpt lat="43.5229742" lon="11.2683761"><ele>466.0</ele><time>2026-04-19T10:26:06.18Z</time></trkpt><trkpt lat="43.5228786" lon="11.2683357"><ele>466.0</ele><time>2026-04-19T10:26:07.155Z</time></trkpt><trkpt lat="43.5227824" lon="11.2682581"><ele>466.0</ele><time>2026-04-19T10:26:08.167Z</time></trkpt><trkpt lat="43.522693" lon="11.2681567"><ele>464.75</ele><time>2026-04-19T10:26:09.177Z</time></trkpt><trkpt lat="43.522595" lon="11.2680671"><ele>463.5</ele><time>2026-04-19T10:26:10.179Z</time></trkpt><trkpt lat="43.5224782" lon="11.2679925"><ele>462.25</ele><time>2026-04-19T10:26:11.174Z</time></trkpt><trkpt lat="43.5223495" lon="11.2679233"><ele>461.0</ele><time>2026-04-19T10:26:12.168Z</time></trkpt><trkpt lat="43.5222241" lon="11.267868"><ele>461.0</ele><time>2026-04-19T10:26:13.173Z</time></trkpt><trkpt lat="43.5221189" lon="11.2678233"><ele>461.0</ele><time>2026-04-19T10:26:14.181Z</time></trkpt><trkpt lat="43.5220356" lon="11.2677712"><ele>461.0</ele><time>2026-04-19T10:26:15.182Z</time></trkpt><trkpt lat="43.5219696" lon="11.2677043"><ele>461.0</ele><time>2026-04-19T10:26:16.181Z</time></trkpt><trkpt lat="43.5218685" lon="11.2676131"><ele>461.0</ele><time>2026-04-19T10:26:18.182Z</time></trkpt><trkpt lat="43.5217445" lon="11.2675863"><ele>462.0</ele><time>2026-04-19T10:26:20.167Z</time></trkpt><trkpt lat="43.5216689" lon="11.2675977"><ele>463.0</ele><time>2026-04-19T10:26:21.173Z</time></trkpt><trkpt lat="43.5215817" lon="11.2676214"><ele>464.0</ele><time>2026-04-19T10:26:22.175Z</time></trkpt><trkpt lat="43.5215045" lon="11.2676665"><ele>465.0</ele><time>2026-04-19T10:26:23.193Z</time></trkpt><trkpt lat="43.5214229" lon="11.2677821"><ele>466.0</ele><time>2026-04-19T10:26:24.178Z</time></trkpt><trkpt lat="43.5213592" lon="11.2679169"><ele>466.0</ele><time>2026-04-19T10:26:25.172Z</time></trkpt><trkpt lat="43.5212952" lon="11.2680475"><ele>466.0</ele><time>2026-04-19T10:26:26.169Z</time></trkpt><trkpt lat="43.5212322" lon="11.2681799"><ele>466.0</ele><time>2026-04-19T10:26:27.175Z</time></trkpt><trkpt lat="43.5211708" lon="11.2683145"><ele>466.0</ele><time>2026-04-19T10:26:28.173Z</time></trkpt><trkpt lat="43.5211302" lon="11.2684164"><ele>466.0</ele><time>2026-04-19T10:26:29.169Z</time></trkpt><trkpt lat="43.5210713" lon="11.2685165"><ele>461.6</ele><time>2026-04-19T10:26:31.174Z</time></trkpt><trkpt lat="43.5209829" lon="11.2685157"><ele>457.20000000000005</ele><time>2026-04-19T10:26:33.171Z</time></trkpt><trkpt lat="43.5208951" lon="11.2684694"><ele>452.79999999999995</ele><time>2026-04-19T10:26:34.175Z</time></trkpt><trkpt lat="43.5207955" lon="11.2684226"><ele>448.4</ele><time>2026-04-19T10:26:35.179Z</time></trkpt><trkpt lat="43.5206798" lon="11.2683686"><ele>444.0</ele><time>2026-04-19T10:26:36.166Z</time></trkpt><trkpt lat="43.5205585" lon="11.2683144"><ele>444.0</ele><time>2026-04-19T10:26:37.164Z</time></trkpt><trkpt lat="43.5204348" lon="11.2682658"><ele>444.0</ele><time>2026-04-19T10:26:38.168Z</time></trkpt><trkpt lat="43.52032" lon="11.2682171"><ele>444.0</ele><time>2026-04-19T10:26:39.16Z</time></trkpt><trkpt lat="43.5202047" lon="11.2681663"><ele>444.0</ele><time>2026-04-19T10:26:40.155Z</time></trkpt><trkpt lat="43.5200907" lon="11.2681164"><ele>444.0</ele><time>2026-04-19T10:26:41.168Z</time></trkpt><trkpt lat="43.5199797" lon="11.2680697"><ele>444.0</ele><time>2026-04-19T10:26:42.169Z</time></trkpt><trkpt lat="43.5198788" lon="11.2680358"><ele>444.0</ele><time>2026-04-19T10:26:43.162Z</time></trkpt><trkpt lat="43.5197789" lon="11.2680123"><ele>444.0</ele><time>2026-04-19T10:26:44.181Z</time></trkpt><trkpt lat="43.5196747" lon="11.2680089"><ele>444.0</ele><time>2026-04-19T10:26:45.179Z</time></trkpt><trkpt lat="43.5195754" lon="11.268036"><ele>444.0</ele><time>2026-04-19T10:26:46.19Z</time></trkpt><trkpt lat="43.5194802" lon="11.2680594"><ele>444.0</ele><time>2026-04-19T10:26:47.173Z</time></trkpt><trkpt lat="43.5193921" lon="11.2680549"><ele>444.0</ele><time>2026-04-19T10:26:48.147Z</time></trkpt><trkpt lat="43.5193076" lon="11.268023"><ele>444.0</ele><time>2026-04-19T10:26:49.175Z</time></trkpt><trkpt lat="43.5192325" lon="11.2679535"><ele>444.0</ele><time>2026-04-19T10:26:50.177Z</time></trkpt><trkpt lat="43.519166" lon="11.2678463"><ele>444.0</ele><time>2026-04-19T10:26:51.172Z</time></trkpt><trkpt lat="43.5190992" lon="11.2677168"><ele>444.0</ele><time>2026-04-19T10:26:52.17Z</time></trkpt><trkpt lat="43.5190339" lon="11.26757"><ele>444.0</ele><time>2026-04-19T10:26:53.168Z</time></trkpt><trkpt lat="43.5189695" lon="11.2674168"><ele>444.0</ele><time>2026-04-19T10:26:54.172Z</time></trkpt><trkpt lat="43.5189006" lon="11.2672643"><ele>444.75</ele><time>2026-04-19T10:26:55.165Z</time></trkpt><trkpt lat="43.5188319" lon="11.267106"><ele>445.5</ele><time>2026-04-19T10:26:56.168Z</time></trkpt><trkpt lat="43.5187568" lon="11.2669402"><ele>446.25</ele><time>2026-04-19T10:26:57.181Z</time></trkpt><trkpt lat="43.5186795" lon="11.2667756"><ele>447.0</ele><time>2026-04-19T10:26:58.172Z</time></trkpt><trkpt lat="43.5186022" lon="11.2666159"><ele>447.0</ele><time>2026-04-19T10:26:59.17Z</time></trkpt><trkpt lat="43.5185243" lon="11.2664543"><ele>447.0</ele><time>2026-04-19T10:27:00.161Z</time></trkpt><trkpt lat="43.5184531" lon="11.2662958"><ele>447.0</ele><time>2026-04-19T10:27:01.169Z</time></trkpt><trkpt lat="43.5183816" lon="11.2661554"><ele>447.0</ele><time>2026-04-19T10:27:02.167Z</time></trkpt><trkpt lat="43.518314" lon="11.266033"><ele>448.3333333333333</ele><time>2026-04-19T10:27:03.169Z</time></trkpt><trkpt lat="43.5182568" lon="11.2659182"><ele>449.66666666666663</ele><time>2026-04-19T10:27:04.159Z</time></trkpt><trkpt lat="43.5182166" lon="11.2658135"><ele>451.0</ele><time>2026-04-19T10:27:05.171Z</time></trkpt><trkpt lat="43.5181824" lon="11.2657099"><ele>452.3333333333333</ele><time>2026-04-19T10:27:06.171Z</time></trkpt><trkpt lat="43.5181589" lon="11.2656068"><ele>453.66666666666663</ele><time>2026-04-19T10:27:07.17Z</time></trkpt><trkpt lat="43.5181408" lon="11.2654868"><ele>455.0</ele><time>2026-04-19T10:27:08.166Z</time></trkpt><trkpt lat="43.5181265" lon="11.265341"><ele>456.5</ele><time>2026-04-19T10:27:09.178Z</time></trkpt><trkpt lat="43.5181071" lon="11.2651772"><ele>458.0</ele><time>2026-04-19T10:27:10.176Z</time></trkpt><trkpt lat="43.5180958" lon="11.2650083"><ele>459.5</ele><time>2026-04-19T10:27:11.16Z</time></trkpt><trkpt lat="43.518089" lon="11.2648288"><ele>461.0</ele><time>2026-04-19T10:27:12.172Z</time></trkpt><trkpt lat="43.5180887" lon="11.2646469"><ele>461.25</ele><time>2026-04-19T10:27:13.177Z</time></trkpt><trkpt lat="43.5180812" lon="11.2644723"><ele>461.5</ele><time>2026-04-19T10:27:14.183Z</time></trkpt><trkpt lat="43.518063" lon="11.2642947"><ele>461.75</ele><time>2026-04-19T10:27:15.152Z</time></trkpt><trkpt lat="43.5180256" lon="11.2641205"><ele>462.0</ele><time>2026-04-19T10:27:16.183Z</time></trkpt><trkpt lat="43.5179747" lon="11.2639491"><ele>462.20000000000005</ele><time>2026-04-19T10:27:17.171Z</time></trkpt><trkpt lat="43.517915" lon="11.2637928"><ele>462.40000000000003</ele><time>2026-04-19T10:27:18.17Z</time></trkpt><trkpt lat="43.51785" lon="11.263663"><ele>462.59999999999997</ele><time>2026-04-19T10:27:19.164Z</time></trkpt><trkpt lat="43.5177723" lon="11.263562"><ele>462.79999999999995</ele><time>2026-04-19T10:27:20.167Z</time></trkpt><trkpt lat="43.5176928" lon="11.2634893"><ele>463.0</ele><time>2026-04-19T10:27:21.161Z</time></trkpt><trkpt lat="43.517609" lon="11.2634533"><ele>463.0</ele><time>2026-04-19T10:27:22.166Z</time></trkpt><trkpt lat="43.5175187" lon="11.2634354"><ele>462.99999999999994</ele><time>2026-04-19T10:27:23.168Z</time></trkpt><trkpt lat="43.5174242" lon="11.2634427"><ele>462.99999999999994</ele><time>2026-04-19T10:27:24.182Z</time></trkpt><trkpt lat="43.5173257" lon="11.2634836"><ele>463.0</ele><time>2026-04-19T10:27:25.174Z</time></trkpt><trkpt lat="43.5172235" lon="11.2635362"><ele>463.0</ele><time>2026-04-19T10:27:26.182Z</time></trkpt><trkpt lat="43.5171192" lon="11.2635776"><ele>461.2</ele><time>2026-04-19T10:27:27.153Z</time></trkpt><trkpt lat="43.5170165" lon="11.2635888"><ele>459.4</ele><time>2026-04-19T10:27:28.171Z</time></trkpt><trkpt lat="43.5169041" lon="11.2635715"><ele>457.59999999999997</ele><time>2026-04-19T10:27:29.167Z</time></trkpt><trkpt lat="43.5167913" lon="11.2635563"><ele>455.79999999999995</ele><time>2026-04-19T10:27:30.175Z</time></trkpt><trkpt lat="43.5166862" lon="11.2635522"><ele>454.0</ele><time>2026-04-19T10:27:31.175Z</time></trkpt><trkpt lat="43.5165875" lon="11.2635366"><ele>454.0</ele><time>2026-04-19T10:27:32.178Z</time></trkpt><trkpt lat="43.516509" lon="11.2635092"><ele>454.0</ele><time>2026-04-19T10:27:33.176Z</time></trkpt><trkpt lat="43.5164376" lon="11.2634732"><ele>454.0</ele><time>2026-04-19T10:27:34.174Z</time></trkpt><trkpt lat="43.5163813" lon="11.2634301"><ele>454.0</ele><time>2026-04-19T10:27:35.18Z</time></trkpt><trkpt lat="43.5162869" lon="11.2633185"><ele>454.0</ele><time>2026-04-19T10:27:37.175Z</time></trkpt><trkpt lat="43.5161871" lon="11.2632729"><ele>452.6</ele><time>2026-04-19T10:27:39.176Z</time></trkpt><trkpt lat="43.5160578" lon="11.2632917"><ele>451.2</ele><time>2026-04-19T10:27:41.171Z</time></trkpt><trkpt lat="43.5159914" lon="11.2633128"><ele>449.80000000000007</ele><time>2026-04-19T10:27:42.182Z</time></trkpt><trkpt lat="43.5159126" lon="11.2633527"><ele>448.40000000000003</ele><time>2026-04-19T10:27:43.179Z</time></trkpt><trkpt lat="43.5158419" lon="11.2634225"><ele>447.0</ele><time>2026-04-19T10:27:44.168Z</time></trkpt><trkpt lat="43.5157747" lon="11.2635165"><ele>447.0</ele><time>2026-04-19T10:27:45.148Z</time></trkpt><trkpt lat="43.515704" lon="11.2636273"><ele>447.00000000000006</ele><time>2026-04-19T10:27:46.166Z</time></trkpt><trkpt lat="43.5156389" lon="11.2637538"><ele>447.00000000000006</ele><time>2026-04-19T10:27:47.162Z</time></trkpt><trkpt lat="43.5155761" lon="11.2638679"><ele>447.0</ele><time>2026-04-19T10:27:48.165Z</time></trkpt><trkpt lat="43.515508" lon="11.2639539"><ele>447.0</ele><time>2026-04-19T10:27:49.178Z</time></trkpt><trkpt lat="43.5154208" lon="11.2640197"><ele>448.6</ele><time>2026-04-19T10:27:50.168Z</time></trkpt><trkpt lat="43.5153276" lon="11.2640837"><ele>450.20000000000005</ele><time>2026-04-19T10:27:51.169Z</time></trkpt><trkpt lat="43.5152318" lon="11.2641399"><ele>451.8</ele><time>2026-04-19T10:27:52.172Z</time></trkpt><trkpt lat="43.5151327" lon="11.2641972"><ele>453.4</ele><time>2026-04-19T10:27:53.165Z</time></trkpt><trkpt lat="43.5150332" lon="11.2642631"><ele>455.0</ele><time>2026-04-19T10:27:54.168Z</time></trkpt><trkpt lat="43.5149351" lon="11.264332"><ele>455.0</ele><time>2026-04-19T10:27:55.17Z</time></trkpt><trkpt lat="43.5148333" lon="11.2643964"><ele>455.0</ele><time>2026-04-19T10:27:56.16Z</time></trkpt><trkpt lat="43.5147419" lon="11.2644491"><ele>455.0</ele><time>2026-04-19T10:27:57.174Z</time></trkpt><trkpt lat="43.5146522" lon="11.2645002"><ele>455.0</ele><time>2026-04-19T10:27:58.179Z</time></trkpt><trkpt lat="43.51458" lon="11.2645543"><ele>455.0</ele><time>2026-04-19T10:27:59.166Z</time></trkpt><trkpt lat="43.5145266" lon="11.2646113"><ele>456.66666666666663</ele><time>2026-04-19T10:28:00.169Z</time></trkpt><trkpt lat="43.5144565" lon="11.2647332"><ele>458.3333333333333</ele><time>2026-04-19T10:28:02.182Z</time></trkpt><trkpt lat="43.5144248" lon="11.2648133"><ele>460.0</ele><time>2026-04-19T10:28:03.171Z</time></trkpt><trkpt lat="43.5143953" lon="11.2648908"><ele>461.66666666666663</ele><time>2026-04-19T10:28:04.176Z</time></trkpt><trkpt lat="43.5143548" lon="11.2649699"><ele>463.3333333333333</ele><time>2026-04-19T10:28:05.171Z</time></trkpt><trkpt lat="43.5143044" lon="11.2650621"><ele>465.0</ele><time>2026-04-19T10:28:06.176Z</time></trkpt><trkpt lat="43.5142428" lon="11.2651584"><ele>465.0</ele><time>2026-04-19T10:28:07.172Z</time></trkpt><trkpt lat="43.5141763" lon="11.2652417"><ele>465.0</ele><time>2026-04-19T10:28:08.155Z</time></trkpt><trkpt lat="43.5141074" lon="11.2653244"><ele>465.0</ele><time>2026-04-19T10:28:09.178Z</time></trkpt><trkpt lat="43.5140267" lon="11.2654135"><ele>465.0</ele><time>2026-04-19T10:28:10.175Z</time></trkpt><trkpt lat="43.5139436" lon="11.2655084"><ele>465.0</ele><time>2026-04-19T10:28:11.178Z</time></trkpt><trkpt lat="43.5138664" lon="11.2655977"><ele>464.0</ele><time>2026-04-19T10:28:12.168Z</time></trkpt><trkpt lat="43.5137983" lon="11.2656852"><ele>463.0</ele><time>2026-04-19T10:28:13.15Z</time></trkpt><trkpt lat="43.5137479" lon="11.2657923"><ele>462.0</ele><time>2026-04-19T10:28:14.179Z</time></trkpt><trkpt lat="43.5137203" lon="11.265928"><ele>461.0</ele><time>2026-04-19T10:28:15.175Z</time></trkpt><trkpt lat="43.5137014" lon="11.266078"><ele>460.0</ele><time>2026-04-19T10:28:16.171Z</time></trkpt><trkpt lat="43.5136853" lon="11.2662371"><ele>465.5</ele><time>2026-04-19T10:28:17.154Z</time></trkpt><trkpt lat="43.5136832" lon="11.2663934"><ele>471.0</ele><time>2026-04-19T10:28:18.178Z</time></trkpt><trkpt lat="43.5136776" lon="11.266565"><ele>476.5</ele><time>2026-04-19T10:28:19.177Z</time></trkpt><trkpt lat="43.5136723" lon="11.2667327"><ele>482.0</ele><time>2026-04-19T10:28:20.162Z</time></trkpt><trkpt lat="43.5136651" lon="11.266891"><ele>481.99999999999994</ele><time>2026-04-19T10:28:21.167Z</time></trkpt><trkpt lat="43.5136541" lon="11.2670308"><ele>482.0</ele><time>2026-04-19T10:28:22.167Z</time></trkpt><trkpt lat="43.5136339" lon="11.2671604"><ele>482.0</ele><time>2026-04-19T10:28:23.166Z</time></trkpt><trkpt lat="43.5135945" lon="11.2672447"><ele>482.0</ele><time>2026-04-19T10:28:24.183Z</time></trkpt><trkpt lat="43.5135351" lon="11.2673012"><ele>481.99999999999994</ele><time>2026-04-19T10:28:25.178Z</time></trkpt><trkpt lat="43.5134652" lon="11.267339"><ele>482.0</ele><time>2026-04-19T10:28:26.156Z</time></trkpt><trkpt lat="43.513377" lon="11.2673655"><ele>483.5</ele><time>2026-04-19T10:28:27.172Z</time></trkpt><trkpt lat="43.5132494" lon="11.2673885"><ele>485.0</ele><time>2026-04-19T10:28:28.154Z</time></trkpt><trkpt lat="43.5131034" lon="11.267428"><ele>486.5</ele><time>2026-04-19T10:28:29.171Z</time></trkpt><trkpt lat="43.5129653" lon="11.2674738"><ele>488.0</ele><time>2026-04-19T10:28:30.172Z</time></trkpt><trkpt lat="43.5128566" lon="11.2675094"><ele>488.0</ele><time>2026-04-19T10:28:31.175Z</time></trkpt><trkpt lat="43.5127468" lon="11.2675343"><ele>487.99999999999994</ele><time>2026-04-19T10:28:32.171Z</time></trkpt><trkpt lat="43.5126351" lon="11.2675399"><ele>487.99999999999994</ele><time>2026-04-19T10:28:33.165Z</time></trkpt><trkpt lat="43.512526" lon="11.2675333"><ele>488.0</ele><time>2026-04-19T10:28:34.151Z</time></trkpt><trkpt lat="43.5124104" lon="11.2675155"><ele>488.0</ele><time>2026-04-19T10:28:35.171Z</time></trkpt><trkpt lat="43.5122917" lon="11.2675012"><ele>488.0</ele><time>2026-04-19T10:28:36.174Z</time></trkpt><trkpt lat="43.5121802" lon="11.2674769"><ele>487.99999999999994</ele><time>2026-04-19T10:28:37.151Z</time></trkpt><trkpt lat="43.5120783" lon="11.2674351"><ele>487.99999999999994</ele><time>2026-04-19T10:28:38.169Z</time></trkpt><trkpt lat="43.5119731" lon="11.2673799"><ele>488.0</ele><time>2026-04-19T10:28:39.157Z</time></trkpt><trkpt lat="43.5118857" lon="11.2673144"><ele>488.0</ele><time>2026-04-19T10:28:40.158Z</time></trkpt><trkpt lat="43.511815" lon="11.2672238"><ele>490.0</ele><time>2026-04-19T10:28:41.173Z</time></trkpt><trkpt lat="43.5117448" lon="11.2671122"><ele>492.0</ele><time>2026-04-19T10:28:42.167Z</time></trkpt><trkpt lat="43.5116736" lon="11.266974"><ele>494.0</ele><time>2026-04-19T10:28:43.179Z</time></trkpt><trkpt lat="43.5115922" lon="11.2668253"><ele>496.0</ele><time>2026-04-19T10:28:44.169Z</time></trkpt><trkpt lat="43.5115135" lon="11.2666653"><ele>496.0</ele><time>2026-04-19T10:28:45.166Z</time></trkpt><trkpt lat="43.511444" lon="11.2665057"><ele>496.0</ele><time>2026-04-19T10:28:46.173Z</time></trkpt><trkpt lat="43.5113817" lon="11.2663581"><ele>496.0</ele><time>2026-04-19T10:28:47.171Z</time></trkpt><trkpt lat="43.5113281" lon="11.2662221"><ele>496.0</ele><time>2026-04-19T10:28:48.17Z</time></trkpt><trkpt lat="43.5112829" lon="11.2661036"><ele>496.20000000000005</ele><time>2026-04-19T10:28:49.171Z</time></trkpt><trkpt lat="43.5112497" lon="11.2659803"><ele>496.40000000000003</ele><time>2026-04-19T10:28:50.177Z</time></trkpt><trkpt lat="43.5111942" lon="11.2658686"><ele>496.6</ele><time>2026-04-19T10:28:51.156Z</time></trkpt><trkpt lat="43.5111386" lon="11.2657602"><ele>496.8</ele><time>2026-04-19T10:28:52.176Z</time></trkpt><trkpt lat="43.5110773" lon="11.2656695"><ele>497.0</ele><time>2026-04-19T10:28:53.167Z</time></trkpt><trkpt lat="43.5109996" lon="11.2655471"><ele>496.99999999999994</ele><time>2026-04-19T10:28:55.155Z</time></trkpt><trkpt lat="43.5108935" lon="11.2655317"><ele>497.0</ele><time>2026-04-19T10:28:57.173Z</time></trkpt><trkpt lat="43.510826" lon="11.2655588"><ele>497.0</ele><time>2026-04-19T10:28:58.165Z</time></trkpt><trkpt lat="43.510762" lon="11.2656017"><ele>497.0</ele><time>2026-04-19T10:28:59.171Z</time></trkpt><trkpt lat="43.5106979" lon="11.265655"><ele>496.99999999999994</ele><time>2026-04-19T10:29:00.17Z</time></trkpt><trkpt lat="43.5106403" lon="11.2657209"><ele>497.0</ele><time>2026-04-19T10:29:01.17Z</time></trkpt><trkpt lat="43.5105817" lon="11.2657942"><ele>496.99999999999994</ele><time>2026-04-19T10:29:02.171Z</time></trkpt><trkpt lat="43.5105208" lon="11.2658709"><ele>497.0</ele><time>2026-04-19T10:29:03.175Z</time></trkpt><trkpt lat="43.5104503" lon="11.2659377"><ele>497.0</ele><time>2026-04-19T10:29:04.175Z</time></trkpt><trkpt lat="43.5103814" lon="11.2660015"><ele>497.0</ele><time>2026-04-19T10:29:05.172Z</time></trkpt><trkpt lat="43.510324" lon="11.2660631"><ele>496.99999999999994</ele><time>2026-04-19T10:29:06.17Z</time></trkpt><trkpt lat="43.5102098" lon="11.2661103"><ele>497.0</ele><time>2026-04-19T10:29:08.168Z</time></trkpt><trkpt lat="43.5101338" lon="11.2661239"><ele>499.49999999999994</ele><time>2026-04-19T10:29:09.16Z</time></trkpt><trkpt lat="43.5100457" lon="11.2661242"><ele>502.0</ele><time>2026-04-19T10:29:10.173Z</time></trkpt><trkpt lat="43.5099596" lon="11.2660988"><ele>504.5</ele><time>2026-04-19T10:29:11.173Z</time></trkpt><trkpt lat="43.5098791" lon="11.2660467"><ele>507.0</ele><time>2026-04-19T10:29:12.166Z</time></trkpt><trkpt lat="43.5098133" lon="11.2659664"><ele>509.49999999999994</ele><time>2026-04-19T10:29:13.168Z</time></trkpt><trkpt lat="43.5097838" lon="11.265866"><ele>512.0</ele><time>2026-04-19T10:29:14.15Z</time></trkpt><trkpt lat="43.509765" lon="11.2657295"><ele>513.8000000000001</ele><time>2026-04-19T10:29:15.176Z</time></trkpt><trkpt lat="43.5097506" lon="11.265584"><ele>515.6</ele><time>2026-04-19T10:29:16.177Z</time></trkpt><trkpt lat="43.5097189" lon="11.2654396"><ele>517.4000000000001</ele><time>2026-04-19T10:29:17.173Z</time></trkpt><trkpt lat="43.509692" lon="11.2653102"><ele>519.2</ele><time>2026-04-19T10:29:18.173Z</time></trkpt><trkpt lat="43.5096849" lon="11.265211"><ele>521.0</ele><time>2026-04-19T10:29:19.179Z</time></trkpt><trkpt lat="43.5097192" lon="11.2650668"><ele>521.0</ele><time>2026-04-19T10:29:21.186Z</time></trkpt><trkpt lat="43.5097701" lon="11.2650136"><ele>521.0</ele><time>2026-04-19T10:29:22.171Z</time></trkpt><trkpt lat="43.5098275" lon="11.2649591"><ele>521.0</ele><time>2026-04-19T10:29:23.174Z</time></trkpt><trkpt lat="43.5098473" lon="11.2648637"><ele>521.0</ele><time>2026-04-19T10:29:24.178Z</time></trkpt><trkpt lat="43.5098386" lon="11.2647369"><ele>521.0</ele><time>2026-04-19T10:29:25.161Z</time></trkpt><trkpt lat="43.5098137" lon="11.2646115"><ele>521.0</ele><time>2026-04-19T10:29:26.171Z</time></trkpt><trkpt lat="43.5097885" lon="11.2644689"><ele>522.0</ele><time>2026-04-19T10:29:27.175Z</time></trkpt><trkpt lat="43.5097697" lon="11.2643357"><ele>523.0</ele><time>2026-04-19T10:29:28.178Z</time></trkpt><trkpt lat="43.5097564" lon="11.2642056"><ele>524.0</ele><time>2026-04-19T10:29:29.173Z</time></trkpt><trkpt lat="43.5097332" lon="11.2640728"><ele>525.0</ele><time>2026-04-19T10:29:30.174Z</time></trkpt><trkpt lat="43.509702" lon="11.263935"><ele>526.0</ele><time>2026-04-19T10:29:31.157Z</time></trkpt><trkpt lat="43.5096563" lon="11.2637959"><ele>527.0</ele><time>2026-04-19T10:29:32.188Z</time></trkpt><trkpt lat="43.5096102" lon="11.2636669"><ele>528.0</ele><time>2026-04-19T10:29:33.176Z</time></trkpt><trkpt lat="43.5095575" lon="11.2635203"><ele>529.0</ele><time>2026-04-19T10:29:34.168Z</time></trkpt><trkpt lat="43.5095089" lon="11.2633829"><ele>530.0</ele><time>2026-04-19T10:29:35.173Z</time></trkpt><trkpt lat="43.5094646" lon="11.2632471"><ele>531.0</ele><time>2026-04-19T10:29:36.177Z</time></trkpt><trkpt lat="43.5094274" lon="11.2631122"><ele>533.0</ele><time>2026-04-19T10:29:37.158Z</time></trkpt><trkpt lat="43.5093833" lon="11.2629845"><ele>535.0</ele><time>2026-04-19T10:29:38.172Z</time></trkpt><trkpt lat="43.509322" lon="11.2628661"><ele>537.0</ele><time>2026-04-19T10:29:39.173Z</time></trkpt><trkpt lat="43.5092471" lon="11.2627588"><ele>539.0</ele><time>2026-04-19T10:29:40.18Z</time></trkpt><trkpt lat="43.509174" lon="11.2626609"><ele>541.0</ele><time>2026-04-19T10:29:41.171Z</time></trkpt><trkpt lat="43.509119" lon="11.2625634"><ele>541.0</ele><time>2026-04-19T10:29:42.175Z</time></trkpt><trkpt lat="43.5090735" lon="11.2624672"><ele>541.0</ele><time>2026-04-19T10:29:43.183Z</time></trkpt><trkpt lat="43.5090253" lon="11.2623834"><ele>541.0</ele><time>2026-04-19T10:29:44.152Z</time></trkpt><trkpt lat="43.5089832" lon="11.2623046"><ele>541.0</ele><time>2026-04-19T10:29:45.178Z</time></trkpt><trkpt lat="43.5089377" lon="11.2622262"><ele>541.0</ele><time>2026-04-19T10:29:46.17Z</time></trkpt><trkpt lat="43.5088691" lon="11.2620915"><ele>541.0</ele><time>2026-04-19T10:29:48.179Z</time></trkpt><trkpt lat="43.5088013" lon="11.2619834"><ele>541.2</ele><time>2026-04-19T10:29:50.177Z</time></trkpt><trkpt lat="43.5087377" lon="11.2618699"><ele>541.4000000000001</ele><time>2026-04-19T10:29:52.17Z</time></trkpt><trkpt lat="43.5086559" lon="11.2617372"><ele>541.6</ele><time>2026-04-19T10:29:54.162Z</time></trkpt><trkpt lat="43.5086121" lon="11.2616555"><ele>541.8000000000001</ele><time>2026-04-19T10:29:55.156Z</time></trkpt><trkpt lat="43.5085776" lon="11.2615574"><ele>542.0</ele><time>2026-04-19T10:29:56.174Z</time></trkpt><trkpt lat="43.508537" lon="11.2614457"><ele>542.0</ele><time>2026-04-19T10:29:57.173Z</time></trkpt><trkpt lat="43.5084892" lon="11.2613245"><ele>542.0</ele><time>2026-04-19T10:29:58.168Z</time></trkpt><trkpt lat="43.5084367" lon="11.2612018"><ele>542.0</ele><time>2026-04-19T10:29:59.178Z</time></trkpt><trkpt lat="43.5083629" lon="11.2610866"><ele>542.0</ele><time>2026-04-19T10:30:00.174Z</time></trkpt><trkpt lat="43.5082832" lon="11.2609769"><ele>542.0</ele><time>2026-04-19T10:30:01.172Z</time></trkpt><trkpt lat="43.5082023" lon="11.260872"><ele>542.0</ele><time>2026-04-19T10:30:02.178Z</time></trkpt><trkpt lat="43.5081158" lon="11.2607756"><ele>542.0</ele><time>2026-04-19T10:30:03.178Z</time></trkpt><trkpt lat="43.5080319" lon="11.2606946"><ele>542.0</ele><time>2026-04-19T10:30:04.173Z</time></trkpt><trkpt lat="43.5079497" lon="11.2606322"><ele>542.0</ele><time>2026-04-19T10:30:05.173Z</time></trkpt><trkpt lat="43.5078704" lon="11.2605862"><ele>542.0</ele><time>2026-04-19T10:30:06.17Z</time></trkpt><trkpt lat="43.5077914" lon="11.2605458"><ele>541.0</ele><time>2026-04-19T10:30:07.17Z</time></trkpt><trkpt lat="43.507721" lon="11.2605139"><ele>540.0</ele><time>2026-04-19T10:30:08.17Z</time></trkpt><trkpt lat="43.5076507" lon="11.2604799"><ele>539.0</ele><time>2026-04-19T10:30:09.166Z</time></trkpt><trkpt lat="43.5075765" lon="11.2604495"><ele>538.0</ele><time>2026-04-19T10:30:10.171Z</time></trkpt><trkpt lat="43.5075026" lon="11.2604138"><ele>537.0</ele><time>2026-04-19T10:30:11.176Z</time></trkpt><trkpt lat="43.5074296" lon="11.2603734"><ele>536.0</ele><time>2026-04-19T10:30:12.168Z</time></trkpt><trkpt lat="43.507349" lon="11.2603329"><ele>536.0</ele><time>2026-04-19T10:30:13.173Z</time></trkpt><trkpt lat="43.5072633" lon="11.2602962"><ele>536.0</ele><time>2026-04-19T10:30:14.167Z</time></trkpt><trkpt lat="43.5071732" lon="11.2602659"><ele>536.0</ele><time>2026-04-19T10:30:15.174Z</time></trkpt><trkpt lat="43.5070711" lon="11.260224"><ele>536.0</ele><time>2026-04-19T10:30:16.163Z</time></trkpt><trkpt lat="43.5069629" lon="11.2601742"><ele>536.0</ele><time>2026-04-19T10:30:17.172Z</time></trkpt><trkpt lat="43.5068499" lon="11.2601149"><ele>536.75</ele><time>2026-04-19T10:30:18.17Z</time></trkpt><trkpt lat="43.5067295" lon="11.2600481"><ele>537.5</ele><time>2026-04-19T10:30:19.152Z</time></trkpt><trkpt lat="43.5066226" lon="11.259976"><ele>538.25</ele><time>2026-04-19T10:30:20.166Z</time></trkpt><trkpt lat="43.5065215" lon="11.259907"><ele>539.0</ele><time>2026-04-19T10:30:21.179Z</time></trkpt><trkpt lat="43.5064355" lon="11.2598325"><ele>538.6</ele><time>2026-04-19T10:30:22.175Z</time></trkpt><trkpt lat="43.5063585" lon="11.259741"><ele>538.2</ele><time>2026-04-19T10:30:23.171Z</time></trkpt><trkpt lat="43.5062903" lon="11.2596465"><ele>537.8000000000001</ele><time>2026-04-19T10:30:24.168Z</time></trkpt><trkpt lat="43.5062348" lon="11.2595539"><ele>537.4</ele><time>2026-04-19T10:30:25.175Z</time></trkpt><trkpt lat="43.5061607" lon="11.2594444"><ele>537.0</ele><time>2026-04-19T10:30:27.18Z</time></trkpt><trkpt lat="43.5061028" lon="11.2593765"><ele>538.6</ele><time>2026-04-19T10:30:29.178Z</time></trkpt><trkpt lat="43.5060355" lon="11.2592742"><ele>540.2</ele><time>2026-04-19T10:30:32.176Z</time></trkpt><trkpt lat="43.5059533" lon="11.2591488"><ele>541.8</ele><time>2026-04-19T10:30:34.171Z</time></trkpt><trkpt lat="43.5058919" lon="11.2590763"><ele>543.4</ele><time>2026-04-19T10:30:35.178Z</time></trkpt><trkpt lat="43.5058194" lon="11.2590107"><ele>545.0</ele><time>2026-04-19T10:30:36.164Z</time></trkpt><trkpt lat="43.5057238" lon="11.2589591"><ele>544.8</ele><time>2026-04-19T10:30:37.173Z</time></trkpt><trkpt lat="43.5056171" lon="11.2589195"><ele>544.6</ele><time>2026-04-19T10:30:38.18Z</time></trkpt><trkpt lat="43.5055143" lon="11.2588903"><ele>544.4</ele><time>2026-04-19T10:30:39.175Z</time></trkpt><trkpt lat="43.5054208" lon="11.2588445"><ele>544.2</ele><time>2026-04-19T10:30:40.181Z</time></trkpt><trkpt lat="43.5053267" lon="11.2587699"><ele>544.0</ele><time>2026-04-19T10:30:41.168Z</time></trkpt><trkpt lat="43.5052357" lon="11.258687"><ele>544.0</ele><time>2026-04-19T10:30:42.168Z</time></trkpt><trkpt lat="43.5051426" lon="11.2586329"><ele>544.0</ele><time>2026-04-19T10:30:43.169Z</time></trkpt><trkpt lat="43.5050561" lon="11.2586029"><ele>544.0</ele><time>2026-04-19T10:30:44.169Z</time></trkpt><trkpt lat="43.5049557" lon="11.2585872"><ele>544.0</ele><time>2026-04-19T10:30:45.174Z</time></trkpt><trkpt lat="43.5048555" lon="11.2585854"><ele>544.0</ele><time>2026-04-19T10:30:46.167Z</time></trkpt><trkpt lat="43.5047655" lon="11.2585849"><ele>544.0</ele><time>2026-04-19T10:30:47.175Z</time></trkpt><trkpt lat="43.5046828" lon="11.2585646"><ele>544.0</ele><time>2026-04-19T10:30:48.179Z</time></trkpt><trkpt lat="43.5045965" lon="11.2585353"><ele>544.0</ele><time>2026-04-19T10:30:49.174Z</time></trkpt><trkpt lat="43.5045094" lon="11.258513"><ele>544.0</ele><time>2026-04-19T10:30:50.155Z</time></trkpt><trkpt lat="43.5044269" lon="11.2585072"><ele>544.0</ele><time>2026-04-19T10:30:51.162Z</time></trkpt><trkpt lat="43.5043393" lon="11.2585266"><ele>544.0</ele><time>2026-04-19T10:30:52.181Z</time></trkpt><trkpt lat="43.504258" lon="11.2585599"><ele>543.3333333333334</ele><time>2026-04-19T10:30:53.174Z</time></trkpt><trkpt lat="43.5041796" lon="11.2585835"><ele>542.6666666666667</ele><time>2026-04-19T10:30:54.173Z</time></trkpt><trkpt lat="43.5041112" lon="11.2585986"><ele>542.0</ele><time>2026-04-19T10:30:55.175Z</time></trkpt><trkpt lat="43.5040387" lon="11.2585945"><ele>541.3333333333334</ele><time>2026-04-19T10:30:56.172Z</time></trkpt><trkpt lat="43.503971" lon="11.2585602"><ele>540.6666666666666</ele><time>2026-04-19T10:30:57.178Z</time></trkpt><trkpt lat="43.5038991" lon="11.2584808"><ele>540.0</ele><time>2026-04-19T10:30:58.146Z</time></trkpt><trkpt lat="43.5038165" lon="11.2583877"><ele>539.25</ele><time>2026-04-19T10:30:59.174Z</time></trkpt><trkpt lat="43.5037272" lon="11.2582717"><ele>538.5</ele><time>2026-04-19T10:31:00.168Z</time></trkpt><trkpt lat="43.5036432" lon="11.2581466"><ele>537.75</ele><time>2026-04-19T10:31:01.169Z</time></trkpt><trkpt lat="43.5035817" lon="11.2580285"><ele>537.0</ele><time>2026-04-19T10:31:02.172Z</time></trkpt><trkpt lat="43.5035555" lon="11.2578896"><ele>537.0</ele><time>2026-04-19T10:31:03.175Z</time></trkpt><trkpt lat="43.5035347" lon="11.2577361"><ele>537.0</ele><time>2026-04-19T10:31:04.177Z</time></trkpt><trkpt lat="43.5035083" lon="11.2575884"><ele>537.0</ele><time>2026-04-19T10:31:05.179Z</time></trkpt><trkpt lat="43.5034831" lon="11.2574491"><ele>537.0</ele><time>2026-04-19T10:31:06.172Z</time></trkpt><trkpt lat="43.5034629" lon="11.2573276"><ele>537.0</ele><time>2026-04-19T10:31:07.179Z</time></trkpt><trkpt lat="43.5034582" lon="11.2572171"><ele>536.6</ele><time>2026-04-19T10:31:08.167Z</time></trkpt><trkpt lat="43.5034671" lon="11.2571001"><ele>536.2</ele><time>2026-04-19T10:31:09.169Z</time></trkpt><trkpt lat="43.5034948" lon="11.2569893"><ele>535.8</ele><time>2026-04-19T10:31:10.165Z</time></trkpt><trkpt lat="43.5035409" lon="11.2568912"><ele>535.4</ele><time>2026-04-19T10:31:11.17Z</time></trkpt><trkpt lat="43.5036202" lon="11.2567966"><ele>535.0</ele><time>2026-04-19T10:31:12.168Z</time></trkpt><trkpt lat="43.5037064" lon="11.2567096"><ele>534.0</ele><time>2026-04-19T10:31:13.17Z</time></trkpt><trkpt lat="43.5037844" lon="11.2565972"><ele>533.0</ele><time>2026-04-19T10:31:14.167Z</time></trkpt><trkpt lat="43.5038542" lon="11.2564638"><ele>532.0</ele><time>2026-04-19T10:31:15.167Z</time></trkpt><trkpt lat="43.5039237" lon="11.256305"><ele>531.0</ele><time>2026-04-19T10:31:16.157Z</time></trkpt><trkpt lat="43.5040032" lon="11.2561459"><ele>531.0</ele><time>2026-04-19T10:31:17.164Z</time></trkpt><trkpt lat="43.5040981" lon="11.2559947"><ele>531.0</ele><time>2026-04-19T10:31:18.177Z</time></trkpt><trkpt lat="43.504199" lon="11.2558523"><ele>531.0</ele><time>2026-04-19T10:31:19.156Z</time></trkpt><trkpt lat="43.5042967" lon="11.2557063"><ele>531.0</ele><time>2026-04-19T10:31:20.169Z</time></trkpt><trkpt lat="43.5043854" lon="11.2555642"><ele>530.75</ele><time>2026-04-19T10:31:21.173Z</time></trkpt><trkpt lat="43.5044624" lon="11.2554471"><ele>530.5</ele><time>2026-04-19T10:31:22.175Z</time></trkpt><trkpt lat="43.5045412" lon="11.255347"><ele>530.25</ele><time>2026-04-19T10:31:23.174Z</time></trkpt><trkpt lat="43.5046318" lon="11.2552553"><ele>530.0</ele><time>2026-04-19T10:31:24.184Z</time></trkpt><trkpt lat="43.5047262" lon="11.2551627"><ele>529.1666666666666</ele><time>2026-04-19T10:31:25.172Z</time></trkpt><trkpt lat="43.5048086" lon="11.2550629"><ele>528.3333333333333</ele><time>2026-04-19T10:31:26.176Z</time></trkpt><trkpt lat="43.5048748" lon="11.2549737"><ele>527.5</ele><time>2026-04-19T10:31:27.166Z</time></trkpt><trkpt lat="43.5049334" lon="11.2548944"><ele>526.6666666666666</ele><time>2026-04-19T10:31:28.184Z</time></trkpt><trkpt lat="43.504985" lon="11.254815"><ele>525.8333333333334</ele><time>2026-04-19T10:31:29.156Z</time></trkpt><trkpt lat="43.5050348" lon="11.2547487"><ele>525.0</ele><time>2026-04-19T10:31:30.173Z</time></trkpt><trkpt lat="43.5050936" lon="11.2546956"><ele>525.0</ele><time>2026-04-19T10:31:31.169Z</time></trkpt><trkpt lat="43.5051596" lon="11.2546737"><ele>525.0</ele><time>2026-04-19T10:31:32.178Z</time></trkpt><trkpt lat="43.5052362" lon="11.2546988"><ele>525.0</ele><time>2026-04-19T10:31:33.175Z</time></trkpt><trkpt lat="43.5053143" lon="11.2547469"><ele>525.0</ele><time>2026-04-19T10:31:34.169Z</time></trkpt><trkpt lat="43.5054051" lon="11.2548095"><ele>525.0</ele><time>2026-04-19T10:31:35.173Z</time></trkpt><trkpt lat="43.5055039" lon="11.2548696"><ele>525.0</ele><time>2026-04-19T10:31:36.182Z</time></trkpt><trkpt lat="43.50561" lon="11.254913"><ele>522.8</ele><time>2026-04-19T10:31:37.177Z</time></trkpt><trkpt lat="43.5057138" lon="11.2549559"><ele>520.6</ele><time>2026-04-19T10:31:38.182Z</time></trkpt><trkpt lat="43.5058104" lon="11.254995"><ele>518.4</ele><time>2026-04-19T10:31:39.177Z</time></trkpt><trkpt lat="43.505908" lon="11.2550265"><ele>516.2</ele><time>2026-04-19T10:31:40.172Z</time></trkpt><trkpt lat="43.5059982" lon="11.2550448"><ele>514.0</ele><time>2026-04-19T10:31:41.173Z</time></trkpt><trkpt lat="43.5060727" lon="11.2550499"><ele>514.0</ele><time>2026-04-19T10:31:42.18Z</time></trkpt><trkpt lat="43.5061808" lon="11.2550903"><ele>514.0</ele><time>2026-04-19T10:31:44.175Z</time></trkpt><trkpt lat="43.5062721" lon="11.2551517"><ele>514.0</ele><time>2026-04-19T10:31:46.166Z</time></trkpt><trkpt lat="43.5063594" lon="11.2551919"><ele>514.0</ele><time>2026-04-19T10:31:48.171Z</time></trkpt><trkpt lat="43.5064373" lon="11.2552453"><ele>514.0</ele><time>2026-04-19T10:31:50.175Z</time></trkpt><trkpt lat="43.5065" lon="11.2553009"><ele>513.8333333333334</ele><time>2026-04-19T10:31:52.175Z</time></trkpt><trkpt lat="43.5065694" lon="11.2553607"><ele>513.6666666666667</ele><time>2026-04-19T10:31:54.175Z</time></trkpt><trkpt lat="43.5066522" lon="11.2554098"><ele>513.5</ele><time>2026-04-19T10:31:56.177Z</time></trkpt><trkpt lat="43.5067171" lon="11.2554477"><ele>513.3333333333334</ele><time>2026-04-19T10:31:58.17Z</time></trkpt><trkpt lat="43.5067948" lon="11.2554718"><ele>513.1666666666666</ele><time>2026-04-19T10:32:40.175Z</time></trkpt><trkpt lat="43.5068648" lon="11.2554853"><ele>513.0</ele><time>2026-04-19T10:32:43.176Z</time></trkpt><trkpt lat="43.5069549" lon="11.255502"><ele>513.0</ele><time>2026-04-19T10:32:58.173Z</time></trkpt><trkpt lat="43.5070209" lon="11.255518"><ele>513.0</ele><time>2026-04-19T10:32:59.173Z</time></trkpt><trkpt lat="43.5070972" lon="11.2555251"><ele>513.0</ele><time>2026-04-19T10:33:00.172Z</time></trkpt><trkpt lat="43.507184" lon="11.2555314"><ele>513.0</ele><time>2026-04-19T10:33:01.171Z</time></trkpt><trkpt lat="43.5072811" lon="11.2555339"><ele>513.0</ele><time>2026-04-19T10:33:02.166Z</time></trkpt><trkpt lat="43.5073995" lon="11.2555381"><ele>513.0</ele><time>2026-04-19T10:33:03.171Z</time></trkpt><trkpt lat="43.507521" lon="11.2555306"><ele>512.6</ele><time>2026-04-19T10:33:04.179Z</time></trkpt><trkpt lat="43.5076393" lon="11.2555181"><ele>512.1999999999999</ele><time>2026-04-19T10:33:05.16Z</time></trkpt><trkpt lat="43.5077464" lon="11.2555027"><ele>511.8</ele><time>2026-04-19T10:33:06.172Z</time></trkpt><trkpt lat="43.5078435" lon="11.2554935"><ele>511.4</ele><time>2026-04-19T10:33:07.175Z</time></trkpt><trkpt lat="43.5079359" lon="11.2554901"><ele>511.0</ele><time>2026-04-19T10:33:08.159Z</time></trkpt><trkpt lat="43.5080128" lon="11.255473"><ele>509.0</ele><time>2026-04-19T10:33:09.17Z</time></trkpt><trkpt lat="43.5080869" lon="11.2554602"><ele>507.0</ele><time>2026-04-19T10:33:10.181Z</time></trkpt><trkpt lat="43.5081569" lon="11.255441"><ele>505.0</ele><time>2026-04-19T10:33:11.175Z</time></trkpt><trkpt lat="43.5082708" lon="11.2553969"><ele>503.0</ele><time>2026-04-19T10:33:13.158Z</time></trkpt><trkpt lat="43.5083796" lon="11.2553363"><ele>501.0</ele><time>2026-04-19T10:33:15.175Z</time></trkpt><trkpt lat="43.5084843" lon="11.2552698"><ele>501.0</ele><time>2026-04-19T10:33:17.176Z</time></trkpt><trkpt lat="43.5085848" lon="11.2552237"><ele>501.0</ele><time>2026-04-19T10:33:19.186Z</time></trkpt><trkpt lat="43.5086764" lon="11.2551964"><ele>501.0</ele><time>2026-04-19T10:33:21.174Z</time></trkpt><trkpt lat="43.5087599" lon="11.2551508"><ele>501.0</ele><time>2026-04-19T10:33:23.175Z</time></trkpt><trkpt lat="43.5088351" lon="11.2550704"><ele>501.0</ele><time>2026-04-19T10:33:25.151Z</time></trkpt><trkpt lat="43.508926" lon="11.2549428"><ele>498.0</ele><time>2026-04-19T10:33:27.173Z</time></trkpt><trkpt lat="43.5089899" lon="11.2548113"><ele>495.0</ele><time>2026-04-19T10:33:29.177Z</time></trkpt><trkpt lat="43.5090391" lon="11.2547002"><ele>492.0</ele><time>2026-04-19T10:33:31.171Z</time></trkpt><trkpt lat="43.5090802" lon="11.2546183"><ele>489.0</ele><time>2026-04-19T10:33:33.155Z</time></trkpt><trkpt lat="43.5091302" lon="11.2545176"><ele>486.0</ele><time>2026-04-19T10:33:36.153Z</time></trkpt><trkpt lat="43.5091879" lon="11.254442"><ele>486.0</ele><time>2026-04-19T10:33:39.17Z</time></trkpt><trkpt lat="43.5092295" lon="11.2543728"><ele>486.0</ele><time>2026-04-19T10:33:41.172Z</time></trkpt><trkpt lat="43.5093007" lon="11.2542948"><ele>486.0</ele><time>2026-04-19T10:33:43.18Z</time></trkpt><trkpt lat="43.5093749" lon="11.2542166"><ele>486.0</ele><time>2026-04-19T10:33:45.166Z</time></trkpt><trkpt lat="43.5094607" lon="11.254149"><ele>486.0</ele><time>2026-04-19T10:33:47.168Z</time></trkpt><trkpt lat="43.5095347" lon="11.2540982"><ele>486.0</ele><time>2026-04-19T10:33:49.172Z</time></trkpt><trkpt lat="43.5096038" lon="11.2540282"><ele>484.5</ele><time>2026-04-19T10:33:51.155Z</time></trkpt><trkpt lat="43.5096692" lon="11.2539703"><ele>483.0</ele><time>2026-04-19T10:33:53.152Z</time></trkpt><trkpt lat="43.5097585" lon="11.2539326"><ele>481.5</ele><time>2026-04-19T10:33:55.159Z</time></trkpt><trkpt lat="43.5098449" lon="11.2538906"><ele>480.0</ele><time>2026-04-19T10:33:57.148Z</time></trkpt><trkpt lat="43.5099172" lon="11.2538258"><ele>478.5</ele><time>2026-04-19T10:33:59.152Z</time></trkpt><trkpt lat="43.5099771" lon="11.253731"><ele>477.0</ele><time>2026-04-19T10:34:01.153Z</time></trkpt><trkpt lat="43.5100626" lon="11.2536593"><ele>476.40000000000003</ele><time>2026-04-19T10:34:03.163Z</time></trkpt><trkpt lat="43.5101854" lon="11.2536102"><ele>475.80000000000007</ele><time>2026-04-19T10:34:05.155Z</time></trkpt><trkpt lat="43.5102936" lon="11.2535597"><ele>475.2</ele><time>2026-04-19T10:34:07.155Z</time></trkpt><trkpt lat="43.510382" lon="11.2535585"><ele>474.6</ele><time>2026-04-19T10:34:10.172Z</time></trkpt><trkpt lat="43.5104616" lon="11.2535429"><ele>474.0</ele><time>2026-04-19T10:34:13.172Z</time></trkpt><trkpt lat="43.5105478" lon="11.2535207"><ele>474.0</ele><time>2026-04-19T10:34:16.172Z</time></trkpt><trkpt lat="43.5106389" lon="11.2534865"><ele>474.0</ele><time>2026-04-19T10:34:19.17Z</time></trkpt><trkpt lat="43.5107364" lon="11.2534471"><ele>474.0</ele><time>2026-04-19T10:34:21.176Z</time></trkpt><trkpt lat="43.5108005" lon="11.2534295"><ele>474.0</ele><time>2026-04-19T10:34:22.171Z</time></trkpt><trkpt lat="43.5109267" lon="11.2533759"><ele>474.0</ele><time>2026-04-19T10:34:24.171Z</time></trkpt><trkpt lat="43.5109971" lon="11.253343"><ele>474.0</ele><time>2026-04-19T10:34:25.166Z</time></trkpt><trkpt lat="43.5110732" lon="11.253314"><ele>474.0</ele><time>2026-04-19T10:34:26.172Z</time></trkpt><trkpt lat="43.5111533" lon="11.2532673"><ele>474.0</ele><time>2026-04-19T10:34:27.178Z</time></trkpt><trkpt lat="43.5112296" lon="11.2532272"><ele>474.0</ele><time>2026-04-19T10:34:28.172Z</time></trkpt><trkpt lat="43.5112951" lon="11.2531884"><ele>474.0</ele><time>2026-04-19T10:34:29.172Z</time></trkpt><trkpt lat="43.5113653" lon="11.253147"><ele>474.0</ele><time>2026-04-19T10:34:30.156Z</time></trkpt><trkpt lat="43.5114346" lon="11.2531062"><ele>475.1666666666667</ele><time>2026-04-19T10:34:31.157Z</time></trkpt><trkpt lat="43.5115114" lon="11.2530674"><ele>476.33333333333337</ele><time>2026-04-19T10:34:32.153Z</time></trkpt><trkpt lat="43.5115857" lon="11.2530377"><ele>477.5</ele><time>2026-04-19T10:34:33.155Z</time></trkpt><trkpt lat="43.5116582" lon="11.2530148"><ele>478.6666666666667</ele><time>2026-04-19T10:34:34.158Z</time></trkpt><trkpt lat="43.5117297" lon="11.2529939"><ele>479.83333333333337</ele><time>2026-04-19T10:34:35.156Z</time></trkpt><trkpt lat="43.5118032" lon="11.2529688"><ele>481.0</ele><time>2026-04-19T10:34:36.158Z</time></trkpt><trkpt lat="43.5118764" lon="11.2529472"><ele>481.00000000000006</ele><time>2026-04-19T10:34:37.158Z</time></trkpt><trkpt lat="43.5119424" lon="11.2529258"><ele>481.0</ele><time>2026-04-19T10:34:38.16Z</time></trkpt><trkpt lat="43.5120066" lon="11.2529046"><ele>481.0</ele><time>2026-04-19T10:34:39.178Z</time></trkpt><trkpt lat="43.5121321" lon="11.2528367"><ele>481.0</ele><time>2026-04-19T10:34:41.164Z</time></trkpt><trkpt lat="43.512201" lon="11.2528048"><ele>481.00000000000006</ele><time>2026-04-19T10:34:42.166Z</time></trkpt><trkpt lat="43.5122659" lon="11.2527732"><ele>481.0</ele><time>2026-04-19T10:34:43.167Z</time></trkpt><trkpt lat="43.5123399" lon="11.2527301"><ele>480.00000000000006</ele><time>2026-04-19T10:34:44.175Z</time></trkpt><trkpt lat="43.5124212" lon="11.2526835"><ele>479.0</ele><time>2026-04-19T10:34:45.182Z</time></trkpt><trkpt lat="43.512503" lon="11.2526425"><ele>478.0</ele><time>2026-04-19T10:34:46.163Z</time></trkpt><trkpt lat="43.5125828" lon="11.2526043"><ele>477.0</ele><time>2026-04-19T10:34:47.176Z</time></trkpt><trkpt lat="43.5126605" lon="11.2525676"><ele>476.00000000000006</ele><time>2026-04-19T10:34:48.176Z</time></trkpt><trkpt lat="43.5127381" lon="11.2525279"><ele>475.0</ele><time>2026-04-19T10:34:49.165Z</time></trkpt><trkpt lat="43.5128084" lon="11.2525036"><ele>475.0</ele><time>2026-04-19T10:34:50.17Z</time></trkpt><trkpt lat="43.5128725" lon="11.2524781"><ele>475.0</ele><time>2026-04-19T10:34:51.156Z</time></trkpt><trkpt lat="43.512985" lon="11.2524256"><ele>475.0</ele><time>2026-04-19T10:34:53.178Z</time></trkpt><trkpt lat="43.5130861" lon="11.2523564"><ele>475.0</ele><time>2026-04-19T10:34:55.17Z</time></trkpt><trkpt lat="43.5131681" lon="11.2522883"><ele>475.0</ele><time>2026-04-19T10:34:57.158Z</time></trkpt><trkpt lat="43.5132453" lon="11.2522369"><ele>472.4</ele><time>2026-04-19T10:34:59.189Z</time></trkpt><trkpt lat="43.5133261" lon="11.2522283"><ele>469.8</ele><time>2026-04-19T10:35:01.157Z</time></trkpt><trkpt lat="43.513411" lon="11.2522369"><ele>467.20000000000005</ele><time>2026-04-19T10:35:03.175Z</time></trkpt><trkpt lat="43.5134945" lon="11.2522628"><ele>464.6</ele><time>2026-04-19T10:35:05.17Z</time></trkpt><trkpt lat="43.513597" lon="11.2522809"><ele>462.0</ele><time>2026-04-19T10:35:07.174Z</time></trkpt><trkpt lat="43.5137341" lon="11.2522729"><ele>460.40000000000003</ele><time>2026-04-19T10:35:09.161Z</time></trkpt><trkpt lat="43.5138121" lon="11.2522565"><ele>458.80000000000007</ele><time>2026-04-19T10:35:10.159Z</time></trkpt><trkpt lat="43.5139056" lon="11.2522384"><ele>457.2</ele><time>2026-04-19T10:35:11.157Z</time></trkpt><trkpt lat="43.5139954" lon="11.2522123"><ele>455.6</ele><time>2026-04-19T10:35:12.157Z</time></trkpt><trkpt lat="43.514084" lon="11.252177"><ele>454.0</ele><time>2026-04-19T10:35:13.173Z</time></trkpt><trkpt lat="43.5141743" lon="11.2521397"><ele>454.00000000000006</ele><time>2026-04-19T10:35:14.154Z</time></trkpt><trkpt lat="43.514258" lon="11.2521069"><ele>454.0</ele><time>2026-04-19T10:35:15.166Z</time></trkpt><trkpt lat="43.5143328" lon="11.2520751"><ele>454.0</ele><time>2026-04-19T10:35:16.161Z</time></trkpt><trkpt lat="43.5144028" lon="11.2520531"><ele>454.0</ele><time>2026-04-19T10:35:17.159Z</time></trkpt><trkpt lat="43.5144753" lon="11.2520409"><ele>454.00000000000006</ele><time>2026-04-19T10:35:18.19Z</time></trkpt><trkpt lat="43.5145443" lon="11.2520354"><ele>454.0</ele><time>2026-04-19T10:35:19.164Z</time></trkpt><trkpt lat="43.5146192" lon="11.2520326"><ele>451.83333333333337</ele><time>2026-04-19T10:35:20.165Z</time></trkpt><trkpt lat="43.5147007" lon="11.2520325"><ele>449.6666666666667</ele><time>2026-04-19T10:35:21.168Z</time></trkpt><trkpt lat="43.5147843" lon="11.2520399"><ele>447.5</ele><time>2026-04-19T10:35:22.178Z</time></trkpt><trkpt lat="43.5148683" lon="11.2520453"><ele>445.33333333333337</ele><time>2026-04-19T10:35:23.176Z</time></trkpt><trkpt lat="43.5149592" lon="11.2520458"><ele>443.1666666666667</ele><time>2026-04-19T10:35:24.178Z</time></trkpt><trkpt lat="43.5150456" lon="11.2520506"><ele>441.0</ele><time>2026-04-19T10:35:25.178Z</time></trkpt><trkpt lat="43.5151189" lon="11.252054"><ele>441.0</ele><time>2026-04-19T10:35:26.176Z</time></trkpt><trkpt lat="43.515222" lon="11.2520119"><ele>441.0</ele><time>2026-04-19T10:35:28.174Z</time></trkpt><trkpt lat="43.5152572" lon="11.2518939"><ele>441.0</ele><time>2026-04-19T10:35:30.158Z</time></trkpt><trkpt lat="43.5152327" lon="11.2517312"><ele>441.0</ele><time>2026-04-19T10:35:32.17Z</time></trkpt><trkpt lat="43.5152134" lon="11.251638"><ele>441.0</ele><time>2026-04-19T10:35:33.173Z</time></trkpt><trkpt lat="43.515185" lon="11.2515156"><ele>438.6</ele><time>2026-04-19T10:35:34.169Z</time></trkpt><trkpt lat="43.515154" lon="11.251369"><ele>436.20000000000005</ele><time>2026-04-19T10:35:35.152Z</time></trkpt><trkpt lat="43.5151294" lon="11.2512302"><ele>433.79999999999995</ele><time>2026-04-19T10:35:36.183Z</time></trkpt><trkpt lat="43.515111" lon="11.2510994"><ele>431.4</ele><time>2026-04-19T10:35:37.178Z</time></trkpt><trkpt lat="43.5150911" lon="11.250973"><ele>429.0</ele><time>2026-04-19T10:35:38.157Z</time></trkpt><trkpt lat="43.5150626" lon="11.2508612"><ele>429.0</ele><time>2026-04-19T10:35:39.172Z</time></trkpt><trkpt lat="43.5150355" lon="11.2507654"><ele>429.0</ele><time>2026-04-19T10:35:40.17Z</time></trkpt><trkpt lat="43.5150101" lon="11.2506727"><ele>429.0</ele><time>2026-04-19T10:35:41.176Z</time></trkpt><trkpt lat="43.5149739" lon="11.2505833"><ele>429.0</ele><time>2026-04-19T10:35:42.167Z</time></trkpt><trkpt lat="43.5148934" lon="11.2504608"><ele>429.0</ele><time>2026-04-19T10:35:44.176Z</time></trkpt><trkpt lat="43.514891" lon="11.250366"><ele>429.0</ele><time>2026-04-19T10:35:47.17Z</time></trkpt><trkpt lat="43.5149831" lon="11.2503359"><ele>425.4</ele><time>2026-04-19T10:35:49.165Z</time></trkpt><trkpt lat="43.5151161" lon="11.2503819"><ele>421.79999999999995</ele><time>2026-04-19T10:35:51.171Z</time></trkpt><trkpt lat="43.5151968" lon="11.2504164"><ele>418.20000000000005</ele><time>2026-04-19T10:35:52.154Z</time></trkpt><trkpt lat="43.5152795" lon="11.2504521"><ele>414.6</ele><time>2026-04-19T10:35:53.146Z</time></trkpt><trkpt lat="43.5153614" lon="11.2504818"><ele>411.0</ele><time>2026-04-19T10:35:54.154Z</time></trkpt><trkpt lat="43.5154417" lon="11.250502"><ele>409.3333333333333</ele><time>2026-04-19T10:35:55.155Z</time></trkpt><trkpt lat="43.5155228" lon="11.2504958"><ele>407.66666666666663</ele><time>2026-04-19T10:35:56.18Z</time></trkpt><trkpt lat="43.5156121" lon="11.250469"><ele>406.0</ele><time>2026-04-19T10:35:57.154Z</time></trkpt><trkpt lat="43.5156959" lon="11.2504315"><ele>404.3333333333333</ele><time>2026-04-19T10:35:58.163Z</time></trkpt><trkpt lat="43.5157762" lon="11.2504062"><ele>402.66666666666663</ele><time>2026-04-19T10:35:59.165Z</time></trkpt><trkpt lat="43.5158515" lon="11.2503845"><ele>401.0</ele><time>2026-04-19T10:36:00.171Z</time></trkpt><trkpt lat="43.515924" lon="11.2503643"><ele>401.0</ele><time>2026-04-19T10:36:01.161Z</time></trkpt><trkpt lat="43.5160318" lon="11.2503516"><ele>401.0</ele><time>2026-04-19T10:36:03.171Z</time></trkpt><trkpt lat="43.5161239" lon="11.250339"><ele>401.0</ele><time>2026-04-19T10:36:05.161Z</time></trkpt><trkpt lat="43.5161569" lon="11.2502397"><ele>401.0</ele><time>2026-04-19T10:36:07.165Z</time></trkpt><trkpt lat="43.5161252" lon="11.2500956"><ele>401.0</ele><time>2026-04-19T10:36:09.171Z</time></trkpt><trkpt lat="43.5160621" lon="11.249961"><ele>401.0</ele><time>2026-04-19T10:36:11.174Z</time></trkpt><trkpt lat="43.5160156" lon="11.2498977"><ele>401.0</ele><time>2026-04-19T10:36:12.17Z</time></trkpt><trkpt lat="43.5159447" lon="11.2498338"><ele>401.0</ele><time>2026-04-19T10:36:13.168Z</time></trkpt><trkpt lat="43.5158639" lon="11.2497461"><ele>401.0</ele><time>2026-04-19T10:36:14.16Z</time></trkpt><trkpt lat="43.5157702" lon="11.2496389"><ele>401.0</ele><time>2026-04-19T10:36:15.159Z</time></trkpt><trkpt lat="43.5156701" lon="11.2495309"><ele>400.99999999999994</ele><time>2026-04-19T10:36:16.164Z</time></trkpt><trkpt lat="43.5155808" lon="11.2494237"><ele>401.0</ele><time>2026-04-19T10:36:17.157Z</time></trkpt><trkpt lat="43.515523" lon="11.2493408"><ele>401.0</ele><time>2026-04-19T10:36:18.166Z</time></trkpt><trkpt lat="43.515493" lon="11.249258"><ele>401.0</ele><time>2026-04-19T10:36:19.174Z</time></trkpt><trkpt lat="43.5154854" lon="11.2491674"><ele>400.99999999999994</ele><time>2026-04-19T10:36:20.156Z</time></trkpt><trkpt lat="43.5155434" lon="11.2490428"><ele>401.0</ele><time>2026-04-19T10:36:22.176Z</time></trkpt><trkpt lat="43.5156908" lon="11.2490792"><ele>401.0</ele><time>2026-04-19T10:36:24.176Z</time></trkpt><trkpt lat="43.5158061" lon="11.2491395"><ele>401.0</ele><time>2026-04-19T10:36:25.172Z</time></trkpt><trkpt lat="43.5159231" lon="11.2491967"><ele>401.0</ele><time>2026-04-19T10:36:26.173Z</time></trkpt><trkpt lat="43.5160425" lon="11.2492297"><ele>401.0</ele><time>2026-04-19T10:36:27.178Z</time></trkpt><trkpt lat="43.5161546" lon="11.2492436"><ele>402.6</ele><time>2026-04-19T10:36:28.181Z</time></trkpt><trkpt lat="43.5162573" lon="11.2492462"><ele>404.20000000000005</ele><time>2026-04-19T10:36:29.172Z</time></trkpt><trkpt lat="43.5163605" lon="11.2492557"><ele>405.79999999999995</ele><time>2026-04-19T10:36:30.176Z</time></trkpt><trkpt lat="43.5164702" lon="11.2492686"><ele>407.4</ele><time>2026-04-19T10:36:31.177Z</time></trkpt><trkpt lat="43.5165887" lon="11.2492385"><ele>409.0</ele><time>2026-04-19T10:36:32.173Z</time></trkpt><trkpt lat="43.5167091" lon="11.2491962"><ele>409.0</ele><time>2026-04-19T10:36:33.174Z</time></trkpt><trkpt lat="43.5168245" lon="11.2491743"><ele>409.0</ele><time>2026-04-19T10:36:34.172Z</time></trkpt><trkpt lat="43.5169279" lon="11.249168"><ele>409.0</ele><time>2026-04-19T10:36:35.178Z</time></trkpt><trkpt lat="43.5170238" lon="11.2491326"><ele>409.0</ele><time>2026-04-19T10:36:36.172Z</time></trkpt><trkpt lat="43.517121" lon="11.2490813"><ele>409.0</ele><time>2026-04-19T10:36:37.149Z</time></trkpt><trkpt lat="43.5171936" lon="11.249022"><ele>410.6666666666667</ele><time>2026-04-19T10:36:38.178Z</time></trkpt><trkpt lat="43.5172301" lon="11.2489285"><ele>412.33333333333337</ele><time>2026-04-19T10:36:39.168Z</time></trkpt><trkpt lat="43.5172373" lon="11.2488057"><ele>414.0</ele><time>2026-04-19T10:36:40.175Z</time></trkpt><trkpt lat="43.5172047" lon="11.2486912"><ele>415.66666666666663</ele><time>2026-04-19T10:36:41.171Z</time></trkpt><trkpt lat="43.5171634" lon="11.248592"><ele>417.3333333333333</ele><time>2026-04-19T10:36:42.171Z</time></trkpt><trkpt lat="43.5171205" lon="11.2485084"><ele>419.0</ele><time>2026-04-19T10:36:43.175Z</time></trkpt><trkpt lat="43.5170847" lon="11.248425"><ele>419.16666666666663</ele><time>2026-04-19T10:36:44.168Z</time></trkpt><trkpt lat="43.5170464" lon="11.2483488"><ele>419.3333333333333</ele><time>2026-04-19T10:36:45.185Z</time></trkpt><trkpt lat="43.5169955" lon="11.2482577"><ele>419.5</ele><time>2026-04-19T10:36:47.151Z</time></trkpt><trkpt lat="43.5169483" lon="11.248175"><ele>419.66666666666663</ele><time>2026-04-19T10:36:54.172Z</time></trkpt><trkpt lat="43.5168838" lon="11.2480605"><ele>419.8333333333333</ele><time>2026-04-19T10:36:56.175Z</time></trkpt><trkpt lat="43.5168205" lon="11.2479975"><ele>420.0</ele><time>2026-04-19T10:36:57.172Z</time></trkpt><trkpt lat="43.5167445" lon="11.2479572"><ele>419.6</ele><time>2026-04-19T10:36:58.166Z</time></trkpt><trkpt lat="43.5166722" lon="11.2479217"><ele>419.2</ele><time>2026-04-19T10:36:59.156Z</time></trkpt><trkpt lat="43.5165979" lon="11.2478882"><ele>418.79999999999995</ele><time>2026-04-19T10:37:00.176Z</time></trkpt><trkpt lat="43.5165091" lon="11.247836"><ele>418.4</ele><time>2026-04-19T10:37:01.171Z</time></trkpt><trkpt lat="43.5164193" lon="11.24776"><ele>418.0</ele><time>2026-04-19T10:37:02.172Z</time></trkpt><trkpt lat="43.5163253" lon="11.2476527"><ele>419.2</ele><time>2026-04-19T10:37:03.169Z</time></trkpt><trkpt lat="43.516232" lon="11.2475496"><ele>420.4</ele><time>2026-04-19T10:37:04.168Z</time></trkpt><trkpt lat="43.5161449" lon="11.2474574"><ele>421.59999999999997</ele><time>2026-04-19T10:37:05.177Z</time></trkpt><trkpt lat="43.5160582" lon="11.247366"><ele>422.79999999999995</ele><time>2026-04-19T10:37:06.165Z</time></trkpt><trkpt lat="43.5159665" lon="11.2472935"><ele>424.0</ele><time>2026-04-19T10:37:07.175Z</time></trkpt><trkpt lat="43.5158682" lon="11.2472343"><ele>424.5</ele><time>2026-04-19T10:37:08.166Z</time></trkpt><trkpt lat="43.515766" lon="11.2471802"><ele>425.0</ele><time>2026-04-19T10:37:09.174Z</time></trkpt><trkpt lat="43.5156582" lon="11.247119"><ele>425.5</ele><time>2026-04-19T10:37:10.17Z</time></trkpt><trkpt lat="43.5155432" lon="11.2470569"><ele>426.0</ele><time>2026-04-19T10:37:11.172Z</time></trkpt><trkpt lat="43.5154245" lon="11.2470012"><ele>428.0</ele><time>2026-04-19T10:37:12.172Z</time></trkpt><trkpt lat="43.5153051" lon="11.2469486"><ele>430.0</ele><time>2026-04-19T10:37:13.176Z</time></trkpt><trkpt lat="43.5151805" lon="11.2469013"><ele>432.0</ele><time>2026-04-19T10:37:14.177Z</time></trkpt><trkpt lat="43.51505" lon="11.2468684"><ele>434.0</ele><time>2026-04-19T10:37:15.181Z</time></trkpt><trkpt lat="43.5149127" lon="11.2468512"><ele>434.0</ele><time>2026-04-19T10:37:16.166Z</time></trkpt><trkpt lat="43.5147695" lon="11.2468578"><ele>434.0</ele><time>2026-04-19T10:37:17.171Z</time></trkpt><trkpt lat="43.5146305" lon="11.2468519"><ele>434.0</ele><time>2026-04-19T10:37:18.179Z</time></trkpt><trkpt lat="43.5144991" lon="11.2468218"><ele>434.0</ele><time>2026-04-19T10:37:19.174Z</time></trkpt><trkpt lat="43.5143705" lon="11.2467513"><ele>438.3333333333333</ele><time>2026-04-19T10:37:20.171Z</time></trkpt><trkpt lat="43.5142384" lon="11.2466377"><ele>442.66666666666663</ele><time>2026-04-19T10:37:21.166Z</time></trkpt><trkpt lat="43.5141111" lon="11.246505"><ele>447.0</ele><time>2026-04-19T10:37:22.167Z</time></trkpt><trkpt lat="43.5139879" lon="11.2463865"><ele>447.0</ele><time>2026-04-19T10:37:23.178Z</time></trkpt><trkpt lat="43.5138873" lon="11.2462677"><ele>447.0</ele><time>2026-04-19T10:37:24.161Z</time></trkpt><trkpt lat="43.5138163" lon="11.2461385"><ele>447.0</ele><time>2026-04-19T10:37:25.18Z</time></trkpt><trkpt lat="43.5137732" lon="11.24598"><ele>447.0</ele><time>2026-04-19T10:37:26.166Z</time></trkpt><trkpt lat="43.5137669" lon="11.2458097"><ele>447.0</ele><time>2026-04-19T10:37:27.164Z</time></trkpt><trkpt lat="43.5138031" lon="11.2456397"><ele>447.0</ele><time>2026-04-19T10:37:28.17Z</time></trkpt><trkpt lat="43.5138424" lon="11.2454712"><ele>447.0</ele><time>2026-04-19T10:37:29.17Z</time></trkpt><trkpt lat="43.5138888" lon="11.2453085"><ele>447.0</ele><time>2026-04-19T10:37:30.177Z</time></trkpt><trkpt lat="43.5139083" lon="11.2451489"><ele>446.75</ele><time>2026-04-19T10:37:31.179Z</time></trkpt><trkpt lat="43.5138937" lon="11.2450002"><ele>446.5</ele><time>2026-04-19T10:37:32.175Z</time></trkpt><trkpt lat="43.513847" lon="11.2448647"><ele>446.25</ele><time>2026-04-19T10:37:33.179Z</time></trkpt><trkpt lat="43.5137606" lon="11.244753"><ele>446.0</ele><time>2026-04-19T10:37:34.17Z</time></trkpt><trkpt lat="43.5136565" lon="11.2446819"><ele>450.25</ele><time>2026-04-19T10:37:35.169Z</time></trkpt><trkpt lat="43.5135444" lon="11.2446126"><ele>454.5</ele><time>2026-04-19T10:37:36.163Z</time></trkpt><trkpt lat="43.5134331" lon="11.2445286"><ele>458.75</ele><time>2026-04-19T10:37:37.151Z</time></trkpt><trkpt lat="43.5133236" lon="11.244437"><ele>463.0</ele><time>2026-04-19T10:37:38.168Z</time></trkpt><trkpt lat="43.5132088" lon="11.2443391"><ele>463.0</ele><time>2026-04-19T10:37:39.177Z</time></trkpt><trkpt lat="43.5131012" lon="11.244226"><ele>463.0</ele><time>2026-04-19T10:37:40.175Z</time></trkpt><trkpt lat="43.5129915" lon="11.2441161"><ele>463.0</ele><time>2026-04-19T10:37:41.186Z</time></trkpt><trkpt lat="43.5128838" lon="11.244003"><ele>463.0</ele><time>2026-04-19T10:37:42.165Z</time></trkpt><trkpt lat="43.5127907" lon="11.2439007"><ele>464.4</ele><time>2026-04-19T10:37:43.172Z</time></trkpt><trkpt lat="43.5126892" lon="11.2438218"><ele>465.79999999999995</ele><time>2026-04-19T10:37:44.17Z</time></trkpt><trkpt lat="43.5125795" lon="11.2437676"><ele>467.2</ele><time>2026-04-19T10:37:45.173Z</time></trkpt><trkpt lat="43.5124819" lon="11.2437557"><ele>468.6</ele><time>2026-04-19T10:37:46.171Z</time></trkpt><trkpt lat="43.5123846" lon="11.2437902"><ele>470.0</ele><time>2026-04-19T10:37:47.169Z</time></trkpt><trkpt lat="43.5122695" lon="11.2438458"><ele>470.0</ele><time>2026-04-19T10:37:48.177Z</time></trkpt><trkpt lat="43.5121287" lon="11.2439173"><ele>470.0</ele><time>2026-04-19T10:37:49.182Z</time></trkpt><trkpt lat="43.5119459" lon="11.2440043"><ele>470.0</ele><time>2026-04-19T10:37:50.16Z</time></trkpt><trkpt lat="43.5117303" lon="11.24411"><ele>474.66666666666663</ele><time>2026-04-19T10:37:51.174Z</time></trkpt><trkpt lat="43.5115077" lon="11.2442064"><ele>479.33333333333337</ele><time>2026-04-19T10:37:52.17Z</time></trkpt><trkpt lat="43.5112972" lon="11.2442647"><ele>484.0</ele><time>2026-04-19T10:37:53.174Z</time></trkpt><trkpt lat="43.5111121" lon="11.2442951"><ele>484.6666666666667</ele><time>2026-04-19T10:37:54.175Z</time></trkpt><trkpt lat="43.5109387" lon="11.2443203"><ele>485.33333333333337</ele><time>2026-04-19T10:37:55.167Z</time></trkpt><trkpt lat="43.5107839" lon="11.2443171"><ele>486.0</ele><time>2026-04-19T10:37:56.164Z</time></trkpt><trkpt lat="43.5106288" lon="11.2442863"><ele>486.0</ele><time>2026-04-19T10:37:57.177Z</time></trkpt><trkpt lat="43.5104713" lon="11.2442252"><ele>486.0</ele><time>2026-04-19T10:37:58.172Z</time></trkpt><trkpt lat="43.5103178" lon="11.2441364"><ele>486.0</ele><time>2026-04-19T10:37:59.165Z</time></trkpt><trkpt lat="43.5101728" lon="11.2440046"><ele>488.0</ele><time>2026-04-19T10:38:00.168Z</time></trkpt><trkpt lat="43.5100342" lon="11.2438"><ele>490.0</ele><time>2026-04-19T10:38:01.156Z</time></trkpt><trkpt lat="43.5099168" lon="11.2435967"><ele>492.0</ele><time>2026-04-19T10:38:02.161Z</time></trkpt><trkpt lat="43.509801" lon="11.2434053"><ele>492.0</ele><time>2026-04-19T10:38:03.168Z</time></trkpt><trkpt lat="43.509704" lon="11.2432568"><ele>492.0</ele><time>2026-04-19T10:38:04.169Z</time></trkpt><trkpt lat="43.5096068" lon="11.2431302"><ele>492.0</ele><time>2026-04-19T10:38:05.163Z</time></trkpt><trkpt lat="43.5094954" lon="11.2430414"><ele>492.0</ele><time>2026-04-19T10:38:06.169Z</time></trkpt><trkpt lat="43.5093732" lon="11.2429616"><ele>494.0</ele><time>2026-04-19T10:38:07.169Z</time></trkpt><trkpt lat="43.5092443" lon="11.2428898"><ele>496.0</ele><time>2026-04-19T10:38:08.169Z</time></trkpt><trkpt lat="43.5091286" lon="11.2428429"><ele>498.0</ele><time>2026-04-19T10:38:09.174Z</time></trkpt><trkpt lat="43.5090176" lon="11.242845"><ele>500.0</ele><time>2026-04-19T10:38:10.171Z</time></trkpt><trkpt lat="43.508886" lon="11.2428958"><ele>500.0</ele><time>2026-04-19T10:38:11.17Z</time></trkpt><trkpt lat="43.5087421" lon="11.2429825"><ele>500.0</ele><time>2026-04-19T10:38:12.165Z</time></trkpt><trkpt lat="43.5085869" lon="11.2430873"><ele>500.0</ele><time>2026-04-19T10:38:13.168Z</time></trkpt><trkpt lat="43.5084384" lon="11.2431744"><ele>500.0</ele><time>2026-04-19T10:38:14.174Z</time></trkpt><trkpt lat="43.5082833" lon="11.2432388"><ele>500.0</ele><time>2026-04-19T10:38:15.167Z</time></trkpt><trkpt lat="43.508119" lon="11.2432739"><ele>500.0</ele><time>2026-04-19T10:38:16.153Z</time></trkpt><trkpt lat="43.5079493" lon="11.2432748"><ele>500.0</ele><time>2026-04-19T10:38:17.172Z</time></trkpt><trkpt lat="43.5077664" lon="11.2432678"><ele>500.0</ele><time>2026-04-19T10:38:18.169Z</time></trkpt><trkpt lat="43.5075834" lon="11.243262"><ele>500.0</ele><time>2026-04-19T10:38:19.149Z</time></trkpt><trkpt lat="43.5073955" lon="11.2432843"><ele>500.0</ele><time>2026-04-19T10:38:20.154Z</time></trkpt><trkpt lat="43.5072095" lon="11.2433455"><ele>500.0</ele><time>2026-04-19T10:38:21.157Z</time></trkpt><trkpt lat="43.5070269" lon="11.2434331"><ele>500.0</ele><time>2026-04-19T10:38:22.162Z</time></trkpt><trkpt lat="43.5068544" lon="11.2435246"><ele>502.0</ele><time>2026-04-19T10:38:23.157Z</time></trkpt><trkpt lat="43.5067063" lon="11.2436213"><ele>504.0</ele><time>2026-04-19T10:38:24.168Z</time></trkpt><trkpt lat="43.5065668" lon="11.2436906"><ele>506.0</ele><time>2026-04-19T10:38:25.163Z</time></trkpt><trkpt lat="43.5064405" lon="11.2437119"><ele>508.0</ele><time>2026-04-19T10:38:26.174Z</time></trkpt><trkpt lat="43.5063048" lon="11.2436961"><ele>511.33333333333337</ele><time>2026-04-19T10:38:27.175Z</time></trkpt><trkpt lat="43.5061655" lon="11.2436177"><ele>514.6666666666666</ele><time>2026-04-19T10:38:28.172Z</time></trkpt><trkpt lat="43.5060175" lon="11.2435158"><ele>518.0</ele><time>2026-04-19T10:38:29.176Z</time></trkpt><trkpt lat="43.5058656" lon="11.24344"><ele>518.0</ele><time>2026-04-19T10:38:30.164Z</time></trkpt><trkpt lat="43.5057038" lon="11.2433913"><ele>518.0</ele><time>2026-04-19T10:38:31.146Z</time></trkpt><trkpt lat="43.5055344" lon="11.2433646"><ele>518.0</ele><time>2026-04-19T10:38:32.167Z</time></trkpt><trkpt lat="43.505361" lon="11.243407"><ele>519.6666666666666</ele><time>2026-04-19T10:38:33.16Z</time></trkpt><trkpt lat="43.5051952" lon="11.2434783"><ele>521.3333333333334</ele><time>2026-04-19T10:38:34.166Z</time></trkpt><trkpt lat="43.5050386" lon="11.2435743"><ele>523.0</ele><time>2026-04-19T10:38:35.16Z</time></trkpt><trkpt lat="43.5048745" lon="11.2437046"><ele>523.0</ele><time>2026-04-19T10:38:36.176Z</time></trkpt><trkpt lat="43.5047181" lon="11.2438544"><ele>523.0</ele><time>2026-04-19T10:38:37.174Z</time></trkpt><trkpt lat="43.5045692" lon="11.244021"><ele>523.0</ele><time>2026-04-19T10:38:38.172Z</time></trkpt><trkpt lat="43.5044137" lon="11.2441908"><ele>523.6666666666667</ele><time>2026-04-19T10:38:39.174Z</time></trkpt><trkpt lat="43.5042634" lon="11.2443484"><ele>524.3333333333334</ele><time>2026-04-19T10:38:40.173Z</time></trkpt><trkpt lat="43.5041134" lon="11.2444959"><ele>525.0</ele><time>2026-04-19T10:38:41.171Z</time></trkpt><trkpt lat="43.5039671" lon="11.2446413"><ele>524.6666666666666</ele><time>2026-04-19T10:38:42.166Z</time></trkpt><trkpt lat="43.5038304" lon="11.244811"><ele>524.3333333333333</ele><time>2026-04-19T10:38:43.172Z</time></trkpt><trkpt lat="43.5037122" lon="11.2450025"><ele>524.0</ele><time>2026-04-19T10:38:44.167Z</time></trkpt><trkpt lat="43.5036079" lon="11.2451844"><ele>524.8</ele><time>2026-04-19T10:38:45.171Z</time></trkpt><trkpt lat="43.5035261" lon="11.2453318"><ele>525.5999999999999</ele><time>2026-04-19T10:38:46.15Z</time></trkpt><trkpt lat="43.5034679" lon="11.2454547"><ele>526.4</ele><time>2026-04-19T10:38:47.181Z</time></trkpt><trkpt lat="43.5034132" lon="11.2455481"><ele>527.1999999999999</ele><time>2026-04-19T10:38:48.173Z</time></trkpt><trkpt lat="43.5033568" lon="11.2456246"><ele>528.0</ele><time>2026-04-19T10:38:49.168Z</time></trkpt><trkpt lat="43.5032982" lon="11.245694"><ele>528.0</ele><time>2026-04-19T10:38:50.167Z</time></trkpt><trkpt lat="43.5032251" lon="11.2457764"><ele>528.0</ele><time>2026-04-19T10:38:51.163Z</time></trkpt><trkpt lat="43.5031495" lon="11.2458489"><ele>528.0</ele><time>2026-04-19T10:38:52.173Z</time></trkpt><trkpt lat="43.5030699" lon="11.2459217"><ele>528.0</ele><time>2026-04-19T10:38:53.173Z</time></trkpt><trkpt lat="43.5029905" lon="11.2459991"><ele>528.0</ele><time>2026-04-19T10:38:54.188Z</time></trkpt><trkpt lat="43.50291" lon="11.246082"><ele>527.1999999999999</ele><time>2026-04-19T10:38:55.183Z</time></trkpt><trkpt lat="43.502834" lon="11.2461778"><ele>526.4</ele><time>2026-04-19T10:38:56.176Z</time></trkpt><trkpt lat="43.5027584" lon="11.2462745"><ele>525.5999999999999</ele><time>2026-04-19T10:38:57.173Z</time></trkpt><trkpt lat="43.5026857" lon="11.2463719"><ele>524.8</ele><time>2026-04-19T10:38:58.177Z</time></trkpt><trkpt lat="43.5026292" lon="11.2464719"><ele>524.0</ele><time>2026-04-19T10:38:59.174Z</time></trkpt><trkpt lat="43.5025818" lon="11.2465553"><ele>524.0</ele><time>2026-04-19T10:39:00.153Z</time></trkpt><trkpt lat="43.5025409" lon="11.2466259"><ele>524.0</ele><time>2026-04-19T10:39:01.163Z</time></trkpt><trkpt lat="43.5024661" lon="11.2467599"><ele>524.0</ele><time>2026-04-19T10:39:03.158Z</time></trkpt><trkpt lat="43.5023592" lon="11.2468507"><ele>524.0</ele><time>2026-04-19T10:39:05.167Z</time></trkpt><trkpt lat="43.5022933" lon="11.246887"><ele>524.0</ele><time>2026-04-19T10:39:06.16Z</time></trkpt><trkpt lat="43.5022127" lon="11.2469154"><ele>524.0</ele><time>2026-04-19T10:39:07.151Z</time></trkpt><trkpt lat="43.5021384" lon="11.2469362"><ele>524.0</ele><time>2026-04-19T10:39:08.158Z</time></trkpt><trkpt lat="43.5020704" lon="11.2469301"><ele>524.0</ele><time>2026-04-19T10:39:09.175Z</time></trkpt><trkpt lat="43.5020089" lon="11.246903"><ele>524.0</ele><time>2026-04-19T10:39:10.178Z</time></trkpt><trkpt lat="43.5019347" lon="11.246873"><ele>524.0</ele><time>2026-04-19T10:39:11.152Z</time></trkpt><trkpt lat="43.5018574" lon="11.2468681"><ele>524.0</ele><time>2026-04-19T10:39:12.168Z</time></trkpt><trkpt lat="43.5017771" lon="11.2468911"><ele>524.0</ele><time>2026-04-19T10:39:13.168Z</time></trkpt><trkpt lat="43.5016887" lon="11.2469504"><ele>524.5</ele><time>2026-04-19T10:39:14.16Z</time></trkpt><trkpt lat="43.5015913" lon="11.2470405"><ele>525.0</ele><time>2026-04-19T10:39:15.162Z</time></trkpt><trkpt lat="43.5015147" lon="11.2471312"><ele>525.5</ele><time>2026-04-19T10:39:16.169Z</time></trkpt><trkpt lat="43.5014462" lon="11.2471999"><ele>526.0</ele><time>2026-04-19T10:39:17.151Z</time></trkpt><trkpt lat="43.5013878" lon="11.2472607"><ele>526.5</ele><time>2026-04-19T10:39:18.17Z</time></trkpt><trkpt lat="43.5013388" lon="11.2473177"><ele>527.0</ele><time>2026-04-19T10:39:19.169Z</time></trkpt><trkpt lat="43.5012327" lon="11.2473946"><ele>527.0</ele><time>2026-04-19T10:39:21.162Z</time></trkpt><trkpt lat="43.5011474" lon="11.2473976"><ele>527.0</ele><time>2026-04-19T10:39:22.17Z</time></trkpt><trkpt lat="43.5010354" lon="11.2473794"><ele>527.0</ele><time>2026-04-19T10:39:23.176Z</time></trkpt><trkpt lat="43.5009265" lon="11.2473568"><ele>527.0</ele><time>2026-04-19T10:39:24.169Z</time></trkpt><trkpt lat="43.5008289" lon="11.2473414"><ele>527.0</ele><time>2026-04-19T10:39:25.177Z</time></trkpt><trkpt lat="43.5007562" lon="11.2473015"><ele>525.3333333333333</ele><time>2026-04-19T10:39:26.18Z</time></trkpt><trkpt lat="43.5006974" lon="11.2472337"><ele>523.6666666666666</ele><time>2026-04-19T10:39:27.157Z</time></trkpt><trkpt lat="43.5006579" lon="11.2471559"><ele>522.0</ele><time>2026-04-19T10:39:28.181Z</time></trkpt><trkpt lat="43.5006274" lon="11.2470592"><ele>520.3333333333334</ele><time>2026-04-19T10:39:29.169Z</time></trkpt><trkpt lat="43.5006073" lon="11.2469467"><ele>518.6666666666667</ele><time>2026-04-19T10:39:30.151Z</time></trkpt><trkpt lat="43.5005883" lon="11.2468271"><ele>517.0</ele><time>2026-04-19T10:39:31.147Z</time></trkpt><trkpt lat="43.5005628" lon="11.2467119"><ele>517.0</ele><time>2026-04-19T10:39:32.156Z</time></trkpt><trkpt lat="43.5005298" lon="11.2466074"><ele>517.0</ele><time>2026-04-19T10:39:33.177Z</time></trkpt><trkpt lat="43.5004899" lon="11.2465198"><ele>517.0</ele><time>2026-04-19T10:39:34.17Z</time></trkpt><trkpt lat="43.5004478" lon="11.2464369"><ele>517.0</ele><time>2026-04-19T10:39:35.173Z</time></trkpt><trkpt lat="43.5003999" lon="11.2463418"><ele>517.0</ele><time>2026-04-19T10:39:36.158Z</time></trkpt><trkpt lat="43.500362" lon="11.2462199"><ele>517.0</ele><time>2026-04-19T10:39:37.159Z</time></trkpt><trkpt lat="43.5003166" lon="11.2460865"><ele>518.0</ele><time>2026-04-19T10:39:38.168Z</time></trkpt><trkpt lat="43.5002672" lon="11.2459214"><ele>519.0</ele><time>2026-04-19T10:39:39.167Z</time></trkpt><trkpt lat="43.5002438" lon="11.2457681"><ele>520.0</ele><time>2026-04-19T10:39:40.155Z</time></trkpt><trkpt lat="43.5002243" lon="11.2456393"><ele>521.0</ele><time>2026-04-19T10:39:41.174Z</time></trkpt><trkpt lat="43.5001832" lon="11.2455122"><ele>522.0</ele><time>2026-04-19T10:39:42.171Z</time></trkpt><trkpt lat="43.5001378" lon="11.2453965"><ele>520.1666666666666</ele><time>2026-04-19T10:39:43.173Z</time></trkpt><trkpt lat="43.5001" lon="11.2452906"><ele>518.3333333333334</ele><time>2026-04-19T10:39:44.162Z</time></trkpt><trkpt lat="43.5000686" lon="11.2451902"><ele>516.5</ele><time>2026-04-19T10:39:45.172Z</time></trkpt><trkpt lat="43.5000307" lon="11.2451014"><ele>514.6666666666667</ele><time>2026-04-19T10:39:46.169Z</time></trkpt><trkpt lat="43.4999646" lon="11.2450516"><ele>512.8333333333334</ele><time>2026-04-19T10:39:47.165Z</time></trkpt><trkpt lat="43.4998856" lon="11.2450429"><ele>511.0</ele><time>2026-04-19T10:39:48.151Z</time></trkpt><trkpt lat="43.4997915" lon="11.2450666"><ele>511.0</ele><time>2026-04-19T10:39:49.172Z</time></trkpt><trkpt lat="43.4997026" lon="11.2451237"><ele>511.0</ele><time>2026-04-19T10:39:50.158Z</time></trkpt><trkpt lat="43.4996028" lon="11.2452169"><ele>511.0</ele><time>2026-04-19T10:39:51.158Z</time></trkpt><trkpt lat="43.4994983" lon="11.2453068"><ele>511.0</ele><time>2026-04-19T10:39:52.179Z</time></trkpt><trkpt lat="43.4994035" lon="11.2453951"><ele>510.4</ele><time>2026-04-19T10:39:53.166Z</time></trkpt><trkpt lat="43.4993092" lon="11.2454895"><ele>509.8</ele><time>2026-04-19T10:39:54.179Z</time></trkpt><trkpt lat="43.4992203" lon="11.2455727"><ele>509.19999999999993</ele><time>2026-04-19T10:39:55.173Z</time></trkpt><trkpt lat="43.4991404" lon="11.2456501"><ele>508.59999999999997</ele><time>2026-04-19T10:39:56.17Z</time></trkpt><trkpt lat="43.4990618" lon="11.2457344"><ele>508.0</ele><time>2026-04-19T10:39:57.175Z</time></trkpt><trkpt lat="43.4989803" lon="11.245822"><ele>508.0</ele><time>2026-04-19T10:39:58.165Z</time></trkpt><trkpt lat="43.4988943" lon="11.2459126"><ele>507.99999999999994</ele><time>2026-04-19T10:39:59.172Z</time></trkpt><trkpt lat="43.4988167" lon="11.2460013"><ele>507.99999999999994</ele><time>2026-04-19T10:40:00.167Z</time></trkpt><trkpt lat="43.4987355" lon="11.2460827"><ele>508.0</ele><time>2026-04-19T10:40:01.152Z</time></trkpt><trkpt lat="43.4986623" lon="11.2461688"><ele>508.0</ele><time>2026-04-19T10:40:02.171Z</time></trkpt><trkpt lat="43.4985933" lon="11.2462515"><ele>506.6666666666667</ele><time>2026-04-19T10:40:03.174Z</time></trkpt><trkpt lat="43.4985359" lon="11.2463343"><ele>505.33333333333337</ele><time>2026-04-19T10:40:04.167Z</time></trkpt><trkpt lat="43.4984837" lon="11.2463998"><ele>504.0</ele><time>2026-04-19T10:40:05.173Z</time></trkpt><trkpt lat="43.4983991" lon="11.2464654"><ele>502.66666666666663</ele><time>2026-04-19T10:40:07.166Z</time></trkpt><trkpt lat="43.4983499" lon="11.2463958"><ele>501.3333333333333</ele><time>2026-04-19T10:40:09.159Z</time></trkpt><trkpt lat="43.4983205" lon="11.2463006"><ele>500.0</ele><time>2026-04-19T10:40:10.168Z</time></trkpt><trkpt lat="43.4982794" lon="11.2461987"><ele>498.0</ele><time>2026-04-19T10:40:11.164Z</time></trkpt><trkpt lat="43.4982297" lon="11.2460788"><ele>496.0</ele><time>2026-04-19T10:40:12.168Z</time></trkpt><trkpt lat="43.4981848" lon="11.2459518"><ele>494.0</ele><time>2026-04-19T10:40:13.184Z</time></trkpt><trkpt lat="43.4981458" lon="11.2458107"><ele>492.0</ele><time>2026-04-19T10:40:14.159Z</time></trkpt><trkpt lat="43.4981141" lon="11.2456619"><ele>490.0</ele><time>2026-04-19T10:40:15.164Z</time></trkpt><trkpt lat="43.4980847" lon="11.2455119"><ele>487.25</ele><time>2026-04-19T10:40:16.149Z</time></trkpt><trkpt lat="43.4980593" lon="11.2453675"><ele>484.5</ele><time>2026-04-19T10:40:17.165Z</time></trkpt><trkpt lat="43.4980489" lon="11.2452165"><ele>481.75</ele><time>2026-04-19T10:40:18.166Z</time></trkpt><trkpt lat="43.4980401" lon="11.245059"><ele>479.0</ele><time>2026-04-19T10:40:19.17Z</time></trkpt><trkpt lat="43.4980301" lon="11.2448978"><ele>478.6</ele><time>2026-04-19T10:40:20.17Z</time></trkpt><trkpt lat="43.4980125" lon="11.2447461"><ele>478.2</ele><time>2026-04-19T10:40:21.17Z</time></trkpt><trkpt lat="43.4979911" lon="11.2446143"><ele>477.80000000000007</ele><time>2026-04-19T10:40:22.154Z</time></trkpt><trkpt lat="43.4979496" lon="11.2445038"><ele>477.40000000000003</ele><time>2026-04-19T10:40:23.167Z</time></trkpt><trkpt lat="43.4978888" lon="11.2444031"><ele>477.0</ele><time>2026-04-19T10:40:24.173Z</time></trkpt><trkpt lat="43.4978127" lon="11.2443192"><ele>477.0</ele><time>2026-04-19T10:40:25.184Z</time></trkpt><trkpt lat="43.4977297" lon="11.2442431"><ele>477.00000000000006</ele><time>2026-04-19T10:40:26.179Z</time></trkpt><trkpt lat="43.4976312" lon="11.2441711"><ele>477.00000000000006</ele><time>2026-04-19T10:40:27.162Z</time></trkpt><trkpt lat="43.4975359" lon="11.2441153"><ele>477.0</ele><time>2026-04-19T10:40:28.178Z</time></trkpt><trkpt lat="43.4974359" lon="11.2440608"><ele>477.0</ele><time>2026-04-19T10:40:29.166Z</time></trkpt><trkpt lat="43.4973378" lon="11.2440324"><ele>477.0</ele><time>2026-04-19T10:40:30.149Z</time></trkpt><trkpt lat="43.4972383" lon="11.2440357"><ele>477.00000000000006</ele><time>2026-04-19T10:40:31.176Z</time></trkpt><trkpt lat="43.4971402" lon="11.244071"><ele>477.00000000000006</ele><time>2026-04-19T10:40:32.171Z</time></trkpt><trkpt lat="43.4970323" lon="11.2441017"><ele>477.0</ele><time>2026-04-19T10:40:33.163Z</time></trkpt><trkpt lat="43.4969256" lon="11.2441104"><ele>477.0</ele><time>2026-04-19T10:40:34.17Z</time></trkpt><trkpt lat="43.4968262" lon="11.2441041"><ele>477.20000000000005</ele><time>2026-04-19T10:40:35.163Z</time></trkpt><trkpt lat="43.4967359" lon="11.2440659"><ele>477.40000000000003</ele><time>2026-04-19T10:40:36.168Z</time></trkpt><trkpt lat="43.4966527" lon="11.2440017"><ele>477.59999999999997</ele><time>2026-04-19T10:40:37.169Z</time></trkpt><trkpt lat="43.4965794" lon="11.2439287"><ele>477.79999999999995</ele><time>2026-04-19T10:40:38.172Z</time></trkpt><trkpt lat="43.49652" lon="11.2438334"><ele>478.0</ele><time>2026-04-19T10:40:39.161Z</time></trkpt><trkpt lat="43.4964734" lon="11.2437213"><ele>474.2</ele><time>2026-04-19T10:40:40.164Z</time></trkpt><trkpt lat="43.4964259" lon="11.2435861"><ele>470.4</ele><time>2026-04-19T10:40:41.164Z</time></trkpt><trkpt lat="43.4963774" lon="11.2434635"><ele>466.59999999999997</ele><time>2026-04-19T10:40:42.172Z</time></trkpt><trkpt lat="43.4963283" lon="11.2433516"><ele>462.79999999999995</ele><time>2026-04-19T10:40:43.176Z</time></trkpt><trkpt lat="43.4962864" lon="11.2432418"><ele>459.0</ele><time>2026-04-19T10:40:44.165Z</time></trkpt><trkpt lat="43.4962414" lon="11.2431233"><ele>458.8333333333333</ele><time>2026-04-19T10:40:45.17Z</time></trkpt><trkpt lat="43.4961986" lon="11.2430075"><ele>458.66666666666663</ele><time>2026-04-19T10:40:46.146Z</time></trkpt><trkpt lat="43.4961599" lon="11.2428947"><ele>458.5</ele><time>2026-04-19T10:40:47.171Z</time></trkpt><trkpt lat="43.4961257" lon="11.2427969"><ele>458.3333333333333</ele><time>2026-04-19T10:40:48.163Z</time></trkpt><trkpt lat="43.4960924" lon="11.2426981"><ele>458.16666666666663</ele><time>2026-04-19T10:40:49.149Z</time></trkpt><trkpt lat="43.4960518" lon="11.2426059"><ele>458.0</ele><time>2026-04-19T10:40:50.165Z</time></trkpt><trkpt lat="43.4960085" lon="11.2425168"><ele>457.99999999999994</ele><time>2026-04-19T10:40:51.18Z</time></trkpt><trkpt lat="43.4959689" lon="11.2424372"><ele>458.0</ele><time>2026-04-19T10:40:52.168Z</time></trkpt><trkpt lat="43.4959378" lon="11.2423549"><ele>458.0</ele><time>2026-04-19T10:40:53.163Z</time></trkpt><trkpt lat="43.4959101" lon="11.2422605"><ele>458.0</ele><time>2026-04-19T10:40:54.169Z</time></trkpt><trkpt lat="43.4958961" lon="11.2421524"><ele>457.99999999999994</ele><time>2026-04-19T10:40:55.169Z</time></trkpt><trkpt lat="43.4959043" lon="11.2420426"><ele>458.0</ele><time>2026-04-19T10:40:56.171Z</time></trkpt><trkpt lat="43.4959218" lon="11.2419198"><ele>457.66666666666663</ele><time>2026-04-19T10:40:57.175Z</time></trkpt><trkpt lat="43.4959341" lon="11.2418094"><ele>457.3333333333333</ele><time>2026-04-19T10:40:58.172Z</time></trkpt><trkpt lat="43.4959384" lon="11.2416967"><ele>457.0</ele><time>2026-04-19T10:40:59.18Z</time></trkpt><trkpt lat="43.4959462" lon="11.2415847"><ele>456.66666666666663</ele><time>2026-04-19T10:41:00.167Z</time></trkpt><trkpt lat="43.4959482" lon="11.2414562"><ele>456.3333333333333</ele><time>2026-04-19T10:41:01.166Z</time></trkpt><trkpt lat="43.4959454" lon="11.2413247"><ele>456.0</ele><time>2026-04-19T10:41:02.164Z</time></trkpt><trkpt lat="43.4959366" lon="11.2411814"><ele>456.20000000000005</ele><time>2026-04-19T10:41:03.173Z</time></trkpt><trkpt lat="43.49592" lon="11.2410426"><ele>456.40000000000003</ele><time>2026-04-19T10:41:04.186Z</time></trkpt><trkpt lat="43.4959003" lon="11.2409"><ele>456.6</ele><time>2026-04-19T10:41:05.177Z</time></trkpt><trkpt lat="43.4958878" lon="11.2407597"><ele>456.8</ele><time>2026-04-19T10:41:06.18Z</time></trkpt><trkpt lat="43.4958867" lon="11.2406108"><ele>457.0</ele><time>2026-04-19T10:41:07.167Z</time></trkpt><trkpt lat="43.4958889" lon="11.2404632"><ele>457.0</ele><time>2026-04-19T10:41:08.176Z</time></trkpt><trkpt lat="43.4958862" lon="11.2403144"><ele>457.00000000000006</ele><time>2026-04-19T10:41:09.175Z</time></trkpt><trkpt lat="43.4958757" lon="11.2401685"><ele>457.00000000000006</ele><time>2026-04-19T10:41:10.166Z</time></trkpt><trkpt lat="43.4958558" lon="11.2400234"><ele>457.0</ele><time>2026-04-19T10:41:11.162Z</time></trkpt><trkpt lat="43.4958204" lon="11.2398815"><ele>457.0</ele><time>2026-04-19T10:41:12.166Z</time></trkpt><trkpt lat="43.4957867" lon="11.2397463"><ele>458.20000000000005</ele><time>2026-04-19T10:41:13.183Z</time></trkpt><trkpt lat="43.4957638" lon="11.2396237"><ele>459.40000000000003</ele><time>2026-04-19T10:41:14.182Z</time></trkpt><trkpt lat="43.4957594" lon="11.2394874"><ele>460.59999999999997</ele><time>2026-04-19T10:41:15.193Z</time></trkpt><trkpt lat="43.495757" lon="11.2393251"><ele>461.79999999999995</ele><time>2026-04-19T10:41:16.172Z</time></trkpt><trkpt lat="43.4957613" lon="11.2391684"><ele>463.0</ele><time>2026-04-19T10:41:17.16Z</time></trkpt><trkpt lat="43.4957661" lon="11.2390099"><ele>463.0</ele><time>2026-04-19T10:41:18.179Z</time></trkpt><trkpt lat="43.4957766" lon="11.2388643"><ele>462.99999999999994</ele><time>2026-04-19T10:41:19.17Z</time></trkpt><trkpt lat="43.4957896" lon="11.2387444"><ele>462.99999999999994</ele><time>2026-04-19T10:41:20.172Z</time></trkpt><trkpt lat="43.4957912" lon="11.2386514"><ele>463.0</ele><time>2026-04-19T10:41:21.171Z</time></trkpt><trkpt lat="43.4957741" lon="11.2385644"><ele>463.0</ele><time>2026-04-19T10:41:22.178Z</time></trkpt><trkpt lat="43.4956899" lon="11.2384193"><ele>463.00000000000006</ele><time>2026-04-19T10:41:24.192Z</time></trkpt><trkpt lat="43.4956263" lon="11.2383314"><ele>463.0</ele><time>2026-04-19T10:41:25.168Z</time></trkpt><trkpt lat="43.495571" lon="11.2382516"><ele>463.0</ele><time>2026-04-19T10:41:26.179Z</time></trkpt><trkpt lat="43.4955268" lon="11.2381703"><ele>463.0</ele><time>2026-04-19T10:41:27.183Z</time></trkpt><trkpt lat="43.4954548" lon="11.2380658"><ele>463.00000000000006</ele><time>2026-04-19T10:41:29.173Z</time></trkpt><trkpt lat="43.4953919" lon="11.2379654"><ele>463.0</ele><time>2026-04-19T10:41:31.151Z</time></trkpt><trkpt lat="43.4953631" lon="11.2378592"><ele>461.59999999999997</ele><time>2026-04-19T10:41:32.171Z</time></trkpt><trkpt lat="43.4953154" lon="11.2377406"><ele>460.19999999999993</ele><time>2026-04-19T10:41:33.166Z</time></trkpt><trkpt lat="43.4952664" lon="11.237634"><ele>458.8</ele><time>2026-04-19T10:41:34.178Z</time></trkpt><trkpt lat="43.4952128" lon="11.2375331"><ele>457.4</ele><time>2026-04-19T10:41:35.176Z</time></trkpt><trkpt lat="43.4951472" lon="11.2374232"><ele>456.0</ele><time>2026-04-19T10:41:36.172Z</time></trkpt><trkpt lat="43.4950586" lon="11.2373297"><ele>454.0</ele><time>2026-04-19T10:41:37.18Z</time></trkpt><trkpt lat="43.4949705" lon="11.2372333"><ele>452.0</ele><time>2026-04-19T10:41:38.17Z</time></trkpt><trkpt lat="43.4948979" lon="11.2371529"><ele>450.0</ele><time>2026-04-19T10:41:39.169Z</time></trkpt><trkpt lat="43.4948262" lon="11.2370755"><ele>448.0</ele><time>2026-04-19T10:41:40.172Z</time></trkpt><trkpt lat="43.4947642" lon="11.2370079"><ele>446.0</ele><time>2026-04-19T10:41:41.176Z</time></trkpt><trkpt lat="43.4946972" lon="11.2369379"><ele>446.0</ele><time>2026-04-19T10:41:42.18Z</time></trkpt><trkpt lat="43.4946195" lon="11.2368735"><ele>446.0</ele><time>2026-04-19T10:41:43.166Z</time></trkpt><trkpt lat="43.4945475" lon="11.2368232"><ele>446.0</ele><time>2026-04-19T10:41:44.179Z</time></trkpt><trkpt lat="43.4944792" lon="11.2367841"><ele>446.0</ele><time>2026-04-19T10:41:45.16Z</time></trkpt><trkpt lat="43.4943719" lon="11.2367082"><ele>446.0</ele><time>2026-04-19T10:41:47.158Z</time></trkpt><trkpt lat="43.4942454" lon="11.2367021"><ele>447.0</ele><time>2026-04-19T10:41:49.173Z</time></trkpt><trkpt lat="43.4941587" lon="11.2367274"><ele>448.0</ele><time>2026-04-19T10:41:50.172Z</time></trkpt><trkpt lat="43.4940722" lon="11.2367567"><ele>449.0</ele><time>2026-04-19T10:41:51.194Z</time></trkpt><trkpt lat="43.4939898" lon="11.2367744"><ele>450.0</ele><time>2026-04-19T10:41:52.175Z</time></trkpt><trkpt lat="43.493897" lon="11.2367677"><ele>451.0</ele><time>2026-04-19T10:41:53.171Z</time></trkpt><trkpt lat="43.4937894" lon="11.2367506"><ele>449.20000000000005</ele><time>2026-04-19T10:41:54.167Z</time></trkpt><trkpt lat="43.4936807" lon="11.2367534"><ele>447.40000000000003</ele><time>2026-04-19T10:41:55.16Z</time></trkpt><trkpt lat="43.4935808" lon="11.236786"><ele>445.6</ele><time>2026-04-19T10:41:56.175Z</time></trkpt><trkpt lat="43.4934865" lon="11.2368441"><ele>443.8</ele><time>2026-04-19T10:41:57.166Z</time></trkpt><trkpt lat="43.4933927" lon="11.2369185"><ele>442.0</ele><time>2026-04-19T10:41:58.172Z</time></trkpt><trkpt lat="43.493298" lon="11.2369925"><ele>442.0</ele><time>2026-04-19T10:41:59.173Z</time></trkpt><trkpt lat="43.4932057" lon="11.2370579"><ele>442.00000000000006</ele><time>2026-04-19T10:42:00.168Z</time></trkpt><trkpt lat="43.4931097" lon="11.2371287"><ele>442.00000000000006</ele><time>2026-04-19T10:42:01.179Z</time></trkpt><trkpt lat="43.4930138" lon="11.2372023"><ele>442.0</ele><time>2026-04-19T10:42:02.15Z</time></trkpt><trkpt lat="43.4929147" lon="11.237279"><ele>442.0</ele><time>2026-04-19T10:42:03.182Z</time></trkpt><trkpt lat="43.4928126" lon="11.2373473"><ele>439.1666666666667</ele><time>2026-04-19T10:42:04.182Z</time></trkpt><trkpt lat="43.4927208" lon="11.237417"><ele>436.33333333333337</ele><time>2026-04-19T10:42:05.149Z</time></trkpt><trkpt lat="43.4926353" lon="11.2374753"><ele>433.5</ele><time>2026-04-19T10:42:06.166Z</time></trkpt><trkpt lat="43.4925594" lon="11.2375329"><ele>430.66666666666663</ele><time>2026-04-19T10:42:07.174Z</time></trkpt><trkpt lat="43.4924899" lon="11.2375881"><ele>427.8333333333333</ele><time>2026-04-19T10:42:08.166Z</time></trkpt><trkpt lat="43.4924353" lon="11.2376371"><ele>425.0</ele><time>2026-04-19T10:42:09.177Z</time></trkpt><trkpt lat="43.4923685" lon="11.2377048"><ele>424.99999999999994</ele><time>2026-04-19T10:42:11.172Z</time></trkpt><trkpt lat="43.4923143" lon="11.2377507"><ele>425.0</ele><time>2026-04-19T10:42:15.169Z</time></trkpt><trkpt lat="43.4923366" lon="11.2378414"><ele>425.0</ele><time>2026-04-19T10:42:22.153Z</time></trkpt><trkpt lat="43.4924" lon="11.2378515"><ele>425.0</ele><time>2026-04-19T10:42:23.175Z</time></trkpt><trkpt lat="43.4924838" lon="11.2378654"><ele>424.99999999999994</ele><time>2026-04-19T10:42:24.175Z</time></trkpt><trkpt lat="43.4925803" lon="11.2379003"><ele>425.0</ele><time>2026-04-19T10:42:25.177Z</time></trkpt><trkpt lat="43.4926942" lon="11.2379921"><ele>425.0</ele><time>2026-04-19T10:42:26.171Z</time></trkpt><trkpt lat="43.4928039" lon="11.2381116"><ele>425.0</ele><time>2026-04-19T10:42:27.168Z</time></trkpt><trkpt lat="43.4928951" lon="11.2382227"><ele>425.0</ele><time>2026-04-19T10:42:28.175Z</time></trkpt><trkpt lat="43.4929606" lon="11.2383374"><ele>425.0</ele><time>2026-04-19T10:42:29.164Z</time></trkpt><trkpt lat="43.4930172" lon="11.2384635"><ele>424.75</ele><time>2026-04-19T10:42:30.178Z</time></trkpt><trkpt lat="43.4930686" lon="11.238588"><ele>424.5</ele><time>2026-04-19T10:42:31.174Z</time></trkpt><trkpt lat="43.4931104" lon="11.2387385"><ele>424.25</ele><time>2026-04-19T10:42:32.16Z</time></trkpt><trkpt lat="43.4931375" lon="11.2389042"><ele>424.0</ele><time>2026-04-19T10:42:33.154Z</time></trkpt><trkpt lat="43.493155" lon="11.2390717"><ele>424.0</ele><time>2026-04-19T10:42:34.151Z</time></trkpt><trkpt lat="43.4931773" lon="11.2392332"><ele>424.0</ele><time>2026-04-19T10:42:35.171Z</time></trkpt><trkpt lat="43.4932195" lon="11.2393844"><ele>424.0</ele><time>2026-04-19T10:42:36.162Z</time></trkpt><trkpt lat="43.4932946" lon="11.2395283"><ele>424.0</ele><time>2026-04-19T10:42:37.176Z</time></trkpt><trkpt lat="43.4933949" lon="11.2396634"><ele>422.75</ele><time>2026-04-19T10:42:38.171Z</time></trkpt><trkpt lat="43.493506" lon="11.2398013"><ele>421.5</ele><time>2026-04-19T10:42:39.166Z</time></trkpt><trkpt lat="43.4936096" lon="11.239933"><ele>420.25</ele><time>2026-04-19T10:42:40.151Z</time></trkpt><trkpt lat="43.4936939" lon="11.2400524"><ele>419.0</ele><time>2026-04-19T10:42:41.158Z</time></trkpt><trkpt lat="43.493775" lon="11.2401718"><ele>421.25</ele><time>2026-04-19T10:42:42.153Z</time></trkpt><trkpt lat="43.4938588" lon="11.2402927"><ele>423.5</ele><time>2026-04-19T10:42:43.153Z</time></trkpt><trkpt lat="43.4939357" lon="11.2404223"><ele>425.75</ele><time>2026-04-19T10:42:44.17Z</time></trkpt><trkpt lat="43.4940105" lon="11.2405609"><ele>428.0</ele><time>2026-04-19T10:42:45.17Z</time></trkpt><trkpt lat="43.4940815" lon="11.240698"><ele>428.0</ele><time>2026-04-19T10:42:46.169Z</time></trkpt><trkpt lat="43.4941437" lon="11.2408346"><ele>427.99999999999994</ele><time>2026-04-19T10:42:47.18Z</time></trkpt><trkpt lat="43.4941973" lon="11.2409672"><ele>427.99999999999994</ele><time>2026-04-19T10:42:48.159Z</time></trkpt><trkpt lat="43.4942374" lon="11.2410996"><ele>428.0</ele><time>2026-04-19T10:42:49.167Z</time></trkpt><trkpt lat="43.4942572" lon="11.2412524"><ele>428.0</ele><time>2026-04-19T10:42:50.169Z</time></trkpt><trkpt lat="43.4942751" lon="11.2414234"><ele>428.0</ele><time>2026-04-19T10:42:51.172Z</time></trkpt><trkpt lat="43.4942846" lon="11.2416007"><ele>428.0</ele><time>2026-04-19T10:42:52.171Z</time></trkpt><trkpt lat="43.4942902" lon="11.2417777"><ele>428.0</ele><time>2026-04-19T10:42:53.168Z</time></trkpt><trkpt lat="43.4942931" lon="11.2419458"><ele>428.0</ele><time>2026-04-19T10:42:54.167Z</time></trkpt><trkpt lat="43.4942945" lon="11.2420926"><ele>428.0</ele><time>2026-04-19T10:42:55.171Z</time></trkpt><trkpt lat="43.494297" lon="11.2422273"><ele>427.99999999999994</ele><time>2026-04-19T10:42:56.166Z</time></trkpt><trkpt lat="43.4942947" lon="11.2423639"><ele>427.99999999999994</ele><time>2026-04-19T10:42:57.179Z</time></trkpt><trkpt lat="43.4942969" lon="11.2425039"><ele>428.0</ele><time>2026-04-19T10:42:58.175Z</time></trkpt><trkpt lat="43.4942968" lon="11.2426466"><ele>428.0</ele><time>2026-04-19T10:42:59.17Z</time></trkpt><trkpt lat="43.4942964" lon="11.242798"><ele>428.0</ele><time>2026-04-19T10:43:00.174Z</time></trkpt><trkpt lat="43.4942959" lon="11.2429497"><ele>427.99999999999994</ele><time>2026-04-19T10:43:01.17Z</time></trkpt><trkpt lat="43.4942922" lon="11.2430952"><ele>427.99999999999994</ele><time>2026-04-19T10:43:02.178Z</time></trkpt><trkpt lat="43.4942743" lon="11.243235"><ele>428.0</ele><time>2026-04-19T10:43:03.173Z</time></trkpt><trkpt lat="43.4942447" lon="11.2433754"><ele>428.0</ele><time>2026-04-19T10:43:04.166Z</time></trkpt><trkpt lat="43.4942074" lon="11.2435193"><ele>428.75</ele><time>2026-04-19T10:43:05.175Z</time></trkpt><trkpt lat="43.4941686" lon="11.2436729"><ele>429.5</ele><time>2026-04-19T10:43:06.154Z</time></trkpt><trkpt lat="43.494125" lon="11.2438304"><ele>430.25</ele><time>2026-04-19T10:43:07.171Z</time></trkpt><trkpt lat="43.4940757" lon="11.2439937"><ele>431.0</ele><time>2026-04-19T10:43:08.175Z</time></trkpt><trkpt lat="43.4940399" lon="11.2441601"><ele>431.75</ele><time>2026-04-19T10:43:09.17Z</time></trkpt><trkpt lat="43.4940164" lon="11.244322"><ele>432.5</ele><time>2026-04-19T10:43:10.172Z</time></trkpt><trkpt lat="43.4940114" lon="11.244484"><ele>433.25</ele><time>2026-04-19T10:43:11.172Z</time></trkpt><trkpt lat="43.4940263" lon="11.2446492"><ele>434.0</ele><time>2026-04-19T10:43:12.17Z</time></trkpt><trkpt lat="43.4940582" lon="11.2448142"><ele>434.75</ele><time>2026-04-19T10:43:13.167Z</time></trkpt><trkpt lat="43.4940866" lon="11.2449901"><ele>435.5</ele><time>2026-04-19T10:43:14.169Z</time></trkpt><trkpt lat="43.4940895" lon="11.2451724"><ele>436.25</ele><time>2026-04-19T10:43:15.16Z</time></trkpt><trkpt lat="43.4940578" lon="11.2453459"><ele>437.0</ele><time>2026-04-19T10:43:16.166Z</time></trkpt><trkpt lat="43.4940014" lon="11.2454969"><ele>437.0</ele><time>2026-04-19T10:43:17.157Z</time></trkpt><trkpt lat="43.4939169" lon="11.2456199"><ele>437.0</ele><time>2026-04-19T10:43:18.176Z</time></trkpt><trkpt lat="43.4938053" lon="11.2456772"><ele>437.0</ele><time>2026-04-19T10:43:19.166Z</time></trkpt><trkpt lat="43.493667" lon="11.2456823"><ele>437.0</ele><time>2026-04-19T10:43:20.168Z</time></trkpt><trkpt lat="43.4935251" lon="11.2456926"><ele>437.5</ele><time>2026-04-19T10:43:21.163Z</time></trkpt><trkpt lat="43.4934048" lon="11.2457376"><ele>438.0</ele><time>2026-04-19T10:43:22.156Z</time></trkpt><trkpt lat="43.4932944" lon="11.2458251"><ele>438.5</ele><time>2026-04-19T10:43:23.16Z</time></trkpt><trkpt lat="43.4932003" lon="11.2459484"><ele>439.0</ele><time>2026-04-19T10:43:24.168Z</time></trkpt><trkpt lat="43.4930968" lon="11.2460893"><ele>439.0</ele><time>2026-04-19T10:43:25.17Z</time></trkpt><trkpt lat="43.4929861" lon="11.2462434"><ele>439.0</ele><time>2026-04-19T10:43:26.169Z</time></trkpt><trkpt lat="43.4928745" lon="11.2464034"><ele>439.0</ele><time>2026-04-19T10:43:27.168Z</time></trkpt><trkpt lat="43.4927629" lon="11.2465786"><ele>439.0</ele><time>2026-04-19T10:43:28.163Z</time></trkpt><trkpt lat="43.4926574" lon="11.2467692"><ele>439.0</ele><time>2026-04-19T10:43:29.165Z</time></trkpt><trkpt lat="43.4925558" lon="11.2469572"><ele>439.0</ele><time>2026-04-19T10:43:30.172Z</time></trkpt><trkpt lat="43.4924586" lon="11.2471452"><ele>445.0</ele><time>2026-04-19T10:43:31.166Z</time></trkpt><trkpt lat="43.4923688" lon="11.2473278"><ele>451.0</ele><time>2026-04-19T10:43:32.151Z</time></trkpt><trkpt lat="43.492285" lon="11.2475121"><ele>457.0</ele><time>2026-04-19T10:43:33.166Z</time></trkpt><trkpt lat="43.49221" lon="11.2476999"><ele>457.0</ele><time>2026-04-19T10:43:34.161Z</time></trkpt><trkpt lat="43.4921377" lon="11.2478573"><ele>457.00000000000006</ele><time>2026-04-19T10:43:35.173Z</time></trkpt><trkpt lat="43.4920753" lon="11.2479827"><ele>457.00000000000006</ele><time>2026-04-19T10:43:36.17Z</time></trkpt><trkpt lat="43.4920043" lon="11.2480691"><ele>457.0</ele><time>2026-04-19T10:43:37.167Z</time></trkpt><trkpt lat="43.4919263" lon="11.2481214"><ele>457.0</ele><time>2026-04-19T10:43:38.17Z</time></trkpt><trkpt lat="43.4918436" lon="11.2481559"><ele>458.0</ele><time>2026-04-19T10:43:39.174Z</time></trkpt><trkpt lat="43.491748" lon="11.2481508"><ele>459.00000000000006</ele><time>2026-04-19T10:43:40.17Z</time></trkpt><trkpt lat="43.4916477" lon="11.2481074"><ele>460.00000000000006</ele><time>2026-04-19T10:43:41.153Z</time></trkpt><trkpt lat="43.491551" lon="11.2480174"><ele>461.0</ele><time>2026-04-19T10:43:42.15Z</time></trkpt><trkpt lat="43.4914549" lon="11.2479096"><ele>462.0</ele><time>2026-04-19T10:43:43.164Z</time></trkpt><trkpt lat="43.4913433" lon="11.2478132"><ele>459.8</ele><time>2026-04-19T10:43:44.172Z</time></trkpt><trkpt lat="43.4912552" lon="11.2477226"><ele>457.6</ele><time>2026-04-19T10:43:45.168Z</time></trkpt><trkpt lat="43.4911849" lon="11.2476505"><ele>455.40000000000003</ele><time>2026-04-19T10:43:46.169Z</time></trkpt><trkpt lat="43.4910939" lon="11.2476022"><ele>453.20000000000005</ele><time>2026-04-19T10:43:47.172Z</time></trkpt><trkpt lat="43.4910071" lon="11.247546"><ele>451.0</ele><time>2026-04-19T10:43:49.155Z</time></trkpt><trkpt lat="43.4909509" lon="11.247505"><ele>451.0</ele><time>2026-04-19T10:43:51.156Z</time></trkpt><trkpt lat="43.4908857" lon="11.2474597"><ele>451.0</ele><time>2026-04-19T10:43:53.168Z</time></trkpt><trkpt lat="43.4908287" lon="11.2473965"><ele>451.0</ele><time>2026-04-19T10:43:58.165Z</time></trkpt><trkpt lat="43.4907691" lon="11.2474279"><ele>451.0</ele><time>2026-04-19T10:44:33.15Z</time></trkpt><trkpt lat="43.4906403" lon="11.2475089"><ele>451.0</ele><time>2026-04-19T10:50:07.157Z</time></trkpt></trkseg></trk></gpx>